<?xml version="1.0" encoding="UTF-8"?>
<gpx version="1.1" creator="Kurviger" xmlns="http://www.topografix.com/GPX/1/1" xmlns:xsi="http://www.w3.org/2001/XMLSchema-instance" xsi:schemaLocation="http://www.topografix.com/GPX/1/1 http://www.topografix.com/GPX/1/1/gpx.xsd http://www.garmin.com/xmlschemas/GpxExtensions/v3 http://www.garmin.com/xmlschemas/GpxExtensionsv3.xsd http://www.garmin.com/xmlschemas/TripExtensions/v1 http://www.garmin.com/xmlschemas/TripExtensionsv1.xsd" xmlns:gpxx="http://www.garmin.com/xmlschemas/GpxExtensions/v3" xmlns:trp="http://www.garmin.com/xmlschemas/TripExtensions/v1">
	<metadata>
		<name>Museum am Dom, St. Pölten - Maria Anzbach</name>
		<copyright author="OpenStreetMap contributors"/>
		<link href="https://kurviger.com">
			<text>Kurviger.com GPX</text>
		</link>
		<time>2025-07-28T20:45:35.675Z</time>
	</metadata>
	<wpt lat="48.205539" lon="15.626639">
		<name>Start</name>
		<sym>Flag, Green</sym>
		<type>start</type>
	</wpt>
	<wpt lat="48.19912" lon="15.632942">
		<name>Via Point 1</name>
		<sym>Flag, Blue</sym>
		<type>via</type>
	</wpt>
	<wpt lat="48.013104" lon="15.597576">
		<name>Via Point 2</name>
		<sym>Flag, Blue</sym>
		<type>via</type>
	</wpt>
	<wpt lat="48.025546" lon="15.432776">
		<name>Via Point 3</name>
		<sym>Flag, Blue</sym>
		<type>via</type>
	</wpt>
	<wpt lat="47.772258" lon="15.319351">
		<name>Via Point 4</name>
		<sym>Flag, Blue</sym>
		<type>via</type>
	</wpt>
	<wpt lat="47.962087" lon="14.774153">
		<name>Via Point 5</name>
		<sym>Flag, Blue</sym>
		<type>via</type>
	</wpt>
	<wpt lat="47.996499" lon="14.763936">
		<name>Via Point 6</name>
		<sym>Flag, Blue</sym>
		<type>via</type>
	</wpt>
	<wpt lat="48.22751" lon="15.16001">
		<name>Via Point 7</name>
		<sym>Flag, Blue</sym>
		<type>via</type>
	</wpt>
	<wpt lat="48.398029" lon="15.470195">
		<name>Via Point 8</name>
		<sym>Flag, Blue</sym>
		<type>via</type>
	</wpt>
	<wpt lat="48.366504" lon="15.612363">
		<name>Via Point 9</name>
		<sym>Flag, Blue</sym>
		<type>via</type>
	</wpt>
	<wpt lat="48.651863" lon="15.716803">
		<name>Via Point 10</name>
		<sym>Flag, Blue</sym>
		<type>via</type>
	</wpt>
	<wpt lat="48.617261" lon="15.202165">
		<name>Via Point 11</name>
		<sym>Flag, Blue</sym>
		<type>via</type>
	</wpt>
	<wpt lat="48.243763" lon="15.742834">
		<name>Via Point 12</name>
		<sym>Flag, Blue</sym>
		<type>via</type>
	</wpt>
	<wpt lat="48.19014" lon="15.930781">
		<name>Destination</name>
		<sym>Flag, Red</sym>
		<type>destination</type>
	</wpt>
	<trk>
		<name>Museum am Dom, St. Pölten - Maria Anzbach</name>
		<trkseg>
			<trkpt lat="48.20568" lon="15.62567">
				<ele>273.4</ele>
				<time>2025-07-28T20:45:35.674Z</time>
			</trkpt>
			<trkpt lat="48.20585" lon="15.6254">
				<ele>273.64</ele>
				<time>2025-07-28T20:45:41.178Z</time>
			</trkpt>
			<trkpt lat="48.20672" lon="15.62552">
				<ele>272.97</ele>
				<time>2025-07-28T20:46:00.754Z</time>
			</trkpt>
			<trkpt lat="48.20664" lon="15.62676">
				<ele>270.69</ele>
				<time>2025-07-28T20:46:19.543Z</time>
			</trkpt>
			<trkpt lat="48.20657" lon="15.62742">
				<ele>274.25</ele>
				<time>2025-07-28T20:46:29.682Z</time>
			</trkpt>
			<trkpt lat="48.20758" lon="15.62746">
				<ele>268.7</ele>
				<time>2025-07-28T20:46:52.982Z</time>
			</trkpt>
			<trkpt lat="48.20757" lon="15.62802">
				<ele>270.61</ele>
				<time>2025-07-28T20:46:58.264Z</time>
			</trkpt>
			<trkpt lat="48.20754" lon="15.6282">
				<ele>270.85</ele>
				<time>2025-07-28T20:46:59.767Z</time>
			</trkpt>
			<trkpt lat="48.20747" lon="15.62843">
				<ele>270.59</ele>
				<time>2025-07-28T20:47:01.806Z</time>
			</trkpt>
			<trkpt lat="48.20738" lon="15.62858">
				<ele>270.44</ele>
				<time>2025-07-28T20:47:03.525Z</time>
			</trkpt>
			<trkpt lat="48.20733" lon="15.62861">
				<ele>270.59</ele>
				<time>2025-07-28T20:47:04.249Z</time>
			</trkpt>
			<trkpt lat="48.2073" lon="15.62867">
				<ele>270.69</ele>
				<time>2025-07-28T20:47:04.926Z</time>
			</trkpt>
			<trkpt lat="48.20711" lon="15.6288">
				<ele>271.27</ele>
				<time>2025-07-28T20:47:07.793Z</time>
			</trkpt>
			<trkpt lat="48.20656" lon="15.62901">
				<ele>271.44</ele>
				<time>2025-07-28T20:47:15.610Z</time>
			</trkpt>
			<trkpt lat="48.20652" lon="15.62913">
				<ele>271.05</ele>
				<time>2025-07-28T20:47:16.810Z</time>
			</trkpt>
			<trkpt lat="48.20655" lon="15.63077">
				<ele>266.22</ele>
				<time>2025-07-28T20:47:31.171Z</time>
			</trkpt>
			<trkpt lat="48.2065" lon="15.63092">
				<ele>266.12</ele>
				<time>2025-07-28T20:47:32.640Z</time>
			</trkpt>
			<trkpt lat="48.20644" lon="15.631">
				<ele>266.12</ele>
				<time>2025-07-28T20:47:33.696Z</time>
			</trkpt>
			<trkpt lat="48.20637" lon="15.63106">
				<ele>266.12</ele>
				<time>2025-07-28T20:47:34.755Z</time>
			</trkpt>
			<trkpt lat="48.20505" lon="15.63061">
				<ele>268.39</ele>
				<time>2025-07-28T20:47:52.557Z</time>
			</trkpt>
			<trkpt lat="48.20489" lon="15.63061">
				<ele>268.58</ele>
				<time>2025-07-28T20:47:54.661Z</time>
			</trkpt>
			<trkpt lat="48.20473" lon="15.63068">
				<ele>269.41</ele>
				<time>2025-07-28T20:47:56.853Z</time>
			</trkpt>
			<trkpt lat="48.2047" lon="15.6306">
				<ele>269.17</ele>
				<time>2025-07-28T20:47:57.657Z</time>
			</trkpt>
			<trkpt lat="48.20467" lon="15.63058">
				<ele>269.09</ele>
				<time>2025-07-28T20:47:58.089Z</time>
			</trkpt>
			<trkpt lat="48.20461" lon="15.63058">
				<ele>269.09</ele>
				<time>2025-07-28T20:47:58.878Z</time>
			</trkpt>
			<trkpt lat="48.20456" lon="15.63066">
				<ele>269.39</ele>
				<time>2025-07-28T20:47:59.839Z</time>
			</trkpt>
			<trkpt lat="48.20456" lon="15.63076">
				<ele>269.76</ele>
				<time>2025-07-28T20:48:00.715Z</time>
			</trkpt>
			<trkpt lat="48.2046" lon="15.63083">
				<ele>269.98</ele>
				<time>2025-07-28T20:48:01.523Z</time>
			</trkpt>
			<trkpt lat="48.20454" lon="15.63144">
				<ele>271.64</ele>
				<time>2025-07-28T20:48:06.925Z</time>
			</trkpt>
			<trkpt lat="48.2043" lon="15.63237">
				<ele>269.98</ele>
				<time>2025-07-28T20:48:15.664Z</time>
			</trkpt>
			<trkpt lat="48.20293" lon="15.6312">
				<ele>270.62</ele>
				<time>2025-07-28T20:48:36.393Z</time>
			</trkpt>
			<trkpt lat="48.2024" lon="15.6308">
				<ele>272</ele>
				<time>2025-07-28T20:48:44.195Z</time>
			</trkpt>
			<trkpt lat="48.20215" lon="15.63057">
				<ele>271.73</ele>
				<time>2025-07-28T20:48:48.052Z</time>
			</trkpt>
			<trkpt lat="48.20178" lon="15.6301">
				<ele>272.62</ele>
				<time>2025-07-28T20:48:54.427Z</time>
			</trkpt>
			<trkpt lat="48.20171" lon="15.6302">
				<ele>272.25</ele>
				<time>2025-07-28T20:48:55.685Z</time>
			</trkpt>
			<trkpt lat="48.20156" lon="15.63029">
				<ele>271.88</ele>
				<time>2025-07-28T20:48:57.702Z</time>
			</trkpt>
			<trkpt lat="48.2005" lon="15.63039">
				<ele>274.57</ele>
				<time>2025-07-28T20:49:09.027Z</time>
			</trkpt>
			<trkpt lat="48.20021" lon="15.6304">
				<ele>271.47</ele>
				<time>2025-07-28T20:49:11.802Z</time>
			</trkpt>
			<trkpt lat="48.19985" lon="15.63032">
				<ele>266.76</ele>
				<time>2025-07-28T20:49:15.272Z</time>
			</trkpt>
			<trkpt lat="48.19971" lon="15.63023">
				<ele>266.08</ele>
				<time>2025-07-28T20:49:16.749Z</time>
			</trkpt>
			<trkpt lat="48.19936" lon="15.62994">
				<ele>267.27</ele>
				<time>2025-07-28T20:49:20.785Z</time>
			</trkpt>
			<trkpt lat="48.19912" lon="15.62983">
				<ele>267.76</ele>
				<time>2025-07-28T20:49:23.494Z</time>
			</trkpt>
			<trkpt lat="48.19888" lon="15.62985">
				<ele>268.14</ele>
				<time>2025-07-28T20:49:26.263Z</time>
			</trkpt>
			<trkpt lat="48.19876" lon="15.62992">
				<ele>268.33</ele>
				<time>2025-07-28T20:49:27.830Z</time>
			</trkpt>
			<trkpt lat="48.19863" lon="15.63006">
				<ele>268.63</ele>
				<time>2025-07-28T20:49:29.869Z</time>
			</trkpt>
			<trkpt lat="48.19853" lon="15.63028">
				<ele>269</ele>
				<time>2025-07-28T20:49:32.262Z</time>
			</trkpt>
			<trkpt lat="48.1985" lon="15.63046">
				<ele>269.32</ele>
				<time>2025-07-28T20:49:34.019Z</time>
			</trkpt>
			<trkpt lat="48.19848" lon="15.63067">
				<ele>269.75</ele>
				<time>2025-07-28T20:49:36.125Z</time>
			</trkpt>
			<trkpt lat="48.19847" lon="15.63133">
				<ele>271.6</ele>
				<time>2025-07-28T20:49:43.424Z</time>
			</trkpt>
			<trkpt lat="48.19849" lon="15.63177">
				<ele>271.39</ele>
				<time>2025-07-28T20:49:49.014Z</time>
			</trkpt>
			<trkpt lat="48.19849" lon="15.6323">
				<ele>274.31</ele>
				<time>2025-07-28T20:49:56.596Z</time>
			</trkpt>
			<trkpt lat="48.19846" lon="15.63246">
				<ele>275.69</ele>
				<time>2025-07-28T20:49:59.187Z</time>
			</trkpt>
			<trkpt lat="48.19842" lon="15.63252">
				<ele>275.82</ele>
				<time>2025-07-28T20:50:00.611Z</time>
			</trkpt>
			<trkpt lat="48.19841" lon="15.63266">
				<ele>276.49</ele>
				<time>2025-07-28T20:50:03.910Z</time>
			</trkpt>
			<trkpt lat="48.19844" lon="15.63275">
				<ele>277.43</ele>
				<time>2025-07-28T20:50:06.929Z</time>
			</trkpt>
			<trkpt lat="48.19849" lon="15.63279">
				<ele>278.24</ele>
				<time>2025-07-28T20:50:09.824Z</time>
			</trkpt>
			<trkpt lat="48.19857" lon="15.63277">
				<ele>279.54</ele>
				<time>2025-07-28T20:50:14.390Z</time>
			</trkpt>
			<trkpt lat="48.19862" lon="15.6327">
				<ele>279.11</ele>
				<time>2025-07-28T20:50:18.511Z</time>
			</trkpt>
			<trkpt lat="48.19875" lon="15.63269">
				<ele>278.33</ele>
				<time>2025-07-28T20:50:26.635Z</time>
			</trkpt>
			<trkpt lat="48.19912" lon="15.63271">
				<ele>276.36</ele>
				<time>2025-07-28T20:50:45.912Z</time>
			</trkpt>
			<trkpt lat="48.19925" lon="15.63272">
				<ele>274.39</ele>
				<time>2025-07-28T20:50:49.207Z</time>
			</trkpt>
			<trkpt lat="48.19945" lon="15.63266">
				<ele>271.39</ele>
				<time>2025-07-28T20:50:55.204Z</time>
			</trkpt>
			<trkpt lat="48.19924" lon="15.63256">
				<ele>274.79</ele>
				<time>2025-07-28T20:51:01.436Z</time>
			</trkpt>
			<trkpt lat="48.19887" lon="15.63259">
				<ele>277.37</ele>
				<time>2025-07-28T20:51:11.143Z</time>
			</trkpt>
			<trkpt lat="48.19863" lon="15.63256">
				<ele>277.62</ele>
				<time>2025-07-28T20:51:16.384Z</time>
			</trkpt>
			<trkpt lat="48.19858" lon="15.63247">
				<ele>276.51</ele>
				<time>2025-07-28T20:51:17.838Z</time>
			</trkpt>
			<trkpt lat="48.19852" lon="15.63245">
				<ele>275.9</ele>
				<time>2025-07-28T20:51:18.958Z</time>
			</trkpt>
			<trkpt lat="48.19846" lon="15.63246">
				<ele>275.69</ele>
				<time>2025-07-28T20:51:20.047Z</time>
			</trkpt>
			<trkpt lat="48.19842" lon="15.63252">
				<ele>275.82</ele>
				<time>2025-07-28T20:51:21.056Z</time>
			</trkpt>
			<trkpt lat="48.19841" lon="15.63266">
				<ele>276.49</ele>
				<time>2025-07-28T20:51:22.709Z</time>
			</trkpt>
			<trkpt lat="48.19849" lon="15.63299">
				<ele>277.43</ele>
				<time>2025-07-28T20:51:26.715Z</time>
			</trkpt>
			<trkpt lat="48.1985" lon="15.63365">
				<ele>271.7</ele>
				<time>2025-07-28T20:51:33.823Z</time>
			</trkpt>
			<trkpt lat="48.19843" lon="15.63744">
				<ele>271.21</ele>
				<time>2025-07-28T20:52:06.785Z</time>
			</trkpt>
			<trkpt lat="48.19838" lon="15.63862">
				<ele>270.03</ele>
				<time>2025-07-28T20:52:15.481Z</time>
			</trkpt>
			<trkpt lat="48.19821" lon="15.64019">
				<ele>271</ele>
				<time>2025-07-28T20:52:27.002Z</time>
			</trkpt>
			<trkpt lat="48.19802" lon="15.64114">
				<ele>268.87</ele>
				<time>2025-07-28T20:52:34.418Z</time>
			</trkpt>
			<trkpt lat="48.19797" lon="15.64122">
				<ele>268.7</ele>
				<time>2025-07-28T20:52:35.260Z</time>
			</trkpt>
			<trkpt lat="48.19751" lon="15.64125">
				<ele>267.5</ele>
				<time>2025-07-28T20:52:40.556Z</time>
			</trkpt>
			<trkpt lat="48.19466" lon="15.64089">
				<ele>272</ele>
				<time>2025-07-28T20:53:12.886Z</time>
			</trkpt>
			<trkpt lat="48.19423" lon="15.64091">
				<ele>272</ele>
				<time>2025-07-28T20:53:17.654Z</time>
			</trkpt>
			<trkpt lat="48.19222" lon="15.6414">
				<ele>270</ele>
				<time>2025-07-28T20:53:39.826Z</time>
			</trkpt>
			<trkpt lat="48.1881" lon="15.64243">
				<ele>274.37</ele>
				<time>2025-07-28T20:54:22.906Z</time>
			</trkpt>
			<trkpt lat="48.18719" lon="15.64266">
				<ele>275.48</ele>
				<time>2025-07-28T20:54:31.919Z</time>
			</trkpt>
			<trkpt lat="48.18673" lon="15.64274">
				<ele>276.08</ele>
				<time>2025-07-28T20:54:36.366Z</time>
			</trkpt>
			<trkpt lat="48.18658" lon="15.64274">
				<ele>276.16</ele>
				<time>2025-07-28T20:54:37.795Z</time>
			</trkpt>
			<trkpt lat="48.18634" lon="15.64269">
				<ele>276.74</ele>
				<time>2025-07-28T20:54:40.092Z</time>
			</trkpt>
			<trkpt lat="48.18614" lon="15.6426">
				<ele>277.57</ele>
				<time>2025-07-28T20:54:42.059Z</time>
			</trkpt>
			<trkpt lat="48.18549" lon="15.64226">
				<ele>277.45</ele>
				<time>2025-07-28T20:54:48.467Z</time>
			</trkpt>
			<trkpt lat="48.18468" lon="15.64212">
				<ele>277.82</ele>
				<time>2025-07-28T20:54:55.895Z</time>
			</trkpt>
			<trkpt lat="48.18445" lon="15.64217">
				<ele>276.86</ele>
				<time>2025-07-28T20:54:57.980Z</time>
			</trkpt>
			<trkpt lat="48.18426" lon="15.64226">
				<ele>276.35</ele>
				<time>2025-07-28T20:54:59.756Z</time>
			</trkpt>
			<trkpt lat="48.18397" lon="15.64256">
				<ele>276.77</ele>
				<time>2025-07-28T20:55:02.868Z</time>
			</trkpt>
			<trkpt lat="48.18375" lon="15.64274">
				<ele>277.47</ele>
				<time>2025-07-28T20:55:05.060Z</time>
			</trkpt>
			<trkpt lat="48.18295" lon="15.64324">
				<ele>280.58</ele>
				<time>2025-07-28T20:55:12.504Z</time>
			</trkpt>
			<trkpt lat="48.18264" lon="15.64343">
				<ele>279.79</ele>
				<time>2025-07-28T20:55:15.321Z</time>
			</trkpt>
			<trkpt lat="48.18239" lon="15.64353">
				<ele>278.04</ele>
				<time>2025-07-28T20:55:17.475Z</time>
			</trkpt>
			<trkpt lat="48.18209" lon="15.64358">
				<ele>277.1</ele>
				<time>2025-07-28T20:55:19.962Z</time>
			</trkpt>
			<trkpt lat="48.18207" lon="15.64384">
				<ele>277</ele>
				<time>2025-07-28T20:55:21.388Z</time>
			</trkpt>
			<trkpt lat="48.18206" lon="15.64455">
				<ele>277.56</ele>
				<time>2025-07-28T20:55:25.228Z</time>
			</trkpt>
			<trkpt lat="48.18201" lon="15.64533">
				<ele>277.74</ele>
				<time>2025-07-28T20:55:29.418Z</time>
			</trkpt>
			<trkpt lat="48.18193" lon="15.64593">
				<ele>278.96</ele>
				<time>2025-07-28T20:55:32.656Z</time>
			</trkpt>
			<trkpt lat="48.18184" lon="15.64634">
				<ele>280.7</ele>
				<time>2025-07-28T20:55:34.922Z</time>
			</trkpt>
			<trkpt lat="48.18172" lon="15.64671">
				<ele>282</ele>
				<time>2025-07-28T20:55:37.069Z</time>
			</trkpt>
			<trkpt lat="48.18166" lon="15.64686">
				<ele>282.01</ele>
				<time>2025-07-28T20:55:37.977Z</time>
			</trkpt>
			<trkpt lat="48.18146" lon="15.64714">
				<ele>282.71</ele>
				<time>2025-07-28T20:55:40.100Z</time>
			</trkpt>
			<trkpt lat="48.18121" lon="15.6474">
				<ele>284.02</ele>
				<time>2025-07-28T20:55:42.446Z</time>
			</trkpt>
			<trkpt lat="48.18022" lon="15.64817">
				<ele>285.07</ele>
				<time>2025-07-28T20:55:50.915Z</time>
			</trkpt>
			<trkpt lat="48.17845" lon="15.64989">
				<ele>290.61</ele>
				<time>2025-07-28T20:56:06.411Z</time>
			</trkpt>
			<trkpt lat="48.17796" lon="15.65031">
				<ele>288.95</ele>
				<time>2025-07-28T20:56:10.450Z</time>
			</trkpt>
			<trkpt lat="48.1776" lon="15.65052">
				<ele>288.72</ele>
				<time>2025-07-28T20:56:13.190Z</time>
			</trkpt>
			<trkpt lat="48.1772" lon="15.65072">
				<ele>290.48</ele>
				<time>2025-07-28T20:56:16.158Z</time>
			</trkpt>
			<trkpt lat="48.17685" lon="15.65085">
				<ele>290.92</ele>
				<time>2025-07-28T20:56:18.679Z</time>
			</trkpt>
			<trkpt lat="48.1765" lon="15.65097">
				<ele>290.19</ele>
				<time>2025-07-28T20:56:21.173Z</time>
			</trkpt>
			<trkpt lat="48.17562" lon="15.65127">
				<ele>288.81</ele>
				<time>2025-07-28T20:56:27.373Z</time>
			</trkpt>
			<trkpt lat="48.17343" lon="15.65242">
				<ele>290.9</ele>
				<time>2025-07-28T20:56:42.909Z</time>
			</trkpt>
			<trkpt lat="48.17289" lon="15.65278">
				<ele>292.53</ele>
				<time>2025-07-28T20:56:46.780Z</time>
			</trkpt>
			<trkpt lat="48.17234" lon="15.65322">
				<ele>292</ele>
				<time>2025-07-28T20:56:50.831Z</time>
			</trkpt>
			<trkpt lat="48.17181" lon="15.65368">
				<ele>293.35</ele>
				<time>2025-07-28T20:56:54.779Z</time>
			</trkpt>
			<trkpt lat="48.17133" lon="15.65415">
				<ele>294.4</ele>
				<time>2025-07-28T20:56:58.448Z</time>
			</trkpt>
			<trkpt lat="48.1712" lon="15.65431">
				<ele>295.35</ele>
				<time>2025-07-28T20:56:59.520Z</time>
			</trkpt>
			<trkpt lat="48.17109" lon="15.65455">
				<ele>295.7</ele>
				<time>2025-07-28T20:57:00.755Z</time>
			</trkpt>
			<trkpt lat="48.17078" lon="15.65524">
				<ele>295.43</ele>
				<time>2025-07-28T20:57:04.270Z</time>
			</trkpt>
			<trkpt lat="48.17001" lon="15.65666">
				<ele>301.91</ele>
				<time>2025-07-28T20:57:11.932Z</time>
			</trkpt>
			<trkpt lat="48.16975" lon="15.65692">
				<ele>305.59</ele>
				<time>2025-07-28T20:57:13.880Z</time>
			</trkpt>
			<trkpt lat="48.16968" lon="15.65696">
				<ele>306.32</ele>
				<time>2025-07-28T20:57:14.346Z</time>
			</trkpt>
			<trkpt lat="48.16883" lon="15.65726">
				<ele>311.13</ele>
				<time>2025-07-28T20:57:19.759Z</time>
			</trkpt>
			<trkpt lat="48.16865" lon="15.65735">
				<ele>311.48</ele>
				<time>2025-07-28T20:57:20.931Z</time>
			</trkpt>
			<trkpt lat="48.16848" lon="15.65748">
				<ele>311.97</ele>
				<time>2025-07-28T20:57:22.107Z</time>
			</trkpt>
			<trkpt lat="48.16825" lon="15.65775">
				<ele>312.67</ele>
				<time>2025-07-28T20:57:23.906Z</time>
			</trkpt>
			<trkpt lat="48.16778" lon="15.65831">
				<ele>313.92</ele>
				<time>2025-07-28T20:57:27.591Z</time>
			</trkpt>
			<trkpt lat="48.1676" lon="15.65849">
				<ele>314.59</ele>
				<time>2025-07-28T20:57:28.917Z</time>
			</trkpt>
			<trkpt lat="48.16742" lon="15.65858">
				<ele>314.66</ele>
				<time>2025-07-28T20:57:30.078Z</time>
			</trkpt>
			<trkpt lat="48.16726" lon="15.65861">
				<ele>314.16</ele>
				<time>2025-07-28T20:57:31.063Z</time>
			</trkpt>
			<trkpt lat="48.1665" lon="15.65859">
				<ele>311.34</ele>
				<time>2025-07-28T20:57:35.701Z</time>
			</trkpt>
			<trkpt lat="48.1661" lon="15.65863">
				<ele>310.06</ele>
				<time>2025-07-28T20:57:38.141Z</time>
			</trkpt>
			<trkpt lat="48.16572" lon="15.65876">
				<ele>309.37</ele>
				<time>2025-07-28T20:57:40.510Z</time>
			</trkpt>
			<trkpt lat="48.16562" lon="15.65882">
				<ele>309.56</ele>
				<time>2025-07-28T20:57:41.164Z</time>
			</trkpt>
			<trkpt lat="48.16542" lon="15.65898">
				<ele>311.13</ele>
				<time>2025-07-28T20:57:42.541Z</time>
			</trkpt>
			<trkpt lat="48.16525" lon="15.65921">
				<ele>313.29</ele>
				<time>2025-07-28T20:57:43.931Z</time>
			</trkpt>
			<trkpt lat="48.16512" lon="15.65947">
				<ele>314.45</ele>
				<time>2025-07-28T20:57:45.246Z</time>
			</trkpt>
			<trkpt lat="48.16497" lon="15.65998">
				<ele>313.99</ele>
				<time>2025-07-28T20:57:47.500Z</time>
			</trkpt>
			<trkpt lat="48.1649" lon="15.6603">
				<ele>314.7</ele>
				<time>2025-07-28T20:57:48.862Z</time>
			</trkpt>
			<trkpt lat="48.16456" lon="15.66138">
				<ele>315.98</ele>
				<time>2025-07-28T20:57:53.690Z</time>
			</trkpt>
			<trkpt lat="48.16425" lon="15.66276">
				<ele>317.32</ele>
				<time>2025-07-28T20:57:59.579Z</time>
			</trkpt>
			<trkpt lat="48.16374" lon="15.66443">
				<ele>317.97</ele>
				<time>2025-07-28T20:58:07.022Z</time>
			</trkpt>
			<trkpt lat="48.16146" lon="15.66705">
				<ele>320.7</ele>
				<time>2025-07-28T20:58:23.685Z</time>
			</trkpt>
			<trkpt lat="48.16086" lon="15.66763">
				<ele>321.94</ele>
				<time>2025-07-28T20:58:27.710Z</time>
			</trkpt>
			<trkpt lat="48.15958" lon="15.66874">
				<ele>327</ele>
				<time>2025-07-28T20:58:36.177Z</time>
			</trkpt>
			<trkpt lat="48.15929" lon="15.66811">
				<ele>326.65</ele>
				<time>2025-07-28T20:58:39.145Z</time>
			</trkpt>
			<trkpt lat="48.15909" lon="15.6675">
				<ele>325.75</ele>
				<time>2025-07-28T20:58:41.743Z</time>
			</trkpt>
			<trkpt lat="48.15891" lon="15.6665">
				<ele>326.08</ele>
				<time>2025-07-28T20:58:45.639Z</time>
			</trkpt>
			<trkpt lat="48.15877" lon="15.66497">
				<ele>326.6</ele>
				<time>2025-07-28T20:58:51.328Z</time>
			</trkpt>
			<trkpt lat="48.15856" lon="15.66389">
				<ele>325.69</ele>
				<time>2025-07-28T20:58:55.400Z</time>
			</trkpt>
			<trkpt lat="48.1584" lon="15.66315">
				<ele>326.53</ele>
				<time>2025-07-28T20:58:58.187Z</time>
			</trkpt>
			<trkpt lat="48.15825" lon="15.66265">
				<ele>326.41</ele>
				<time>2025-07-28T20:59:00.140Z</time>
			</trkpt>
			<trkpt lat="48.15808" lon="15.66215">
				<ele>327.94</ele>
				<time>2025-07-28T20:59:02.131Z</time>
			</trkpt>
			<trkpt lat="48.1578" lon="15.66148">
				<ele>330.97</ele>
				<time>2025-07-28T20:59:04.926Z</time>
			</trkpt>
			<trkpt lat="48.15744" lon="15.66075">
				<ele>326.29</ele>
				<time>2025-07-28T20:59:08.127Z</time>
			</trkpt>
			<trkpt lat="48.15675" lon="15.65949">
				<ele>321.24</ele>
				<time>2025-07-28T20:59:13.869Z</time>
			</trkpt>
			<trkpt lat="48.15658" lon="15.659">
				<ele>319.51</ele>
				<time>2025-07-28T20:59:15.819Z</time>
			</trkpt>
			<trkpt lat="48.15645" lon="15.65857">
				<ele>318.12</ele>
				<time>2025-07-28T20:59:17.490Z</time>
			</trkpt>
			<trkpt lat="48.15643" lon="15.65752">
				<ele>319.64</ele>
				<time>2025-07-28T20:59:21.224Z</time>
			</trkpt>
			<trkpt lat="48.15639" lon="15.65696">
				<ele>318.07</ele>
				<time>2025-07-28T20:59:23.239Z</time>
			</trkpt>
			<trkpt lat="48.15618" lon="15.65574">
				<ele>315.27</ele>
				<time>2025-07-28T20:59:27.790Z</time>
			</trkpt>
			<trkpt lat="48.15601" lon="15.65516">
				<ele>313.2</ele>
				<time>2025-07-28T20:59:30.105Z</time>
			</trkpt>
			<trkpt lat="48.15555" lon="15.65432">
				<ele>313.98</ele>
				<time>2025-07-28T20:59:34.126Z</time>
			</trkpt>
			<trkpt lat="48.15514" lon="15.65374">
				<ele>315.3</ele>
				<time>2025-07-28T20:59:37.303Z</time>
			</trkpt>
			<trkpt lat="48.15469" lon="15.65281">
				<ele>315.76</ele>
				<time>2025-07-28T20:59:41.703Z</time>
			</trkpt>
			<trkpt lat="48.15428" lon="15.65213">
				<ele>316.18</ele>
				<time>2025-07-28T20:59:45.289Z</time>
			</trkpt>
			<trkpt lat="48.15394" lon="15.6516">
				<ele>310.96</ele>
				<time>2025-07-28T20:59:48.219Z</time>
			</trkpt>
			<trkpt lat="48.15373" lon="15.65121">
				<ele>304.44</ele>
				<time>2025-07-28T20:59:50.246Z</time>
			</trkpt>
			<trkpt lat="48.15362" lon="15.65093">
				<ele>300.9</ele>
				<time>2025-07-28T20:59:51.573Z</time>
			</trkpt>
			<trkpt lat="48.15357" lon="15.65039">
				<ele>300.23</ele>
				<time>2025-07-28T20:59:53.825Z</time>
			</trkpt>
			<trkpt lat="48.1536" lon="15.6496">
				<ele>303.09</ele>
				<time>2025-07-28T20:59:57.151Z</time>
			</trkpt>
			<trkpt lat="48.15358" lon="15.64931">
				<ele>303.2</ele>
				<time>2025-07-28T20:59:58.394Z</time>
			</trkpt>
			<trkpt lat="48.15356" lon="15.64911">
				<ele>303.17</ele>
				<time>2025-07-28T20:59:59.263Z</time>
			</trkpt>
			<trkpt lat="48.1534" lon="15.64856">
				<ele>304.62</ele>
				<time>2025-07-28T21:00:01.868Z</time>
			</trkpt>
			<trkpt lat="48.15324" lon="15.6482">
				<ele>306.92</ele>
				<time>2025-07-28T21:00:03.774Z</time>
			</trkpt>
			<trkpt lat="48.15291" lon="15.64759">
				<ele>308.99</ele>
				<time>2025-07-28T21:00:07.298Z</time>
			</trkpt>
			<trkpt lat="48.15232" lon="15.64666">
				<ele>312.65</ele>
				<time>2025-07-28T21:00:13.239Z</time>
			</trkpt>
			<trkpt lat="48.15194" lon="15.6462">
				<ele>314</ele>
				<time>2025-07-28T21:00:16.737Z</time>
			</trkpt>
			<trkpt lat="48.15089" lon="15.6451">
				<ele>314.08</ele>
				<time>2025-07-28T21:00:26.314Z</time>
			</trkpt>
			<trkpt lat="48.15027" lon="15.64456">
				<ele>312</ele>
				<time>2025-07-28T21:00:31.949Z</time>
			</trkpt>
			<trkpt lat="48.15009" lon="15.64433">
				<ele>311.85</ele>
				<time>2025-07-28T21:00:33.854Z</time>
			</trkpt>
			<trkpt lat="48.15006" lon="15.64423">
				<ele>311.8</ele>
				<time>2025-07-28T21:00:34.447Z</time>
			</trkpt>
			<trkpt lat="48.15013" lon="15.64394">
				<ele>311.1</ele>
				<time>2025-07-28T21:00:36.180Z</time>
			</trkpt>
			<trkpt lat="48.15034" lon="15.64319">
				<ele>310</ele>
				<time>2025-07-28T21:00:41.608Z</time>
			</trkpt>
			<trkpt lat="48.15066" lon="15.64212">
				<ele>306.98</ele>
				<time>2025-07-28T21:00:50.076Z</time>
			</trkpt>
			<trkpt lat="48.15072" lon="15.64195">
				<ele>306.41</ele>
				<time>2025-07-28T21:00:51.363Z</time>
			</trkpt>
			<trkpt lat="48.15076" lon="15.64188">
				<ele>306.25</ele>
				<time>2025-07-28T21:00:51.958Z</time>
			</trkpt>
			<trkpt lat="48.15063" lon="15.64184">
				<ele>306.72</ele>
				<time>2025-07-28T21:00:53.197Z</time>
			</trkpt>
			<trkpt lat="48.15036" lon="15.64161">
				<ele>307.34</ele>
				<time>2025-07-28T21:00:56.065Z</time>
			</trkpt>
			<trkpt lat="48.15015" lon="15.64129">
				<ele>306.29</ele>
				<time>2025-07-28T21:00:58.821Z</time>
			</trkpt>
			<trkpt lat="48.14975" lon="15.64086">
				<ele>306.89</ele>
				<time>2025-07-28T21:01:03.328Z</time>
			</trkpt>
			<trkpt lat="48.14868" lon="15.64038">
				<ele>302.8</ele>
				<time>2025-07-28T21:01:13.445Z</time>
			</trkpt>
			<trkpt lat="48.14846" lon="15.64035">
				<ele>302.52</ele>
				<time>2025-07-28T21:01:15.429Z</time>
			</trkpt>
			<trkpt lat="48.14821" lon="15.64029">
				<ele>302.13</ele>
				<time>2025-07-28T21:01:17.695Z</time>
			</trkpt>
			<trkpt lat="48.14767" lon="15.64024">
				<ele>298.97</ele>
				<time>2025-07-28T21:01:22.511Z</time>
			</trkpt>
			<trkpt lat="48.14691" lon="15.64022">
				<ele>297.42</ele>
				<time>2025-07-28T21:01:29.218Z</time>
			</trkpt>
			<trkpt lat="48.14656" lon="15.64026">
				<ele>296.3</ele>
				<time>2025-07-28T21:01:32.292Z</time>
			</trkpt>
			<trkpt lat="48.14596" lon="15.64032">
				<ele>296.65</ele>
				<time>2025-07-28T21:01:37.522Z</time>
			</trkpt>
			<trkpt lat="48.14582" lon="15.64036">
				<ele>296.31</ele>
				<time>2025-07-28T21:01:38.755Z</time>
			</trkpt>
			<trkpt lat="48.14569" lon="15.64041">
				<ele>296.5</ele>
				<time>2025-07-28T21:01:39.914Z</time>
			</trkpt>
			<trkpt lat="48.14537" lon="15.64072">
				<ele>298.62</ele>
				<time>2025-07-28T21:01:43.193Z</time>
			</trkpt>
			<trkpt lat="48.14382" lon="15.64067">
				<ele>302.46</ele>
				<time>2025-07-28T21:01:56.348Z</time>
			</trkpt>
			<trkpt lat="48.14323" lon="15.64071">
				<ele>303.36</ele>
				<time>2025-07-28T21:02:01.281Z</time>
			</trkpt>
			<trkpt lat="48.14313" lon="15.64068">
				<ele>303.47</ele>
				<time>2025-07-28T21:02:02.128Z</time>
			</trkpt>
			<trkpt lat="48.14281" lon="15.64047">
				<ele>302.92</ele>
				<time>2025-07-28T21:02:05.021Z</time>
			</trkpt>
			<trkpt lat="48.14105" lon="15.63992">
				<ele>300</ele>
				<time>2025-07-28T21:02:19.668Z</time>
			</trkpt>
			<trkpt lat="48.14031" lon="15.63993">
				<ele>301.88</ele>
				<time>2025-07-28T21:02:25.578Z</time>
			</trkpt>
			<trkpt lat="48.1392" lon="15.64026">
				<ele>303.85</ele>
				<time>2025-07-28T21:02:34.481Z</time>
			</trkpt>
			<trkpt lat="48.13912" lon="15.64025">
				<ele>304.3</ele>
				<time>2025-07-28T21:02:35.107Z</time>
			</trkpt>
			<trkpt lat="48.1364" lon="15.63943">
				<ele>308.78</ele>
				<time>2025-07-28T21:02:56.211Z</time>
			</trkpt>
			<trkpt lat="48.1351" lon="15.63895">
				<ele>311.13</ele>
				<time>2025-07-28T21:03:06.037Z</time>
			</trkpt>
			<trkpt lat="48.13476" lon="15.63876">
				<ele>310.62</ele>
				<time>2025-07-28T21:03:08.660Z</time>
			</trkpt>
			<trkpt lat="48.13444" lon="15.63842">
				<ele>307.59</ele>
				<time>2025-07-28T21:03:11.476Z</time>
			</trkpt>
			<trkpt lat="48.13422" lon="15.63808">
				<ele>305.7</ele>
				<time>2025-07-28T21:03:13.729Z</time>
			</trkpt>
			<trkpt lat="48.13399" lon="15.63758">
				<ele>302.36</ele>
				<time>2025-07-28T21:03:16.600Z</time>
			</trkpt>
			<trkpt lat="48.13366" lon="15.63662">
				<ele>301.45</ele>
				<time>2025-07-28T21:03:21.651Z</time>
			</trkpt>
			<trkpt lat="48.13341" lon="15.6363">
				<ele>301.43</ele>
				<time>2025-07-28T21:03:23.933Z</time>
			</trkpt>
			<trkpt lat="48.13277" lon="15.63495">
				<ele>302</ele>
				<time>2025-07-28T21:03:31.495Z</time>
			</trkpt>
			<trkpt lat="48.13242" lon="15.63434">
				<ele>302.89</ele>
				<time>2025-07-28T21:03:35.110Z</time>
			</trkpt>
			<trkpt lat="48.13177" lon="15.6337">
				<ele>303.42</ele>
				<time>2025-07-28T21:03:40.277Z</time>
			</trkpt>
			<trkpt lat="48.13163" lon="15.63348">
				<ele>304.87</ele>
				<time>2025-07-28T21:03:41.612Z</time>
			</trkpt>
			<trkpt lat="48.13157" lon="15.63315">
				<ele>303.69</ele>
				<time>2025-07-28T21:03:43.107Z</time>
			</trkpt>
			<trkpt lat="48.13147" lon="15.63313">
				<ele>303.88</ele>
				<time>2025-07-28T21:03:43.765Z</time>
			</trkpt>
			<trkpt lat="48.13134" lon="15.6332">
				<ele>305.68</ele>
				<time>2025-07-28T21:03:44.661Z</time>
			</trkpt>
			<trkpt lat="48.13125" lon="15.63325">
				<ele>307.71</ele>
				<time>2025-07-28T21:03:45.280Z</time>
			</trkpt>
			<trkpt lat="48.13111" lon="15.63326">
				<ele>309.93</ele>
				<time>2025-07-28T21:03:46.179Z</time>
			</trkpt>
			<trkpt lat="48.13045" lon="15.63314">
				<ele>312.57</ele>
				<time>2025-07-28T21:03:50.358Z</time>
			</trkpt>
			<trkpt lat="48.12966" lon="15.6333">
				<ele>311.2</ele>
				<time>2025-07-28T21:03:55.205Z</time>
			</trkpt>
			<trkpt lat="48.12864" lon="15.63329">
				<ele>311.94</ele>
				<time>2025-07-28T21:04:01.190Z</time>
			</trkpt>
			<trkpt lat="48.12789" lon="15.63336">
				<ele>311.97</ele>
				<time>2025-07-28T21:04:05.478Z</time>
			</trkpt>
			<trkpt lat="48.12779" lon="15.63343">
				<ele>312.95</ele>
				<time>2025-07-28T21:04:06.101Z</time>
			</trkpt>
			<trkpt lat="48.1276" lon="15.6337">
				<ele>317.23</ele>
				<time>2025-07-28T21:04:07.573Z</time>
			</trkpt>
			<trkpt lat="48.12747" lon="15.63381">
				<ele>318.86</ele>
				<time>2025-07-28T21:04:08.408Z</time>
			</trkpt>
			<trkpt lat="48.12713" lon="15.63397">
				<ele>318.45</ele>
				<time>2025-07-28T21:04:10.394Z</time>
			</trkpt>
			<trkpt lat="48.12684" lon="15.63404">
				<ele>316.62</ele>
				<time>2025-07-28T21:04:12.022Z</time>
			</trkpt>
			<trkpt lat="48.12613" lon="15.63405">
				<ele>313.64</ele>
				<time>2025-07-28T21:04:15.938Z</time>
			</trkpt>
			<trkpt lat="48.12596" lon="15.634">
				<ele>313.94</ele>
				<time>2025-07-28T21:04:16.890Z</time>
			</trkpt>
			<trkpt lat="48.12545" lon="15.63366">
				<ele>312.94</ele>
				<time>2025-07-28T21:04:19.959Z</time>
			</trkpt>
			<trkpt lat="48.12531" lon="15.63361">
				<ele>312.22</ele>
				<time>2025-07-28T21:04:20.751Z</time>
			</trkpt>
			<trkpt lat="48.12508" lon="15.63367">
				<ele>311.89</ele>
				<time>2025-07-28T21:04:22.036Z</time>
			</trkpt>
			<trkpt lat="48.12479" lon="15.63388">
				<ele>310.81</ele>
				<time>2025-07-28T21:04:23.813Z</time>
			</trkpt>
			<trkpt lat="48.12468" lon="15.63393">
				<ele>310.02</ele>
				<time>2025-07-28T21:04:24.449Z</time>
			</trkpt>
			<trkpt lat="48.12449" lon="15.63394">
				<ele>309.21</ele>
				<time>2025-07-28T21:04:25.502Z</time>
			</trkpt>
			<trkpt lat="48.1243" lon="15.63389">
				<ele>309.01</ele>
				<time>2025-07-28T21:04:26.574Z</time>
			</trkpt>
			<trkpt lat="48.12413" lon="15.6338">
				<ele>309.14</ele>
				<time>2025-07-28T21:04:27.578Z</time>
			</trkpt>
			<trkpt lat="48.124" lon="15.63366">
				<ele>310.11</ele>
				<time>2025-07-28T21:04:28.473Z</time>
			</trkpt>
			<trkpt lat="48.12395" lon="15.63357">
				<ele>310.06</ele>
				<time>2025-07-28T21:04:28.910Z</time>
			</trkpt>
			<trkpt lat="48.12393" lon="15.63345">
				<ele>309.5</ele>
				<time>2025-07-28T21:04:29.374Z</time>
			</trkpt>
			<trkpt lat="48.12396" lon="15.63313">
				<ele>307.23</ele>
				<time>2025-07-28T21:04:30.587Z</time>
			</trkpt>
			<trkpt lat="48.12396" lon="15.63287">
				<ele>306.1</ele>
				<time>2025-07-28T21:04:31.568Z</time>
			</trkpt>
			<trkpt lat="48.12384" lon="15.6325">
				<ele>306.29</ele>
				<time>2025-07-28T21:04:33.129Z</time>
			</trkpt>
			<trkpt lat="48.12374" lon="15.63229">
				<ele>306.64</ele>
				<time>2025-07-28T21:04:34.114Z</time>
			</trkpt>
			<trkpt lat="48.12371" lon="15.63226">
				<ele>306.7</ele>
				<time>2025-07-28T21:04:34.321Z</time>
			</trkpt>
			<trkpt lat="48.12333" lon="15.63239">
				<ele>308.23</ele>
				<time>2025-07-28T21:04:36.481Z</time>
			</trkpt>
			<trkpt lat="48.12319" lon="15.63238">
				<ele>308.65</ele>
				<time>2025-07-28T21:04:37.211Z</time>
			</trkpt>
			<trkpt lat="48.12307" lon="15.63229">
				<ele>308.45</ele>
				<time>2025-07-28T21:04:37.899Z</time>
			</trkpt>
			<trkpt lat="48.12219" lon="15.63149">
				<ele>306.42</ele>
				<time>2025-07-28T21:04:43.664Z</time>
			</trkpt>
			<trkpt lat="48.1221" lon="15.63137">
				<ele>305.98</ele>
				<time>2025-07-28T21:04:44.491Z</time>
			</trkpt>
			<trkpt lat="48.12206" lon="15.63127">
				<ele>305.77</ele>
				<time>2025-07-28T21:04:45.052Z</time>
			</trkpt>
			<trkpt lat="48.12199" lon="15.63131">
				<ele>305.79</ele>
				<time>2025-07-28T21:04:45.614Z</time>
			</trkpt>
			<trkpt lat="48.12189" lon="15.63133">
				<ele>306.12</ele>
				<time>2025-07-28T21:04:46.413Z</time>
			</trkpt>
			<trkpt lat="48.12138" lon="15.63095">
				<ele>306.99</ele>
				<time>2025-07-28T21:04:51.925Z</time>
			</trkpt>
			<trkpt lat="48.12115" lon="15.63111">
				<ele>310.48</ele>
				<time>2025-07-28T21:04:54.868Z</time>
			</trkpt>
			<trkpt lat="48.11972" lon="15.63103">
				<ele>314.19</ele>
				<time>2025-07-28T21:05:15.494Z</time>
			</trkpt>
			<trkpt lat="48.11935" lon="15.63098">
				<ele>317.18</ele>
				<time>2025-07-28T21:05:21.553Z</time>
			</trkpt>
			<trkpt lat="48.11903" lon="15.63079">
				<ele>316.22</ele>
				<time>2025-07-28T21:05:27.268Z</time>
			</trkpt>
			<trkpt lat="48.11878" lon="15.63058">
				<ele>316.07</ele>
				<time>2025-07-28T21:05:32.046Z</time>
			</trkpt>
			<trkpt lat="48.11846" lon="15.63018">
				<ele>317.97</ele>
				<time>2025-07-28T21:05:38.933Z</time>
			</trkpt>
			<trkpt lat="48.11785" lon="15.62908">
				<ele>318.22</ele>
				<time>2025-07-28T21:05:53.792Z</time>
			</trkpt>
			<trkpt lat="48.1177" lon="15.62898">
				<ele>317.3</ele>
				<time>2025-07-28T21:05:56.134Z</time>
			</trkpt>
			<trkpt lat="48.11765" lon="15.62898">
				<ele>317.23</ele>
				<time>2025-07-28T21:05:56.831Z</time>
			</trkpt>
			<trkpt lat="48.11752" lon="15.62905">
				<ele>317.84</ele>
				<time>2025-07-28T21:05:58.715Z</time>
			</trkpt>
			<trkpt lat="48.1174" lon="15.62915">
				<ele>318.51</ele>
				<time>2025-07-28T21:06:00.523Z</time>
			</trkpt>
			<trkpt lat="48.1176" lon="15.62846">
				<ele>309.45</ele>
				<time>2025-07-28T21:06:06.679Z</time>
			</trkpt>
			<trkpt lat="48.11768" lon="15.62828">
				<ele>307.73</ele>
				<time>2025-07-28T21:06:08.362Z</time>
			</trkpt>
			<trkpt lat="48.11867" lon="15.6266">
				<ele>305.59</ele>
				<time>2025-07-28T21:06:25.141Z</time>
			</trkpt>
			<trkpt lat="48.11885" lon="15.62633">
				<ele>307.06</ele>
				<time>2025-07-28T21:06:28.132Z</time>
			</trkpt>
			<trkpt lat="48.11889" lon="15.62629">
				<ele>307.35</ele>
				<time>2025-07-28T21:06:28.709Z</time>
			</trkpt>
			<trkpt lat="48.11882" lon="15.62611">
				<ele>307.72</ele>
				<time>2025-07-28T21:06:30.403Z</time>
			</trkpt>
			<trkpt lat="48.11863" lon="15.62559">
				<ele>307.94</ele>
				<time>2025-07-28T21:06:35.436Z</time>
			</trkpt>
			<trkpt lat="48.11854" lon="15.62525">
				<ele>307.48</ele>
				<time>2025-07-28T21:06:38.684Z</time>
			</trkpt>
			<trkpt lat="48.11847" lon="15.62489">
				<ele>306.7</ele>
				<time>2025-07-28T21:06:42.114Z</time>
			</trkpt>
			<trkpt lat="48.1184" lon="15.62466">
				<ele>307</ele>
				<time>2025-07-28T21:06:44.478Z</time>
			</trkpt>
			<trkpt lat="48.1183" lon="15.62444">
				<ele>306.99</ele>
				<time>2025-07-28T21:06:47.006Z</time>
			</trkpt>
			<trkpt lat="48.11805" lon="15.62399">
				<ele>307</ele>
				<time>2025-07-28T21:06:52.692Z</time>
			</trkpt>
			<trkpt lat="48.11785" lon="15.62352">
				<ele>305.78</ele>
				<time>2025-07-28T21:06:58.231Z</time>
			</trkpt>
			<trkpt lat="48.11782" lon="15.62348">
				<ele>305.6</ele>
				<time>2025-07-28T21:06:58.835Z</time>
			</trkpt>
			<trkpt lat="48.11754" lon="15.62329">
				<ele>305.68</ele>
				<time>2025-07-28T21:07:03.481Z</time>
			</trkpt>
			<trkpt lat="48.1169" lon="15.62289">
				<ele>308.63</ele>
				<time>2025-07-28T21:07:14.051Z</time>
			</trkpt>
			<trkpt lat="48.11569" lon="15.62225">
				<ele>309.05</ele>
				<time>2025-07-28T21:07:33.211Z</time>
			</trkpt>
			<trkpt lat="48.11455" lon="15.62172">
				<ele>307.88</ele>
				<time>2025-07-28T21:07:49.411Z</time>
			</trkpt>
			<trkpt lat="48.11349" lon="15.62128">
				<ele>308.39</ele>
				<time>2025-07-28T21:08:01.837Z</time>
			</trkpt>
			<trkpt lat="48.113" lon="15.62111">
				<ele>309</ele>
				<time>2025-07-28T21:08:06.442Z</time>
			</trkpt>
			<trkpt lat="48.11301" lon="15.62104">
				<ele>308.8</ele>
				<time>2025-07-28T21:08:06.839Z</time>
			</trkpt>
			<trkpt lat="48.1132" lon="15.62017">
				<ele>307.28</ele>
				<time>2025-07-28T21:08:11.516Z</time>
			</trkpt>
			<trkpt lat="48.11332" lon="15.61994">
				<ele>307.71</ele>
				<time>2025-07-28T21:08:12.887Z</time>
			</trkpt>
			<trkpt lat="48.1134" lon="15.61971">
				<ele>309.83</ele>
				<time>2025-07-28T21:08:14.061Z</time>
			</trkpt>
			<trkpt lat="48.11342" lon="15.6196">
				<ele>310.79</ele>
				<time>2025-07-28T21:08:14.564Z</time>
			</trkpt>
			<trkpt lat="48.11343" lon="15.61935">
				<ele>313.07</ele>
				<time>2025-07-28T21:08:15.645Z</time>
			</trkpt>
			<trkpt lat="48.11328" lon="15.61705">
				<ele>311.4</ele>
				<time>2025-07-28T21:08:24.303Z</time>
			</trkpt>
			<trkpt lat="48.11324" lon="15.61624">
				<ele>310.69</ele>
				<time>2025-07-28T21:08:26.969Z</time>
			</trkpt>
			<trkpt lat="48.11325" lon="15.61577">
				<ele>310.67</ele>
				<time>2025-07-28T21:08:28.470Z</time>
			</trkpt>
			<trkpt lat="48.11332" lon="15.61482">
				<ele>309.36</ele>
				<time>2025-07-28T21:08:31.492Z</time>
			</trkpt>
			<trkpt lat="48.11332" lon="15.61414">
				<ele>310.12</ele>
				<time>2025-07-28T21:08:33.669Z</time>
			</trkpt>
			<trkpt lat="48.11328" lon="15.61396">
				<ele>311.25</ele>
				<time>2025-07-28T21:08:34.286Z</time>
			</trkpt>
			<trkpt lat="48.11316" lon="15.61383">
				<ele>311.69</ele>
				<time>2025-07-28T21:08:35.017Z</time>
			</trkpt>
			<trkpt lat="48.11294" lon="15.61367">
				<ele>312.21</ele>
				<time>2025-07-28T21:08:36.245Z</time>
			</trkpt>
			<trkpt lat="48.11232" lon="15.61331">
				<ele>313.04</ele>
				<time>2025-07-28T21:08:39.774Z</time>
			</trkpt>
			<trkpt lat="48.11219" lon="15.6132">
				<ele>313.36</ele>
				<time>2025-07-28T21:08:40.614Z</time>
			</trkpt>
			<trkpt lat="48.11204" lon="15.61297">
				<ele>312.88</ele>
				<time>2025-07-28T21:08:41.858Z</time>
			</trkpt>
			<trkpt lat="48.11195" lon="15.61269">
				<ele>313.32</ele>
				<time>2025-07-28T21:08:43.104Z</time>
			</trkpt>
			<trkpt lat="48.11193" lon="15.61247">
				<ele>314.19</ele>
				<time>2025-07-28T21:08:44.024Z</time>
			</trkpt>
			<trkpt lat="48.11195" lon="15.61169">
				<ele>316</ele>
				<time>2025-07-28T21:08:47.470Z</time>
			</trkpt>
			<trkpt lat="48.11194" lon="15.61154">
				<ele>315.56</ele>
				<time>2025-07-28T21:08:48.177Z</time>
			</trkpt>
			<trkpt lat="48.11188" lon="15.61129">
				<ele>315.13</ele>
				<time>2025-07-28T21:08:49.460Z</time>
			</trkpt>
			<trkpt lat="48.112" lon="15.61129">
				<ele>314.85</ele>
				<time>2025-07-28T21:08:50.354Z</time>
			</trkpt>
			<trkpt lat="48.11488" lon="15.61198">
				<ele>312.84</ele>
				<time>2025-07-28T21:09:20.040Z</time>
			</trkpt>
			<trkpt lat="48.11502" lon="15.61202">
				<ele>312.61</ele>
				<time>2025-07-28T21:09:21.571Z</time>
			</trkpt>
			<trkpt lat="48.11581" lon="15.61222">
				<ele>310.98</ele>
				<time>2025-07-28T21:09:29.652Z</time>
			</trkpt>
			<trkpt lat="48.11603" lon="15.6122">
				<ele>311.78</ele>
				<time>2025-07-28T21:09:31.656Z</time>
			</trkpt>
			<trkpt lat="48.11599" lon="15.61118">
				<ele>313.43</ele>
				<time>2025-07-28T21:09:37.445Z</time>
			</trkpt>
			<trkpt lat="48.116" lon="15.61028">
				<ele>314.35</ele>
				<time>2025-07-28T21:09:42.371Z</time>
			</trkpt>
			<trkpt lat="48.11604" lon="15.6097">
				<ele>315.29</ele>
				<time>2025-07-28T21:09:45.483Z</time>
			</trkpt>
			<trkpt lat="48.11614" lon="15.60868">
				<ele>317.23</ele>
				<time>2025-07-28T21:09:50.850Z</time>
			</trkpt>
			<trkpt lat="48.11614" lon="15.60738">
				<ele>318.04</ele>
				<time>2025-07-28T21:09:57.390Z</time>
			</trkpt>
			<trkpt lat="48.11614" lon="15.6072">
				<ele>318.13</ele>
				<time>2025-07-28T21:09:58.278Z</time>
			</trkpt>
			<trkpt lat="48.11655" lon="15.60396">
				<ele>323.84</ele>
				<time>2025-07-28T21:10:13.909Z</time>
			</trkpt>
			<trkpt lat="48.11661" lon="15.60356">
				<ele>324.82</ele>
				<time>2025-07-28T21:10:15.785Z</time>
			</trkpt>
			<trkpt lat="48.11668" lon="15.60331">
				<ele>325.12</ele>
				<time>2025-07-28T21:10:17.020Z</time>
			</trkpt>
			<trkpt lat="48.11711" lon="15.60209">
				<ele>327.6</ele>
				<time>2025-07-28T21:10:23.240Z</time>
			</trkpt>
			<trkpt lat="48.1176" lon="15.60089">
				<ele>333.1</ele>
				<time>2025-07-28T21:10:29.506Z</time>
			</trkpt>
			<trkpt lat="48.11781" lon="15.60031">
				<ele>333.73</ele>
				<time>2025-07-28T21:10:32.432Z</time>
			</trkpt>
			<trkpt lat="48.11785" lon="15.60014">
				<ele>334.34</ele>
				<time>2025-07-28T21:10:33.231Z</time>
			</trkpt>
			<trkpt lat="48.11789" lon="15.59986">
				<ele>335.22</ele>
				<time>2025-07-28T21:10:34.499Z</time>
			</trkpt>
			<trkpt lat="48.1179" lon="15.59917">
				<ele>335.27</ele>
				<time>2025-07-28T21:10:37.559Z</time>
			</trkpt>
			<trkpt lat="48.11792" lon="15.59883">
				<ele>335.07</ele>
				<time>2025-07-28T21:10:39.075Z</time>
			</trkpt>
			<trkpt lat="48.118" lon="15.59836">
				<ele>336.91</ele>
				<time>2025-07-28T21:10:41.232Z</time>
			</trkpt>
			<trkpt lat="48.11808" lon="15.59765">
				<ele>336.73</ele>
				<time>2025-07-28T21:10:44.448Z</time>
			</trkpt>
			<trkpt lat="48.11799" lon="15.59728">
				<ele>333.33</ele>
				<time>2025-07-28T21:10:46.213Z</time>
			</trkpt>
			<trkpt lat="48.11757" lon="15.59585">
				<ele>331.41</ele>
				<time>2025-07-28T21:10:53.177Z</time>
			</trkpt>
			<trkpt lat="48.11731" lon="15.59434">
				<ele>338.58</ele>
				<time>2025-07-28T21:11:00.067Z</time>
			</trkpt>
			<trkpt lat="48.1169" lon="15.59299">
				<ele>342.53</ele>
				<time>2025-07-28T21:11:06.565Z</time>
			</trkpt>
			<trkpt lat="48.11665" lon="15.59229">
				<ele>348.46</ele>
				<time>2025-07-28T21:11:10.022Z</time>
			</trkpt>
			<trkpt lat="48.11642" lon="15.59158">
				<ele>352.13</ele>
				<time>2025-07-28T21:11:13.444Z</time>
			</trkpt>
			<trkpt lat="48.11627" lon="15.59099">
				<ele>355.31</ele>
				<time>2025-07-28T21:11:16.172Z</time>
			</trkpt>
			<trkpt lat="48.11608" lon="15.59011">
				<ele>359.79</ele>
				<time>2025-07-28T21:11:20.153Z</time>
			</trkpt>
			<trkpt lat="48.11599" lon="15.58959">
				<ele>361.25</ele>
				<time>2025-07-28T21:11:22.457Z</time>
			</trkpt>
			<trkpt lat="48.116" lon="15.58878">
				<ele>364.66</ele>
				<time>2025-07-28T21:11:25.920Z</time>
			</trkpt>
			<trkpt lat="48.11594" lon="15.58855">
				<ele>365.95</ele>
				<time>2025-07-28T21:11:26.972Z</time>
			</trkpt>
			<trkpt lat="48.11585" lon="15.58838">
				<ele>366.87</ele>
				<time>2025-07-28T21:11:27.897Z</time>
			</trkpt>
			<trkpt lat="48.11572" lon="15.58826">
				<ele>368.06</ele>
				<time>2025-07-28T21:11:28.870Z</time>
			</trkpt>
			<trkpt lat="48.11565" lon="15.58823">
				<ele>368.59</ele>
				<time>2025-07-28T21:11:29.333Z</time>
			</trkpt>
			<trkpt lat="48.11528" lon="15.58821">
				<ele>371.37</ele>
				<time>2025-07-28T21:11:31.687Z</time>
			</trkpt>
			<trkpt lat="48.11523" lon="15.58818">
				<ele>371.87</ele>
				<time>2025-07-28T21:11:32.029Z</time>
			</trkpt>
			<trkpt lat="48.11518" lon="15.58814">
				<ele>372.35</ele>
				<time>2025-07-28T21:11:32.389Z</time>
			</trkpt>
			<trkpt lat="48.11514" lon="15.58806">
				<ele>372.9</ele>
				<time>2025-07-28T21:11:32.812Z</time>
			</trkpt>
			<trkpt lat="48.11513" lon="15.58797">
				<ele>373</ele>
				<time>2025-07-28T21:11:33.199Z</time>
			</trkpt>
			<trkpt lat="48.11516" lon="15.58588">
				<ele>376.83</ele>
				<time>2025-07-28T21:11:42.006Z</time>
			</trkpt>
			<trkpt lat="48.11526" lon="15.58471">
				<ele>376.12</ele>
				<time>2025-07-28T21:11:46.942Z</time>
			</trkpt>
			<trkpt lat="48.11531" lon="15.58365">
				<ele>376.51</ele>
				<time>2025-07-28T21:11:51.368Z</time>
			</trkpt>
			<trkpt lat="48.11536" lon="15.58334">
				<ele>375.44</ele>
				<time>2025-07-28T21:11:52.692Z</time>
			</trkpt>
			<trkpt lat="48.1159" lon="15.58069">
				<ele>372.35</ele>
				<time>2025-07-28T21:12:04.135Z</time>
			</trkpt>
			<trkpt lat="48.116" lon="15.58014">
				<ele>372.78</ele>
				<time>2025-07-28T21:12:06.475Z</time>
			</trkpt>
			<trkpt lat="48.11614" lon="15.57831">
				<ele>369.78</ele>
				<time>2025-07-28T21:12:14.008Z</time>
			</trkpt>
			<trkpt lat="48.11614" lon="15.57802">
				<ele>368.77</ele>
				<time>2025-07-28T21:12:15.190Z</time>
			</trkpt>
			<trkpt lat="48.11612" lon="15.5778">
				<ele>368.02</ele>
				<time>2025-07-28T21:12:16.094Z</time>
			</trkpt>
			<trkpt lat="48.11599" lon="15.57713">
				<ele>364.38</ele>
				<time>2025-07-28T21:12:18.932Z</time>
			</trkpt>
			<trkpt lat="48.11589" lon="15.57683">
				<ele>361.95</ele>
				<time>2025-07-28T21:12:20.294Z</time>
			</trkpt>
			<trkpt lat="48.11507" lon="15.57507">
				<ele>351.98</ele>
				<time>2025-07-28T21:12:28.980Z</time>
			</trkpt>
			<trkpt lat="48.11489" lon="15.5746">
				<ele>349.81</ele>
				<time>2025-07-28T21:12:31.166Z</time>
			</trkpt>
			<trkpt lat="48.1148" lon="15.5743">
				<ele>346.46</ele>
				<time>2025-07-28T21:12:32.491Z</time>
			</trkpt>
			<trkpt lat="48.11472" lon="15.57398">
				<ele>343.71</ele>
				<time>2025-07-28T21:12:33.867Z</time>
			</trkpt>
			<trkpt lat="48.11469" lon="15.57375">
				<ele>342.05</ele>
				<time>2025-07-28T21:12:34.810Z</time>
			</trkpt>
			<trkpt lat="48.11466" lon="15.57331">
				<ele>339.08</ele>
				<time>2025-07-28T21:12:36.588Z</time>
			</trkpt>
			<trkpt lat="48.11469" lon="15.57284">
				<ele>336.91</ele>
				<time>2025-07-28T21:12:38.485Z</time>
			</trkpt>
			<trkpt lat="48.11486" lon="15.57118">
				<ele>331.4</ele>
				<time>2025-07-28T21:12:45.216Z</time>
			</trkpt>
			<trkpt lat="48.11488" lon="15.57103">
				<ele>330.83</ele>
				<time>2025-07-28T21:12:45.828Z</time>
			</trkpt>
			<trkpt lat="48.11512" lon="15.5701">
				<ele>329.91</ele>
				<time>2025-07-28T21:12:49.813Z</time>
			</trkpt>
			<trkpt lat="48.11517" lon="15.56981">
				<ele>329.41</ele>
				<time>2025-07-28T21:12:51.009Z</time>
			</trkpt>
			<trkpt lat="48.11522" lon="15.56905">
				<ele>333.73</ele>
				<time>2025-07-28T21:12:54.056Z</time>
			</trkpt>
			<trkpt lat="48.11522" lon="15.56842">
				<ele>336.47</ele>
				<time>2025-07-28T21:12:56.567Z</time>
			</trkpt>
			<trkpt lat="48.11516" lon="15.56749">
				<ele>339.19</ele>
				<time>2025-07-28T21:13:00.287Z</time>
			</trkpt>
			<trkpt lat="48.1151" lon="15.56686">
				<ele>342.09</ele>
				<time>2025-07-28T21:13:02.818Z</time>
			</trkpt>
			<trkpt lat="48.11505" lon="15.56652">
				<ele>344.92</ele>
				<time>2025-07-28T21:13:04.202Z</time>
			</trkpt>
			<trkpt lat="48.11492" lon="15.56593">
				<ele>346.88</ele>
				<time>2025-07-28T21:13:06.671Z</time>
			</trkpt>
			<trkpt lat="48.11491" lon="15.56572">
				<ele>346.22</ele>
				<time>2025-07-28T21:13:07.507Z</time>
			</trkpt>
			<trkpt lat="48.11494" lon="15.56557">
				<ele>345.48</ele>
				<time>2025-07-28T21:13:08.129Z</time>
			</trkpt>
			<trkpt lat="48.11501" lon="15.56544">
				<ele>344.98</ele>
				<time>2025-07-28T21:13:08.792Z</time>
			</trkpt>
			<trkpt lat="48.11519" lon="15.56518">
				<ele>344.2</ele>
				<time>2025-07-28T21:13:10.279Z</time>
			</trkpt>
			<trkpt lat="48.11531" lon="15.56509">
				<ele>343.9</ele>
				<time>2025-07-28T21:13:11.077Z</time>
			</trkpt>
			<trkpt lat="48.11578" lon="15.56482">
				<ele>342.16</ele>
				<time>2025-07-28T21:13:14.068Z</time>
			</trkpt>
			<trkpt lat="48.11603" lon="15.5646">
				<ele>341.89</ele>
				<time>2025-07-28T21:13:15.791Z</time>
			</trkpt>
			<trkpt lat="48.11621" lon="15.56439">
				<ele>342.44</ele>
				<time>2025-07-28T21:13:17.146Z</time>
			</trkpt>
			<trkpt lat="48.11647" lon="15.564">
				<ele>343.67</ele>
				<time>2025-07-28T21:13:19.331Z</time>
			</trkpt>
			<trkpt lat="48.11663" lon="15.56387">
				<ele>343.12</ele>
				<time>2025-07-28T21:13:20.412Z</time>
			</trkpt>
			<trkpt lat="48.11688" lon="15.56373">
				<ele>342.19</ele>
				<time>2025-07-28T21:13:21.997Z</time>
			</trkpt>
			<trkpt lat="48.11709" lon="15.56365">
				<ele>342</ele>
				<time>2025-07-28T21:13:23.283Z</time>
			</trkpt>
			<trkpt lat="48.11746" lon="15.5635">
				<ele>342</ele>
				<time>2025-07-28T21:13:25.559Z</time>
			</trkpt>
			<trkpt lat="48.11818" lon="15.56349">
				<ele>338.79</ele>
				<time>2025-07-28T21:13:29.832Z</time>
			</trkpt>
			<trkpt lat="48.11907" lon="15.56351">
				<ele>329.77</ele>
				<time>2025-07-28T21:13:35.116Z</time>
			</trkpt>
			<trkpt lat="48.11918" lon="15.56348">
				<ele>328.72</ele>
				<time>2025-07-28T21:13:35.780Z</time>
			</trkpt>
			<trkpt lat="48.11929" lon="15.56339">
				<ele>326.51</ele>
				<time>2025-07-28T21:13:36.524Z</time>
			</trkpt>
			<trkpt lat="48.11947" lon="15.56318">
				<ele>323.98</ele>
				<time>2025-07-28T21:13:37.879Z</time>
			</trkpt>
			<trkpt lat="48.12043" lon="15.5617">
				<ele>312.77</ele>
				<time>2025-07-28T21:13:46.065Z</time>
			</trkpt>
			<trkpt lat="48.1205" lon="15.56149">
				<ele>312.76</ele>
				<time>2025-07-28T21:13:46.997Z</time>
			</trkpt>
			<trkpt lat="48.12054" lon="15.56126">
				<ele>313.97</ele>
				<time>2025-07-28T21:13:47.941Z</time>
			</trkpt>
			<trkpt lat="48.12056" lon="15.56055">
				<ele>316.95</ele>
				<time>2025-07-28T21:13:50.764Z</time>
			</trkpt>
			<trkpt lat="48.1206" lon="15.56017">
				<ele>315.42</ele>
				<time>2025-07-28T21:13:52.293Z</time>
			</trkpt>
			<trkpt lat="48.1207" lon="15.55986">
				<ele>312.26</ele>
				<time>2025-07-28T21:13:53.661Z</time>
			</trkpt>
			<trkpt lat="48.12105" lon="15.55914">
				<ele>303.31</ele>
				<time>2025-07-28T21:13:57.205Z</time>
			</trkpt>
			<trkpt lat="48.12121" lon="15.55885">
				<ele>301.54</ele>
				<time>2025-07-28T21:13:58.703Z</time>
			</trkpt>
			<trkpt lat="48.12132" lon="15.5586">
				<ele>301</ele>
				<time>2025-07-28T21:13:59.896Z</time>
			</trkpt>
			<trkpt lat="48.1214" lon="15.55831">
				<ele>301.04</ele>
				<time>2025-07-28T21:14:01.146Z</time>
			</trkpt>
			<trkpt lat="48.12162" lon="15.55725">
				<ele>300.11</ele>
				<time>2025-07-28T21:14:05.575Z</time>
			</trkpt>
			<trkpt lat="48.12173" lon="15.55696">
				<ele>299.51</ele>
				<time>2025-07-28T21:14:06.907Z</time>
			</trkpt>
			<trkpt lat="48.12191" lon="15.55653">
				<ele>299.56</ele>
				<time>2025-07-28T21:14:08.935Z</time>
			</trkpt>
			<trkpt lat="48.1223" lon="15.556">
				<ele>299</ele>
				<time>2025-07-28T21:14:12.092Z</time>
			</trkpt>
			<trkpt lat="48.12241" lon="15.55582">
				<ele>298.96</ele>
				<time>2025-07-28T21:14:13.069Z</time>
			</trkpt>
			<trkpt lat="48.12249" lon="15.55563">
				<ele>299.4</ele>
				<time>2025-07-28T21:14:13.969Z</time>
			</trkpt>
			<trkpt lat="48.12258" lon="15.55534">
				<ele>300.13</ele>
				<time>2025-07-28T21:14:15.251Z</time>
			</trkpt>
			<trkpt lat="48.12269" lon="15.55466">
				<ele>299.87</ele>
				<time>2025-07-28T21:14:18.059Z</time>
			</trkpt>
			<trkpt lat="48.12274" lon="15.55409">
				<ele>298.97</ele>
				<time>2025-07-28T21:14:20.369Z</time>
			</trkpt>
			<trkpt lat="48.12271" lon="15.55377">
				<ele>298.11</ele>
				<time>2025-07-28T21:14:21.669Z</time>
			</trkpt>
			<trkpt lat="48.12263" lon="15.55341">
				<ele>298.17</ele>
				<time>2025-07-28T21:14:23.196Z</time>
			</trkpt>
			<trkpt lat="48.12244" lon="15.55291">
				<ele>299.86</ele>
				<time>2025-07-28T21:14:25.515Z</time>
			</trkpt>
			<trkpt lat="48.12226" lon="15.55235">
				<ele>299.15</ele>
				<time>2025-07-28T21:14:28.023Z</time>
			</trkpt>
			<trkpt lat="48.12223" lon="15.55212">
				<ele>298.45</ele>
				<time>2025-07-28T21:14:28.970Z</time>
			</trkpt>
			<trkpt lat="48.12217" lon="15.55131">
				<ele>297</ele>
				<time>2025-07-28T21:14:32.267Z</time>
			</trkpt>
			<trkpt lat="48.12198" lon="15.55035">
				<ele>292.98</ele>
				<time>2025-07-28T21:14:36.328Z</time>
			</trkpt>
			<trkpt lat="48.12196" lon="15.55018">
				<ele>292.51</ele>
				<time>2025-07-28T21:14:37.029Z</time>
			</trkpt>
			<trkpt lat="48.12197" lon="15.54998">
				<ele>291.86</ele>
				<time>2025-07-28T21:14:37.845Z</time>
			</trkpt>
			<trkpt lat="48.12124" lon="15.55003">
				<ele>293.89</ele>
				<time>2025-07-28T21:14:42.297Z</time>
			</trkpt>
			<trkpt lat="48.12083" lon="15.55001">
				<ele>294.09</ele>
				<time>2025-07-28T21:14:44.796Z</time>
			</trkpt>
			<trkpt lat="48.12049" lon="15.54995">
				<ele>293.72</ele>
				<time>2025-07-28T21:14:46.880Z</time>
			</trkpt>
			<trkpt lat="48.12" lon="15.54978">
				<ele>294.45</ele>
				<time>2025-07-28T21:14:49.941Z</time>
			</trkpt>
			<trkpt lat="48.11952" lon="15.54953">
				<ele>297.75</ele>
				<time>2025-07-28T21:14:53.033Z</time>
			</trkpt>
			<trkpt lat="48.11899" lon="15.54915">
				<ele>297</ele>
				<time>2025-07-28T21:14:56.607Z</time>
			</trkpt>
			<trkpt lat="48.11882" lon="15.549">
				<ele>296.85</ele>
				<time>2025-07-28T21:14:57.807Z</time>
			</trkpt>
			<trkpt lat="48.11831" lon="15.54845">
				<ele>295.5</ele>
				<time>2025-07-28T21:15:01.626Z</time>
			</trkpt>
			<trkpt lat="48.11796" lon="15.54796">
				<ele>297.16</ele>
				<time>2025-07-28T21:15:04.537Z</time>
			</trkpt>
			<trkpt lat="48.11703" lon="15.54643">
				<ele>301.06</ele>
				<time>2025-07-28T21:15:12.926Z</time>
			</trkpt>
			<trkpt lat="48.11632" lon="15.54554">
				<ele>303.87</ele>
				<time>2025-07-28T21:15:18.545Z</time>
			</trkpt>
			<trkpt lat="48.11611" lon="15.54534">
				<ele>303.84</ele>
				<time>2025-07-28T21:15:20.055Z</time>
			</trkpt>
			<trkpt lat="48.1156" lon="15.54495">
				<ele>299.75</ele>
				<time>2025-07-28T21:15:23.528Z</time>
			</trkpt>
			<trkpt lat="48.11521" lon="15.54476">
				<ele>299.59</ele>
				<time>2025-07-28T21:15:26.015Z</time>
			</trkpt>
			<trkpt lat="48.11449" lon="15.54456">
				<ele>301.36</ele>
				<time>2025-07-28T21:15:30.455Z</time>
			</trkpt>
			<trkpt lat="48.11408" lon="15.5445">
				<ele>300.08</ele>
				<time>2025-07-28T21:15:32.951Z</time>
			</trkpt>
			<trkpt lat="48.11368" lon="15.54434">
				<ele>299.72</ele>
				<time>2025-07-28T21:15:35.461Z</time>
			</trkpt>
			<trkpt lat="48.1132" lon="15.5441">
				<ele>296.67</ele>
				<time>2025-07-28T21:15:38.527Z</time>
			</trkpt>
			<trkpt lat="48.11296" lon="15.54395">
				<ele>296.22</ele>
				<time>2025-07-28T21:15:40.102Z</time>
			</trkpt>
			<trkpt lat="48.11265" lon="15.54371">
				<ele>295.35</ele>
				<time>2025-07-28T21:15:42.216Z</time>
			</trkpt>
			<trkpt lat="48.11244" lon="15.54351">
				<ele>295.18</ele>
				<time>2025-07-28T21:15:43.724Z</time>
			</trkpt>
			<trkpt lat="48.1117" lon="15.5428">
				<ele>297.98</ele>
				<time>2025-07-28T21:15:49.046Z</time>
			</trkpt>
			<trkpt lat="48.11112" lon="15.5421">
				<ele>297.4</ele>
				<time>2025-07-28T21:15:53.556Z</time>
			</trkpt>
			<trkpt lat="48.11016" lon="15.54083">
				<ele>298.01</ele>
				<time>2025-07-28T21:16:01.310Z</time>
			</trkpt>
			<trkpt lat="48.10939" lon="15.53971">
				<ele>297.97</ele>
				<time>2025-07-28T21:16:07.807Z</time>
			</trkpt>
			<trkpt lat="48.10845" lon="15.53821">
				<ele>302.69</ele>
				<time>2025-07-28T21:16:16.120Z</time>
			</trkpt>
			<trkpt lat="48.10625" lon="15.53472">
				<ele>303</ele>
				<time>2025-07-28T21:16:35.516Z</time>
			</trkpt>
			<trkpt lat="48.1052" lon="15.53308">
				<ele>302</ele>
				<time>2025-07-28T21:16:44.701Z</time>
			</trkpt>
			<trkpt lat="48.10456" lon="15.532">
				<ele>304.9</ele>
				<time>2025-07-28T21:16:50.540Z</time>
			</trkpt>
			<trkpt lat="48.10393" lon="15.53077">
				<ele>303.85</ele>
				<time>2025-07-28T21:16:56.810Z</time>
			</trkpt>
			<trkpt lat="48.10293" lon="15.52831">
				<ele>308.07</ele>
				<time>2025-07-28T21:17:08.465Z</time>
			</trkpt>
			<trkpt lat="48.10265" lon="15.52859">
				<ele>308</ele>
				<time>2025-07-28T21:17:10.503Z</time>
			</trkpt>
			<trkpt lat="48.10253" lon="15.52876">
				<ele>307.91</ele>
				<time>2025-07-28T21:17:11.497Z</time>
			</trkpt>
			<trkpt lat="48.1024" lon="15.52926">
				<ele>307.64</ele>
				<time>2025-07-28T21:17:13.638Z</time>
			</trkpt>
			<trkpt lat="48.10226" lon="15.52962">
				<ele>307</ele>
				<time>2025-07-28T21:17:15.285Z</time>
			</trkpt>
			<trkpt lat="48.10146" lon="15.53038">
				<ele>305.55</ele>
				<time>2025-07-28T21:17:20.806Z</time>
			</trkpt>
			<trkpt lat="48.10098" lon="15.53075">
				<ele>304.66</ele>
				<time>2025-07-28T21:17:23.895Z</time>
			</trkpt>
			<trkpt lat="48.09927" lon="15.532">
				<ele>306.52</ele>
				<time>2025-07-28T21:17:34.492Z</time>
			</trkpt>
			<trkpt lat="48.09886" lon="15.53232">
				<ele>307.82</ele>
				<time>2025-07-28T21:17:37.008Z</time>
			</trkpt>
			<trkpt lat="48.09834" lon="15.53272">
				<ele>311.75</ele>
				<time>2025-07-28T21:17:40.162Z</time>
			</trkpt>
			<trkpt lat="48.09815" lon="15.53276">
				<ele>312.59</ele>
				<time>2025-07-28T21:17:41.191Z</time>
			</trkpt>
			<trkpt lat="48.09767" lon="15.53272">
				<ele>312.86</ele>
				<time>2025-07-28T21:17:43.757Z</time>
			</trkpt>
			<trkpt lat="48.0975" lon="15.53273">
				<ele>312.99</ele>
				<time>2025-07-28T21:17:44.661Z</time>
			</trkpt>
			<trkpt lat="48.09679" lon="15.53332">
				<ele>318.07</ele>
				<time>2025-07-28T21:17:48.952Z</time>
			</trkpt>
			<trkpt lat="48.09629" lon="15.53366">
				<ele>319.85</ele>
				<time>2025-07-28T21:17:51.834Z</time>
			</trkpt>
			<trkpt lat="48.09614" lon="15.53383">
				<ele>321.51</ele>
				<time>2025-07-28T21:17:52.818Z</time>
			</trkpt>
			<trkpt lat="48.09603" lon="15.53403">
				<ele>322.29</ele>
				<time>2025-07-28T21:17:53.723Z</time>
			</trkpt>
			<trkpt lat="48.09593" lon="15.53439">
				<ele>322.11</ele>
				<time>2025-07-28T21:17:55.081Z</time>
			</trkpt>
			<trkpt lat="48.09582" lon="15.53468">
				<ele>321.42</ele>
				<time>2025-07-28T21:17:56.242Z</time>
			</trkpt>
			<trkpt lat="48.09567" lon="15.53487">
				<ele>322.96</ele>
				<time>2025-07-28T21:17:57.264Z</time>
			</trkpt>
			<trkpt lat="48.09537" lon="15.53514">
				<ele>324.61</ele>
				<time>2025-07-28T21:17:59.083Z</time>
			</trkpt>
			<trkpt lat="48.0941" lon="15.53589">
				<ele>331.36</ele>
				<time>2025-07-28T21:18:06.165Z</time>
			</trkpt>
			<trkpt lat="48.09343" lon="15.5365">
				<ele>340.35</ele>
				<time>2025-07-28T21:18:10.235Z</time>
			</trkpt>
			<trkpt lat="48.09274" lon="15.53739">
				<ele>344.26</ele>
				<time>2025-07-28T21:18:14.978Z</time>
			</trkpt>
			<trkpt lat="48.09251" lon="15.53811">
				<ele>346.43</ele>
				<time>2025-07-28T21:18:17.767Z</time>
			</trkpt>
			<trkpt lat="48.09188" lon="15.53929">
				<ele>351.72</ele>
				<time>2025-07-28T21:18:23.083Z</time>
			</trkpt>
			<trkpt lat="48.09155" lon="15.54029">
				<ele>353.38</ele>
				<time>2025-07-28T21:18:27.048Z</time>
			</trkpt>
			<trkpt lat="48.09124" lon="15.54102">
				<ele>354.17</ele>
				<time>2025-07-28T21:18:30.152Z</time>
			</trkpt>
			<trkpt lat="48.09091" lon="15.54353">
				<ele>362.59</ele>
				<time>2025-07-28T21:18:39.510Z</time>
			</trkpt>
			<trkpt lat="48.09074" lon="15.54544">
				<ele>369.18</ele>
				<time>2025-07-28T21:18:46.777Z</time>
			</trkpt>
			<trkpt lat="48.09068" lon="15.54674">
				<ele>381.98</ele>
				<time>2025-07-28T21:18:51.818Z</time>
			</trkpt>
			<trkpt lat="48.09075" lon="15.54738">
				<ele>386.98</ele>
				<time>2025-07-28T21:18:54.370Z</time>
			</trkpt>
			<trkpt lat="48.09109" lon="15.54856">
				<ele>396.75</ele>
				<time>2025-07-28T21:18:59.516Z</time>
			</trkpt>
			<trkpt lat="48.09136" lon="15.5493">
				<ele>401.7</ele>
				<time>2025-07-28T21:19:02.963Z</time>
			</trkpt>
			<trkpt lat="48.09145" lon="15.54988">
				<ele>402.67</ele>
				<time>2025-07-28T21:19:05.432Z</time>
			</trkpt>
			<trkpt lat="48.09147" lon="15.54994">
				<ele>403.18</ele>
				<time>2025-07-28T21:19:05.712Z</time>
			</trkpt>
			<trkpt lat="48.09153" lon="15.54998">
				<ele>404.01</ele>
				<time>2025-07-28T21:19:06.123Z</time>
			</trkpt>
			<trkpt lat="48.09158" lon="15.54995">
				<ele>404.75</ele>
				<time>2025-07-28T21:19:06.461Z</time>
			</trkpt>
			<trkpt lat="48.09162" lon="15.54983">
				<ele>405.36</ele>
				<time>2025-07-28T21:19:07.024Z</time>
			</trkpt>
			<trkpt lat="48.09162" lon="15.5497">
				<ele>405.29</ele>
				<time>2025-07-28T21:19:07.571Z</time>
			</trkpt>
			<trkpt lat="48.09156" lon="15.5494">
				<ele>404.69</ele>
				<time>2025-07-28T21:19:08.896Z</time>
			</trkpt>
			<trkpt lat="48.09157" lon="15.54902">
				<ele>405.4</ele>
				<time>2025-07-28T21:19:10.516Z</time>
			</trkpt>
			<trkpt lat="48.09162" lon="15.54837">
				<ele>409.45</ele>
				<time>2025-07-28T21:19:13.336Z</time>
			</trkpt>
			<trkpt lat="48.09173" lon="15.54778">
				<ele>413.29</ele>
				<time>2025-07-28T21:19:16.013Z</time>
			</trkpt>
			<trkpt lat="48.09177" lon="15.54749">
				<ele>412.07</ele>
				<time>2025-07-28T21:19:17.320Z</time>
			</trkpt>
			<trkpt lat="48.09175" lon="15.54662">
				<ele>409.13</ele>
				<time>2025-07-28T21:19:21.214Z</time>
			</trkpt>
			<trkpt lat="48.0918" lon="15.54641">
				<ele>409.12</ele>
				<time>2025-07-28T21:19:22.224Z</time>
			</trkpt>
			<trkpt lat="48.09183" lon="15.54638">
				<ele>409.62</ele>
				<time>2025-07-28T21:19:22.469Z</time>
			</trkpt>
			<trkpt lat="48.09189" lon="15.54636">
				<ele>410.86</ele>
				<time>2025-07-28T21:19:22.888Z</time>
			</trkpt>
			<trkpt lat="48.09192" lon="15.54638">
				<ele>411.6</ele>
				<time>2025-07-28T21:19:23.112Z</time>
			</trkpt>
			<trkpt lat="48.09195" lon="15.54646">
				<ele>412.24</ele>
				<time>2025-07-28T21:19:23.531Z</time>
			</trkpt>
			<trkpt lat="48.09196" lon="15.547">
				<ele>411.47</ele>
				<time>2025-07-28T21:19:26.017Z</time>
			</trkpt>
			<trkpt lat="48.09255" lon="15.54946">
				<ele>435.69</ele>
				<time>2025-07-28T21:19:38.513Z</time>
			</trkpt>
			<trkpt lat="48.0927" lon="15.55017">
				<ele>441.1</ele>
				<time>2025-07-28T21:19:42.224Z</time>
			</trkpt>
			<trkpt lat="48.09284" lon="15.55118">
				<ele>442.44</ele>
				<time>2025-07-28T21:19:47.482Z</time>
			</trkpt>
			<trkpt lat="48.09294" lon="15.55216">
				<ele>447.06</ele>
				<time>2025-07-28T21:19:52.668Z</time>
			</trkpt>
			<trkpt lat="48.09301" lon="15.55426">
				<ele>449.13</ele>
				<time>2025-07-28T21:20:04.124Z</time>
			</trkpt>
			<trkpt lat="48.09315" lon="15.55529">
				<ele>444.2</ele>
				<time>2025-07-28T21:20:10.095Z</time>
			</trkpt>
			<trkpt lat="48.09277" lon="15.55576">
				<ele>441</ele>
				<time>2025-07-28T21:20:14.435Z</time>
			</trkpt>
			<trkpt lat="48.09194" lon="15.55643">
				<ele>454.78</ele>
				<time>2025-07-28T21:20:23.681Z</time>
			</trkpt>
			<trkpt lat="48.09145" lon="15.5568">
				<ele>458.9</ele>
				<time>2025-07-28T21:20:29.604Z</time>
			</trkpt>
			<trkpt lat="48.09088" lon="15.55713">
				<ele>468.99</ele>
				<time>2025-07-28T21:20:36.614Z</time>
			</trkpt>
			<trkpt lat="48.09066" lon="15.55723">
				<ele>471.75</ele>
				<time>2025-07-28T21:20:39.354Z</time>
			</trkpt>
			<trkpt lat="48.09043" lon="15.5574">
				<ele>473.04</ele>
				<time>2025-07-28T21:20:42.472Z</time>
			</trkpt>
			<trkpt lat="48.0902" lon="15.55772">
				<ele>473.89</ele>
				<time>2025-07-28T21:20:46.372Z</time>
			</trkpt>
			<trkpt lat="48.08992" lon="15.55806">
				<ele>476.11</ele>
				<time>2025-07-28T21:20:50.955Z</time>
			</trkpt>
			<trkpt lat="48.08974" lon="15.55817">
				<ele>478.14</ele>
				<time>2025-07-28T21:20:53.468Z</time>
			</trkpt>
			<trkpt lat="48.08916" lon="15.55834">
				<ele>485.23</ele>
				<time>2025-07-28T21:21:01.274Z</time>
			</trkpt>
			<trkpt lat="48.08884" lon="15.55841">
				<ele>488.86</ele>
				<time>2025-07-28T21:21:05.638Z</time>
			</trkpt>
			<trkpt lat="48.08816" lon="15.55831">
				<ele>501.22</ele>
				<time>2025-07-28T21:21:15.032Z</time>
			</trkpt>
			<trkpt lat="48.08802" lon="15.55824">
				<ele>504.33</ele>
				<time>2025-07-28T21:21:17.088Z</time>
			</trkpt>
			<trkpt lat="48.08777" lon="15.55801">
				<ele>505.08</ele>
				<time>2025-07-28T21:21:21.196Z</time>
			</trkpt>
			<trkpt lat="48.08653" lon="15.55732">
				<ele>506.16</ele>
				<time>2025-07-28T21:21:39.939Z</time>
			</trkpt>
			<trkpt lat="48.08611" lon="15.55712">
				<ele>503.66</ele>
				<time>2025-07-28T21:21:46.206Z</time>
			</trkpt>
			<trkpt lat="48.08514" lon="15.55652">
				<ele>514.16</ele>
				<time>2025-07-28T21:22:01.011Z</time>
			</trkpt>
			<trkpt lat="48.08458" lon="15.55606">
				<ele>516.4</ele>
				<time>2025-07-28T21:22:09.856Z</time>
			</trkpt>
			<trkpt lat="48.08376" lon="15.55522">
				<ele>525.91</ele>
				<time>2025-07-28T21:22:23.204Z</time>
			</trkpt>
			<trkpt lat="48.0837" lon="15.55503">
				<ele>527.17</ele>
				<time>2025-07-28T21:22:25.039Z</time>
			</trkpt>
			<trkpt lat="48.08358" lon="15.55423">
				<ele>530.32</ele>
				<time>2025-07-28T21:22:32.056Z</time>
			</trkpt>
			<trkpt lat="48.0835" lon="15.55384">
				<ele>531.63</ele>
				<time>2025-07-28T21:22:35.455Z</time>
			</trkpt>
			<trkpt lat="48.08228" lon="15.55209">
				<ele>534.36</ele>
				<time>2025-07-28T21:22:55.693Z</time>
			</trkpt>
			<trkpt lat="48.08204" lon="15.55184">
				<ele>537.34</ele>
				<time>2025-07-28T21:22:59.128Z</time>
			</trkpt>
			<trkpt lat="48.08147" lon="15.5516">
				<ele>554.25</ele>
				<time>2025-07-28T21:23:06.035Z</time>
			</trkpt>
			<trkpt lat="48.08124" lon="15.55157">
				<ele>563.65</ele>
				<time>2025-07-28T21:23:08.713Z</time>
			</trkpt>
			<trkpt lat="48.08102" lon="15.55159">
				<ele>569.88</ele>
				<time>2025-07-28T21:23:11.261Z</time>
			</trkpt>
			<trkpt lat="48.08041" lon="15.55181">
				<ele>567.53</ele>
				<time>2025-07-28T21:23:18.480Z</time>
			</trkpt>
			<trkpt lat="48.08012" lon="15.55179">
				<ele>563.95</ele>
				<time>2025-07-28T21:23:21.804Z</time>
			</trkpt>
			<trkpt lat="48.07995" lon="15.55172">
				<ele>562.31</ele>
				<time>2025-07-28T21:23:23.819Z</time>
			</trkpt>
			<trkpt lat="48.07978" lon="15.55158">
				<ele>561.4</ele>
				<time>2025-07-28T21:23:26.032Z</time>
			</trkpt>
			<trkpt lat="48.07928" lon="15.55086">
				<ele>561.33</ele>
				<time>2025-07-28T21:23:33.922Z</time>
			</trkpt>
			<trkpt lat="48.07908" lon="15.55066">
				<ele>560.49</ele>
				<time>2025-07-28T21:23:36.650Z</time>
			</trkpt>
			<trkpt lat="48.0788" lon="15.55008">
				<ele>563.21</ele>
				<time>2025-07-28T21:23:42.065Z</time>
			</trkpt>
			<trkpt lat="48.07866" lon="15.54983">
				<ele>563.7</ele>
				<time>2025-07-28T21:23:44.531Z</time>
			</trkpt>
			<trkpt lat="48.07848" lon="15.54953">
				<ele>564.31</ele>
				<time>2025-07-28T21:23:47.578Z</time>
			</trkpt>
			<trkpt lat="48.0783" lon="15.54933">
				<ele>563.72</ele>
				<time>2025-07-28T21:23:50.114Z</time>
			</trkpt>
			<trkpt lat="48.07808" lon="15.54919">
				<ele>563.75</ele>
				<time>2025-07-28T21:23:52.818Z</time>
			</trkpt>
			<trkpt lat="48.07781" lon="15.54909">
				<ele>564.21</ele>
				<time>2025-07-28T21:23:55.964Z</time>
			</trkpt>
			<trkpt lat="48.07722" lon="15.54909">
				<ele>561.8</ele>
				<time>2025-07-28T21:24:02.647Z</time>
			</trkpt>
			<trkpt lat="48.07678" lon="15.5488">
				<ele>558.79</ele>
				<time>2025-07-28T21:24:08.105Z</time>
			</trkpt>
			<trkpt lat="48.07632" lon="15.54862">
				<ele>553.51</ele>
				<time>2025-07-28T21:24:13.519Z</time>
			</trkpt>
			<trkpt lat="48.07602" lon="15.54846">
				<ele>552.02</ele>
				<time>2025-07-28T21:24:17.157Z</time>
			</trkpt>
			<trkpt lat="48.07577" lon="15.54825">
				<ele>549.86</ele>
				<time>2025-07-28T21:24:20.440Z</time>
			</trkpt>
			<trkpt lat="48.07495" lon="15.54909">
				<ele>552.32</ele>
				<time>2025-07-28T21:24:31.982Z</time>
			</trkpt>
			<trkpt lat="48.07424" lon="15.54946">
				<ele>569.62</ele>
				<time>2025-07-28T21:24:40.991Z</time>
			</trkpt>
			<trkpt lat="48.07384" lon="15.54952">
				<ele>568.36</ele>
				<time>2025-07-28T21:24:45.892Z</time>
			</trkpt>
			<trkpt lat="48.07371" lon="15.54957">
				<ele>565.49</ele>
				<time>2025-07-28T21:24:47.540Z</time>
			</trkpt>
			<trkpt lat="48.07359" lon="15.54967">
				<ele>562.52</ele>
				<time>2025-07-28T21:24:49.231Z</time>
			</trkpt>
			<trkpt lat="48.07346" lon="15.54991">
				<ele>558.05</ele>
				<time>2025-07-28T21:24:51.784Z</time>
			</trkpt>
			<trkpt lat="48.07342" lon="15.55008">
				<ele>556.53</ele>
				<time>2025-07-28T21:24:53.278Z</time>
			</trkpt>
			<trkpt lat="48.07344" lon="15.55055">
				<ele>557.5</ele>
				<time>2025-07-28T21:24:57.197Z</time>
			</trkpt>
			<trkpt lat="48.07341" lon="15.55076">
				<ele>557.04</ele>
				<time>2025-07-28T21:24:58.992Z</time>
			</trkpt>
			<trkpt lat="48.07307" lon="15.552">
				<ele>552.98</ele>
				<time>2025-07-28T21:25:10.266Z</time>
			</trkpt>
			<trkpt lat="48.07297" lon="15.55228">
				<ele>553.59</ele>
				<time>2025-07-28T21:25:12.951Z</time>
			</trkpt>
			<trkpt lat="48.07284" lon="15.55247">
				<ele>552.89</ele>
				<time>2025-07-28T21:25:15.252Z</time>
			</trkpt>
			<trkpt lat="48.07266" lon="15.55258">
				<ele>551.98</ele>
				<time>2025-07-28T21:25:17.717Z</time>
			</trkpt>
			<trkpt lat="48.0723" lon="15.55269">
				<ele>552.48</ele>
				<time>2025-07-28T21:25:22.377Z</time>
			</trkpt>
			<trkpt lat="48.07198" lon="15.55276">
				<ele>554.51</ele>
				<time>2025-07-28T21:25:26.477Z</time>
			</trkpt>
			<trkpt lat="48.07158" lon="15.55278">
				<ele>552.96</ele>
				<time>2025-07-28T21:25:31.543Z</time>
			</trkpt>
			<trkpt lat="48.07138" lon="15.55282">
				<ele>552.86</ele>
				<time>2025-07-28T21:25:34.093Z</time>
			</trkpt>
			<trkpt lat="48.0712" lon="15.55292">
				<ele>553.56</ele>
				<time>2025-07-28T21:25:36.514Z</time>
			</trkpt>
			<trkpt lat="48.0707" lon="15.5534">
				<ele>555.98</ele>
				<time>2025-07-28T21:25:43.970Z</time>
			</trkpt>
			<trkpt lat="48.07055" lon="15.55345">
				<ele>555.96</ele>
				<time>2025-07-28T21:25:45.888Z</time>
			</trkpt>
			<trkpt lat="48.07044" lon="15.55341">
				<ele>553.79</ele>
				<time>2025-07-28T21:25:47.297Z</time>
			</trkpt>
			<trkpt lat="48.07022" lon="15.55328">
				<ele>548</ele>
				<time>2025-07-28T21:25:50.233Z</time>
			</trkpt>
			<trkpt lat="48.07008" lon="15.55324">
				<ele>545.28</ele>
				<time>2025-07-28T21:25:51.995Z</time>
			</trkpt>
			<trkpt lat="48.06994" lon="15.55326">
				<ele>544.31</ele>
				<time>2025-07-28T21:25:53.728Z</time>
			</trkpt>
			<trkpt lat="48.06977" lon="15.55335">
				<ele>545.82</ele>
				<time>2025-07-28T21:25:55.942Z</time>
			</trkpt>
			<trkpt lat="48.06947" lon="15.55361">
				<ele>548.56</ele>
				<time>2025-07-28T21:26:00.170Z</time>
			</trkpt>
			<trkpt lat="48.06914" lon="15.55394">
				<ele>549.68</ele>
				<time>2025-07-28T21:26:04.959Z</time>
			</trkpt>
			<trkpt lat="48.06872" lon="15.55443">
				<ele>546.81</ele>
				<time>2025-07-28T21:26:11.287Z</time>
			</trkpt>
			<trkpt lat="48.06823" lon="15.55495">
				<ele>542.94</ele>
				<time>2025-07-28T21:26:18.271Z</time>
			</trkpt>
			<trkpt lat="48.06778" lon="15.55531">
				<ele>536.78</ele>
				<time>2025-07-28T21:26:24.059Z</time>
			</trkpt>
			<trkpt lat="48.06765" lon="15.55544">
				<ele>534.79</ele>
				<time>2025-07-28T21:26:25.803Z</time>
			</trkpt>
			<trkpt lat="48.06758" lon="15.55567">
				<ele>535.45</ele>
				<time>2025-07-28T21:26:27.671Z</time>
			</trkpt>
			<trkpt lat="48.06751" lon="15.55604">
				<ele>536.96</ele>
				<time>2025-07-28T21:26:30.480Z</time>
			</trkpt>
			<trkpt lat="48.06747" lon="15.55616">
				<ele>536.69</ele>
				<time>2025-07-28T21:26:31.450Z</time>
			</trkpt>
			<trkpt lat="48.06732" lon="15.5563">
				<ele>533.13</ele>
				<time>2025-07-28T21:26:33.347Z</time>
			</trkpt>
			<trkpt lat="48.06697" lon="15.5567">
				<ele>529</ele>
				<time>2025-07-28T21:26:37.984Z</time>
			</trkpt>
			<trkpt lat="48.06664" lon="15.55702">
				<ele>524.14</ele>
				<time>2025-07-28T21:26:42.007Z</time>
			</trkpt>
			<trkpt lat="48.06645" lon="15.55723">
				<ele>521.57</ele>
				<time>2025-07-28T21:26:44.367Z</time>
			</trkpt>
			<trkpt lat="48.06631" lon="15.55749">
				<ele>521.87</ele>
				<time>2025-07-28T21:26:46.558Z</time>
			</trkpt>
			<trkpt lat="48.06606" lon="15.55816">
				<ele>524.85</ele>
				<time>2025-07-28T21:26:51.437Z</time>
			</trkpt>
			<trkpt lat="48.06595" lon="15.55836">
				<ele>524.34</ele>
				<time>2025-07-28T21:26:53.033Z</time>
			</trkpt>
			<trkpt lat="48.06586" lon="15.55845">
				<ele>523.02</ele>
				<time>2025-07-28T21:26:54.018Z</time>
			</trkpt>
			<trkpt lat="48.06575" lon="15.55847">
				<ele>521.64</ele>
				<time>2025-07-28T21:26:55.015Z</time>
			</trkpt>
			<trkpt lat="48.06513" lon="15.55823">
				<ele>518</ele>
				<time>2025-07-28T21:27:00.557Z</time>
			</trkpt>
			<trkpt lat="48.06432" lon="15.55973">
				<ele>516.45</ele>
				<time>2025-07-28T21:27:10.700Z</time>
			</trkpt>
			<trkpt lat="48.06419" lon="15.5601">
				<ele>513.19</ele>
				<time>2025-07-28T21:27:12.785Z</time>
			</trkpt>
			<trkpt lat="48.06407" lon="15.56055">
				<ele>509.69</ele>
				<time>2025-07-28T21:27:15.157Z</time>
			</trkpt>
			<trkpt lat="48.06396" lon="15.56108">
				<ele>506.31</ele>
				<time>2025-07-28T21:27:17.817Z</time>
			</trkpt>
			<trkpt lat="48.06393" lon="15.56142">
				<ele>503.49</ele>
				<time>2025-07-28T21:27:19.431Z</time>
			</trkpt>
			<trkpt lat="48.06411" lon="15.56286">
				<ele>487.82</ele>
				<time>2025-07-28T21:27:26.092Z</time>
			</trkpt>
			<trkpt lat="48.06424" lon="15.56514">
				<ele>486.38</ele>
				<time>2025-07-28T21:27:35.817Z</time>
			</trkpt>
			<trkpt lat="48.06406" lon="15.56756">
				<ele>460.32</ele>
				<time>2025-07-28T21:27:45.430Z</time>
			</trkpt>
			<trkpt lat="48.06388" lon="15.56975">
				<ele>453.89</ele>
				<time>2025-07-28T21:27:53.660Z</time>
			</trkpt>
			<trkpt lat="48.06373" lon="15.57034">
				<ele>450.73</ele>
				<time>2025-07-28T21:27:55.954Z</time>
			</trkpt>
			<trkpt lat="48.06356" lon="15.57069">
				<ele>450.54</ele>
				<time>2025-07-28T21:27:57.514Z</time>
			</trkpt>
			<trkpt lat="48.0634" lon="15.57126">
				<ele>445.1</ele>
				<time>2025-07-28T21:27:59.729Z</time>
			</trkpt>
			<trkpt lat="48.0633" lon="15.57207">
				<ele>425.91</ele>
				<time>2025-07-28T21:28:02.660Z</time>
			</trkpt>
			<trkpt lat="48.06323" lon="15.57227">
				<ele>423.77</ele>
				<time>2025-07-28T21:28:03.461Z</time>
			</trkpt>
			<trkpt lat="48.06306" lon="15.57247">
				<ele>420.63</ele>
				<time>2025-07-28T21:28:04.606Z</time>
			</trkpt>
			<trkpt lat="48.06279" lon="15.57272">
				<ele>418.54</ele>
				<time>2025-07-28T21:28:06.285Z</time>
			</trkpt>
			<trkpt lat="48.06173" lon="15.57341">
				<ele>413.99</ele>
				<time>2025-07-28T21:28:12.393Z</time>
			</trkpt>
			<trkpt lat="48.06149" lon="15.57366">
				<ele>414.64</ele>
				<time>2025-07-28T21:28:13.943Z</time>
			</trkpt>
			<trkpt lat="48.06117" lon="15.57453">
				<ele>400.19</ele>
				<time>2025-07-28T21:28:17.480Z</time>
			</trkpt>
			<trkpt lat="48.06093" lon="15.57506">
				<ele>395.1</ele>
				<time>2025-07-28T21:28:19.780Z</time>
			</trkpt>
			<trkpt lat="48.06057" lon="15.57592">
				<ele>390.22</ele>
				<time>2025-07-28T21:28:23.467Z</time>
			</trkpt>
			<trkpt lat="48.06042" lon="15.57632">
				<ele>389.19</ele>
				<time>2025-07-28T21:28:25.154Z</time>
			</trkpt>
			<trkpt lat="48.06012" lon="15.5778">
				<ele>387.25</ele>
				<time>2025-07-28T21:28:30.957Z</time>
			</trkpt>
			<trkpt lat="48.06005" lon="15.5784">
				<ele>388.09</ele>
				<time>2025-07-28T21:28:33.300Z</time>
			</trkpt>
			<trkpt lat="48.05995" lon="15.57858">
				<ele>386.43</ele>
				<time>2025-07-28T21:28:34.211Z</time>
			</trkpt>
			<trkpt lat="48.05907" lon="15.5797">
				<ele>372.66</ele>
				<time>2025-07-28T21:28:41.123Z</time>
			</trkpt>
			<trkpt lat="48.05864" lon="15.58011">
				<ele>366.24</ele>
				<time>2025-07-28T21:28:44.293Z</time>
			</trkpt>
			<trkpt lat="48.05846" lon="15.58039">
				<ele>366</ele>
				<time>2025-07-28T21:28:45.939Z</time>
			</trkpt>
			<trkpt lat="48.05835" lon="15.58059">
				<ele>365.87</ele>
				<time>2025-07-28T21:28:47.048Z</time>
			</trkpt>
			<trkpt lat="48.05833" lon="15.58035">
				<ele>366</ele>
				<time>2025-07-28T21:28:48.093Z</time>
			</trkpt>
			<trkpt lat="48.05813" lon="15.57945">
				<ele>366.99</ele>
				<time>2025-07-28T21:28:52.256Z</time>
			</trkpt>
			<trkpt lat="48.05803" lon="15.57926">
				<ele>367.02</ele>
				<time>2025-07-28T21:28:53.318Z</time>
			</trkpt>
			<trkpt lat="48.05761" lon="15.57883">
				<ele>367.7</ele>
				<time>2025-07-28T21:28:56.653Z</time>
			</trkpt>
			<trkpt lat="48.05608" lon="15.57685">
				<ele>372.33</ele>
				<time>2025-07-28T21:29:09.864Z</time>
			</trkpt>
			<trkpt lat="48.05587" lon="15.57651">
				<ele>373.87</ele>
				<time>2025-07-28T21:29:11.893Z</time>
			</trkpt>
			<trkpt lat="48.05423" lon="15.57311">
				<ele>391.33</ele>
				<time>2025-07-28T21:29:30.651Z</time>
			</trkpt>
			<trkpt lat="48.05397" lon="15.57263">
				<ele>388.07</ele>
				<time>2025-07-28T21:29:33.506Z</time>
			</trkpt>
			<trkpt lat="48.05363" lon="15.57215">
				<ele>383.78</ele>
				<time>2025-07-28T21:29:36.775Z</time>
			</trkpt>
			<trkpt lat="48.05342" lon="15.57189">
				<ele>383.44</ele>
				<time>2025-07-28T21:29:38.702Z</time>
			</trkpt>
			<trkpt lat="48.05254" lon="15.57084">
				<ele>383.32</ele>
				<time>2025-07-28T21:29:46.835Z</time>
			</trkpt>
			<trkpt lat="48.05191" lon="15.57001">
				<ele>383.88</ele>
				<time>2025-07-28T21:29:53.111Z</time>
			</trkpt>
			<trkpt lat="48.05118" lon="15.56914">
				<ele>385.01</ele>
				<time>2025-07-28T21:30:00.331Z</time>
			</trkpt>
			<trkpt lat="48.05089" lon="15.56874">
				<ele>385.12</ele>
				<time>2025-07-28T21:30:03.467Z</time>
			</trkpt>
			<trkpt lat="48.0506" lon="15.56841">
				<ele>385.25</ele>
				<time>2025-07-28T21:30:06.412Z</time>
			</trkpt>
			<trkpt lat="48.05013" lon="15.56802">
				<ele>385.86</ele>
				<time>2025-07-28T21:30:10.843Z</time>
			</trkpt>
			<trkpt lat="48.0496" lon="15.56785">
				<ele>389.4</ele>
				<time>2025-07-28T21:30:15.424Z</time>
			</trkpt>
			<trkpt lat="48.04908" lon="15.56768">
				<ele>391.81</ele>
				<time>2025-07-28T21:30:20.038Z</time>
			</trkpt>
			<trkpt lat="48.04877" lon="15.56755">
				<ele>393.99</ele>
				<time>2025-07-28T21:30:22.886Z</time>
			</trkpt>
			<trkpt lat="48.04845" lon="15.56791">
				<ele>397.85</ele>
				<time>2025-07-28T21:30:26.492Z</time>
			</trkpt>
			<trkpt lat="48.0481" lon="15.56846">
				<ele>400.29</ele>
				<time>2025-07-28T21:30:31.195Z</time>
			</trkpt>
			<trkpt lat="48.04772" lon="15.56898">
				<ele>407.73</ele>
				<time>2025-07-28T21:30:36.154Z</time>
			</trkpt>
			<trkpt lat="48.04741" lon="15.5693">
				<ele>410.48</ele>
				<time>2025-07-28T21:30:39.899Z</time>
			</trkpt>
			<trkpt lat="48.04714" lon="15.56952">
				<ele>413.04</ele>
				<time>2025-07-28T21:30:43.027Z</time>
			</trkpt>
			<trkpt lat="48.04689" lon="15.56976">
				<ele>417.88</ele>
				<time>2025-07-28T21:30:46.110Z</time>
			</trkpt>
			<trkpt lat="48.04679" lon="15.56992">
				<ele>419.75</ele>
				<time>2025-07-28T21:30:47.651Z</time>
			</trkpt>
			<trkpt lat="48.04659" lon="15.57044">
				<ele>424.7</ele>
				<time>2025-07-28T21:30:51.942Z</time>
			</trkpt>
			<trkpt lat="48.04644" lon="15.57075">
				<ele>429.5</ele>
				<time>2025-07-28T21:30:54.733Z</time>
			</trkpt>
			<trkpt lat="48.04636" lon="15.57088">
				<ele>431.26</ele>
				<time>2025-07-28T21:30:56.035Z</time>
			</trkpt>
			<trkpt lat="48.04576" lon="15.57164">
				<ele>441.49</ele>
				<time>2025-07-28T21:31:04.921Z</time>
			</trkpt>
			<trkpt lat="48.04552" lon="15.57191">
				<ele>445.64</ele>
				<time>2025-07-28T21:31:08.411Z</time>
			</trkpt>
			<trkpt lat="48.04524" lon="15.57215">
				<ele>449.12</ele>
				<time>2025-07-28T21:31:12.219Z</time>
			</trkpt>
			<trkpt lat="48.04482" lon="15.5725">
				<ele>455</ele>
				<time>2025-07-28T21:31:18.001Z</time>
			</trkpt>
			<trkpt lat="48.04443" lon="15.57278">
				<ele>462.17</ele>
				<time>2025-07-28T21:31:23.309Z</time>
			</trkpt>
			<trkpt lat="48.04428" lon="15.57291">
				<ele>465.33</ele>
				<time>2025-07-28T21:31:25.464Z</time>
			</trkpt>
			<trkpt lat="48.04422" lon="15.57309">
				<ele>466.83</ele>
				<time>2025-07-28T21:31:27.146Z</time>
			</trkpt>
			<trkpt lat="48.04422" lon="15.57322">
				<ele>467.43</ele>
				<time>2025-07-28T21:31:28.238Z</time>
			</trkpt>
			<trkpt lat="48.04428" lon="15.57463">
				<ele>471.31</ele>
				<time>2025-07-28T21:31:40.347Z</time>
			</trkpt>
			<trkpt lat="48.0443" lon="15.57613">
				<ele>478.97</ele>
				<time>2025-07-28T21:31:53.658Z</time>
			</trkpt>
			<trkpt lat="48.04428" lon="15.57639">
				<ele>479.94</ele>
				<time>2025-07-28T21:31:56.025Z</time>
			</trkpt>
			<trkpt lat="48.04415" lon="15.57689">
				<ele>482.32</ele>
				<time>2025-07-28T21:32:00.917Z</time>
			</trkpt>
			<trkpt lat="48.04379" lon="15.57792">
				<ele>489.82</ele>
				<time>2025-07-28T21:32:11.688Z</time>
			</trkpt>
			<trkpt lat="48.04367" lon="15.57833">
				<ele>492.04</ele>
				<time>2025-07-28T21:32:15.896Z</time>
			</trkpt>
			<trkpt lat="48.04332" lon="15.5803">
				<ele>504.1</ele>
				<time>2025-07-28T21:32:35.447Z</time>
			</trkpt>
			<trkpt lat="48.04278" lon="15.58308">
				<ele>515.18</ele>
				<time>2025-07-28T21:33:04.143Z</time>
			</trkpt>
			<trkpt lat="48.04271" lon="15.5836">
				<ele>517.22</ele>
				<time>2025-07-28T21:33:09.499Z</time>
			</trkpt>
			<trkpt lat="48.04271" lon="15.58397">
				<ele>518.09</ele>
				<time>2025-07-28T21:33:13.250Z</time>
			</trkpt>
			<trkpt lat="48.04278" lon="15.58444">
				<ele>518.96</ele>
				<time>2025-07-28T21:33:18.149Z</time>
			</trkpt>
			<trkpt lat="48.043" lon="15.5853">
				<ele>517.92</ele>
				<time>2025-07-28T21:33:27.567Z</time>
			</trkpt>
			<trkpt lat="48.04316" lon="15.58588">
				<ele>518.26</ele>
				<time>2025-07-28T21:33:34.019Z</time>
			</trkpt>
			<trkpt lat="48.04321" lon="15.58616">
				<ele>518.45</ele>
				<time>2025-07-28T21:33:37.007Z</time>
			</trkpt>
			<trkpt lat="48.04329" lon="15.58685">
				<ele>517.9</ele>
				<time>2025-07-28T21:33:44.247Z</time>
			</trkpt>
			<trkpt lat="48.04331" lon="15.58715">
				<ele>516.32</ele>
				<time>2025-07-28T21:33:47.372Z</time>
			</trkpt>
			<trkpt lat="48.04336" lon="15.58875">
				<ele>510.62</ele>
				<time>2025-07-28T21:34:04.032Z</time>
			</trkpt>
			<trkpt lat="48.04334" lon="15.59061">
				<ele>502.87</ele>
				<time>2025-07-28T21:34:23.456Z</time>
			</trkpt>
			<trkpt lat="48.0433" lon="15.59135">
				<ele>498.18</ele>
				<time>2025-07-28T21:34:31.215Z</time>
			</trkpt>
			<trkpt lat="48.04326" lon="15.59171">
				<ele>496.5</ele>
				<time>2025-07-28T21:34:35.027Z</time>
			</trkpt>
			<trkpt lat="48.04319" lon="15.59212">
				<ele>494.64</ele>
				<time>2025-07-28T21:34:39.445Z</time>
			</trkpt>
			<trkpt lat="48.04289" lon="15.59296">
				<ele>490.95</ele>
				<time>2025-07-28T21:34:49.376Z</time>
			</trkpt>
			<trkpt lat="48.04268" lon="15.59365">
				<ele>483.71</ele>
				<time>2025-07-28T21:34:57.263Z</time>
			</trkpt>
			<trkpt lat="48.04269" lon="15.59394">
				<ele>482.3</ele>
				<time>2025-07-28T21:35:00.279Z</time>
			</trkpt>
			<trkpt lat="48.04276" lon="15.59416">
				<ele>482.83</ele>
				<time>2025-07-28T21:35:02.806Z</time>
			</trkpt>
			<trkpt lat="48.0429" lon="15.59431">
				<ele>482.84</ele>
				<time>2025-07-28T21:35:05.475Z</time>
			</trkpt>
			<trkpt lat="48.043" lon="15.59452">
				<ele>481.75</ele>
				<time>2025-07-28T21:35:08.143Z</time>
			</trkpt>
			<trkpt lat="48.04308" lon="15.59479">
				<ele>478.86</ele>
				<time>2025-07-28T21:35:11.194Z</time>
			</trkpt>
			<trkpt lat="48.04312" lon="15.595">
				<ele>475.69</ele>
				<time>2025-07-28T21:35:13.448Z</time>
			</trkpt>
			<trkpt lat="48.04309" lon="15.59525">
				<ele>471.68</ele>
				<time>2025-07-28T21:35:16.065Z</time>
			</trkpt>
			<trkpt lat="48.04298" lon="15.59585">
				<ele>466.43</ele>
				<time>2025-07-28T21:35:22.460Z</time>
			</trkpt>
			<trkpt lat="48.04294" lon="15.59623">
				<ele>463.33</ele>
				<time>2025-07-28T21:35:26.400Z</time>
			</trkpt>
			<trkpt lat="48.04293" lon="15.59659">
				<ele>459.44</ele>
				<time>2025-07-28T21:35:30.081Z</time>
			</trkpt>
			<trkpt lat="48.04303" lon="15.5974">
				<ele>449.61</ele>
				<time>2025-07-28T21:35:38.457Z</time>
			</trkpt>
			<trkpt lat="48.04333" lon="15.59907">
				<ele>432.03</ele>
				<time>2025-07-28T21:35:55.835Z</time>
			</trkpt>
			<trkpt lat="48.04333" lon="15.59924">
				<ele>430.6</ele>
				<time>2025-07-28T21:35:57.527Z</time>
			</trkpt>
			<trkpt lat="48.04331" lon="15.59955">
				<ele>429.11</ele>
				<time>2025-07-28T21:36:00.617Z</time>
			</trkpt>
			<trkpt lat="48.04317" lon="15.60077">
				<ele>422.92</ele>
				<time>2025-07-28T21:36:12.785Z</time>
			</trkpt>
			<trkpt lat="48.04312" lon="15.60104">
				<ele>422.04</ele>
				<time>2025-07-28T21:36:15.512Z</time>
			</trkpt>
			<trkpt lat="48.04296" lon="15.60158">
				<ele>417.79</ele>
				<time>2025-07-28T21:36:21.226Z</time>
			</trkpt>
			<trkpt lat="48.04262" lon="15.60251">
				<ele>410.9</ele>
				<time>2025-07-28T21:36:31.352Z</time>
			</trkpt>
			<trkpt lat="48.04251" lon="15.60266">
				<ele>410.63</ele>
				<time>2025-07-28T21:36:33.457Z</time>
			</trkpt>
			<trkpt lat="48.0424" lon="15.60272">
				<ele>410.4</ele>
				<time>2025-07-28T21:36:35.108Z</time>
			</trkpt>
			<trkpt lat="48.04206" lon="15.60266">
				<ele>408.06</ele>
				<time>2025-07-28T21:36:39.905Z</time>
			</trkpt>
			<trkpt lat="48.04192" lon="15.60266">
				<ele>406.88</ele>
				<time>2025-07-28T21:36:41.854Z</time>
			</trkpt>
			<trkpt lat="48.04176" lon="15.60271">
				<ele>404.36</ele>
				<time>2025-07-28T21:36:44.120Z</time>
			</trkpt>
			<trkpt lat="48.04154" lon="15.60288">
				<ele>399.61</ele>
				<time>2025-07-28T21:36:47.533Z</time>
			</trkpt>
			<trkpt lat="48.04145" lon="15.60299">
				<ele>397.14</ele>
				<time>2025-07-28T21:36:49.127Z</time>
			</trkpt>
			<trkpt lat="48.04138" lon="15.60311">
				<ele>394.92</ele>
				<time>2025-07-28T21:36:50.582Z</time>
			</trkpt>
			<trkpt lat="48.0412" lon="15.60363">
				<ele>390.63</ele>
				<time>2025-07-28T21:36:55.893Z</time>
			</trkpt>
			<trkpt lat="48.04104" lon="15.60425">
				<ele>384.25</ele>
				<time>2025-07-28T21:37:01.842Z</time>
			</trkpt>
			<trkpt lat="48.0409" lon="15.60487">
				<ele>376.17</ele>
				<time>2025-07-28T21:37:07.614Z</time>
			</trkpt>
			<trkpt lat="48.04079" lon="15.60547">
				<ele>367.6</ele>
				<time>2025-07-28T21:37:13.020Z</time>
			</trkpt>
			<trkpt lat="48.04076" lon="15.60642">
				<ele>360.5</ele>
				<time>2025-07-28T21:37:21.124Z</time>
			</trkpt>
			<trkpt lat="48.04063" lon="15.60709">
				<ele>358.21</ele>
				<time>2025-07-28T21:37:26.939Z</time>
			</trkpt>
			<trkpt lat="48.0406" lon="15.60716">
				<ele>358.5</ele>
				<time>2025-07-28T21:37:27.624Z</time>
			</trkpt>
			<trkpt lat="48.04059" lon="15.60719">
				<ele>358.65</ele>
				<time>2025-07-28T21:37:27.900Z</time>
			</trkpt>
			<trkpt lat="48.04047" lon="15.60922">
				<ele>353.74</ele>
				<time>2025-07-28T21:37:44.160Z</time>
			</trkpt>
			<trkpt lat="48.04007" lon="15.6091">
				<ele>353.5</ele>
				<time>2025-07-28T21:37:48.822Z</time>
			</trkpt>
			<trkpt lat="48.03925" lon="15.609">
				<ele>353.57</ele>
				<time>2025-07-28T21:37:57.903Z</time>
			</trkpt>
			<trkpt lat="48.03858" lon="15.60883">
				<ele>352.8</ele>
				<time>2025-07-28T21:38:05.066Z</time>
			</trkpt>
			<trkpt lat="48.03819" lon="15.60867">
				<ele>352.6</ele>
				<time>2025-07-28T21:38:09.190Z</time>
			</trkpt>
			<trkpt lat="48.0379" lon="15.60852">
				<ele>354.63</ele>
				<time>2025-07-28T21:38:12.252Z</time>
			</trkpt>
			<trkpt lat="48.03743" lon="15.60821">
				<ele>354.51</ele>
				<time>2025-07-28T21:38:17.254Z</time>
			</trkpt>
			<trkpt lat="48.03704" lon="15.60789">
				<ele>354.77</ele>
				<time>2025-07-28T21:38:21.463Z</time>
			</trkpt>
			<trkpt lat="48.03521" lon="15.60602">
				<ele>354.17</ele>
				<time>2025-07-28T21:38:40.907Z</time>
			</trkpt>
			<trkpt lat="48.03501" lon="15.60577">
				<ele>355.69</ele>
				<time>2025-07-28T21:38:43.042Z</time>
			</trkpt>
			<trkpt lat="48.03489" lon="15.60558">
				<ele>357.01</ele>
				<time>2025-07-28T21:38:44.457Z</time>
			</trkpt>
			<trkpt lat="48.03476" lon="15.60533">
				<ele>358.87</ele>
				<time>2025-07-28T21:38:46.154Z</time>
			</trkpt>
			<trkpt lat="48.03464" lon="15.60508">
				<ele>360.79</ele>
				<time>2025-07-28T21:38:47.786Z</time>
			</trkpt>
			<trkpt lat="48.03378" lon="15.6028">
				<ele>359.98</ele>
				<time>2025-07-28T21:39:01.031Z</time>
			</trkpt>
			<trkpt lat="48.0333" lon="15.60158">
				<ele>368.17</ele>
				<time>2025-07-28T21:39:07.778Z</time>
			</trkpt>
			<trkpt lat="48.03295" lon="15.60079">
				<ele>366.74</ele>
				<time>2025-07-28T21:39:12.160Z</time>
			</trkpt>
			<trkpt lat="48.03264" lon="15.60021">
				<ele>360.85</ele>
				<time>2025-07-28T21:39:15.527Z</time>
			</trkpt>
			<trkpt lat="48.03236" lon="15.59987">
				<ele>361.64</ele>
				<time>2025-07-28T21:39:17.940Z</time>
			</trkpt>
			<trkpt lat="48.0322" lon="15.59972">
				<ele>363.69</ele>
				<time>2025-07-28T21:39:19.193Z</time>
			</trkpt>
			<trkpt lat="48.03201" lon="15.59959">
				<ele>366.99</ele>
				<time>2025-07-28T21:39:20.572Z</time>
			</trkpt>
			<trkpt lat="48.03181" lon="15.59949">
				<ele>368.12</ele>
				<time>2025-07-28T21:39:21.956Z</time>
			</trkpt>
			<trkpt lat="48.03159" lon="15.59941">
				<ele>366.4</ele>
				<time>2025-07-28T21:39:23.435Z</time>
			</trkpt>
			<trkpt lat="48.03143" lon="15.59938">
				<ele>363.4</ele>
				<time>2025-07-28T21:39:24.483Z</time>
			</trkpt>
			<trkpt lat="48.03111" lon="15.59937">
				<ele>359.59</ele>
				<time>2025-07-28T21:39:26.552Z</time>
			</trkpt>
			<trkpt lat="48.03071" lon="15.59944">
				<ele>360.59</ele>
				<time>2025-07-28T21:39:29.137Z</time>
			</trkpt>
			<trkpt lat="48.02992" lon="15.5997">
				<ele>361.98</ele>
				<time>2025-07-28T21:39:34.280Z</time>
			</trkpt>
			<trkpt lat="48.02959" lon="15.59984">
				<ele>363.82</ele>
				<time>2025-07-28T21:39:36.446Z</time>
			</trkpt>
			<trkpt lat="48.02922" lon="15.60005">
				<ele>367.79</ele>
				<time>2025-07-28T21:39:38.938Z</time>
			</trkpt>
			<trkpt lat="48.02898" lon="15.60025">
				<ele>368.61</ele>
				<time>2025-07-28T21:39:40.665Z</time>
			</trkpt>
			<trkpt lat="48.02882" lon="15.60044">
				<ele>367.08</ele>
				<time>2025-07-28T21:39:41.948Z</time>
			</trkpt>
			<trkpt lat="48.0284" lon="15.60108">
				<ele>360.58</ele>
				<time>2025-07-28T21:39:45.713Z</time>
			</trkpt>
			<trkpt lat="48.02813" lon="15.60138">
				<ele>360.5</ele>
				<time>2025-07-28T21:39:47.827Z</time>
			</trkpt>
			<trkpt lat="48.02701" lon="15.60249">
				<ele>360.53</ele>
				<time>2025-07-28T21:39:56.335Z</time>
			</trkpt>
			<trkpt lat="48.02638" lon="15.60312">
				<ele>361.02</ele>
				<time>2025-07-28T21:40:01.208Z</time>
			</trkpt>
			<trkpt lat="48.02568" lon="15.6039">
				<ele>361.94</ele>
				<time>2025-07-28T21:40:06.923Z</time>
			</trkpt>
			<trkpt lat="48.02537" lon="15.60417">
				<ele>361.59</ele>
				<time>2025-07-28T21:40:09.309Z</time>
			</trkpt>
			<trkpt lat="48.02517" lon="15.60432">
				<ele>361.26</ele>
				<time>2025-07-28T21:40:10.811Z</time>
			</trkpt>
			<trkpt lat="48.02501" lon="15.60439">
				<ele>361.31</ele>
				<time>2025-07-28T21:40:11.937Z</time>
			</trkpt>
			<trkpt lat="48.02467" lon="15.60446">
				<ele>362.1</ele>
				<time>2025-07-28T21:40:14.274Z</time>
			</trkpt>
			<trkpt lat="48.02449" lon="15.60447">
				<ele>362.88</ele>
				<time>2025-07-28T21:40:15.511Z</time>
			</trkpt>
			<trkpt lat="48.02429" lon="15.60443">
				<ele>363</ele>
				<time>2025-07-28T21:40:16.907Z</time>
			</trkpt>
			<trkpt lat="48.02397" lon="15.60431">
				<ele>363</ele>
				<time>2025-07-28T21:40:19.211Z</time>
			</trkpt>
			<trkpt lat="48.02382" lon="15.60422">
				<ele>363.18</ele>
				<time>2025-07-28T21:40:20.351Z</time>
			</trkpt>
			<trkpt lat="48.02353" lon="15.60398">
				<ele>364.38</ele>
				<time>2025-07-28T21:40:22.711Z</time>
			</trkpt>
			<trkpt lat="48.02333" lon="15.60374">
				<ele>364.48</ele>
				<time>2025-07-28T21:40:24.560Z</time>
			</trkpt>
			<trkpt lat="48.02297" lon="15.60326">
				<ele>363.3</ele>
				<time>2025-07-28T21:40:28.092Z</time>
			</trkpt>
			<trkpt lat="48.02266" lon="15.60277">
				<ele>366.41</ele>
				<time>2025-07-28T21:40:31.465Z</time>
			</trkpt>
			<trkpt lat="48.0225" lon="15.60243">
				<ele>367.99</ele>
				<time>2025-07-28T21:40:33.580Z</time>
			</trkpt>
			<trkpt lat="48.02237" lon="15.60206">
				<ele>366.76</ele>
				<time>2025-07-28T21:40:35.735Z</time>
			</trkpt>
			<trkpt lat="48.02229" lon="15.6017">
				<ele>366.67</ele>
				<time>2025-07-28T21:40:37.716Z</time>
			</trkpt>
			<trkpt lat="48.02224" lon="15.60127">
				<ele>366.57</ele>
				<time>2025-07-28T21:40:40.027Z</time>
			</trkpt>
			<trkpt lat="48.02223" lon="15.60006">
				<ele>363.65</ele>
				<time>2025-07-28T21:40:46.620Z</time>
			</trkpt>
			<trkpt lat="48.02217" lon="15.59961">
				<ele>364.01</ele>
				<time>2025-07-28T21:40:49.196Z</time>
			</trkpt>
			<trkpt lat="48.02207" lon="15.59921">
				<ele>364.6</ele>
				<time>2025-07-28T21:40:51.632Z</time>
			</trkpt>
			<trkpt lat="48.02194" lon="15.59888">
				<ele>365.02</ele>
				<time>2025-07-28T21:40:53.849Z</time>
			</trkpt>
			<trkpt lat="48.02176" lon="15.59857">
				<ele>365.05</ele>
				<time>2025-07-28T21:40:56.262Z</time>
			</trkpt>
			<trkpt lat="48.02158" lon="15.59835">
				<ele>365.07</ele>
				<time>2025-07-28T21:40:58.335Z</time>
			</trkpt>
			<trkpt lat="48.02132" lon="15.59813">
				<ele>365.1</ele>
				<time>2025-07-28T21:41:01.039Z</time>
			</trkpt>
			<trkpt lat="48.02104" lon="15.59795">
				<ele>364.42</ele>
				<time>2025-07-28T21:41:03.847Z</time>
			</trkpt>
			<trkpt lat="48.02026" lon="15.59755">
				<ele>365.27</ele>
				<time>2025-07-28T21:41:11.699Z</time>
			</trkpt>
			<trkpt lat="48.01994" lon="15.59746">
				<ele>367.02</ele>
				<time>2025-07-28T21:41:14.908Z</time>
			</trkpt>
			<trkpt lat="48.01964" lon="15.59742">
				<ele>367.77</ele>
				<time>2025-07-28T21:41:17.933Z</time>
			</trkpt>
			<trkpt lat="48.01936" lon="15.59746">
				<ele>368.24</ele>
				<time>2025-07-28T21:41:20.807Z</time>
			</trkpt>
			<trkpt lat="48.0192" lon="15.59752">
				<ele>367.57</ele>
				<time>2025-07-28T21:41:22.517Z</time>
			</trkpt>
			<trkpt lat="48.01902" lon="15.59761">
				<ele>367.23</ele>
				<time>2025-07-28T21:41:24.505Z</time>
			</trkpt>
			<trkpt lat="48.01874" lon="15.5978">
				<ele>366.84</ele>
				<time>2025-07-28T21:41:27.775Z</time>
			</trkpt>
			<trkpt lat="48.01847" lon="15.59809">
				<ele>368.53</ele>
				<time>2025-07-28T21:41:31.381Z</time>
			</trkpt>
			<trkpt lat="48.01829" lon="15.59835">
				<ele>370.27</ele>
				<time>2025-07-28T21:41:34.145Z</time>
			</trkpt>
			<trkpt lat="48.01771" lon="15.59929">
				<ele>371.18</ele>
				<time>2025-07-28T21:41:43.923Z</time>
			</trkpt>
			<trkpt lat="48.01755" lon="15.5995">
				<ele>371.01</ele>
				<time>2025-07-28T21:41:46.438Z</time>
			</trkpt>
			<trkpt lat="48.01728" lon="15.59983">
				<ele>373.26</ele>
				<time>2025-07-28T21:41:50.632Z</time>
			</trkpt>
			<trkpt lat="48.01675" lon="15.60038">
				<ele>369.07</ele>
				<time>2025-07-28T21:41:58.635Z</time>
			</trkpt>
			<trkpt lat="48.01638" lon="15.60065">
				<ele>371.36</ele>
				<time>2025-07-28T21:42:03.913Z</time>
			</trkpt>
			<trkpt lat="48.01625" lon="15.60072">
				<ele>373.92</ele>
				<time>2025-07-28T21:42:05.715Z</time>
			</trkpt>
			<trkpt lat="48.01598" lon="15.60081">
				<ele>377.54</ele>
				<time>2025-07-28T21:42:09.370Z</time>
			</trkpt>
			<trkpt lat="48.01562" lon="15.60082">
				<ele>378.62</ele>
				<time>2025-07-28T21:42:14.222Z</time>
			</trkpt>
			<trkpt lat="48.0153" lon="15.60073">
				<ele>378</ele>
				<time>2025-07-28T21:42:18.705Z</time>
			</trkpt>
			<trkpt lat="48.01515" lon="15.60065">
				<ele>375.57</ele>
				<time>2025-07-28T21:42:20.931Z</time>
			</trkpt>
			<trkpt lat="48.01494" lon="15.60048">
				<ele>373.55</ele>
				<time>2025-07-28T21:42:24.310Z</time>
			</trkpt>
			<trkpt lat="48.01467" lon="15.60016">
				<ele>371.38</ele>
				<time>2025-07-28T21:42:29.275Z</time>
			</trkpt>
			<trkpt lat="48.0145" lon="15.59988">
				<ele>371.77</ele>
				<time>2025-07-28T21:42:32.987Z</time>
			</trkpt>
			<trkpt lat="48.01436" lon="15.59954">
				<ele>371.8</ele>
				<time>2025-07-28T21:42:36.971Z</time>
			</trkpt>
			<trkpt lat="48.01422" lon="15.59914">
				<ele>372</ele>
				<time>2025-07-28T21:42:41.555Z</time>
			</trkpt>
			<trkpt lat="48.01404" lon="15.59844">
				<ele>373</ele>
				<time>2025-07-28T21:42:49.360Z</time>
			</trkpt>
			<trkpt lat="48.01397" lon="15.59802">
				<ele>372.61</ele>
				<time>2025-07-28T21:42:53.975Z</time>
			</trkpt>
			<trkpt lat="48.01391" lon="15.59761">
				<ele>371.47</ele>
				<time>2025-07-28T21:42:58.529Z</time>
			</trkpt>
			<trkpt lat="48.01387" lon="15.59719">
				<ele>372.13</ele>
				<time>2025-07-28T21:43:03.211Z</time>
			</trkpt>
			<trkpt lat="48.01388" lon="15.59676">
				<ele>373.02</ele>
				<time>2025-07-28T21:43:08.043Z</time>
			</trkpt>
			<trkpt lat="48.0139" lon="15.59657">
				<ele>372.94</ele>
				<time>2025-07-28T21:43:10.230Z</time>
			</trkpt>
			<trkpt lat="48.01401" lon="15.59581">
				<ele>372.46</ele>
				<time>2025-07-28T21:43:19.248Z</time>
			</trkpt>
			<trkpt lat="48.01375" lon="15.59579">
				<ele>373.85</ele>
				<time>2025-07-28T21:43:23.868Z</time>
			</trkpt>
			<trkpt lat="48.01363" lon="15.59585">
				<ele>374.74</ele>
				<time>2025-07-28T21:43:26.139Z</time>
			</trkpt>
			<trkpt lat="48.01343" lon="15.59606">
				<ele>375.46</ele>
				<time>2025-07-28T21:43:30.575Z</time>
			</trkpt>
			<trkpt lat="48.01333" lon="15.59608">
				<ele>376.07</ele>
				<time>2025-07-28T21:43:32.644Z</time>
			</trkpt>
			<trkpt lat="48.01317" lon="15.59608">
				<ele>378.4</ele>
				<time>2025-07-28T21:43:37.016Z</time>
			</trkpt>
			<trkpt lat="48.01313" lon="15.59609">
				<ele>378.91</ele>
				<time>2025-07-28T21:43:38.310Z</time>
			</trkpt>
			<trkpt lat="48.01311" lon="15.59612">
				<ele>379.25</ele>
				<time>2025-07-28T21:43:39.254Z</time>
			</trkpt>
			<trkpt lat="48.01309" lon="15.5962">
				<ele>379.75</ele>
				<time>2025-07-28T21:43:41.250Z</time>
			</trkpt>
			<trkpt lat="48.01307" lon="15.59688">
				<ele>379.93</ele>
				<time>2025-07-28T21:44:00.127Z</time>
			</trkpt>
			<trkpt lat="48.01304" lon="15.59696">
				<ele>380.17</ele>
				<time>2025-07-28T21:44:02.866Z</time>
			</trkpt>
			<trkpt lat="48.01299" lon="15.597">
				<ele>380.64</ele>
				<time>2025-07-28T21:44:05.397Z</time>
			</trkpt>
			<trkpt lat="48.01303" lon="15.59754">
				<ele>384.84</ele>
				<time>2025-07-28T21:44:20.724Z</time>
			</trkpt>
			<trkpt lat="48.01299" lon="15.597">
				<ele>380.64</ele>
				<time>2025-07-28T21:44:32.191Z</time>
			</trkpt>
			<trkpt lat="48.01304" lon="15.59696">
				<ele>380.17</ele>
				<time>2025-07-28T21:44:33.519Z</time>
			</trkpt>
			<trkpt lat="48.01307" lon="15.59688">
				<ele>379.93</ele>
				<time>2025-07-28T21:44:34.883Z</time>
			</trkpt>
			<trkpt lat="48.01309" lon="15.5962">
				<ele>379.75</ele>
				<time>2025-07-28T21:44:45.303Z</time>
			</trkpt>
			<trkpt lat="48.01311" lon="15.59612">
				<ele>379.25</ele>
				<time>2025-07-28T21:44:46.545Z</time>
			</trkpt>
			<trkpt lat="48.01313" lon="15.59609">
				<ele>378.91</ele>
				<time>2025-07-28T21:44:47.135Z</time>
			</trkpt>
			<trkpt lat="48.01317" lon="15.59608">
				<ele>378.4</ele>
				<time>2025-07-28T21:44:47.956Z</time>
			</trkpt>
			<trkpt lat="48.01333" lon="15.59608">
				<ele>376.07</ele>
				<time>2025-07-28T21:44:51.014Z</time>
			</trkpt>
			<trkpt lat="48.01343" lon="15.59606">
				<ele>375.46</ele>
				<time>2025-07-28T21:44:52.840Z</time>
			</trkpt>
			<trkpt lat="48.01363" lon="15.59585">
				<ele>374.74</ele>
				<time>2025-07-28T21:44:57.180Z</time>
			</trkpt>
			<trkpt lat="48.01375" lon="15.59579">
				<ele>373.85</ele>
				<time>2025-07-28T21:44:59.508Z</time>
			</trkpt>
			<trkpt lat="48.01401" lon="15.59581">
				<ele>372.46</ele>
				<time>2025-07-28T21:45:04.584Z</time>
			</trkpt>
			<trkpt lat="48.01419" lon="15.59484">
				<ele>369.21</ele>
				<time>2025-07-28T21:45:16.606Z</time>
			</trkpt>
			<trkpt lat="48.01425" lon="15.59447">
				<ele>369.33</ele>
				<time>2025-07-28T21:45:20.195Z</time>
			</trkpt>
			<trkpt lat="48.01428" lon="15.59418">
				<ele>369.43</ele>
				<time>2025-07-28T21:45:22.934Z</time>
			</trkpt>
			<trkpt lat="48.01432" lon="15.59352">
				<ele>370.89</ele>
				<time>2025-07-28T21:45:29.028Z</time>
			</trkpt>
			<trkpt lat="48.01433" lon="15.5928">
				<ele>371.46</ele>
				<time>2025-07-28T21:45:35.514Z</time>
			</trkpt>
			<trkpt lat="48.01427" lon="15.59222">
				<ele>371.39</ele>
				<time>2025-07-28T21:45:40.697Z</time>
			</trkpt>
			<trkpt lat="48.01422" lon="15.59192">
				<ele>371.42</ele>
				<time>2025-07-28T21:45:43.391Z</time>
			</trkpt>
			<trkpt lat="48.01408" lon="15.59149">
				<ele>372</ele>
				<time>2025-07-28T21:45:47.510Z</time>
			</trkpt>
			<trkpt lat="48.01392" lon="15.59111">
				<ele>372</ele>
				<time>2025-07-28T21:45:51.324Z</time>
			</trkpt>
			<trkpt lat="48.01372" lon="15.59075">
				<ele>373</ele>
				<time>2025-07-28T21:45:55.247Z</time>
			</trkpt>
			<trkpt lat="48.01348" lon="15.59041">
				<ele>372.57</ele>
				<time>2025-07-28T21:45:59.332Z</time>
			</trkpt>
			<trkpt lat="48.0121" lon="15.58876">
				<ele>376.19</ele>
				<time>2025-07-28T21:46:20.215Z</time>
			</trkpt>
			<trkpt lat="48.01191" lon="15.58849">
				<ele>376.94</ele>
				<time>2025-07-28T21:46:23.185Z</time>
			</trkpt>
			<trkpt lat="48.01138" lon="15.58771">
				<ele>385.36</ele>
				<time>2025-07-28T21:46:31.441Z</time>
			</trkpt>
			<trkpt lat="48.01096" lon="15.58692">
				<ele>395.06</ele>
				<time>2025-07-28T21:46:38.730Z</time>
			</trkpt>
			<trkpt lat="48.01075" lon="15.58648">
				<ele>398.09</ele>
				<time>2025-07-28T21:46:42.558Z</time>
			</trkpt>
			<trkpt lat="48.01043" lon="15.58568">
				<ele>393.76</ele>
				<time>2025-07-28T21:46:49.040Z</time>
			</trkpt>
			<trkpt lat="48.01031" lon="15.58529">
				<ele>386.27</ele>
				<time>2025-07-28T21:46:51.977Z</time>
			</trkpt>
			<trkpt lat="48.01019" lon="15.5848">
				<ele>384.85</ele>
				<time>2025-07-28T21:46:55.507Z</time>
			</trkpt>
			<trkpt lat="48.01014" lon="15.58435">
				<ele>385.28</ele>
				<time>2025-07-28T21:46:58.559Z</time>
			</trkpt>
			<trkpt lat="48.01014" lon="15.58404">
				<ele>383.23</ele>
				<time>2025-07-28T21:47:00.615Z</time>
			</trkpt>
			<trkpt lat="48.01017" lon="15.58362">
				<ele>380.01</ele>
				<time>2025-07-28T21:47:03.394Z</time>
			</trkpt>
			<trkpt lat="48.01033" lon="15.58278">
				<ele>378.63</ele>
				<time>2025-07-28T21:47:09.062Z</time>
			</trkpt>
			<trkpt lat="48.01048" lon="15.582">
				<ele>378.65</ele>
				<time>2025-07-28T21:47:14.239Z</time>
			</trkpt>
			<trkpt lat="48.01051" lon="15.58174">
				<ele>377.54</ele>
				<time>2025-07-28T21:47:15.904Z</time>
			</trkpt>
			<trkpt lat="48.01052" lon="15.58148">
				<ele>376.72</ele>
				<time>2025-07-28T21:47:17.540Z</time>
			</trkpt>
			<trkpt lat="48.01048" lon="15.581">
				<ele>377.34</ele>
				<time>2025-07-28T21:47:20.557Z</time>
			</trkpt>
			<trkpt lat="48.01044" lon="15.58069">
				<ele>378.07</ele>
				<time>2025-07-28T21:47:22.513Z</time>
			</trkpt>
			<trkpt lat="48.0104" lon="15.58045">
				<ele>378.54</ele>
				<time>2025-07-28T21:47:24.037Z</time>
			</trkpt>
			<trkpt lat="48.01032" lon="15.58017">
				<ele>378.82</ele>
				<time>2025-07-28T21:47:25.904Z</time>
			</trkpt>
			<trkpt lat="48.0101" lon="15.57961">
				<ele>381.2</ele>
				<time>2025-07-28T21:47:29.857Z</time>
			</trkpt>
			<trkpt lat="48.00998" lon="15.57936">
				<ele>382.76</ele>
				<time>2025-07-28T21:47:31.715Z</time>
			</trkpt>
			<trkpt lat="48.0097" lon="15.57899">
				<ele>382.65</ele>
				<time>2025-07-28T21:47:35.067Z</time>
			</trkpt>
			<trkpt lat="48.00922" lon="15.57848">
				<ele>379.56</ele>
				<time>2025-07-28T21:47:40.297Z</time>
			</trkpt>
			<trkpt lat="48.0082" lon="15.57756">
				<ele>379.13</ele>
				<time>2025-07-28T21:47:50.705Z</time>
			</trkpt>
			<trkpt lat="48.00779" lon="15.5772">
				<ele>378.84</ele>
				<time>2025-07-28T21:47:54.806Z</time>
			</trkpt>
			<trkpt lat="48.00744" lon="15.57696">
				<ele>380.37</ele>
				<time>2025-07-28T21:47:58.110Z</time>
			</trkpt>
			<trkpt lat="48.00715" lon="15.57683">
				<ele>383.81</ele>
				<time>2025-07-28T21:48:00.697Z</time>
			</trkpt>
			<trkpt lat="48.00687" lon="15.57675">
				<ele>388.04</ele>
				<time>2025-07-28T21:48:03.127Z</time>
			</trkpt>
			<trkpt lat="48.00539" lon="15.57648">
				<ele>388.84</ele>
				<time>2025-07-28T21:48:15.758Z</time>
			</trkpt>
			<trkpt lat="48.00488" lon="15.57635">
				<ele>384.89</ele>
				<time>2025-07-28T21:48:20.127Z</time>
			</trkpt>
			<trkpt lat="48.00429" lon="15.57616">
				<ele>379.82</ele>
				<time>2025-07-28T21:48:25.224Z</time>
			</trkpt>
			<trkpt lat="48.00394" lon="15.57602">
				<ele>379.72</ele>
				<time>2025-07-28T21:48:28.287Z</time>
			</trkpt>
			<trkpt lat="48.00332" lon="15.57571">
				<ele>380.61</ele>
				<time>2025-07-28T21:48:33.829Z</time>
			</trkpt>
			<trkpt lat="48.00268" lon="15.57533">
				<ele>382.6</ele>
				<time>2025-07-28T21:48:39.695Z</time>
			</trkpt>
			<trkpt lat="48.00232" lon="15.57509">
				<ele>382.21</ele>
				<time>2025-07-28T21:48:43.070Z</time>
			</trkpt>
			<trkpt lat="48.00173" lon="15.57461">
				<ele>383.48</ele>
				<time>2025-07-28T21:48:48.860Z</time>
			</trkpt>
			<trkpt lat="48.00131" lon="15.57423">
				<ele>384.07</ele>
				<time>2025-07-28T21:48:53.128Z</time>
			</trkpt>
			<trkpt lat="48.00079" lon="15.57368">
				<ele>385.49</ele>
				<time>2025-07-28T21:48:58.717Z</time>
			</trkpt>
			<trkpt lat="48.0002" lon="15.57297">
				<ele>384</ele>
				<time>2025-07-28T21:49:05.452Z</time>
			</trkpt>
			<trkpt lat="47.99968" lon="15.57237">
				<ele>383.68</ele>
				<time>2025-07-28T21:49:11.383Z</time>
			</trkpt>
			<trkpt lat="47.99897" lon="15.57163">
				<ele>384</ele>
				<time>2025-07-28T21:49:19.345Z</time>
			</trkpt>
			<trkpt lat="47.9986" lon="15.57131">
				<ele>383.67</ele>
				<time>2025-07-28T21:49:23.345Z</time>
			</trkpt>
			<trkpt lat="47.99803" lon="15.5709">
				<ele>383.83</ele>
				<time>2025-07-28T21:49:29.354Z</time>
			</trkpt>
			<trkpt lat="47.99777" lon="15.57076">
				<ele>385.01</ele>
				<time>2025-07-28T21:49:32.015Z</time>
			</trkpt>
			<trkpt lat="47.99748" lon="15.57069">
				<ele>385.44</ele>
				<time>2025-07-28T21:49:34.869Z</time>
			</trkpt>
			<trkpt lat="47.99713" lon="15.57065">
				<ele>384.07</ele>
				<time>2025-07-28T21:49:38.315Z</time>
			</trkpt>
			<trkpt lat="47.99713" lon="15.57054">
				<ele>383.65</ele>
				<time>2025-07-28T21:49:39.042Z</time>
			</trkpt>
			<trkpt lat="47.99715" lon="15.57043">
				<ele>383.42</ele>
				<time>2025-07-28T21:49:39.798Z</time>
			</trkpt>
			<trkpt lat="47.9972" lon="15.57035">
				<ele>383.25</ele>
				<time>2025-07-28T21:49:40.526Z</time>
			</trkpt>
			<trkpt lat="47.99732" lon="15.57019">
				<ele>383.24</ele>
				<time>2025-07-28T21:49:42.129Z</time>
			</trkpt>
			<trkpt lat="47.9985" lon="15.56881">
				<ele>384.11</ele>
				<time>2025-07-28T21:49:57.381Z</time>
			</trkpt>
			<trkpt lat="47.99842" lon="15.56828">
				<ele>384.17</ele>
				<time>2025-07-28T21:50:01.114Z</time>
			</trkpt>
			<trkpt lat="47.99841" lon="15.56812">
				<ele>384.73</ele>
				<time>2025-07-28T21:50:02.216Z</time>
			</trkpt>
			<trkpt lat="47.99949" lon="15.5679">
				<ele>385.09</ele>
				<time>2025-07-28T21:50:12.516Z</time>
			</trkpt>
			<trkpt lat="48.00047" lon="15.56759">
				<ele>389.21</ele>
				<time>2025-07-28T21:50:20.525Z</time>
			</trkpt>
			<trkpt lat="48.00063" lon="15.56732">
				<ele>390.83</ele>
				<time>2025-07-28T21:50:22.433Z</time>
			</trkpt>
			<trkpt lat="48.00075" lon="15.56699">
				<ele>394.49</ele>
				<time>2025-07-28T21:50:24.412Z</time>
			</trkpt>
			<trkpt lat="48.00082" lon="15.56673">
				<ele>398.84</ele>
				<time>2025-07-28T21:50:25.882Z</time>
			</trkpt>
			<trkpt lat="48.00085" lon="15.56645">
				<ele>401.67</ele>
				<time>2025-07-28T21:50:27.365Z</time>
			</trkpt>
			<trkpt lat="48.00084" lon="15.56618">
				<ele>403.56</ele>
				<time>2025-07-28T21:50:28.774Z</time>
			</trkpt>
			<trkpt lat="48.00062" lon="15.56513">
				<ele>405.1</ele>
				<time>2025-07-28T21:50:34.461Z</time>
			</trkpt>
			<trkpt lat="48.00055" lon="15.56467">
				<ele>407.72</ele>
				<time>2025-07-28T21:50:36.877Z</time>
			</trkpt>
			<trkpt lat="48.00049" lon="15.56398">
				<ele>414.46</ele>
				<time>2025-07-28T21:50:40.415Z</time>
			</trkpt>
			<trkpt lat="48.00045" lon="15.56288">
				<ele>420.89</ele>
				<time>2025-07-28T21:50:45.957Z</time>
			</trkpt>
			<trkpt lat="48.00054" lon="15.56162">
				<ele>423.85</ele>
				<time>2025-07-28T21:50:52.243Z</time>
			</trkpt>
			<trkpt lat="48.00069" lon="15.56059">
				<ele>426.49</ele>
				<time>2025-07-28T21:50:57.402Z</time>
			</trkpt>
			<trkpt lat="48.00099" lon="15.55903">
				<ele>438.23</ele>
				<time>2025-07-28T21:51:05.221Z</time>
			</trkpt>
			<trkpt lat="48.00102" lon="15.55888">
				<ele>439.62</ele>
				<time>2025-07-28T21:51:05.967Z</time>
			</trkpt>
			<trkpt lat="48.00114" lon="15.55856">
				<ele>444.54</ele>
				<time>2025-07-28T21:51:07.711Z</time>
			</trkpt>
			<trkpt lat="48.00209" lon="15.55661">
				<ele>449.86</ele>
				<time>2025-07-28T21:51:18.993Z</time>
			</trkpt>
			<trkpt lat="48.00251" lon="15.55506">
				<ele>463.58</ele>
				<time>2025-07-28T21:51:26.634Z</time>
			</trkpt>
			<trkpt lat="48.00301" lon="15.55427">
				<ele>463.92</ele>
				<time>2025-07-28T21:51:31.525Z</time>
			</trkpt>
			<trkpt lat="48.0031" lon="15.55409">
				<ele>466.33</ele>
				<time>2025-07-28T21:51:32.529Z</time>
			</trkpt>
			<trkpt lat="48.00338" lon="15.55392">
				<ele>470.7</ele>
				<time>2025-07-28T21:51:34.538Z</time>
			</trkpt>
			<trkpt lat="48.00354" lon="15.5536">
				<ele>473.05</ele>
				<time>2025-07-28T21:51:36.306Z</time>
			</trkpt>
			<trkpt lat="48.00382" lon="15.55287">
				<ele>484.53</ele>
				<time>2025-07-28T21:51:40.006Z</time>
			</trkpt>
			<trkpt lat="48.00421" lon="15.55259">
				<ele>480.96</ele>
				<time>2025-07-28T21:51:42.826Z</time>
			</trkpt>
			<trkpt lat="48.00448" lon="15.55235">
				<ele>482.2</ele>
				<time>2025-07-28T21:51:44.861Z</time>
			</trkpt>
			<trkpt lat="48.00469" lon="15.55225">
				<ele>485.62</ele>
				<time>2025-07-28T21:51:46.282Z</time>
			</trkpt>
			<trkpt lat="48.00519" lon="15.55216">
				<ele>486.75</ele>
				<time>2025-07-28T21:51:49.511Z</time>
			</trkpt>
			<trkpt lat="48.00632" lon="15.55208">
				<ele>506.55</ele>
				<time>2025-07-28T21:51:56.669Z</time>
			</trkpt>
			<trkpt lat="48.00796" lon="15.5516">
				<ele>515.62</ele>
				<time>2025-07-28T21:52:07.010Z</time>
			</trkpt>
			<trkpt lat="48.00829" lon="15.55162">
				<ele>517.69</ele>
				<time>2025-07-28T21:52:09.023Z</time>
			</trkpt>
			<trkpt lat="48.00859" lon="15.55155">
				<ele>518.41</ele>
				<time>2025-07-28T21:52:10.863Z</time>
			</trkpt>
			<trkpt lat="48.00889" lon="15.55132">
				<ele>520.36</ele>
				<time>2025-07-28T21:52:12.897Z</time>
			</trkpt>
			<trkpt lat="48.00915" lon="15.55125">
				<ele>526.28</ele>
				<time>2025-07-28T21:52:14.484Z</time>
			</trkpt>
			<trkpt lat="48.0093" lon="15.55128">
				<ele>527.73</ele>
				<time>2025-07-28T21:52:15.390Z</time>
			</trkpt>
			<trkpt lat="48.00945" lon="15.55134">
				<ele>529.16</ele>
				<time>2025-07-28T21:52:16.317Z</time>
			</trkpt>
			<trkpt lat="48.00973" lon="15.55155">
				<ele>528.48</ele>
				<time>2025-07-28T21:52:18.182Z</time>
			</trkpt>
			<trkpt lat="48.01001" lon="15.55166">
				<ele>531.22</ele>
				<time>2025-07-28T21:52:19.897Z</time>
			</trkpt>
			<trkpt lat="48.01041" lon="15.55168">
				<ele>537.99</ele>
				<time>2025-07-28T21:52:22.256Z</time>
			</trkpt>
			<trkpt lat="48.01094" lon="15.55181">
				<ele>541</ele>
				<time>2025-07-28T21:52:25.401Z</time>
			</trkpt>
			<trkpt lat="48.01125" lon="15.5518">
				<ele>540.74</ele>
				<time>2025-07-28T21:52:27.205Z</time>
			</trkpt>
			<trkpt lat="48.01149" lon="15.55174">
				<ele>540.83</ele>
				<time>2025-07-28T21:52:28.615Z</time>
			</trkpt>
			<trkpt lat="48.01168" lon="15.55163">
				<ele>541.03</ele>
				<time>2025-07-28T21:52:29.792Z</time>
			</trkpt>
			<trkpt lat="48.01187" lon="15.55144">
				<ele>541.44</ele>
				<time>2025-07-28T21:52:31.108Z</time>
			</trkpt>
			<trkpt lat="48.01205" lon="15.55121">
				<ele>542.21</ele>
				<time>2025-07-28T21:52:32.467Z</time>
			</trkpt>
			<trkpt lat="48.01232" lon="15.55076">
				<ele>541.49</ele>
				<time>2025-07-28T21:52:34.778Z</time>
			</trkpt>
			<trkpt lat="48.01263" lon="15.55031">
				<ele>541.95</ele>
				<time>2025-07-28T21:52:37.232Z</time>
			</trkpt>
			<trkpt lat="48.0128" lon="15.55019">
				<ele>544.18</ele>
				<time>2025-07-28T21:52:38.295Z</time>
			</trkpt>
			<trkpt lat="48.01297" lon="15.55016">
				<ele>545.99</ele>
				<time>2025-07-28T21:52:39.261Z</time>
			</trkpt>
			<trkpt lat="48.01309" lon="15.55019">
				<ele>547.11</ele>
				<time>2025-07-28T21:52:39.946Z</time>
			</trkpt>
			<trkpt lat="48.01356" lon="15.55037">
				<ele>552.98</ele>
				<time>2025-07-28T21:52:42.667Z</time>
			</trkpt>
			<trkpt lat="48.01386" lon="15.55037">
				<ele>555.47</ele>
				<time>2025-07-28T21:52:44.340Z</time>
			</trkpt>
			<trkpt lat="48.01407" lon="15.55029">
				<ele>553.89</ele>
				<time>2025-07-28T21:52:45.545Z</time>
			</trkpt>
			<trkpt lat="48.01466" lon="15.54991">
				<ele>561.95</ele>
				<time>2025-07-28T21:52:49.095Z</time>
			</trkpt>
			<trkpt lat="48.01486" lon="15.54981">
				<ele>566.13</ele>
				<time>2025-07-28T21:52:50.254Z</time>
			</trkpt>
			<trkpt lat="48.01521" lon="15.54978">
				<ele>570.65</ele>
				<time>2025-07-28T21:52:52.174Z</time>
			</trkpt>
			<trkpt lat="48.01564" lon="15.54983">
				<ele>577.41</ele>
				<time>2025-07-28T21:52:54.524Z</time>
			</trkpt>
			<trkpt lat="48.01623" lon="15.54972">
				<ele>579.57</ele>
				<time>2025-07-28T21:52:57.743Z</time>
			</trkpt>
			<trkpt lat="48.01655" lon="15.5497">
				<ele>583.19</ele>
				<time>2025-07-28T21:52:59.467Z</time>
			</trkpt>
			<trkpt lat="48.01674" lon="15.54973">
				<ele>585.92</ele>
				<time>2025-07-28T21:53:00.492Z</time>
			</trkpt>
			<trkpt lat="48.01734" lon="15.54992">
				<ele>596.07</ele>
				<time>2025-07-28T21:53:03.768Z</time>
			</trkpt>
			<trkpt lat="48.01756" lon="15.54994">
				<ele>597.85</ele>
				<time>2025-07-28T21:53:04.939Z</time>
			</trkpt>
			<trkpt lat="48.01769" lon="15.54988">
				<ele>597.68</ele>
				<time>2025-07-28T21:53:05.660Z</time>
			</trkpt>
			<trkpt lat="48.01779" lon="15.54979">
				<ele>597.56</ele>
				<time>2025-07-28T21:53:06.278Z</time>
			</trkpt>
			<trkpt lat="48.01789" lon="15.54963">
				<ele>599.53</ele>
				<time>2025-07-28T21:53:07.053Z</time>
			</trkpt>
			<trkpt lat="48.01795" lon="15.54944">
				<ele>602.63</ele>
				<time>2025-07-28T21:53:07.794Z</time>
			</trkpt>
			<trkpt lat="48.01797" lon="15.5492">
				<ele>607.39</ele>
				<time>2025-07-28T21:53:08.647Z</time>
			</trkpt>
			<trkpt lat="48.01795" lon="15.54894">
				<ele>612.02</ele>
				<time>2025-07-28T21:53:09.567Z</time>
			</trkpt>
			<trkpt lat="48.01787" lon="15.54867">
				<ele>614.04</ele>
				<time>2025-07-28T21:53:10.604Z</time>
			</trkpt>
			<trkpt lat="48.01758" lon="15.54796">
				<ele>614.13</ele>
				<time>2025-07-28T21:53:13.511Z</time>
			</trkpt>
			<trkpt lat="48.01749" lon="15.54751">
				<ele>616.39</ele>
				<time>2025-07-28T21:53:15.145Z</time>
			</trkpt>
			<trkpt lat="48.01744" lon="15.54707">
				<ele>622.96</ele>
				<time>2025-07-28T21:53:16.692Z</time>
			</trkpt>
			<trkpt lat="48.01735" lon="15.54648">
				<ele>631.73</ele>
				<time>2025-07-28T21:53:18.782Z</time>
			</trkpt>
			<trkpt lat="48.01716" lon="15.5458">
				<ele>632.9</ele>
				<time>2025-07-28T21:53:21.315Z</time>
			</trkpt>
			<trkpt lat="48.01702" lon="15.54506">
				<ele>644.03</ele>
				<time>2025-07-28T21:53:23.945Z</time>
			</trkpt>
			<trkpt lat="48.01686" lon="15.54453">
				<ele>646.55</ele>
				<time>2025-07-28T21:53:25.925Z</time>
			</trkpt>
			<trkpt lat="48.01649" lon="15.54383">
				<ele>643.04</ele>
				<time>2025-07-28T21:53:28.947Z</time>
			</trkpt>
			<trkpt lat="48.01628" lon="15.54308">
				<ele>649.36</ele>
				<time>2025-07-28T21:53:31.687Z</time>
			</trkpt>
			<trkpt lat="48.01593" lon="15.54229">
				<ele>654.37</ele>
				<time>2025-07-28T21:53:34.863Z</time>
			</trkpt>
			<trkpt lat="48.01564" lon="15.54168">
				<ele>663.03</ele>
				<time>2025-07-28T21:53:37.358Z</time>
			</trkpt>
			<trkpt lat="48.01522" lon="15.541">
				<ele>664.65</ele>
				<time>2025-07-28T21:53:40.430Z</time>
			</trkpt>
			<trkpt lat="48.01509" lon="15.54074">
				<ele>666.43</ele>
				<time>2025-07-28T21:53:41.503Z</time>
			</trkpt>
			<trkpt lat="48.01501" lon="15.54045">
				<ele>668.42</ele>
				<time>2025-07-28T21:53:42.539Z</time>
			</trkpt>
			<trkpt lat="48.01488" lon="15.53962">
				<ele>674.91</ele>
				<time>2025-07-28T21:53:45.345Z</time>
			</trkpt>
			<trkpt lat="48.01478" lon="15.53921">
				<ele>676.46</ele>
				<time>2025-07-28T21:53:46.776Z</time>
			</trkpt>
			<trkpt lat="48.0143" lon="15.53801">
				<ele>677.31</ele>
				<time>2025-07-28T21:53:51.342Z</time>
			</trkpt>
			<trkpt lat="48.01343" lon="15.53624">
				<ele>677.42</ele>
				<time>2025-07-28T21:53:58.457Z</time>
			</trkpt>
			<trkpt lat="48.01325" lon="15.53531">
				<ele>675.62</ele>
				<time>2025-07-28T21:54:01.572Z</time>
			</trkpt>
			<trkpt lat="48.01321" lon="15.53478">
				<ele>678.12</ele>
				<time>2025-07-28T21:54:03.283Z</time>
			</trkpt>
			<trkpt lat="48.01334" lon="15.53217">
				<ele>693.87</ele>
				<time>2025-07-28T21:54:11.636Z</time>
			</trkpt>
			<trkpt lat="48.01331" lon="15.53184">
				<ele>692.42</ele>
				<time>2025-07-28T21:54:12.694Z</time>
			</trkpt>
			<trkpt lat="48.01319" lon="15.53158">
				<ele>692.19</ele>
				<time>2025-07-28T21:54:13.696Z</time>
			</trkpt>
			<trkpt lat="48.0127" lon="15.53099">
				<ele>688.93</ele>
				<time>2025-07-28T21:54:16.677Z</time>
			</trkpt>
			<trkpt lat="48.0126" lon="15.53077">
				<ele>685.79</ele>
				<time>2025-07-28T21:54:17.518Z</time>
			</trkpt>
			<trkpt lat="48.01254" lon="15.53057">
				<ele>682.57</ele>
				<time>2025-07-28T21:54:18.211Z</time>
			</trkpt>
			<trkpt lat="48.01244" lon="15.52998">
				<ele>671.3</ele>
				<time>2025-07-28T21:54:20.134Z</time>
			</trkpt>
			<trkpt lat="48.01213" lon="15.52942">
				<ele>668.8</ele>
				<time>2025-07-28T21:54:22.427Z</time>
			</trkpt>
			<trkpt lat="48.0121" lon="15.52926">
				<ele>668.91</ele>
				<time>2025-07-28T21:54:22.951Z</time>
			</trkpt>
			<trkpt lat="48.01217" lon="15.52907">
				<ele>664.27</ele>
				<time>2025-07-28T21:54:23.635Z</time>
			</trkpt>
			<trkpt lat="48.01229" lon="15.52905">
				<ele>659.38</ele>
				<time>2025-07-28T21:54:24.203Z</time>
			</trkpt>
			<trkpt lat="48.01243" lon="15.52921">
				<ele>656.99</ele>
				<time>2025-07-28T21:54:25.033Z</time>
			</trkpt>
			<trkpt lat="48.01266" lon="15.52966">
				<ele>663.54</ele>
				<time>2025-07-28T21:54:26.815Z</time>
			</trkpt>
			<trkpt lat="48.01281" lon="15.52977">
				<ele>668.07</ele>
				<time>2025-07-28T21:54:27.600Z</time>
			</trkpt>
			<trkpt lat="48.01292" lon="15.52965">
				<ele>667.75</ele>
				<time>2025-07-28T21:54:28.240Z</time>
			</trkpt>
			<trkpt lat="48.01295" lon="15.52946">
				<ele>663.83</ele>
				<time>2025-07-28T21:54:28.853Z</time>
			</trkpt>
			<trkpt lat="48.01269" lon="15.52906">
				<ele>653.34</ele>
				<time>2025-07-28T21:54:30.605Z</time>
			</trkpt>
			<trkpt lat="48.01251" lon="15.52849">
				<ele>651.09</ele>
				<time>2025-07-28T21:54:32.584Z</time>
			</trkpt>
			<trkpt lat="48.01233" lon="15.52827">
				<ele>654.8</ele>
				<time>2025-07-28T21:54:33.675Z</time>
			</trkpt>
			<trkpt lat="48.01226" lon="15.52805">
				<ele>656.34</ele>
				<time>2025-07-28T21:54:34.439Z</time>
			</trkpt>
			<trkpt lat="48.01227" lon="15.52789">
				<ele>655.92</ele>
				<time>2025-07-28T21:54:34.943Z</time>
			</trkpt>
			<trkpt lat="48.01233" lon="15.5278">
				<ele>652.17</ele>
				<time>2025-07-28T21:54:35.341Z</time>
			</trkpt>
			<trkpt lat="48.01244" lon="15.52778">
				<ele>645.26</ele>
				<time>2025-07-28T21:54:35.861Z</time>
			</trkpt>
			<trkpt lat="48.01254" lon="15.52786">
				<ele>642.6</ele>
				<time>2025-07-28T21:54:36.392Z</time>
			</trkpt>
			<trkpt lat="48.01268" lon="15.52833">
				<ele>648</ele>
				<time>2025-07-28T21:54:38.005Z</time>
			</trkpt>
			<trkpt lat="48.01277" lon="15.52839">
				<ele>647.66</ele>
				<time>2025-07-28T21:54:38.467Z</time>
			</trkpt>
			<trkpt lat="48.01287" lon="15.52835">
				<ele>648.67</ele>
				<time>2025-07-28T21:54:38.952Z</time>
			</trkpt>
			<trkpt lat="48.01294" lon="15.52822">
				<ele>647.42</ele>
				<time>2025-07-28T21:54:39.475Z</time>
			</trkpt>
			<trkpt lat="48.01293" lon="15.52738">
				<ele>637.11</ele>
				<time>2025-07-28T21:54:42.108Z</time>
			</trkpt>
			<trkpt lat="48.01298" lon="15.5264">
				<ele>628.07</ele>
				<time>2025-07-28T21:54:45.188Z</time>
			</trkpt>
			<trkpt lat="48.01303" lon="15.52601">
				<ele>624.47</ele>
				<time>2025-07-28T21:54:46.433Z</time>
			</trkpt>
			<trkpt lat="48.01345" lon="15.52486">
				<ele>610.85</ele>
				<time>2025-07-28T21:54:50.541Z</time>
			</trkpt>
			<trkpt lat="48.01375" lon="15.52371">
				<ele>595.74</ele>
				<time>2025-07-28T21:54:54.415Z</time>
			</trkpt>
			<trkpt lat="48.01386" lon="15.52294">
				<ele>583.87</ele>
				<time>2025-07-28T21:54:56.889Z</time>
			</trkpt>
			<trkpt lat="48.01402" lon="15.52246">
				<ele>579</ele>
				<time>2025-07-28T21:54:58.576Z</time>
			</trkpt>
			<trkpt lat="48.01441" lon="15.52176">
				<ele>566.69</ele>
				<time>2025-07-28T21:55:01.444Z</time>
			</trkpt>
			<trkpt lat="48.01476" lon="15.52124">
				<ele>566.01</ele>
				<time>2025-07-28T21:55:03.770Z</time>
			</trkpt>
			<trkpt lat="48.01527" lon="15.52085">
				<ele>565.05</ele>
				<time>2025-07-28T21:55:06.475Z</time>
			</trkpt>
			<trkpt lat="48.01552" lon="15.52056">
				<ele>563.53</ele>
				<time>2025-07-28T21:55:07.971Z</time>
			</trkpt>
			<trkpt lat="48.01582" lon="15.52">
				<ele>554.49</ele>
				<time>2025-07-28T21:55:10.244Z</time>
			</trkpt>
			<trkpt lat="48.01593" lon="15.51971">
				<ele>553.62</ele>
				<time>2025-07-28T21:55:11.301Z</time>
			</trkpt>
			<trkpt lat="48.01615" lon="15.51867">
				<ele>552.29</ele>
				<time>2025-07-28T21:55:14.768Z</time>
			</trkpt>
			<trkpt lat="48.01609" lon="15.51833">
				<ele>546.76</ele>
				<time>2025-07-28T21:55:15.888Z</time>
			</trkpt>
			<trkpt lat="48.01596" lon="15.518">
				<ele>539.2</ele>
				<time>2025-07-28T21:55:17.109Z</time>
			</trkpt>
			<trkpt lat="48.01593" lon="15.51779">
				<ele>535.83</ele>
				<time>2025-07-28T21:55:17.795Z</time>
			</trkpt>
			<trkpt lat="48.01598" lon="15.5172">
				<ele>528.4</ele>
				<time>2025-07-28T21:55:19.696Z</time>
			</trkpt>
			<trkpt lat="48.01597" lon="15.51695">
				<ele>523.81</ele>
				<time>2025-07-28T21:55:20.497Z</time>
			</trkpt>
			<trkpt lat="48.01581" lon="15.51658">
				<ele>518.89</ele>
				<time>2025-07-28T21:55:21.909Z</time>
			</trkpt>
			<trkpt lat="48.01556" lon="15.51624">
				<ele>516.68</ele>
				<time>2025-07-28T21:55:23.531Z</time>
			</trkpt>
			<trkpt lat="48.01531" lon="15.51577">
				<ele>517.35</ele>
				<time>2025-07-28T21:55:25.463Z</time>
			</trkpt>
			<trkpt lat="48.01512" lon="15.51503">
				<ele>513.28</ele>
				<time>2025-07-28T21:55:28.021Z</time>
			</trkpt>
			<trkpt lat="48.01509" lon="15.51468">
				<ele>509.31</ele>
				<time>2025-07-28T21:55:29.162Z</time>
			</trkpt>
			<trkpt lat="48.01515" lon="15.51253">
				<ele>508.97</ele>
				<time>2025-07-28T21:55:36.160Z</time>
			</trkpt>
			<trkpt lat="48.01527" lon="15.51172">
				<ele>495.3</ele>
				<time>2025-07-28T21:55:38.877Z</time>
			</trkpt>
			<trkpt lat="48.01545" lon="15.51102">
				<ele>492.81</ele>
				<time>2025-07-28T21:55:41.343Z</time>
			</trkpt>
			<trkpt lat="48.01579" lon="15.50988">
				<ele>479.6</ele>
				<time>2025-07-28T21:55:45.469Z</time>
			</trkpt>
			<trkpt lat="48.01593" lon="15.50915">
				<ele>479.63</ele>
				<time>2025-07-28T21:55:47.994Z</time>
			</trkpt>
			<trkpt lat="48.01602" lon="15.5082">
				<ele>477.67</ele>
				<time>2025-07-28T21:55:51.200Z</time>
			</trkpt>
			<trkpt lat="48.01608" lon="15.50768">
				<ele>470.19</ele>
				<time>2025-07-28T21:55:52.971Z</time>
			</trkpt>
			<trkpt lat="48.01621" lon="15.50717">
				<ele>470.25</ele>
				<time>2025-07-28T21:55:54.808Z</time>
			</trkpt>
			<trkpt lat="48.01656" lon="15.50619">
				<ele>465.37</ele>
				<time>2025-07-28T21:55:58.569Z</time>
			</trkpt>
			<trkpt lat="48.01709" lon="15.50501">
				<ele>458.52</ele>
				<time>2025-07-28T21:56:03.420Z</time>
			</trkpt>
			<trkpt lat="48.01736" lon="15.50448">
				<ele>463.03</ele>
				<time>2025-07-28T21:56:05.710Z</time>
			</trkpt>
			<trkpt lat="48.01744" lon="15.50427">
				<ele>464.83</ele>
				<time>2025-07-28T21:56:06.543Z</time>
			</trkpt>
			<trkpt lat="48.01746" lon="15.50403">
				<ele>465.36</ele>
				<time>2025-07-28T21:56:07.379Z</time>
			</trkpt>
			<trkpt lat="48.01739" lon="15.50364">
				<ele>461.81</ele>
				<time>2025-07-28T21:56:08.777Z</time>
			</trkpt>
			<trkpt lat="48.01738" lon="15.50343">
				<ele>460.16</ele>
				<time>2025-07-28T21:56:09.507Z</time>
			</trkpt>
			<trkpt lat="48.01747" lon="15.50259">
				<ele>458.04</ele>
				<time>2025-07-28T21:56:12.470Z</time>
			</trkpt>
			<trkpt lat="48.01766" lon="15.50182">
				<ele>456.32</ele>
				<time>2025-07-28T21:56:15.347Z</time>
			</trkpt>
			<trkpt lat="48.01775" lon="15.50136">
				<ele>454.65</ele>
				<time>2025-07-28T21:56:17.036Z</time>
			</trkpt>
			<trkpt lat="48.01787" lon="15.50029">
				<ele>448.39</ele>
				<time>2025-07-28T21:56:20.881Z</time>
			</trkpt>
			<trkpt lat="48.01805" lon="15.4993">
				<ele>450.97</ele>
				<time>2025-07-28T21:56:24.547Z</time>
			</trkpt>
			<trkpt lat="48.01828" lon="15.49843">
				<ele>453.45</ele>
				<time>2025-07-28T21:56:27.917Z</time>
			</trkpt>
			<trkpt lat="48.01842" lon="15.4978">
				<ele>454.26</ele>
				<time>2025-07-28T21:56:30.325Z</time>
			</trkpt>
			<trkpt lat="48.01854" lon="15.49683">
				<ele>452.77</ele>
				<time>2025-07-28T21:56:33.927Z</time>
			</trkpt>
			<trkpt lat="48.01866" lon="15.49621">
				<ele>451.25</ele>
				<time>2025-07-28T21:56:36.301Z</time>
			</trkpt>
			<trkpt lat="48.01936" lon="15.49408">
				<ele>435.3</ele>
				<time>2025-07-28T21:56:45.146Z</time>
			</trkpt>
			<trkpt lat="48.01982" lon="15.49176">
				<ele>431.83</ele>
				<time>2025-07-28T21:56:54.366Z</time>
			</trkpt>
			<trkpt lat="48.01986" lon="15.49162">
				<ele>431.54</ele>
				<time>2025-07-28T21:56:54.953Z</time>
			</trkpt>
			<trkpt lat="48.02005" lon="15.4909">
				<ele>424.77</ele>
				<time>2025-07-28T21:56:57.951Z</time>
			</trkpt>
			<trkpt lat="48.0201" lon="15.49062">
				<ele>424.94</ele>
				<time>2025-07-28T21:56:59.080Z</time>
			</trkpt>
			<trkpt lat="48.02012" lon="15.49044">
				<ele>425.42</ele>
				<time>2025-07-28T21:56:59.792Z</time>
			</trkpt>
			<trkpt lat="48.02013" lon="15.49008">
				<ele>426.78</ele>
				<time>2025-07-28T21:57:01.201Z</time>
			</trkpt>
			<trkpt lat="48.02015" lon="15.48975">
				<ele>426.99</ele>
				<time>2025-07-28T21:57:02.502Z</time>
			</trkpt>
			<trkpt lat="48.02021" lon="15.48945">
				<ele>425.66</ele>
				<time>2025-07-28T21:57:03.736Z</time>
			</trkpt>
			<trkpt lat="48.02054" lon="15.48855">
				<ele>428.38</ele>
				<time>2025-07-28T21:57:07.805Z</time>
			</trkpt>
			<trkpt lat="48.02072" lon="15.48822">
				<ele>426.94</ele>
				<time>2025-07-28T21:57:09.506Z</time>
			</trkpt>
			<trkpt lat="48.02202" lon="15.4866">
				<ele>421.42</ele>
				<time>2025-07-28T21:57:19.765Z</time>
			</trkpt>
			<trkpt lat="48.02226" lon="15.48638">
				<ele>418.59</ele>
				<time>2025-07-28T21:57:21.497Z</time>
			</trkpt>
			<trkpt lat="48.02257" lon="15.48613">
				<ele>415.74</ele>
				<time>2025-07-28T21:57:23.676Z</time>
			</trkpt>
			<trkpt lat="48.02314" lon="15.48559">
				<ele>422.36</ele>
				<time>2025-07-28T21:57:27.884Z</time>
			</trkpt>
			<trkpt lat="48.02336" lon="15.48527">
				<ele>420.41</ele>
				<time>2025-07-28T21:57:29.813Z</time>
			</trkpt>
			<trkpt lat="48.02405" lon="15.48414">
				<ele>411.94</ele>
				<time>2025-07-28T21:57:36.313Z</time>
			</trkpt>
			<trkpt lat="48.02441" lon="15.48387">
				<ele>411.05</ele>
				<time>2025-07-28T21:57:38.901Z</time>
			</trkpt>
			<trkpt lat="48.02454" lon="15.48368">
				<ele>411.56</ele>
				<time>2025-07-28T21:57:40.075Z</time>
			</trkpt>
			<trkpt lat="48.02479" lon="15.48303">
				<ele>414.86</ele>
				<time>2025-07-28T21:57:43.331Z</time>
			</trkpt>
			<trkpt lat="48.0249" lon="15.48281">
				<ele>416.12</ele>
				<time>2025-07-28T21:57:44.531Z</time>
			</trkpt>
			<trkpt lat="48.02503" lon="15.48262">
				<ele>414.49</ele>
				<time>2025-07-28T21:57:45.721Z</time>
			</trkpt>
			<trkpt lat="48.02543" lon="15.48219">
				<ele>408.63</ele>
				<time>2025-07-28T21:57:48.966Z</time>
			</trkpt>
			<trkpt lat="48.0261" lon="15.48162">
				<ele>405.22</ele>
				<time>2025-07-28T21:57:54.096Z</time>
			</trkpt>
			<trkpt lat="48.02632" lon="15.48129">
				<ele>406.16</ele>
				<time>2025-07-28T21:57:56.189Z</time>
			</trkpt>
			<trkpt lat="48.02655" lon="15.48083">
				<ele>405.39</ele>
				<time>2025-07-28T21:57:58.784Z</time>
			</trkpt>
			<trkpt lat="48.02701" lon="15.48005">
				<ele>404.41</ele>
				<time>2025-07-28T21:58:03.526Z</time>
			</trkpt>
			<trkpt lat="48.02715" lon="15.47986">
				<ele>404.29</ele>
				<time>2025-07-28T21:58:04.825Z</time>
			</trkpt>
			<trkpt lat="48.02778" lon="15.47921">
				<ele>400.6</ele>
				<time>2025-07-28T21:58:10.126Z</time>
			</trkpt>
			<trkpt lat="48.02797" lon="15.47895">
				<ele>400.29</ele>
				<time>2025-07-28T21:58:11.925Z</time>
			</trkpt>
			<trkpt lat="48.0281" lon="15.47865">
				<ele>399.76</ele>
				<time>2025-07-28T21:58:13.602Z</time>
			</trkpt>
			<trkpt lat="48.02825" lon="15.4784">
				<ele>400.39</ele>
				<time>2025-07-28T21:58:15.185Z</time>
			</trkpt>
			<trkpt lat="48.02862" lon="15.478">
				<ele>407.36</ele>
				<time>2025-07-28T21:58:18.420Z</time>
			</trkpt>
			<trkpt lat="48.02877" lon="15.47774">
				<ele>405.02</ele>
				<time>2025-07-28T21:58:20.057Z</time>
			</trkpt>
			<trkpt lat="48.0289" lon="15.4775">
				<ele>403.19</ele>
				<time>2025-07-28T21:58:21.535Z</time>
			</trkpt>
			<trkpt lat="48.02902" lon="15.47715">
				<ele>401.4</ele>
				<time>2025-07-28T21:58:23.425Z</time>
			</trkpt>
			<trkpt lat="48.02924" lon="15.47672">
				<ele>400.66</ele>
				<time>2025-07-28T21:58:26.041Z</time>
			</trkpt>
			<trkpt lat="48.02942" lon="15.47642">
				<ele>400.98</ele>
				<time>2025-07-28T21:58:27.999Z</time>
			</trkpt>
			<trkpt lat="48.02961" lon="15.47623">
				<ele>401.67</ele>
				<time>2025-07-28T21:58:29.667Z</time>
			</trkpt>
			<trkpt lat="48.02987" lon="15.47592">
				<ele>400.83</ele>
				<time>2025-07-28T21:58:32.105Z</time>
			</trkpt>
			<trkpt lat="48.02993" lon="15.47567">
				<ele>398.96</ele>
				<time>2025-07-28T21:58:33.413Z</time>
			</trkpt>
			<trkpt lat="48.02996" lon="15.47532">
				<ele>395.47</ele>
				<time>2025-07-28T21:58:35.158Z</time>
			</trkpt>
			<trkpt lat="48.03" lon="15.47515">
				<ele>394.15</ele>
				<time>2025-07-28T21:58:36.051Z</time>
			</trkpt>
			<trkpt lat="48.03018" lon="15.4747">
				<ele>392.62</ele>
				<time>2025-07-28T21:58:38.663Z</time>
			</trkpt>
			<trkpt lat="48.0302" lon="15.47444">
				<ele>391.99</ele>
				<time>2025-07-28T21:58:39.972Z</time>
			</trkpt>
			<trkpt lat="48.03018" lon="15.47425">
				<ele>391.53</ele>
				<time>2025-07-28T21:58:40.937Z</time>
			</trkpt>
			<trkpt lat="48.03022" lon="15.47399">
				<ele>390.56</ele>
				<time>2025-07-28T21:58:42.279Z</time>
			</trkpt>
			<trkpt lat="48.03033" lon="15.47368">
				<ele>389.45</ele>
				<time>2025-07-28T21:58:44.051Z</time>
			</trkpt>
			<trkpt lat="48.03053" lon="15.47337">
				<ele>389.86</ele>
				<time>2025-07-28T21:58:46.235Z</time>
			</trkpt>
			<trkpt lat="48.03062" lon="15.47307">
				<ele>389.3</ele>
				<time>2025-07-28T21:58:47.911Z</time>
			</trkpt>
			<trkpt lat="48.0307" lon="15.47264">
				<ele>387.81</ele>
				<time>2025-07-28T21:58:50.195Z</time>
			</trkpt>
			<trkpt lat="48.03092" lon="15.47203">
				<ele>387</ele>
				<time>2025-07-28T21:58:53.767Z</time>
			</trkpt>
			<trkpt lat="48.03103" lon="15.47139">
				<ele>387.27</ele>
				<time>2025-07-28T21:58:57.201Z</time>
			</trkpt>
			<trkpt lat="48.03146" lon="15.46951">
				<ele>383.5</ele>
				<time>2025-07-28T21:59:07.990Z</time>
			</trkpt>
			<trkpt lat="48.03154" lon="15.46909">
				<ele>384.15</ele>
				<time>2025-07-28T21:59:10.464Z</time>
			</trkpt>
			<trkpt lat="48.03161" lon="15.46852">
				<ele>383.48</ele>
				<time>2025-07-28T21:59:13.801Z</time>
			</trkpt>
			<trkpt lat="48.03167" lon="15.46769">
				<ele>380.66</ele>
				<time>2025-07-28T21:59:18.711Z</time>
			</trkpt>
			<trkpt lat="48.03172" lon="15.46738">
				<ele>379.48</ele>
				<time>2025-07-28T21:59:20.618Z</time>
			</trkpt>
			<trkpt lat="48.03232" lon="15.46582">
				<ele>378.36</ele>
				<time>2025-07-28T21:59:31.682Z</time>
			</trkpt>
			<trkpt lat="48.03236" lon="15.46564">
				<ele>378.84</ele>
				<time>2025-07-28T21:59:32.876Z</time>
			</trkpt>
			<trkpt lat="48.03244" lon="15.46469">
				<ele>378.02</ele>
				<time>2025-07-28T21:59:38.982Z</time>
			</trkpt>
			<trkpt lat="48.0325" lon="15.46432">
				<ele>376.02</ele>
				<time>2025-07-28T21:59:41.443Z</time>
			</trkpt>
			<trkpt lat="48.03306" lon="15.4623">
				<ele>376.03</ele>
				<time>2025-07-28T21:59:55.917Z</time>
			</trkpt>
			<trkpt lat="48.03335" lon="15.4615">
				<ele>375.5</ele>
				<time>2025-07-28T22:00:02.091Z</time>
			</trkpt>
			<trkpt lat="48.03357" lon="15.46047">
				<ele>376.95</ele>
				<time>2025-07-28T22:00:09.525Z</time>
			</trkpt>
			<trkpt lat="48.03369" lon="15.46022">
				<ele>376.66</ele>
				<time>2025-07-28T22:00:11.659Z</time>
			</trkpt>
			<trkpt lat="48.03381" lon="15.45998">
				<ele>375.45</ele>
				<time>2025-07-28T22:00:13.743Z</time>
			</trkpt>
			<trkpt lat="48.03397" lon="15.45974">
				<ele>373.76</ele>
				<time>2025-07-28T22:00:16.109Z</time>
			</trkpt>
			<trkpt lat="48.03467" lon="15.45879">
				<ele>369.94</ele>
				<time>2025-07-28T22:00:26.055Z</time>
			</trkpt>
			<trkpt lat="48.03522" lon="15.45802">
				<ele>368.78</ele>
				<time>2025-07-28T22:00:34.061Z</time>
			</trkpt>
			<trkpt lat="48.03584" lon="15.45699">
				<ele>366</ele>
				<time>2025-07-28T22:00:43.977Z</time>
			</trkpt>
			<trkpt lat="48.03624" lon="15.45638">
				<ele>367.51</ele>
				<time>2025-07-28T22:00:50.117Z</time>
			</trkpt>
			<trkpt lat="48.03668" lon="15.45579">
				<ele>365.78</ele>
				<time>2025-07-28T22:00:56.479Z</time>
			</trkpt>
			<trkpt lat="48.03716" lon="15.45523">
				<ele>362.17</ele>
				<time>2025-07-28T22:01:03.039Z</time>
			</trkpt>
			<trkpt lat="48.03765" lon="15.45471">
				<ele>362.42</ele>
				<time>2025-07-28T22:01:09.508Z</time>
			</trkpt>
			<trkpt lat="48.03875" lon="15.45357">
				<ele>360.48</ele>
				<time>2025-07-28T22:01:23.866Z</time>
			</trkpt>
			<trkpt lat="48.039" lon="15.45316">
				<ele>359.64</ele>
				<time>2025-07-28T22:01:27.823Z</time>
			</trkpt>
			<trkpt lat="48.03923" lon="15.45272">
				<ele>358.94</ele>
				<time>2025-07-28T22:01:31.794Z</time>
			</trkpt>
			<trkpt lat="48.0398" lon="15.45133">
				<ele>357.93</ele>
				<time>2025-07-28T22:01:43.290Z</time>
			</trkpt>
			<trkpt lat="48.03996" lon="15.45092">
				<ele>359.75</ele>
				<time>2025-07-28T22:01:46.605Z</time>
			</trkpt>
			<trkpt lat="48.04021" lon="15.45015">
				<ele>359.77</ele>
				<time>2025-07-28T22:01:52.540Z</time>
			</trkpt>
			<trkpt lat="48.03727" lon="15.44737">
				<ele>355.52</ele>
				<time>2025-07-28T22:02:28.099Z</time>
			</trkpt>
			<trkpt lat="48.03599" lon="15.44617">
				<ele>359</ele>
				<time>2025-07-28T22:02:43.850Z</time>
			</trkpt>
			<trkpt lat="48.03533" lon="15.44553">
				<ele>359.08</ele>
				<time>2025-07-28T22:02:52.113Z</time>
			</trkpt>
			<trkpt lat="48.03475" lon="15.44492">
				<ele>359</ele>
				<time>2025-07-28T22:02:59.585Z</time>
			</trkpt>
			<trkpt lat="48.03431" lon="15.44439">
				<ele>359.92</ele>
				<time>2025-07-28T22:03:05.550Z</time>
			</trkpt>
			<trkpt lat="48.03371" lon="15.4438">
				<ele>362.01</ele>
				<time>2025-07-28T22:03:13.140Z</time>
			</trkpt>
			<trkpt lat="48.03278" lon="15.44309">
				<ele>362.47</ele>
				<time>2025-07-28T22:03:24.175Z</time>
			</trkpt>
			<trkpt lat="48.0326" lon="15.44285">
				<ele>363.37</ele>
				<time>2025-07-28T22:03:26.721Z</time>
			</trkpt>
			<trkpt lat="48.0324" lon="15.44258">
				<ele>364.13</ele>
				<time>2025-07-28T22:03:29.565Z</time>
			</trkpt>
			<trkpt lat="48.0321" lon="15.44197">
				<ele>361.1</ele>
				<time>2025-07-28T22:03:34.901Z</time>
			</trkpt>
			<trkpt lat="48.03196" lon="15.44153">
				<ele>361.46</ele>
				<time>2025-07-28T22:03:38.329Z</time>
			</trkpt>
			<trkpt lat="48.03172" lon="15.44065">
				<ele>362</ele>
				<time>2025-07-28T22:03:45.000Z</time>
			</trkpt>
			<trkpt lat="48.0315" lon="15.44007">
				<ele>362</ele>
				<time>2025-07-28T22:03:49.665Z</time>
			</trkpt>
			<trkpt lat="48.03135" lon="15.43979">
				<ele>362.11</ele>
				<time>2025-07-28T22:03:52.169Z</time>
			</trkpt>
			<trkpt lat="48.03087" lon="15.439">
				<ele>362.64</ele>
				<time>2025-07-28T22:03:59.591Z</time>
			</trkpt>
			<trkpt lat="48.03018" lon="15.43812">
				<ele>363.59</ele>
				<time>2025-07-28T22:04:08.950Z</time>
			</trkpt>
			<trkpt lat="48.02994" lon="15.43786">
				<ele>364.06</ele>
				<time>2025-07-28T22:04:11.989Z</time>
			</trkpt>
			<trkpt lat="48.02941" lon="15.4374">
				<ele>363.25</ele>
				<time>2025-07-28T22:04:18.238Z</time>
			</trkpt>
			<trkpt lat="48.02896" lon="15.43705">
				<ele>363.59</ele>
				<time>2025-07-28T22:04:23.373Z</time>
			</trkpt>
			<trkpt lat="48.02806" lon="15.43656">
				<ele>365.35</ele>
				<time>2025-07-28T22:04:32.964Z</time>
			</trkpt>
			<trkpt lat="48.02777" lon="15.43637">
				<ele>366.98</ele>
				<time>2025-07-28T22:04:36.102Z</time>
			</trkpt>
			<trkpt lat="48.02725" lon="15.43589">
				<ele>366.88</ele>
				<time>2025-07-28T22:04:42.108Z</time>
			</trkpt>
			<trkpt lat="48.0258" lon="15.43434">
				<ele>367.86</ele>
				<time>2025-07-28T22:04:59.212Z</time>
			</trkpt>
			<trkpt lat="48.02565" lon="15.43412">
				<ele>368.14</ele>
				<time>2025-07-28T22:05:01.183Z</time>
			</trkpt>
			<trkpt lat="48.02557" lon="15.43391">
				<ele>368.04</ele>
				<time>2025-07-28T22:05:02.693Z</time>
			</trkpt>
			<trkpt lat="48.02552" lon="15.43364">
				<ele>368.11</ele>
				<time>2025-07-28T22:05:04.435Z</time>
			</trkpt>
			<trkpt lat="48.02549" lon="15.4331">
				<ele>367.43</ele>
				<time>2025-07-28T22:05:07.781Z</time>
			</trkpt>
			<trkpt lat="48.0255" lon="15.43277">
				<ele>367.99</ele>
				<time>2025-07-28T22:05:09.805Z</time>
			</trkpt>
			<trkpt lat="48.0255" lon="15.4327">
				<ele>368.55</ele>
				<time>2025-07-28T22:05:10.232Z</time>
			</trkpt>
			<trkpt lat="48.02569" lon="15.43173">
				<ele>369.48</ele>
				<time>2025-07-28T22:05:16.340Z</time>
			</trkpt>
			<trkpt lat="48.02605" lon="15.4301">
				<ele>370.07</ele>
				<time>2025-07-28T22:05:26.495Z</time>
			</trkpt>
			<trkpt lat="48.02625" lon="15.42938">
				<ele>368.88</ele>
				<time>2025-07-28T22:05:31.085Z</time>
			</trkpt>
			<trkpt lat="48.02634" lon="15.42924">
				<ele>368.4</ele>
				<time>2025-07-28T22:05:32.227Z</time>
			</trkpt>
			<trkpt lat="48.02637" lon="15.42922">
				<ele>368.26</ele>
				<time>2025-07-28T22:05:32.516Z</time>
			</trkpt>
			<trkpt lat="48.02667" lon="15.42927">
				<ele>369.76</ele>
				<time>2025-07-28T22:05:35.169Z</time>
			</trkpt>
			<trkpt lat="48.0267" lon="15.42924">
				<ele>370.43</ele>
				<time>2025-07-28T22:05:35.486Z</time>
			</trkpt>
			<trkpt lat="48.02677" lon="15.42917">
				<ele>371.88</ele>
				<time>2025-07-28T22:05:36.226Z</time>
			</trkpt>
			<trkpt lat="48.02682" lon="15.42907">
				<ele>373</ele>
				<time>2025-07-28T22:05:36.959Z</time>
			</trkpt>
			<trkpt lat="48.02703" lon="15.42849">
				<ele>376.36</ele>
				<time>2025-07-28T22:05:40.830Z</time>
			</trkpt>
			<trkpt lat="48.02711" lon="15.42833">
				<ele>375.81</ele>
				<time>2025-07-28T22:05:42.001Z</time>
			</trkpt>
			<trkpt lat="48.02731" lon="15.42768">
				<ele>375.22</ele>
				<time>2025-07-28T22:05:46.193Z</time>
			</trkpt>
			<trkpt lat="48.02795" lon="15.42516">
				<ele>375.44</ele>
				<time>2025-07-28T22:06:01.934Z</time>
			</trkpt>
			<trkpt lat="48.028" lon="15.42474">
				<ele>375.88</ele>
				<time>2025-07-28T22:06:04.417Z</time>
			</trkpt>
			<trkpt lat="48.02799" lon="15.4239">
				<ele>378.67</ele>
				<time>2025-07-28T22:06:09.303Z</time>
			</trkpt>
			<trkpt lat="48.02798" lon="15.42368">
				<ele>378.57</ele>
				<time>2025-07-28T22:06:10.584Z</time>
			</trkpt>
			<trkpt lat="48.02804" lon="15.42306">
				<ele>377.92</ele>
				<time>2025-07-28T22:06:14.220Z</time>
			</trkpt>
			<trkpt lat="48.02801" lon="15.42201">
				<ele>376.02</ele>
				<time>2025-07-28T22:06:20.311Z</time>
			</trkpt>
			<trkpt lat="48.02806" lon="15.4209">
				<ele>373.26</ele>
				<time>2025-07-28T22:06:26.745Z</time>
			</trkpt>
			<trkpt lat="48.0281" lon="15.42039">
				<ele>372.48</ele>
				<time>2025-07-28T22:06:29.710Z</time>
			</trkpt>
			<trkpt lat="48.02821" lon="15.41991">
				<ele>373.58</ele>
				<time>2025-07-28T22:06:32.637Z</time>
			</trkpt>
			<trkpt lat="48.02837" lon="15.41935">
				<ele>374.43</ele>
				<time>2025-07-28T22:06:36.146Z</time>
			</trkpt>
			<trkpt lat="48.02891" lon="15.41807">
				<ele>382.98</ele>
				<time>2025-07-28T22:06:44.851Z</time>
			</trkpt>
			<trkpt lat="48.02916" lon="15.41737">
				<ele>388.43</ele>
				<time>2025-07-28T22:06:49.405Z</time>
			</trkpt>
			<trkpt lat="48.0293" lon="15.41682">
				<ele>386.41</ele>
				<time>2025-07-28T22:06:52.777Z</time>
			</trkpt>
			<trkpt lat="48.02939" lon="15.41625">
				<ele>382.71</ele>
				<time>2025-07-28T22:06:56.130Z</time>
			</trkpt>
			<trkpt lat="48.02958" lon="15.41408">
				<ele>378.71</ele>
				<time>2025-07-28T22:07:08.627Z</time>
			</trkpt>
			<trkpt lat="48.02972" lon="15.41287">
				<ele>375.01</ele>
				<time>2025-07-28T22:07:15.617Z</time>
			</trkpt>
			<trkpt lat="48.02974" lon="15.41256">
				<ele>375.32</ele>
				<time>2025-07-28T22:07:17.387Z</time>
			</trkpt>
			<trkpt lat="48.02973" lon="15.41233">
				<ele>375.2</ele>
				<time>2025-07-28T22:07:18.696Z</time>
			</trkpt>
			<trkpt lat="48.02969" lon="15.41207">
				<ele>375</ele>
				<time>2025-07-28T22:07:20.211Z</time>
			</trkpt>
			<trkpt lat="48.02956" lon="15.41166">
				<ele>375.41</ele>
				<time>2025-07-28T22:07:22.786Z</time>
			</trkpt>
			<trkpt lat="48.02945" lon="15.41148">
				<ele>375.72</ele>
				<time>2025-07-28T22:07:24.168Z</time>
			</trkpt>
			<trkpt lat="48.02932" lon="15.41132">
				<ele>376.13</ele>
				<time>2025-07-28T22:07:25.595Z</time>
			</trkpt>
			<trkpt lat="48.02872" lon="15.41081">
				<ele>377.06</ele>
				<time>2025-07-28T22:07:31.438Z</time>
			</trkpt>
			<trkpt lat="48.02842" lon="15.41062">
				<ele>376.55</ele>
				<time>2025-07-28T22:07:34.192Z</time>
			</trkpt>
			<trkpt lat="48.02767" lon="15.41028">
				<ele>375.37</ele>
				<time>2025-07-28T22:07:40.807Z</time>
			</trkpt>
			<trkpt lat="48.0274" lon="15.4101">
				<ele>376.6</ele>
				<time>2025-07-28T22:07:43.299Z</time>
			</trkpt>
			<trkpt lat="48.02686" lon="15.40969">
				<ele>376.36</ele>
				<time>2025-07-28T22:07:48.396Z</time>
			</trkpt>
			<trkpt lat="48.02661" lon="15.4095">
				<ele>377.26</ele>
				<time>2025-07-28T22:07:50.754Z</time>
			</trkpt>
			<trkpt lat="48.02653" lon="15.40941">
				<ele>377.43</ele>
				<time>2025-07-28T22:07:51.595Z</time>
			</trkpt>
			<trkpt lat="48.02643" lon="15.40926">
				<ele>377.29</ele>
				<time>2025-07-28T22:07:52.785Z</time>
			</trkpt>
			<trkpt lat="48.02637" lon="15.40908">
				<ele>377.15</ele>
				<time>2025-07-28T22:07:53.915Z</time>
			</trkpt>
			<trkpt lat="48.02632" lon="15.40888">
				<ele>377.47</ele>
				<time>2025-07-28T22:07:55.113Z</time>
			</trkpt>
			<trkpt lat="48.02612" lon="15.40778">
				<ele>377.03</ele>
				<time>2025-07-28T22:08:01.504Z</time>
			</trkpt>
			<trkpt lat="48.02604" lon="15.40744">
				<ele>378.24</ele>
				<time>2025-07-28T22:08:03.522Z</time>
			</trkpt>
			<trkpt lat="48.02601" lon="15.40733">
				<ele>378.35</ele>
				<time>2025-07-28T22:08:04.187Z</time>
			</trkpt>
			<trkpt lat="48.02593" lon="15.40713">
				<ele>378.75</ele>
				<time>2025-07-28T22:08:05.491Z</time>
			</trkpt>
			<trkpt lat="48.02572" lon="15.40684">
				<ele>379.34</ele>
				<time>2025-07-28T22:08:07.880Z</time>
			</trkpt>
			<trkpt lat="48.02557" lon="15.40672">
				<ele>379.77</ele>
				<time>2025-07-28T22:08:09.302Z</time>
			</trkpt>
			<trkpt lat="48.02518" lon="15.40647">
				<ele>380.01</ele>
				<time>2025-07-28T22:08:12.844Z</time>
			</trkpt>
			<trkpt lat="48.02493" lon="15.40625">
				<ele>381.54</ele>
				<time>2025-07-28T22:08:15.263Z</time>
			</trkpt>
			<trkpt lat="48.02466" lon="15.40595">
				<ele>383.17</ele>
				<time>2025-07-28T22:08:18.066Z</time>
			</trkpt>
			<trkpt lat="48.02445" lon="15.40561">
				<ele>383.32</ele>
				<time>2025-07-28T22:08:20.643Z</time>
			</trkpt>
			<trkpt lat="48.02437" lon="15.40539">
				<ele>383.05</ele>
				<time>2025-07-28T22:08:22.036Z</time>
			</trkpt>
			<trkpt lat="48.02395" lon="15.40404">
				<ele>379.85</ele>
				<time>2025-07-28T22:08:30.308Z</time>
			</trkpt>
			<trkpt lat="48.02371" lon="15.40336">
				<ele>380</ele>
				<time>2025-07-28T22:08:34.571Z</time>
			</trkpt>
			<trkpt lat="48.02315" lon="15.40206">
				<ele>383</ele>
				<time>2025-07-28T22:08:43.125Z</time>
			</trkpt>
			<trkpt lat="48.02297" lon="15.40143">
				<ele>383.04</ele>
				<time>2025-07-28T22:08:46.908Z</time>
			</trkpt>
			<trkpt lat="48.02282" lon="15.401">
				<ele>383.89</ele>
				<time>2025-07-28T22:08:49.583Z</time>
			</trkpt>
			<trkpt lat="48.02258" lon="15.40049">
				<ele>383.83</ele>
				<time>2025-07-28T22:08:53.018Z</time>
			</trkpt>
			<trkpt lat="48.02225" lon="15.39996">
				<ele>383.89</ele>
				<time>2025-07-28T22:08:57.003Z</time>
			</trkpt>
			<trkpt lat="48.02215" lon="15.39982">
				<ele>384.32</ele>
				<time>2025-07-28T22:08:58.130Z</time>
			</trkpt>
			<trkpt lat="48.02171" lon="15.39937">
				<ele>384.25</ele>
				<time>2025-07-28T22:09:02.508Z</time>
			</trkpt>
			<trkpt lat="48.02145" lon="15.39912">
				<ele>385</ele>
				<time>2025-07-28T22:09:05.044Z</time>
			</trkpt>
			<trkpt lat="48.0212" lon="15.39894">
				<ele>384.85</ele>
				<time>2025-07-28T22:09:07.319Z</time>
			</trkpt>
			<trkpt lat="48.02096" lon="15.39885">
				<ele>385.12</ele>
				<time>2025-07-28T22:09:09.346Z</time>
			</trkpt>
			<trkpt lat="48.02061" lon="15.39876">
				<ele>385</ele>
				<time>2025-07-28T22:09:12.253Z</time>
			</trkpt>
			<trkpt lat="48.01951" lon="15.39886">
				<ele>386.07</ele>
				<time>2025-07-28T22:09:21.256Z</time>
			</trkpt>
			<trkpt lat="48.01894" lon="15.39886">
				<ele>387</ele>
				<time>2025-07-28T22:09:25.901Z</time>
			</trkpt>
			<trkpt lat="48.01842" lon="15.3989">
				<ele>386.32</ele>
				<time>2025-07-28T22:09:30.139Z</time>
			</trkpt>
			<trkpt lat="48.01813" lon="15.39889">
				<ele>386</ele>
				<time>2025-07-28T22:09:32.498Z</time>
			</trkpt>
			<trkpt lat="48.01758" lon="15.39876">
				<ele>388.68</ele>
				<time>2025-07-28T22:09:37.020Z</time>
			</trkpt>
			<trkpt lat="48.01697" lon="15.39853">
				<ele>390.26</ele>
				<time>2025-07-28T22:09:42.120Z</time>
			</trkpt>
			<trkpt lat="48.01668" lon="15.39854">
				<ele>391.6</ele>
				<time>2025-07-28T22:09:44.469Z</time>
			</trkpt>
			<trkpt lat="48.01596" lon="15.39888">
				<ele>392.52</ele>
				<time>2025-07-28T22:09:50.575Z</time>
			</trkpt>
			<trkpt lat="48.0157" lon="15.39894">
				<ele>392.53</ele>
				<time>2025-07-28T22:09:52.700Z</time>
			</trkpt>
			<trkpt lat="48.01554" lon="15.39891">
				<ele>392.64</ele>
				<time>2025-07-28T22:09:54.002Z</time>
			</trkpt>
			<trkpt lat="48.01548" lon="15.39888">
				<ele>392.78</ele>
				<time>2025-07-28T22:09:54.512Z</time>
			</trkpt>
			<trkpt lat="48.0152" lon="15.39868">
				<ele>393.7</ele>
				<time>2025-07-28T22:09:57.015Z</time>
			</trkpt>
			<trkpt lat="48.01511" lon="15.39856">
				<ele>393.47</ele>
				<time>2025-07-28T22:09:57.987Z</time>
			</trkpt>
			<trkpt lat="48.015" lon="15.3982">
				<ele>394.47</ele>
				<time>2025-07-28T22:10:00.120Z</time>
			</trkpt>
			<trkpt lat="48.01488" lon="15.39716">
				<ele>406.2</ele>
				<time>2025-07-28T22:10:05.800Z</time>
			</trkpt>
			<trkpt lat="48.01459" lon="15.39598">
				<ele>404.62</ele>
				<time>2025-07-28T22:10:12.552Z</time>
			</trkpt>
			<trkpt lat="48.01436" lon="15.39483">
				<ele>405.7</ele>
				<time>2025-07-28T22:10:18.985Z</time>
			</trkpt>
			<trkpt lat="48.01422" lon="15.3943">
				<ele>405.76</ele>
				<time>2025-07-28T22:10:22.034Z</time>
			</trkpt>
			<trkpt lat="48.01409" lon="15.39353">
				<ele>400.66</ele>
				<time>2025-07-28T22:10:26.279Z</time>
			</trkpt>
			<trkpt lat="48.01405" lon="15.39295">
				<ele>396.81</ele>
				<time>2025-07-28T22:10:29.392Z</time>
			</trkpt>
			<trkpt lat="48.01405" lon="15.39236">
				<ele>399</ele>
				<time>2025-07-28T22:10:32.538Z</time>
			</trkpt>
			<trkpt lat="48.014" lon="15.39196">
				<ele>401.15</ele>
				<time>2025-07-28T22:10:34.706Z</time>
			</trkpt>
			<trkpt lat="48.01392" lon="15.39151">
				<ele>404.44</ele>
				<time>2025-07-28T22:10:37.185Z</time>
			</trkpt>
			<trkpt lat="48.01388" lon="15.39128">
				<ele>406.36</ele>
				<time>2025-07-28T22:10:38.450Z</time>
			</trkpt>
			<trkpt lat="48.01367" lon="15.39024">
				<ele>411.8</ele>
				<time>2025-07-28T22:10:44.223Z</time>
			</trkpt>
			<trkpt lat="48.0136" lon="15.39002">
				<ele>412.61</ele>
				<time>2025-07-28T22:10:45.517Z</time>
			</trkpt>
			<trkpt lat="48.01295" lon="15.38859">
				<ele>410.11</ele>
				<time>2025-07-28T22:10:54.679Z</time>
			</trkpt>
			<trkpt lat="48.01273" lon="15.38818">
				<ele>411.92</ele>
				<time>2025-07-28T22:10:57.459Z</time>
			</trkpt>
			<trkpt lat="48.01218" lon="15.38733">
				<ele>411.19</ele>
				<time>2025-07-28T22:11:03.705Z</time>
			</trkpt>
			<trkpt lat="48.01172" lon="15.3867">
				<ele>407.76</ele>
				<time>2025-07-28T22:11:08.621Z</time>
			</trkpt>
			<trkpt lat="48.01138" lon="15.3862">
				<ele>405.55</ele>
				<time>2025-07-28T22:11:12.375Z</time>
			</trkpt>
			<trkpt lat="48.01104" lon="15.38564">
				<ele>405.62</ele>
				<time>2025-07-28T22:11:16.351Z</time>
			</trkpt>
			<trkpt lat="48.01075" lon="15.38503">
				<ele>407.07</ele>
				<time>2025-07-28T22:11:20.280Z</time>
			</trkpt>
			<trkpt lat="48.01059" lon="15.3846">
				<ele>406.22</ele>
				<time>2025-07-28T22:11:22.861Z</time>
			</trkpt>
			<trkpt lat="48.01037" lon="15.38391">
				<ele>406.81</ele>
				<time>2025-07-28T22:11:26.867Z</time>
			</trkpt>
			<trkpt lat="48.01012" lon="15.38287">
				<ele>412.06</ele>
				<time>2025-07-28T22:11:32.648Z</time>
			</trkpt>
			<trkpt lat="48.00996" lon="15.38205">
				<ele>414.83</ele>
				<time>2025-07-28T22:11:37.109Z</time>
			</trkpt>
			<trkpt lat="48.00977" lon="15.38133">
				<ele>410.01</ele>
				<time>2025-07-28T22:11:41.146Z</time>
			</trkpt>
			<trkpt lat="48.00948" lon="15.38039">
				<ele>411.03</ele>
				<time>2025-07-28T22:11:46.536Z</time>
			</trkpt>
			<trkpt lat="48.00916" lon="15.37961">
				<ele>407.79</ele>
				<time>2025-07-28T22:11:51.293Z</time>
			</trkpt>
			<trkpt lat="48.00837" lon="15.37811">
				<ele>403.66</ele>
				<time>2025-07-28T22:12:01.195Z</time>
			</trkpt>
			<trkpt lat="48.00821" lon="15.37776">
				<ele>402.96</ele>
				<time>2025-07-28T22:12:03.389Z</time>
			</trkpt>
			<trkpt lat="48.00807" lon="15.37742">
				<ele>401.13</ele>
				<time>2025-07-28T22:12:05.455Z</time>
			</trkpt>
			<trkpt lat="48.00785" lon="15.37668">
				<ele>401.98</ele>
				<time>2025-07-28T22:12:09.639Z</time>
			</trkpt>
			<trkpt lat="48.00777" lon="15.37634">
				<ele>403.14</ele>
				<time>2025-07-28T22:12:11.500Z</time>
			</trkpt>
			<trkpt lat="48.00768" lon="15.3757">
				<ele>406.51</ele>
				<time>2025-07-28T22:12:14.873Z</time>
			</trkpt>
			<trkpt lat="48.00765" lon="15.37531">
				<ele>407.03</ele>
				<time>2025-07-28T22:12:16.897Z</time>
			</trkpt>
			<trkpt lat="48.00761" lon="15.37416">
				<ele>410.25</ele>
				<time>2025-07-28T22:12:22.824Z</time>
			</trkpt>
			<trkpt lat="48.00761" lon="15.37274">
				<ele>407.13</ele>
				<time>2025-07-28T22:12:30.117Z</time>
			</trkpt>
			<trkpt lat="48.00763" lon="15.37238">
				<ele>406</ele>
				<time>2025-07-28T22:12:31.970Z</time>
			</trkpt>
			<trkpt lat="48.00773" lon="15.37188">
				<ele>406.61</ele>
				<time>2025-07-28T22:12:34.644Z</time>
			</trkpt>
			<trkpt lat="48.00795" lon="15.37117">
				<ele>408.9</ele>
				<time>2025-07-28T22:12:38.650Z</time>
			</trkpt>
			<trkpt lat="48.00798" lon="15.37099">
				<ele>408.29</ele>
				<time>2025-07-28T22:12:39.599Z</time>
			</trkpt>
			<trkpt lat="48.00808" lon="15.36994">
				<ele>410.33</ele>
				<time>2025-07-28T22:12:45.018Z</time>
			</trkpt>
			<trkpt lat="48.00809" lon="15.36945">
				<ele>411.94</ele>
				<time>2025-07-28T22:12:47.520Z</time>
			</trkpt>
			<trkpt lat="48.00805" lon="15.36897">
				<ele>414.37</ele>
				<time>2025-07-28T22:12:49.986Z</time>
			</trkpt>
			<trkpt lat="48.00797" lon="15.3685">
				<ele>419.41</ele>
				<time>2025-07-28T22:12:52.457Z</time>
			</trkpt>
			<trkpt lat="48.0079" lon="15.36829">
				<ele>419.74</ele>
				<time>2025-07-28T22:12:53.652Z</time>
			</trkpt>
			<trkpt lat="48.00781" lon="15.36811">
				<ele>416.83</ele>
				<time>2025-07-28T22:12:54.796Z</time>
			</trkpt>
			<trkpt lat="48.0077" lon="15.36795">
				<ele>415.74</ele>
				<time>2025-07-28T22:12:55.963Z</time>
			</trkpt>
			<trkpt lat="48.00743" lon="15.36772">
				<ele>417.7</ele>
				<time>2025-07-28T22:12:58.325Z</time>
			</trkpt>
			<trkpt lat="48.00656" lon="15.36716">
				<ele>419.94</ele>
				<time>2025-07-28T22:13:05.515Z</time>
			</trkpt>
			<trkpt lat="48.00641" lon="15.36711">
				<ele>421.1</ele>
				<time>2025-07-28T22:13:06.679Z</time>
			</trkpt>
			<trkpt lat="48.00624" lon="15.36709">
				<ele>421.42</ele>
				<time>2025-07-28T22:13:07.971Z</time>
			</trkpt>
			<trkpt lat="48.00604" lon="15.36712">
				<ele>422.9</ele>
				<time>2025-07-28T22:13:09.494Z</time>
			</trkpt>
			<trkpt lat="48.00581" lon="15.36724">
				<ele>428.09</ele>
				<time>2025-07-28T22:13:11.337Z</time>
			</trkpt>
			<trkpt lat="48.00529" lon="15.36754">
				<ele>435.51</ele>
				<time>2025-07-28T22:13:15.552Z</time>
			</trkpt>
			<trkpt lat="48.00512" lon="15.3676">
				<ele>433.22</ele>
				<time>2025-07-28T22:13:16.872Z</time>
			</trkpt>
			<trkpt lat="48.00495" lon="15.36762">
				<ele>431.35</ele>
				<time>2025-07-28T22:13:18.159Z</time>
			</trkpt>
			<trkpt lat="48.00479" lon="15.36762">
				<ele>430.66</ele>
				<time>2025-07-28T22:13:19.367Z</time>
			</trkpt>
			<trkpt lat="48.00463" lon="15.36758">
				<ele>428.74</ele>
				<time>2025-07-28T22:13:20.591Z</time>
			</trkpt>
			<trkpt lat="48.00448" lon="15.36752">
				<ele>426.73</ele>
				<time>2025-07-28T22:13:21.763Z</time>
			</trkpt>
			<trkpt lat="48.00428" lon="15.36739">
				<ele>425.73</ele>
				<time>2025-07-28T22:13:23.407Z</time>
			</trkpt>
			<trkpt lat="48.00395" lon="15.36703">
				<ele>420.92</ele>
				<time>2025-07-28T22:13:26.485Z</time>
			</trkpt>
			<trkpt lat="48.00366" lon="15.36663">
				<ele>416.48</ele>
				<time>2025-07-28T22:13:29.455Z</time>
			</trkpt>
			<trkpt lat="48.00355" lon="15.36646">
				<ele>416.25</ele>
				<time>2025-07-28T22:13:30.645Z</time>
			</trkpt>
			<trkpt lat="48.00346" lon="15.36627">
				<ele>416.02</ele>
				<time>2025-07-28T22:13:31.816Z</time>
			</trkpt>
			<trkpt lat="48.0034" lon="15.36609">
				<ele>416.03</ele>
				<time>2025-07-28T22:13:32.827Z</time>
			</trkpt>
			<trkpt lat="48.00336" lon="15.36588">
				<ele>415.77</ele>
				<time>2025-07-28T22:13:33.925Z</time>
			</trkpt>
			<trkpt lat="48.00331" lon="15.36534">
				<ele>415.21</ele>
				<time>2025-07-28T22:13:36.664Z</time>
			</trkpt>
			<trkpt lat="48.00322" lon="15.36486">
				<ele>418.97</ele>
				<time>2025-07-28T22:13:39.166Z</time>
			</trkpt>
			<trkpt lat="48.00316" lon="15.36465">
				<ele>420.5</ele>
				<time>2025-07-28T22:13:40.312Z</time>
			</trkpt>
			<trkpt lat="48.00306" lon="15.36444">
				<ele>419.45</ele>
				<time>2025-07-28T22:13:41.604Z</time>
			</trkpt>
			<trkpt lat="48.00294" lon="15.36425">
				<ele>417.45</ele>
				<time>2025-07-28T22:13:42.914Z</time>
			</trkpt>
			<trkpt lat="48.00279" lon="15.36408">
				<ele>413.73</ele>
				<time>2025-07-28T22:13:44.324Z</time>
			</trkpt>
			<trkpt lat="48.00253" lon="15.36391">
				<ele>415.61</ele>
				<time>2025-07-28T22:13:46.448Z</time>
			</trkpt>
			<trkpt lat="48.00216" lon="15.3638">
				<ele>418.73</ele>
				<time>2025-07-28T22:13:49.269Z</time>
			</trkpt>
			<trkpt lat="48.00171" lon="15.36374">
				<ele>429.3</ele>
				<time>2025-07-28T22:13:52.645Z</time>
			</trkpt>
			<trkpt lat="48.00149" lon="15.36367">
				<ele>432.69</ele>
				<time>2025-07-28T22:13:54.324Z</time>
			</trkpt>
			<trkpt lat="48.00112" lon="15.36349">
				<ele>436.46</ele>
				<time>2025-07-28T22:13:57.227Z</time>
			</trkpt>
			<trkpt lat="48.00098" lon="15.36338">
				<ele>435.67</ele>
				<time>2025-07-28T22:13:58.406Z</time>
			</trkpt>
			<trkpt lat="48.00074" lon="15.36315">
				<ele>430.11</ele>
				<time>2025-07-28T22:14:00.530Z</time>
			</trkpt>
			<trkpt lat="48.00046" lon="15.36278">
				<ele>426.01</ele>
				<time>2025-07-28T22:14:03.313Z</time>
			</trkpt>
			<trkpt lat="48.00034" lon="15.36256">
				<ele>425.71</ele>
				<time>2025-07-28T22:14:04.726Z</time>
			</trkpt>
			<trkpt lat="48.00022" lon="15.36231">
				<ele>423.73</ele>
				<time>2025-07-28T22:14:06.257Z</time>
			</trkpt>
			<trkpt lat="48.00014" lon="15.36207">
				<ele>423.76</ele>
				<time>2025-07-28T22:14:07.591Z</time>
			</trkpt>
			<trkpt lat="48" lon="15.36155">
				<ele>422.32</ele>
				<time>2025-07-28T22:14:10.377Z</time>
			</trkpt>
			<trkpt lat="47.99967" lon="15.35977">
				<ele>425.82</ele>
				<time>2025-07-28T22:14:19.541Z</time>
			</trkpt>
			<trkpt lat="47.99959" lon="15.35926">
				<ele>426.13</ele>
				<time>2025-07-28T22:14:22.135Z</time>
			</trkpt>
			<trkpt lat="47.99949" lon="15.35835">
				<ele>439.66</ele>
				<time>2025-07-28T22:14:26.697Z</time>
			</trkpt>
			<trkpt lat="47.99924" lon="15.35686">
				<ele>446.94</ele>
				<time>2025-07-28T22:14:34.281Z</time>
			</trkpt>
			<trkpt lat="47.99912" lon="15.35638">
				<ele>444.86</ele>
				<time>2025-07-28T22:14:36.807Z</time>
			</trkpt>
			<trkpt lat="47.99889" lon="15.35594">
				<ele>447.94</ele>
				<time>2025-07-28T22:14:39.557Z</time>
			</trkpt>
			<trkpt lat="47.99881" lon="15.35575">
				<ele>454.93</ele>
				<time>2025-07-28T22:14:40.662Z</time>
			</trkpt>
			<trkpt lat="47.99876" lon="15.35554">
				<ele>454.13</ele>
				<time>2025-07-28T22:14:41.759Z</time>
			</trkpt>
			<trkpt lat="47.99874" lon="15.35533">
				<ele>450.35</ele>
				<time>2025-07-28T22:14:42.803Z</time>
			</trkpt>
			<trkpt lat="47.99878" lon="15.35509">
				<ele>446.55</ele>
				<time>2025-07-28T22:14:44.019Z</time>
			</trkpt>
			<trkpt lat="47.99884" lon="15.35492">
				<ele>445.75</ele>
				<time>2025-07-28T22:14:44.964Z</time>
			</trkpt>
			<trkpt lat="47.99902" lon="15.35461">
				<ele>445</ele>
				<time>2025-07-28T22:14:46.980Z</time>
			</trkpt>
			<trkpt lat="47.9991" lon="15.35444">
				<ele>442.31</ele>
				<time>2025-07-28T22:14:48.001Z</time>
			</trkpt>
			<trkpt lat="47.99916" lon="15.35422">
				<ele>438.78</ele>
				<time>2025-07-28T22:14:49.167Z</time>
			</trkpt>
			<trkpt lat="47.99918" lon="15.35404">
				<ele>436.6</ele>
				<time>2025-07-28T22:14:50.063Z</time>
			</trkpt>
			<trkpt lat="47.99918" lon="15.35373">
				<ele>435.13</ele>
				<time>2025-07-28T22:14:51.584Z</time>
			</trkpt>
			<trkpt lat="47.99914" lon="15.35354">
				<ele>435.09</ele>
				<time>2025-07-28T22:14:52.560Z</time>
			</trkpt>
			<trkpt lat="47.99904" lon="15.35321">
				<ele>435.89</ele>
				<time>2025-07-28T22:14:54.336Z</time>
			</trkpt>
			<trkpt lat="47.99898" lon="15.3531">
				<ele>435.41</ele>
				<time>2025-07-28T22:14:55.031Z</time>
			</trkpt>
			<trkpt lat="47.99884" lon="15.35293">
				<ele>435.9</ele>
				<time>2025-07-28T22:14:56.352Z</time>
			</trkpt>
			<trkpt lat="47.99869" lon="15.3528">
				<ele>438.04</ele>
				<time>2025-07-28T22:14:57.621Z</time>
			</trkpt>
			<trkpt lat="47.99856" lon="15.35273">
				<ele>440.47</ele>
				<time>2025-07-28T22:14:58.632Z</time>
			</trkpt>
			<trkpt lat="47.99843" lon="15.3527">
				<ele>444.85</ele>
				<time>2025-07-28T22:14:59.594Z</time>
			</trkpt>
			<trkpt lat="47.99826" lon="15.35276">
				<ele>449.31</ele>
				<time>2025-07-28T22:15:00.871Z</time>
			</trkpt>
			<trkpt lat="47.99816" lon="15.3529">
				<ele>451.31</ele>
				<time>2025-07-28T22:15:01.872Z</time>
			</trkpt>
			<trkpt lat="47.99811" lon="15.35303">
				<ele>450.26</ele>
				<time>2025-07-28T22:15:02.605Z</time>
			</trkpt>
			<trkpt lat="47.9981" lon="15.35318">
				<ele>448.03</ele>
				<time>2025-07-28T22:15:03.342Z</time>
			</trkpt>
			<trkpt lat="47.99818" lon="15.35415">
				<ele>442.46</ele>
				<time>2025-07-28T22:15:08.114Z</time>
			</trkpt>
			<trkpt lat="47.99818" lon="15.35435">
				<ele>442.85</ele>
				<time>2025-07-28T22:15:09.090Z</time>
			</trkpt>
			<trkpt lat="47.99813" lon="15.35465">
				<ele>444.19</ele>
				<time>2025-07-28T22:15:10.598Z</time>
			</trkpt>
			<trkpt lat="47.99801" lon="15.3549">
				<ele>449.26</ele>
				<time>2025-07-28T22:15:12.098Z</time>
			</trkpt>
			<trkpt lat="47.99793" lon="15.355">
				<ele>451.34</ele>
				<time>2025-07-28T22:15:12.857Z</time>
			</trkpt>
			<trkpt lat="47.99783" lon="15.35505">
				<ele>452.68</ele>
				<time>2025-07-28T22:15:13.625Z</time>
			</trkpt>
			<trkpt lat="47.99772" lon="15.35506">
				<ele>452.67</ele>
				<time>2025-07-28T22:15:14.427Z</time>
			</trkpt>
			<trkpt lat="47.99757" lon="15.355">
				<ele>449.73</ele>
				<time>2025-07-28T22:15:15.557Z</time>
			</trkpt>
			<trkpt lat="47.99632" lon="15.35402">
				<ele>439.66</ele>
				<time>2025-07-28T22:15:25.811Z</time>
			</trkpt>
			<trkpt lat="47.99576" lon="15.35372">
				<ele>434.04</ele>
				<time>2025-07-28T22:15:30.123Z</time>
			</trkpt>
			<trkpt lat="47.99555" lon="15.35365">
				<ele>426.92</ele>
				<time>2025-07-28T22:15:31.681Z</time>
			</trkpt>
			<trkpt lat="47.99485" lon="15.35353">
				<ele>426.18</ele>
				<time>2025-07-28T22:15:36.778Z</time>
			</trkpt>
			<trkpt lat="47.99461" lon="15.35352">
				<ele>428.11</ele>
				<time>2025-07-28T22:15:38.513Z</time>
			</trkpt>
			<trkpt lat="47.9944" lon="15.35355">
				<ele>429.48</ele>
				<time>2025-07-28T22:15:40.036Z</time>
			</trkpt>
			<trkpt lat="47.99424" lon="15.35364">
				<ele>429.62</ele>
				<time>2025-07-28T22:15:41.270Z</time>
			</trkpt>
			<trkpt lat="47.99415" lon="15.35373">
				<ele>430.47</ele>
				<time>2025-07-28T22:15:42.052Z</time>
			</trkpt>
			<trkpt lat="47.99402" lon="15.35393">
				<ele>433.04</ele>
				<time>2025-07-28T22:15:43.398Z</time>
			</trkpt>
			<trkpt lat="47.99394" lon="15.35412">
				<ele>434.8</ele>
				<time>2025-07-28T22:15:44.482Z</time>
			</trkpt>
			<trkpt lat="47.99313" lon="15.3567">
				<ele>447.14</ele>
				<time>2025-07-28T22:15:58.206Z</time>
			</trkpt>
			<trkpt lat="47.99304" lon="15.35695">
				<ele>448.3</ele>
				<time>2025-07-28T22:15:59.569Z</time>
			</trkpt>
			<trkpt lat="47.99291" lon="15.35721">
				<ele>451.99</ele>
				<time>2025-07-28T22:16:01.128Z</time>
			</trkpt>
			<trkpt lat="47.99278" lon="15.35738">
				<ele>453.18</ele>
				<time>2025-07-28T22:16:02.367Z</time>
			</trkpt>
			<trkpt lat="47.99264" lon="15.35744">
				<ele>452.08</ele>
				<time>2025-07-28T22:16:03.412Z</time>
			</trkpt>
			<trkpt lat="47.99254" lon="15.35743">
				<ele>450.1</ele>
				<time>2025-07-28T22:16:04.130Z</time>
			</trkpt>
			<trkpt lat="47.99207" lon="15.35728">
				<ele>445.99</ele>
				<time>2025-07-28T22:16:07.574Z</time>
			</trkpt>
			<trkpt lat="47.99189" lon="15.3573">
				<ele>444.13</ele>
				<time>2025-07-28T22:16:08.866Z</time>
			</trkpt>
			<trkpt lat="47.99156" lon="15.35742">
				<ele>436.32</ele>
				<time>2025-07-28T22:16:11.296Z</time>
			</trkpt>
			<trkpt lat="47.99128" lon="15.35749">
				<ele>433.48</ele>
				<time>2025-07-28T22:16:13.326Z</time>
			</trkpt>
			<trkpt lat="47.99115" lon="15.35749">
				<ele>433.92</ele>
				<time>2025-07-28T22:16:14.255Z</time>
			</trkpt>
			<trkpt lat="47.99099" lon="15.35745">
				<ele>434.15</ele>
				<time>2025-07-28T22:16:15.414Z</time>
			</trkpt>
			<trkpt lat="47.99079" lon="15.35734">
				<ele>434.57</ele>
				<time>2025-07-28T22:16:16.936Z</time>
			</trkpt>
			<trkpt lat="47.99068" lon="15.35717">
				<ele>436.16</ele>
				<time>2025-07-28T22:16:18.066Z</time>
			</trkpt>
			<trkpt lat="47.99063" lon="15.35701">
				<ele>438.74</ele>
				<time>2025-07-28T22:16:18.910Z</time>
			</trkpt>
			<trkpt lat="47.99058" lon="15.35671">
				<ele>444.84</ele>
				<time>2025-07-28T22:16:20.386Z</time>
			</trkpt>
			<trkpt lat="47.99058" lon="15.35633">
				<ele>452.58</ele>
				<time>2025-07-28T22:16:22.199Z</time>
			</trkpt>
			<trkpt lat="47.99064" lon="15.35597">
				<ele>458.21</ele>
				<time>2025-07-28T22:16:23.969Z</time>
			</trkpt>
			<trkpt lat="47.9907" lon="15.35578">
				<ele>460.88</ele>
				<time>2025-07-28T22:16:24.971Z</time>
			</trkpt>
			<trkpt lat="47.99083" lon="15.35546">
				<ele>464.75</ele>
				<time>2025-07-28T22:16:26.755Z</time>
			</trkpt>
			<trkpt lat="47.99087" lon="15.35523">
				<ele>469.5</ele>
				<time>2025-07-28T22:16:27.887Z</time>
			</trkpt>
			<trkpt lat="47.99087" lon="15.35497">
				<ele>472.7</ele>
				<time>2025-07-28T22:16:29.125Z</time>
			</trkpt>
			<trkpt lat="47.99083" lon="15.35473">
				<ele>472.01</ele>
				<time>2025-07-28T22:16:30.302Z</time>
			</trkpt>
			<trkpt lat="47.99075" lon="15.35448">
				<ele>470.69</ele>
				<time>2025-07-28T22:16:31.621Z</time>
			</trkpt>
			<trkpt lat="47.99058" lon="15.35411">
				<ele>468.93</ele>
				<time>2025-07-28T22:16:33.756Z</time>
			</trkpt>
			<trkpt lat="47.99022" lon="15.35353">
				<ele>464.31</ele>
				<time>2025-07-28T22:16:37.515Z</time>
			</trkpt>
			<trkpt lat="47.99006" lon="15.35331">
				<ele>461</ele>
				<time>2025-07-28T22:16:39.058Z</time>
			</trkpt>
			<trkpt lat="47.98987" lon="15.35314">
				<ele>457.24</ele>
				<time>2025-07-28T22:16:40.628Z</time>
			</trkpt>
			<trkpt lat="47.98974" lon="15.35311">
				<ele>453.44</ele>
				<time>2025-07-28T22:16:41.561Z</time>
			</trkpt>
			<trkpt lat="47.98966" lon="15.35311">
				<ele>451.98</ele>
				<time>2025-07-28T22:16:42.128Z</time>
			</trkpt>
			<trkpt lat="47.98952" lon="15.35316">
				<ele>449.44</ele>
				<time>2025-07-28T22:16:43.148Z</time>
			</trkpt>
			<trkpt lat="47.98902" lon="15.35342">
				<ele>444.8</ele>
				<time>2025-07-28T22:16:46.896Z</time>
			</trkpt>
			<trkpt lat="47.98878" lon="15.35347">
				<ele>442.68</ele>
				<time>2025-07-28T22:16:48.611Z</time>
			</trkpt>
			<trkpt lat="47.98857" lon="15.35345">
				<ele>440.43</ele>
				<time>2025-07-28T22:16:50.099Z</time>
			</trkpt>
			<trkpt lat="47.9884" lon="15.35342">
				<ele>440.04</ele>
				<time>2025-07-28T22:16:51.309Z</time>
			</trkpt>
			<trkpt lat="47.98819" lon="15.35331">
				<ele>439.97</ele>
				<time>2025-07-28T22:16:52.881Z</time>
			</trkpt>
			<trkpt lat="47.98805" lon="15.35319">
				<ele>440.5</ele>
				<time>2025-07-28T22:16:54.021Z</time>
			</trkpt>
			<trkpt lat="47.98786" lon="15.35295">
				<ele>442.6</ele>
				<time>2025-07-28T22:16:55.778Z</time>
			</trkpt>
			<trkpt lat="47.9877" lon="15.35262">
				<ele>444.47</ele>
				<time>2025-07-28T22:16:57.702Z</time>
			</trkpt>
			<trkpt lat="47.98744" lon="15.35193">
				<ele>444.32</ele>
				<time>2025-07-28T22:17:01.439Z</time>
			</trkpt>
			<trkpt lat="47.98729" lon="15.35142">
				<ele>443.94</ele>
				<time>2025-07-28T22:17:04.065Z</time>
			</trkpt>
			<trkpt lat="47.98721" lon="15.35096">
				<ele>444.6</ele>
				<time>2025-07-28T22:17:06.304Z</time>
			</trkpt>
			<trkpt lat="47.98719" lon="15.35051">
				<ele>446.38</ele>
				<time>2025-07-28T22:17:08.428Z</time>
			</trkpt>
			<trkpt lat="47.98722" lon="15.35007">
				<ele>449.21</ele>
				<time>2025-07-28T22:17:10.508Z</time>
			</trkpt>
			<trkpt lat="47.9873" lon="15.34969">
				<ele>451.22</ele>
				<time>2025-07-28T22:17:12.382Z</time>
			</trkpt>
			<trkpt lat="47.98744" lon="15.34931">
				<ele>450.01</ele>
				<time>2025-07-28T22:17:14.420Z</time>
			</trkpt>
			<trkpt lat="47.9876" lon="15.34891">
				<ele>451.39</ele>
				<time>2025-07-28T22:17:16.609Z</time>
			</trkpt>
			<trkpt lat="47.98768" lon="15.34865">
				<ele>451.47</ele>
				<time>2025-07-28T22:17:17.952Z</time>
			</trkpt>
			<trkpt lat="47.98774" lon="15.34839">
				<ele>450.54</ele>
				<time>2025-07-28T22:17:19.243Z</time>
			</trkpt>
			<trkpt lat="47.98778" lon="15.34793">
				<ele>446.6</ele>
				<time>2025-07-28T22:17:21.419Z</time>
			</trkpt>
			<trkpt lat="47.98782" lon="15.34525">
				<ele>446.26</ele>
				<time>2025-07-28T22:17:33.965Z</time>
			</trkpt>
			<trkpt lat="47.98781" lon="15.34484">
				<ele>446.48</ele>
				<time>2025-07-28T22:17:35.881Z</time>
			</trkpt>
			<trkpt lat="47.98775" lon="15.34446">
				<ele>445</ele>
				<time>2025-07-28T22:17:37.703Z</time>
			</trkpt>
			<trkpt lat="47.98764" lon="15.34414">
				<ele>443.93</ele>
				<time>2025-07-28T22:17:39.382Z</time>
			</trkpt>
			<trkpt lat="47.98737" lon="15.34354">
				<ele>442.33</ele>
				<time>2025-07-28T22:17:42.753Z</time>
			</trkpt>
			<trkpt lat="47.98729" lon="15.34318">
				<ele>443.39</ele>
				<time>2025-07-28T22:17:44.520Z</time>
			</trkpt>
			<trkpt lat="47.98693" lon="15.34074">
				<ele>454.46</ele>
				<time>2025-07-28T22:17:56.138Z</time>
			</trkpt>
			<trkpt lat="47.98685" lon="15.34035">
				<ele>456.12</ele>
				<time>2025-07-28T22:17:58.032Z</time>
			</trkpt>
			<trkpt lat="47.98677" lon="15.34">
				<ele>456.6</ele>
				<time>2025-07-28T22:17:59.747Z</time>
			</trkpt>
			<trkpt lat="47.98668" lon="15.33965">
				<ele>456.78</ele>
				<time>2025-07-28T22:18:01.486Z</time>
			</trkpt>
			<trkpt lat="47.98657" lon="15.33933">
				<ele>456.77</ele>
				<time>2025-07-28T22:18:03.153Z</time>
			</trkpt>
			<trkpt lat="47.98641" lon="15.33896">
				<ele>456.09</ele>
				<time>2025-07-28T22:18:05.193Z</time>
			</trkpt>
			<trkpt lat="47.98621" lon="15.33854">
				<ele>456.03</ele>
				<time>2025-07-28T22:18:07.579Z</time>
			</trkpt>
			<trkpt lat="47.98544" lon="15.33722">
				<ele>457.89</ele>
				<time>2025-07-28T22:18:15.672Z</time>
			</trkpt>
			<trkpt lat="47.98539" lon="15.3371">
				<ele>457.59</ele>
				<time>2025-07-28T22:18:16.325Z</time>
			</trkpt>
			<trkpt lat="47.98528" lon="15.33676">
				<ele>455.98</ele>
				<time>2025-07-28T22:18:18.068Z</time>
			</trkpt>
			<trkpt lat="47.98515" lon="15.33587">
				<ele>449.09</ele>
				<time>2025-07-28T22:18:22.268Z</time>
			</trkpt>
			<trkpt lat="47.98507" lon="15.33547">
				<ele>450.91</ele>
				<time>2025-07-28T22:18:24.192Z</time>
			</trkpt>
			<trkpt lat="47.98454" lon="15.33395">
				<ele>453.21</ele>
				<time>2025-07-28T22:18:32.078Z</time>
			</trkpt>
			<trkpt lat="47.98441" lon="15.33351">
				<ele>450.95</ele>
				<time>2025-07-28T22:18:34.287Z</time>
			</trkpt>
			<trkpt lat="47.98389" lon="15.33005">
				<ele>453.25</ele>
				<time>2025-07-28T22:18:50.540Z</time>
			</trkpt>
			<trkpt lat="47.98364" lon="15.32871">
				<ele>453.92</ele>
				<time>2025-07-28T22:18:56.895Z</time>
			</trkpt>
			<trkpt lat="47.98351" lon="15.3272">
				<ele>454.92</ele>
				<time>2025-07-28T22:19:03.839Z</time>
			</trkpt>
			<trkpt lat="47.98346" lon="15.32698">
				<ele>454.15</ele>
				<time>2025-07-28T22:19:04.898Z</time>
			</trkpt>
			<trkpt lat="47.9834" lon="15.32684">
				<ele>454.09</ele>
				<time>2025-07-28T22:19:05.655Z</time>
			</trkpt>
			<trkpt lat="47.98331" lon="15.32669">
				<ele>454.14</ele>
				<time>2025-07-28T22:19:06.572Z</time>
			</trkpt>
			<trkpt lat="47.98321" lon="15.32658">
				<ele>455.77</ele>
				<time>2025-07-28T22:19:07.417Z</time>
			</trkpt>
			<trkpt lat="47.98266" lon="15.32616">
				<ele>458.57</ele>
				<time>2025-07-28T22:19:11.615Z</time>
			</trkpt>
			<trkpt lat="47.9825" lon="15.32597">
				<ele>458.48</ele>
				<time>2025-07-28T22:19:13.003Z</time>
			</trkpt>
			<trkpt lat="47.98229" lon="15.32536">
				<ele>458.44</ele>
				<time>2025-07-28T22:19:16.120Z</time>
			</trkpt>
			<trkpt lat="47.98212" lon="15.32497">
				<ele>458.9</ele>
				<time>2025-07-28T22:19:18.233Z</time>
			</trkpt>
			<trkpt lat="47.98203" lon="15.32481">
				<ele>458.35</ele>
				<time>2025-07-28T22:19:19.182Z</time>
			</trkpt>
			<trkpt lat="47.98186" lon="15.32459">
				<ele>458</ele>
				<time>2025-07-28T22:19:20.706Z</time>
			</trkpt>
			<trkpt lat="47.98144" lon="15.32415">
				<ele>458</ele>
				<time>2025-07-28T22:19:24.181Z</time>
			</trkpt>
			<trkpt lat="47.98129" lon="15.32396">
				<ele>458.66</ele>
				<time>2025-07-28T22:19:25.512Z</time>
			</trkpt>
			<trkpt lat="47.98118" lon="15.32377">
				<ele>458.99</ele>
				<time>2025-07-28T22:19:26.650Z</time>
			</trkpt>
			<trkpt lat="47.98104" lon="15.32347">
				<ele>458.46</ele>
				<time>2025-07-28T22:19:28.306Z</time>
			</trkpt>
			<trkpt lat="47.98072" lon="15.32249">
				<ele>457.62</ele>
				<time>2025-07-28T22:19:33.240Z</time>
			</trkpt>
			<trkpt lat="47.98056" lon="15.32213">
				<ele>458.3</ele>
				<time>2025-07-28T22:19:35.193Z</time>
			</trkpt>
			<trkpt lat="47.98047" lon="15.32197">
				<ele>458.9</ele>
				<time>2025-07-28T22:19:36.137Z</time>
			</trkpt>
			<trkpt lat="47.98007" lon="15.32144">
				<ele>459.73</ele>
				<time>2025-07-28T22:19:39.744Z</time>
			</trkpt>
			<trkpt lat="47.97948" lon="15.32053">
				<ele>460.95</ele>
				<time>2025-07-28T22:19:45.458Z</time>
			</trkpt>
			<trkpt lat="47.97938" lon="15.32029">
				<ele>460.67</ele>
				<time>2025-07-28T22:19:46.732Z</time>
			</trkpt>
			<trkpt lat="47.97925" lon="15.31967">
				<ele>463.46</ele>
				<time>2025-07-28T22:19:49.659Z</time>
			</trkpt>
			<trkpt lat="47.97917" lon="15.31923">
				<ele>464.78</ele>
				<time>2025-07-28T22:19:51.711Z</time>
			</trkpt>
			<trkpt lat="47.97913" lon="15.31861">
				<ele>469.72</ele>
				<time>2025-07-28T22:19:54.513Z</time>
			</trkpt>
			<trkpt lat="47.97907" lon="15.31804">
				<ele>471.05</ele>
				<time>2025-07-28T22:19:57.106Z</time>
			</trkpt>
			<trkpt lat="47.97899" lon="15.3176">
				<ele>475.93</ele>
				<time>2025-07-28T22:19:59.155Z</time>
			</trkpt>
			<trkpt lat="47.97885" lon="15.31707">
				<ele>477.08</ele>
				<time>2025-07-28T22:20:01.713Z</time>
			</trkpt>
			<trkpt lat="47.97842" lon="15.31573">
				<ele>467.83</ele>
				<time>2025-07-28T22:20:08.377Z</time>
			</trkpt>
			<trkpt lat="47.97826" lon="15.31508">
				<ele>468.55</ele>
				<time>2025-07-28T22:20:11.479Z</time>
			</trkpt>
			<trkpt lat="47.97776" lon="15.31253">
				<ele>469.92</ele>
				<time>2025-07-28T22:20:23.359Z</time>
			</trkpt>
			<trkpt lat="47.9775" lon="15.31143">
				<ele>468.7</ele>
				<time>2025-07-28T22:20:28.563Z</time>
			</trkpt>
			<trkpt lat="47.97738" lon="15.31104">
				<ele>472.54</ele>
				<time>2025-07-28T22:20:30.477Z</time>
			</trkpt>
			<trkpt lat="47.97711" lon="15.3102">
				<ele>474.79</ele>
				<time>2025-07-28T22:20:34.627Z</time>
			</trkpt>
			<trkpt lat="47.97696" lon="15.30981">
				<ele>471.06</ele>
				<time>2025-07-28T22:20:36.629Z</time>
			</trkpt>
			<trkpt lat="47.97671" lon="15.30936">
				<ele>475.43</ele>
				<time>2025-07-28T22:20:39.230Z</time>
			</trkpt>
			<trkpt lat="47.97654" lon="15.30912">
				<ele>476</ele>
				<time>2025-07-28T22:20:40.784Z</time>
			</trkpt>
			<trkpt lat="47.97635" lon="15.3089">
				<ele>474.07</ele>
				<time>2025-07-28T22:20:42.380Z</time>
			</trkpt>
			<trkpt lat="47.97528" lon="15.30796">
				<ele>485.59</ele>
				<time>2025-07-28T22:20:50.611Z</time>
			</trkpt>
			<trkpt lat="47.97514" lon="15.30786">
				<ele>492.59</ele>
				<time>2025-07-28T22:20:51.639Z</time>
			</trkpt>
			<trkpt lat="47.97499" lon="15.3078">
				<ele>499.1</ele>
				<time>2025-07-28T22:20:52.667Z</time>
			</trkpt>
			<trkpt lat="47.97478" lon="15.30776">
				<ele>500.6</ele>
				<time>2025-07-28T22:20:54.069Z</time>
			</trkpt>
			<trkpt lat="47.97437" lon="15.3078">
				<ele>499.98</ele>
				<time>2025-07-28T22:20:56.788Z</time>
			</trkpt>
			<trkpt lat="47.97421" lon="15.30779">
				<ele>502.35</ele>
				<time>2025-07-28T22:20:57.847Z</time>
			</trkpt>
			<trkpt lat="47.97408" lon="15.30775">
				<ele>502.75</ele>
				<time>2025-07-28T22:20:58.724Z</time>
			</trkpt>
			<trkpt lat="47.97368" lon="15.30758">
				<ele>507.18</ele>
				<time>2025-07-28T22:21:01.473Z</time>
			</trkpt>
			<trkpt lat="47.97355" lon="15.30756">
				<ele>507.75</ele>
				<time>2025-07-28T22:21:02.337Z</time>
			</trkpt>
			<trkpt lat="47.97343" lon="15.30756">
				<ele>505.91</ele>
				<time>2025-07-28T22:21:03.129Z</time>
			</trkpt>
			<trkpt lat="47.97299" lon="15.30764">
				<ele>499.67</ele>
				<time>2025-07-28T22:21:06.056Z</time>
			</trkpt>
			<trkpt lat="47.97284" lon="15.30764">
				<ele>499.95</ele>
				<time>2025-07-28T22:21:07.046Z</time>
			</trkpt>
			<trkpt lat="47.97261" lon="15.30759">
				<ele>498.98</ele>
				<time>2025-07-28T22:21:08.579Z</time>
			</trkpt>
			<trkpt lat="47.97241" lon="15.30751">
				<ele>496.28</ele>
				<time>2025-07-28T22:21:09.945Z</time>
			</trkpt>
			<trkpt lat="47.97204" lon="15.3073">
				<ele>490.62</ele>
				<time>2025-07-28T22:21:12.554Z</time>
			</trkpt>
			<trkpt lat="47.97156" lon="15.30698">
				<ele>493.11</ele>
				<time>2025-07-28T22:21:16.017Z</time>
			</trkpt>
			<trkpt lat="47.97125" lon="15.30681">
				<ele>495.29</ele>
				<time>2025-07-28T22:21:18.191Z</time>
			</trkpt>
			<trkpt lat="47.9709" lon="15.30669">
				<ele>497.39</ele>
				<time>2025-07-28T22:21:20.553Z</time>
			</trkpt>
			<trkpt lat="47.97052" lon="15.30664">
				<ele>503.98</ele>
				<time>2025-07-28T22:21:23.062Z</time>
			</trkpt>
			<trkpt lat="47.97009" lon="15.30666">
				<ele>501.63</ele>
				<time>2025-07-28T22:21:25.889Z</time>
			</trkpt>
			<trkpt lat="47.96967" lon="15.30671">
				<ele>494.64</ele>
				<time>2025-07-28T22:21:28.657Z</time>
			</trkpt>
			<trkpt lat="47.96825" lon="15.30705">
				<ele>493.64</ele>
				<time>2025-07-28T22:21:38.089Z</time>
			</trkpt>
			<trkpt lat="47.96797" lon="15.30707">
				<ele>497.2</ele>
				<time>2025-07-28T22:21:39.925Z</time>
			</trkpt>
			<trkpt lat="47.96751" lon="15.30707">
				<ele>498.98</ele>
				<time>2025-07-28T22:21:42.936Z</time>
			</trkpt>
			<trkpt lat="47.96734" lon="15.3071">
				<ele>499.33</ele>
				<time>2025-07-28T22:21:44.057Z</time>
			</trkpt>
			<trkpt lat="47.9672" lon="15.30715">
				<ele>498.96</ele>
				<time>2025-07-28T22:21:44.998Z</time>
			</trkpt>
			<trkpt lat="47.96674" lon="15.30744">
				<ele>495.33</ele>
				<time>2025-07-28T22:21:48.263Z</time>
			</trkpt>
			<trkpt lat="47.96658" lon="15.3075">
				<ele>493.97</ele>
				<time>2025-07-28T22:21:49.342Z</time>
			</trkpt>
			<trkpt lat="47.96586" lon="15.30751">
				<ele>494.04</ele>
				<time>2025-07-28T22:21:54.045Z</time>
			</trkpt>
			<trkpt lat="47.96551" lon="15.30756">
				<ele>494.84</ele>
				<time>2025-07-28T22:21:56.340Z</time>
			</trkpt>
			<trkpt lat="47.96514" lon="15.30764">
				<ele>493.97</ele>
				<time>2025-07-28T22:21:58.778Z</time>
			</trkpt>
			<trkpt lat="47.96497" lon="15.30765">
				<ele>493.6</ele>
				<time>2025-07-28T22:21:59.888Z</time>
			</trkpt>
			<trkpt lat="47.9648" lon="15.30763">
				<ele>491.91</ele>
				<time>2025-07-28T22:22:00.999Z</time>
			</trkpt>
			<trkpt lat="47.96467" lon="15.30758">
				<ele>491.33</ele>
				<time>2025-07-28T22:22:01.874Z</time>
			</trkpt>
			<trkpt lat="47.96457" lon="15.30753">
				<ele>491.37</ele>
				<time>2025-07-28T22:22:02.562Z</time>
			</trkpt>
			<trkpt lat="47.96444" lon="15.3074">
				<ele>491.67</ele>
				<time>2025-07-28T22:22:03.581Z</time>
			</trkpt>
			<trkpt lat="47.96432" lon="15.30724">
				<ele>492.89</ele>
				<time>2025-07-28T22:22:04.629Z</time>
			</trkpt>
			<trkpt lat="47.9642" lon="15.30702">
				<ele>493.8</ele>
				<time>2025-07-28T22:22:05.866Z</time>
			</trkpt>
			<trkpt lat="47.96411" lon="15.30678">
				<ele>494.72</ele>
				<time>2025-07-28T22:22:07.066Z</time>
			</trkpt>
			<trkpt lat="47.96401" lon="15.30641">
				<ele>495.83</ele>
				<time>2025-07-28T22:22:08.804Z</time>
			</trkpt>
			<trkpt lat="47.96315" lon="15.30251">
				<ele>499.38</ele>
				<time>2025-07-28T22:22:26.662Z</time>
			</trkpt>
			<trkpt lat="47.96301" lon="15.30183">
				<ele>499.31</ele>
				<time>2025-07-28T22:22:29.750Z</time>
			</trkpt>
			<trkpt lat="47.96294" lon="15.30136">
				<ele>500.5</ele>
				<time>2025-07-28T22:22:31.838Z</time>
			</trkpt>
			<trkpt lat="47.96291" lon="15.30099">
				<ele>501.47</ele>
				<time>2025-07-28T22:22:33.454Z</time>
			</trkpt>
			<trkpt lat="47.96293" lon="15.30032">
				<ele>502.05</ele>
				<time>2025-07-28T22:22:36.360Z</time>
			</trkpt>
			<trkpt lat="47.96301" lon="15.29951">
				<ele>503.19</ele>
				<time>2025-07-28T22:22:39.906Z</time>
			</trkpt>
			<trkpt lat="47.96314" lon="15.29868">
				<ele>506.23</ele>
				<time>2025-07-28T22:22:43.595Z</time>
			</trkpt>
			<trkpt lat="47.96336" lon="15.29772">
				<ele>507.42</ele>
				<time>2025-07-28T22:22:47.982Z</time>
			</trkpt>
			<trkpt lat="47.96342" lon="15.29732">
				<ele>511.4</ele>
				<time>2025-07-28T22:22:49.754Z</time>
			</trkpt>
			<trkpt lat="47.96344" lon="15.29705">
				<ele>513.51</ele>
				<time>2025-07-28T22:22:50.927Z</time>
			</trkpt>
			<trkpt lat="47.96344" lon="15.2962">
				<ele>517.73</ele>
				<time>2025-07-28T22:22:54.597Z</time>
			</trkpt>
			<trkpt lat="47.96346" lon="15.29593">
				<ele>516.95</ele>
				<time>2025-07-28T22:22:55.770Z</time>
			</trkpt>
			<trkpt lat="47.9635" lon="15.29565">
				<ele>517.25</ele>
				<time>2025-07-28T22:22:57.005Z</time>
			</trkpt>
			<trkpt lat="47.96359" lon="15.29522">
				<ele>515.76</ele>
				<time>2025-07-28T22:22:58.948Z</time>
			</trkpt>
			<trkpt lat="47.96396" lon="15.29382">
				<ele>517.77</ele>
				<time>2025-07-28T22:23:05.435Z</time>
			</trkpt>
			<trkpt lat="47.96404" lon="15.29333">
				<ele>520.04</ele>
				<time>2025-07-28T22:23:07.607Z</time>
			</trkpt>
			<trkpt lat="47.96407" lon="15.29293">
				<ele>516.01</ele>
				<time>2025-07-28T22:23:09.339Z</time>
			</trkpt>
			<trkpt lat="47.96405" lon="15.29259">
				<ele>511.64</ele>
				<time>2025-07-28T22:23:10.808Z</time>
			</trkpt>
			<trkpt lat="47.96394" lon="15.29209">
				<ele>512.56</ele>
				<time>2025-07-28T22:23:13.072Z</time>
			</trkpt>
			<trkpt lat="47.96379" lon="15.29166">
				<ele>513.32</ele>
				<time>2025-07-28T22:23:15.157Z</time>
			</trkpt>
			<trkpt lat="47.96363" lon="15.29133">
				<ele>510.59</ele>
				<time>2025-07-28T22:23:16.908Z</time>
			</trkpt>
			<trkpt lat="47.96332" lon="15.29085">
				<ele>519.89</ele>
				<time>2025-07-28T22:23:19.773Z</time>
			</trkpt>
			<trkpt lat="47.96306" lon="15.29058">
				<ele>528.4</ele>
				<time>2025-07-28T22:23:21.804Z</time>
			</trkpt>
			<trkpt lat="47.96283" lon="15.29042">
				<ele>527.1</ele>
				<time>2025-07-28T22:23:23.431Z</time>
			</trkpt>
			<trkpt lat="47.96259" lon="15.29035">
				<ele>528.88</ele>
				<time>2025-07-28T22:23:24.998Z</time>
			</trkpt>
			<trkpt lat="47.96234" lon="15.29038">
				<ele>532.72</ele>
				<time>2025-07-28T22:23:26.605Z</time>
			</trkpt>
			<trkpt lat="47.96212" lon="15.29049">
				<ele>535.18</ele>
				<time>2025-07-28T22:23:28.092Z</time>
			</trkpt>
			<trkpt lat="47.96169" lon="15.29087">
				<ele>533.07</ele>
				<time>2025-07-28T22:23:31.291Z</time>
			</trkpt>
			<trkpt lat="47.96158" lon="15.29093">
				<ele>530.78</ele>
				<time>2025-07-28T22:23:32.040Z</time>
			</trkpt>
			<trkpt lat="47.96144" lon="15.29097">
				<ele>527.71</ele>
				<time>2025-07-28T22:23:32.952Z</time>
			</trkpt>
			<trkpt lat="47.96121" lon="15.29095">
				<ele>524.35</ele>
				<time>2025-07-28T22:23:34.426Z</time>
			</trkpt>
			<trkpt lat="47.9611" lon="15.2909">
				<ele>522.95</ele>
				<time>2025-07-28T22:23:35.162Z</time>
			</trkpt>
			<trkpt lat="47.96099" lon="15.29081">
				<ele>522.35</ele>
				<time>2025-07-28T22:23:35.964Z</time>
			</trkpt>
			<trkpt lat="47.96088" lon="15.29068">
				<ele>522.62</ele>
				<time>2025-07-28T22:23:36.861Z</time>
			</trkpt>
			<trkpt lat="47.96079" lon="15.29055">
				<ele>523.35</ele>
				<time>2025-07-28T22:23:37.662Z</time>
			</trkpt>
			<trkpt lat="47.96072" lon="15.29035">
				<ele>527.61</ele>
				<time>2025-07-28T22:23:38.628Z</time>
			</trkpt>
			<trkpt lat="47.96067" lon="15.29011">
				<ele>531.47</ele>
				<time>2025-07-28T22:23:39.704Z</time>
			</trkpt>
			<trkpt lat="47.96061" lon="15.28961">
				<ele>534.8</ele>
				<time>2025-07-28T22:23:41.877Z</time>
			</trkpt>
			<trkpt lat="47.96054" lon="15.28921">
				<ele>535.96</ele>
				<time>2025-07-28T22:23:43.646Z</time>
			</trkpt>
			<trkpt lat="47.96047" lon="15.28902">
				<ele>537.59</ele>
				<time>2025-07-28T22:23:44.573Z</time>
			</trkpt>
			<trkpt lat="47.96035" lon="15.28877">
				<ele>537.42</ele>
				<time>2025-07-28T22:23:45.888Z</time>
			</trkpt>
			<trkpt lat="47.96021" lon="15.28857">
				<ele>536.33</ele>
				<time>2025-07-28T22:23:47.125Z</time>
			</trkpt>
			<trkpt lat="47.96004" lon="15.28837">
				<ele>534.28</ele>
				<time>2025-07-28T22:23:48.506Z</time>
			</trkpt>
			<trkpt lat="47.95862" lon="15.28689">
				<ele>523.88</ele>
				<time>2025-07-28T22:23:59.545Z</time>
			</trkpt>
			<trkpt lat="47.95835" lon="15.28658">
				<ele>521.45</ele>
				<time>2025-07-28T22:24:01.713Z</time>
			</trkpt>
			<trkpt lat="47.95817" lon="15.28631">
				<ele>521.74</ele>
				<time>2025-07-28T22:24:03.337Z</time>
			</trkpt>
			<trkpt lat="47.9581" lon="15.28616">
				<ele>522.39</ele>
				<time>2025-07-28T22:24:04.117Z</time>
			</trkpt>
			<trkpt lat="47.95805" lon="15.286">
				<ele>523.16</ele>
				<time>2025-07-28T22:24:04.869Z</time>
			</trkpt>
			<trkpt lat="47.95802" lon="15.28583">
				<ele>524.66</ele>
				<time>2025-07-28T22:24:05.618Z</time>
			</trkpt>
			<trkpt lat="47.958" lon="15.2856">
				<ele>525.72</ele>
				<time>2025-07-28T22:24:06.606Z</time>
			</trkpt>
			<trkpt lat="47.95803" lon="15.28509">
				<ele>535.72</ele>
				<time>2025-07-28T22:24:08.786Z</time>
			</trkpt>
			<trkpt lat="47.95816" lon="15.28414">
				<ele>553.61</ele>
				<time>2025-07-28T22:24:12.914Z</time>
			</trkpt>
			<trkpt lat="47.95825" lon="15.28368">
				<ele>558.17</ele>
				<time>2025-07-28T22:24:14.953Z</time>
			</trkpt>
			<trkpt lat="47.95842" lon="15.28315">
				<ele>561.56</ele>
				<time>2025-07-28T22:24:17.452Z</time>
			</trkpt>
			<trkpt lat="47.95878" lon="15.28224">
				<ele>569.54</ele>
				<time>2025-07-28T22:24:21.944Z</time>
			</trkpt>
			<trkpt lat="47.95895" lon="15.28177">
				<ele>576.73</ele>
				<time>2025-07-28T22:24:24.213Z</time>
			</trkpt>
			<trkpt lat="47.95904" lon="15.28137">
				<ele>578.34</ele>
				<time>2025-07-28T22:24:26.005Z</time>
			</trkpt>
			<trkpt lat="47.95912" lon="15.28079">
				<ele>583.45</ele>
				<time>2025-07-28T22:24:28.519Z</time>
			</trkpt>
			<trkpt lat="47.95923" lon="15.27991">
				<ele>590.74</ele>
				<time>2025-07-28T22:24:32.317Z</time>
			</trkpt>
			<trkpt lat="47.95927" lon="15.27945">
				<ele>594.08</ele>
				<time>2025-07-28T22:24:34.284Z</time>
			</trkpt>
			<trkpt lat="47.95931" lon="15.27897">
				<ele>596.09</ele>
				<time>2025-07-28T22:24:36.335Z</time>
			</trkpt>
			<trkpt lat="47.95931" lon="15.27858">
				<ele>597.29</ele>
				<time>2025-07-28T22:24:37.988Z</time>
			</trkpt>
			<trkpt lat="47.95929" lon="15.27831">
				<ele>598.9</ele>
				<time>2025-07-28T22:24:39.139Z</time>
			</trkpt>
			<trkpt lat="47.95915" lon="15.27735">
				<ele>603.33</ele>
				<time>2025-07-28T22:24:43.300Z</time>
			</trkpt>
			<trkpt lat="47.95906" lon="15.27652">
				<ele>602.78</ele>
				<time>2025-07-28T22:24:46.859Z</time>
			</trkpt>
			<trkpt lat="47.95897" lon="15.27608">
				<ele>601.91</ele>
				<time>2025-07-28T22:24:48.806Z</time>
			</trkpt>
			<trkpt lat="47.95885" lon="15.27572">
				<ele>599.18</ele>
				<time>2025-07-28T22:24:50.507Z</time>
			</trkpt>
			<trkpt lat="47.95865" lon="15.27533">
				<ele>593.31</ele>
				<time>2025-07-28T22:24:52.584Z</time>
			</trkpt>
			<trkpt lat="47.9582" lon="15.27464">
				<ele>590.17</ele>
				<time>2025-07-28T22:24:56.656Z</time>
			</trkpt>
			<trkpt lat="47.95793" lon="15.27431">
				<ele>594.71</ele>
				<time>2025-07-28T22:24:58.857Z</time>
			</trkpt>
			<trkpt lat="47.95765" lon="15.2741">
				<ele>597.12</ele>
				<time>2025-07-28T22:25:00.833Z</time>
			</trkpt>
			<trkpt lat="47.95733" lon="15.27398">
				<ele>597.36</ele>
				<time>2025-07-28T22:25:02.913Z</time>
			</trkpt>
			<trkpt lat="47.95716" lon="15.27397">
				<ele>597.38</ele>
				<time>2025-07-28T22:25:03.986Z</time>
			</trkpt>
			<trkpt lat="47.95696" lon="15.274">
				<ele>596.47</ele>
				<time>2025-07-28T22:25:05.253Z</time>
			</trkpt>
			<trkpt lat="47.95613" lon="15.27431">
				<ele>603.54</ele>
				<time>2025-07-28T22:25:10.642Z</time>
			</trkpt>
			<trkpt lat="47.95584" lon="15.27438">
				<ele>611.45</ele>
				<time>2025-07-28T22:25:12.492Z</time>
			</trkpt>
			<trkpt lat="47.95558" lon="15.27439">
				<ele>615.55</ele>
				<time>2025-07-28T22:25:14.129Z</time>
			</trkpt>
			<trkpt lat="47.95533" lon="15.27435">
				<ele>616.8</ele>
				<time>2025-07-28T22:25:15.712Z</time>
			</trkpt>
			<trkpt lat="47.95505" lon="15.27426">
				<ele>617.07</ele>
				<time>2025-07-28T22:25:17.514Z</time>
			</trkpt>
			<trkpt lat="47.95467" lon="15.27407">
				<ele>618.09</ele>
				<time>2025-07-28T22:25:20.034Z</time>
			</trkpt>
			<trkpt lat="47.95419" lon="15.27375">
				<ele>616.12</ele>
				<time>2025-07-28T22:25:23.339Z</time>
			</trkpt>
			<trkpt lat="47.95383" lon="15.27348">
				<ele>620.16</ele>
				<time>2025-07-28T22:25:25.871Z</time>
			</trkpt>
			<trkpt lat="47.95366" lon="15.27335">
				<ele>621.94</ele>
				<time>2025-07-28T22:25:27.071Z</time>
			</trkpt>
			<trkpt lat="47.95344" lon="15.27312">
				<ele>622.16</ele>
				<time>2025-07-28T22:25:28.758Z</time>
			</trkpt>
			<trkpt lat="47.95296" lon="15.27244">
				<ele>626.05</ele>
				<time>2025-07-28T22:25:32.913Z</time>
			</trkpt>
			<trkpt lat="47.95274" lon="15.27217">
				<ele>628.87</ele>
				<time>2025-07-28T22:25:34.701Z</time>
			</trkpt>
			<trkpt lat="47.95257" lon="15.272">
				<ele>629.67</ele>
				<time>2025-07-28T22:25:35.985Z</time>
			</trkpt>
			<trkpt lat="47.95206" lon="15.27158">
				<ele>632.54</ele>
				<time>2025-07-28T22:25:39.639Z</time>
			</trkpt>
			<trkpt lat="47.95188" lon="15.27138">
				<ele>635.54</ele>
				<time>2025-07-28T22:25:41.046Z</time>
			</trkpt>
			<trkpt lat="47.95163" lon="15.27096">
				<ele>637.54</ele>
				<time>2025-07-28T22:25:43.406Z</time>
			</trkpt>
			<trkpt lat="47.95151" lon="15.27068">
				<ele>638.04</ele>
				<time>2025-07-28T22:25:44.801Z</time>
			</trkpt>
			<trkpt lat="47.95139" lon="15.2703">
				<ele>637.18</ele>
				<time>2025-07-28T22:25:46.565Z</time>
			</trkpt>
			<trkpt lat="47.95133" lon="15.26996">
				<ele>637.48</ele>
				<time>2025-07-28T22:25:48.041Z</time>
			</trkpt>
			<trkpt lat="47.95128" lon="15.26949">
				<ele>637.28</ele>
				<time>2025-07-28T22:25:50.037Z</time>
			</trkpt>
			<trkpt lat="47.95129" lon="15.2691">
				<ele>636.47</ele>
				<time>2025-07-28T22:25:51.675Z</time>
			</trkpt>
			<trkpt lat="47.95134" lon="15.26862">
				<ele>638.42</ele>
				<time>2025-07-28T22:25:53.712Z</time>
			</trkpt>
			<trkpt lat="47.95149" lon="15.26742">
				<ele>640.05</ele>
				<time>2025-07-28T22:25:58.829Z</time>
			</trkpt>
			<trkpt lat="47.9516" lon="15.26634">
				<ele>644.67</ele>
				<time>2025-07-28T22:26:03.406Z</time>
			</trkpt>
			<trkpt lat="47.95166" lon="15.26548">
				<ele>648.23</ele>
				<time>2025-07-28T22:26:07.027Z</time>
			</trkpt>
			<trkpt lat="47.95167" lon="15.2648">
				<ele>650.85</ele>
				<time>2025-07-28T22:26:09.874Z</time>
			</trkpt>
			<trkpt lat="47.95162" lon="15.26421">
				<ele>653.89</ele>
				<time>2025-07-28T22:26:12.362Z</time>
			</trkpt>
			<trkpt lat="47.9515" lon="15.26367">
				<ele>657.91</ele>
				<time>2025-07-28T22:26:14.742Z</time>
			</trkpt>
			<trkpt lat="47.95138" lon="15.26328">
				<ele>659.28</ele>
				<time>2025-07-28T22:26:16.537Z</time>
			</trkpt>
			<trkpt lat="47.95114" lon="15.26279">
				<ele>662.66</ele>
				<time>2025-07-28T22:26:19.076Z</time>
			</trkpt>
			<trkpt lat="47.95091" lon="15.26241">
				<ele>665.81</ele>
				<time>2025-07-28T22:26:21.217Z</time>
			</trkpt>
			<trkpt lat="47.95065" lon="15.26214">
				<ele>667.65</ele>
				<time>2025-07-28T22:26:23.193Z</time>
			</trkpt>
			<trkpt lat="47.95058" lon="15.2624">
				<ele>667.81</ele>
				<time>2025-07-28T22:26:24.364Z</time>
			</trkpt>
			<trkpt lat="47.95044" lon="15.26282">
				<ele>670.56</ele>
				<time>2025-07-28T22:26:26.324Z</time>
			</trkpt>
			<trkpt lat="47.95009" lon="15.26362">
				<ele>676.35</ele>
				<time>2025-07-28T22:26:30.315Z</time>
			</trkpt>
			<trkpt lat="47.95002" lon="15.26386">
				<ele>675.76</ele>
				<time>2025-07-28T22:26:31.408Z</time>
			</trkpt>
			<trkpt lat="47.94998" lon="15.26412">
				<ele>675.76</ele>
				<time>2025-07-28T22:26:32.522Z</time>
			</trkpt>
			<trkpt lat="47.94987" lon="15.26544">
				<ele>677.84</ele>
				<time>2025-07-28T22:26:38.067Z</time>
			</trkpt>
			<trkpt lat="47.94981" lon="15.26578">
				<ele>678.44</ele>
				<time>2025-07-28T22:26:39.529Z</time>
			</trkpt>
			<trkpt lat="47.94972" lon="15.26607">
				<ele>680</ele>
				<time>2025-07-28T22:26:40.857Z</time>
			</trkpt>
			<trkpt lat="47.94951" lon="15.26659">
				<ele>689.78</ele>
				<time>2025-07-28T22:26:43.376Z</time>
			</trkpt>
			<trkpt lat="47.94939" lon="15.26696">
				<ele>694.11</ele>
				<time>2025-07-28T22:26:45.078Z</time>
			</trkpt>
			<trkpt lat="47.94926" lon="15.26748">
				<ele>697.32</ele>
				<time>2025-07-28T22:26:47.373Z</time>
			</trkpt>
			<trkpt lat="47.94908" lon="15.2684">
				<ele>697.16</ele>
				<time>2025-07-28T22:26:51.327Z</time>
			</trkpt>
			<trkpt lat="47.94899" lon="15.26865">
				<ele>699.83</ele>
				<time>2025-07-28T22:26:52.495Z</time>
			</trkpt>
			<trkpt lat="47.94881" lon="15.26907">
				<ele>704.16</ele>
				<time>2025-07-28T22:26:54.546Z</time>
			</trkpt>
			<trkpt lat="47.94838" lon="15.26994">
				<ele>711.73</ele>
				<time>2025-07-28T22:26:58.981Z</time>
			</trkpt>
			<trkpt lat="47.94827" lon="15.27027">
				<ele>712.62</ele>
				<time>2025-07-28T22:27:00.490Z</time>
			</trkpt>
			<trkpt lat="47.94812" lon="15.27078">
				<ele>720.23</ele>
				<time>2025-07-28T22:27:02.766Z</time>
			</trkpt>
			<trkpt lat="47.9481" lon="15.27099">
				<ele>721.71</ele>
				<time>2025-07-28T22:27:03.632Z</time>
			</trkpt>
			<trkpt lat="47.9481" lon="15.27118">
				<ele>721.44</ele>
				<time>2025-07-28T22:27:04.408Z</time>
			</trkpt>
			<trkpt lat="47.94814" lon="15.27164">
				<ele>718.69</ele>
				<time>2025-07-28T22:27:06.298Z</time>
			</trkpt>
			<trkpt lat="47.94818" lon="15.27191">
				<ele>716.84</ele>
				<time>2025-07-28T22:27:07.424Z</time>
			</trkpt>
			<trkpt lat="47.94826" lon="15.27224">
				<ele>715.09</ele>
				<time>2025-07-28T22:27:08.851Z</time>
			</trkpt>
			<trkpt lat="47.94869" lon="15.27309">
				<ele>713.68</ele>
				<time>2025-07-28T22:27:13.175Z</time>
			</trkpt>
			<trkpt lat="47.94871" lon="15.27316">
				<ele>714.6</ele>
				<time>2025-07-28T22:27:13.483Z</time>
			</trkpt>
			<trkpt lat="47.94871" lon="15.27331">
				<ele>716.9</ele>
				<time>2025-07-28T22:27:14.091Z</time>
			</trkpt>
			<trkpt lat="47.94865" lon="15.27346">
				<ele>721.15</ele>
				<time>2025-07-28T22:27:14.798Z</time>
			</trkpt>
			<trkpt lat="47.94857" lon="15.27352">
				<ele>723.63</ele>
				<time>2025-07-28T22:27:15.339Z</time>
			</trkpt>
			<trkpt lat="47.94852" lon="15.27352">
				<ele>724.43</ele>
				<time>2025-07-28T22:27:15.641Z</time>
			</trkpt>
			<trkpt lat="47.94842" lon="15.27347">
				<ele>724.95</ele>
				<time>2025-07-28T22:27:16.277Z</time>
			</trkpt>
			<trkpt lat="47.94837" lon="15.27341">
				<ele>724.76</ele>
				<time>2025-07-28T22:27:16.664Z</time>
			</trkpt>
			<trkpt lat="47.94825" lon="15.27319">
				<ele>723.84</ele>
				<time>2025-07-28T22:27:17.811Z</time>
			</trkpt>
			<trkpt lat="47.94788" lon="15.27241">
				<ele>727.51</ele>
				<time>2025-07-28T22:27:21.665Z</time>
			</trkpt>
			<trkpt lat="47.94777" lon="15.27214">
				<ele>730.64</ele>
				<time>2025-07-28T22:27:22.937Z</time>
			</trkpt>
			<trkpt lat="47.94765" lon="15.2718">
				<ele>735.77</ele>
				<time>2025-07-28T22:27:24.482Z</time>
			</trkpt>
			<trkpt lat="47.94755" lon="15.27138">
				<ele>739.32</ele>
				<time>2025-07-28T22:27:26.272Z</time>
			</trkpt>
			<trkpt lat="47.94748" lon="15.2709">
				<ele>743.36</ele>
				<time>2025-07-28T22:27:28.242Z</time>
			</trkpt>
			<trkpt lat="47.94745" lon="15.27046">
				<ele>744.53</ele>
				<time>2025-07-28T22:27:30.013Z</time>
			</trkpt>
			<trkpt lat="47.94746" lon="15.27019">
				<ele>744.42</ele>
				<time>2025-07-28T22:27:31.095Z</time>
			</trkpt>
			<trkpt lat="47.94751" lon="15.26994">
				<ele>746.47</ele>
				<time>2025-07-28T22:27:32.138Z</time>
			</trkpt>
			<trkpt lat="47.9477" lon="15.26936">
				<ele>748.16</ele>
				<time>2025-07-28T22:27:34.716Z</time>
			</trkpt>
			<trkpt lat="47.94776" lon="15.26903">
				<ele>748.21</ele>
				<time>2025-07-28T22:27:36.079Z</time>
			</trkpt>
			<trkpt lat="47.94787" lon="15.26733">
				<ele>755.26</ele>
				<time>2025-07-28T22:27:42.867Z</time>
			</trkpt>
			<trkpt lat="47.94787" lon="15.26721">
				<ele>755.17</ele>
				<time>2025-07-28T22:27:43.343Z</time>
			</trkpt>
			<trkpt lat="47.94784" lon="15.26699">
				<ele>755.14</ele>
				<time>2025-07-28T22:27:44.232Z</time>
			</trkpt>
			<trkpt lat="47.94778" lon="15.26684">
				<ele>755.59</ele>
				<time>2025-07-28T22:27:44.924Z</time>
			</trkpt>
			<trkpt lat="47.94767" lon="15.26675">
				<ele>757.79</ele>
				<time>2025-07-28T22:27:45.666Z</time>
			</trkpt>
			<trkpt lat="47.94756" lon="15.26676">
				<ele>760.74</ele>
				<time>2025-07-28T22:27:46.316Z</time>
			</trkpt>
			<trkpt lat="47.94746" lon="15.26685">
				<ele>763.74</ele>
				<time>2025-07-28T22:27:47.006Z</time>
			</trkpt>
			<trkpt lat="47.94736" lon="15.26704">
				<ele>766.75</ele>
				<time>2025-07-28T22:27:47.961Z</time>
			</trkpt>
			<trkpt lat="47.94688" lon="15.26894">
				<ele>774.84</ele>
				<time>2025-07-28T22:27:55.959Z</time>
			</trkpt>
			<trkpt lat="47.94665" lon="15.2699">
				<ele>781</ele>
				<time>2025-07-28T22:27:59.958Z</time>
			</trkpt>
			<trkpt lat="47.94659" lon="15.27042">
				<ele>786.13</ele>
				<time>2025-07-28T22:28:02.024Z</time>
			</trkpt>
			<trkpt lat="47.94645" lon="15.27185">
				<ele>795.47</ele>
				<time>2025-07-28T22:28:07.664Z</time>
			</trkpt>
			<trkpt lat="47.94639" lon="15.27221">
				<ele>796.95</ele>
				<time>2025-07-28T22:28:09.109Z</time>
			</trkpt>
			<trkpt lat="47.9463" lon="15.27241">
				<ele>798.9</ele>
				<time>2025-07-28T22:28:10.046Z</time>
			</trkpt>
			<trkpt lat="47.94617" lon="15.27256">
				<ele>800.68</ele>
				<time>2025-07-28T22:28:11.000Z</time>
			</trkpt>
			<trkpt lat="47.94599" lon="15.27266">
				<ele>801.47</ele>
				<time>2025-07-28T22:28:12.114Z</time>
			</trkpt>
			<trkpt lat="47.94581" lon="15.27271">
				<ele>801.47</ele>
				<time>2025-07-28T22:28:13.175Z</time>
			</trkpt>
			<trkpt lat="47.94562" lon="15.27269">
				<ele>800.3</ele>
				<time>2025-07-28T22:28:14.278Z</time>
			</trkpt>
			<trkpt lat="47.94543" lon="15.27258">
				<ele>801.33</ele>
				<time>2025-07-28T22:28:15.457Z</time>
			</trkpt>
			<trkpt lat="47.94483" lon="15.27205">
				<ele>802.33</ele>
				<time>2025-07-28T22:28:19.484Z</time>
			</trkpt>
			<trkpt lat="47.94433" lon="15.27155">
				<ele>800.97</ele>
				<time>2025-07-28T22:28:22.951Z</time>
			</trkpt>
			<trkpt lat="47.94423" lon="15.27141">
				<ele>799.67</ele>
				<time>2025-07-28T22:28:23.740Z</time>
			</trkpt>
			<trkpt lat="47.94416" lon="15.27123">
				<ele>798.05</ele>
				<time>2025-07-28T22:28:24.541Z</time>
			</trkpt>
			<trkpt lat="47.94413" lon="15.27102">
				<ele>797.67</ele>
				<time>2025-07-28T22:28:25.368Z</time>
			</trkpt>
			<trkpt lat="47.94414" lon="15.27083">
				<ele>798.6</ele>
				<time>2025-07-28T22:28:26.101Z</time>
			</trkpt>
			<trkpt lat="47.94422" lon="15.27037">
				<ele>802.56</ele>
				<time>2025-07-28T22:28:27.928Z</time>
			</trkpt>
			<trkpt lat="47.94423" lon="15.27012">
				<ele>803.61</ele>
				<time>2025-07-28T22:28:28.889Z</time>
			</trkpt>
			<trkpt lat="47.94421" lon="15.26998">
				<ele>803.7</ele>
				<time>2025-07-28T22:28:29.439Z</time>
			</trkpt>
			<trkpt lat="47.94409" lon="15.26932">
				<ele>805.67</ele>
				<time>2025-07-28T22:28:32.061Z</time>
			</trkpt>
			<trkpt lat="47.94403" lon="15.26914">
				<ele>808.14</ele>
				<time>2025-07-28T22:28:32.831Z</time>
			</trkpt>
			<trkpt lat="47.94393" lon="15.26901">
				<ele>809.21</ele>
				<time>2025-07-28T22:28:33.588Z</time>
			</trkpt>
			<trkpt lat="47.94377" lon="15.26895">
				<ele>808.59</ele>
				<time>2025-07-28T22:28:34.531Z</time>
			</trkpt>
			<trkpt lat="47.94365" lon="15.26898">
				<ele>807.19</ele>
				<time>2025-07-28T22:28:35.225Z</time>
			</trkpt>
			<trkpt lat="47.94348" lon="15.26911">
				<ele>806.01</ele>
				<time>2025-07-28T22:28:36.315Z</time>
			</trkpt>
			<trkpt lat="47.94307" lon="15.26949">
				<ele>802.81</ele>
				<time>2025-07-28T22:28:39.064Z</time>
			</trkpt>
			<trkpt lat="47.94284" lon="15.26962">
				<ele>800.78</ele>
				<time>2025-07-28T22:28:40.463Z</time>
			</trkpt>
			<trkpt lat="47.94268" lon="15.2696">
				<ele>802.07</ele>
				<time>2025-07-28T22:28:41.376Z</time>
			</trkpt>
			<trkpt lat="47.94253" lon="15.2695">
				<ele>804.3</ele>
				<time>2025-07-28T22:28:42.309Z</time>
			</trkpt>
			<trkpt lat="47.94238" lon="15.26943">
				<ele>807.15</ele>
				<time>2025-07-28T22:28:43.201Z</time>
			</trkpt>
			<trkpt lat="47.94224" lon="15.26947">
				<ele>809.44</ele>
				<time>2025-07-28T22:28:44.010Z</time>
			</trkpt>
			<trkpt lat="47.94215" lon="15.26955">
				<ele>812.17</ele>
				<time>2025-07-28T22:28:44.604Z</time>
			</trkpt>
			<trkpt lat="47.94207" lon="15.26967">
				<ele>814.57</ele>
				<time>2025-07-28T22:28:45.247Z</time>
			</trkpt>
			<trkpt lat="47.94176" lon="15.27045">
				<ele>814.91</ele>
				<time>2025-07-28T22:28:48.687Z</time>
			</trkpt>
			<trkpt lat="47.94153" lon="15.27091">
				<ele>808.35</ele>
				<time>2025-07-28T22:28:50.860Z</time>
			</trkpt>
			<trkpt lat="47.94145" lon="15.27098">
				<ele>808.27</ele>
				<time>2025-07-28T22:28:51.383Z</time>
			</trkpt>
			<trkpt lat="47.94137" lon="15.27099">
				<ele>809.61</ele>
				<time>2025-07-28T22:28:51.837Z</time>
			</trkpt>
			<trkpt lat="47.94063" lon="15.27052">
				<ele>817.97</ele>
				<time>2025-07-28T22:28:56.368Z</time>
			</trkpt>
			<trkpt lat="47.94014" lon="15.26993">
				<ele>825.04</ele>
				<time>2025-07-28T22:28:59.907Z</time>
			</trkpt>
			<trkpt lat="47.94003" lon="15.26985">
				<ele>826.02</ele>
				<time>2025-07-28T22:29:00.594Z</time>
			</trkpt>
			<trkpt lat="47.93989" lon="15.26983">
				<ele>827.25</ele>
				<time>2025-07-28T22:29:01.383Z</time>
			</trkpt>
			<trkpt lat="47.93971" lon="15.26991">
				<ele>827.04</ele>
				<time>2025-07-28T22:29:02.436Z</time>
			</trkpt>
			<trkpt lat="47.93959" lon="15.27">
				<ele>829.6</ele>
				<time>2025-07-28T22:29:03.188Z</time>
			</trkpt>
			<trkpt lat="47.9395" lon="15.27012">
				<ele>832.29</ele>
				<time>2025-07-28T22:29:03.864Z</time>
			</trkpt>
			<trkpt lat="47.93944" lon="15.27024">
				<ele>834.08</ele>
				<time>2025-07-28T22:29:04.426Z</time>
			</trkpt>
			<trkpt lat="47.93939" lon="15.27051">
				<ele>833.55</ele>
				<time>2025-07-28T22:29:05.476Z</time>
			</trkpt>
			<trkpt lat="47.93937" lon="15.2709">
				<ele>829.73</ele>
				<time>2025-07-28T22:29:06.941Z</time>
			</trkpt>
			<trkpt lat="47.93942" lon="15.27176">
				<ele>825.07</ele>
				<time>2025-07-28T22:29:10.170Z</time>
			</trkpt>
			<trkpt lat="47.93942" lon="15.27203">
				<ele>821.53</ele>
				<time>2025-07-28T22:29:11.178Z</time>
			</trkpt>
			<trkpt lat="47.93937" lon="15.27232">
				<ele>821.84</ele>
				<time>2025-07-28T22:29:12.296Z</time>
			</trkpt>
			<trkpt lat="47.93925" lon="15.27276">
				<ele>827.68</ele>
				<time>2025-07-28T22:29:14.068Z</time>
			</trkpt>
			<trkpt lat="47.93923" lon="15.27307">
				<ele>826.78</ele>
				<time>2025-07-28T22:29:15.228Z</time>
			</trkpt>
			<trkpt lat="47.93923" lon="15.27356">
				<ele>824.61</ele>
				<time>2025-07-28T22:29:17.052Z</time>
			</trkpt>
			<trkpt lat="47.93922" lon="15.27375">
				<ele>826.07</ele>
				<time>2025-07-28T22:29:17.761Z</time>
			</trkpt>
			<trkpt lat="47.93919" lon="15.27392">
				<ele>828.01</ele>
				<time>2025-07-28T22:29:18.415Z</time>
			</trkpt>
			<trkpt lat="47.93908" lon="15.27413">
				<ele>830.86</ele>
				<time>2025-07-28T22:29:19.405Z</time>
			</trkpt>
			<trkpt lat="47.93868" lon="15.27463">
				<ele>837.47</ele>
				<time>2025-07-28T22:29:22.296Z</time>
			</trkpt>
			<trkpt lat="47.93863" lon="15.27475">
				<ele>837.48</ele>
				<time>2025-07-28T22:29:22.820Z</time>
			</trkpt>
			<trkpt lat="47.9386" lon="15.27496">
				<ele>838.08</ele>
				<time>2025-07-28T22:29:23.616Z</time>
			</trkpt>
			<trkpt lat="47.93867" lon="15.27527">
				<ele>838.3</ele>
				<time>2025-07-28T22:29:24.827Z</time>
			</trkpt>
			<trkpt lat="47.93875" lon="15.27548">
				<ele>839</ele>
				<time>2025-07-28T22:29:25.722Z</time>
			</trkpt>
			<trkpt lat="47.93903" lon="15.27599">
				<ele>839.48</ele>
				<time>2025-07-28T22:29:28.160Z</time>
			</trkpt>
			<trkpt lat="47.93911" lon="15.27622">
				<ele>840.01</ele>
				<time>2025-07-28T22:29:29.117Z</time>
			</trkpt>
			<trkpt lat="47.93914" lon="15.27647">
				<ele>841.73</ele>
				<time>2025-07-28T22:29:30.055Z</time>
			</trkpt>
			<trkpt lat="47.93912" lon="15.27667">
				<ele>844.77</ele>
				<time>2025-07-28T22:29:30.801Z</time>
			</trkpt>
			<trkpt lat="47.93904" lon="15.277">
				<ele>851.73</ele>
				<time>2025-07-28T22:29:32.095Z</time>
			</trkpt>
			<trkpt lat="47.93905" lon="15.27723">
				<ele>853.19</ele>
				<time>2025-07-28T22:29:32.945Z</time>
			</trkpt>
			<trkpt lat="47.9393" lon="15.27815">
				<ele>852.75</ele>
				<time>2025-07-28T22:29:36.599Z</time>
			</trkpt>
			<trkpt lat="47.93953" lon="15.27871">
				<ele>852.48</ele>
				<time>2025-07-28T22:29:39.012Z</time>
			</trkpt>
			<trkpt lat="47.93969" lon="15.27928">
				<ele>855.2</ele>
				<time>2025-07-28T22:29:41.279Z</time>
			</trkpt>
			<trkpt lat="47.93975" lon="15.27967">
				<ele>855.1</ele>
				<time>2025-07-28T22:29:42.746Z</time>
			</trkpt>
			<trkpt lat="47.93976" lon="15.27985">
				<ele>855.29</ele>
				<time>2025-07-28T22:29:43.407Z</time>
			</trkpt>
			<trkpt lat="47.93974" lon="15.28009">
				<ele>854.93</ele>
				<time>2025-07-28T22:29:44.293Z</time>
			</trkpt>
			<trkpt lat="47.93965" lon="15.28046">
				<ele>852.2</ele>
				<time>2025-07-28T22:29:45.733Z</time>
			</trkpt>
			<trkpt lat="47.93949" lon="15.28082">
				<ele>849.14</ele>
				<time>2025-07-28T22:29:47.312Z</time>
			</trkpt>
			<trkpt lat="47.93932" lon="15.28105">
				<ele>849.32</ele>
				<time>2025-07-28T22:29:48.563Z</time>
			</trkpt>
			<trkpt lat="47.93898" lon="15.28141">
				<ele>859.26</ele>
				<time>2025-07-28T22:29:50.833Z</time>
			</trkpt>
			<trkpt lat="47.93892" lon="15.28151">
				<ele>859.54</ele>
				<time>2025-07-28T22:29:51.322Z</time>
			</trkpt>
			<trkpt lat="47.9387" lon="15.28211">
				<ele>860.63</ele>
				<time>2025-07-28T22:29:53.814Z</time>
			</trkpt>
			<trkpt lat="47.93807" lon="15.2834">
				<ele>869.25</ele>
				<time>2025-07-28T22:29:59.615Z</time>
			</trkpt>
			<trkpt lat="47.93801" lon="15.28358">
				<ele>868.44</ele>
				<time>2025-07-28T22:30:00.345Z</time>
			</trkpt>
			<trkpt lat="47.93792" lon="15.28391">
				<ele>867.8</ele>
				<time>2025-07-28T22:30:01.636Z</time>
			</trkpt>
			<trkpt lat="47.93778" lon="15.28433">
				<ele>866.3</ele>
				<time>2025-07-28T22:30:03.336Z</time>
			</trkpt>
			<trkpt lat="47.93763" lon="15.28467">
				<ele>865.89</ele>
				<time>2025-07-28T22:30:04.809Z</time>
			</trkpt>
			<trkpt lat="47.93747" lon="15.28498">
				<ele>864.02</ele>
				<time>2025-07-28T22:30:06.225Z</time>
			</trkpt>
			<trkpt lat="47.93733" lon="15.28514">
				<ele>863.21</ele>
				<time>2025-07-28T22:30:07.176Z</time>
			</trkpt>
			<trkpt lat="47.93703" lon="15.28538">
				<ele>864.92</ele>
				<time>2025-07-28T22:30:09.011Z</time>
			</trkpt>
			<trkpt lat="47.93685" lon="15.28547">
				<ele>868.48</ele>
				<time>2025-07-28T22:30:10.033Z</time>
			</trkpt>
			<trkpt lat="47.93648" lon="15.28559">
				<ele>879.52</ele>
				<time>2025-07-28T22:30:12.071Z</time>
			</trkpt>
			<trkpt lat="47.93638" lon="15.28566">
				<ele>881.16</ele>
				<time>2025-07-28T22:30:12.665Z</time>
			</trkpt>
			<trkpt lat="47.93587" lon="15.2862">
				<ele>879.73</ele>
				<time>2025-07-28T22:30:16.025Z</time>
			</trkpt>
			<trkpt lat="47.93542" lon="15.28672">
				<ele>876.74</ele>
				<time>2025-07-28T22:30:19.078Z</time>
			</trkpt>
			<trkpt lat="47.9352" lon="15.28688">
				<ele>872.17</ele>
				<time>2025-07-28T22:30:20.389Z</time>
			</trkpt>
			<trkpt lat="47.93499" lon="15.28697">
				<ele>866.59</ele>
				<time>2025-07-28T22:30:21.559Z</time>
			</trkpt>
			<trkpt lat="47.93476" lon="15.28701">
				<ele>865.91</ele>
				<time>2025-07-28T22:30:22.798Z</time>
			</trkpt>
			<trkpt lat="47.93427" lon="15.28692">
				<ele>872.51</ele>
				<time>2025-07-28T22:30:25.437Z</time>
			</trkpt>
			<trkpt lat="47.93399" lon="15.28693">
				<ele>870.53</ele>
				<time>2025-07-28T22:30:26.933Z</time>
			</trkpt>
			<trkpt lat="47.93376" lon="15.2869">
				<ele>870.93</ele>
				<time>2025-07-28T22:30:28.165Z</time>
			</trkpt>
			<trkpt lat="47.93277" lon="15.28651">
				<ele>877.94</ele>
				<time>2025-07-28T22:30:33.620Z</time>
			</trkpt>
			<trkpt lat="47.93255" lon="15.28645">
				<ele>876.67</ele>
				<time>2025-07-28T22:30:34.809Z</time>
			</trkpt>
			<trkpt lat="47.93195" lon="15.28637">
				<ele>876.77</ele>
				<time>2025-07-28T22:30:38.010Z</time>
			</trkpt>
			<trkpt lat="47.93169" lon="15.28639">
				<ele>877.59</ele>
				<time>2025-07-28T22:30:39.392Z</time>
			</trkpt>
			<trkpt lat="47.93128" lon="15.28662">
				<ele>868.46</ele>
				<time>2025-07-28T22:30:41.714Z</time>
			</trkpt>
			<trkpt lat="47.93084" lon="15.2868">
				<ele>861.06</ele>
				<time>2025-07-28T22:30:44.131Z</time>
			</trkpt>
			<trkpt lat="47.93067" lon="15.28682">
				<ele>860.1</ele>
				<time>2025-07-28T22:30:45.033Z</time>
			</trkpt>
			<trkpt lat="47.93056" lon="15.28681">
				<ele>859.93</ele>
				<time>2025-07-28T22:30:45.616Z</time>
			</trkpt>
			<trkpt lat="47.92999" lon="15.28649">
				<ele>856</ele>
				<time>2025-07-28T22:30:48.836Z</time>
			</trkpt>
			<trkpt lat="47.9297" lon="15.28642">
				<ele>855.6</ele>
				<time>2025-07-28T22:30:50.387Z</time>
			</trkpt>
			<trkpt lat="47.92942" lon="15.28644">
				<ele>859.75</ele>
				<time>2025-07-28T22:30:51.866Z</time>
			</trkpt>
			<trkpt lat="47.9286" lon="15.28663">
				<ele>862.14</ele>
				<time>2025-07-28T22:30:56.239Z</time>
			</trkpt>
			<trkpt lat="47.92846" lon="15.28669">
				<ele>863.42</ele>
				<time>2025-07-28T22:30:57.006Z</time>
			</trkpt>
			<trkpt lat="47.92835" lon="15.28678">
				<ele>864.7</ele>
				<time>2025-07-28T22:30:57.666Z</time>
			</trkpt>
			<trkpt lat="47.92805" lon="15.28706">
				<ele>865.85</ele>
				<time>2025-07-28T22:30:59.527Z</time>
			</trkpt>
			<trkpt lat="47.92772" lon="15.28721">
				<ele>867.74</ele>
				<time>2025-07-28T22:31:01.339Z</time>
			</trkpt>
			<trkpt lat="47.92709" lon="15.2876">
				<ele>862.8</ele>
				<time>2025-07-28T22:31:04.919Z</time>
			</trkpt>
			<trkpt lat="47.92672" lon="15.28798">
				<ele>864.57</ele>
				<time>2025-07-28T22:31:07.274Z</time>
			</trkpt>
			<trkpt lat="47.92661" lon="15.28805">
				<ele>865.31</ele>
				<time>2025-07-28T22:31:07.900Z</time>
			</trkpt>
			<trkpt lat="47.92652" lon="15.28802">
				<ele>865.77</ele>
				<time>2025-07-28T22:31:08.383Z</time>
			</trkpt>
			<trkpt lat="47.92616" lon="15.28764">
				<ele>865.99</ele>
				<time>2025-07-28T22:31:10.692Z</time>
			</trkpt>
			<trkpt lat="47.92582" lon="15.28734">
				<ele>869.47</ele>
				<time>2025-07-28T22:31:12.757Z</time>
			</trkpt>
			<trkpt lat="47.92568" lon="15.28718">
				<ele>869.96</ele>
				<time>2025-07-28T22:31:13.679Z</time>
			</trkpt>
			<trkpt lat="47.92517" lon="15.28625">
				<ele>879.67</ele>
				<time>2025-07-28T22:31:17.884Z</time>
			</trkpt>
			<trkpt lat="47.92504" lon="15.28594">
				<ele>885.95</ele>
				<time>2025-07-28T22:31:19.162Z</time>
			</trkpt>
			<trkpt lat="47.925" lon="15.28578">
				<ele>889.31</ele>
				<time>2025-07-28T22:31:19.759Z</time>
			</trkpt>
			<trkpt lat="47.92498" lon="15.28567">
				<ele>890.7</ele>
				<time>2025-07-28T22:31:20.157Z</time>
			</trkpt>
			<trkpt lat="47.92499" lon="15.28541">
				<ele>891.78</ele>
				<time>2025-07-28T22:31:21.066Z</time>
			</trkpt>
			<trkpt lat="47.92506" lon="15.28489">
				<ele>891.16</ele>
				<time>2025-07-28T22:31:22.917Z</time>
			</trkpt>
			<trkpt lat="47.9251" lon="15.28426">
				<ele>893.95</ele>
				<time>2025-07-28T22:31:25.125Z</time>
			</trkpt>
			<trkpt lat="47.92512" lon="15.28363">
				<ele>892.89</ele>
				<time>2025-07-28T22:31:27.322Z</time>
			</trkpt>
			<trkpt lat="47.92512" lon="15.28326">
				<ele>889.87</ele>
				<time>2025-07-28T22:31:28.611Z</time>
			</trkpt>
			<trkpt lat="47.92507" lon="15.2827">
				<ele>887.15</ele>
				<time>2025-07-28T22:31:30.577Z</time>
			</trkpt>
			<trkpt lat="47.92497" lon="15.28206">
				<ele>887.6</ele>
				<time>2025-07-28T22:31:32.863Z</time>
			</trkpt>
			<trkpt lat="47.92493" lon="15.28191">
				<ele>887.35</ele>
				<time>2025-07-28T22:31:33.424Z</time>
			</trkpt>
			<trkpt lat="47.92489" lon="15.28186">
				<ele>887.48</ele>
				<time>2025-07-28T22:31:33.695Z</time>
			</trkpt>
			<trkpt lat="47.92486" lon="15.28186">
				<ele>887.65</ele>
				<time>2025-07-28T22:31:33.850Z</time>
			</trkpt>
			<trkpt lat="47.92479" lon="15.28192">
				<ele>888.39</ele>
				<time>2025-07-28T22:31:34.269Z</time>
			</trkpt>
			<trkpt lat="47.92478" lon="15.28201">
				<ele>888.63</ele>
				<time>2025-07-28T22:31:34.586Z</time>
			</trkpt>
			<trkpt lat="47.92479" lon="15.28216">
				<ele>888.67</ele>
				<time>2025-07-28T22:31:35.109Z</time>
			</trkpt>
			<trkpt lat="47.92485" lon="15.28237">
				<ele>890.8</ele>
				<time>2025-07-28T22:31:35.902Z</time>
			</trkpt>
			<trkpt lat="47.9249" lon="15.28279">
				<ele>894.73</ele>
				<time>2025-07-28T22:31:37.383Z</time>
			</trkpt>
			<trkpt lat="47.92488" lon="15.2834">
				<ele>903.97</ele>
				<time>2025-07-28T22:31:39.502Z</time>
			</trkpt>
			<trkpt lat="47.92483" lon="15.28393">
				<ele>911.81</ele>
				<time>2025-07-28T22:31:41.358Z</time>
			</trkpt>
			<trkpt lat="47.92466" lon="15.28498">
				<ele>913.7</ele>
				<time>2025-07-28T22:31:45.100Z</time>
			</trkpt>
			<trkpt lat="47.92451" lon="15.28566">
				<ele>914.4</ele>
				<time>2025-07-28T22:31:47.577Z</time>
			</trkpt>
			<trkpt lat="47.92439" lon="15.28598">
				<ele>913.93</ele>
				<time>2025-07-28T22:31:48.845Z</time>
			</trkpt>
			<trkpt lat="47.9243" lon="15.28613">
				<ele>914.19</ele>
				<time>2025-07-28T22:31:49.541Z</time>
			</trkpt>
			<trkpt lat="47.92414" lon="15.28633">
				<ele>915.54</ele>
				<time>2025-07-28T22:31:50.618Z</time>
			</trkpt>
			<trkpt lat="47.92401" lon="15.28641">
				<ele>918.69</ele>
				<time>2025-07-28T22:31:51.343Z</time>
			</trkpt>
			<trkpt lat="47.92374" lon="15.28651">
				<ele>924.75</ele>
				<time>2025-07-28T22:31:52.777Z</time>
			</trkpt>
			<trkpt lat="47.92362" lon="15.28659">
				<ele>925.12</ele>
				<time>2025-07-28T22:31:53.454Z</time>
			</trkpt>
			<trkpt lat="47.92353" lon="15.28671">
				<ele>923.86</ele>
				<time>2025-07-28T22:31:54.076Z</time>
			</trkpt>
			<trkpt lat="47.92329" lon="15.28715">
				<ele>921.38</ele>
				<time>2025-07-28T22:31:56.034Z</time>
			</trkpt>
			<trkpt lat="47.92307" lon="15.28748">
				<ele>925.46</ele>
				<time>2025-07-28T22:31:57.639Z</time>
			</trkpt>
			<trkpt lat="47.92288" lon="15.28771">
				<ele>926.59</ele>
				<time>2025-07-28T22:31:58.898Z</time>
			</trkpt>
			<trkpt lat="47.92263" lon="15.28791">
				<ele>931.25</ele>
				<time>2025-07-28T22:32:00.357Z</time>
			</trkpt>
			<trkpt lat="47.92247" lon="15.28807">
				<ele>934.11</ele>
				<time>2025-07-28T22:32:01.347Z</time>
			</trkpt>
			<trkpt lat="47.92234" lon="15.28828">
				<ele>938.9</ele>
				<time>2025-07-28T22:32:02.331Z</time>
			</trkpt>
			<trkpt lat="47.92227" lon="15.28845">
				<ele>939.87</ele>
				<time>2025-07-28T22:32:03.018Z</time>
			</trkpt>
			<trkpt lat="47.92222" lon="15.28866">
				<ele>939.19</ele>
				<time>2025-07-28T22:32:03.786Z</time>
			</trkpt>
			<trkpt lat="47.92219" lon="15.28884">
				<ele>937.59</ele>
				<time>2025-07-28T22:32:04.424Z</time>
			</trkpt>
			<trkpt lat="47.9222" lon="15.28911">
				<ele>934.97</ele>
				<time>2025-07-28T22:32:05.355Z</time>
			</trkpt>
			<trkpt lat="47.92229" lon="15.2894">
				<ele>934.35</ele>
				<time>2025-07-28T22:32:06.454Z</time>
			</trkpt>
			<trkpt lat="47.92252" lon="15.28991">
				<ele>933.89</ele>
				<time>2025-07-28T22:32:08.568Z</time>
			</trkpt>
			<trkpt lat="47.92255" lon="15.29006">
				<ele>934.15</ele>
				<time>2025-07-28T22:32:09.106Z</time>
			</trkpt>
			<trkpt lat="47.92256" lon="15.29029">
				<ele>935.45</ele>
				<time>2025-07-28T22:32:09.898Z</time>
			</trkpt>
			<trkpt lat="47.92253" lon="15.29046">
				<ele>936</ele>
				<time>2025-07-28T22:32:10.502Z</time>
			</trkpt>
			<trkpt lat="47.92248" lon="15.29064">
				<ele>936.77</ele>
				<time>2025-07-28T22:32:11.172Z</time>
			</trkpt>
			<trkpt lat="47.92232" lon="15.29097">
				<ele>936.51</ele>
				<time>2025-07-28T22:32:12.571Z</time>
			</trkpt>
			<trkpt lat="47.9222" lon="15.29115">
				<ele>936.53</ele>
				<time>2025-07-28T22:32:13.443Z</time>
			</trkpt>
			<trkpt lat="47.9217" lon="15.29161">
				<ele>942.55</ele>
				<time>2025-07-28T22:32:16.451Z</time>
			</trkpt>
			<trkpt lat="47.92136" lon="15.29184">
				<ele>945.96</ele>
				<time>2025-07-28T22:32:18.362Z</time>
			</trkpt>
			<trkpt lat="47.92063" lon="15.29223">
				<ele>953.56</ele>
				<time>2025-07-28T22:32:22.328Z</time>
			</trkpt>
			<trkpt lat="47.92011" lon="15.29246">
				<ele>956.92</ele>
				<time>2025-07-28T22:32:25.100Z</time>
			</trkpt>
			<trkpt lat="47.91998" lon="15.29256">
				<ele>956.97</ele>
				<time>2025-07-28T22:32:25.847Z</time>
			</trkpt>
			<trkpt lat="47.91981" lon="15.29275">
				<ele>955.01</ele>
				<time>2025-07-28T22:32:26.932Z</time>
			</trkpt>
			<trkpt lat="47.91972" lon="15.29282">
				<ele>955.44</ele>
				<time>2025-07-28T22:32:27.450Z</time>
			</trkpt>
			<trkpt lat="47.91956" lon="15.29288">
				<ele>956.25</ele>
				<time>2025-07-28T22:32:28.292Z</time>
			</trkpt>
			<trkpt lat="47.9193" lon="15.29291">
				<ele>959.19</ele>
				<time>2025-07-28T22:32:29.624Z</time>
			</trkpt>
			<trkpt lat="47.91915" lon="15.29295">
				<ele>959.29</ele>
				<time>2025-07-28T22:32:30.401Z</time>
			</trkpt>
			<trkpt lat="47.91872" lon="15.29322">
				<ele>950.99</ele>
				<time>2025-07-28T22:32:32.782Z</time>
			</trkpt>
			<trkpt lat="47.91852" lon="15.2933">
				<ele>950.79</ele>
				<time>2025-07-28T22:32:33.838Z</time>
			</trkpt>
			<trkpt lat="47.91786" lon="15.29329">
				<ele>957.7</ele>
				<time>2025-07-28T22:32:37.203Z</time>
			</trkpt>
			<trkpt lat="47.91772" lon="15.29333">
				<ele>961.19</ele>
				<time>2025-07-28T22:32:37.929Z</time>
			</trkpt>
			<trkpt lat="47.91763" lon="15.2934">
				<ele>963.11</ele>
				<time>2025-07-28T22:32:38.446Z</time>
			</trkpt>
			<trkpt lat="47.9174" lon="15.29366">
				<ele>965.2</ele>
				<time>2025-07-28T22:32:39.916Z</time>
			</trkpt>
			<trkpt lat="47.91727" lon="15.29378">
				<ele>967.45</ele>
				<time>2025-07-28T22:32:40.695Z</time>
			</trkpt>
			<trkpt lat="47.9168" lon="15.29403">
				<ele>969.01</ele>
				<time>2025-07-28T22:32:43.236Z</time>
			</trkpt>
			<trkpt lat="47.91667" lon="15.29406">
				<ele>967.84</ele>
				<time>2025-07-28T22:32:43.905Z</time>
			</trkpt>
			<trkpt lat="47.9165" lon="15.29404">
				<ele>966.24</ele>
				<time>2025-07-28T22:32:44.773Z</time>
			</trkpt>
			<trkpt lat="47.91613" lon="15.29382">
				<ele>970.8</ele>
				<time>2025-07-28T22:32:46.800Z</time>
			</trkpt>
			<trkpt lat="47.91572" lon="15.29377">
				<ele>971.55</ele>
				<time>2025-07-28T22:32:48.892Z</time>
			</trkpt>
			<trkpt lat="47.91531" lon="15.29355">
				<ele>976.35</ele>
				<time>2025-07-28T22:32:51.108Z</time>
			</trkpt>
			<trkpt lat="47.91517" lon="15.29354">
				<ele>979.18</ele>
				<time>2025-07-28T22:32:51.821Z</time>
			</trkpt>
			<trkpt lat="47.91506" lon="15.29359">
				<ele>981.39</ele>
				<time>2025-07-28T22:32:52.405Z</time>
			</trkpt>
			<trkpt lat="47.91496" lon="15.29366">
				<ele>983.11</ele>
				<time>2025-07-28T22:32:52.967Z</time>
			</trkpt>
			<trkpt lat="47.91488" lon="15.29377">
				<ele>984.02</ele>
				<time>2025-07-28T22:32:53.520Z</time>
			</trkpt>
			<trkpt lat="47.91473" lon="15.29406">
				<ele>983.57</ele>
				<time>2025-07-28T22:32:54.767Z</time>
			</trkpt>
			<trkpt lat="47.91464" lon="15.29416">
				<ele>982.77</ele>
				<time>2025-07-28T22:32:55.338Z</time>
			</trkpt>
			<trkpt lat="47.9145" lon="15.29426">
				<ele>983.11</ele>
				<time>2025-07-28T22:32:56.126Z</time>
			</trkpt>
			<trkpt lat="47.91408" lon="15.29452">
				<ele>985.37</ele>
				<time>2025-07-28T22:32:58.436Z</time>
			</trkpt>
			<trkpt lat="47.91397" lon="15.29464">
				<ele>985.61</ele>
				<time>2025-07-28T22:32:59.128Z</time>
			</trkpt>
			<trkpt lat="47.91367" lon="15.29512">
				<ele>987.43</ele>
				<time>2025-07-28T22:33:01.362Z</time>
			</trkpt>
			<trkpt lat="47.91324" lon="15.29575">
				<ele>991.29</ele>
				<time>2025-07-28T22:33:04.421Z</time>
			</trkpt>
			<trkpt lat="47.91313" lon="15.29602">
				<ele>991.57</ele>
				<time>2025-07-28T22:33:05.496Z</time>
			</trkpt>
			<trkpt lat="47.91297" lon="15.29673">
				<ele>990.01</ele>
				<time>2025-07-28T22:33:08.043Z</time>
			</trkpt>
			<trkpt lat="47.91292" lon="15.29687">
				<ele>989.35</ele>
				<time>2025-07-28T22:33:08.583Z</time>
			</trkpt>
			<trkpt lat="47.91288" lon="15.29692">
				<ele>989.16</ele>
				<time>2025-07-28T22:33:08.848Z</time>
			</trkpt>
			<trkpt lat="47.91279" lon="15.29697">
				<ele>989.29</ele>
				<time>2025-07-28T22:33:09.335Z</time>
			</trkpt>
			<trkpt lat="47.9127" lon="15.29696">
				<ele>987.88</ele>
				<time>2025-07-28T22:33:09.792Z</time>
			</trkpt>
			<trkpt lat="47.91262" lon="15.29691">
				<ele>986.88</ele>
				<time>2025-07-28T22:33:10.232Z</time>
			</trkpt>
			<trkpt lat="47.91253" lon="15.2968">
				<ele>987.19</ele>
				<time>2025-07-28T22:33:10.823Z</time>
			</trkpt>
			<trkpt lat="47.91239" lon="15.29658">
				<ele>988.27</ele>
				<time>2025-07-28T22:33:11.854Z</time>
			</trkpt>
			<trkpt lat="47.91223" lon="15.29627">
				<ele>989.53</ele>
				<time>2025-07-28T22:33:13.184Z</time>
			</trkpt>
			<trkpt lat="47.91212" lon="15.29599">
				<ele>988.86</ele>
				<time>2025-07-28T22:33:14.287Z</time>
			</trkpt>
			<trkpt lat="47.91207" lon="15.29571">
				<ele>991.07</ele>
				<time>2025-07-28T22:33:15.271Z</time>
			</trkpt>
			<trkpt lat="47.91206" lon="15.29517">
				<ele>998.29</ele>
				<time>2025-07-28T22:33:17.107Z</time>
			</trkpt>
			<trkpt lat="47.91202" lon="15.29491">
				<ele>1000.41</ele>
				<time>2025-07-28T22:33:18.013Z</time>
			</trkpt>
			<trkpt lat="47.91194" lon="15.29463">
				<ele>1001.61</ele>
				<time>2025-07-28T22:33:19.047Z</time>
			</trkpt>
			<trkpt lat="47.91167" lon="15.29411">
				<ele>1003.17</ele>
				<time>2025-07-28T22:33:21.282Z</time>
			</trkpt>
			<trkpt lat="47.91158" lon="15.29388">
				<ele>1001.9</ele>
				<time>2025-07-28T22:33:22.186Z</time>
			</trkpt>
			<trkpt lat="47.91154" lon="15.2936">
				<ele>1003.24</ele>
				<time>2025-07-28T22:33:23.159Z</time>
			</trkpt>
			<trkpt lat="47.91152" lon="15.29321">
				<ele>1007.95</ele>
				<time>2025-07-28T22:33:24.487Z</time>
			</trkpt>
			<trkpt lat="47.91146" lon="15.29274">
				<ele>1011.67</ele>
				<time>2025-07-28T22:33:26.112Z</time>
			</trkpt>
			<trkpt lat="47.91143" lon="15.29232">
				<ele>1019.23</ele>
				<time>2025-07-28T22:33:27.546Z</time>
			</trkpt>
			<trkpt lat="47.91138" lon="15.29215">
				<ele>1021.3</ele>
				<time>2025-07-28T22:33:28.177Z</time>
			</trkpt>
			<trkpt lat="47.9113" lon="15.292">
				<ele>1022.29</ele>
				<time>2025-07-28T22:33:28.827Z</time>
			</trkpt>
			<trkpt lat="47.9112" lon="15.29186">
				<ele>1022.73</ele>
				<time>2025-07-28T22:33:29.522Z</time>
			</trkpt>
			<trkpt lat="47.9109" lon="15.29161">
				<ele>1023.67</ele>
				<time>2025-07-28T22:33:31.263Z</time>
			</trkpt>
			<trkpt lat="47.91056" lon="15.29123">
				<ele>1025.42</ele>
				<time>2025-07-28T22:33:33.414Z</time>
			</trkpt>
			<trkpt lat="47.91023" lon="15.29093">
				<ele>1027</ele>
				<time>2025-07-28T22:33:35.371Z</time>
			</trkpt>
			<trkpt lat="47.90988" lon="15.29069">
				<ele>1030.63</ele>
				<time>2025-07-28T22:33:37.322Z</time>
			</trkpt>
			<trkpt lat="47.90968" lon="15.2906">
				<ele>1031.55</ele>
				<time>2025-07-28T22:33:38.380Z</time>
			</trkpt>
			<trkpt lat="47.90926" lon="15.29046">
				<ele>1028.17</ele>
				<time>2025-07-28T22:33:40.559Z</time>
			</trkpt>
			<trkpt lat="47.90909" lon="15.29037">
				<ele>1027.16</ele>
				<time>2025-07-28T22:33:41.473Z</time>
			</trkpt>
			<trkpt lat="47.90892" lon="15.29023">
				<ele>1028.35</ele>
				<time>2025-07-28T22:33:42.456Z</time>
			</trkpt>
			<trkpt lat="47.90861" lon="15.28992">
				<ele>1033.92</ele>
				<time>2025-07-28T22:33:44.346Z</time>
			</trkpt>
			<trkpt lat="47.90805" lon="15.28957">
				<ele>1035.31</ele>
				<time>2025-07-28T22:33:47.421Z</time>
			</trkpt>
			<trkpt lat="47.90788" lon="15.28938">
				<ele>1038.77</ele>
				<time>2025-07-28T22:33:48.496Z</time>
			</trkpt>
			<trkpt lat="47.90763" lon="15.28901">
				<ele>1042.34</ele>
				<time>2025-07-28T22:33:50.280Z</time>
			</trkpt>
			<trkpt lat="47.90754" lon="15.28882">
				<ele>1043.08</ele>
				<time>2025-07-28T22:33:51.069Z</time>
			</trkpt>
			<trkpt lat="47.90748" lon="15.28864">
				<ele>1043.7</ele>
				<time>2025-07-28T22:33:51.752Z</time>
			</trkpt>
			<trkpt lat="47.90736" lon="15.28786">
				<ele>1042.75</ele>
				<time>2025-07-28T22:33:54.469Z</time>
			</trkpt>
			<trkpt lat="47.90728" lon="15.28757">
				<ele>1043.29</ele>
				<time>2025-07-28T22:33:55.533Z</time>
			</trkpt>
			<trkpt lat="47.90696" lon="15.28678">
				<ele>1042.97</ele>
				<time>2025-07-28T22:33:58.667Z</time>
			</trkpt>
			<trkpt lat="47.90676" lon="15.28604">
				<ele>1045.88</ele>
				<time>2025-07-28T22:34:01.377Z</time>
			</trkpt>
			<trkpt lat="47.90667" lon="15.28584">
				<ele>1046.11</ele>
				<time>2025-07-28T22:34:02.195Z</time>
			</trkpt>
			<trkpt lat="47.9065" lon="15.28557">
				<ele>1048.32</ele>
				<time>2025-07-28T22:34:03.453Z</time>
			</trkpt>
			<trkpt lat="47.90608" lon="15.28514">
				<ele>1054.55</ele>
				<time>2025-07-28T22:34:06.034Z</time>
			</trkpt>
			<trkpt lat="47.90552" lon="15.28463">
				<ele>1057.72</ele>
				<time>2025-07-28T22:34:09.359Z</time>
			</trkpt>
			<trkpt lat="47.90506" lon="15.28437">
				<ele>1061.59</ele>
				<time>2025-07-28T22:34:11.852Z</time>
			</trkpt>
			<trkpt lat="47.90419" lon="15.28396">
				<ele>1061.37</ele>
				<time>2025-07-28T22:34:16.479Z</time>
			</trkpt>
			<trkpt lat="47.90407" lon="15.28384">
				<ele>1061.58</ele>
				<time>2025-07-28T22:34:17.211Z</time>
			</trkpt>
			<trkpt lat="47.90396" lon="15.28368">
				<ele>1062.26</ele>
				<time>2025-07-28T22:34:17.991Z</time>
			</trkpt>
			<trkpt lat="47.9037" lon="15.28312">
				<ele>1067.24</ele>
				<time>2025-07-28T22:34:20.307Z</time>
			</trkpt>
			<trkpt lat="47.90363" lon="15.28299">
				<ele>1067.83</ele>
				<time>2025-07-28T22:34:20.874Z</time>
			</trkpt>
			<trkpt lat="47.90355" lon="15.28292">
				<ele>1068.86</ele>
				<time>2025-07-28T22:34:21.345Z</time>
			</trkpt>
			<trkpt lat="47.90348" lon="15.28289">
				<ele>1070</ele>
				<time>2025-07-28T22:34:21.714Z</time>
			</trkpt>
			<trkpt lat="47.90334" lon="15.28293">
				<ele>1070.66</ele>
				<time>2025-07-28T22:34:22.438Z</time>
			</trkpt>
			<trkpt lat="47.90322" lon="15.28309">
				<ele>1070.85</ele>
				<time>2025-07-28T22:34:23.255Z</time>
			</trkpt>
			<trkpt lat="47.90262" lon="15.28435">
				<ele>1067.46</ele>
				<time>2025-07-28T22:34:28.514Z</time>
			</trkpt>
			<trkpt lat="47.90248" lon="15.28472">
				<ele>1066.66</ele>
				<time>2025-07-28T22:34:29.961Z</time>
			</trkpt>
			<trkpt lat="47.90243" lon="15.28493">
				<ele>1066.72</ele>
				<time>2025-07-28T22:34:30.720Z</time>
			</trkpt>
			<trkpt lat="47.9024" lon="15.28516">
				<ele>1066.02</ele>
				<time>2025-07-28T22:34:31.518Z</time>
			</trkpt>
			<trkpt lat="47.90237" lon="15.28572">
				<ele>1063.48</ele>
				<time>2025-07-28T22:34:33.431Z</time>
			</trkpt>
			<trkpt lat="47.90238" lon="15.28618">
				<ele>1064.59</ele>
				<time>2025-07-28T22:34:35.000Z</time>
			</trkpt>
			<trkpt lat="47.90244" lon="15.28659">
				<ele>1067.2</ele>
				<time>2025-07-28T22:34:36.430Z</time>
			</trkpt>
			<trkpt lat="47.9026" lon="15.28735">
				<ele>1067.95</ele>
				<time>2025-07-28T22:34:39.145Z</time>
			</trkpt>
			<trkpt lat="47.90264" lon="15.28778">
				<ele>1068.93</ele>
				<time>2025-07-28T22:34:40.625Z</time>
			</trkpt>
			<trkpt lat="47.90263" lon="15.28833">
				<ele>1072.55</ele>
				<time>2025-07-28T22:34:42.502Z</time>
			</trkpt>
			<trkpt lat="47.90259" lon="15.28909">
				<ele>1076.11</ele>
				<time>2025-07-28T22:34:45.103Z</time>
			</trkpt>
			<trkpt lat="47.90252" lon="15.28989">
				<ele>1071.26</ele>
				<time>2025-07-28T22:34:47.858Z</time>
			</trkpt>
			<trkpt lat="47.90247" lon="15.29014">
				<ele>1070.97</ele>
				<time>2025-07-28T22:34:48.749Z</time>
			</trkpt>
			<trkpt lat="47.90241" lon="15.29037">
				<ele>1070.92</ele>
				<time>2025-07-28T22:34:49.591Z</time>
			</trkpt>
			<trkpt lat="47.90226" lon="15.29067">
				<ele>1069.55</ele>
				<time>2025-07-28T22:34:50.870Z</time>
			</trkpt>
			<trkpt lat="47.90204" lon="15.29089">
				<ele>1071.11</ele>
				<time>2025-07-28T22:34:52.220Z</time>
			</trkpt>
			<trkpt lat="47.9016" lon="15.2912">
				<ele>1079.48</ele>
				<time>2025-07-28T22:34:54.701Z</time>
			</trkpt>
			<trkpt lat="47.90151" lon="15.2913">
				<ele>1079.66</ele>
				<time>2025-07-28T22:34:55.274Z</time>
			</trkpt>
			<trkpt lat="47.90143" lon="15.29148">
				<ele>1080.29</ele>
				<time>2025-07-28T22:34:56.012Z</time>
			</trkpt>
			<trkpt lat="47.9014" lon="15.29167">
				<ele>1081.32</ele>
				<time>2025-07-28T22:34:56.680Z</time>
			</trkpt>
			<trkpt lat="47.9014" lon="15.29176">
				<ele>1081.13</ele>
				<time>2025-07-28T22:34:56.988Z</time>
			</trkpt>
			<trkpt lat="47.90142" lon="15.29195">
				<ele>1079.52</ele>
				<time>2025-07-28T22:34:57.646Z</time>
			</trkpt>
			<trkpt lat="47.90175" lon="15.29297">
				<ele>1077.19</ele>
				<time>2025-07-28T22:35:01.522Z</time>
			</trkpt>
			<trkpt lat="47.90187" lon="15.2935">
				<ele>1077.81</ele>
				<time>2025-07-28T22:35:03.438Z</time>
			</trkpt>
			<trkpt lat="47.90197" lon="15.29425">
				<ele>1077.76</ele>
				<time>2025-07-28T22:35:06.058Z</time>
			</trkpt>
			<trkpt lat="47.90198" lon="15.29452">
				<ele>1078.5</ele>
				<time>2025-07-28T22:35:06.985Z</time>
			</trkpt>
			<trkpt lat="47.90197" lon="15.2948">
				<ele>1078.37</ele>
				<time>2025-07-28T22:35:07.946Z</time>
			</trkpt>
			<trkpt lat="47.90193" lon="15.29506">
				<ele>1077.69</ele>
				<time>2025-07-28T22:35:08.861Z</time>
			</trkpt>
			<trkpt lat="47.90185" lon="15.2954">
				<ele>1077.04</ele>
				<time>2025-07-28T22:35:10.097Z</time>
			</trkpt>
			<trkpt lat="47.90151" lon="15.29661">
				<ele>1082.47</ele>
				<time>2025-07-28T22:35:14.601Z</time>
			</trkpt>
			<trkpt lat="47.90139" lon="15.29711">
				<ele>1088.07</ele>
				<time>2025-07-28T22:35:16.426Z</time>
			</trkpt>
			<trkpt lat="47.90132" lon="15.2977">
				<ele>1080.95</ele>
				<time>2025-07-28T22:35:18.485Z</time>
			</trkpt>
			<trkpt lat="47.90123" lon="15.29887">
				<ele>1074.16</ele>
				<time>2025-07-28T22:35:22.536Z</time>
			</trkpt>
			<trkpt lat="47.9012" lon="15.29906">
				<ele>1073.14</ele>
				<time>2025-07-28T22:35:23.208Z</time>
			</trkpt>
			<trkpt lat="47.90113" lon="15.29924">
				<ele>1073.21</ele>
				<time>2025-07-28T22:35:23.925Z</time>
			</trkpt>
			<trkpt lat="47.90104" lon="15.29937">
				<ele>1074.68</ele>
				<time>2025-07-28T22:35:24.568Z</time>
			</trkpt>
			<trkpt lat="47.90094" lon="15.29943">
				<ele>1076.6</ele>
				<time>2025-07-28T22:35:25.122Z</time>
			</trkpt>
			<trkpt lat="47.90076" lon="15.29944">
				<ele>1082.73</ele>
				<time>2025-07-28T22:35:26.048Z</time>
			</trkpt>
			<trkpt lat="47.90043" lon="15.29939">
				<ele>1094.39</ele>
				<time>2025-07-28T22:35:27.753Z</time>
			</trkpt>
			<trkpt lat="47.90024" lon="15.29941">
				<ele>1096.34</ele>
				<time>2025-07-28T22:35:28.732Z</time>
			</trkpt>
			<trkpt lat="47.89987" lon="15.2995">
				<ele>1095.66</ele>
				<time>2025-07-28T22:35:30.661Z</time>
			</trkpt>
			<trkpt lat="47.89941" lon="15.29966">
				<ele>1094.39</ele>
				<time>2025-07-28T22:35:33.093Z</time>
			</trkpt>
			<trkpt lat="47.8992" lon="15.2997">
				<ele>1091.89</ele>
				<time>2025-07-28T22:35:34.183Z</time>
			</trkpt>
			<trkpt lat="47.89844" lon="15.29967">
				<ele>1094.12</ele>
				<time>2025-07-28T22:35:38.102Z</time>
			</trkpt>
			<trkpt lat="47.89834" lon="15.29971">
				<ele>1094.13</ele>
				<time>2025-07-28T22:35:38.636Z</time>
			</trkpt>
			<trkpt lat="47.8983" lon="15.29974">
				<ele>1093.65</ele>
				<time>2025-07-28T22:35:38.867Z</time>
			</trkpt>
			<trkpt lat="47.89822" lon="15.29985">
				<ele>1091.91</ele>
				<time>2025-07-28T22:35:39.428Z</time>
			</trkpt>
			<trkpt lat="47.89817" lon="15.30007">
				<ele>1088.18</ele>
				<time>2025-07-28T22:35:40.232Z</time>
			</trkpt>
			<trkpt lat="47.89817" lon="15.3013">
				<ele>1076.16</ele>
				<time>2025-07-28T22:35:44.491Z</time>
			</trkpt>
			<trkpt lat="47.89821" lon="15.30172">
				<ele>1076.55</ele>
				<time>2025-07-28T22:35:45.962Z</time>
			</trkpt>
			<trkpt lat="47.89828" lon="15.30211">
				<ele>1077.74</ele>
				<time>2025-07-28T22:35:47.362Z</time>
			</trkpt>
			<trkpt lat="47.8983" lon="15.30236">
				<ele>1079.13</ele>
				<time>2025-07-28T22:35:48.235Z</time>
			</trkpt>
			<trkpt lat="47.89829" lon="15.30257">
				<ele>1080.99</ele>
				<time>2025-07-28T22:35:48.966Z</time>
			</trkpt>
			<trkpt lat="47.89827" lon="15.30267">
				<ele>1082.08</ele>
				<time>2025-07-28T22:35:49.328Z</time>
			</trkpt>
			<trkpt lat="47.89819" lon="15.30291">
				<ele>1084.95</ele>
				<time>2025-07-28T22:35:50.258Z</time>
			</trkpt>
			<trkpt lat="47.898" lon="15.30339">
				<ele>1090.4</ele>
				<time>2025-07-28T22:35:52.194Z</time>
			</trkpt>
			<trkpt lat="47.89793" lon="15.30372">
				<ele>1094.57</ele>
				<time>2025-07-28T22:35:53.397Z</time>
			</trkpt>
			<trkpt lat="47.8979" lon="15.30392">
				<ele>1095.92</ele>
				<time>2025-07-28T22:35:54.110Z</time>
			</trkpt>
			<trkpt lat="47.89788" lon="15.30444">
				<ele>1096.78</ele>
				<time>2025-07-28T22:35:55.921Z</time>
			</trkpt>
			<trkpt lat="47.89786" lon="15.30456">
				<ele>1096.8</ele>
				<time>2025-07-28T22:35:56.351Z</time>
			</trkpt>
			<trkpt lat="47.89782" lon="15.30466">
				<ele>1096.85</ele>
				<time>2025-07-28T22:35:56.756Z</time>
			</trkpt>
			<trkpt lat="47.89775" lon="15.30468">
				<ele>1097.54</ele>
				<time>2025-07-28T22:35:57.126Z</time>
			</trkpt>
			<trkpt lat="47.89765" lon="15.30463">
				<ele>1100.35</ele>
				<time>2025-07-28T22:35:57.674Z</time>
			</trkpt>
			<trkpt lat="47.89758" lon="15.30451">
				<ele>1101.44</ele>
				<time>2025-07-28T22:35:58.228Z</time>
			</trkpt>
			<trkpt lat="47.8973" lon="15.30381">
				<ele>1099.25</ele>
				<time>2025-07-28T22:36:01.067Z</time>
			</trkpt>
			<trkpt lat="47.89719" lon="15.30359">
				<ele>1097.25</ele>
				<time>2025-07-28T22:36:02.024Z</time>
			</trkpt>
			<trkpt lat="47.89709" lon="15.30346">
				<ele>1097.05</ele>
				<time>2025-07-28T22:36:02.714Z</time>
			</trkpt>
			<trkpt lat="47.89697" lon="15.30336">
				<ele>1096.45</ele>
				<time>2025-07-28T22:36:03.429Z</time>
			</trkpt>
			<trkpt lat="47.89669" lon="15.30328">
				<ele>1099.17</ele>
				<time>2025-07-28T22:36:04.913Z</time>
			</trkpt>
			<trkpt lat="47.89527" lon="15.30311">
				<ele>1109.5</ele>
				<time>2025-07-28T22:36:12.341Z</time>
			</trkpt>
			<trkpt lat="47.89502" lon="15.30303">
				<ele>1112.33</ele>
				<time>2025-07-28T22:36:13.676Z</time>
			</trkpt>
			<trkpt lat="47.89488" lon="15.30294">
				<ele>1112.16</ele>
				<time>2025-07-28T22:36:14.473Z</time>
			</trkpt>
			<trkpt lat="47.89478" lon="15.30283">
				<ele>1111.38</ele>
				<time>2025-07-28T22:36:15.122Z</time>
			</trkpt>
			<trkpt lat="47.8947" lon="15.3027">
				<ele>1110.67</ele>
				<time>2025-07-28T22:36:15.741Z</time>
			</trkpt>
			<trkpt lat="47.89463" lon="15.30254">
				<ele>1110.2</ele>
				<time>2025-07-28T22:36:16.410Z</time>
			</trkpt>
			<trkpt lat="47.8946" lon="15.30239">
				<ele>1109.69</ele>
				<time>2025-07-28T22:36:16.959Z</time>
			</trkpt>
			<trkpt lat="47.89459" lon="15.3022">
				<ele>1108.86</ele>
				<time>2025-07-28T22:36:17.628Z</time>
			</trkpt>
			<trkpt lat="47.89461" lon="15.30204">
				<ele>1108.33</ele>
				<time>2025-07-28T22:36:18.199Z</time>
			</trkpt>
			<trkpt lat="47.89467" lon="15.30186">
				<ele>1108.05</ele>
				<time>2025-07-28T22:36:18.905Z</time>
			</trkpt>
			<trkpt lat="47.89488" lon="15.30153">
				<ele>1108.43</ele>
				<time>2025-07-28T22:36:20.502Z</time>
			</trkpt>
			<trkpt lat="47.8949" lon="15.30146">
				<ele>1108.96</ele>
				<time>2025-07-28T22:36:20.770Z</time>
			</trkpt>
			<trkpt lat="47.8949" lon="15.30134">
				<ele>1110.19</ele>
				<time>2025-07-28T22:36:21.191Z</time>
			</trkpt>
			<trkpt lat="47.89485" lon="15.30126">
				<ele>1111.39</ele>
				<time>2025-07-28T22:36:21.575Z</time>
			</trkpt>
			<trkpt lat="47.89479" lon="15.30121">
				<ele>1112.43</ele>
				<time>2025-07-28T22:36:21.936Z</time>
			</trkpt>
			<trkpt lat="47.89471" lon="15.3012">
				<ele>1113.14</ele>
				<time>2025-07-28T22:36:22.357Z</time>
			</trkpt>
			<trkpt lat="47.89463" lon="15.30124">
				<ele>1114.07</ele>
				<time>2025-07-28T22:36:22.799Z</time>
			</trkpt>
			<trkpt lat="47.89452" lon="15.30135">
				<ele>1114.85</ele>
				<time>2025-07-28T22:36:23.494Z</time>
			</trkpt>
			<trkpt lat="47.89447" lon="15.30144">
				<ele>1114.7</ele>
				<time>2025-07-28T22:36:23.905Z</time>
			</trkpt>
			<trkpt lat="47.89431" lon="15.3018">
				<ele>1114.58</ele>
				<time>2025-07-28T22:36:25.424Z</time>
			</trkpt>
			<trkpt lat="47.89419" lon="15.30213">
				<ele>1117.13</ele>
				<time>2025-07-28T22:36:26.746Z</time>
			</trkpt>
			<trkpt lat="47.89407" lon="15.30266">
				<ele>1120.55</ele>
				<time>2025-07-28T22:36:28.717Z</time>
			</trkpt>
			<trkpt lat="47.89403" lon="15.30302">
				<ele>1121.9</ele>
				<time>2025-07-28T22:36:30.004Z</time>
			</trkpt>
			<trkpt lat="47.89399" lon="15.30367">
				<ele>1126.8</ele>
				<time>2025-07-28T22:36:32.307Z</time>
			</trkpt>
			<trkpt lat="47.89394" lon="15.30392">
				<ele>1128.02</ele>
				<time>2025-07-28T22:36:33.229Z</time>
			</trkpt>
			<trkpt lat="47.89362" lon="15.30469">
				<ele>1122.39</ele>
				<time>2025-07-28T22:36:36.431Z</time>
			</trkpt>
			<trkpt lat="47.89342" lon="15.30506">
				<ele>1119.16</ele>
				<time>2025-07-28T22:36:38.112Z</time>
			</trkpt>
			<trkpt lat="47.8933" lon="15.30522">
				<ele>1119.18</ele>
				<time>2025-07-28T22:36:38.962Z</time>
			</trkpt>
			<trkpt lat="47.893" lon="15.30548">
				<ele>1122.53</ele>
				<time>2025-07-28T22:36:40.796Z</time>
			</trkpt>
			<trkpt lat="47.89289" lon="15.30561">
				<ele>1122.45</ele>
				<time>2025-07-28T22:36:41.538Z</time>
			</trkpt>
			<trkpt lat="47.89279" lon="15.30577">
				<ele>1119.83</ele>
				<time>2025-07-28T22:36:42.313Z</time>
			</trkpt>
			<trkpt lat="47.89253" lon="15.30622">
				<ele>1110.28</ele>
				<time>2025-07-28T22:36:44.421Z</time>
			</trkpt>
			<trkpt lat="47.89242" lon="15.30632">
				<ele>1108.52</ele>
				<time>2025-07-28T22:36:45.103Z</time>
			</trkpt>
			<trkpt lat="47.89233" lon="15.30635">
				<ele>1108.21</ele>
				<time>2025-07-28T22:36:45.592Z</time>
			</trkpt>
			<trkpt lat="47.8922" lon="15.30634">
				<ele>1108.7</ele>
				<time>2025-07-28T22:36:46.282Z</time>
			</trkpt>
			<trkpt lat="47.89182" lon="15.30609">
				<ele>1107.41</ele>
				<time>2025-07-28T22:36:48.484Z</time>
			</trkpt>
			<trkpt lat="47.89168" lon="15.30606">
				<ele>1106.76</ele>
				<time>2025-07-28T22:36:49.234Z</time>
			</trkpt>
			<trkpt lat="47.89149" lon="15.30612">
				<ele>1105.92</ele>
				<time>2025-07-28T22:36:50.265Z</time>
			</trkpt>
			<trkpt lat="47.89138" lon="15.30622">
				<ele>1105.18</ele>
				<time>2025-07-28T22:36:50.949Z</time>
			</trkpt>
			<trkpt lat="47.89129" lon="15.30635">
				<ele>1104.21</ele>
				<time>2025-07-28T22:36:51.615Z</time>
			</trkpt>
			<trkpt lat="47.89121" lon="15.30656">
				<ele>1103.37</ele>
				<time>2025-07-28T22:36:52.475Z</time>
			</trkpt>
			<trkpt lat="47.89116" lon="15.30683">
				<ele>1103</ele>
				<time>2025-07-28T22:36:53.474Z</time>
			</trkpt>
			<trkpt lat="47.89111" lon="15.30745">
				<ele>1106.46</ele>
				<time>2025-07-28T22:36:55.702Z</time>
			</trkpt>
			<trkpt lat="47.89112" lon="15.30799">
				<ele>1109.68</ele>
				<time>2025-07-28T22:36:57.631Z</time>
			</trkpt>
			<trkpt lat="47.89121" lon="15.30886">
				<ele>1107.61</ele>
				<time>2025-07-28T22:37:00.779Z</time>
			</trkpt>
			<trkpt lat="47.8912" lon="15.30918">
				<ele>1106.69</ele>
				<time>2025-07-28T22:37:01.926Z</time>
			</trkpt>
			<trkpt lat="47.89116" lon="15.30943">
				<ele>1107.17</ele>
				<time>2025-07-28T22:37:02.846Z</time>
			</trkpt>
			<trkpt lat="47.89111" lon="15.30966">
				<ele>1107.17</ele>
				<time>2025-07-28T22:37:03.713Z</time>
			</trkpt>
			<trkpt lat="47.89102" lon="15.30993">
				<ele>1106.69</ele>
				<time>2025-07-28T22:37:04.794Z</time>
			</trkpt>
			<trkpt lat="47.89093" lon="15.31008">
				<ele>1105.91</ele>
				<time>2025-07-28T22:37:05.516Z</time>
			</trkpt>
			<trkpt lat="47.89084" lon="15.31017">
				<ele>1105.09</ele>
				<time>2025-07-28T22:37:06.096Z</time>
			</trkpt>
			<trkpt lat="47.89072" lon="15.31024">
				<ele>1105.25</ele>
				<time>2025-07-28T22:37:06.785Z</time>
			</trkpt>
			<trkpt lat="47.89049" lon="15.31025">
				<ele>1106.4</ele>
				<time>2025-07-28T22:37:08.017Z</time>
			</trkpt>
			<trkpt lat="47.89024" lon="15.3102">
				<ele>1107.22</ele>
				<time>2025-07-28T22:37:09.369Z</time>
			</trkpt>
			<trkpt lat="47.88956" lon="15.30995">
				<ele>1102.21</ele>
				<time>2025-07-28T22:37:13.127Z</time>
			</trkpt>
			<trkpt lat="47.88884" lon="15.30983">
				<ele>1097.86</ele>
				<time>2025-07-28T22:37:17.022Z</time>
			</trkpt>
			<trkpt lat="47.88838" lon="15.30969">
				<ele>1094.73</ele>
				<time>2025-07-28T22:37:19.551Z</time>
			</trkpt>
			<trkpt lat="47.88803" lon="15.30967">
				<ele>1093.11</ele>
				<time>2025-07-28T22:37:21.440Z</time>
			</trkpt>
			<trkpt lat="47.88783" lon="15.30963">
				<ele>1092.45</ele>
				<time>2025-07-28T22:37:22.529Z</time>
			</trkpt>
			<trkpt lat="47.8876" lon="15.3095">
				<ele>1092.98</ele>
				<time>2025-07-28T22:37:23.857Z</time>
			</trkpt>
			<trkpt lat="47.88692" lon="15.30898">
				<ele>1092.93</ele>
				<time>2025-07-28T22:37:27.990Z</time>
			</trkpt>
			<trkpt lat="47.88676" lon="15.30894">
				<ele>1094.1</ele>
				<time>2025-07-28T22:37:28.869Z</time>
			</trkpt>
			<trkpt lat="47.88659" lon="15.30894">
				<ele>1094.54</ele>
				<time>2025-07-28T22:37:29.790Z</time>
			</trkpt>
			<trkpt lat="47.88633" lon="15.30903">
				<ele>1091.31</ele>
				<time>2025-07-28T22:37:31.237Z</time>
			</trkpt>
			<trkpt lat="47.88614" lon="15.30914">
				<ele>1087.76</ele>
				<time>2025-07-28T22:37:32.343Z</time>
			</trkpt>
			<trkpt lat="47.88541" lon="15.30969">
				<ele>1092.39</ele>
				<time>2025-07-28T22:37:36.787Z</time>
			</trkpt>
			<trkpt lat="47.88519" lon="15.30981">
				<ele>1091.66</ele>
				<time>2025-07-28T22:37:38.063Z</time>
			</trkpt>
			<trkpt lat="47.8848" lon="15.30998">
				<ele>1085.9</ele>
				<time>2025-07-28T22:37:40.276Z</time>
			</trkpt>
			<trkpt lat="47.88459" lon="15.3101">
				<ele>1081.79</ele>
				<time>2025-07-28T22:37:41.503Z</time>
			</trkpt>
			<trkpt lat="47.88438" lon="15.31028">
				<ele>1078.26</ele>
				<time>2025-07-28T22:37:42.825Z</time>
			</trkpt>
			<trkpt lat="47.88407" lon="15.31061">
				<ele>1071.45</ele>
				<time>2025-07-28T22:37:44.906Z</time>
			</trkpt>
			<trkpt lat="47.88393" lon="15.31083">
				<ele>1067.27</ele>
				<time>2025-07-28T22:37:46.018Z</time>
			</trkpt>
			<trkpt lat="47.88388" lon="15.31099">
				<ele>1065.89</ele>
				<time>2025-07-28T22:37:46.666Z</time>
			</trkpt>
			<trkpt lat="47.88386" lon="15.31116">
				<ele>1065.46</ele>
				<time>2025-07-28T22:37:47.299Z</time>
			</trkpt>
			<trkpt lat="47.88389" lon="15.31134">
				<ele>1065.26</ele>
				<time>2025-07-28T22:37:47.980Z</time>
			</trkpt>
			<trkpt lat="47.88395" lon="15.31149">
				<ele>1065.58</ele>
				<time>2025-07-28T22:37:48.622Z</time>
			</trkpt>
			<trkpt lat="47.88403" lon="15.31161">
				<ele>1065.56</ele>
				<time>2025-07-28T22:37:49.244Z</time>
			</trkpt>
			<trkpt lat="47.88423" lon="15.31182">
				<ele>1065.58</ele>
				<time>2025-07-28T22:37:50.585Z</time>
			</trkpt>
			<trkpt lat="47.88438" lon="15.31201">
				<ele>1067.26</ele>
				<time>2025-07-28T22:37:51.665Z</time>
			</trkpt>
			<trkpt lat="47.88453" lon="15.31225">
				<ele>1068.55</ele>
				<time>2025-07-28T22:37:52.873Z</time>
			</trkpt>
			<trkpt lat="47.88471" lon="15.3126">
				<ele>1066.38</ele>
				<time>2025-07-28T22:37:54.498Z</time>
			</trkpt>
			<trkpt lat="47.88479" lon="15.31284">
				<ele>1062.85</ele>
				<time>2025-07-28T22:37:55.487Z</time>
			</trkpt>
			<trkpt lat="47.88479" lon="15.31308">
				<ele>1060.01</ele>
				<time>2025-07-28T22:37:56.372Z</time>
			</trkpt>
			<trkpt lat="47.88476" lon="15.3133">
				<ele>1059.72</ele>
				<time>2025-07-28T22:37:57.201Z</time>
			</trkpt>
			<trkpt lat="47.88464" lon="15.31354">
				<ele>1057.41</ele>
				<time>2025-07-28T22:37:58.307Z</time>
			</trkpt>
			<trkpt lat="47.88419" lon="15.31415">
				<ele>1046.75</ele>
				<time>2025-07-28T22:38:01.661Z</time>
			</trkpt>
			<trkpt lat="47.88384" lon="15.31454">
				<ele>1042.4</ele>
				<time>2025-07-28T22:38:04.076Z</time>
			</trkpt>
			<trkpt lat="47.88347" lon="15.31488">
				<ele>1043.65</ele>
				<time>2025-07-28T22:38:06.481Z</time>
			</trkpt>
			<trkpt lat="47.88297" lon="15.31522">
				<ele>1042.62</ele>
				<time>2025-07-28T22:38:09.527Z</time>
			</trkpt>
			<trkpt lat="47.88267" lon="15.31537">
				<ele>1038.35</ele>
				<time>2025-07-28T22:38:11.283Z</time>
			</trkpt>
			<trkpt lat="47.88231" lon="15.3155">
				<ele>1034.28</ele>
				<time>2025-07-28T22:38:13.342Z</time>
			</trkpt>
			<trkpt lat="47.88216" lon="15.31559">
				<ele>1033.48</ele>
				<time>2025-07-28T22:38:14.241Z</time>
			</trkpt>
			<trkpt lat="47.88154" lon="15.31613">
				<ele>1029.35</ele>
				<time>2025-07-28T22:38:18.242Z</time>
			</trkpt>
			<trkpt lat="47.88105" lon="15.31667">
				<ele>1029.25</ele>
				<time>2025-07-28T22:38:21.644Z</time>
			</trkpt>
			<trkpt lat="47.88064" lon="15.31706">
				<ele>1027.72</ele>
				<time>2025-07-28T22:38:24.366Z</time>
			</trkpt>
			<trkpt lat="47.88016" lon="15.3175">
				<ele>1015.76</ele>
				<time>2025-07-28T22:38:27.524Z</time>
			</trkpt>
			<trkpt lat="47.87999" lon="15.31775">
				<ele>1010.67</ele>
				<time>2025-07-28T22:38:28.865Z</time>
			</trkpt>
			<trkpt lat="47.8798" lon="15.31821">
				<ele>1011.05</ele>
				<time>2025-07-28T22:38:30.901Z</time>
			</trkpt>
			<trkpt lat="47.87934" lon="15.3198">
				<ele>1010.36</ele>
				<time>2025-07-28T22:38:37.446Z</time>
			</trkpt>
			<trkpt lat="47.87921" lon="15.32015">
				<ele>1008.81</ele>
				<time>2025-07-28T22:38:38.963Z</time>
			</trkpt>
			<trkpt lat="47.87896" lon="15.32075">
				<ele>1006.11</ele>
				<time>2025-07-28T22:38:41.643Z</time>
			</trkpt>
			<trkpt lat="47.87882" lon="15.32106">
				<ele>1005.46</ele>
				<time>2025-07-28T22:38:43.064Z</time>
			</trkpt>
			<trkpt lat="47.87872" lon="15.32124">
				<ele>1003.84</ele>
				<time>2025-07-28T22:38:43.953Z</time>
			</trkpt>
			<trkpt lat="47.87846" lon="15.3216">
				<ele>1001.74</ele>
				<time>2025-07-28T22:38:45.967Z</time>
			</trkpt>
			<trkpt lat="47.87834" lon="15.32172">
				<ele>1000.8</ele>
				<time>2025-07-28T22:38:46.788Z</time>
			</trkpt>
			<trkpt lat="47.87813" lon="15.32186">
				<ele>997</ele>
				<time>2025-07-28T22:38:48.095Z</time>
			</trkpt>
			<trkpt lat="47.87746" lon="15.32214">
				<ele>992.8</ele>
				<time>2025-07-28T22:38:52.059Z</time>
			</trkpt>
			<trkpt lat="47.87721" lon="15.32222">
				<ele>987.84</ele>
				<time>2025-07-28T22:38:53.517Z</time>
			</trkpt>
			<trkpt lat="47.87696" lon="15.32226">
				<ele>985.63</ele>
				<time>2025-07-28T22:38:54.954Z</time>
			</trkpt>
			<trkpt lat="47.8767" lon="15.32224">
				<ele>982.79</ele>
				<time>2025-07-28T22:38:56.442Z</time>
			</trkpt>
			<trkpt lat="47.87651" lon="15.32213">
				<ele>979.38</ele>
				<time>2025-07-28T22:38:57.608Z</time>
			</trkpt>
			<trkpt lat="47.87636" lon="15.32197">
				<ele>976.33</ele>
				<time>2025-07-28T22:38:58.664Z</time>
			</trkpt>
			<trkpt lat="47.87625" lon="15.32178">
				<ele>976.13</ele>
				<time>2025-07-28T22:38:59.629Z</time>
			</trkpt>
			<trkpt lat="47.87619" lon="15.32161">
				<ele>975.65</ele>
				<time>2025-07-28T22:39:00.368Z</time>
			</trkpt>
			<trkpt lat="47.87614" lon="15.32141">
				<ele>975.8</ele>
				<time>2025-07-28T22:39:01.189Z</time>
			</trkpt>
			<trkpt lat="47.87593" lon="15.31973">
				<ele>978.25</ele>
				<time>2025-07-28T22:39:07.782Z</time>
			</trkpt>
			<trkpt lat="47.87591" lon="15.31945">
				<ele>977.91</ele>
				<time>2025-07-28T22:39:08.871Z</time>
			</trkpt>
			<trkpt lat="47.87589" lon="15.31859">
				<ele>972.52</ele>
				<time>2025-07-28T22:39:12.205Z</time>
			</trkpt>
			<trkpt lat="47.87585" lon="15.3177">
				<ele>970.92</ele>
				<time>2025-07-28T22:39:15.668Z</time>
			</trkpt>
			<trkpt lat="47.8758" lon="15.31713">
				<ele>969.6</ele>
				<time>2025-07-28T22:39:17.905Z</time>
			</trkpt>
			<trkpt lat="47.87569" lon="15.31673">
				<ele>967.26</ele>
				<time>2025-07-28T22:39:19.589Z</time>
			</trkpt>
			<trkpt lat="47.87525" lon="15.31558">
				<ele>951.6</ele>
				<time>2025-07-28T22:39:24.760Z</time>
			</trkpt>
			<trkpt lat="47.87507" lon="15.31525">
				<ele>947.61</ele>
				<time>2025-07-28T22:39:26.425Z</time>
			</trkpt>
			<trkpt lat="47.87491" lon="15.31507">
				<ele>947.53</ele>
				<time>2025-07-28T22:39:27.596Z</time>
			</trkpt>
			<trkpt lat="47.87473" lon="15.31492">
				<ele>950.48</ele>
				<time>2025-07-28T22:39:28.802Z</time>
			</trkpt>
			<trkpt lat="47.8746" lon="15.31487">
				<ele>951.58</ele>
				<time>2025-07-28T22:39:29.588Z</time>
			</trkpt>
			<trkpt lat="47.87452" lon="15.31487">
				<ele>952.32</ele>
				<time>2025-07-28T22:39:30.056Z</time>
			</trkpt>
			<trkpt lat="47.87444" lon="15.31491">
				<ele>952.97</ele>
				<time>2025-07-28T22:39:30.550Z</time>
			</trkpt>
			<trkpt lat="47.87437" lon="15.31498">
				<ele>952.77</ele>
				<time>2025-07-28T22:39:31.044Z</time>
			</trkpt>
			<trkpt lat="47.87388" lon="15.3157">
				<ele>945.46</ele>
				<time>2025-07-28T22:39:35.081Z</time>
			</trkpt>
			<trkpt lat="47.87379" lon="15.31581">
				<ele>944.74</ele>
				<time>2025-07-28T22:39:35.765Z</time>
			</trkpt>
			<trkpt lat="47.8737" lon="15.31588">
				<ele>944.41</ele>
				<time>2025-07-28T22:39:36.362Z</time>
			</trkpt>
			<trkpt lat="47.87362" lon="15.31593">
				<ele>944.06</ele>
				<time>2025-07-28T22:39:36.872Z</time>
			</trkpt>
			<trkpt lat="47.87347" lon="15.31597">
				<ele>944.5</ele>
				<time>2025-07-28T22:39:37.769Z</time>
			</trkpt>
			<trkpt lat="47.87288" lon="15.31601">
				<ele>945.23</ele>
				<time>2025-07-28T22:39:41.251Z</time>
			</trkpt>
			<trkpt lat="47.87259" lon="15.31609">
				<ele>948.9</ele>
				<time>2025-07-28T22:39:42.993Z</time>
			</trkpt>
			<trkpt lat="47.8724" lon="15.31621">
				<ele>950.83</ele>
				<time>2025-07-28T22:39:44.213Z</time>
			</trkpt>
			<trkpt lat="47.87223" lon="15.31639">
				<ele>951.67</ele>
				<time>2025-07-28T22:39:45.446Z</time>
			</trkpt>
			<trkpt lat="47.87209" lon="15.31657">
				<ele>950.44</ele>
				<time>2025-07-28T22:39:46.541Z</time>
			</trkpt>
			<trkpt lat="47.87172" lon="15.31724">
				<ele>939.58</ele>
				<time>2025-07-28T22:39:49.995Z</time>
			</trkpt>
			<trkpt lat="47.87155" lon="15.31741">
				<ele>933.54</ele>
				<time>2025-07-28T22:39:51.211Z</time>
			</trkpt>
			<trkpt lat="47.87144" lon="15.31748">
				<ele>930.29</ele>
				<time>2025-07-28T22:39:51.923Z</time>
			</trkpt>
			<trkpt lat="47.87133" lon="15.3175">
				<ele>927.53</ele>
				<time>2025-07-28T22:39:52.582Z</time>
			</trkpt>
			<trkpt lat="47.87108" lon="15.31744">
				<ele>922.58</ele>
				<time>2025-07-28T22:39:54.090Z</time>
			</trkpt>
			<trkpt lat="47.87084" lon="15.31728">
				<ele>918.94</ele>
				<time>2025-07-28T22:39:55.657Z</time>
			</trkpt>
			<trkpt lat="47.87068" lon="15.31712">
				<ele>918.18</ele>
				<time>2025-07-28T22:39:56.806Z</time>
			</trkpt>
			<trkpt lat="47.87053" lon="15.31692">
				<ele>917.49</ele>
				<time>2025-07-28T22:39:58.008Z</time>
			</trkpt>
			<trkpt lat="47.87038" lon="15.31669">
				<ele>915.62</ele>
				<time>2025-07-28T22:39:59.294Z</time>
			</trkpt>
			<trkpt lat="47.87025" lon="15.31644">
				<ele>915.27</ele>
				<time>2025-07-28T22:40:00.564Z</time>
			</trkpt>
			<trkpt lat="47.86999" lon="15.31579">
				<ele>920.47</ele>
				<time>2025-07-28T22:40:03.606Z</time>
			</trkpt>
			<trkpt lat="47.86993" lon="15.31575">
				<ele>919.67</ele>
				<time>2025-07-28T22:40:04.001Z</time>
			</trkpt>
			<trkpt lat="47.86988" lon="15.31576">
				<ele>917.91</ele>
				<time>2025-07-28T22:40:04.303Z</time>
			</trkpt>
			<trkpt lat="47.86983" lon="15.31582">
				<ele>915.34</ele>
				<time>2025-07-28T22:40:04.689Z</time>
			</trkpt>
			<trkpt lat="47.86982" lon="15.31587">
				<ele>913.76</ele>
				<time>2025-07-28T22:40:04.899Z</time>
			</trkpt>
			<trkpt lat="47.86982" lon="15.31592">
				<ele>912.22</ele>
				<time>2025-07-28T22:40:05.100Z</time>
			</trkpt>
			<trkpt lat="47.86984" lon="15.31602">
				<ele>910.08</ele>
				<time>2025-07-28T22:40:05.521Z</time>
			</trkpt>
			<trkpt lat="47.87005" lon="15.3164">
				<ele>908.62</ele>
				<time>2025-07-28T22:40:07.506Z</time>
			</trkpt>
			<trkpt lat="47.87037" lon="15.31708">
				<ele>909.82</ele>
				<time>2025-07-28T22:40:10.863Z</time>
			</trkpt>
			<trkpt lat="47.87192" lon="15.31948">
				<ele>896.87</ele>
				<time>2025-07-28T22:40:24.410Z</time>
			</trkpt>
			<trkpt lat="47.87215" lon="15.31995">
				<ele>901.91</ele>
				<time>2025-07-28T22:40:26.790Z</time>
			</trkpt>
			<trkpt lat="47.87231" lon="15.32039">
				<ele>898.81</ele>
				<time>2025-07-28T22:40:28.840Z</time>
			</trkpt>
			<trkpt lat="47.87251" lon="15.32097">
				<ele>895.79</ele>
				<time>2025-07-28T22:40:31.517Z</time>
			</trkpt>
			<trkpt lat="47.87273" lon="15.32146">
				<ele>894.07</ele>
				<time>2025-07-28T22:40:33.942Z</time>
			</trkpt>
			<trkpt lat="47.87278" lon="15.32161">
				<ele>893.03</ele>
				<time>2025-07-28T22:40:34.632Z</time>
			</trkpt>
			<trkpt lat="47.8728" lon="15.32183">
				<ele>891.01</ele>
				<time>2025-07-28T22:40:35.546Z</time>
			</trkpt>
			<trkpt lat="47.87277" lon="15.32205">
				<ele>888.09</ele>
				<time>2025-07-28T22:40:36.472Z</time>
			</trkpt>
			<trkpt lat="47.87255" lon="15.32253">
				<ele>880.78</ele>
				<time>2025-07-28T22:40:38.872Z</time>
			</trkpt>
			<trkpt lat="47.87251" lon="15.32273">
				<ele>879.41</ele>
				<time>2025-07-28T22:40:39.734Z</time>
			</trkpt>
			<trkpt lat="47.87249" lon="15.32292">
				<ele>878.67</ele>
				<time>2025-07-28T22:40:40.529Z</time>
			</trkpt>
			<trkpt lat="47.87251" lon="15.32316">
				<ele>878.74</ele>
				<time>2025-07-28T22:40:41.530Z</time>
			</trkpt>
			<trkpt lat="47.87261" lon="15.32394">
				<ele>875.93</ele>
				<time>2025-07-28T22:40:44.822Z</time>
			</trkpt>
			<trkpt lat="47.87265" lon="15.32417">
				<ele>873.2</ele>
				<time>2025-07-28T22:40:45.808Z</time>
			</trkpt>
			<trkpt lat="47.87272" lon="15.32437">
				<ele>873.38</ele>
				<time>2025-07-28T22:40:46.746Z</time>
			</trkpt>
			<trkpt lat="47.87295" lon="15.32493">
				<ele>871.4</ele>
				<time>2025-07-28T22:40:49.478Z</time>
			</trkpt>
			<trkpt lat="47.87329" lon="15.32603">
				<ele>868.4</ele>
				<time>2025-07-28T22:40:54.532Z</time>
			</trkpt>
			<trkpt lat="47.87333" lon="15.3262">
				<ele>866.64</ele>
				<time>2025-07-28T22:40:55.285Z</time>
			</trkpt>
			<trkpt lat="47.87335" lon="15.32641">
				<ele>864.09</ele>
				<time>2025-07-28T22:40:56.173Z</time>
			</trkpt>
			<trkpt lat="47.87332" lon="15.32681">
				<ele>856.68</ele>
				<time>2025-07-28T22:40:57.859Z</time>
			</trkpt>
			<trkpt lat="47.87303" lon="15.32876">
				<ele>842.9</ele>
				<time>2025-07-28T22:41:06.258Z</time>
			</trkpt>
			<trkpt lat="47.87298" lon="15.32889">
				<ele>842.45</ele>
				<time>2025-07-28T22:41:06.890Z</time>
			</trkpt>
			<trkpt lat="47.87288" lon="15.32906">
				<ele>839.75</ele>
				<time>2025-07-28T22:41:07.845Z</time>
			</trkpt>
			<trkpt lat="47.87275" lon="15.32915">
				<ele>836.61</ele>
				<time>2025-07-28T22:41:08.747Z</time>
			</trkpt>
			<trkpt lat="47.87266" lon="15.32916">
				<ele>834.52</ele>
				<time>2025-07-28T22:41:09.316Z</time>
			</trkpt>
			<trkpt lat="47.87255" lon="15.32912">
				<ele>832.63</ele>
				<time>2025-07-28T22:41:10.030Z</time>
			</trkpt>
			<trkpt lat="47.87172" lon="15.32843">
				<ele>824.51</ele>
				<time>2025-07-28T22:41:16.038Z</time>
			</trkpt>
			<trkpt lat="47.87156" lon="15.32832">
				<ele>825.36</ele>
				<time>2025-07-28T22:41:17.155Z</time>
			</trkpt>
			<trkpt lat="47.8714" lon="15.32828">
				<ele>825.77</ele>
				<time>2025-07-28T22:41:18.184Z</time>
			</trkpt>
			<trkpt lat="47.87129" lon="15.32829">
				<ele>825.24</ele>
				<time>2025-07-28T22:41:18.884Z</time>
			</trkpt>
			<trkpt lat="47.87093" lon="15.32844">
				<ele>822.48</ele>
				<time>2025-07-28T22:41:21.260Z</time>
			</trkpt>
			<trkpt lat="47.87079" lon="15.32842">
				<ele>820.94</ele>
				<time>2025-07-28T22:41:22.155Z</time>
			</trkpt>
			<trkpt lat="47.87067" lon="15.32834">
				<ele>819.1</ele>
				<time>2025-07-28T22:41:22.992Z</time>
			</trkpt>
			<trkpt lat="47.87032" lon="15.32799">
				<ele>815.43</ele>
				<time>2025-07-28T22:41:25.680Z</time>
			</trkpt>
			<trkpt lat="47.87017" lon="15.32786">
				<ele>815.26</ele>
				<time>2025-07-28T22:41:26.788Z</time>
			</trkpt>
			<trkpt lat="47.87004" lon="15.32781">
				<ele>814.91</ele>
				<time>2025-07-28T22:41:27.646Z</time>
			</trkpt>
			<trkpt lat="47.86994" lon="15.32783">
				<ele>814.03</ele>
				<time>2025-07-28T22:41:28.291Z</time>
			</trkpt>
			<trkpt lat="47.86989" lon="15.32787">
				<ele>813.13</ele>
				<time>2025-07-28T22:41:28.654Z</time>
			</trkpt>
			<trkpt lat="47.86976" lon="15.32806">
				<ele>810.29</ele>
				<time>2025-07-28T22:41:29.820Z</time>
			</trkpt>
			<trkpt lat="47.86972" lon="15.32814">
				<ele>810</ele>
				<time>2025-07-28T22:41:30.248Z</time>
			</trkpt>
			<trkpt lat="47.8696" lon="15.32798">
				<ele>810.76</ele>
				<time>2025-07-28T22:41:31.280Z</time>
			</trkpt>
			<trkpt lat="47.86942" lon="15.32765">
				<ele>814.18</ele>
				<time>2025-07-28T22:41:33.111Z</time>
			</trkpt>
			<trkpt lat="47.86924" lon="15.32722">
				<ele>814.17</ele>
				<time>2025-07-28T22:41:35.296Z</time>
			</trkpt>
			<trkpt lat="47.86917" lon="15.32698">
				<ele>811.48</ele>
				<time>2025-07-28T22:41:36.425Z</time>
			</trkpt>
			<trkpt lat="47.8691" lon="15.32662">
				<ele>808.79</ele>
				<time>2025-07-28T22:41:38.045Z</time>
			</trkpt>
			<trkpt lat="47.86905" lon="15.32613">
				<ele>807.58</ele>
				<time>2025-07-28T22:41:40.190Z</time>
			</trkpt>
			<trkpt lat="47.86904" lon="15.32579">
				<ele>807.31</ele>
				<time>2025-07-28T22:41:41.664Z</time>
			</trkpt>
			<trkpt lat="47.86905" lon="15.32554">
				<ele>808.85</ele>
				<time>2025-07-28T22:41:42.751Z</time>
			</trkpt>
			<trkpt lat="47.86915" lon="15.32489">
				<ele>810.44</ele>
				<time>2025-07-28T22:41:45.648Z</time>
			</trkpt>
			<trkpt lat="47.86937" lon="15.32383">
				<ele>811.94</ele>
				<time>2025-07-28T22:41:50.462Z</time>
			</trkpt>
			<trkpt lat="47.86953" lon="15.3228">
				<ele>809.88</ele>
				<time>2025-07-28T22:41:55.029Z</time>
			</trkpt>
			<trkpt lat="47.8696" lon="15.32198">
				<ele>805.15</ele>
				<time>2025-07-28T22:41:58.586Z</time>
			</trkpt>
			<trkpt lat="47.86962" lon="15.32152">
				<ele>805.17</ele>
				<time>2025-07-28T22:42:00.565Z</time>
			</trkpt>
			<trkpt lat="47.86962" lon="15.32077">
				<ele>806.71</ele>
				<time>2025-07-28T22:42:03.777Z</time>
			</trkpt>
			<trkpt lat="47.86959" lon="15.32023">
				<ele>807.8</ele>
				<time>2025-07-28T22:42:06.092Z</time>
			</trkpt>
			<trkpt lat="47.86954" lon="15.31984">
				<ele>808.67</ele>
				<time>2025-07-28T22:42:07.786Z</time>
			</trkpt>
			<trkpt lat="47.86945" lon="15.31938">
				<ele>810.26</ele>
				<time>2025-07-28T22:42:09.826Z</time>
			</trkpt>
			<trkpt lat="47.86935" lon="15.31903">
				<ele>813.48</ele>
				<time>2025-07-28T22:42:11.443Z</time>
			</trkpt>
			<trkpt lat="47.86921" lon="15.31868">
				<ele>816.55</ele>
				<time>2025-07-28T22:42:13.173Z</time>
			</trkpt>
			<trkpt lat="47.86899" lon="15.31819">
				<ele>817.98</ele>
				<time>2025-07-28T22:42:15.671Z</time>
			</trkpt>
			<trkpt lat="47.86856" lon="15.31733">
				<ele>818.46</ele>
				<time>2025-07-28T22:42:20.202Z</time>
			</trkpt>
			<trkpt lat="47.86787" lon="15.31608">
				<ele>812.83</ele>
				<time>2025-07-28T22:42:27.007Z</time>
			</trkpt>
			<trkpt lat="47.86735" lon="15.31522">
				<ele>808.66</ele>
				<time>2025-07-28T22:42:31.850Z</time>
			</trkpt>
			<trkpt lat="47.86689" lon="15.31454">
				<ele>804.86</ele>
				<time>2025-07-28T22:42:35.876Z</time>
			</trkpt>
			<trkpt lat="47.86671" lon="15.3143">
				<ele>807.43</ele>
				<time>2025-07-28T22:42:37.373Z</time>
			</trkpt>
			<trkpt lat="47.86657" lon="15.31416">
				<ele>808.71</ele>
				<time>2025-07-28T22:42:38.417Z</time>
			</trkpt>
			<trkpt lat="47.86641" lon="15.31403">
				<ele>809.51</ele>
				<time>2025-07-28T22:42:39.544Z</time>
			</trkpt>
			<trkpt lat="47.86618" lon="15.31389">
				<ele>807.96</ele>
				<time>2025-07-28T22:42:41.080Z</time>
			</trkpt>
			<trkpt lat="47.86563" lon="15.31362">
				<ele>805.88</ele>
				<time>2025-07-28T22:42:44.652Z</time>
			</trkpt>
			<trkpt lat="47.86546" lon="15.31347">
				<ele>805.5</ele>
				<time>2025-07-28T22:42:45.868Z</time>
			</trkpt>
			<trkpt lat="47.86536" lon="15.31334">
				<ele>805.28</ele>
				<time>2025-07-28T22:42:46.685Z</time>
			</trkpt>
			<trkpt lat="47.86526" lon="15.31314">
				<ele>805.56</ele>
				<time>2025-07-28T22:42:47.714Z</time>
			</trkpt>
			<trkpt lat="47.8652" lon="15.31299">
				<ele>805.89</ele>
				<time>2025-07-28T22:42:48.433Z</time>
			</trkpt>
			<trkpt lat="47.86506" lon="15.31233">
				<ele>806.98</ele>
				<time>2025-07-28T22:42:51.282Z</time>
			</trkpt>
			<trkpt lat="47.86498" lon="15.31206">
				<ele>807</ele>
				<time>2025-07-28T22:42:52.495Z</time>
			</trkpt>
			<trkpt lat="47.86491" lon="15.3119">
				<ele>806.86</ele>
				<time>2025-07-28T22:42:53.280Z</time>
			</trkpt>
			<trkpt lat="47.8638" lon="15.31047">
				<ele>801.77</ele>
				<time>2025-07-28T22:43:02.228Z</time>
			</trkpt>
			<trkpt lat="47.86339" lon="15.31003">
				<ele>801.59</ele>
				<time>2025-07-28T22:43:05.296Z</time>
			</trkpt>
			<trkpt lat="47.86311" lon="15.30978">
				<ele>798.61</ele>
				<time>2025-07-28T22:43:07.274Z</time>
			</trkpt>
			<trkpt lat="47.86285" lon="15.30957">
				<ele>796.34</ele>
				<time>2025-07-28T22:43:09.064Z</time>
			</trkpt>
			<trkpt lat="47.86247" lon="15.30932">
				<ele>794</ele>
				<time>2025-07-28T22:43:11.574Z</time>
			</trkpt>
			<trkpt lat="47.86224" lon="15.30919">
				<ele>794</ele>
				<time>2025-07-28T22:43:13.059Z</time>
			</trkpt>
			<trkpt lat="47.8618" lon="15.30899">
				<ele>797.81</ele>
				<time>2025-07-28T22:43:15.832Z</time>
			</trkpt>
			<trkpt lat="47.86168" lon="15.30897">
				<ele>799.63</ele>
				<time>2025-07-28T22:43:16.558Z</time>
			</trkpt>
			<trkpt lat="47.86155" lon="15.30898">
				<ele>801.17</ele>
				<time>2025-07-28T22:43:17.342Z</time>
			</trkpt>
			<trkpt lat="47.86143" lon="15.30902">
				<ele>803.01</ele>
				<time>2025-07-28T22:43:18.081Z</time>
			</trkpt>
			<trkpt lat="47.86132" lon="15.3091">
				<ele>805.9</ele>
				<time>2025-07-28T22:43:18.817Z</time>
			</trkpt>
			<trkpt lat="47.86098" lon="15.30949">
				<ele>813.57</ele>
				<time>2025-07-28T22:43:21.393Z</time>
			</trkpt>
			<trkpt lat="47.86084" lon="15.30961">
				<ele>815.82</ele>
				<time>2025-07-28T22:43:22.361Z</time>
			</trkpt>
			<trkpt lat="47.86068" lon="15.30966">
				<ele>816.94</ele>
				<time>2025-07-28T22:43:23.341Z</time>
			</trkpt>
			<trkpt lat="47.86058" lon="15.30965">
				<ele>817.16</ele>
				<time>2025-07-28T22:43:23.941Z</time>
			</trkpt>
			<trkpt lat="47.86048" lon="15.3096">
				<ele>817.87</ele>
				<time>2025-07-28T22:43:24.573Z</time>
			</trkpt>
			<trkpt lat="47.86041" lon="15.30954">
				<ele>818.39</ele>
				<time>2025-07-28T22:43:25.056Z</time>
			</trkpt>
			<trkpt lat="47.86034" lon="15.30944">
				<ele>818.76</ele>
				<time>2025-07-28T22:43:25.636Z</time>
			</trkpt>
			<trkpt lat="47.86025" lon="15.30922">
				<ele>819.35</ele>
				<time>2025-07-28T22:43:26.670Z</time>
			</trkpt>
			<trkpt lat="47.86021" lon="15.30904">
				<ele>821.08</ele>
				<time>2025-07-28T22:43:27.431Z</time>
			</trkpt>
			<trkpt lat="47.86011" lon="15.30843">
				<ele>824.25</ele>
				<time>2025-07-28T22:43:29.946Z</time>
			</trkpt>
			<trkpt lat="47.86005" lon="15.30822">
				<ele>823.45</ele>
				<time>2025-07-28T22:43:30.860Z</time>
			</trkpt>
			<trkpt lat="47.85999" lon="15.30808">
				<ele>823.38</ele>
				<time>2025-07-28T22:43:31.524Z</time>
			</trkpt>
			<trkpt lat="47.85984" lon="15.30792">
				<ele>824.82</ele>
				<time>2025-07-28T22:43:32.623Z</time>
			</trkpt>
			<trkpt lat="47.85941" lon="15.30771">
				<ele>824.13</ele>
				<time>2025-07-28T22:43:35.316Z</time>
			</trkpt>
			<trkpt lat="47.8593" lon="15.30763">
				<ele>823.42</ele>
				<time>2025-07-28T22:43:36.044Z</time>
			</trkpt>
			<trkpt lat="47.85919" lon="15.30751">
				<ele>822.89</ele>
				<time>2025-07-28T22:43:36.854Z</time>
			</trkpt>
			<trkpt lat="47.85906" lon="15.30729">
				<ele>823</ele>
				<time>2025-07-28T22:43:38.022Z</time>
			</trkpt>
			<trkpt lat="47.85893" lon="15.30696">
				<ele>823.91</ele>
				<time>2025-07-28T22:43:39.546Z</time>
			</trkpt>
			<trkpt lat="47.8587" lon="15.30634">
				<ele>826.6</ele>
				<time>2025-07-28T22:43:42.364Z</time>
			</trkpt>
			<trkpt lat="47.85837" lon="15.30529">
				<ele>828.94</ele>
				<time>2025-07-28T22:43:46.965Z</time>
			</trkpt>
			<trkpt lat="47.85823" lon="15.30497">
				<ele>832.4</ele>
				<time>2025-07-28T22:43:48.478Z</time>
			</trkpt>
			<trkpt lat="47.85808" lon="15.30478">
				<ele>832.77</ele>
				<time>2025-07-28T22:43:49.640Z</time>
			</trkpt>
			<trkpt lat="47.85797" lon="15.30468">
				<ele>831.03</ele>
				<time>2025-07-28T22:43:50.400Z</time>
			</trkpt>
			<trkpt lat="47.85785" lon="15.30462">
				<ele>828.28</ele>
				<time>2025-07-28T22:43:51.146Z</time>
			</trkpt>
			<trkpt lat="47.85767" lon="15.30458">
				<ele>823.14</ele>
				<time>2025-07-28T22:43:52.218Z</time>
			</trkpt>
			<trkpt lat="47.85757" lon="15.30458">
				<ele>819.49</ele>
				<time>2025-07-28T22:43:52.807Z</time>
			</trkpt>
			<trkpt lat="47.85745" lon="15.30462">
				<ele>815.46</ele>
				<time>2025-07-28T22:43:53.531Z</time>
			</trkpt>
			<trkpt lat="47.85726" lon="15.30476">
				<ele>808.83</ele>
				<time>2025-07-28T22:43:54.778Z</time>
			</trkpt>
			<trkpt lat="47.85714" lon="15.30491">
				<ele>807.31</ele>
				<time>2025-07-28T22:43:55.699Z</time>
			</trkpt>
			<trkpt lat="47.85703" lon="15.30513">
				<ele>806.86</ele>
				<time>2025-07-28T22:43:56.781Z</time>
			</trkpt>
			<trkpt lat="47.85697" lon="15.3054">
				<ele>807.22</ele>
				<time>2025-07-28T22:43:57.903Z</time>
			</trkpt>
			<trkpt lat="47.85694" lon="15.30572">
				<ele>807.93</ele>
				<time>2025-07-28T22:43:59.175Z</time>
			</trkpt>
			<trkpt lat="47.85695" lon="15.30607">
				<ele>807.4</ele>
				<time>2025-07-28T22:44:00.555Z</time>
			</trkpt>
			<trkpt lat="47.85702" lon="15.30644">
				<ele>808.15</ele>
				<time>2025-07-28T22:44:02.067Z</time>
			</trkpt>
			<trkpt lat="47.85718" lon="15.30711">
				<ele>808.76</ele>
				<time>2025-07-28T22:44:04.862Z</time>
			</trkpt>
			<trkpt lat="47.85722" lon="15.30733">
				<ele>808.57</ele>
				<time>2025-07-28T22:44:05.757Z</time>
			</trkpt>
			<trkpt lat="47.85723" lon="15.30761">
				<ele>808.28</ele>
				<time>2025-07-28T22:44:06.857Z</time>
			</trkpt>
			<trkpt lat="47.85719" lon="15.3079">
				<ele>807.47</ele>
				<time>2025-07-28T22:44:08.019Z</time>
			</trkpt>
			<trkpt lat="47.85714" lon="15.30807">
				<ele>806.38</ele>
				<time>2025-07-28T22:44:08.747Z</time>
			</trkpt>
			<trkpt lat="47.857" lon="15.30834">
				<ele>803.42</ele>
				<time>2025-07-28T22:44:10.084Z</time>
			</trkpt>
			<trkpt lat="47.85687" lon="15.30852">
				<ele>803.97</ele>
				<time>2025-07-28T22:44:11.120Z</time>
			</trkpt>
			<trkpt lat="47.85661" lon="15.30885">
				<ele>804.62</ele>
				<time>2025-07-28T22:44:13.112Z</time>
			</trkpt>
			<trkpt lat="47.85609" lon="15.30941">
				<ele>798.94</ele>
				<time>2025-07-28T22:44:16.850Z</time>
			</trkpt>
			<trkpt lat="47.8557" lon="15.30978">
				<ele>798.66</ele>
				<time>2025-07-28T22:44:19.541Z</time>
			</trkpt>
			<trkpt lat="47.85546" lon="15.30998">
				<ele>797</ele>
				<time>2025-07-28T22:44:21.139Z</time>
			</trkpt>
			<trkpt lat="47.85517" lon="15.31017">
				<ele>796</ele>
				<time>2025-07-28T22:44:22.980Z</time>
			</trkpt>
			<trkpt lat="47.85481" lon="15.31033">
				<ele>797.51</ele>
				<time>2025-07-28T22:44:25.161Z</time>
			</trkpt>
			<trkpt lat="47.85454" lon="15.31043">
				<ele>796.81</ele>
				<time>2025-07-28T22:44:26.775Z</time>
			</trkpt>
			<trkpt lat="47.85434" lon="15.31048">
				<ele>797.67</ele>
				<time>2025-07-28T22:44:27.951Z</time>
			</trkpt>
			<trkpt lat="47.85391" lon="15.31051">
				<ele>803.67</ele>
				<time>2025-07-28T22:44:30.445Z</time>
			</trkpt>
			<trkpt lat="47.85355" lon="15.31048">
				<ele>805.6</ele>
				<time>2025-07-28T22:44:32.533Z</time>
			</trkpt>
			<trkpt lat="47.85343" lon="15.31043">
				<ele>806.69</ele>
				<time>2025-07-28T22:44:33.254Z</time>
			</trkpt>
			<trkpt lat="47.85331" lon="15.31034">
				<ele>806.88</ele>
				<time>2025-07-28T22:44:34.031Z</time>
			</trkpt>
			<trkpt lat="47.85326" lon="15.31028">
				<ele>806.58</ele>
				<time>2025-07-28T22:44:34.402Z</time>
			</trkpt>
			<trkpt lat="47.85319" lon="15.31015">
				<ele>806.76</ele>
				<time>2025-07-28T22:44:35.049Z</time>
			</trkpt>
			<trkpt lat="47.85315" lon="15.31001">
				<ele>806.67</ele>
				<time>2025-07-28T22:44:35.640Z</time>
			</trkpt>
			<trkpt lat="47.85315" lon="15.30985">
				<ele>807.18</ele>
				<time>2025-07-28T22:44:36.260Z</time>
			</trkpt>
			<trkpt lat="47.85318" lon="15.30964">
				<ele>808.63</ele>
				<time>2025-07-28T22:44:37.093Z</time>
			</trkpt>
			<trkpt lat="47.85327" lon="15.30945">
				<ele>810.74</ele>
				<time>2025-07-28T22:44:37.995Z</time>
			</trkpt>
			<trkpt lat="47.8534" lon="15.30929">
				<ele>811.55</ele>
				<time>2025-07-28T22:44:38.969Z</time>
			</trkpt>
			<trkpt lat="47.8537" lon="15.30899">
				<ele>810.69</ele>
				<time>2025-07-28T22:44:41.055Z</time>
			</trkpt>
			<trkpt lat="47.85381" lon="15.30883">
				<ele>809.84</ele>
				<time>2025-07-28T22:44:41.942Z</time>
			</trkpt>
			<trkpt lat="47.8539" lon="15.3086">
				<ele>808.93</ele>
				<time>2025-07-28T22:44:42.973Z</time>
			</trkpt>
			<trkpt lat="47.85391" lon="15.30838">
				<ele>810.39</ele>
				<time>2025-07-28T22:44:43.827Z</time>
			</trkpt>
			<trkpt lat="47.85388" lon="15.30824">
				<ele>811.63</ele>
				<time>2025-07-28T22:44:44.395Z</time>
			</trkpt>
			<trkpt lat="47.85383" lon="15.30812">
				<ele>812.59</ele>
				<time>2025-07-28T22:44:44.942Z</time>
			</trkpt>
			<trkpt lat="47.85374" lon="15.30801">
				<ele>813.07</ele>
				<time>2025-07-28T22:44:45.613Z</time>
			</trkpt>
			<trkpt lat="47.85357" lon="15.30791">
				<ele>813.74</ele>
				<time>2025-07-28T22:44:46.667Z</time>
			</trkpt>
			<trkpt lat="47.85345" lon="15.30789">
				<ele>814.6</ele>
				<time>2025-07-28T22:44:47.362Z</time>
			</trkpt>
			<trkpt lat="47.85323" lon="15.30796">
				<ele>816.12</ele>
				<time>2025-07-28T22:44:48.658Z</time>
			</trkpt>
			<trkpt lat="47.85214" lon="15.30869">
				<ele>828.49</ele>
				<time>2025-07-28T22:44:55.536Z</time>
			</trkpt>
			<trkpt lat="47.85163" lon="15.30894">
				<ele>829.81</ele>
				<time>2025-07-28T22:44:58.623Z</time>
			</trkpt>
			<trkpt lat="47.85086" lon="15.30917">
				<ele>834.79</ele>
				<time>2025-07-28T22:45:03.134Z</time>
			</trkpt>
			<trkpt lat="47.8504" lon="15.30935">
				<ele>834.73</ele>
				<time>2025-07-28T22:45:05.864Z</time>
			</trkpt>
			<trkpt lat="47.8503" lon="15.30934">
				<ele>835.49</ele>
				<time>2025-07-28T22:45:06.440Z</time>
			</trkpt>
			<trkpt lat="47.85026" lon="15.30931">
				<ele>836.09</ele>
				<time>2025-07-28T22:45:06.697Z</time>
			</trkpt>
			<trkpt lat="47.85019" lon="15.30922">
				<ele>837.55</ele>
				<time>2025-07-28T22:45:07.227Z</time>
			</trkpt>
			<trkpt lat="47.85017" lon="15.3091">
				<ele>839.31</ele>
				<time>2025-07-28T22:45:07.703Z</time>
			</trkpt>
			<trkpt lat="47.85019" lon="15.30898">
				<ele>841.26</ele>
				<time>2025-07-28T22:45:08.179Z</time>
			</trkpt>
			<trkpt lat="47.85022" lon="15.30893">
				<ele>841.99</ele>
				<time>2025-07-28T22:45:08.438Z</time>
			</trkpt>
			<trkpt lat="47.85028" lon="15.30886">
				<ele>842.83</ele>
				<time>2025-07-28T22:45:08.875Z</time>
			</trkpt>
			<trkpt lat="47.85073" lon="15.30871">
				<ele>842.28</ele>
				<time>2025-07-28T22:45:11.520Z</time>
			</trkpt>
			<trkpt lat="47.85092" lon="15.30859">
				<ele>842.35</ele>
				<time>2025-07-28T22:45:12.703Z</time>
			</trkpt>
			<trkpt lat="47.85103" lon="15.30847">
				<ele>842.92</ele>
				<time>2025-07-28T22:45:13.484Z</time>
			</trkpt>
			<trkpt lat="47.85119" lon="15.30822">
				<ele>845.15</ele>
				<time>2025-07-28T22:45:14.813Z</time>
			</trkpt>
			<trkpt lat="47.85155" lon="15.30736">
				<ele>855.2</ele>
				<time>2025-07-28T22:45:18.712Z</time>
			</trkpt>
			<trkpt lat="47.85182" lon="15.30681">
				<ele>857.64</ele>
				<time>2025-07-28T22:45:21.331Z</time>
			</trkpt>
			<trkpt lat="47.8521" lon="15.30638">
				<ele>856.47</ele>
				<time>2025-07-28T22:45:23.634Z</time>
			</trkpt>
			<trkpt lat="47.85255" lon="15.30578">
				<ele>856.23</ele>
				<time>2025-07-28T22:45:27.092Z</time>
			</trkpt>
			<trkpt lat="47.85268" lon="15.30557">
				<ele>857.65</ele>
				<time>2025-07-28T22:45:28.190Z</time>
			</trkpt>
			<trkpt lat="47.85278" lon="15.30533">
				<ele>857.5</ele>
				<time>2025-07-28T22:45:29.276Z</time>
			</trkpt>
			<trkpt lat="47.85281" lon="15.3052">
				<ele>857.84</ele>
				<time>2025-07-28T22:45:29.804Z</time>
			</trkpt>
			<trkpt lat="47.85286" lon="15.30493">
				<ele>858.4</ele>
				<time>2025-07-28T22:45:30.880Z</time>
			</trkpt>
			<trkpt lat="47.85286" lon="15.30465">
				<ele>858.16</ele>
				<time>2025-07-28T22:45:31.956Z</time>
			</trkpt>
			<trkpt lat="47.8528" lon="15.30431">
				<ele>857.29</ele>
				<time>2025-07-28T22:45:33.306Z</time>
			</trkpt>
			<trkpt lat="47.85272" lon="15.30409">
				<ele>857.72</ele>
				<time>2025-07-28T22:45:34.268Z</time>
			</trkpt>
			<trkpt lat="47.85261" lon="15.30389">
				<ele>858.77</ele>
				<time>2025-07-28T22:45:35.261Z</time>
			</trkpt>
			<trkpt lat="47.85247" lon="15.30374">
				<ele>860.2</ele>
				<time>2025-07-28T22:45:36.248Z</time>
			</trkpt>
			<trkpt lat="47.85231" lon="15.30362">
				<ele>860.75</ele>
				<time>2025-07-28T22:45:37.274Z</time>
			</trkpt>
			<trkpt lat="47.85209" lon="15.30353">
				<ele>860.58</ele>
				<time>2025-07-28T22:45:38.580Z</time>
			</trkpt>
			<trkpt lat="47.85182" lon="15.30351">
				<ele>861.59</ele>
				<time>2025-07-28T22:45:40.127Z</time>
			</trkpt>
			<trkpt lat="47.85159" lon="15.30354">
				<ele>863.72</ele>
				<time>2025-07-28T22:45:41.449Z</time>
			</trkpt>
			<trkpt lat="47.85145" lon="15.30358">
				<ele>865.24</ele>
				<time>2025-07-28T22:45:42.265Z</time>
			</trkpt>
			<trkpt lat="47.85119" lon="15.30371">
				<ele>868.59</ele>
				<time>2025-07-28T22:45:43.835Z</time>
			</trkpt>
			<trkpt lat="47.85101" lon="15.30384">
				<ele>871.12</ele>
				<time>2025-07-28T22:45:44.981Z</time>
			</trkpt>
			<trkpt lat="47.85045" lon="15.30435">
				<ele>879.59</ele>
				<time>2025-07-28T22:45:48.739Z</time>
			</trkpt>
			<trkpt lat="47.85031" lon="15.30443">
				<ele>880.92</ele>
				<time>2025-07-28T22:45:49.598Z</time>
			</trkpt>
			<trkpt lat="47.85014" lon="15.30448">
				<ele>882.85</ele>
				<time>2025-07-28T22:45:50.590Z</time>
			</trkpt>
			<trkpt lat="47.84991" lon="15.30448">
				<ele>885.26</ele>
				<time>2025-07-28T22:45:51.908Z</time>
			</trkpt>
			<trkpt lat="47.84978" lon="15.30442">
				<ele>887.19</ele>
				<time>2025-07-28T22:45:52.687Z</time>
			</trkpt>
			<trkpt lat="47.8494" lon="15.30421">
				<ele>892.33</ele>
				<time>2025-07-28T22:45:55.009Z</time>
			</trkpt>
			<trkpt lat="47.84914" lon="15.30415">
				<ele>892.68</ele>
				<time>2025-07-28T22:45:56.517Z</time>
			</trkpt>
			<trkpt lat="47.84894" lon="15.30418">
				<ele>890.94</ele>
				<time>2025-07-28T22:45:57.669Z</time>
			</trkpt>
			<trkpt lat="47.84878" lon="15.30429">
				<ele>890.52</ele>
				<time>2025-07-28T22:45:58.679Z</time>
			</trkpt>
			<trkpt lat="47.84868" lon="15.30439">
				<ele>890.54</ele>
				<time>2025-07-28T22:45:59.369Z</time>
			</trkpt>
			<trkpt lat="47.84851" lon="15.30469">
				<ele>892.09</ele>
				<time>2025-07-28T22:46:00.880Z</time>
			</trkpt>
			<trkpt lat="47.84827" lon="15.30529">
				<ele>898.88</ele>
				<time>2025-07-28T22:46:03.568Z</time>
			</trkpt>
			<trkpt lat="47.84815" lon="15.30546">
				<ele>901.06</ele>
				<time>2025-07-28T22:46:04.518Z</time>
			</trkpt>
			<trkpt lat="47.84802" lon="15.30556">
				<ele>901.34</ele>
				<time>2025-07-28T22:46:05.357Z</time>
			</trkpt>
			<trkpt lat="47.84787" lon="15.3056">
				<ele>902.9</ele>
				<time>2025-07-28T22:46:06.232Z</time>
			</trkpt>
			<trkpt lat="47.84773" lon="15.30557">
				<ele>902.51</ele>
				<time>2025-07-28T22:46:07.044Z</time>
			</trkpt>
			<trkpt lat="47.84754" lon="15.30546">
				<ele>903.38</ele>
				<time>2025-07-28T22:46:08.213Z</time>
			</trkpt>
			<trkpt lat="47.8473" lon="15.30522">
				<ele>904.7</ele>
				<time>2025-07-28T22:46:09.873Z</time>
			</trkpt>
			<trkpt lat="47.8471" lon="15.30508">
				<ele>905.23</ele>
				<time>2025-07-28T22:46:11.142Z</time>
			</trkpt>
			<trkpt lat="47.84693" lon="15.30502">
				<ele>904.67</ele>
				<time>2025-07-28T22:46:12.145Z</time>
			</trkpt>
			<trkpt lat="47.84675" lon="15.30503">
				<ele>905.53</ele>
				<time>2025-07-28T22:46:13.180Z</time>
			</trkpt>
			<trkpt lat="47.8463" lon="15.30513">
				<ele>910.3</ele>
				<time>2025-07-28T22:46:15.795Z</time>
			</trkpt>
			<trkpt lat="47.84603" lon="15.30509">
				<ele>910.8</ele>
				<time>2025-07-28T22:46:17.355Z</time>
			</trkpt>
			<trkpt lat="47.84585" lon="15.30503">
				<ele>910.73</ele>
				<time>2025-07-28T22:46:18.415Z</time>
			</trkpt>
			<trkpt lat="47.84502" lon="15.30459">
				<ele>909.6</ele>
				<time>2025-07-28T22:46:23.485Z</time>
			</trkpt>
			<trkpt lat="47.8448" lon="15.3045">
				<ele>910.64</ele>
				<time>2025-07-28T22:46:24.799Z</time>
			</trkpt>
			<trkpt lat="47.84472" lon="15.30449">
				<ele>911.76</ele>
				<time>2025-07-28T22:46:25.262Z</time>
			</trkpt>
			<trkpt lat="47.84461" lon="15.30453">
				<ele>914.32</ele>
				<time>2025-07-28T22:46:25.914Z</time>
			</trkpt>
			<trkpt lat="47.84456" lon="15.30458">
				<ele>916.36</ele>
				<time>2025-07-28T22:46:26.261Z</time>
			</trkpt>
			<trkpt lat="47.84451" lon="15.30469">
				<ele>920.5</ele>
				<time>2025-07-28T22:46:26.775Z</time>
			</trkpt>
			<trkpt lat="47.84451" lon="15.30483">
				<ele>925.35</ele>
				<time>2025-07-28T22:46:27.317Z</time>
			</trkpt>
			<trkpt lat="47.84457" lon="15.30497">
				<ele>929.36</ele>
				<time>2025-07-28T22:46:27.959Z</time>
			</trkpt>
			<trkpt lat="47.84462" lon="15.30503">
				<ele>930.77</ele>
				<time>2025-07-28T22:46:28.329Z</time>
			</trkpt>
			<trkpt lat="47.84476" lon="15.30508">
				<ele>931.24</ele>
				<time>2025-07-28T22:46:29.160Z</time>
			</trkpt>
			<trkpt lat="47.84511" lon="15.30508">
				<ele>929.8</ele>
				<time>2025-07-28T22:46:31.179Z</time>
			</trkpt>
			<trkpt lat="47.84538" lon="15.30518">
				<ele>931.58</ele>
				<time>2025-07-28T22:46:32.785Z</time>
			</trkpt>
			<trkpt lat="47.84553" lon="15.30527">
				<ele>932.57</ele>
				<time>2025-07-28T22:46:33.718Z</time>
			</trkpt>
			<trkpt lat="47.84607" lon="15.30572">
				<ele>933.46</ele>
				<time>2025-07-28T22:46:37.293Z</time>
			</trkpt>
			<trkpt lat="47.84678" lon="15.30609">
				<ele>937.02</ele>
				<time>2025-07-28T22:46:41.645Z</time>
			</trkpt>
			<trkpt lat="47.84703" lon="15.3063">
				<ele>936.56</ele>
				<time>2025-07-28T22:46:43.307Z</time>
			</trkpt>
			<trkpt lat="47.84712" lon="15.30645">
				<ele>938.28</ele>
				<time>2025-07-28T22:46:44.089Z</time>
			</trkpt>
			<trkpt lat="47.84718" lon="15.30663">
				<ele>940.98</ele>
				<time>2025-07-28T22:46:44.871Z</time>
			</trkpt>
			<trkpt lat="47.84719" lon="15.30672">
				<ele>941.94</ele>
				<time>2025-07-28T22:46:45.226Z</time>
			</trkpt>
			<trkpt lat="47.8472" lon="15.3068">
				<ele>942.44</ele>
				<time>2025-07-28T22:46:45.542Z</time>
			</trkpt>
			<trkpt lat="47.84718" lon="15.30701">
				<ele>943.35</ele>
				<time>2025-07-28T22:46:46.368Z</time>
			</trkpt>
			<trkpt lat="47.84713" lon="15.30719">
				<ele>943.46</ele>
				<time>2025-07-28T22:46:47.126Z</time>
			</trkpt>
			<trkpt lat="47.84707" lon="15.30729">
				<ele>943.5</ele>
				<time>2025-07-28T22:46:47.648Z</time>
			</trkpt>
			<trkpt lat="47.84698" lon="15.30742">
				<ele>943.98</ele>
				<time>2025-07-28T22:46:48.376Z</time>
			</trkpt>
			<trkpt lat="47.84656" lon="15.30779">
				<ele>954.35</ele>
				<time>2025-07-28T22:46:51.209Z</time>
			</trkpt>
			<trkpt lat="47.84642" lon="15.30794">
				<ele>959.13</ele>
				<time>2025-07-28T22:46:52.211Z</time>
			</trkpt>
			<trkpt lat="47.84625" lon="15.30815">
				<ele>965.77</ele>
				<time>2025-07-28T22:46:53.495Z</time>
			</trkpt>
			<trkpt lat="47.84612" lon="15.30839">
				<ele>969.59</ele>
				<time>2025-07-28T22:46:54.699Z</time>
			</trkpt>
			<trkpt lat="47.84597" lon="15.30875">
				<ele>966.71</ele>
				<time>2025-07-28T22:46:56.354Z</time>
			</trkpt>
			<trkpt lat="47.84589" lon="15.30901">
				<ele>964.75</ele>
				<time>2025-07-28T22:46:57.471Z</time>
			</trkpt>
			<trkpt lat="47.84585" lon="15.30933">
				<ele>961.56</ele>
				<time>2025-07-28T22:46:58.744Z</time>
			</trkpt>
			<trkpt lat="47.84585" lon="15.30962">
				<ele>958.83</ele>
				<time>2025-07-28T22:46:59.879Z</time>
			</trkpt>
			<trkpt lat="47.8459" lon="15.30991">
				<ele>956.97</ele>
				<time>2025-07-28T22:47:01.051Z</time>
			</trkpt>
			<trkpt lat="47.84594" lon="15.31003">
				<ele>956.77</ele>
				<time>2025-07-28T22:47:01.575Z</time>
			</trkpt>
			<trkpt lat="47.84604" lon="15.31029">
				<ele>957.67</ele>
				<time>2025-07-28T22:47:02.749Z</time>
			</trkpt>
			<trkpt lat="47.84618" lon="15.31049">
				<ele>959.69</ele>
				<time>2025-07-28T22:47:03.882Z</time>
			</trkpt>
			<trkpt lat="47.84632" lon="15.31063">
				<ele>961.94</ele>
				<time>2025-07-28T22:47:04.867Z</time>
			</trkpt>
			<trkpt lat="47.84642" lon="15.3107">
				<ele>963.19</ele>
				<time>2025-07-28T22:47:05.512Z</time>
			</trkpt>
			<trkpt lat="47.84689" lon="15.3109">
				<ele>965.95</ele>
				<time>2025-07-28T22:47:08.371Z</time>
			</trkpt>
			<trkpt lat="47.84715" lon="15.31107">
				<ele>966.6</ele>
				<time>2025-07-28T22:47:10.034Z</time>
			</trkpt>
			<trkpt lat="47.84727" lon="15.3112">
				<ele>966.46</ele>
				<time>2025-07-28T22:47:10.903Z</time>
			</trkpt>
			<trkpt lat="47.84739" lon="15.31137">
				<ele>968.12</ele>
				<time>2025-07-28T22:47:11.873Z</time>
			</trkpt>
			<trkpt lat="47.84749" lon="15.31161">
				<ele>969.82</ele>
				<time>2025-07-28T22:47:12.985Z</time>
			</trkpt>
			<trkpt lat="47.84752" lon="15.31178">
				<ele>969.74</ele>
				<time>2025-07-28T22:47:13.677Z</time>
			</trkpt>
			<trkpt lat="47.8475" lon="15.31194">
				<ele>969.98</ele>
				<time>2025-07-28T22:47:14.318Z</time>
			</trkpt>
			<trkpt lat="47.84743" lon="15.31205">
				<ele>969.82</ele>
				<time>2025-07-28T22:47:14.916Z</time>
			</trkpt>
			<trkpt lat="47.84733" lon="15.31212">
				<ele>969.92</ele>
				<time>2025-07-28T22:47:15.564Z</time>
			</trkpt>
			<trkpt lat="47.84724" lon="15.31212">
				<ele>970.24</ele>
				<time>2025-07-28T22:47:16.093Z</time>
			</trkpt>
			<trkpt lat="47.84714" lon="15.31207">
				<ele>972.45</ele>
				<time>2025-07-28T22:47:16.713Z</time>
			</trkpt>
			<trkpt lat="47.84706" lon="15.312">
				<ele>974.31</ele>
				<time>2025-07-28T22:47:17.258Z</time>
			</trkpt>
			<trkpt lat="47.84676" lon="15.31162">
				<ele>979.92</ele>
				<time>2025-07-28T22:47:19.574Z</time>
			</trkpt>
			<trkpt lat="47.84654" lon="15.31145">
				<ele>979.86</ele>
				<time>2025-07-28T22:47:21.033Z</time>
			</trkpt>
			<trkpt lat="47.84635" lon="15.31138">
				<ele>979.25</ele>
				<time>2025-07-28T22:47:22.187Z</time>
			</trkpt>
			<trkpt lat="47.84576" lon="15.31131">
				<ele>982.16</ele>
				<time>2025-07-28T22:47:25.678Z</time>
			</trkpt>
			<trkpt lat="47.8456" lon="15.31124">
				<ele>981.55</ele>
				<time>2025-07-28T22:47:26.663Z</time>
			</trkpt>
			<trkpt lat="47.84549" lon="15.31116">
				<ele>980.68</ele>
				<time>2025-07-28T22:47:27.386Z</time>
			</trkpt>
			<trkpt lat="47.84535" lon="15.311">
				<ele>980.61</ele>
				<time>2025-07-28T22:47:28.429Z</time>
			</trkpt>
			<trkpt lat="47.84522" lon="15.31079">
				<ele>981.86</ele>
				<time>2025-07-28T22:47:29.564Z</time>
			</trkpt>
			<trkpt lat="47.84512" lon="15.31048">
				<ele>983.3</ele>
				<time>2025-07-28T22:47:30.930Z</time>
			</trkpt>
			<trkpt lat="47.84499" lon="15.30979">
				<ele>991.24</ele>
				<time>2025-07-28T22:47:33.781Z</time>
			</trkpt>
			<trkpt lat="47.84492" lon="15.30965">
				<ele>996.09</ele>
				<time>2025-07-28T22:47:34.476Z</time>
			</trkpt>
			<trkpt lat="47.84483" lon="15.30958">
				<ele>1001.69</ele>
				<time>2025-07-28T22:47:35.079Z</time>
			</trkpt>
			<trkpt lat="47.84474" lon="15.30958">
				<ele>1005.45</ele>
				<time>2025-07-28T22:47:35.613Z</time>
			</trkpt>
			<trkpt lat="47.84469" lon="15.30962">
				<ele>1006.66</ele>
				<time>2025-07-28T22:47:35.950Z</time>
			</trkpt>
			<trkpt lat="47.84462" lon="15.30974">
				<ele>1006.77</ele>
				<time>2025-07-28T22:47:36.584Z</time>
			</trkpt>
			<trkpt lat="47.84459" lon="15.30991">
				<ele>1004.69</ele>
				<time>2025-07-28T22:47:37.285Z</time>
			</trkpt>
			<trkpt lat="47.84461" lon="15.31019">
				<ele>999.78</ele>
				<time>2025-07-28T22:47:38.409Z</time>
			</trkpt>
			<trkpt lat="47.84472" lon="15.31064">
				<ele>994.35</ele>
				<time>2025-07-28T22:47:40.322Z</time>
			</trkpt>
			<trkpt lat="47.84482" lon="15.31094">
				<ele>992.55</ele>
				<time>2025-07-28T22:47:41.661Z</time>
			</trkpt>
			<trkpt lat="47.84493" lon="15.31119">
				<ele>991.21</ele>
				<time>2025-07-28T22:47:42.857Z</time>
			</trkpt>
			<trkpt lat="47.84509" lon="15.31149">
				<ele>992.01</ele>
				<time>2025-07-28T22:47:44.392Z</time>
			</trkpt>
			<trkpt lat="47.84546" lon="15.31212">
				<ele>997.67</ele>
				<time>2025-07-28T22:47:47.750Z</time>
			</trkpt>
			<trkpt lat="47.84562" lon="15.3125">
				<ele>999.25</ele>
				<time>2025-07-28T22:47:49.552Z</time>
			</trkpt>
			<trkpt lat="47.8457" lon="15.31282">
				<ele>1001.27</ele>
				<time>2025-07-28T22:47:50.925Z</time>
			</trkpt>
			<trkpt lat="47.84571" lon="15.31305">
				<ele>1002.4</ele>
				<time>2025-07-28T22:47:51.853Z</time>
			</trkpt>
			<trkpt lat="47.8457" lon="15.31328">
				<ele>1003.7</ele>
				<time>2025-07-28T22:47:52.781Z</time>
			</trkpt>
			<trkpt lat="47.84568" lon="15.31345">
				<ele>1004.6</ele>
				<time>2025-07-28T22:47:53.476Z</time>
			</trkpt>
			<trkpt lat="47.84563" lon="15.31365">
				<ele>1005.83</ele>
				<time>2025-07-28T22:47:54.337Z</time>
			</trkpt>
			<trkpt lat="47.84552" lon="15.31392">
				<ele>1005.98</ele>
				<time>2025-07-28T22:47:55.611Z</time>
			</trkpt>
			<trkpt lat="47.84545" lon="15.31403">
				<ele>1005.81</ele>
				<time>2025-07-28T22:47:56.223Z</time>
			</trkpt>
			<trkpt lat="47.8453" lon="15.31423">
				<ele>1005.1</ele>
				<time>2025-07-28T22:47:57.434Z</time>
			</trkpt>
			<trkpt lat="47.84521" lon="15.31432">
				<ele>1004.85</ele>
				<time>2025-07-28T22:47:58.087Z</time>
			</trkpt>
			<trkpt lat="47.84481" lon="15.31461">
				<ele>1004.2</ele>
				<time>2025-07-28T22:48:00.769Z</time>
			</trkpt>
			<trkpt lat="47.84463" lon="15.31471">
				<ele>1004.3</ele>
				<time>2025-07-28T22:48:01.929Z</time>
			</trkpt>
			<trkpt lat="47.84436" lon="15.31481">
				<ele>1005.2</ele>
				<time>2025-07-28T22:48:03.610Z</time>
			</trkpt>
			<trkpt lat="47.84396" lon="15.31489">
				<ele>1002.59</ele>
				<time>2025-07-28T22:48:06.053Z</time>
			</trkpt>
			<trkpt lat="47.84366" lon="15.31488">
				<ele>1002.34</ele>
				<time>2025-07-28T22:48:07.871Z</time>
			</trkpt>
			<trkpt lat="47.84336" lon="15.31483">
				<ele>1001.79</ele>
				<time>2025-07-28T22:48:09.703Z</time>
			</trkpt>
			<trkpt lat="47.84301" lon="15.31471">
				<ele>1005.3</ele>
				<time>2025-07-28T22:48:11.886Z</time>
			</trkpt>
			<trkpt lat="47.8425" lon="15.3144">
				<ele>997.51</ele>
				<time>2025-07-28T22:48:15.240Z</time>
			</trkpt>
			<trkpt lat="47.84179" lon="15.31382">
				<ele>994.52</ele>
				<time>2025-07-28T22:48:20.187Z</time>
			</trkpt>
			<trkpt lat="47.84142" lon="15.31355">
				<ele>993.82</ele>
				<time>2025-07-28T22:48:22.710Z</time>
			</trkpt>
			<trkpt lat="47.841" lon="15.31332">
				<ele>991.05</ele>
				<time>2025-07-28T22:48:25.457Z</time>
			</trkpt>
			<trkpt lat="47.84062" lon="15.3132">
				<ele>988.18</ele>
				<time>2025-07-28T22:48:27.846Z</time>
			</trkpt>
			<trkpt lat="47.84021" lon="15.31317">
				<ele>983.52</ele>
				<time>2025-07-28T22:48:30.375Z</time>
			</trkpt>
			<trkpt lat="47.83994" lon="15.3132">
				<ele>980.89</ele>
				<time>2025-07-28T22:48:32.047Z</time>
			</trkpt>
			<trkpt lat="47.83973" lon="15.31325">
				<ele>978.77</ele>
				<time>2025-07-28T22:48:33.361Z</time>
			</trkpt>
			<trkpt lat="47.83893" lon="15.31355">
				<ele>976.1</ele>
				<time>2025-07-28T22:48:38.472Z</time>
			</trkpt>
			<trkpt lat="47.8384" lon="15.31371">
				<ele>967.44</ele>
				<time>2025-07-28T22:48:41.834Z</time>
			</trkpt>
			<trkpt lat="47.83814" lon="15.31385">
				<ele>965.87</ele>
				<time>2025-07-28T22:48:43.556Z</time>
			</trkpt>
			<trkpt lat="47.83801" lon="15.31397">
				<ele>966.01</ele>
				<time>2025-07-28T22:48:44.510Z</time>
			</trkpt>
			<trkpt lat="47.83789" lon="15.31413">
				<ele>965.76</ele>
				<time>2025-07-28T22:48:45.515Z</time>
			</trkpt>
			<trkpt lat="47.8378" lon="15.3143">
				<ele>964.39</ele>
				<time>2025-07-28T22:48:46.423Z</time>
			</trkpt>
			<trkpt lat="47.83772" lon="15.31449">
				<ele>962.36</ele>
				<time>2025-07-28T22:48:47.364Z</time>
			</trkpt>
			<trkpt lat="47.83767" lon="15.3147">
				<ele>960.83</ele>
				<time>2025-07-28T22:48:48.300Z</time>
			</trkpt>
			<trkpt lat="47.83764" lon="15.31498">
				<ele>959.1</ele>
				<time>2025-07-28T22:48:49.492Z</time>
			</trkpt>
			<trkpt lat="47.83764" lon="15.31525">
				<ele>959.13</ele>
				<time>2025-07-28T22:48:50.628Z</time>
			</trkpt>
			<trkpt lat="47.83771" lon="15.316">
				<ele>961.95</ele>
				<time>2025-07-28T22:48:53.820Z</time>
			</trkpt>
			<trkpt lat="47.83772" lon="15.31624">
				<ele>961.54</ele>
				<time>2025-07-28T22:48:54.835Z</time>
			</trkpt>
			<trkpt lat="47.8377" lon="15.31651">
				<ele>958.2</ele>
				<time>2025-07-28T22:48:55.983Z</time>
			</trkpt>
			<trkpt lat="47.83757" lon="15.31727">
				<ele>942.34</ele>
				<time>2025-07-28T22:48:59.304Z</time>
			</trkpt>
			<trkpt lat="47.83755" lon="15.31758">
				<ele>940.59</ele>
				<time>2025-07-28T22:49:00.626Z</time>
			</trkpt>
			<trkpt lat="47.83755" lon="15.31798">
				<ele>941.52</ele>
				<time>2025-07-28T22:49:02.325Z</time>
			</trkpt>
			<trkpt lat="47.83758" lon="15.31926">
				<ele>942.16</ele>
				<time>2025-07-28T22:49:07.785Z</time>
			</trkpt>
			<trkpt lat="47.83756" lon="15.32001">
				<ele>941.82</ele>
				<time>2025-07-28T22:49:10.996Z</time>
			</trkpt>
			<trkpt lat="47.83753" lon="15.32053">
				<ele>943.6</ele>
				<time>2025-07-28T22:49:13.235Z</time>
			</trkpt>
			<trkpt lat="47.83745" lon="15.32122">
				<ele>940.37</ele>
				<time>2025-07-28T22:49:16.245Z</time>
			</trkpt>
			<trkpt lat="47.83738" lon="15.32152">
				<ele>937.83</ele>
				<time>2025-07-28T22:49:17.614Z</time>
			</trkpt>
			<trkpt lat="47.83736" lon="15.32158">
				<ele>936.74</ele>
				<time>2025-07-28T22:49:17.903Z</time>
			</trkpt>
			<trkpt lat="47.83728" lon="15.32166">
				<ele>933.85</ele>
				<time>2025-07-28T22:49:18.522Z</time>
			</trkpt>
			<trkpt lat="47.83721" lon="15.32169">
				<ele>931.14</ele>
				<time>2025-07-28T22:49:18.990Z</time>
			</trkpt>
			<trkpt lat="47.83713" lon="15.32166">
				<ele>928.04</ele>
				<time>2025-07-28T22:49:19.520Z</time>
			</trkpt>
			<trkpt lat="47.83706" lon="15.32154">
				<ele>924.69</ele>
				<time>2025-07-28T22:49:20.207Z</time>
			</trkpt>
			<trkpt lat="47.83705" lon="15.32135">
				<ele>922.86</ele>
				<time>2025-07-28T22:49:21.031Z</time>
			</trkpt>
			<trkpt lat="47.83724" lon="15.32067">
				<ele>925.94</ele>
				<time>2025-07-28T22:49:24.221Z</time>
			</trkpt>
			<trkpt lat="47.83729" lon="15.32039">
				<ele>927.56</ele>
				<time>2025-07-28T22:49:25.478Z</time>
			</trkpt>
			<trkpt lat="47.83732" lon="15.32016">
				<ele>926.94</ele>
				<time>2025-07-28T22:49:26.496Z</time>
			</trkpt>
			<trkpt lat="47.8373" lon="15.31969">
				<ele>922.91</ele>
				<time>2025-07-28T22:49:28.545Z</time>
			</trkpt>
			<trkpt lat="47.83725" lon="15.31908">
				<ele>920.51</ele>
				<time>2025-07-28T22:49:31.224Z</time>
			</trkpt>
			<trkpt lat="47.83709" lon="15.31773">
				<ele>917.04</ele>
				<time>2025-07-28T22:49:37.225Z</time>
			</trkpt>
			<trkpt lat="47.83645" lon="15.3137">
				<ele>901.56</ele>
				<time>2025-07-28T22:49:55.567Z</time>
			</trkpt>
			<trkpt lat="47.83634" lon="15.31314">
				<ele>894.36</ele>
				<time>2025-07-28T22:49:58.178Z</time>
			</trkpt>
			<trkpt lat="47.83629" lon="15.31295">
				<ele>891.9</ele>
				<time>2025-07-28T22:49:59.093Z</time>
			</trkpt>
			<trkpt lat="47.83618" lon="15.31265">
				<ele>887.77</ele>
				<time>2025-07-28T22:50:00.627Z</time>
			</trkpt>
			<trkpt lat="47.83602" lon="15.31229">
				<ele>883.74</ele>
				<time>2025-07-28T22:50:02.568Z</time>
			</trkpt>
			<trkpt lat="47.83578" lon="15.31194">
				<ele>882.03</ele>
				<time>2025-07-28T22:50:04.821Z</time>
			</trkpt>
			<trkpt lat="47.83508" lon="15.31123">
				<ele>875.08</ele>
				<time>2025-07-28T22:50:10.527Z</time>
			</trkpt>
			<trkpt lat="47.83469" lon="15.31077">
				<ele>867.55</ele>
				<time>2025-07-28T22:50:13.894Z</time>
			</trkpt>
			<trkpt lat="47.83454" lon="15.31056">
				<ele>866.41</ele>
				<time>2025-07-28T22:50:15.291Z</time>
			</trkpt>
			<trkpt lat="47.83427" lon="15.31013">
				<ele>867.94</ele>
				<time>2025-07-28T22:50:17.978Z</time>
			</trkpt>
			<trkpt lat="47.83375" lon="15.3092">
				<ele>867.37</ele>
				<time>2025-07-28T22:50:23.524Z</time>
			</trkpt>
			<trkpt lat="47.83342" lon="15.30868">
				<ele>867.51</ele>
				<time>2025-07-28T22:50:26.819Z</time>
			</trkpt>
			<trkpt lat="47.8332" lon="15.30843">
				<ele>866.07</ele>
				<time>2025-07-28T22:50:28.721Z</time>
			</trkpt>
			<trkpt lat="47.83304" lon="15.30827">
				<ele>863.14</ele>
				<time>2025-07-28T22:50:30.048Z</time>
			</trkpt>
			<trkpt lat="47.83269" lon="15.30802">
				<ele>855.98</ele>
				<time>2025-07-28T22:50:32.727Z</time>
			</trkpt>
			<trkpt lat="47.83246" lon="15.3079">
				<ele>850.22</ele>
				<time>2025-07-28T22:50:34.413Z</time>
			</trkpt>
			<trkpt lat="47.8322" lon="15.30781">
				<ele>844.11</ele>
				<time>2025-07-28T22:50:36.262Z</time>
			</trkpt>
			<trkpt lat="47.83187" lon="15.30776">
				<ele>837.74</ele>
				<time>2025-07-28T22:50:38.566Z</time>
			</trkpt>
			<trkpt lat="47.8315" lon="15.30778">
				<ele>830.63</ele>
				<time>2025-07-28T22:50:41.143Z</time>
			</trkpt>
			<trkpt lat="47.83131" lon="15.30783">
				<ele>828.94</ele>
				<time>2025-07-28T22:50:42.489Z</time>
			</trkpt>
			<trkpt lat="47.83058" lon="15.30806">
				<ele>828.03</ele>
				<time>2025-07-28T22:50:47.712Z</time>
			</trkpt>
			<trkpt lat="47.83014" lon="15.30817">
				<ele>829.73</ele>
				<time>2025-07-28T22:50:50.849Z</time>
			</trkpt>
			<trkpt lat="47.82974" lon="15.30816">
				<ele>829.84</ele>
				<time>2025-07-28T22:50:53.670Z</time>
			</trkpt>
			<trkpt lat="47.82948" lon="15.30809">
				<ele>832.13</ele>
				<time>2025-07-28T22:50:55.538Z</time>
			</trkpt>
			<trkpt lat="47.82933" lon="15.30802">
				<ele>832.41</ele>
				<time>2025-07-28T22:50:56.651Z</time>
			</trkpt>
			<trkpt lat="47.82899" lon="15.30778">
				<ele>832.53</ele>
				<time>2025-07-28T22:50:59.320Z</time>
			</trkpt>
			<trkpt lat="47.82877" lon="15.30753">
				<ele>832.17</ele>
				<time>2025-07-28T22:51:01.288Z</time>
			</trkpt>
			<trkpt lat="47.82857" lon="15.30727">
				<ele>832.82</ele>
				<time>2025-07-28T22:51:03.179Z</time>
			</trkpt>
			<trkpt lat="47.82828" lon="15.30684">
				<ele>836.75</ele>
				<time>2025-07-28T22:51:06.103Z</time>
			</trkpt>
			<trkpt lat="47.82807" lon="15.30655">
				<ele>840.65</ele>
				<time>2025-07-28T22:51:08.154Z</time>
			</trkpt>
			<trkpt lat="47.82793" lon="15.30641">
				<ele>842.73</ele>
				<time>2025-07-28T22:51:09.364Z</time>
			</trkpt>
			<trkpt lat="47.8277" lon="15.3062">
				<ele>844.05</ele>
				<time>2025-07-28T22:51:11.303Z</time>
			</trkpt>
			<trkpt lat="47.82737" lon="15.30597">
				<ele>842.5</ele>
				<time>2025-07-28T22:51:13.928Z</time>
			</trkpt>
			<trkpt lat="47.82674" lon="15.30559">
				<ele>844.76</ele>
				<time>2025-07-28T22:51:18.844Z</time>
			</trkpt>
			<trkpt lat="47.82658" lon="15.30547">
				<ele>845.61</ele>
				<time>2025-07-28T22:51:20.144Z</time>
			</trkpt>
			<trkpt lat="47.82625" lon="15.30517">
				<ele>849.78</ele>
				<time>2025-07-28T22:51:22.955Z</time>
			</trkpt>
			<trkpt lat="47.82611" lon="15.30501">
				<ele>851.97</ele>
				<time>2025-07-28T22:51:24.242Z</time>
			</trkpt>
			<trkpt lat="47.82576" lon="15.30452">
				<ele>854.16</ele>
				<time>2025-07-28T22:51:27.751Z</time>
			</trkpt>
			<trkpt lat="47.82544" lon="15.30398">
				<ele>850.72</ele>
				<time>2025-07-28T22:51:31.298Z</time>
			</trkpt>
			<trkpt lat="47.82504" lon="15.30319">
				<ele>849.82</ele>
				<time>2025-07-28T22:51:36.193Z</time>
			</trkpt>
			<trkpt lat="47.82486" lon="15.30277">
				<ele>849.97</ele>
				<time>2025-07-28T22:51:38.667Z</time>
			</trkpt>
			<trkpt lat="47.82455" lon="15.30193">
				<ele>847.4</ele>
				<time>2025-07-28T22:51:43.445Z</time>
			</trkpt>
			<trkpt lat="47.82435" lon="15.30128">
				<ele>848.12</ele>
				<time>2025-07-28T22:51:47.026Z</time>
			</trkpt>
			<trkpt lat="47.82414" lon="15.30042">
				<ele>847.57</ele>
				<time>2025-07-28T22:51:51.628Z</time>
			</trkpt>
			<trkpt lat="47.82404" lon="15.29982">
				<ele>843.81</ele>
				<time>2025-07-28T22:51:54.750Z</time>
			</trkpt>
			<trkpt lat="47.82401" lon="15.29957">
				<ele>842.13</ele>
				<time>2025-07-28T22:51:56.036Z</time>
			</trkpt>
			<trkpt lat="47.82402" lon="15.29931">
				<ele>840.73</ele>
				<time>2025-07-28T22:51:57.356Z</time>
			</trkpt>
			<trkpt lat="47.82406" lon="15.29896">
				<ele>839.3</ele>
				<time>2025-07-28T22:51:59.158Z</time>
			</trkpt>
			<trkpt lat="47.82412" lon="15.29873">
				<ele>838.95</ele>
				<time>2025-07-28T22:52:00.413Z</time>
			</trkpt>
			<trkpt lat="47.82419" lon="15.29854">
				<ele>838.43</ele>
				<time>2025-07-28T22:52:01.517Z</time>
			</trkpt>
			<trkpt lat="47.82437" lon="15.29823">
				<ele>836.81</ele>
				<time>2025-07-28T22:52:03.607Z</time>
			</trkpt>
			<trkpt lat="47.82467" lon="15.29783">
				<ele>836.69</ele>
				<time>2025-07-28T22:52:06.675Z</time>
			</trkpt>
			<trkpt lat="47.82473" lon="15.29765">
				<ele>837.34</ele>
				<time>2025-07-28T22:52:07.705Z</time>
			</trkpt>
			<trkpt lat="47.82472" lon="15.29752">
				<ele>837.82</ele>
				<time>2025-07-28T22:52:08.376Z</time>
			</trkpt>
			<trkpt lat="47.8247" lon="15.29741">
				<ele>836.88</ele>
				<time>2025-07-28T22:52:08.961Z</time>
			</trkpt>
			<trkpt lat="47.82463" lon="15.29731">
				<ele>835.1</ele>
				<time>2025-07-28T22:52:09.704Z</time>
			</trkpt>
			<trkpt lat="47.82458" lon="15.29727">
				<ele>834.41</ele>
				<time>2025-07-28T22:52:10.138Z</time>
			</trkpt>
			<trkpt lat="47.82448" lon="15.29726">
				<ele>833.49</ele>
				<time>2025-07-28T22:52:10.906Z</time>
			</trkpt>
			<trkpt lat="47.82442" lon="15.29727">
				<ele>833.03</ele>
				<time>2025-07-28T22:52:11.369Z</time>
			</trkpt>
			<trkpt lat="47.82432" lon="15.29734">
				<ele>832.17</ele>
				<time>2025-07-28T22:52:12.217Z</time>
			</trkpt>
			<trkpt lat="47.82418" lon="15.2976">
				<ele>831.96</ele>
				<time>2025-07-28T22:52:13.936Z</time>
			</trkpt>
			<trkpt lat="47.82316" lon="15.30034">
				<ele>830.86</ele>
				<time>2025-07-28T22:52:30.253Z</time>
			</trkpt>
			<trkpt lat="47.82301" lon="15.30069">
				<ele>828.04</ele>
				<time>2025-07-28T22:52:32.438Z</time>
			</trkpt>
			<trkpt lat="47.8225" lon="15.30147">
				<ele>825.15</ele>
				<time>2025-07-28T22:52:38.189Z</time>
			</trkpt>
			<trkpt lat="47.82233" lon="15.30183">
				<ele>824.45</ele>
				<time>2025-07-28T22:52:40.524Z</time>
			</trkpt>
			<trkpt lat="47.82224" lon="15.30208">
				<ele>821.44</ele>
				<time>2025-07-28T22:52:42.032Z</time>
			</trkpt>
			<trkpt lat="47.82197" lon="15.30293">
				<ele>818.76</ele>
				<time>2025-07-28T22:52:47.048Z</time>
			</trkpt>
			<trkpt lat="47.8217" lon="15.30351">
				<ele>813.1</ele>
				<time>2025-07-28T22:52:50.830Z</time>
			</trkpt>
			<trkpt lat="47.82159" lon="15.30382">
				<ele>811.77</ele>
				<time>2025-07-28T22:52:52.715Z</time>
			</trkpt>
			<trkpt lat="47.82153" lon="15.30415">
				<ele>813.01</ele>
				<time>2025-07-28T22:52:54.557Z</time>
			</trkpt>
			<trkpt lat="47.82152" lon="15.3047">
				<ele>816.79</ele>
				<time>2025-07-28T22:52:57.528Z</time>
			</trkpt>
			<trkpt lat="47.8215" lon="15.30486">
				<ele>817.77</ele>
				<time>2025-07-28T22:52:58.408Z</time>
			</trkpt>
			<trkpt lat="47.82148" lon="15.30491">
				<ele>817.63</ele>
				<time>2025-07-28T22:52:58.724Z</time>
			</trkpt>
			<trkpt lat="47.82142" lon="15.30499">
				<ele>816.17</ele>
				<time>2025-07-28T22:52:59.373Z</time>
			</trkpt>
			<trkpt lat="47.82134" lon="15.30503">
				<ele>814.15</ele>
				<time>2025-07-28T22:53:00.055Z</time>
			</trkpt>
			<trkpt lat="47.82129" lon="15.30502">
				<ele>812.67</ele>
				<time>2025-07-28T22:53:00.462Z</time>
			</trkpt>
			<trkpt lat="47.82123" lon="15.30498">
				<ele>810.25</ele>
				<time>2025-07-28T22:53:00.994Z</time>
			</trkpt>
			<trkpt lat="47.82117" lon="15.30488">
				<ele>807.29</ele>
				<time>2025-07-28T22:53:01.722Z</time>
			</trkpt>
			<trkpt lat="47.82116" lon="15.30482">
				<ele>805.97</ele>
				<time>2025-07-28T22:53:02.058Z</time>
			</trkpt>
			<trkpt lat="47.82115" lon="15.30466">
				<ele>804.06</ele>
				<time>2025-07-28T22:53:02.931Z</time>
			</trkpt>
			<trkpt lat="47.82119" lon="15.30449">
				<ele>803.75</ele>
				<time>2025-07-28T22:53:03.912Z</time>
			</trkpt>
			<trkpt lat="47.82133" lon="15.304">
				<ele>805.41</ele>
				<time>2025-07-28T22:53:06.816Z</time>
			</trkpt>
			<trkpt lat="47.82139" lon="15.30367">
				<ele>803.2</ele>
				<time>2025-07-28T22:53:08.685Z</time>
			</trkpt>
			<trkpt lat="47.82143" lon="15.30334">
				<ele>800.97</ele>
				<time>2025-07-28T22:53:10.522Z</time>
			</trkpt>
			<trkpt lat="47.82145" lon="15.30289">
				<ele>799.38</ele>
				<time>2025-07-28T22:53:12.998Z</time>
			</trkpt>
			<trkpt lat="47.82146" lon="15.30243">
				<ele>797.56</ele>
				<time>2025-07-28T22:53:15.532Z</time>
			</trkpt>
			<trkpt lat="47.8214" lon="15.3017">
				<ele>795.31</ele>
				<time>2025-07-28T22:53:19.595Z</time>
			</trkpt>
			<trkpt lat="47.8213" lon="15.30116">
				<ele>795.11</ele>
				<time>2025-07-28T22:53:22.701Z</time>
			</trkpt>
			<trkpt lat="47.82121" lon="15.30077">
				<ele>792.73</ele>
				<time>2025-07-28T22:53:24.994Z</time>
			</trkpt>
			<trkpt lat="47.82109" lon="15.30039">
				<ele>788.2</ele>
				<time>2025-07-28T22:53:27.335Z</time>
			</trkpt>
			<trkpt lat="47.82088" lon="15.29986">
				<ele>786.85</ele>
				<time>2025-07-28T22:53:30.776Z</time>
			</trkpt>
			<trkpt lat="47.82062" lon="15.29937">
				<ele>784.77</ele>
				<time>2025-07-28T22:53:34.281Z</time>
			</trkpt>
			<trkpt lat="47.82035" lon="15.29897">
				<ele>780.55</ele>
				<time>2025-07-28T22:53:37.475Z</time>
			</trkpt>
			<trkpt lat="47.82009" lon="15.29865">
				<ele>783.01</ele>
				<time>2025-07-28T22:53:40.313Z</time>
			</trkpt>
			<trkpt lat="47.81901" lon="15.29756">
				<ele>791.56</ele>
				<time>2025-07-28T22:53:51.369Z</time>
			</trkpt>
			<trkpt lat="47.81803" lon="15.2964">
				<ele>793.31</ele>
				<time>2025-07-28T22:54:02.098Z</time>
			</trkpt>
			<trkpt lat="47.8178" lon="15.29619">
				<ele>795.07</ele>
				<time>2025-07-28T22:54:04.426Z</time>
			</trkpt>
			<trkpt lat="47.81763" lon="15.2961">
				<ele>794.84</ele>
				<time>2025-07-28T22:54:05.986Z</time>
			</trkpt>
			<trkpt lat="47.81742" lon="15.29601">
				<ele>793.55</ele>
				<time>2025-07-28T22:54:07.878Z</time>
			</trkpt>
			<trkpt lat="47.81712" lon="15.29595">
				<ele>790.76</ele>
				<time>2025-07-28T22:54:10.506Z</time>
			</trkpt>
			<trkpt lat="47.81648" lon="15.29597">
				<ele>787.28</ele>
				<time>2025-07-28T22:54:16.087Z</time>
			</trkpt>
			<trkpt lat="47.81581" lon="15.29617">
				<ele>786.76</ele>
				<time>2025-07-28T22:54:22.080Z</time>
			</trkpt>
			<trkpt lat="47.81568" lon="15.29618">
				<ele>786.72</ele>
				<time>2025-07-28T22:54:23.226Z</time>
			</trkpt>
			<trkpt lat="47.81542" lon="15.29611">
				<ele>787.47</ele>
				<time>2025-07-28T22:54:25.555Z</time>
			</trkpt>
			<trkpt lat="47.8153" lon="15.29604">
				<ele>787.9</ele>
				<time>2025-07-28T22:54:26.694Z</time>
			</trkpt>
			<trkpt lat="47.81477" lon="15.2956">
				<ele>787.15</ele>
				<time>2025-07-28T22:54:32.071Z</time>
			</trkpt>
			<trkpt lat="47.81462" lon="15.29552">
				<ele>787.77</ele>
				<time>2025-07-28T22:54:33.488Z</time>
			</trkpt>
			<trkpt lat="47.81446" lon="15.29547">
				<ele>788.86</ele>
				<time>2025-07-28T22:54:34.944Z</time>
			</trkpt>
			<trkpt lat="47.814" lon="15.29542">
				<ele>788.41</ele>
				<time>2025-07-28T22:54:39.063Z</time>
			</trkpt>
			<trkpt lat="47.81366" lon="15.29541">
				<ele>789.22</ele>
				<time>2025-07-28T22:54:42.112Z</time>
			</trkpt>
			<trkpt lat="47.81327" lon="15.29544">
				<ele>790.53</ele>
				<time>2025-07-28T22:54:45.624Z</time>
			</trkpt>
			<trkpt lat="47.81318" lon="15.29545">
				<ele>790.71</ele>
				<time>2025-07-28T22:54:46.437Z</time>
			</trkpt>
			<trkpt lat="47.81264" lon="15.29553">
				<ele>790.02</ele>
				<time>2025-07-28T22:54:51.342Z</time>
			</trkpt>
			<trkpt lat="47.81247" lon="15.29553">
				<ele>789.08</ele>
				<time>2025-07-28T22:54:52.884Z</time>
			</trkpt>
			<trkpt lat="47.81215" lon="15.29548">
				<ele>791.14</ele>
				<time>2025-07-28T22:54:55.808Z</time>
			</trkpt>
			<trkpt lat="47.81187" lon="15.29538">
				<ele>794.14</ele>
				<time>2025-07-28T22:54:58.432Z</time>
			</trkpt>
			<trkpt lat="47.81093" lon="15.29501">
				<ele>795.01</ele>
				<time>2025-07-28T22:55:07.344Z</time>
			</trkpt>
			<trkpt lat="47.81049" lon="15.29491">
				<ele>795.24</ele>
				<time>2025-07-28T22:55:11.450Z</time>
			</trkpt>
			<trkpt lat="47.81025" lon="15.29489">
				<ele>795.99</ele>
				<time>2025-07-28T22:55:13.674Z</time>
			</trkpt>
			<trkpt lat="47.81006" lon="15.29491">
				<ele>796.84</ele>
				<time>2025-07-28T22:55:15.440Z</time>
			</trkpt>
			<trkpt lat="47.80969" lon="15.29502">
				<ele>798.26</ele>
				<time>2025-07-28T22:55:18.948Z</time>
			</trkpt>
			<trkpt lat="47.80944" lon="15.29515">
				<ele>801.12</ele>
				<time>2025-07-28T22:55:21.417Z</time>
			</trkpt>
			<trkpt lat="47.80901" lon="15.29547">
				<ele>806.49</ele>
				<time>2025-07-28T22:55:25.915Z</time>
			</trkpt>
			<trkpt lat="47.80854" lon="15.29584">
				<ele>811.44</ele>
				<time>2025-07-28T22:55:30.912Z</time>
			</trkpt>
			<trkpt lat="47.8083" lon="15.29599">
				<ele>813.18</ele>
				<time>2025-07-28T22:55:33.367Z</time>
			</trkpt>
			<trkpt lat="47.8081" lon="15.29608">
				<ele>814.57</ele>
				<time>2025-07-28T22:55:35.342Z</time>
			</trkpt>
			<trkpt lat="47.80781" lon="15.29616">
				<ele>816.28</ele>
				<time>2025-07-28T22:55:38.137Z</time>
			</trkpt>
			<trkpt lat="47.80764" lon="15.29617">
				<ele>816.1</ele>
				<time>2025-07-28T22:55:39.753Z</time>
			</trkpt>
			<trkpt lat="47.80733" lon="15.29614">
				<ele>814.7</ele>
				<time>2025-07-28T22:55:42.709Z</time>
			</trkpt>
			<trkpt lat="47.80666" lon="15.29601">
				<ele>811.94</ele>
				<time>2025-07-28T22:55:49.169Z</time>
			</trkpt>
			<trkpt lat="47.80632" lon="15.296">
				<ele>810.98</ele>
				<time>2025-07-28T22:55:52.436Z</time>
			</trkpt>
			<trkpt lat="47.80613" lon="15.29603">
				<ele>810.52</ele>
				<time>2025-07-28T22:55:54.276Z</time>
			</trkpt>
			<trkpt lat="47.80594" lon="15.29609">
				<ele>810.32</ele>
				<time>2025-07-28T22:55:56.149Z</time>
			</trkpt>
			<trkpt lat="47.8056" lon="15.29633">
				<ele>809.24</ele>
				<time>2025-07-28T22:55:59.788Z</time>
			</trkpt>
			<trkpt lat="47.80538" lon="15.29656">
				<ele>807.6</ele>
				<time>2025-07-28T22:56:02.396Z</time>
			</trkpt>
			<trkpt lat="47.80517" lon="15.29687">
				<ele>805.72</ele>
				<time>2025-07-28T22:56:05.272Z</time>
			</trkpt>
			<trkpt lat="47.80506" lon="15.2971">
				<ele>805.36</ele>
				<time>2025-07-28T22:56:07.121Z</time>
			</trkpt>
			<trkpt lat="47.8046" lon="15.29816">
				<ele>807.65</ele>
				<time>2025-07-28T22:56:15.424Z</time>
			</trkpt>
			<trkpt lat="47.80447" lon="15.29841">
				<ele>808.45</ele>
				<time>2025-07-28T22:56:17.514Z</time>
			</trkpt>
			<trkpt lat="47.80425" lon="15.29875">
				<ele>811.21</ele>
				<time>2025-07-28T22:56:20.643Z</time>
			</trkpt>
			<trkpt lat="47.80397" lon="15.29904">
				<ele>817.58</ele>
				<time>2025-07-28T22:56:24.019Z</time>
			</trkpt>
			<trkpt lat="47.80369" lon="15.29924">
				<ele>822.92</ele>
				<time>2025-07-28T22:56:27.102Z</time>
			</trkpt>
			<trkpt lat="47.8035" lon="15.29931">
				<ele>824.99</ele>
				<time>2025-07-28T22:56:29.050Z</time>
			</trkpt>
			<trkpt lat="47.80323" lon="15.29937">
				<ele>826.71</ele>
				<time>2025-07-28T22:56:31.772Z</time>
			</trkpt>
			<trkpt lat="47.80119" lon="15.29941">
				<ele>843.81</ele>
				<time>2025-07-28T22:56:52.339Z</time>
			</trkpt>
			<trkpt lat="47.80095" lon="15.29946">
				<ele>845.12</ele>
				<time>2025-07-28T22:56:54.808Z</time>
			</trkpt>
			<trkpt lat="47.8007" lon="15.29954">
				<ele>846.73</ele>
				<time>2025-07-28T22:56:57.420Z</time>
			</trkpt>
			<trkpt lat="47.80044" lon="15.29968">
				<ele>846.77</ele>
				<time>2025-07-28T22:57:00.250Z</time>
			</trkpt>
			<trkpt lat="47.80025" lon="15.29982">
				<ele>845.86</ele>
				<time>2025-07-28T22:57:02.426Z</time>
			</trkpt>
			<trkpt lat="47.80001" lon="15.30003">
				<ele>843.96</ele>
				<time>2025-07-28T22:57:05.289Z</time>
			</trkpt>
			<trkpt lat="47.79897" lon="15.30118">
				<ele>847.69</ele>
				<time>2025-07-28T22:57:18.712Z</time>
			</trkpt>
			<trkpt lat="47.7986" lon="15.30148">
				<ele>848.01</ele>
				<time>2025-07-28T22:57:23.112Z</time>
			</trkpt>
			<trkpt lat="47.79832" lon="15.30164">
				<ele>850.81</ele>
				<time>2025-07-28T22:57:26.255Z</time>
			</trkpt>
			<trkpt lat="47.79743" lon="15.30202">
				<ele>857.69</ele>
				<time>2025-07-28T22:57:36.014Z</time>
			</trkpt>
			<trkpt lat="47.79694" lon="15.30232">
				<ele>863.79</ele>
				<time>2025-07-28T22:57:41.637Z</time>
			</trkpt>
			<trkpt lat="47.7962" lon="15.30285">
				<ele>856.8</ele>
				<time>2025-07-28T22:57:50.407Z</time>
			</trkpt>
			<trkpt lat="47.79592" lon="15.30298">
				<ele>858.57</ele>
				<time>2025-07-28T22:57:53.556Z</time>
			</trkpt>
			<trkpt lat="47.79565" lon="15.30303">
				<ele>860.41</ele>
				<time>2025-07-28T22:57:56.485Z</time>
			</trkpt>
			<trkpt lat="47.79469" lon="15.303">
				<ele>859.83</ele>
				<time>2025-07-28T22:58:06.881Z</time>
			</trkpt>
			<trkpt lat="47.79436" lon="15.30305">
				<ele>860.59</ele>
				<time>2025-07-28T22:58:10.494Z</time>
			</trkpt>
			<trkpt lat="47.79392" lon="15.30319">
				<ele>865.68</ele>
				<time>2025-07-28T22:58:15.413Z</time>
			</trkpt>
			<trkpt lat="47.79362" lon="15.30333">
				<ele>867</ele>
				<time>2025-07-28T22:58:18.862Z</time>
			</trkpt>
			<trkpt lat="47.79302" lon="15.30365">
				<ele>870.16</ele>
				<time>2025-07-28T22:58:25.887Z</time>
			</trkpt>
			<trkpt lat="47.79261" lon="15.3038">
				<ele>869.73</ele>
				<time>2025-07-28T22:58:30.563Z</time>
			</trkpt>
			<trkpt lat="47.79241" lon="15.30384">
				<ele>868.42</ele>
				<time>2025-07-28T22:58:32.805Z</time>
			</trkpt>
			<trkpt lat="47.79222" lon="15.30384">
				<ele>867.04</ele>
				<time>2025-07-28T22:58:34.920Z</time>
			</trkpt>
			<trkpt lat="47.7919" lon="15.3038">
				<ele>865.95</ele>
				<time>2025-07-28T22:58:38.502Z</time>
			</trkpt>
			<trkpt lat="47.79164" lon="15.30372">
				<ele>865.25</ele>
				<time>2025-07-28T22:58:41.472Z</time>
			</trkpt>
			<trkpt lat="47.79128" lon="15.30354">
				<ele>860.83</ele>
				<time>2025-07-28T22:58:45.734Z</time>
			</trkpt>
			<trkpt lat="47.79038" lon="15.30297">
				<ele>859.89</ele>
				<time>2025-07-28T22:58:56.779Z</time>
			</trkpt>
			<trkpt lat="47.79002" lon="15.30278">
				<ele>859.53</ele>
				<time>2025-07-28T22:59:01.120Z</time>
			</trkpt>
			<trkpt lat="47.78987" lon="15.30274">
				<ele>860.91</ele>
				<time>2025-07-28T22:59:02.857Z</time>
			</trkpt>
			<trkpt lat="47.7895" lon="15.30269">
				<ele>861.45</ele>
				<time>2025-07-28T22:59:07.100Z</time>
			</trkpt>
			<trkpt lat="47.78923" lon="15.30274">
				<ele>860.93</ele>
				<time>2025-07-28T22:59:10.217Z</time>
			</trkpt>
			<trkpt lat="47.78905" lon="15.3028">
				<ele>860.25</ele>
				<time>2025-07-28T22:59:12.335Z</time>
			</trkpt>
			<trkpt lat="47.78884" lon="15.30291">
				<ele>859.16</ele>
				<time>2025-07-28T22:59:14.896Z</time>
			</trkpt>
			<trkpt lat="47.78859" lon="15.3031">
				<ele>858.09</ele>
				<time>2025-07-28T22:59:18.133Z</time>
			</trkpt>
			<trkpt lat="47.78841" lon="15.30328">
				<ele>858.12</ele>
				<time>2025-07-28T22:59:20.639Z</time>
			</trkpt>
			<trkpt lat="47.78824" lon="15.30351">
				<ele>857.79</ele>
				<time>2025-07-28T22:59:23.300Z</time>
			</trkpt>
			<trkpt lat="47.7881" lon="15.30375">
				<ele>856.74</ele>
				<time>2025-07-28T22:59:25.778Z</time>
			</trkpt>
			<trkpt lat="47.78787" lon="15.30428">
				<ele>856.78</ele>
				<time>2025-07-28T22:59:30.713Z</time>
			</trkpt>
			<trkpt lat="47.78743" lon="15.30554">
				<ele>858.75</ele>
				<time>2025-07-28T22:59:41.892Z</time>
			</trkpt>
			<trkpt lat="47.78724" lon="15.306">
				<ele>857.08</ele>
				<time>2025-07-28T22:59:46.169Z</time>
			</trkpt>
			<trkpt lat="47.78696" lon="15.30653">
				<ele>857.58</ele>
				<time>2025-07-28T22:59:51.530Z</time>
			</trkpt>
			<trkpt lat="47.78669" lon="15.30698">
				<ele>858.22</ele>
				<time>2025-07-28T22:59:56.347Z</time>
			</trkpt>
			<trkpt lat="47.78631" lon="15.30747">
				<ele>858.65</ele>
				<time>2025-07-28T23:00:02.347Z</time>
			</trkpt>
			<trkpt lat="47.78605" lon="15.30774">
				<ele>858.68</ele>
				<time>2025-07-28T23:00:06.145Z</time>
			</trkpt>
			<trkpt lat="47.78574" lon="15.30802">
				<ele>859.77</ele>
				<time>2025-07-28T23:00:10.503Z</time>
			</trkpt>
			<trkpt lat="47.78513" lon="15.30845">
				<ele>861.18</ele>
				<time>2025-07-28T23:00:18.654Z</time>
			</trkpt>
			<trkpt lat="47.78251" lon="15.31011">
				<ele>863.78</ele>
				<time>2025-07-28T23:00:53.618Z</time>
			</trkpt>
			<trkpt lat="47.7821" lon="15.31044">
				<ele>863.99</ele>
				<time>2025-07-28T23:00:59.431Z</time>
			</trkpt>
			<trkpt lat="47.78112" lon="15.31133">
				<ele>870.36</ele>
				<time>2025-07-28T23:01:13.856Z</time>
			</trkpt>
			<trkpt lat="47.78098" lon="15.31144">
				<ele>869.92</ele>
				<time>2025-07-28T23:01:15.858Z</time>
			</trkpt>
			<trkpt lat="47.78038" lon="15.31184">
				<ele>869.8</ele>
				<time>2025-07-28T23:01:24.201Z</time>
			</trkpt>
			<trkpt lat="47.78015" lon="15.31197">
				<ele>869.38</ele>
				<time>2025-07-28T23:01:27.337Z</time>
			</trkpt>
			<trkpt lat="47.77967" lon="15.31209">
				<ele>868.15</ele>
				<time>2025-07-28T23:01:33.561Z</time>
			</trkpt>
			<trkpt lat="47.77875" lon="15.31216">
				<ele>864.31</ele>
				<time>2025-07-28T23:01:45.420Z</time>
			</trkpt>
			<trkpt lat="47.77848" lon="15.31221">
				<ele>862.34</ele>
				<time>2025-07-28T23:01:48.942Z</time>
			</trkpt>
			<trkpt lat="47.77823" lon="15.31229">
				<ele>862.65</ele>
				<time>2025-07-28T23:01:52.260Z</time>
			</trkpt>
			<trkpt lat="47.77763" lon="15.31255">
				<ele>861.66</ele>
				<time>2025-07-28T23:02:00.403Z</time>
			</trkpt>
			<trkpt lat="47.77629" lon="15.313">
				<ele>864.25</ele>
				<time>2025-07-28T23:02:18.470Z</time>
			</trkpt>
			<trkpt lat="47.77579" lon="15.31317">
				<ele>860.85</ele>
				<time>2025-07-28T23:02:25.276Z</time>
			</trkpt>
			<trkpt lat="47.7754" lon="15.31336">
				<ele>860.26</ele>
				<time>2025-07-28T23:02:30.744Z</time>
			</trkpt>
			<trkpt lat="47.77516" lon="15.31351">
				<ele>859.36</ele>
				<time>2025-07-28T23:02:34.224Z</time>
			</trkpt>
			<trkpt lat="47.77495" lon="15.31369">
				<ele>857.57</ele>
				<time>2025-07-28T23:02:37.471Z</time>
			</trkpt>
			<trkpt lat="47.77479" lon="15.31386">
				<ele>855.33</ele>
				<time>2025-07-28T23:02:40.111Z</time>
			</trkpt>
			<trkpt lat="47.7746" lon="15.31412">
				<ele>850.96</ele>
				<time>2025-07-28T23:02:43.584Z</time>
			</trkpt>
			<trkpt lat="47.77444" lon="15.3144">
				<ele>847.18</ele>
				<time>2025-07-28T23:02:46.915Z</time>
			</trkpt>
			<trkpt lat="47.77436" lon="15.31457">
				<ele>845.46</ele>
				<time>2025-07-28T23:02:48.799Z</time>
			</trkpt>
			<trkpt lat="47.77422" lon="15.31487">
				<ele>844.33</ele>
				<time>2025-07-28T23:02:52.121Z</time>
			</trkpt>
			<trkpt lat="47.77402" lon="15.31517">
				<ele>844.45</ele>
				<time>2025-07-28T23:02:55.974Z</time>
			</trkpt>
			<trkpt lat="47.77387" lon="15.3153">
				<ele>845.29</ele>
				<time>2025-07-28T23:02:58.335Z</time>
			</trkpt>
			<trkpt lat="47.77368" lon="15.31536">
				<ele>846.65</ele>
				<time>2025-07-28T23:03:00.980Z</time>
			</trkpt>
			<trkpt lat="47.77369" lon="15.3155">
				<ele>848.11</ele>
				<time>2025-07-28T23:03:02.271Z</time>
			</trkpt>
			<trkpt lat="47.77367" lon="15.3156">
				<ele>848.99</ele>
				<time>2025-07-28T23:03:03.228Z</time>
			</trkpt>
			<trkpt lat="47.77284" lon="15.31605">
				<ele>852.56</ele>
				<time>2025-07-28T23:03:15.338Z</time>
			</trkpt>
			<trkpt lat="47.77271" lon="15.31614">
				<ele>854.03</ele>
				<time>2025-07-28T23:03:17.313Z</time>
			</trkpt>
			<trkpt lat="47.77231" lon="15.3165">
				<ele>858.02</ele>
				<time>2025-07-28T23:03:23.771Z</time>
			</trkpt>
			<trkpt lat="47.77277" lon="15.31748">
				<ele>864.77</ele>
				<time>2025-07-28T23:03:34.934Z</time>
			</trkpt>
			<trkpt lat="47.77285" lon="15.31759">
				<ele>866.2</ele>
				<time>2025-07-28T23:03:36.454Z</time>
			</trkpt>
			<trkpt lat="47.77323" lon="15.3179">
				<ele>871.23</ele>
				<time>2025-07-28T23:03:42.704Z</time>
			</trkpt>
			<trkpt lat="47.77364" lon="15.31812">
				<ele>875.34</ele>
				<time>2025-07-28T23:03:51.446Z</time>
			</trkpt>
			<trkpt lat="47.77367" lon="15.31819">
				<ele>875.63</ele>
				<time>2025-07-28T23:03:52.740Z</time>
			</trkpt>
			<trkpt lat="47.77366" lon="15.31836">
				<ele>876.08</ele>
				<time>2025-07-28T23:03:55.488Z</time>
			</trkpt>
			<trkpt lat="47.77358" lon="15.31858">
				<ele>876.89</ele>
				<time>2025-07-28T23:03:59.688Z</time>
			</trkpt>
			<trkpt lat="47.77322" lon="15.3194">
				<ele>878.15</ele>
				<time>2025-07-28T23:04:16.610Z</time>
			</trkpt>
			<trkpt lat="47.7729" lon="15.31985">
				<ele>878.28</ele>
				<time>2025-07-28T23:04:26.727Z</time>
			</trkpt>
			<trkpt lat="47.77274" lon="15.32002">
				<ele>877.02</ele>
				<time>2025-07-28T23:04:30.830Z</time>
			</trkpt>
			<trkpt lat="47.77256" lon="15.31985">
				<ele>875.75</ele>
				<time>2025-07-28T23:04:35.095Z</time>
			</trkpt>
			<trkpt lat="47.77243" lon="15.31968">
				<ele>875.78</ele>
				<time>2025-07-28T23:04:38.470Z</time>
			</trkpt>
			<trkpt lat="47.77235" lon="15.31964">
				<ele>875.35</ele>
				<time>2025-07-28T23:04:40.102Z</time>
			</trkpt>
			<trkpt lat="47.77227" lon="15.31965">
				<ele>872.28</ele>
				<time>2025-07-28T23:04:41.653Z</time>
			</trkpt>
			<trkpt lat="47.77235" lon="15.31964">
				<ele>875.35</ele>
				<time>2025-07-28T23:04:43.207Z</time>
			</trkpt>
			<trkpt lat="47.77243" lon="15.31968">
				<ele>875.78</ele>
				<time>2025-07-28T23:04:44.847Z</time>
			</trkpt>
			<trkpt lat="47.77256" lon="15.31985">
				<ele>875.75</ele>
				<time>2025-07-28T23:04:48.258Z</time>
			</trkpt>
			<trkpt lat="47.77274" lon="15.32002">
				<ele>877.02</ele>
				<time>2025-07-28T23:04:52.598Z</time>
			</trkpt>
			<trkpt lat="47.77257" lon="15.32026">
				<ele>877.04</ele>
				<time>2025-07-28T23:04:57.639Z</time>
			</trkpt>
			<trkpt lat="47.7725" lon="15.3204">
				<ele>876.09</ele>
				<time>2025-07-28T23:05:00.301Z</time>
			</trkpt>
			<trkpt lat="47.77244" lon="15.32062">
				<ele>874.67</ele>
				<time>2025-07-28T23:05:04.104Z</time>
			</trkpt>
			<trkpt lat="47.77239" lon="15.32091">
				<ele>873.71</ele>
				<time>2025-07-28T23:05:09.247Z</time>
			</trkpt>
			<trkpt lat="47.77235" lon="15.32105">
				<ele>873.57</ele>
				<time>2025-07-28T23:05:12.029Z</time>
			</trkpt>
			<trkpt lat="47.77229" lon="15.32114">
				<ele>873.36</ele>
				<time>2025-07-28T23:05:14.442Z</time>
			</trkpt>
			<trkpt lat="47.77199" lon="15.32131">
				<ele>873.74</ele>
				<time>2025-07-28T23:05:24.411Z</time>
			</trkpt>
			<trkpt lat="47.77152" lon="15.32173">
				<ele>875.51</ele>
				<time>2025-07-28T23:05:45.279Z</time>
			</trkpt>
			<trkpt lat="47.77117" lon="15.322">
				<ele>876.61</ele>
				<time>2025-07-28T23:06:17.426Z</time>
			</trkpt>
			<trkpt lat="47.77086" lon="15.32221">
				<ele>878.94</ele>
				<time>2025-07-28T23:06:33.351Z</time>
			</trkpt>
			<trkpt lat="47.77053" lon="15.32238">
				<ele>879.27</ele>
				<time>2025-07-28T23:06:40.407Z</time>
			</trkpt>
			<trkpt lat="47.77043" lon="15.32173">
				<ele>869.55</ele>
				<time>2025-07-28T23:06:50.463Z</time>
			</trkpt>
			<trkpt lat="47.77032" lon="15.32079">
				<ele>859.94</ele>
				<time>2025-07-28T23:07:04.357Z</time>
			</trkpt>
			<trkpt lat="47.77017" lon="15.31972">
				<ele>842.31</ele>
				<time>2025-07-28T23:07:20.485Z</time>
			</trkpt>
			<trkpt lat="47.77012" lon="15.31956">
				<ele>839.91</ele>
				<time>2025-07-28T23:07:23.193Z</time>
			</trkpt>
			<trkpt lat="47.77004" lon="15.31946">
				<ele>837.71</ele>
				<time>2025-07-28T23:07:25.614Z</time>
			</trkpt>
			<trkpt lat="47.76982" lon="15.3194">
				<ele>835.95</ele>
				<time>2025-07-28T23:07:30.930Z</time>
			</trkpt>
			<trkpt lat="47.76973" lon="15.31944">
				<ele>835.98</ele>
				<time>2025-07-28T23:07:33.224Z</time>
			</trkpt>
			<trkpt lat="47.76962" lon="15.31944">
				<ele>835.7</ele>
				<time>2025-07-28T23:07:35.960Z</time>
			</trkpt>
			<trkpt lat="47.76953" lon="15.31942">
				<ele>834.99</ele>
				<time>2025-07-28T23:07:38.268Z</time>
			</trkpt>
			<trkpt lat="47.76942" lon="15.3193">
				<ele>832.59</ele>
				<time>2025-07-28T23:07:41.808Z</time>
			</trkpt>
			<trkpt lat="47.7695" lon="15.31907">
				<ele>829.55</ele>
				<time>2025-07-28T23:07:46.479Z</time>
			</trkpt>
			<trkpt lat="47.7691" lon="15.31909">
				<ele>834.23</ele>
				<time>2025-07-28T23:07:59.049Z</time>
			</trkpt>
			<trkpt lat="47.76902" lon="15.31906">
				<ele>835.76</ele>
				<time>2025-07-28T23:08:02.007Z</time>
			</trkpt>
			<trkpt lat="47.76894" lon="15.319">
				<ele>837.4</ele>
				<time>2025-07-28T23:08:05.330Z</time>
			</trkpt>
			<trkpt lat="47.7689" lon="15.31895">
				<ele>837.9</ele>
				<time>2025-07-28T23:08:07.316Z</time>
			</trkpt>
			<trkpt lat="47.76887" lon="15.31884">
				<ele>837.95</ele>
				<time>2025-07-28T23:08:10.406Z</time>
			</trkpt>
			<trkpt lat="47.76887" lon="15.31877">
				<ele>837.22</ele>
				<time>2025-07-28T23:08:12.258Z</time>
			</trkpt>
			<trkpt lat="47.7689" lon="15.31866">
				<ele>835.08</ele>
				<time>2025-07-28T23:08:15.441Z</time>
			</trkpt>
			<trkpt lat="47.76893" lon="15.31862">
				<ele>833.69</ele>
				<time>2025-07-28T23:08:17.066Z</time>
			</trkpt>
			<trkpt lat="47.76901" lon="15.31856">
				<ele>830.48</ele>
				<time>2025-07-28T23:08:20.712Z</time>
			</trkpt>
			<trkpt lat="47.76922" lon="15.31854">
				<ele>825.42</ele>
				<time>2025-07-28T23:08:29.378Z</time>
			</trkpt>
			<trkpt lat="47.76954" lon="15.31867">
				<ele>826.41</ele>
				<time>2025-07-28T23:08:42.923Z</time>
			</trkpt>
			<trkpt lat="47.76972" lon="15.3187">
				<ele>829.32</ele>
				<time>2025-07-28T23:08:50.017Z</time>
			</trkpt>
			<trkpt lat="47.76976" lon="15.31869">
				<ele>829.99</ele>
				<time>2025-07-28T23:08:51.559Z</time>
			</trkpt>
			<trkpt lat="47.76983" lon="15.31863">
				<ele>830.79</ele>
				<time>2025-07-28T23:08:54.568Z</time>
			</trkpt>
			<trkpt lat="47.76988" lon="15.31853">
				<ele>831.21</ele>
				<time>2025-07-28T23:08:57.590Z</time>
			</trkpt>
			<trkpt lat="47.76989" lon="15.31844">
				<ele>831.2</ele>
				<time>2025-07-28T23:08:59.732Z</time>
			</trkpt>
			<trkpt lat="47.76986" lon="15.31831">
				<ele>830.68</ele>
				<time>2025-07-28T23:09:02.836Z</time>
			</trkpt>
			<trkpt lat="47.76982" lon="15.31823">
				<ele>830.2</ele>
				<time>2025-07-28T23:09:04.986Z</time>
			</trkpt>
			<trkpt lat="47.76957" lon="15.31799">
				<ele>826.18</ele>
				<time>2025-07-28T23:09:13.322Z</time>
			</trkpt>
			<trkpt lat="47.76945" lon="15.31783">
				<ele>824.72</ele>
				<time>2025-07-28T23:09:16.873Z</time>
			</trkpt>
			<trkpt lat="47.76935" lon="15.31761">
				<ele>825.02</ele>
				<time>2025-07-28T23:09:19.878Z</time>
			</trkpt>
			<trkpt lat="47.76931" lon="15.3174">
				<ele>824.5</ele>
				<time>2025-07-28T23:09:21.432Z</time>
			</trkpt>
			<trkpt lat="47.76928" lon="15.31719">
				<ele>823.26</ele>
				<time>2025-07-28T23:09:22.859Z</time>
			</trkpt>
			<trkpt lat="47.76926" lon="15.31684">
				<ele>821.15</ele>
				<time>2025-07-28T23:09:25.227Z</time>
			</trkpt>
			<trkpt lat="47.76928" lon="15.31646">
				<ele>819.43</ele>
				<time>2025-07-28T23:09:27.804Z</time>
			</trkpt>
			<trkpt lat="47.76939" lon="15.31553">
				<ele>813.14</ele>
				<time>2025-07-28T23:09:34.218Z</time>
			</trkpt>
			<trkpt lat="47.7694" lon="15.31515">
				<ele>811.39</ele>
				<time>2025-07-28T23:09:36.811Z</time>
			</trkpt>
			<trkpt lat="47.76938" lon="15.31469">
				<ele>811.23</ele>
				<time>2025-07-28T23:09:39.959Z</time>
			</trkpt>
			<trkpt lat="47.76934" lon="15.31434">
				<ele>810.84</ele>
				<time>2025-07-28T23:09:42.388Z</time>
			</trkpt>
			<trkpt lat="47.76927" lon="15.31404">
				<ele>809.61</ele>
				<time>2025-07-28T23:09:44.562Z</time>
			</trkpt>
			<trkpt lat="47.76891" lon="15.31283">
				<ele>795.86</ele>
				<time>2025-07-28T23:09:53.629Z</time>
			</trkpt>
			<trkpt lat="47.76889" lon="15.31268">
				<ele>795.19</ele>
				<time>2025-07-28T23:09:54.677Z</time>
			</trkpt>
			<trkpt lat="47.76889" lon="15.31247">
				<ele>795.02</ele>
				<time>2025-07-28T23:09:56.115Z</time>
			</trkpt>
			<trkpt lat="47.76891" lon="15.3123">
				<ele>794.92</ele>
				<time>2025-07-28T23:09:57.297Z</time>
			</trkpt>
			<trkpt lat="47.76895" lon="15.31209">
				<ele>794.68</ele>
				<time>2025-07-28T23:09:58.790Z</time>
			</trkpt>
			<trkpt lat="47.76903" lon="15.31191">
				<ele>794.83</ele>
				<time>2025-07-28T23:10:00.266Z</time>
			</trkpt>
			<trkpt lat="47.76914" lon="15.31173">
				<ele>794.8</ele>
				<time>2025-07-28T23:10:01.929Z</time>
			</trkpt>
			<trkpt lat="47.7694" lon="15.31148">
				<ele>792.44</ele>
				<time>2025-07-28T23:10:05.071Z</time>
			</trkpt>
			<trkpt lat="47.76969" lon="15.31128">
				<ele>789.7</ele>
				<time>2025-07-28T23:10:08.309Z</time>
			</trkpt>
			<trkpt lat="47.76987" lon="15.3112">
				<ele>789.31</ele>
				<time>2025-07-28T23:10:10.207Z</time>
			</trkpt>
			<trkpt lat="47.77006" lon="15.31118">
				<ele>789.58</ele>
				<time>2025-07-28T23:10:12.129Z</time>
			</trkpt>
			<trkpt lat="47.7702" lon="15.31122">
				<ele>789.89</ele>
				<time>2025-07-28T23:10:13.564Z</time>
			</trkpt>
			<trkpt lat="47.77056" lon="15.31139">
				<ele>789.12</ele>
				<time>2025-07-28T23:10:17.355Z</time>
			</trkpt>
			<trkpt lat="47.77061" lon="15.31139">
				<ele>789.15</ele>
				<time>2025-07-28T23:10:17.855Z</time>
			</trkpt>
			<trkpt lat="47.77071" lon="15.31135">
				<ele>788.44</ele>
				<time>2025-07-28T23:10:18.891Z</time>
			</trkpt>
			<trkpt lat="47.77077" lon="15.31124">
				<ele>786.98</ele>
				<time>2025-07-28T23:10:19.841Z</time>
			</trkpt>
			<trkpt lat="47.77081" lon="15.31104">
				<ele>784.3</ele>
				<time>2025-07-28T23:10:21.239Z</time>
			</trkpt>
			<trkpt lat="47.7708" lon="15.31098">
				<ele>783.6</ele>
				<time>2025-07-28T23:10:21.652Z</time>
			</trkpt>
			<trkpt lat="47.77075" lon="15.31085">
				<ele>782.01</ele>
				<time>2025-07-28T23:10:22.653Z</time>
			</trkpt>
			<trkpt lat="47.77067" lon="15.31078">
				<ele>780.76</ele>
				<time>2025-07-28T23:10:23.574Z</time>
			</trkpt>
			<trkpt lat="47.77051" lon="15.31074">
				<ele>779.8</ele>
				<time>2025-07-28T23:10:25.180Z</time>
			</trkpt>
			<trkpt lat="47.77012" lon="15.31081">
				<ele>781.6</ele>
				<time>2025-07-28T23:10:29.050Z</time>
			</trkpt>
			<trkpt lat="47.7697" lon="15.31078">
				<ele>778.12</ele>
				<time>2025-07-28T23:10:33.159Z</time>
			</trkpt>
			<trkpt lat="47.76896" lon="15.31051">
				<ele>773.53</ele>
				<time>2025-07-28T23:10:40.502Z</time>
			</trkpt>
			<trkpt lat="47.76857" lon="15.31039">
				<ele>769.23</ele>
				<time>2025-07-28T23:10:44.282Z</time>
			</trkpt>
			<trkpt lat="47.76774" lon="15.31022">
				<ele>769.64</ele>
				<time>2025-07-28T23:10:52.086Z</time>
			</trkpt>
			<trkpt lat="47.76748" lon="15.31021">
				<ele>769.48</ele>
				<time>2025-07-28T23:10:54.464Z</time>
			</trkpt>
			<trkpt lat="47.76763" lon="15.30945">
				<ele>766.54</ele>
				<time>2025-07-28T23:10:59.261Z</time>
			</trkpt>
			<trkpt lat="47.76778" lon="15.30901">
				<ele>766</ele>
				<time>2025-07-28T23:11:02.197Z</time>
			</trkpt>
			<trkpt lat="47.7679" lon="15.30874">
				<ele>767.5</ele>
				<time>2025-07-28T23:11:04.101Z</time>
			</trkpt>
			<trkpt lat="47.76819" lon="15.30831">
				<ele>770.19</ele>
				<time>2025-07-28T23:11:07.633Z</time>
			</trkpt>
			<trkpt lat="47.76858" lon="15.30793">
				<ele>769.41</ele>
				<time>2025-07-28T23:11:11.571Z</time>
			</trkpt>
			<trkpt lat="47.76947" lon="15.30697">
				<ele>774.95</ele>
				<time>2025-07-28T23:11:20.473Z</time>
			</trkpt>
			<trkpt lat="47.76969" lon="15.30663">
				<ele>775.46</ele>
				<time>2025-07-28T23:11:22.963Z</time>
			</trkpt>
			<trkpt lat="47.76974" lon="15.30648">
				<ele>775.38</ele>
				<time>2025-07-28T23:11:23.844Z</time>
			</trkpt>
			<trkpt lat="47.76995" lon="15.30561">
				<ele>781.44</ele>
				<time>2025-07-28T23:11:28.685Z</time>
			</trkpt>
			<trkpt lat="47.77002" lon="15.30537">
				<ele>783.35</ele>
				<time>2025-07-28T23:11:30.047Z</time>
			</trkpt>
			<trkpt lat="47.77014" lon="15.30502">
				<ele>785.03</ele>
				<time>2025-07-28T23:11:32.088Z</time>
			</trkpt>
			<trkpt lat="47.77064" lon="15.30371">
				<ele>781.95</ele>
				<time>2025-07-28T23:11:39.850Z</time>
			</trkpt>
			<trkpt lat="47.77076" lon="15.30336">
				<ele>780.77</ele>
				<time>2025-07-28T23:11:41.857Z</time>
			</trkpt>
			<trkpt lat="47.77082" lon="15.30306">
				<ele>779.7</ele>
				<time>2025-07-28T23:11:43.452Z</time>
			</trkpt>
			<trkpt lat="47.77083" lon="15.30258">
				<ele>779.4</ele>
				<time>2025-07-28T23:11:45.890Z</time>
			</trkpt>
			<trkpt lat="47.7708" lon="15.30191">
				<ele>780.72</ele>
				<time>2025-07-28T23:11:49.283Z</time>
			</trkpt>
			<trkpt lat="47.77077" lon="15.30163">
				<ele>782.78</ele>
				<time>2025-07-28T23:11:50.709Z</time>
			</trkpt>
			<trkpt lat="47.77072" lon="15.30127">
				<ele>781.98</ele>
				<time>2025-07-28T23:11:52.554Z</time>
			</trkpt>
			<trkpt lat="47.77063" lon="15.30089">
				<ele>781.26</ele>
				<time>2025-07-28T23:11:54.570Z</time>
			</trkpt>
			<trkpt lat="47.77057" lon="15.30077">
				<ele>781.67</ele>
				<time>2025-07-28T23:11:55.316Z</time>
			</trkpt>
			<trkpt lat="47.77049" lon="15.30065">
				<ele>783.38</ele>
				<time>2025-07-28T23:11:56.158Z</time>
			</trkpt>
			<trkpt lat="47.7703" lon="15.30055">
				<ele>786.43</ele>
				<time>2025-07-28T23:11:57.650Z</time>
			</trkpt>
			<trkpt lat="47.77001" lon="15.30049">
				<ele>792.6</ele>
				<time>2025-07-28T23:11:59.810Z</time>
			</trkpt>
			<trkpt lat="47.76986" lon="15.30041">
				<ele>792.01</ele>
				<time>2025-07-28T23:12:00.983Z</time>
			</trkpt>
			<trkpt lat="47.76935" lon="15.29997">
				<ele>788.77</ele>
				<time>2025-07-28T23:12:05.300Z</time>
			</trkpt>
			<trkpt lat="47.76915" lon="15.29971">
				<ele>787.08</ele>
				<time>2025-07-28T23:12:07.235Z</time>
			</trkpt>
			<trkpt lat="47.76909" lon="15.29959">
				<ele>787.41</ele>
				<time>2025-07-28T23:12:07.966Z</time>
			</trkpt>
			<trkpt lat="47.769" lon="15.29927">
				<ele>788.91</ele>
				<time>2025-07-28T23:12:09.657Z</time>
			</trkpt>
			<trkpt lat="47.76894" lon="15.29883">
				<ele>790.6</ele>
				<time>2025-07-28T23:12:11.839Z</time>
			</trkpt>
			<trkpt lat="47.76888" lon="15.2981">
				<ele>789.99</ele>
				<time>2025-07-28T23:12:15.396Z</time>
			</trkpt>
			<trkpt lat="47.76888" lon="15.29733">
				<ele>791.54</ele>
				<time>2025-07-28T23:12:19.098Z</time>
			</trkpt>
			<trkpt lat="47.76894" lon="15.2954">
				<ele>797.39</ele>
				<time>2025-07-28T23:12:28.287Z</time>
			</trkpt>
			<trkpt lat="47.76934" lon="15.29231">
				<ele>797.1</ele>
				<time>2025-07-28T23:12:42.959Z</time>
			</trkpt>
			<trkpt lat="47.76943" lon="15.29189">
				<ele>795.14</ele>
				<time>2025-07-28T23:12:44.987Z</time>
			</trkpt>
			<trkpt lat="47.76957" lon="15.29144">
				<ele>796.46</ele>
				<time>2025-07-28T23:12:47.259Z</time>
			</trkpt>
			<trkpt lat="47.76992" lon="15.29074">
				<ele>801.5</ele>
				<time>2025-07-28T23:12:51.237Z</time>
			</trkpt>
			<trkpt lat="47.77011" lon="15.29031">
				<ele>805.4</ele>
				<time>2025-07-28T23:12:53.571Z</time>
			</trkpt>
			<trkpt lat="47.77017" lon="15.29012">
				<ele>807.09</ele>
				<time>2025-07-28T23:12:54.521Z</time>
			</trkpt>
			<trkpt lat="47.77036" lon="15.28936">
				<ele>809.09</ele>
				<time>2025-07-28T23:12:58.176Z</time>
			</trkpt>
			<trkpt lat="47.77055" lon="15.28878">
				<ele>809.53</ele>
				<time>2025-07-28T23:13:01.069Z</time>
			</trkpt>
			<trkpt lat="47.77081" lon="15.28808">
				<ele>809.87</ele>
				<time>2025-07-28T23:13:04.636Z</time>
			</trkpt>
			<trkpt lat="47.77089" lon="15.28779">
				<ele>808.21</ele>
				<time>2025-07-28T23:13:06.029Z</time>
			</trkpt>
			<trkpt lat="47.77101" lon="15.28726">
				<ele>809.16</ele>
				<time>2025-07-28T23:13:08.506Z</time>
			</trkpt>
			<trkpt lat="47.77108" lon="15.28701">
				<ele>811.35</ele>
				<time>2025-07-28T23:13:09.702Z</time>
			</trkpt>
			<trkpt lat="47.77127" lon="15.28648">
				<ele>810.22</ele>
				<time>2025-07-28T23:13:12.346Z</time>
			</trkpt>
			<trkpt lat="47.77151" lon="15.28595">
				<ele>812.29</ele>
				<time>2025-07-28T23:13:15.148Z</time>
			</trkpt>
			<trkpt lat="47.77157" lon="15.28574">
				<ele>812.16</ele>
				<time>2025-07-28T23:13:16.146Z</time>
			</trkpt>
			<trkpt lat="47.77162" lon="15.28543">
				<ele>810.88</ele>
				<time>2025-07-28T23:13:17.537Z</time>
			</trkpt>
			<trkpt lat="47.77165" lon="15.28478">
				<ele>810.65</ele>
				<time>2025-07-28T23:13:20.370Z</time>
			</trkpt>
			<trkpt lat="47.77163" lon="15.28307">
				<ele>811.52</ele>
				<time>2025-07-28T23:13:27.749Z</time>
			</trkpt>
			<trkpt lat="47.77157" lon="15.27999">
				<ele>813.42</ele>
				<time>2025-07-28T23:13:40.841Z</time>
			</trkpt>
			<trkpt lat="47.77155" lon="15.27968">
				<ele>813.44</ele>
				<time>2025-07-28T23:13:42.151Z</time>
			</trkpt>
			<trkpt lat="47.77147" lon="15.27914">
				<ele>812.46</ele>
				<time>2025-07-28T23:13:44.470Z</time>
			</trkpt>
			<trkpt lat="47.77135" lon="15.27861">
				<ele>809.86</ele>
				<time>2025-07-28T23:13:46.807Z</time>
			</trkpt>
			<trkpt lat="47.7712" lon="15.27816">
				<ele>810.29</ele>
				<time>2025-07-28T23:13:48.900Z</time>
			</trkpt>
			<trkpt lat="47.77087" lon="15.27734">
				<ele>812.63</ele>
				<time>2025-07-28T23:13:52.865Z</time>
			</trkpt>
			<trkpt lat="47.77081" lon="15.27713">
				<ele>812.92</ele>
				<time>2025-07-28T23:13:53.808Z</time>
			</trkpt>
			<trkpt lat="47.77077" lon="15.27687">
				<ele>812.78</ele>
				<time>2025-07-28T23:13:54.910Z</time>
			</trkpt>
			<trkpt lat="47.77077" lon="15.27652">
				<ele>812.77</ele>
				<time>2025-07-28T23:13:56.352Z</time>
			</trkpt>
			<trkpt lat="47.77084" lon="15.27573">
				<ele>813.41</ele>
				<time>2025-07-28T23:13:59.626Z</time>
			</trkpt>
			<trkpt lat="47.77088" lon="15.27504">
				<ele>814.17</ele>
				<time>2025-07-28T23:14:02.460Z</time>
			</trkpt>
			<trkpt lat="47.77086" lon="15.27419">
				<ele>813.71</ele>
				<time>2025-07-28T23:14:05.925Z</time>
			</trkpt>
			<trkpt lat="47.77081" lon="15.27373">
				<ele>814.1</ele>
				<time>2025-07-28T23:14:07.817Z</time>
			</trkpt>
			<trkpt lat="47.77076" lon="15.27348">
				<ele>814.38</ele>
				<time>2025-07-28T23:14:08.874Z</time>
			</trkpt>
			<trkpt lat="47.77066" lon="15.27319">
				<ele>814.12</ele>
				<time>2025-07-28T23:14:10.193Z</time>
			</trkpt>
			<trkpt lat="47.77059" lon="15.27307">
				<ele>813.89</ele>
				<time>2025-07-28T23:14:10.836Z</time>
			</trkpt>
			<trkpt lat="47.77005" lon="15.27219">
				<ele>814.53</ele>
				<time>2025-07-28T23:14:15.635Z</time>
			</trkpt>
			<trkpt lat="47.76985" lon="15.27174">
				<ele>812.11</ele>
				<time>2025-07-28T23:14:17.799Z</time>
			</trkpt>
			<trkpt lat="47.76969" lon="15.27118">
				<ele>814.58</ele>
				<time>2025-07-28T23:14:20.233Z</time>
			</trkpt>
			<trkpt lat="47.76963" lon="15.27084">
				<ele>815.78</ele>
				<time>2025-07-28T23:14:21.636Z</time>
			</trkpt>
			<trkpt lat="47.76958" lon="15.27018">
				<ele>817.51</ele>
				<time>2025-07-28T23:14:24.280Z</time>
			</trkpt>
			<trkpt lat="47.76958" lon="15.26983">
				<ele>817.59</ele>
				<time>2025-07-28T23:14:25.670Z</time>
			</trkpt>
			<trkpt lat="47.76962" lon="15.26944">
				<ele>818.11</ele>
				<time>2025-07-28T23:14:27.234Z</time>
			</trkpt>
			<trkpt lat="47.7697" lon="15.26904">
				<ele>818.36</ele>
				<time>2025-07-28T23:14:28.886Z</time>
			</trkpt>
			<trkpt lat="47.77009" lon="15.26772">
				<ele>817.07</ele>
				<time>2025-07-28T23:14:34.570Z</time>
			</trkpt>
			<trkpt lat="47.7702" lon="15.26726">
				<ele>816.72</ele>
				<time>2025-07-28T23:14:36.486Z</time>
			</trkpt>
			<trkpt lat="47.77029" lon="15.2668">
				<ele>816.78</ele>
				<time>2025-07-28T23:14:38.363Z</time>
			</trkpt>
			<trkpt lat="47.77038" lon="15.2661">
				<ele>816.88</ele>
				<time>2025-07-28T23:14:41.149Z</time>
			</trkpt>
			<trkpt lat="47.77054" lon="15.26361">
				<ele>826.26</ele>
				<time>2025-07-28T23:14:50.866Z</time>
			</trkpt>
			<trkpt lat="47.77058" lon="15.26332">
				<ele>830.35</ele>
				<time>2025-07-28T23:14:52.010Z</time>
			</trkpt>
			<trkpt lat="47.77069" lon="15.2629">
				<ele>835.98</ele>
				<time>2025-07-28T23:14:53.750Z</time>
			</trkpt>
			<trkpt lat="47.77092" lon="15.26237">
				<ele>838.48</ele>
				<time>2025-07-28T23:14:56.181Z</time>
			</trkpt>
			<trkpt lat="47.77121" lon="15.26176">
				<ele>835</ele>
				<time>2025-07-28T23:14:59.053Z</time>
			</trkpt>
			<trkpt lat="47.77155" lon="15.26117">
				<ele>836.35</ele>
				<time>2025-07-28T23:15:02.034Z</time>
			</trkpt>
			<trkpt lat="47.77252" lon="15.2598">
				<ele>828.22</ele>
				<time>2025-07-28T23:15:09.635Z</time>
			</trkpt>
			<trkpt lat="47.77272" lon="15.2594">
				<ele>829.29</ele>
				<time>2025-07-28T23:15:11.532Z</time>
			</trkpt>
			<trkpt lat="47.77282" lon="15.25914">
				<ele>829.84</ele>
				<time>2025-07-28T23:15:12.672Z</time>
			</trkpt>
			<trkpt lat="47.77292" lon="15.25869">
				<ele>829.41</ele>
				<time>2025-07-28T23:15:14.472Z</time>
			</trkpt>
			<trkpt lat="47.77296" lon="15.25846">
				<ele>829.15</ele>
				<time>2025-07-28T23:15:15.374Z</time>
			</trkpt>
			<trkpt lat="47.77308" lon="15.25702">
				<ele>833.22</ele>
				<time>2025-07-28T23:15:20.871Z</time>
			</trkpt>
			<trkpt lat="47.77451" lon="15.24896">
				<ele>839.1</ele>
				<time>2025-07-28T23:15:52.185Z</time>
			</trkpt>
			<trkpt lat="47.77461" lon="15.24847">
				<ele>839.8</ele>
				<time>2025-07-28T23:15:54.099Z</time>
			</trkpt>
			<trkpt lat="47.77466" lon="15.24826">
				<ele>840.22</ele>
				<time>2025-07-28T23:15:54.932Z</time>
			</trkpt>
			<trkpt lat="47.77476" lon="15.24793">
				<ele>840.33</ele>
				<time>2025-07-28T23:15:56.285Z</time>
			</trkpt>
			<trkpt lat="47.77488" lon="15.24765">
				<ele>838.39</ele>
				<time>2025-07-28T23:15:57.526Z</time>
			</trkpt>
			<trkpt lat="47.77498" lon="15.24745">
				<ele>837.23</ele>
				<time>2025-07-28T23:15:58.457Z</time>
			</trkpt>
			<trkpt lat="47.77508" lon="15.2473">
				<ele>838.23</ele>
				<time>2025-07-28T23:15:59.247Z</time>
			</trkpt>
			<trkpt lat="47.77534" lon="15.247">
				<ele>842.34</ele>
				<time>2025-07-28T23:16:01.076Z</time>
			</trkpt>
			<trkpt lat="47.77562" lon="15.24678">
				<ele>845.34</ele>
				<time>2025-07-28T23:16:02.836Z</time>
			</trkpt>
			<trkpt lat="47.77644" lon="15.24633">
				<ele>847.07</ele>
				<time>2025-07-28T23:16:07.693Z</time>
			</trkpt>
			<trkpt lat="47.77666" lon="15.2462">
				<ele>847.99</ele>
				<time>2025-07-28T23:16:09.009Z</time>
			</trkpt>
			<trkpt lat="47.77713" lon="15.24583">
				<ele>854.05</ele>
				<time>2025-07-28T23:16:11.965Z</time>
			</trkpt>
			<trkpt lat="47.77743" lon="15.24555">
				<ele>857.5</ele>
				<time>2025-07-28T23:16:13.935Z</time>
			</trkpt>
			<trkpt lat="47.77754" lon="15.2454">
				<ele>858.53</ele>
				<time>2025-07-28T23:16:14.764Z</time>
			</trkpt>
			<trkpt lat="47.77765" lon="15.2452">
				<ele>859.13</ele>
				<time>2025-07-28T23:16:15.730Z</time>
			</trkpt>
			<trkpt lat="47.77806" lon="15.24415">
				<ele>860.08</ele>
				<time>2025-07-28T23:16:20.272Z</time>
			</trkpt>
			<trkpt lat="47.77825" lon="15.2438">
				<ele>861.08</ele>
				<time>2025-07-28T23:16:21.956Z</time>
			</trkpt>
			<trkpt lat="47.77852" lon="15.24348">
				<ele>860.9</ele>
				<time>2025-07-28T23:16:23.879Z</time>
			</trkpt>
			<trkpt lat="47.7803" lon="15.24172">
				<ele>859.77</ele>
				<time>2025-07-28T23:16:35.810Z</time>
			</trkpt>
			<trkpt lat="47.78047" lon="15.24161">
				<ele>860.19</ele>
				<time>2025-07-28T23:16:36.847Z</time>
			</trkpt>
			<trkpt lat="47.78058" lon="15.24158">
				<ele>860.37</ele>
				<time>2025-07-28T23:16:37.473Z</time>
			</trkpt>
			<trkpt lat="47.78067" lon="15.2416">
				<ele>860.64</ele>
				<time>2025-07-28T23:16:37.983Z</time>
			</trkpt>
			<trkpt lat="47.78076" lon="15.24165">
				<ele>860.8</ele>
				<time>2025-07-28T23:16:38.521Z</time>
			</trkpt>
			<trkpt lat="47.78085" lon="15.24175">
				<ele>861.51</ele>
				<time>2025-07-28T23:16:39.150Z</time>
			</trkpt>
			<trkpt lat="47.78093" lon="15.24188">
				<ele>862.36</ele>
				<time>2025-07-28T23:16:39.814Z</time>
			</trkpt>
			<trkpt lat="47.78105" lon="15.24217">
				<ele>862.78</ele>
				<time>2025-07-28T23:16:41.097Z</time>
			</trkpt>
			<trkpt lat="47.7811" lon="15.24235">
				<ele>863.46</ele>
				<time>2025-07-28T23:16:41.831Z</time>
			</trkpt>
			<trkpt lat="47.78115" lon="15.24258">
				<ele>864.74</ele>
				<time>2025-07-28T23:16:42.742Z</time>
			</trkpt>
			<trkpt lat="47.78117" lon="15.24282">
				<ele>865.75</ele>
				<time>2025-07-28T23:16:43.655Z</time>
			</trkpt>
			<trkpt lat="47.78118" lon="15.24309">
				<ele>866.1</ele>
				<time>2025-07-28T23:16:44.675Z</time>
			</trkpt>
			<trkpt lat="47.78114" lon="15.24351">
				<ele>865.66</ele>
				<time>2025-07-28T23:16:46.278Z</time>
			</trkpt>
			<trkpt lat="47.78106" lon="15.24389">
				<ele>863.65</ele>
				<time>2025-07-28T23:16:47.783Z</time>
			</trkpt>
			<trkpt lat="47.78049" lon="15.24566">
				<ele>855.62</ele>
				<time>2025-07-28T23:16:55.222Z</time>
			</trkpt>
			<trkpt lat="47.78039" lon="15.24608">
				<ele>855.79</ele>
				<time>2025-07-28T23:16:56.916Z</time>
			</trkpt>
			<trkpt lat="47.78036" lon="15.24635">
				<ele>856.53</ele>
				<time>2025-07-28T23:16:57.957Z</time>
			</trkpt>
			<trkpt lat="47.78036" lon="15.2466">
				<ele>856.64</ele>
				<time>2025-07-28T23:16:58.909Z</time>
			</trkpt>
			<trkpt lat="47.78041" lon="15.24735">
				<ele>857.98</ele>
				<time>2025-07-28T23:17:01.782Z</time>
			</trkpt>
			<trkpt lat="47.78041" lon="15.24764">
				<ele>858.75</ele>
				<time>2025-07-28T23:17:02.889Z</time>
			</trkpt>
			<trkpt lat="47.78038" lon="15.248">
				<ele>860</ele>
				<time>2025-07-28T23:17:04.275Z</time>
			</trkpt>
			<trkpt lat="47.78024" lon="15.2487">
				<ele>866</ele>
				<time>2025-07-28T23:17:07.071Z</time>
			</trkpt>
			<trkpt lat="47.78023" lon="15.24891">
				<ele>867.8</ele>
				<time>2025-07-28T23:17:07.878Z</time>
			</trkpt>
			<trkpt lat="47.78025" lon="15.24907">
				<ele>868.65</ele>
				<time>2025-07-28T23:17:08.502Z</time>
			</trkpt>
			<trkpt lat="47.78028" lon="15.24915">
				<ele>868.8</ele>
				<time>2025-07-28T23:17:08.853Z</time>
			</trkpt>
			<trkpt lat="47.7804" lon="15.24935">
				<ele>868.77</ele>
				<time>2025-07-28T23:17:09.882Z</time>
			</trkpt>
			<trkpt lat="47.78055" lon="15.24946">
				<ele>867.25</ele>
				<time>2025-07-28T23:17:10.839Z</time>
			</trkpt>
			<trkpt lat="47.78088" lon="15.24955">
				<ele>871.17</ele>
				<time>2025-07-28T23:17:12.759Z</time>
			</trkpt>
			<trkpt lat="47.78108" lon="15.24965">
				<ele>873.34</ele>
				<time>2025-07-28T23:17:13.968Z</time>
			</trkpt>
			<trkpt lat="47.7812" lon="15.24977">
				<ele>874.82</ele>
				<time>2025-07-28T23:17:14.798Z</time>
			</trkpt>
			<trkpt lat="47.78132" lon="15.24991">
				<ele>876.33</ele>
				<time>2025-07-28T23:17:15.673Z</time>
			</trkpt>
			<trkpt lat="47.78154" lon="15.25028">
				<ele>878.47</ele>
				<time>2025-07-28T23:17:17.581Z</time>
			</trkpt>
			<trkpt lat="47.78162" lon="15.25034">
				<ele>878.7</ele>
				<time>2025-07-28T23:17:18.097Z</time>
			</trkpt>
			<trkpt lat="47.78178" lon="15.2503">
				<ele>875.97</ele>
				<time>2025-07-28T23:17:19.031Z</time>
			</trkpt>
			<trkpt lat="47.78157" lon="15.24949">
				<ele>876.83</ele>
				<time>2025-07-28T23:17:22.397Z</time>
			</trkpt>
			<trkpt lat="47.78148" lon="15.24905">
				<ele>876.52</ele>
				<time>2025-07-28T23:17:24.185Z</time>
			</trkpt>
			<trkpt lat="47.78145" lon="15.24872">
				<ele>875.52</ele>
				<time>2025-07-28T23:17:25.481Z</time>
			</trkpt>
			<trkpt lat="47.78149" lon="15.24829">
				<ele>877.92</ele>
				<time>2025-07-28T23:17:27.173Z</time>
			</trkpt>
			<trkpt lat="47.78154" lon="15.24784">
				<ele>883.09</ele>
				<time>2025-07-28T23:17:28.954Z</time>
			</trkpt>
			<trkpt lat="47.78154" lon="15.24752">
				<ele>887.86</ele>
				<time>2025-07-28T23:17:30.206Z</time>
			</trkpt>
			<trkpt lat="47.78149" lon="15.24724">
				<ele>891.24</ele>
				<time>2025-07-28T23:17:31.340Z</time>
			</trkpt>
			<trkpt lat="47.78134" lon="15.24685">
				<ele>889.87</ele>
				<time>2025-07-28T23:17:33.102Z</time>
			</trkpt>
			<trkpt lat="47.78131" lon="15.24661">
				<ele>890.06</ele>
				<time>2025-07-28T23:17:34.061Z</time>
			</trkpt>
			<trkpt lat="47.78133" lon="15.24602">
				<ele>890.43</ele>
				<time>2025-07-28T23:17:36.385Z</time>
			</trkpt>
			<trkpt lat="47.78134" lon="15.24592">
				<ele>890.11</ele>
				<time>2025-07-28T23:17:36.783Z</time>
			</trkpt>
			<trkpt lat="47.7814" lon="15.24576">
				<ele>890.26</ele>
				<time>2025-07-28T23:17:37.505Z</time>
			</trkpt>
			<trkpt lat="47.78148" lon="15.24563">
				<ele>890.05</ele>
				<time>2025-07-28T23:17:38.200Z</time>
			</trkpt>
			<trkpt lat="47.78158" lon="15.24554">
				<ele>890.64</ele>
				<time>2025-07-28T23:17:38.884Z</time>
			</trkpt>
			<trkpt lat="47.78192" lon="15.2454">
				<ele>891.06</ele>
				<time>2025-07-28T23:17:40.950Z</time>
			</trkpt>
			<trkpt lat="47.78229" lon="15.24517">
				<ele>891.01</ele>
				<time>2025-07-28T23:17:43.295Z</time>
			</trkpt>
			<trkpt lat="47.78247" lon="15.24513">
				<ele>894.16</ele>
				<time>2025-07-28T23:17:44.358Z</time>
			</trkpt>
			<trkpt lat="47.7828" lon="15.24517">
				<ele>900.09</ele>
				<time>2025-07-28T23:17:46.291Z</time>
			</trkpt>
			<trkpt lat="47.78291" lon="15.24513">
				<ele>900.38</ele>
				<time>2025-07-28T23:17:46.952Z</time>
			</trkpt>
			<trkpt lat="47.78301" lon="15.24504">
				<ele>900.13</ele>
				<time>2025-07-28T23:17:47.634Z</time>
			</trkpt>
			<trkpt lat="47.78307" lon="15.24495">
				<ele>900.32</ele>
				<time>2025-07-28T23:17:48.130Z</time>
			</trkpt>
			<trkpt lat="47.78314" lon="15.24473">
				<ele>901.58</ele>
				<time>2025-07-28T23:17:49.084Z</time>
			</trkpt>
			<trkpt lat="47.78317" lon="15.24456">
				<ele>904.81</ele>
				<time>2025-07-28T23:17:49.772Z</time>
			</trkpt>
			<trkpt lat="47.78321" lon="15.24424">
				<ele>911.72</ele>
				<time>2025-07-28T23:17:51.045Z</time>
			</trkpt>
			<trkpt lat="47.78323" lon="15.24388">
				<ele>917.59</ele>
				<time>2025-07-28T23:17:52.458Z</time>
			</trkpt>
			<trkpt lat="47.78317" lon="15.24277">
				<ele>923.91</ele>
				<time>2025-07-28T23:17:56.805Z</time>
			</trkpt>
			<trkpt lat="47.7831" lon="15.24216">
				<ele>921.78</ele>
				<time>2025-07-28T23:17:59.217Z</time>
			</trkpt>
			<trkpt lat="47.78311" lon="15.24207">
				<ele>921.32</ele>
				<time>2025-07-28T23:17:59.573Z</time>
			</trkpt>
			<trkpt lat="47.78314" lon="15.24198">
				<ele>921.53</ele>
				<time>2025-07-28T23:17:59.964Z</time>
			</trkpt>
			<trkpt lat="47.78326" lon="15.24184">
				<ele>922.88</ele>
				<time>2025-07-28T23:18:00.847Z</time>
			</trkpt>
			<trkpt lat="47.78338" lon="15.24177">
				<ele>924.68</ele>
				<time>2025-07-28T23:18:01.593Z</time>
			</trkpt>
			<trkpt lat="47.78396" lon="15.24154">
				<ele>932.32</ele>
				<time>2025-07-28T23:18:05.065Z</time>
			</trkpt>
			<trkpt lat="47.7848" lon="15.24126">
				<ele>942.05</ele>
				<time>2025-07-28T23:18:10.034Z</time>
			</trkpt>
			<trkpt lat="47.78513" lon="15.24113">
				<ele>944.6</ele>
				<time>2025-07-28T23:18:12.001Z</time>
			</trkpt>
			<trkpt lat="47.78526" lon="15.24107">
				<ele>946.38</ele>
				<time>2025-07-28T23:18:12.784Z</time>
			</trkpt>
			<trkpt lat="47.78534" lon="15.241">
				<ele>947.9</ele>
				<time>2025-07-28T23:18:13.318Z</time>
			</trkpt>
			<trkpt lat="47.78541" lon="15.24084">
				<ele>949.12</ele>
				<time>2025-07-28T23:18:14.056Z</time>
			</trkpt>
			<trkpt lat="47.78544" lon="15.24064">
				<ele>951.39</ele>
				<time>2025-07-28T23:18:14.848Z</time>
			</trkpt>
			<trkpt lat="47.78539" lon="15.24044">
				<ele>953.82</ele>
				<time>2025-07-28T23:18:15.673Z</time>
			</trkpt>
			<trkpt lat="47.78531" lon="15.24028">
				<ele>955.74</ele>
				<time>2025-07-28T23:18:16.443Z</time>
			</trkpt>
			<trkpt lat="47.78512" lon="15.23998">
				<ele>958.42</ele>
				<time>2025-07-28T23:18:18.034Z</time>
			</trkpt>
			<trkpt lat="47.78499" lon="15.23984">
				<ele>959.31</ele>
				<time>2025-07-28T23:18:18.955Z</time>
			</trkpt>
			<trkpt lat="47.78483" lon="15.2397">
				<ele>957.51</ele>
				<time>2025-07-28T23:18:20.020Z</time>
			</trkpt>
			<trkpt lat="47.78469" lon="15.23963">
				<ele>955.77</ele>
				<time>2025-07-28T23:18:20.866Z</time>
			</trkpt>
			<trkpt lat="47.78434" lon="15.23951">
				<ele>955.44</ele>
				<time>2025-07-28T23:18:22.924Z</time>
			</trkpt>
			<trkpt lat="47.784" lon="15.23925">
				<ele>953.83</ele>
				<time>2025-07-28T23:18:25.112Z</time>
			</trkpt>
			<trkpt lat="47.78393" lon="15.23918">
				<ele>953.12</ele>
				<time>2025-07-28T23:18:25.595Z</time>
			</trkpt>
			<trkpt lat="47.78381" lon="15.23898">
				<ele>954.09</ele>
				<time>2025-07-28T23:18:26.625Z</time>
			</trkpt>
			<trkpt lat="47.78379" lon="15.23884">
				<ele>956.18</ele>
				<time>2025-07-28T23:18:27.175Z</time>
			</trkpt>
			<trkpt lat="47.78381" lon="15.23872">
				<ele>958.15</ele>
				<time>2025-07-28T23:18:27.649Z</time>
			</trkpt>
			<trkpt lat="47.78388" lon="15.23848">
				<ele>963.33</ele>
				<time>2025-07-28T23:18:28.653Z</time>
			</trkpt>
			<trkpt lat="47.78404" lon="15.23807">
				<ele>968.53</ele>
				<time>2025-07-28T23:18:30.472Z</time>
			</trkpt>
			<trkpt lat="47.78427" lon="15.23752">
				<ele>973.22</ele>
				<time>2025-07-28T23:18:32.954Z</time>
			</trkpt>
			<trkpt lat="47.78447" lon="15.23712">
				<ele>980.97</ele>
				<time>2025-07-28T23:18:34.862Z</time>
			</trkpt>
			<trkpt lat="47.78452" lon="15.23698">
				<ele>983.48</ele>
				<time>2025-07-28T23:18:35.468Z</time>
			</trkpt>
			<trkpt lat="47.78455" lon="15.23682">
				<ele>984.51</ele>
				<time>2025-07-28T23:18:36.103Z</time>
			</trkpt>
			<trkpt lat="47.78456" lon="15.23647">
				<ele>983.58</ele>
				<time>2025-07-28T23:18:37.442Z</time>
			</trkpt>
			<trkpt lat="47.7846" lon="15.23624">
				<ele>983.71</ele>
				<time>2025-07-28T23:18:38.350Z</time>
			</trkpt>
			<trkpt lat="47.78497" lon="15.23476">
				<ele>990.96</ele>
				<time>2025-07-28T23:18:44.370Z</time>
			</trkpt>
			<trkpt lat="47.78506" lon="15.23446">
				<ele>991.12</ele>
				<time>2025-07-28T23:18:45.621Z</time>
			</trkpt>
			<trkpt lat="47.78516" lon="15.23422">
				<ele>993.02</ele>
				<time>2025-07-28T23:18:46.695Z</time>
			</trkpt>
			<trkpt lat="47.7855" lon="15.23363">
				<ele>1005.92</ele>
				<time>2025-07-28T23:18:49.649Z</time>
			</trkpt>
			<trkpt lat="47.78564" lon="15.23331">
				<ele>1009.24</ele>
				<time>2025-07-28T23:18:51.098Z</time>
			</trkpt>
			<trkpt lat="47.78577" lon="15.23284">
				<ele>1014.26</ele>
				<time>2025-07-28T23:18:53.026Z</time>
			</trkpt>
			<trkpt lat="47.78584" lon="15.23217">
				<ele>1020.09</ele>
				<time>2025-07-28T23:18:55.595Z</time>
			</trkpt>
			<trkpt lat="47.7859" lon="15.23193">
				<ele>1020.06</ele>
				<time>2025-07-28T23:18:56.564Z</time>
			</trkpt>
			<trkpt lat="47.78602" lon="15.23165">
				<ele>1018.98</ele>
				<time>2025-07-28T23:18:57.821Z</time>
			</trkpt>
			<trkpt lat="47.78633" lon="15.2313">
				<ele>1020.78</ele>
				<time>2025-07-28T23:19:00.010Z</time>
			</trkpt>
			<trkpt lat="47.78653" lon="15.231">
				<ele>1026.31</ele>
				<time>2025-07-28T23:19:01.606Z</time>
			</trkpt>
			<trkpt lat="47.78667" lon="15.23067">
				<ele>1032.12</ele>
				<time>2025-07-28T23:19:03.079Z</time>
			</trkpt>
			<trkpt lat="47.78677" lon="15.23034">
				<ele>1038.29</ele>
				<time>2025-07-28T23:19:04.445Z</time>
			</trkpt>
			<trkpt lat="47.78696" lon="15.22954">
				<ele>1048.46</ele>
				<time>2025-07-28T23:19:07.641Z</time>
			</trkpt>
			<trkpt lat="47.78705" lon="15.22902">
				<ele>1053.01</ele>
				<time>2025-07-28T23:19:09.662Z</time>
			</trkpt>
			<trkpt lat="47.78711" lon="15.22848">
				<ele>1054.44</ele>
				<time>2025-07-28T23:19:11.719Z</time>
			</trkpt>
			<trkpt lat="47.78715" lon="15.22714">
				<ele>1058.28</ele>
				<time>2025-07-28T23:19:16.753Z</time>
			</trkpt>
			<trkpt lat="47.78721" lon="15.22687">
				<ele>1060.05</ele>
				<time>2025-07-28T23:19:17.818Z</time>
			</trkpt>
			<trkpt lat="47.78734" lon="15.22656">
				<ele>1063.36</ele>
				<time>2025-07-28T23:19:19.187Z</time>
			</trkpt>
			<trkpt lat="47.78743" lon="15.22642">
				<ele>1065.77</ele>
				<time>2025-07-28T23:19:19.912Z</time>
			</trkpt>
			<trkpt lat="47.78807" lon="15.22585">
				<ele>1075.36</ele>
				<time>2025-07-28T23:19:24.063Z</time>
			</trkpt>
			<trkpt lat="47.78821" lon="15.2257">
				<ele>1078.43</ele>
				<time>2025-07-28T23:19:25.022Z</time>
			</trkpt>
			<trkpt lat="47.78844" lon="15.22533">
				<ele>1081.51</ele>
				<time>2025-07-28T23:19:26.903Z</time>
			</trkpt>
			<trkpt lat="47.78871" lon="15.22483">
				<ele>1082.68</ele>
				<time>2025-07-28T23:19:29.295Z</time>
			</trkpt>
			<trkpt lat="47.78892" lon="15.22432">
				<ele>1086.3</ele>
				<time>2025-07-28T23:19:31.522Z</time>
			</trkpt>
			<trkpt lat="47.78945" lon="15.22251">
				<ele>1090.53</ele>
				<time>2025-07-28T23:19:38.860Z</time>
			</trkpt>
			<trkpt lat="47.78958" lon="15.22199">
				<ele>1092.36</ele>
				<time>2025-07-28T23:19:40.917Z</time>
			</trkpt>
			<trkpt lat="47.7898" lon="15.22062">
				<ele>1093.61</ele>
				<time>2025-07-28T23:19:46.132Z</time>
			</trkpt>
			<trkpt lat="47.79002" lon="15.21929">
				<ele>1100.44</ele>
				<time>2025-07-28T23:19:51.192Z</time>
			</trkpt>
			<trkpt lat="47.79007" lon="15.21909">
				<ele>1103.15</ele>
				<time>2025-07-28T23:19:51.979Z</time>
			</trkpt>
			<trkpt lat="47.79015" lon="15.21884">
				<ele>1106.42</ele>
				<time>2025-07-28T23:19:53.000Z</time>
			</trkpt>
			<trkpt lat="47.79046" lon="15.21809">
				<ele>1108.57</ele>
				<time>2025-07-28T23:19:56.244Z</time>
			</trkpt>
			<trkpt lat="47.79089" lon="15.2172">
				<ele>1120.81</ele>
				<time>2025-07-28T23:20:00.276Z</time>
			</trkpt>
			<trkpt lat="47.79102" lon="15.21685">
				<ele>1124.47</ele>
				<time>2025-07-28T23:20:01.745Z</time>
			</trkpt>
			<trkpt lat="47.79117" lon="15.21637">
				<ele>1127.59</ele>
				<time>2025-07-28T23:20:03.688Z</time>
			</trkpt>
			<trkpt lat="47.79129" lon="15.21576">
				<ele>1125.39</ele>
				<time>2025-07-28T23:20:06.019Z</time>
			</trkpt>
			<trkpt lat="47.79138" lon="15.21542">
				<ele>1123.99</ele>
				<time>2025-07-28T23:20:07.359Z</time>
			</trkpt>
			<trkpt lat="47.79174" lon="15.21464">
				<ele>1125.91</ele>
				<time>2025-07-28T23:20:10.823Z</time>
			</trkpt>
			<trkpt lat="47.79285" lon="15.21237">
				<ele>1106.47</ele>
				<time>2025-07-28T23:20:21.071Z</time>
			</trkpt>
			<trkpt lat="47.79362" lon="15.2112">
				<ele>1095.05</ele>
				<time>2025-07-28T23:20:27.029Z</time>
			</trkpt>
			<trkpt lat="47.79383" lon="15.21085">
				<ele>1092.05</ele>
				<time>2025-07-28T23:20:28.733Z</time>
			</trkpt>
			<trkpt lat="47.79412" lon="15.21029">
				<ele>1087.69</ele>
				<time>2025-07-28T23:20:31.299Z</time>
			</trkpt>
			<trkpt lat="47.79424" lon="15.20998">
				<ele>1083.59</ele>
				<time>2025-07-28T23:20:32.596Z</time>
			</trkpt>
			<trkpt lat="47.79488" lon="15.20814">
				<ele>1072.98</ele>
				<time>2025-07-28T23:20:40.095Z</time>
			</trkpt>
			<trkpt lat="47.79579" lon="15.20511">
				<ele>1069.75</ele>
				<time>2025-07-28T23:20:52.061Z</time>
			</trkpt>
			<trkpt lat="47.79586" lon="15.2047">
				<ele>1068.52</ele>
				<time>2025-07-28T23:20:53.582Z</time>
			</trkpt>
			<trkpt lat="47.79594" lon="15.20388">
				<ele>1066.82</ele>
				<time>2025-07-28T23:20:56.559Z</time>
			</trkpt>
			<trkpt lat="47.79595" lon="15.2034">
				<ele>1065.22</ele>
				<time>2025-07-28T23:20:58.282Z</time>
			</trkpt>
			<trkpt lat="47.79591" lon="15.20307">
				<ele>1064.73</ele>
				<time>2025-07-28T23:20:59.485Z</time>
			</trkpt>
			<trkpt lat="47.79534" lon="15.20065">
				<ele>1053.09</ele>
				<time>2025-07-28T23:21:08.667Z</time>
			</trkpt>
			<trkpt lat="47.79523" lon="15.20029">
				<ele>1053.16</ele>
				<time>2025-07-28T23:21:10.080Z</time>
			</trkpt>
			<trkpt lat="47.79515" lon="15.20012">
				<ele>1054.04</ele>
				<time>2025-07-28T23:21:10.821Z</time>
			</trkpt>
			<trkpt lat="47.79499" lon="15.19988">
				<ele>1054.03</ele>
				<time>2025-07-28T23:21:12.028Z</time>
			</trkpt>
			<trkpt lat="47.79482" lon="15.19965">
				<ele>1054.33</ele>
				<time>2025-07-28T23:21:13.249Z</time>
			</trkpt>
			<trkpt lat="47.79444" lon="15.19926">
				<ele>1053.68</ele>
				<time>2025-07-28T23:21:15.699Z</time>
			</trkpt>
			<trkpt lat="47.79429" lon="15.19907">
				<ele>1053.18</ele>
				<time>2025-07-28T23:21:16.744Z</time>
			</trkpt>
			<trkpt lat="47.79421" lon="15.19893">
				<ele>1051.72</ele>
				<time>2025-07-28T23:21:17.399Z</time>
			</trkpt>
			<trkpt lat="47.79378" lon="15.19796">
				<ele>1049.73</ele>
				<time>2025-07-28T23:21:21.536Z</time>
			</trkpt>
			<trkpt lat="47.7936" lon="15.19768">
				<ele>1048.66</ele>
				<time>2025-07-28T23:21:22.915Z</time>
			</trkpt>
			<trkpt lat="47.79319" lon="15.19728">
				<ele>1046.14</ele>
				<time>2025-07-28T23:21:25.508Z</time>
			</trkpt>
			<trkpt lat="47.79249" lon="15.19667">
				<ele>1041.01</ele>
				<time>2025-07-28T23:21:29.794Z</time>
			</trkpt>
			<trkpt lat="47.79229" lon="15.19642">
				<ele>1038.88</ele>
				<time>2025-07-28T23:21:31.173Z</time>
			</trkpt>
			<trkpt lat="47.79214" lon="15.19618">
				<ele>1038.67</ele>
				<time>2025-07-28T23:21:32.335Z</time>
			</trkpt>
			<trkpt lat="47.79203" lon="15.19593">
				<ele>1038.71</ele>
				<time>2025-07-28T23:21:33.394Z</time>
			</trkpt>
			<trkpt lat="47.7919" lon="15.19558">
				<ele>1037.02</ele>
				<time>2025-07-28T23:21:34.810Z</time>
			</trkpt>
			<trkpt lat="47.79184" lon="15.19532">
				<ele>1035.26</ele>
				<time>2025-07-28T23:21:35.784Z</time>
			</trkpt>
			<trkpt lat="47.79169" lon="15.19423">
				<ele>1033.81</ele>
				<time>2025-07-28T23:21:39.720Z</time>
			</trkpt>
			<trkpt lat="47.79164" lon="15.19405">
				<ele>1035.17</ele>
				<time>2025-07-28T23:21:40.408Z</time>
			</trkpt>
			<trkpt lat="47.79153" lon="15.1938">
				<ele>1037.72</ele>
				<time>2025-07-28T23:21:41.464Z</time>
			</trkpt>
			<trkpt lat="47.79133" lon="15.19347">
				<ele>1038.92</ele>
				<time>2025-07-28T23:21:43.034Z</time>
			</trkpt>
			<trkpt lat="47.79095" lon="15.19307">
				<ele>1034.11</ele>
				<time>2025-07-28T23:21:45.479Z</time>
			</trkpt>
			<trkpt lat="47.79031" lon="15.19248">
				<ele>1033.64</ele>
				<time>2025-07-28T23:21:49.431Z</time>
			</trkpt>
			<trkpt lat="47.79012" lon="15.19234">
				<ele>1032.35</ele>
				<time>2025-07-28T23:21:50.542Z</time>
			</trkpt>
			<trkpt lat="47.78991" lon="15.19222">
				<ele>1030.4</ele>
				<time>2025-07-28T23:21:51.722Z</time>
			</trkpt>
			<trkpt lat="47.78942" lon="15.19205">
				<ele>1028.71</ele>
				<time>2025-07-28T23:21:54.357Z</time>
			</trkpt>
			<trkpt lat="47.78934" lon="15.19199">
				<ele>1029.41</ele>
				<time>2025-07-28T23:21:54.827Z</time>
			</trkpt>
			<trkpt lat="47.78927" lon="15.19187">
				<ele>1030.95</ele>
				<time>2025-07-28T23:21:55.386Z</time>
			</trkpt>
			<trkpt lat="47.78925" lon="15.19172">
				<ele>1032.68</ele>
				<time>2025-07-28T23:21:55.923Z</time>
			</trkpt>
			<trkpt lat="47.78931" lon="15.19153">
				<ele>1034.66</ele>
				<time>2025-07-28T23:21:56.662Z</time>
			</trkpt>
			<trkpt lat="47.78965" lon="15.19092">
				<ele>1031.75</ele>
				<time>2025-07-28T23:21:59.447Z</time>
			</trkpt>
			<trkpt lat="47.78976" lon="15.19069">
				<ele>1027.54</ele>
				<time>2025-07-28T23:22:00.438Z</time>
			</trkpt>
			<trkpt lat="47.78981" lon="15.1904">
				<ele>1023.18</ele>
				<time>2025-07-28T23:22:01.490Z</time>
			</trkpt>
			<trkpt lat="47.78981" lon="15.18991">
				<ele>1021.61</ele>
				<time>2025-07-28T23:22:03.209Z</time>
			</trkpt>
			<trkpt lat="47.78979" lon="15.18965">
				<ele>1022.08</ele>
				<time>2025-07-28T23:22:04.127Z</time>
			</trkpt>
			<trkpt lat="47.78963" lon="15.18869">
				<ele>1023.39</ele>
				<time>2025-07-28T23:22:07.595Z</time>
			</trkpt>
			<trkpt lat="47.78955" lon="15.18835">
				<ele>1020.61</ele>
				<time>2025-07-28T23:22:08.857Z</time>
			</trkpt>
			<trkpt lat="47.78948" lon="15.18817">
				<ele>1020.37</ele>
				<time>2025-07-28T23:22:09.585Z</time>
			</trkpt>
			<trkpt lat="47.78937" lon="15.18798">
				<ele>1020.57</ele>
				<time>2025-07-28T23:22:10.463Z</time>
			</trkpt>
			<trkpt lat="47.78861" lon="15.18705">
				<ele>1012.79</ele>
				<time>2025-07-28T23:22:15.586Z</time>
			</trkpt>
			<trkpt lat="47.78841" lon="15.18675">
				<ele>1009.84</ele>
				<time>2025-07-28T23:22:17.063Z</time>
			</trkpt>
			<trkpt lat="47.78831" lon="15.18658">
				<ele>1006.15</ele>
				<time>2025-07-28T23:22:17.852Z</time>
			</trkpt>
			<trkpt lat="47.78825" lon="15.18642">
				<ele>1003.24</ele>
				<time>2025-07-28T23:22:18.492Z</time>
			</trkpt>
			<trkpt lat="47.7882" lon="15.18624">
				<ele>1001.71</ele>
				<time>2025-07-28T23:22:19.173Z</time>
			</trkpt>
			<trkpt lat="47.78819" lon="15.18609">
				<ele>1000.52</ele>
				<time>2025-07-28T23:22:19.699Z</time>
			</trkpt>
			<trkpt lat="47.78822" lon="15.18581">
				<ele>1000.64</ele>
				<time>2025-07-28T23:22:20.689Z</time>
			</trkpt>
			<trkpt lat="47.7883" lon="15.18551">
				<ele>1001.04</ele>
				<time>2025-07-28T23:22:21.815Z</time>
			</trkpt>
			<trkpt lat="47.78843" lon="15.1852">
				<ele>1003.19</ele>
				<time>2025-07-28T23:22:23.090Z</time>
			</trkpt>
			<trkpt lat="47.78872" lon="15.18468">
				<ele>1002.23</ele>
				<time>2025-07-28T23:22:25.446Z</time>
			</trkpt>
			<trkpt lat="47.78889" lon="15.18433">
				<ele>1001.41</ele>
				<time>2025-07-28T23:22:26.951Z</time>
			</trkpt>
			<trkpt lat="47.78937" lon="15.18299">
				<ele>1006.77</ele>
				<time>2025-07-28T23:22:32.238Z</time>
			</trkpt>
			<trkpt lat="47.78963" lon="15.18218">
				<ele>998.02</ele>
				<time>2025-07-28T23:22:35.360Z</time>
			</trkpt>
			<trkpt lat="47.78965" lon="15.18205">
				<ele>996.52</ele>
				<time>2025-07-28T23:22:35.823Z</time>
			</trkpt>
			<trkpt lat="47.78964" lon="15.18151">
				<ele>993.59</ele>
				<time>2025-07-28T23:22:37.700Z</time>
			</trkpt>
			<trkpt lat="47.78975" lon="15.18083">
				<ele>985.38</ele>
				<time>2025-07-28T23:22:40.129Z</time>
			</trkpt>
			<trkpt lat="47.78985" lon="15.18064">
				<ele>984.44</ele>
				<time>2025-07-28T23:22:40.967Z</time>
			</trkpt>
			<trkpt lat="47.79025" lon="15.18012">
				<ele>992.85</ele>
				<time>2025-07-28T23:22:43.710Z</time>
			</trkpt>
			<trkpt lat="47.79066" lon="15.17972">
				<ele>998.6</ele>
				<time>2025-07-28T23:22:46.239Z</time>
			</trkpt>
			<trkpt lat="47.79093" lon="15.17945">
				<ele>994.1</ele>
				<time>2025-07-28T23:22:47.917Z</time>
			</trkpt>
			<trkpt lat="47.7911" lon="15.17921">
				<ele>989.71</ele>
				<time>2025-07-28T23:22:49.125Z</time>
			</trkpt>
			<trkpt lat="47.7912" lon="15.17904">
				<ele>992.49</ele>
				<time>2025-07-28T23:22:49.908Z</time>
			</trkpt>
			<trkpt lat="47.7913" lon="15.17879">
				<ele>998.11</ele>
				<time>2025-07-28T23:22:50.915Z</time>
			</trkpt>
			<trkpt lat="47.79151" lon="15.1781">
				<ele>1003.83</ele>
				<time>2025-07-28T23:22:53.537Z</time>
			</trkpt>
			<trkpt lat="47.79178" lon="15.17744">
				<ele>1001.66</ele>
				<time>2025-07-28T23:22:56.209Z</time>
			</trkpt>
			<trkpt lat="47.79192" lon="15.17689">
				<ele>989.82</ele>
				<time>2025-07-28T23:22:58.242Z</time>
			</trkpt>
			<trkpt lat="47.79203" lon="15.17632">
				<ele>986.58</ele>
				<time>2025-07-28T23:23:00.291Z</time>
			</trkpt>
			<trkpt lat="47.79207" lon="15.17536">
				<ele>979.05</ele>
				<time>2025-07-28T23:23:03.612Z</time>
			</trkpt>
			<trkpt lat="47.79212" lon="15.17506">
				<ele>975.11</ele>
				<time>2025-07-28T23:23:04.678Z</time>
			</trkpt>
			<trkpt lat="47.79217" lon="15.17487">
				<ele>971.12</ele>
				<time>2025-07-28T23:23:05.382Z</time>
			</trkpt>
			<trkpt lat="47.79226" lon="15.17468">
				<ele>966.61</ele>
				<time>2025-07-28T23:23:06.184Z</time>
			</trkpt>
			<trkpt lat="47.79235" lon="15.17451">
				<ele>962.67</ele>
				<time>2025-07-28T23:23:06.931Z</time>
			</trkpt>
			<trkpt lat="47.79244" lon="15.1744">
				<ele>960.95</ele>
				<time>2025-07-28T23:23:07.528Z</time>
			</trkpt>
			<trkpt lat="47.79283" lon="15.17405">
				<ele>964.74</ele>
				<time>2025-07-28T23:23:09.865Z</time>
			</trkpt>
			<trkpt lat="47.79328" lon="15.17354">
				<ele>950.13</ele>
				<time>2025-07-28T23:23:12.766Z</time>
			</trkpt>
			<trkpt lat="47.79383" lon="15.17302">
				<ele>956.14</ele>
				<time>2025-07-28T23:23:16.105Z</time>
			</trkpt>
			<trkpt lat="47.79393" lon="15.17289">
				<ele>957.63</ele>
				<time>2025-07-28T23:23:16.785Z</time>
			</trkpt>
			<trkpt lat="47.79408" lon="15.17258">
				<ele>957.2</ele>
				<time>2025-07-28T23:23:18.099Z</time>
			</trkpt>
			<trkpt lat="47.79417" lon="15.17231">
				<ele>954.91</ele>
				<time>2025-07-28T23:23:19.136Z</time>
			</trkpt>
			<trkpt lat="47.79459" lon="15.16981">
				<ele>936.5</ele>
				<time>2025-07-28T23:23:27.990Z</time>
			</trkpt>
			<trkpt lat="47.79465" lon="15.16957">
				<ele>933.63</ele>
				<time>2025-07-28T23:23:28.870Z</time>
			</trkpt>
			<trkpt lat="47.79474" lon="15.16935">
				<ele>931.39</ele>
				<time>2025-07-28T23:23:29.754Z</time>
			</trkpt>
			<trkpt lat="47.79492" lon="15.16903">
				<ele>929.86</ele>
				<time>2025-07-28T23:23:31.186Z</time>
			</trkpt>
			<trkpt lat="47.79634" lon="15.1672">
				<ele>934.86</ele>
				<time>2025-07-28T23:23:40.769Z</time>
			</trkpt>
			<trkpt lat="47.79661" lon="15.16693">
				<ele>931.69</ele>
				<time>2025-07-28T23:23:42.427Z</time>
			</trkpt>
			<trkpt lat="47.79678" lon="15.16678">
				<ele>928.06</ele>
				<time>2025-07-28T23:23:43.434Z</time>
			</trkpt>
			<trkpt lat="47.79701" lon="15.16664">
				<ele>923.06</ele>
				<time>2025-07-28T23:23:44.700Z</time>
			</trkpt>
			<trkpt lat="47.79801" lon="15.16617">
				<ele>926.65</ele>
				<time>2025-07-28T23:23:50.040Z</time>
			</trkpt>
			<trkpt lat="47.7984" lon="15.16592">
				<ele>924.25</ele>
				<time>2025-07-28T23:23:52.200Z</time>
			</trkpt>
			<trkpt lat="47.79861" lon="15.16575">
				<ele>925.14</ele>
				<time>2025-07-28T23:23:53.417Z</time>
			</trkpt>
			<trkpt lat="47.79899" lon="15.16538">
				<ele>923.1</ele>
				<time>2025-07-28T23:23:55.726Z</time>
			</trkpt>
			<trkpt lat="47.79926" lon="15.16505">
				<ele>920.32</ele>
				<time>2025-07-28T23:23:57.502Z</time>
			</trkpt>
			<trkpt lat="47.79947" lon="15.16476">
				<ele>920.15</ele>
				<time>2025-07-28T23:23:58.958Z</time>
			</trkpt>
			<trkpt lat="47.80001" lon="15.1639">
				<ele>930.51</ele>
				<time>2025-07-28T23:24:02.976Z</time>
			</trkpt>
			<trkpt lat="47.8002" lon="15.16358">
				<ele>936.41</ele>
				<time>2025-07-28T23:24:04.433Z</time>
			</trkpt>
			<trkpt lat="47.80031" lon="15.16333">
				<ele>937.91</ele>
				<time>2025-07-28T23:24:05.452Z</time>
			</trkpt>
			<trkpt lat="47.80038" lon="15.1631">
				<ele>936.18</ele>
				<time>2025-07-28T23:24:06.313Z</time>
			</trkpt>
			<trkpt lat="47.80049" lon="15.16252">
				<ele>930.43</ele>
				<time>2025-07-28T23:24:08.368Z</time>
			</trkpt>
			<trkpt lat="47.80059" lon="15.16219">
				<ele>929.06</ele>
				<time>2025-07-28T23:24:09.602Z</time>
			</trkpt>
			<trkpt lat="47.80069" lon="15.162">
				<ele>924.09</ele>
				<time>2025-07-28T23:24:10.425Z</time>
			</trkpt>
			<trkpt lat="47.80086" lon="15.1618">
				<ele>913.14</ele>
				<time>2025-07-28T23:24:11.524Z</time>
			</trkpt>
			<trkpt lat="47.80262" lon="15.16058">
				<ele>888.09</ele>
				<time>2025-07-28T23:24:21.367Z</time>
			</trkpt>
			<trkpt lat="47.80297" lon="15.16038">
				<ele>882.17</ele>
				<time>2025-07-28T23:24:23.267Z</time>
			</trkpt>
			<trkpt lat="47.80316" lon="15.16031">
				<ele>880.21</ele>
				<time>2025-07-28T23:24:24.258Z</time>
			</trkpt>
			<trkpt lat="47.80342" lon="15.16027">
				<ele>880.84</ele>
				<time>2025-07-28T23:24:25.582Z</time>
			</trkpt>
			<trkpt lat="47.80442" lon="15.1602">
				<ele>872.62</ele>
				<time>2025-07-28T23:24:30.650Z</time>
			</trkpt>
			<trkpt lat="47.8047" lon="15.16009">
				<ele>873.92</ele>
				<time>2025-07-28T23:24:32.116Z</time>
			</trkpt>
			<trkpt lat="47.80495" lon="15.15994">
				<ele>864.78</ele>
				<time>2025-07-28T23:24:33.480Z</time>
			</trkpt>
			<trkpt lat="47.80532" lon="15.15965">
				<ele>856.72</ele>
				<time>2025-07-28T23:24:35.595Z</time>
			</trkpt>
			<trkpt lat="47.80606" lon="15.15876">
				<ele>841.19</ele>
				<time>2025-07-28T23:24:40.407Z</time>
			</trkpt>
			<trkpt lat="47.80678" lon="15.158">
				<ele>829.42</ele>
				<time>2025-07-28T23:24:44.869Z</time>
			</trkpt>
			<trkpt lat="47.80712" lon="15.15756">
				<ele>826.54</ele>
				<time>2025-07-28T23:24:47.145Z</time>
			</trkpt>
			<trkpt lat="47.80731" lon="15.15736">
				<ele>824.99</ele>
				<time>2025-07-28T23:24:48.321Z</time>
			</trkpt>
			<trkpt lat="47.80786" lon="15.15688">
				<ele>828.85</ele>
				<time>2025-07-28T23:24:51.542Z</time>
			</trkpt>
			<trkpt lat="47.80795" lon="15.15676">
				<ele>828.95</ele>
				<time>2025-07-28T23:24:52.153Z</time>
			</trkpt>
			<trkpt lat="47.80805" lon="15.15659">
				<ele>824.6</ele>
				<time>2025-07-28T23:24:52.919Z</time>
			</trkpt>
			<trkpt lat="47.80819" lon="15.1562">
				<ele>814.32</ele>
				<time>2025-07-28T23:24:54.419Z</time>
			</trkpt>
			<trkpt lat="47.80851" lon="15.1551">
				<ele>819.98</ele>
				<time>2025-07-28T23:24:58.485Z</time>
			</trkpt>
			<trkpt lat="47.80861" lon="15.15484">
				<ele>817.93</ele>
				<time>2025-07-28T23:24:59.501Z</time>
			</trkpt>
			<trkpt lat="47.80878" lon="15.15451">
				<ele>816.52</ele>
				<time>2025-07-28T23:25:00.912Z</time>
			</trkpt>
			<trkpt lat="47.80923" lon="15.15379">
				<ele>805.83</ele>
				<time>2025-07-28T23:25:04.246Z</time>
			</trkpt>
			<trkpt lat="47.80939" lon="15.15341">
				<ele>806.71</ele>
				<time>2025-07-28T23:25:05.767Z</time>
			</trkpt>
			<trkpt lat="47.80948" lon="15.15303">
				<ele>804.69</ele>
				<time>2025-07-28T23:25:07.133Z</time>
			</trkpt>
			<trkpt lat="47.80956" lon="15.15223">
				<ele>794.15</ele>
				<time>2025-07-28T23:25:09.874Z</time>
			</trkpt>
			<trkpt lat="47.80965" lon="15.15185">
				<ele>791.54</ele>
				<time>2025-07-28T23:25:11.239Z</time>
			</trkpt>
			<trkpt lat="47.80973" lon="15.15165">
				<ele>788.09</ele>
				<time>2025-07-28T23:25:12.028Z</time>
			</trkpt>
			<trkpt lat="47.80986" lon="15.15144">
				<ele>786.81</ele>
				<time>2025-07-28T23:25:12.996Z</time>
			</trkpt>
			<trkpt lat="47.81005" lon="15.15125">
				<ele>783.45</ele>
				<time>2025-07-28T23:25:14.151Z</time>
			</trkpt>
			<trkpt lat="47.81026" lon="15.15107">
				<ele>784.98</ele>
				<time>2025-07-28T23:25:15.373Z</time>
			</trkpt>
			<trkpt lat="47.81044" lon="15.15087">
				<ele>785.28</ele>
				<time>2025-07-28T23:25:16.506Z</time>
			</trkpt>
			<trkpt lat="47.81059" lon="15.15062">
				<ele>782.6</ele>
				<time>2025-07-28T23:25:17.642Z</time>
			</trkpt>
			<trkpt lat="47.81074" lon="15.1503">
				<ele>780.63</ele>
				<time>2025-07-28T23:25:18.964Z</time>
			</trkpt>
			<trkpt lat="47.81086" lon="15.14992">
				<ele>776.8</ele>
				<time>2025-07-28T23:25:20.387Z</time>
			</trkpt>
			<trkpt lat="47.81102" lon="15.14953">
				<ele>772.39</ele>
				<time>2025-07-28T23:25:21.935Z</time>
			</trkpt>
			<trkpt lat="47.8114" lon="15.14882">
				<ele>766.2</ele>
				<time>2025-07-28T23:25:25.010Z</time>
			</trkpt>
			<trkpt lat="47.81158" lon="15.14855">
				<ele>762.25</ele>
				<time>2025-07-28T23:25:26.299Z</time>
			</trkpt>
			<trkpt lat="47.81178" lon="15.14832">
				<ele>760.38</ele>
				<time>2025-07-28T23:25:27.573Z</time>
			</trkpt>
			<trkpt lat="47.81202" lon="15.14812">
				<ele>760.25</ele>
				<time>2025-07-28T23:25:28.961Z</time>
			</trkpt>
			<trkpt lat="47.81226" lon="15.14799">
				<ele>759.5</ele>
				<time>2025-07-28T23:25:30.249Z</time>
			</trkpt>
			<trkpt lat="47.81255" lon="15.1479">
				<ele>759</ele>
				<time>2025-07-28T23:25:31.742Z</time>
			</trkpt>
			<trkpt lat="47.81336" lon="15.14773">
				<ele>761.71</ele>
				<time>2025-07-28T23:25:35.868Z</time>
			</trkpt>
			<trkpt lat="47.8138" lon="15.14756">
				<ele>758.56</ele>
				<time>2025-07-28T23:25:38.160Z</time>
			</trkpt>
			<trkpt lat="47.81522" lon="15.14669">
				<ele>754.36</ele>
				<time>2025-07-28T23:25:45.903Z</time>
			</trkpt>
			<trkpt lat="47.81559" lon="15.14651">
				<ele>754.72</ele>
				<time>2025-07-28T23:25:47.866Z</time>
			</trkpt>
			<trkpt lat="47.81598" lon="15.14644">
				<ele>756.08</ele>
				<time>2025-07-28T23:25:49.847Z</time>
			</trkpt>
			<trkpt lat="47.81666" lon="15.14643">
				<ele>757.67</ele>
				<time>2025-07-28T23:25:53.277Z</time>
			</trkpt>
			<trkpt lat="47.81724" lon="15.14635">
				<ele>755.83</ele>
				<time>2025-07-28T23:25:56.215Z</time>
			</trkpt>
			<trkpt lat="47.81764" lon="15.14624">
				<ele>756.34</ele>
				<time>2025-07-28T23:25:58.267Z</time>
			</trkpt>
			<trkpt lat="47.81775" lon="15.14618">
				<ele>755.9</ele>
				<time>2025-07-28T23:25:58.857Z</time>
			</trkpt>
			<trkpt lat="47.81789" lon="15.14609">
				<ele>757.77</ele>
				<time>2025-07-28T23:25:59.627Z</time>
			</trkpt>
			<trkpt lat="47.818" lon="15.14593">
				<ele>762.48</ele>
				<time>2025-07-28T23:26:00.402Z</time>
			</trkpt>
			<trkpt lat="47.81825" lon="15.14549">
				<ele>774.9</ele>
				<time>2025-07-28T23:26:02.355Z</time>
			</trkpt>
			<trkpt lat="47.81834" lon="15.14539">
				<ele>777.47</ele>
				<time>2025-07-28T23:26:02.921Z</time>
			</trkpt>
			<trkpt lat="47.8184" lon="15.14535">
				<ele>776.14</ele>
				<time>2025-07-28T23:26:03.253Z</time>
			</trkpt>
			<trkpt lat="47.8187" lon="15.14526">
				<ele>763.58</ele>
				<time>2025-07-28T23:26:04.797Z</time>
			</trkpt>
			<trkpt lat="47.81891" lon="15.14512">
				<ele>757.06</ele>
				<time>2025-07-28T23:26:05.958Z</time>
			</trkpt>
			<trkpt lat="47.81898" lon="15.14505">
				<ele>756.14</ele>
				<time>2025-07-28T23:26:06.383Z</time>
			</trkpt>
			<trkpt lat="47.81916" lon="15.14479">
				<ele>753.49</ele>
				<time>2025-07-28T23:26:07.648Z</time>
			</trkpt>
			<trkpt lat="47.81933" lon="15.14448">
				<ele>756.57</ele>
				<time>2025-07-28T23:26:09.004Z</time>
			</trkpt>
			<trkpt lat="47.81951" lon="15.14407">
				<ele>757.61</ele>
				<time>2025-07-28T23:26:10.664Z</time>
			</trkpt>
			<trkpt lat="47.81971" lon="15.14343">
				<ele>749.64</ele>
				<time>2025-07-28T23:26:13.057Z</time>
			</trkpt>
			<trkpt lat="47.81979" lon="15.14302">
				<ele>751.54</ele>
				<time>2025-07-28T23:26:14.504Z</time>
			</trkpt>
			<trkpt lat="47.81995" lon="15.14209">
				<ele>749.9</ele>
				<time>2025-07-28T23:26:17.758Z</time>
			</trkpt>
			<trkpt lat="47.82012" lon="15.14146">
				<ele>746.03</ele>
				<time>2025-07-28T23:26:20.059Z</time>
			</trkpt>
			<trkpt lat="47.82021" lon="15.14122">
				<ele>745.21</ele>
				<time>2025-07-28T23:26:20.991Z</time>
			</trkpt>
			<trkpt lat="47.82068" lon="15.14018">
				<ele>737.55</ele>
				<time>2025-07-28T23:26:25.242Z</time>
			</trkpt>
			<trkpt lat="47.82082" lon="15.13983">
				<ele>729.29</ele>
				<time>2025-07-28T23:26:26.624Z</time>
			</trkpt>
			<trkpt lat="47.82128" lon="15.13823">
				<ele>738.15</ele>
				<time>2025-07-28T23:26:32.529Z</time>
			</trkpt>
			<trkpt lat="47.82144" lon="15.13762">
				<ele>734.03</ele>
				<time>2025-07-28T23:26:34.751Z</time>
			</trkpt>
			<trkpt lat="47.82157" lon="15.13699">
				<ele>734.24</ele>
				<time>2025-07-28T23:26:36.988Z</time>
			</trkpt>
			<trkpt lat="47.82166" lon="15.13644">
				<ele>735.48</ele>
				<time>2025-07-28T23:26:38.910Z</time>
			</trkpt>
			<trkpt lat="47.82174" lon="15.13577">
				<ele>735.06</ele>
				<time>2025-07-28T23:26:41.221Z</time>
			</trkpt>
			<trkpt lat="47.82179" lon="15.13502">
				<ele>734.03</ele>
				<time>2025-07-28T23:26:43.781Z</time>
			</trkpt>
			<trkpt lat="47.82181" lon="15.13366">
				<ele>725.7</ele>
				<time>2025-07-28T23:26:48.402Z</time>
			</trkpt>
			<trkpt lat="47.82184" lon="15.1332">
				<ele>726.34</ele>
				<time>2025-07-28T23:26:49.973Z</time>
			</trkpt>
			<trkpt lat="47.82191" lon="15.13273">
				<ele>730.28</ele>
				<time>2025-07-28T23:26:51.610Z</time>
			</trkpt>
			<trkpt lat="47.82202" lon="15.13226">
				<ele>731.52</ele>
				<time>2025-07-28T23:26:53.302Z</time>
			</trkpt>
			<trkpt lat="47.82213" lon="15.1319">
				<ele>730.19</ele>
				<time>2025-07-28T23:26:54.647Z</time>
			</trkpt>
			<trkpt lat="47.82245" lon="15.13112">
				<ele>732.41</ele>
				<time>2025-07-28T23:26:57.756Z</time>
			</trkpt>
			<trkpt lat="47.82289" lon="15.1302">
				<ele>726.79</ele>
				<time>2025-07-28T23:27:01.599Z</time>
			</trkpt>
			<trkpt lat="47.82343" lon="15.12912">
				<ele>723.76</ele>
				<time>2025-07-28T23:27:06.183Z</time>
			</trkpt>
			<trkpt lat="47.82383" lon="15.12841">
				<ele>724.59</ele>
				<time>2025-07-28T23:27:09.340Z</time>
			</trkpt>
			<trkpt lat="47.82401" lon="15.12814">
				<ele>723.64</ele>
				<time>2025-07-28T23:27:10.637Z</time>
			</trkpt>
			<trkpt lat="47.82422" lon="15.12789">
				<ele>717.47</ele>
				<time>2025-07-28T23:27:12.001Z</time>
			</trkpt>
			<trkpt lat="47.82456" lon="15.12758">
				<ele>715.63</ele>
				<time>2025-07-28T23:27:14.025Z</time>
			</trkpt>
			<trkpt lat="47.82495" lon="15.12734">
				<ele>719.35</ele>
				<time>2025-07-28T23:27:16.168Z</time>
			</trkpt>
			<trkpt lat="47.82525" lon="15.1272">
				<ele>718.55</ele>
				<time>2025-07-28T23:27:17.765Z</time>
			</trkpt>
			<trkpt lat="47.82994" lon="15.1253">
				<ele>724.6</ele>
				<time>2025-07-28T23:27:42.507Z</time>
			</trkpt>
			<trkpt lat="47.83032" lon="15.12518">
				<ele>723.98</ele>
				<time>2025-07-28T23:27:44.489Z</time>
			</trkpt>
			<trkpt lat="47.83071" lon="15.12515">
				<ele>721.02</ele>
				<time>2025-07-28T23:27:46.482Z</time>
			</trkpt>
			<trkpt lat="47.83098" lon="15.1252">
				<ele>716.78</ele>
				<time>2025-07-28T23:27:47.871Z</time>
			</trkpt>
			<trkpt lat="47.8311" lon="15.12524">
				<ele>714.42</ele>
				<time>2025-07-28T23:27:48.499Z</time>
			</trkpt>
			<trkpt lat="47.83141" lon="15.12544">
				<ele>705.7</ele>
				<time>2025-07-28T23:27:50.225Z</time>
			</trkpt>
			<trkpt lat="47.83169" lon="15.1257">
				<ele>704.51</ele>
				<time>2025-07-28T23:27:51.911Z</time>
			</trkpt>
			<trkpt lat="47.83222" lon="15.12628">
				<ele>703.44</ele>
				<time>2025-07-28T23:27:55.273Z</time>
			</trkpt>
			<trkpt lat="47.8325" lon="15.1265">
				<ele>704.35</ele>
				<time>2025-07-28T23:27:56.892Z</time>
			</trkpt>
			<trkpt lat="47.83272" lon="15.12662">
				<ele>703.44</ele>
				<time>2025-07-28T23:27:58.091Z</time>
			</trkpt>
			<trkpt lat="47.83327" lon="15.12686">
				<ele>704.28</ele>
				<time>2025-07-28T23:28:01.024Z</time>
			</trkpt>
			<trkpt lat="47.83341" lon="15.12697">
				<ele>706.5</ele>
				<time>2025-07-28T23:28:01.835Z</time>
			</trkpt>
			<trkpt lat="47.83361" lon="15.12719">
				<ele>709.16</ele>
				<time>2025-07-28T23:28:03.108Z</time>
			</trkpt>
			<trkpt lat="47.83379" lon="15.12748">
				<ele>716.65</ele>
				<time>2025-07-28T23:28:04.467Z</time>
			</trkpt>
			<trkpt lat="47.83395" lon="15.12784">
				<ele>722.59</ele>
				<time>2025-07-28T23:28:05.952Z</time>
			</trkpt>
			<trkpt lat="47.83402" lon="15.12812">
				<ele>723.78</ele>
				<time>2025-07-28T23:28:06.980Z</time>
			</trkpt>
			<trkpt lat="47.83413" lon="15.12868">
				<ele>718.36</ele>
				<time>2025-07-28T23:28:08.989Z</time>
			</trkpt>
			<trkpt lat="47.83425" lon="15.12907">
				<ele>709.35</ele>
				<time>2025-07-28T23:28:10.466Z</time>
			</trkpt>
			<trkpt lat="47.83439" lon="15.12936">
				<ele>707.66</ele>
				<time>2025-07-28T23:28:11.697Z</time>
			</trkpt>
			<trkpt lat="47.83452" lon="15.12955">
				<ele>707.32</ele>
				<time>2025-07-28T23:28:12.631Z</time>
			</trkpt>
			<trkpt lat="47.83465" lon="15.12971">
				<ele>705.76</ele>
				<time>2025-07-28T23:28:13.497Z</time>
			</trkpt>
			<trkpt lat="47.83478" lon="15.12983">
				<ele>704.16</ele>
				<time>2025-07-28T23:28:14.282Z</time>
			</trkpt>
			<trkpt lat="47.83513" lon="15.13003">
				<ele>701.55</ele>
				<time>2025-07-28T23:28:16.208Z</time>
			</trkpt>
			<trkpt lat="47.83841" lon="15.13137">
				<ele>697.78</ele>
				<time>2025-07-28T23:28:33.718Z</time>
			</trkpt>
			<trkpt lat="47.8408" lon="15.13249">
				<ele>686.11</ele>
				<time>2025-07-28T23:28:46.667Z</time>
			</trkpt>
			<trkpt lat="47.84105" lon="15.13257">
				<ele>684.37</ele>
				<time>2025-07-28T23:28:47.991Z</time>
			</trkpt>
			<trkpt lat="47.84131" lon="15.13262">
				<ele>682.86</ele>
				<time>2025-07-28T23:28:49.349Z</time>
			</trkpt>
			<trkpt lat="47.84156" lon="15.13262">
				<ele>680.92</ele>
				<time>2025-07-28T23:28:50.645Z</time>
			</trkpt>
			<trkpt lat="47.84179" lon="15.13258">
				<ele>680.32</ele>
				<time>2025-07-28T23:28:51.845Z</time>
			</trkpt>
			<trkpt lat="47.842" lon="15.13251">
				<ele>681.14</ele>
				<time>2025-07-28T23:28:52.961Z</time>
			</trkpt>
			<trkpt lat="47.84229" lon="15.13237">
				<ele>682.33</ele>
				<time>2025-07-28T23:28:54.542Z</time>
			</trkpt>
			<trkpt lat="47.8426" lon="15.13212">
				<ele>682.38</ele>
				<time>2025-07-28T23:28:56.372Z</time>
			</trkpt>
			<trkpt lat="47.84455" lon="15.13014">
				<ele>675.61</ele>
				<time>2025-07-28T23:29:08.644Z</time>
			</trkpt>
			<trkpt lat="47.84502" lon="15.12974">
				<ele>679.88</ele>
				<time>2025-07-28T23:29:11.465Z</time>
			</trkpt>
			<trkpt lat="47.84544" lon="15.12946">
				<ele>681</ele>
				<time>2025-07-28T23:29:13.866Z</time>
			</trkpt>
			<trkpt lat="47.84594" lon="15.12921">
				<ele>678.51</ele>
				<time>2025-07-28T23:29:16.619Z</time>
			</trkpt>
			<trkpt lat="47.84867" lon="15.12819">
				<ele>681.76</ele>
				<time>2025-07-28T23:29:31.353Z</time>
			</trkpt>
			<trkpt lat="47.84902" lon="15.12808">
				<ele>682.57</ele>
				<time>2025-07-28T23:29:33.230Z</time>
			</trkpt>
			<trkpt lat="47.84955" lon="15.12799">
				<ele>681.31</ele>
				<time>2025-07-28T23:29:36.033Z</time>
			</trkpt>
			<trkpt lat="47.85162" lon="15.12797">
				<ele>669.89</ele>
				<time>2025-07-28T23:29:46.932Z</time>
			</trkpt>
			<trkpt lat="47.85191" lon="15.12791">
				<ele>668.64</ele>
				<time>2025-07-28T23:29:48.477Z</time>
			</trkpt>
			<trkpt lat="47.85216" lon="15.12783">
				<ele>668.21</ele>
				<time>2025-07-28T23:29:49.827Z</time>
			</trkpt>
			<trkpt lat="47.8526" lon="15.12757">
				<ele>669.23</ele>
				<time>2025-07-28T23:29:52.327Z</time>
			</trkpt>
			<trkpt lat="47.85299" lon="15.12723">
				<ele>668.31</ele>
				<time>2025-07-28T23:29:54.716Z</time>
			</trkpt>
			<trkpt lat="47.85337" lon="15.12677">
				<ele>667.09</ele>
				<time>2025-07-28T23:29:57.307Z</time>
			</trkpt>
			<trkpt lat="47.8538" lon="15.12614">
				<ele>662.76</ele>
				<time>2025-07-28T23:30:00.501Z</time>
			</trkpt>
			<trkpt lat="47.85441" lon="15.12508">
				<ele>660.3</ele>
				<time>2025-07-28T23:30:05.472Z</time>
			</trkpt>
			<trkpt lat="47.85552" lon="15.12302">
				<ele>660.38</ele>
				<time>2025-07-28T23:30:14.902Z</time>
			</trkpt>
			<trkpt lat="47.85702" lon="15.1203">
				<ele>662.86</ele>
				<time>2025-07-28T23:30:27.520Z</time>
			</trkpt>
			<trkpt lat="47.85862" lon="15.11787">
				<ele>661.3</ele>
				<time>2025-07-28T23:30:39.781Z</time>
			</trkpt>
			<trkpt lat="47.85887" lon="15.11738">
				<ele>665.11</ele>
				<time>2025-07-28T23:30:42.004Z</time>
			</trkpt>
			<trkpt lat="47.85908" lon="15.11682">
				<ele>662.93</ele>
				<time>2025-07-28T23:30:44.324Z</time>
			</trkpt>
			<trkpt lat="47.85943" lon="15.11535">
				<ele>659.11</ele>
				<time>2025-07-28T23:30:49.971Z</time>
			</trkpt>
			<trkpt lat="47.85953" lon="15.11477">
				<ele>659.94</ele>
				<time>2025-07-28T23:30:52.143Z</time>
			</trkpt>
			<trkpt lat="47.85963" lon="15.11399">
				<ele>654.92</ele>
				<time>2025-07-28T23:30:55.026Z</time>
			</trkpt>
			<trkpt lat="47.85979" lon="15.11197">
				<ele>657.22</ele>
				<time>2025-07-28T23:31:02.426Z</time>
			</trkpt>
			<trkpt lat="47.85993" lon="15.11127">
				<ele>655.91</ele>
				<time>2025-07-28T23:31:05.088Z</time>
			</trkpt>
			<trkpt lat="47.86021" lon="15.11024">
				<ele>661.75</ele>
				<time>2025-07-28T23:31:09.146Z</time>
			</trkpt>
			<trkpt lat="47.86052" lon="15.10926">
				<ele>662.44</ele>
				<time>2025-07-28T23:31:13.108Z</time>
			</trkpt>
			<trkpt lat="47.86073" lon="15.10866">
				<ele>666.41</ele>
				<time>2025-07-28T23:31:15.587Z</time>
			</trkpt>
			<trkpt lat="47.86132" lon="15.10717">
				<ele>659.71</ele>
				<time>2025-07-28T23:31:21.935Z</time>
			</trkpt>
			<trkpt lat="47.86194" lon="15.10548">
				<ele>666.18</ele>
				<time>2025-07-28T23:31:29.023Z</time>
			</trkpt>
			<trkpt lat="47.862" lon="15.10524">
				<ele>668.69</ele>
				<time>2025-07-28T23:31:29.967Z</time>
			</trkpt>
			<trkpt lat="47.86205" lon="15.10499">
				<ele>670.31</ele>
				<time>2025-07-28T23:31:30.929Z</time>
			</trkpt>
			<trkpt lat="47.86214" lon="15.10414">
				<ele>665.83</ele>
				<time>2025-07-28T23:31:34.106Z</time>
			</trkpt>
			<trkpt lat="47.8622" lon="15.10364">
				<ele>668.8</ele>
				<time>2025-07-28T23:31:35.983Z</time>
			</trkpt>
			<trkpt lat="47.86228" lon="15.10321">
				<ele>670.89</ele>
				<time>2025-07-28T23:31:37.633Z</time>
			</trkpt>
			<trkpt lat="47.8624" lon="15.10264">
				<ele>663.9</ele>
				<time>2025-07-28T23:31:39.845Z</time>
			</trkpt>
			<trkpt lat="47.86254" lon="15.10234">
				<ele>664.06</ele>
				<time>2025-07-28T23:31:41.199Z</time>
			</trkpt>
			<trkpt lat="47.86281" lon="15.10199">
				<ele>668.33</ele>
				<time>2025-07-28T23:31:43.176Z</time>
			</trkpt>
			<trkpt lat="47.86292" lon="15.10179">
				<ele>668.86</ele>
				<time>2025-07-28T23:31:44.135Z</time>
			</trkpt>
			<trkpt lat="47.8632" lon="15.10099">
				<ele>668.63</ele>
				<time>2025-07-28T23:31:47.486Z</time>
			</trkpt>
			<trkpt lat="47.86359" lon="15.10013">
				<ele>660.25</ele>
				<time>2025-07-28T23:31:51.348Z</time>
			</trkpt>
			<trkpt lat="47.86384" lon="15.09962">
				<ele>661.21</ele>
				<time>2025-07-28T23:31:53.700Z</time>
			</trkpt>
			<trkpt lat="47.86391" lon="15.09942">
				<ele>663.19</ele>
				<time>2025-07-28T23:31:54.541Z</time>
			</trkpt>
			<trkpt lat="47.86394" lon="15.09926">
				<ele>664.64</ele>
				<time>2025-07-28T23:31:55.161Z</time>
			</trkpt>
			<trkpt lat="47.86395" lon="15.09914">
				<ele>665.47</ele>
				<time>2025-07-28T23:31:55.612Z</time>
			</trkpt>
			<trkpt lat="47.86395" lon="15.09898">
				<ele>667.37</ele>
				<time>2025-07-28T23:31:56.209Z</time>
			</trkpt>
			<trkpt lat="47.86387" lon="15.09862">
				<ele>670.32</ele>
				<time>2025-07-28T23:31:57.624Z</time>
			</trkpt>
			<trkpt lat="47.86272" lon="15.09592">
				<ele>648.47</ele>
				<time>2025-07-28T23:32:09.600Z</time>
			</trkpt>
			<trkpt lat="47.86259" lon="15.09553">
				<ele>647.04</ele>
				<time>2025-07-28T23:32:11.236Z</time>
			</trkpt>
			<trkpt lat="47.86252" lon="15.09528">
				<ele>648.13</ele>
				<time>2025-07-28T23:32:12.254Z</time>
			</trkpt>
			<trkpt lat="47.86203" lon="15.09302">
				<ele>653.57</ele>
				<time>2025-07-28T23:32:21.203Z</time>
			</trkpt>
			<trkpt lat="47.86188" lon="15.09225">
				<ele>648.52</ele>
				<time>2025-07-28T23:32:24.233Z</time>
			</trkpt>
			<trkpt lat="47.86187" lon="15.09192">
				<ele>647.36</ele>
				<time>2025-07-28T23:32:25.482Z</time>
			</trkpt>
			<trkpt lat="47.86192" lon="15.09158">
				<ele>646.69</ele>
				<time>2025-07-28T23:32:26.800Z</time>
			</trkpt>
			<trkpt lat="47.86231" lon="15.09025">
				<ele>650.01</ele>
				<time>2025-07-28T23:32:32.303Z</time>
			</trkpt>
			<trkpt lat="47.8624" lon="15.09002">
				<ele>650.38</ele>
				<time>2025-07-28T23:32:33.314Z</time>
			</trkpt>
			<trkpt lat="47.8625" lon="15.08983">
				<ele>650.46</ele>
				<time>2025-07-28T23:32:34.231Z</time>
			</trkpt>
			<trkpt lat="47.86263" lon="15.08966">
				<ele>650.23</ele>
				<time>2025-07-28T23:32:35.211Z</time>
			</trkpt>
			<trkpt lat="47.86279" lon="15.08952">
				<ele>648.73</ele>
				<time>2025-07-28T23:32:36.263Z</time>
			</trkpt>
			<trkpt lat="47.86314" lon="15.08931">
				<ele>650.78</ele>
				<time>2025-07-28T23:32:38.403Z</time>
			</trkpt>
			<trkpt lat="47.86329" lon="15.08919">
				<ele>651.65</ele>
				<time>2025-07-28T23:32:39.369Z</time>
			</trkpt>
			<trkpt lat="47.86376" lon="15.08864">
				<ele>648.89</ele>
				<time>2025-07-28T23:32:42.765Z</time>
			</trkpt>
			<trkpt lat="47.8644" lon="15.08805">
				<ele>644.8</ele>
				<time>2025-07-28T23:32:47.050Z</time>
			</trkpt>
			<trkpt lat="47.86466" lon="15.08777">
				<ele>638.43</ele>
				<time>2025-07-28T23:32:48.879Z</time>
			</trkpt>
			<trkpt lat="47.8651" lon="15.08722">
				<ele>637.89</ele>
				<time>2025-07-28T23:32:52.157Z</time>
			</trkpt>
			<trkpt lat="47.86523" lon="15.08709">
				<ele>639.84</ele>
				<time>2025-07-28T23:32:53.052Z</time>
			</trkpt>
			<trkpt lat="47.86546" lon="15.0869">
				<ele>640.78</ele>
				<time>2025-07-28T23:32:54.556Z</time>
			</trkpt>
			<trkpt lat="47.86592" lon="15.08657">
				<ele>643.16</ele>
				<time>2025-07-28T23:32:57.479Z</time>
			</trkpt>
			<trkpt lat="47.8662" lon="15.08623">
				<ele>650.72</ele>
				<time>2025-07-28T23:32:59.549Z</time>
			</trkpt>
			<trkpt lat="47.86635" lon="15.08592">
				<ele>652.12</ele>
				<time>2025-07-28T23:33:01.021Z</time>
			</trkpt>
			<trkpt lat="47.8665" lon="15.08554">
				<ele>649</ele>
				<time>2025-07-28T23:33:02.719Z</time>
			</trkpt>
			<trkpt lat="47.86658" lon="15.08529">
				<ele>647.02</ele>
				<time>2025-07-28T23:33:03.787Z</time>
			</trkpt>
			<trkpt lat="47.86672" lon="15.08468">
				<ele>658.83</ele>
				<time>2025-07-28T23:33:06.275Z</time>
			</trkpt>
			<trkpt lat="47.86676" lon="15.08433">
				<ele>663.22</ele>
				<time>2025-07-28T23:33:07.646Z</time>
			</trkpt>
			<trkpt lat="47.86675" lon="15.08371">
				<ele>652.8</ele>
				<time>2025-07-28T23:33:10.044Z</time>
			</trkpt>
			<trkpt lat="47.86678" lon="15.08347">
				<ele>649.08</ele>
				<time>2025-07-28T23:33:10.988Z</time>
			</trkpt>
			<trkpt lat="47.8669" lon="15.08308">
				<ele>648.23</ele>
				<time>2025-07-28T23:33:12.649Z</time>
			</trkpt>
			<trkpt lat="47.86743" lon="15.08166">
				<ele>653.25</ele>
				<time>2025-07-28T23:33:18.954Z</time>
			</trkpt>
			<trkpt lat="47.86751" lon="15.08133">
				<ele>651.21</ele>
				<time>2025-07-28T23:33:20.318Z</time>
			</trkpt>
			<trkpt lat="47.86758" lon="15.08095">
				<ele>646.55</ele>
				<time>2025-07-28T23:33:21.851Z</time>
			</trkpt>
			<trkpt lat="47.86764" lon="15.08079">
				<ele>646.89</ele>
				<time>2025-07-28T23:33:22.565Z</time>
			</trkpt>
			<trkpt lat="47.86778" lon="15.08056">
				<ele>650.51</ele>
				<time>2025-07-28T23:33:23.774Z</time>
			</trkpt>
			<trkpt lat="47.8682" lon="15.08004">
				<ele>659.15</ele>
				<time>2025-07-28T23:33:26.947Z</time>
			</trkpt>
			<trkpt lat="47.86884" lon="15.07896">
				<ele>653.52</ele>
				<time>2025-07-28T23:33:32.579Z</time>
			</trkpt>
			<trkpt lat="47.86899" lon="15.07878">
				<ele>654.08</ele>
				<time>2025-07-28T23:33:33.702Z</time>
			</trkpt>
			<trkpt lat="47.8691" lon="15.07871">
				<ele>656.23</ele>
				<time>2025-07-28T23:33:34.401Z</time>
			</trkpt>
			<trkpt lat="47.86917" lon="15.0787">
				<ele>657.7</ele>
				<time>2025-07-28T23:33:34.811Z</time>
			</trkpt>
			<trkpt lat="47.86928" lon="15.07872">
				<ele>658.18</ele>
				<time>2025-07-28T23:33:35.459Z</time>
			</trkpt>
			<trkpt lat="47.86941" lon="15.07878">
				<ele>659.36</ele>
				<time>2025-07-28T23:33:36.254Z</time>
			</trkpt>
			<trkpt lat="47.86962" lon="15.07895">
				<ele>658.72</ele>
				<time>2025-07-28T23:33:37.651Z</time>
			</trkpt>
			<trkpt lat="47.86999" lon="15.07941">
				<ele>663.84</ele>
				<time>2025-07-28T23:33:40.472Z</time>
			</trkpt>
			<trkpt lat="47.87011" lon="15.07948">
				<ele>662.23</ele>
				<time>2025-07-28T23:33:41.227Z</time>
			</trkpt>
			<trkpt lat="47.87022" lon="15.07951">
				<ele>658.47</ele>
				<time>2025-07-28T23:33:41.882Z</time>
			</trkpt>
			<trkpt lat="47.87039" lon="15.07951">
				<ele>656.62</ele>
				<time>2025-07-28T23:33:42.879Z</time>
			</trkpt>
			<trkpt lat="47.87051" lon="15.07947">
				<ele>655.76</ele>
				<time>2025-07-28T23:33:43.600Z</time>
			</trkpt>
			<trkpt lat="47.87099" lon="15.07919">
				<ele>649.53</ele>
				<time>2025-07-28T23:33:46.627Z</time>
			</trkpt>
			<trkpt lat="47.8712" lon="15.07913">
				<ele>646.5</ele>
				<time>2025-07-28T23:33:47.884Z</time>
			</trkpt>
			<trkpt lat="47.87131" lon="15.07913">
				<ele>645.08</ele>
				<time>2025-07-28T23:33:48.531Z</time>
			</trkpt>
			<trkpt lat="47.87202" lon="15.07923">
				<ele>635.78</ele>
				<time>2025-07-28T23:33:52.731Z</time>
			</trkpt>
			<trkpt lat="47.87229" lon="15.07921">
				<ele>630.96</ele>
				<time>2025-07-28T23:33:54.326Z</time>
			</trkpt>
			<trkpt lat="47.87247" lon="15.07912">
				<ele>630.47</ele>
				<time>2025-07-28T23:33:55.446Z</time>
			</trkpt>
			<trkpt lat="47.87257" lon="15.07904">
				<ele>630.33</ele>
				<time>2025-07-28T23:33:56.117Z</time>
			</trkpt>
			<trkpt lat="47.87265" lon="15.07892">
				<ele>629.67</ele>
				<time>2025-07-28T23:33:56.787Z</time>
			</trkpt>
			<trkpt lat="47.87298" lon="15.07819">
				<ele>628.92</ele>
				<time>2025-07-28T23:34:00.279Z</time>
			</trkpt>
			<trkpt lat="47.8731" lon="15.07787">
				<ele>630.07</ele>
				<time>2025-07-28T23:34:01.736Z</time>
			</trkpt>
			<trkpt lat="47.87325" lon="15.07731">
				<ele>630.82</ele>
				<time>2025-07-28T23:34:04.134Z</time>
			</trkpt>
			<trkpt lat="47.8733" lon="15.07701">
				<ele>630.18</ele>
				<time>2025-07-28T23:34:05.364Z</time>
			</trkpt>
			<trkpt lat="47.87337" lon="15.07639">
				<ele>625.49</ele>
				<time>2025-07-28T23:34:07.869Z</time>
			</trkpt>
			<trkpt lat="47.87341" lon="15.07612">
				<ele>625.33</ele>
				<time>2025-07-28T23:34:08.972Z</time>
			</trkpt>
			<trkpt lat="47.8735" lon="15.07588">
				<ele>624.94</ele>
				<time>2025-07-28T23:34:10.069Z</time>
			</trkpt>
			<trkpt lat="47.8736" lon="15.07571">
				<ele>624.49</ele>
				<time>2025-07-28T23:34:10.972Z</time>
			</trkpt>
			<trkpt lat="47.87373" lon="15.07553">
				<ele>627.91</ele>
				<time>2025-07-28T23:34:12.028Z</time>
			</trkpt>
			<trkpt lat="47.87397" lon="15.07524">
				<ele>629.91</ele>
				<time>2025-07-28T23:34:13.870Z</time>
			</trkpt>
			<trkpt lat="47.87448" lon="15.07445">
				<ele>632.79</ele>
				<time>2025-07-28T23:34:18.260Z</time>
			</trkpt>
			<trkpt lat="47.8746" lon="15.07438">
				<ele>633.86</ele>
				<time>2025-07-28T23:34:19.031Z</time>
			</trkpt>
			<trkpt lat="47.8747" lon="15.07438">
				<ele>635.22</ele>
				<time>2025-07-28T23:34:19.629Z</time>
			</trkpt>
			<trkpt lat="47.87482" lon="15.07444">
				<ele>636.04</ele>
				<time>2025-07-28T23:34:20.386Z</time>
			</trkpt>
			<trkpt lat="47.87546" lon="15.07505">
				<ele>645.64</ele>
				<time>2025-07-28T23:34:24.937Z</time>
			</trkpt>
			<trkpt lat="47.87582" lon="15.07542">
				<ele>649.96</ele>
				<time>2025-07-28T23:34:27.562Z</time>
			</trkpt>
			<trkpt lat="47.87669" lon="15.07637">
				<ele>649.68</ele>
				<time>2025-07-28T23:34:34.052Z</time>
			</trkpt>
			<trkpt lat="47.87692" lon="15.07653">
				<ele>646.75</ele>
				<time>2025-07-28T23:34:35.582Z</time>
			</trkpt>
			<trkpt lat="47.87712" lon="15.0766">
				<ele>647.54</ele>
				<time>2025-07-28T23:34:36.822Z</time>
			</trkpt>
			<trkpt lat="47.87725" lon="15.07662">
				<ele>648.65</ele>
				<time>2025-07-28T23:34:37.612Z</time>
			</trkpt>
			<trkpt lat="47.87739" lon="15.07661">
				<ele>651.05</ele>
				<time>2025-07-28T23:34:38.458Z</time>
			</trkpt>
			<trkpt lat="47.87754" lon="15.07657">
				<ele>653.44</ele>
				<time>2025-07-28T23:34:39.379Z</time>
			</trkpt>
			<trkpt lat="47.87774" lon="15.07648">
				<ele>656.75</ele>
				<time>2025-07-28T23:34:40.643Z</time>
			</trkpt>
			<trkpt lat="47.87827" lon="15.07603">
				<ele>658.9</ele>
				<time>2025-07-28T23:34:44.337Z</time>
			</trkpt>
			<trkpt lat="47.87847" lon="15.07592">
				<ele>657.96</ele>
				<time>2025-07-28T23:34:45.630Z</time>
			</trkpt>
			<trkpt lat="47.87866" lon="15.07587">
				<ele>658.29</ele>
				<time>2025-07-28T23:34:46.801Z</time>
			</trkpt>
			<trkpt lat="47.8788" lon="15.07586">
				<ele>659.96</ele>
				<time>2025-07-28T23:34:47.652Z</time>
			</trkpt>
			<trkpt lat="47.87893" lon="15.07589">
				<ele>661.73</ele>
				<time>2025-07-28T23:34:48.451Z</time>
			</trkpt>
			<trkpt lat="47.8791" lon="15.07595">
				<ele>663.7</ele>
				<time>2025-07-28T23:34:49.513Z</time>
			</trkpt>
			<trkpt lat="47.87959" lon="15.07617">
				<ele>671.21</ele>
				<time>2025-07-28T23:34:52.627Z</time>
			</trkpt>
			<trkpt lat="47.87982" lon="15.0762">
				<ele>674.71</ele>
				<time>2025-07-28T23:34:54.033Z</time>
			</trkpt>
			<trkpt lat="47.88002" lon="15.07617">
				<ele>677.44</ele>
				<time>2025-07-28T23:34:55.259Z</time>
			</trkpt>
			<trkpt lat="47.88023" lon="15.07608">
				<ele>677.89</ele>
				<time>2025-07-28T23:34:56.592Z</time>
			</trkpt>
			<trkpt lat="47.88091" lon="15.07563">
				<ele>682.59</ele>
				<time>2025-07-28T23:35:01.139Z</time>
			</trkpt>
			<trkpt lat="47.88117" lon="15.0755">
				<ele>685.41</ele>
				<time>2025-07-28T23:35:02.817Z</time>
			</trkpt>
			<trkpt lat="47.88265" lon="15.07531">
				<ele>703.46</ele>
				<time>2025-07-28T23:35:11.939Z</time>
			</trkpt>
			<trkpt lat="47.8828" lon="15.07526">
				<ele>704.12</ele>
				<time>2025-07-28T23:35:12.885Z</time>
			</trkpt>
			<trkpt lat="47.8829" lon="15.07517">
				<ele>704.3</ele>
				<time>2025-07-28T23:35:13.604Z</time>
			</trkpt>
			<trkpt lat="47.88294" lon="15.07512">
				<ele>704.21</ele>
				<time>2025-07-28T23:35:13.926Z</time>
			</trkpt>
			<trkpt lat="47.88299" lon="15.07502">
				<ele>703.6</ele>
				<time>2025-07-28T23:35:14.442Z</time>
			</trkpt>
			<trkpt lat="47.88301" lon="15.07488">
				<ele>703.65</ele>
				<time>2025-07-28T23:35:15.034Z</time>
			</trkpt>
			<trkpt lat="47.88301" lon="15.07474">
				<ele>703.7</ele>
				<time>2025-07-28T23:35:15.613Z</time>
			</trkpt>
			<trkpt lat="47.88297" lon="15.07462">
				<ele>704.58</ele>
				<time>2025-07-28T23:35:16.167Z</time>
			</trkpt>
			<trkpt lat="47.88291" lon="15.07451">
				<ele>705.6</ele>
				<time>2025-07-28T23:35:16.754Z</time>
			</trkpt>
			<trkpt lat="47.88271" lon="15.07434">
				<ele>710.1</ele>
				<time>2025-07-28T23:35:18.175Z</time>
			</trkpt>
			<trkpt lat="47.88245" lon="15.07422">
				<ele>715.35</ele>
				<time>2025-07-28T23:35:19.857Z</time>
			</trkpt>
			<trkpt lat="47.88186" lon="15.07401">
				<ele>720.44</ele>
				<time>2025-07-28T23:35:23.612Z</time>
			</trkpt>
			<trkpt lat="47.88158" lon="15.07385">
				<ele>719.9</ele>
				<time>2025-07-28T23:35:25.471Z</time>
			</trkpt>
			<trkpt lat="47.88138" lon="15.07368">
				<ele>721.95</ele>
				<time>2025-07-28T23:35:26.899Z</time>
			</trkpt>
			<trkpt lat="47.88115" lon="15.07341">
				<ele>723.6</ele>
				<time>2025-07-28T23:35:28.717Z</time>
			</trkpt>
			<trkpt lat="47.88066" lon="15.0726">
				<ele>730.09</ele>
				<time>2025-07-28T23:35:33.269Z</time>
			</trkpt>
			<trkpt lat="47.88047" lon="15.07237">
				<ele>731.64</ele>
				<time>2025-07-28T23:35:34.794Z</time>
			</trkpt>
			<trkpt lat="47.88016" lon="15.07208">
				<ele>734.82</ele>
				<time>2025-07-28T23:35:37.077Z</time>
			</trkpt>
			<trkpt lat="47.87938" lon="15.07143">
				<ele>750.34</ele>
				<time>2025-07-28T23:35:42.664Z</time>
			</trkpt>
			<trkpt lat="47.8791" lon="15.07127">
				<ele>757.87</ele>
				<time>2025-07-28T23:35:44.543Z</time>
			</trkpt>
			<trkpt lat="47.87893" lon="15.07122">
				<ele>758.36</ele>
				<time>2025-07-28T23:35:45.629Z</time>
			</trkpt>
			<trkpt lat="47.87875" lon="15.07119">
				<ele>755.15</ele>
				<time>2025-07-28T23:35:46.766Z</time>
			</trkpt>
			<trkpt lat="47.87812" lon="15.07119">
				<ele>750.12</ele>
				<time>2025-07-28T23:35:50.725Z</time>
			</trkpt>
			<trkpt lat="47.87794" lon="15.07112">
				<ele>749.21</ele>
				<time>2025-07-28T23:35:51.895Z</time>
			</trkpt>
			<trkpt lat="47.87785" lon="15.07105">
				<ele>748.69</ele>
				<time>2025-07-28T23:35:52.534Z</time>
			</trkpt>
			<trkpt lat="47.87778" lon="15.07094">
				<ele>748.89</ele>
				<time>2025-07-28T23:35:53.175Z</time>
			</trkpt>
			<trkpt lat="47.87772" lon="15.0708">
				<ele>749.71</ele>
				<time>2025-07-28T23:35:53.877Z</time>
			</trkpt>
			<trkpt lat="47.87767" lon="15.07064">
				<ele>750.89</ele>
				<time>2025-07-28T23:35:54.623Z</time>
			</trkpt>
			<trkpt lat="47.87765" lon="15.07052">
				<ele>751.94</ele>
				<time>2025-07-28T23:35:55.146Z</time>
			</trkpt>
			<trkpt lat="47.87765" lon="15.0704">
				<ele>753.03</ele>
				<time>2025-07-28T23:35:55.654Z</time>
			</trkpt>
			<trkpt lat="47.87768" lon="15.07025">
				<ele>754.17</ele>
				<time>2025-07-28T23:35:56.316Z</time>
			</trkpt>
			<trkpt lat="47.87772" lon="15.07009">
				<ele>753.82</ele>
				<time>2025-07-28T23:35:57.039Z</time>
			</trkpt>
			<trkpt lat="47.87778" lon="15.06996">
				<ele>753.9</ele>
				<time>2025-07-28T23:35:57.708Z</time>
			</trkpt>
			<trkpt lat="47.87841" lon="15.06913">
				<ele>762</ele>
				<time>2025-07-28T23:36:03.025Z</time>
			</trkpt>
			<trkpt lat="47.87864" lon="15.06877">
				<ele>765.11</ele>
				<time>2025-07-28T23:36:05.139Z</time>
			</trkpt>
			<trkpt lat="47.87886" lon="15.06831">
				<ele>768.45</ele>
				<time>2025-07-28T23:36:07.544Z</time>
			</trkpt>
			<trkpt lat="47.87913" lon="15.06748">
				<ele>773.11</ele>
				<time>2025-07-28T23:36:11.478Z</time>
			</trkpt>
			<trkpt lat="47.87926" lon="15.06725">
				<ele>775.27</ele>
				<time>2025-07-28T23:36:12.762Z</time>
			</trkpt>
			<trkpt lat="47.87937" lon="15.06714">
				<ele>777.64</ele>
				<time>2025-07-28T23:36:13.606Z</time>
			</trkpt>
			<trkpt lat="47.87956" lon="15.06703">
				<ele>780.83</ele>
				<time>2025-07-28T23:36:14.905Z</time>
			</trkpt>
			<trkpt lat="47.87975" lon="15.06701">
				<ele>783.86</ele>
				<time>2025-07-28T23:36:16.121Z</time>
			</trkpt>
			<trkpt lat="47.88097" lon="15.06727">
				<ele>789.01</ele>
				<time>2025-07-28T23:36:24.003Z</time>
			</trkpt>
			<trkpt lat="47.8812" lon="15.0673">
				<ele>793.54</ele>
				<time>2025-07-28T23:36:25.484Z</time>
			</trkpt>
			<trkpt lat="47.88142" lon="15.0673">
				<ele>797.6</ele>
				<time>2025-07-28T23:36:26.896Z</time>
			</trkpt>
			<trkpt lat="47.88177" lon="15.06724">
				<ele>798.59</ele>
				<time>2025-07-28T23:36:29.159Z</time>
			</trkpt>
			<trkpt lat="47.88216" lon="15.06705">
				<ele>796.95</ele>
				<time>2025-07-28T23:36:31.799Z</time>
			</trkpt>
			<trkpt lat="47.88246" lon="15.06684">
				<ele>791.42</ele>
				<time>2025-07-28T23:36:33.935Z</time>
			</trkpt>
			<trkpt lat="47.88276" lon="15.06651">
				<ele>781.77</ele>
				<time>2025-07-28T23:36:36.340Z</time>
			</trkpt>
			<trkpt lat="47.88301" lon="15.06614">
				<ele>775.73</ele>
				<time>2025-07-28T23:36:38.615Z</time>
			</trkpt>
			<trkpt lat="47.88321" lon="15.06588">
				<ele>775.97</ele>
				<time>2025-07-28T23:36:40.331Z</time>
			</trkpt>
			<trkpt lat="47.88334" lon="15.06575">
				<ele>776.37</ele>
				<time>2025-07-28T23:36:41.344Z</time>
			</trkpt>
			<trkpt lat="47.8836" lon="15.06559">
				<ele>776.58</ele>
				<time>2025-07-28T23:36:43.166Z</time>
			</trkpt>
			<trkpt lat="47.88424" lon="15.06533">
				<ele>770.69</ele>
				<time>2025-07-28T23:36:47.470Z</time>
			</trkpt>
			<trkpt lat="47.88501" lon="15.06508">
				<ele>765.19</ele>
				<time>2025-07-28T23:36:52.597Z</time>
			</trkpt>
			<trkpt lat="47.88529" lon="15.06507">
				<ele>764.34</ele>
				<time>2025-07-28T23:36:54.423Z</time>
			</trkpt>
			<trkpt lat="47.88648" lon="15.06513">
				<ele>751.55</ele>
				<time>2025-07-28T23:37:02.206Z</time>
			</trkpt>
			<trkpt lat="47.88666" lon="15.0651">
				<ele>748.61</ele>
				<time>2025-07-28T23:37:03.394Z</time>
			</trkpt>
			<trkpt lat="47.88685" lon="15.065">
				<ele>751.71</ele>
				<time>2025-07-28T23:37:04.715Z</time>
			</trkpt>
			<trkpt lat="47.88696" lon="15.06489">
				<ele>753.42</ele>
				<time>2025-07-28T23:37:05.584Z</time>
			</trkpt>
			<trkpt lat="47.88709" lon="15.06469">
				<ele>755.55</ele>
				<time>2025-07-28T23:37:06.811Z</time>
			</trkpt>
			<trkpt lat="47.88717" lon="15.06452">
				<ele>755.74</ele>
				<time>2025-07-28T23:37:07.726Z</time>
			</trkpt>
			<trkpt lat="47.88733" lon="15.06402">
				<ele>751.97</ele>
				<time>2025-07-28T23:37:10.169Z</time>
			</trkpt>
			<trkpt lat="47.88751" lon="15.06357">
				<ele>749.81</ele>
				<time>2025-07-28T23:37:12.483Z</time>
			</trkpt>
			<trkpt lat="47.8877" lon="15.0632">
				<ele>749.1</ele>
				<time>2025-07-28T23:37:14.544Z</time>
			</trkpt>
			<trkpt lat="47.88862" lon="15.06166">
				<ele>735.97</ele>
				<time>2025-07-28T23:37:23.693Z</time>
			</trkpt>
			<trkpt lat="47.88871" lon="15.06146">
				<ele>734.02</ele>
				<time>2025-07-28T23:37:24.765Z</time>
			</trkpt>
			<trkpt lat="47.88877" lon="15.0612">
				<ele>730.83</ele>
				<time>2025-07-28T23:37:25.989Z</time>
			</trkpt>
			<trkpt lat="47.89016" lon="15.06132">
				<ele>722.93</ele>
				<time>2025-07-28T23:37:35.260Z</time>
			</trkpt>
			<trkpt lat="47.89177" lon="15.06154">
				<ele>726.07</ele>
				<time>2025-07-28T23:37:46.088Z</time>
			</trkpt>
			<trkpt lat="47.89259" lon="15.06164">
				<ele>730.8</ele>
				<time>2025-07-28T23:37:51.624Z</time>
			</trkpt>
			<trkpt lat="47.89322" lon="15.06166">
				<ele>724.16</ele>
				<time>2025-07-28T23:37:55.883Z</time>
			</trkpt>
			<trkpt lat="47.89345" lon="15.06161">
				<ele>720.96</ele>
				<time>2025-07-28T23:37:57.464Z</time>
			</trkpt>
			<trkpt lat="47.89355" lon="15.06157">
				<ele>719.43</ele>
				<time>2025-07-28T23:37:58.170Z</time>
			</trkpt>
			<trkpt lat="47.89372" lon="15.06145">
				<ele>716.45</ele>
				<time>2025-07-28T23:37:59.455Z</time>
			</trkpt>
			<trkpt lat="47.89384" lon="15.06131">
				<ele>713.98</ele>
				<time>2025-07-28T23:38:00.498Z</time>
			</trkpt>
			<trkpt lat="47.89394" lon="15.06114">
				<ele>711.74</ele>
				<time>2025-07-28T23:38:01.539Z</time>
			</trkpt>
			<trkpt lat="47.894" lon="15.06096">
				<ele>709.85</ele>
				<time>2025-07-28T23:38:02.466Z</time>
			</trkpt>
			<trkpt lat="47.89403" lon="15.06073">
				<ele>707.88</ele>
				<time>2025-07-28T23:38:03.549Z</time>
			</trkpt>
			<trkpt lat="47.89401" lon="15.06047">
				<ele>705.63</ele>
				<time>2025-07-28T23:38:04.761Z</time>
			</trkpt>
			<trkpt lat="47.89396" lon="15.06017">
				<ele>701.63</ele>
				<time>2025-07-28T23:38:06.196Z</time>
			</trkpt>
			<trkpt lat="47.89387" lon="15.05991">
				<ele>697.32</ele>
				<time>2025-07-28T23:38:07.559Z</time>
			</trkpt>
			<trkpt lat="47.89356" lon="15.05916">
				<ele>690.7</ele>
				<time>2025-07-28T23:38:11.685Z</time>
			</trkpt>
			<trkpt lat="47.89348" lon="15.0589">
				<ele>689.35</ele>
				<time>2025-07-28T23:38:13.031Z</time>
			</trkpt>
			<trkpt lat="47.89345" lon="15.05864">
				<ele>687.58</ele>
				<time>2025-07-28T23:38:14.276Z</time>
			</trkpt>
			<trkpt lat="47.89346" lon="15.05835">
				<ele>684.32</ele>
				<time>2025-07-28T23:38:15.650Z</time>
			</trkpt>
			<trkpt lat="47.89348" lon="15.05821">
				<ele>683.43</ele>
				<time>2025-07-28T23:38:16.328Z</time>
			</trkpt>
			<trkpt lat="47.89357" lon="15.05798">
				<ele>680.79</ele>
				<time>2025-07-28T23:38:17.592Z</time>
			</trkpt>
			<trkpt lat="47.89363" lon="15.05788">
				<ele>679.07</ele>
				<time>2025-07-28T23:38:18.230Z</time>
			</trkpt>
			<trkpt lat="47.8937" lon="15.05781">
				<ele>678.07</ele>
				<time>2025-07-28T23:38:18.829Z</time>
			</trkpt>
			<trkpt lat="47.89385" lon="15.0577">
				<ele>676.11</ele>
				<time>2025-07-28T23:38:20.018Z</time>
			</trkpt>
			<trkpt lat="47.89394" lon="15.05768">
				<ele>674.66</ele>
				<time>2025-07-28T23:38:20.666Z</time>
			</trkpt>
			<trkpt lat="47.89414" lon="15.05769">
				<ele>671.55</ele>
				<time>2025-07-28T23:38:22.094Z</time>
			</trkpt>
			<trkpt lat="47.89432" lon="15.05779">
				<ele>666.51</ele>
				<time>2025-07-28T23:38:23.468Z</time>
			</trkpt>
			<trkpt lat="47.89447" lon="15.05797">
				<ele>663.76</ele>
				<time>2025-07-28T23:38:24.849Z</time>
			</trkpt>
			<trkpt lat="47.89459" lon="15.05819">
				<ele>662.75</ele>
				<time>2025-07-28T23:38:26.216Z</time>
			</trkpt>
			<trkpt lat="47.89488" lon="15.05896">
				<ele>664.16</ele>
				<time>2025-07-28T23:38:30.493Z</time>
			</trkpt>
			<trkpt lat="47.89503" lon="15.05929">
				<ele>666.34</ele>
				<time>2025-07-28T23:38:32.434Z</time>
			</trkpt>
			<trkpt lat="47.89531" lon="15.05974">
				<ele>662.28</ele>
				<time>2025-07-28T23:38:35.434Z</time>
			</trkpt>
			<trkpt lat="47.89563" lon="15.06012">
				<ele>653.33</ele>
				<time>2025-07-28T23:38:38.430Z</time>
			</trkpt>
			<trkpt lat="47.89596" lon="15.06071">
				<ele>650.4</ele>
				<time>2025-07-28T23:38:42.223Z</time>
			</trkpt>
			<trkpt lat="47.89608" lon="15.06083">
				<ele>648.21</ele>
				<time>2025-07-28T23:38:43.290Z</time>
			</trkpt>
			<trkpt lat="47.89616" lon="15.06088">
				<ele>646.46</ele>
				<time>2025-07-28T23:38:43.932Z</time>
			</trkpt>
			<trkpt lat="47.8967" lon="15.06107">
				<ele>634.76</ele>
				<time>2025-07-28T23:38:48.051Z</time>
			</trkpt>
			<trkpt lat="47.89678" lon="15.06113">
				<ele>633.13</ele>
				<time>2025-07-28T23:38:48.718Z</time>
			</trkpt>
			<trkpt lat="47.89695" lon="15.06129">
				<ele>630.59</ele>
				<time>2025-07-28T23:38:50.218Z</time>
			</trkpt>
			<trkpt lat="47.89727" lon="15.06178">
				<ele>632.33</ele>
				<time>2025-07-28T23:38:53.652Z</time>
			</trkpt>
			<trkpt lat="47.8974" lon="15.06194">
				<ele>632.44</ele>
				<time>2025-07-28T23:38:54.918Z</time>
			</trkpt>
			<trkpt lat="47.89766" lon="15.06209">
				<ele>629.43</ele>
				<time>2025-07-28T23:38:57.017Z</time>
			</trkpt>
			<trkpt lat="47.89808" lon="15.06222">
				<ele>619.28</ele>
				<time>2025-07-28T23:39:00.258Z</time>
			</trkpt>
			<trkpt lat="47.89824" lon="15.06234">
				<ele>619.02</ele>
				<time>2025-07-28T23:39:01.615Z</time>
			</trkpt>
			<trkpt lat="47.89838" lon="15.06249">
				<ele>620.22</ele>
				<time>2025-07-28T23:39:02.924Z</time>
			</trkpt>
			<trkpt lat="47.89851" lon="15.06272">
				<ele>621.9</ele>
				<time>2025-07-28T23:39:04.458Z</time>
			</trkpt>
			<trkpt lat="47.8991" lon="15.06406">
				<ele>613.89</ele>
				<time>2025-07-28T23:39:12.682Z</time>
			</trkpt>
			<trkpt lat="47.89929" lon="15.06446">
				<ele>612.15</ele>
				<time>2025-07-28T23:39:15.213Z</time>
			</trkpt>
			<trkpt lat="47.89944" lon="15.06465">
				<ele>611.14</ele>
				<time>2025-07-28T23:39:16.732Z</time>
			</trkpt>
			<trkpt lat="47.89979" lon="15.0649">
				<ele>606.34</ele>
				<time>2025-07-28T23:39:19.735Z</time>
			</trkpt>
			<trkpt lat="47.89984" lon="15.06496">
				<ele>605.92</ele>
				<time>2025-07-28T23:39:20.233Z</time>
			</trkpt>
			<trkpt lat="47.89994" lon="15.06512">
				<ele>604.58</ele>
				<time>2025-07-28T23:39:21.371Z</time>
			</trkpt>
			<trkpt lat="47.90003" lon="15.06537">
				<ele>602.37</ele>
				<time>2025-07-28T23:39:22.850Z</time>
			</trkpt>
			<trkpt lat="47.90007" lon="15.06555">
				<ele>601.15</ele>
				<time>2025-07-28T23:39:23.840Z</time>
			</trkpt>
			<trkpt lat="47.90016" lon="15.06622">
				<ele>593.4</ele>
				<time>2025-07-28T23:39:27.415Z</time>
			</trkpt>
			<trkpt lat="47.90023" lon="15.06652">
				<ele>590.74</ele>
				<time>2025-07-28T23:39:29.081Z</time>
			</trkpt>
			<trkpt lat="47.90034" lon="15.06674">
				<ele>590.83</ele>
				<time>2025-07-28T23:39:30.523Z</time>
			</trkpt>
			<trkpt lat="47.90049" lon="15.06691">
				<ele>589.62</ele>
				<time>2025-07-28T23:39:32.002Z</time>
			</trkpt>
			<trkpt lat="47.90114" lon="15.06732">
				<ele>578.66</ele>
				<time>2025-07-28T23:39:37.561Z</time>
			</trkpt>
			<trkpt lat="47.90164" lon="15.06776">
				<ele>575.23</ele>
				<time>2025-07-28T23:39:42.157Z</time>
			</trkpt>
			<trkpt lat="47.90209" lon="15.06817">
				<ele>574.09</ele>
				<time>2025-07-28T23:39:46.349Z</time>
			</trkpt>
			<trkpt lat="47.90244" lon="15.06859">
				<ele>568.3</ele>
				<time>2025-07-28T23:39:49.933Z</time>
			</trkpt>
			<trkpt lat="47.90304" lon="15.06946">
				<ele>557.05</ele>
				<time>2025-07-28T23:39:56.638Z</time>
			</trkpt>
			<trkpt lat="47.90341" lon="15.06997">
				<ele>555.2</ele>
				<time>2025-07-28T23:40:00.694Z</time>
			</trkpt>
			<trkpt lat="47.90401" lon="15.0707">
				<ele>547.54</ele>
				<time>2025-07-28T23:40:06.954Z</time>
			</trkpt>
			<trkpt lat="47.90482" lon="15.07158">
				<ele>539.11</ele>
				<time>2025-07-28T23:40:15.099Z</time>
			</trkpt>
			<trkpt lat="47.90497" lon="15.07173">
				<ele>536.08</ele>
				<time>2025-07-28T23:40:16.572Z</time>
			</trkpt>
			<trkpt lat="47.90518" lon="15.07188">
				<ele>536.13</ele>
				<time>2025-07-28T23:40:18.474Z</time>
			</trkpt>
			<trkpt lat="47.90538" lon="15.07198">
				<ele>533.79</ele>
				<time>2025-07-28T23:40:20.199Z</time>
			</trkpt>
			<trkpt lat="47.90557" lon="15.07204">
				<ele>531.47</ele>
				<time>2025-07-28T23:40:21.789Z</time>
			</trkpt>
			<trkpt lat="47.90576" lon="15.07205">
				<ele>528.9</ele>
				<time>2025-07-28T23:40:23.347Z</time>
			</trkpt>
			<trkpt lat="47.90597" lon="15.07202">
				<ele>528.46</ele>
				<time>2025-07-28T23:40:25.078Z</time>
			</trkpt>
			<trkpt lat="47.90665" lon="15.07173">
				<ele>521.8</ele>
				<time>2025-07-28T23:40:30.895Z</time>
			</trkpt>
			<trkpt lat="47.90797" lon="15.07145">
				<ele>510.16</ele>
				<time>2025-07-28T23:40:41.917Z</time>
			</trkpt>
			<trkpt lat="47.90879" lon="15.07114">
				<ele>502.12</ele>
				<time>2025-07-28T23:40:48.947Z</time>
			</trkpt>
			<trkpt lat="47.90908" lon="15.07106">
				<ele>500.08</ele>
				<time>2025-07-28T23:40:51.403Z</time>
			</trkpt>
			<trkpt lat="47.90925" lon="15.07104">
				<ele>498.08</ele>
				<time>2025-07-28T23:40:52.825Z</time>
			</trkpt>
			<trkpt lat="47.90945" lon="15.07105">
				<ele>495.71</ele>
				<time>2025-07-28T23:40:54.495Z</time>
			</trkpt>
			<trkpt lat="47.91029" lon="15.07118">
				<ele>494.92</ele>
				<time>2025-07-28T23:41:01.557Z</time>
			</trkpt>
			<trkpt lat="47.91095" lon="15.07132">
				<ele>491.91</ele>
				<time>2025-07-28T23:41:07.148Z</time>
			</trkpt>
			<trkpt lat="47.91111" lon="15.07137">
				<ele>492.56</ele>
				<time>2025-07-28T23:41:08.521Z</time>
			</trkpt>
			<trkpt lat="47.91129" lon="15.07145">
				<ele>492.46</ele>
				<time>2025-07-28T23:41:10.100Z</time>
			</trkpt>
			<trkpt lat="47.91152" lon="15.07161">
				<ele>490.91</ele>
				<time>2025-07-28T23:41:12.234Z</time>
			</trkpt>
			<trkpt lat="47.91207" lon="15.07211">
				<ele>488.98</ele>
				<time>2025-07-28T23:41:17.659Z</time>
			</trkpt>
			<trkpt lat="47.91223" lon="15.07223">
				<ele>485.01</ele>
				<time>2025-07-28T23:41:19.169Z</time>
			</trkpt>
			<trkpt lat="47.91264" lon="15.07242">
				<ele>482.96</ele>
				<time>2025-07-28T23:41:22.793Z</time>
			</trkpt>
			<trkpt lat="47.913" lon="15.0725">
				<ele>481.28</ele>
				<time>2025-07-28T23:41:25.869Z</time>
			</trkpt>
			<trkpt lat="47.91341" lon="15.07256">
				<ele>476.82</ele>
				<time>2025-07-28T23:41:29.355Z</time>
			</trkpt>
			<trkpt lat="47.91378" lon="15.07267">
				<ele>477.52</ele>
				<time>2025-07-28T23:41:32.550Z</time>
			</trkpt>
			<trkpt lat="47.91402" lon="15.0728">
				<ele>479.06</ele>
				<time>2025-07-28T23:41:34.714Z</time>
			</trkpt>
			<trkpt lat="47.91427" lon="15.07301">
				<ele>477.1</ele>
				<time>2025-07-28T23:41:37.148Z</time>
			</trkpt>
			<trkpt lat="47.91439" lon="15.07314">
				<ele>476.38</ele>
				<time>2025-07-28T23:41:38.406Z</time>
			</trkpt>
			<trkpt lat="47.91459" lon="15.07341">
				<ele>475.14</ele>
				<time>2025-07-28T23:41:40.696Z</time>
			</trkpt>
			<trkpt lat="47.91524" lon="15.07463">
				<ele>464.83</ele>
				<time>2025-07-28T23:41:49.576Z</time>
			</trkpt>
			<trkpt lat="47.91564" lon="15.07526">
				<ele>468.28</ele>
				<time>2025-07-28T23:41:54.528Z</time>
			</trkpt>
			<trkpt lat="47.91582" lon="15.07551">
				<ele>468.14</ele>
				<time>2025-07-28T23:41:56.624Z</time>
			</trkpt>
			<trkpt lat="47.91616" lon="15.0759">
				<ele>464.6</ele>
				<time>2025-07-28T23:42:00.279Z</time>
			</trkpt>
			<trkpt lat="47.91639" lon="15.07609">
				<ele>465.01</ele>
				<time>2025-07-28T23:42:02.522Z</time>
			</trkpt>
			<trkpt lat="47.91688" lon="15.07643">
				<ele>466.51</ele>
				<time>2025-07-28T23:42:07.133Z</time>
			</trkpt>
			<trkpt lat="47.91701" lon="15.07654">
				<ele>468.05</ele>
				<time>2025-07-28T23:42:08.409Z</time>
			</trkpt>
			<trkpt lat="47.91713" lon="15.07668">
				<ele>469.36</ele>
				<time>2025-07-28T23:42:09.709Z</time>
			</trkpt>
			<trkpt lat="47.91725" lon="15.07684">
				<ele>469.09</ele>
				<time>2025-07-28T23:42:11.083Z</time>
			</trkpt>
			<trkpt lat="47.91752" lon="15.07738">
				<ele>461.69</ele>
				<time>2025-07-28T23:42:14.940Z</time>
			</trkpt>
			<trkpt lat="47.91773" lon="15.07772">
				<ele>457.75</ele>
				<time>2025-07-28T23:42:17.588Z</time>
			</trkpt>
			<trkpt lat="47.91797" lon="15.07797">
				<ele>455.56</ele>
				<time>2025-07-28T23:42:20.089Z</time>
			</trkpt>
			<trkpt lat="47.91828" lon="15.07815">
				<ele>455.37</ele>
				<time>2025-07-28T23:42:22.933Z</time>
			</trkpt>
			<trkpt lat="47.91885" lon="15.0784">
				<ele>459.13</ele>
				<time>2025-07-28T23:42:28.012Z</time>
			</trkpt>
			<trkpt lat="47.91983" lon="15.07873">
				<ele>451.99</ele>
				<time>2025-07-28T23:42:36.603Z</time>
			</trkpt>
			<trkpt lat="47.92002" lon="15.07882">
				<ele>449.82</ele>
				<time>2025-07-28T23:42:38.308Z</time>
			</trkpt>
			<trkpt lat="47.92025" lon="15.07898">
				<ele>448.91</ele>
				<time>2025-07-28T23:42:40.478Z</time>
			</trkpt>
			<trkpt lat="47.92041" lon="15.07912">
				<ele>449.17</ele>
				<time>2025-07-28T23:42:42.064Z</time>
			</trkpt>
			<trkpt lat="47.92057" lon="15.07928">
				<ele>450.09</ele>
				<time>2025-07-28T23:42:43.711Z</time>
			</trkpt>
			<trkpt lat="47.92207" lon="15.08121">
				<ele>445.27</ele>
				<time>2025-07-28T23:43:00.638Z</time>
			</trkpt>
			<trkpt lat="47.92231" lon="15.08147">
				<ele>444.52</ele>
				<time>2025-07-28T23:43:03.170Z</time>
			</trkpt>
			<trkpt lat="47.92268" lon="15.08176">
				<ele>444.77</ele>
				<time>2025-07-28T23:43:06.737Z</time>
			</trkpt>
			<trkpt lat="47.92319" lon="15.08204">
				<ele>442.5</ele>
				<time>2025-07-28T23:43:11.373Z</time>
			</trkpt>
			<trkpt lat="47.92366" lon="15.08223">
				<ele>443.04</ele>
				<time>2025-07-28T23:43:15.523Z</time>
			</trkpt>
			<trkpt lat="47.92397" lon="15.08241">
				<ele>443.47</ele>
				<time>2025-07-28T23:43:18.357Z</time>
			</trkpt>
			<trkpt lat="47.92419" lon="15.08258">
				<ele>443.41</ele>
				<time>2025-07-28T23:43:20.466Z</time>
			</trkpt>
			<trkpt lat="47.92477" lon="15.08318">
				<ele>439.74</ele>
				<time>2025-07-28T23:43:26.470Z</time>
			</trkpt>
			<trkpt lat="47.92627" lon="15.0849">
				<ele>435.4</ele>
				<time>2025-07-28T23:43:42.518Z</time>
			</trkpt>
			<trkpt lat="47.9266" lon="15.08524">
				<ele>434.1</ele>
				<time>2025-07-28T23:43:45.911Z</time>
			</trkpt>
			<trkpt lat="47.92732" lon="15.08602">
				<ele>434.91</ele>
				<time>2025-07-28T23:43:53.424Z</time>
			</trkpt>
			<trkpt lat="47.92754" lon="15.08631">
				<ele>435.14</ele>
				<time>2025-07-28T23:43:55.898Z</time>
			</trkpt>
			<trkpt lat="47.92804" lon="15.08708">
				<ele>429.51</ele>
				<time>2025-07-28T23:44:01.944Z</time>
			</trkpt>
			<trkpt lat="47.92816" lon="15.08729">
				<ele>429</ele>
				<time>2025-07-28T23:44:03.498Z</time>
			</trkpt>
			<trkpt lat="47.92828" lon="15.08752">
				<ele>429</ele>
				<time>2025-07-28T23:44:05.138Z</time>
			</trkpt>
			<trkpt lat="47.92839" lon="15.08769">
				<ele>428.77</ele>
				<time>2025-07-28T23:44:06.467Z</time>
			</trkpt>
			<trkpt lat="47.92855" lon="15.08782">
				<ele>428.16</ele>
				<time>2025-07-28T23:44:07.995Z</time>
			</trkpt>
			<trkpt lat="47.92939" lon="15.08826">
				<ele>426.89</ele>
				<time>2025-07-28T23:44:15.445Z</time>
			</trkpt>
			<trkpt lat="47.92973" lon="15.08852">
				<ele>425.5</ele>
				<time>2025-07-28T23:44:18.635Z</time>
			</trkpt>
			<trkpt lat="47.93064" lon="15.08929">
				<ele>428.19</ele>
				<time>2025-07-28T23:44:27.341Z</time>
			</trkpt>
			<trkpt lat="47.93098" lon="15.08947">
				<ele>428.97</ele>
				<time>2025-07-28T23:44:30.335Z</time>
			</trkpt>
			<trkpt lat="47.93153" lon="15.08971">
				<ele>430.66</ele>
				<time>2025-07-28T23:44:35.079Z</time>
			</trkpt>
			<trkpt lat="47.93172" lon="15.08983">
				<ele>432.41</ele>
				<time>2025-07-28T23:44:36.784Z</time>
			</trkpt>
			<trkpt lat="47.93188" lon="15.08997">
				<ele>436.1</ele>
				<time>2025-07-28T23:44:38.315Z</time>
			</trkpt>
			<trkpt lat="47.93201" lon="15.09013">
				<ele>439.12</ele>
				<time>2025-07-28T23:44:39.705Z</time>
			</trkpt>
			<trkpt lat="47.93214" lon="15.09032">
				<ele>439.6</ele>
				<time>2025-07-28T23:44:41.204Z</time>
			</trkpt>
			<trkpt lat="47.93222" lon="15.09048">
				<ele>437.66</ele>
				<time>2025-07-28T23:44:42.306Z</time>
			</trkpt>
			<trkpt lat="47.93258" lon="15.09139">
				<ele>427.53</ele>
				<time>2025-07-28T23:44:48.123Z</time>
			</trkpt>
			<trkpt lat="47.93269" lon="15.09158">
				<ele>426.7</ele>
				<time>2025-07-28T23:44:49.502Z</time>
			</trkpt>
			<trkpt lat="47.93302" lon="15.09208">
				<ele>424.21</ele>
				<time>2025-07-28T23:44:53.349Z</time>
			</trkpt>
			<trkpt lat="47.93322" lon="15.09242">
				<ele>424.09</ele>
				<time>2025-07-28T23:44:55.824Z</time>
			</trkpt>
			<trkpt lat="47.93363" lon="15.09342">
				<ele>421.94</ele>
				<time>2025-07-28T23:45:02.216Z</time>
			</trkpt>
			<trkpt lat="47.9338" lon="15.09372">
				<ele>421.36</ele>
				<time>2025-07-28T23:45:04.352Z</time>
			</trkpt>
			<trkpt lat="47.93435" lon="15.09438">
				<ele>417.29</ele>
				<time>2025-07-28T23:45:10.059Z</time>
			</trkpt>
			<trkpt lat="47.9353" lon="15.09529">
				<ele>416.43</ele>
				<time>2025-07-28T23:45:19.134Z</time>
			</trkpt>
			<trkpt lat="47.9354" lon="15.09544">
				<ele>417.82</ele>
				<time>2025-07-28T23:45:20.269Z</time>
			</trkpt>
			<trkpt lat="47.93551" lon="15.09562">
				<ele>418.75</ele>
				<time>2025-07-28T23:45:21.574Z</time>
			</trkpt>
			<trkpt lat="47.93586" lon="15.09634">
				<ele>421.7</ele>
				<time>2025-07-28T23:45:26.326Z</time>
			</trkpt>
			<trkpt lat="47.93598" lon="15.09652">
				<ele>420.25</ele>
				<time>2025-07-28T23:45:27.679Z</time>
			</trkpt>
			<trkpt lat="47.93617" lon="15.09672">
				<ele>417.28</ele>
				<time>2025-07-28T23:45:29.525Z</time>
			</trkpt>
			<trkpt lat="47.93641" lon="15.09688">
				<ele>416.47</ele>
				<time>2025-07-28T23:45:31.608Z</time>
			</trkpt>
			<trkpt lat="47.93711" lon="15.09716">
				<ele>413.84</ele>
				<time>2025-07-28T23:45:37.329Z</time>
			</trkpt>
			<trkpt lat="47.93735" lon="15.0973">
				<ele>412.77</ele>
				<time>2025-07-28T23:45:39.356Z</time>
			</trkpt>
			<trkpt lat="47.93761" lon="15.09753">
				<ele>410.97</ele>
				<time>2025-07-28T23:45:41.728Z</time>
			</trkpt>
			<trkpt lat="47.93782" lon="15.09783">
				<ele>410.97</ele>
				<time>2025-07-28T23:45:44.003Z</time>
			</trkpt>
			<trkpt lat="47.93826" lon="15.0987">
				<ele>413.89</ele>
				<time>2025-07-28T23:45:49.696Z</time>
			</trkpt>
			<trkpt lat="47.93862" lon="15.09934">
				<ele>410.96</ele>
				<time>2025-07-28T23:45:54.036Z</time>
			</trkpt>
			<trkpt lat="47.93891" lon="15.09975">
				<ele>410.06</ele>
				<time>2025-07-28T23:45:57.119Z</time>
			</trkpt>
			<trkpt lat="47.93919" lon="15.1001">
				<ele>406.03</ele>
				<time>2025-07-28T23:45:59.929Z</time>
			</trkpt>
			<trkpt lat="47.9396" lon="15.10044">
				<ele>405.34</ele>
				<time>2025-07-28T23:46:03.523Z</time>
			</trkpt>
			<trkpt lat="47.9398" lon="15.10058">
				<ele>406.31</ele>
				<time>2025-07-28T23:46:05.210Z</time>
			</trkpt>
			<trkpt lat="47.94034" lon="15.10086">
				<ele>403.23</ele>
				<time>2025-07-28T23:46:09.561Z</time>
			</trkpt>
			<trkpt lat="47.94055" lon="15.10101">
				<ele>402.04</ele>
				<time>2025-07-28T23:46:11.325Z</time>
			</trkpt>
			<trkpt lat="47.94073" lon="15.10118">
				<ele>400.87</ele>
				<time>2025-07-28T23:46:12.936Z</time>
			</trkpt>
			<trkpt lat="47.94089" lon="15.10136">
				<ele>400.57</ele>
				<time>2025-07-28T23:46:14.448Z</time>
			</trkpt>
			<trkpt lat="47.94104" lon="15.10102">
				<ele>402.22</ele>
				<time>2025-07-28T23:46:16.502Z</time>
			</trkpt>
			<trkpt lat="47.9411" lon="15.10074">
				<ele>402.39</ele>
				<time>2025-07-28T23:46:17.981Z</time>
			</trkpt>
			<trkpt lat="47.94111" lon="15.10057">
				<ele>402.92</ele>
				<time>2025-07-28T23:46:18.839Z</time>
			</trkpt>
			<trkpt lat="47.94109" lon="15.10007">
				<ele>405.51</ele>
				<time>2025-07-28T23:46:21.349Z</time>
			</trkpt>
			<trkpt lat="47.9411" lon="15.09966">
				<ele>405.63</ele>
				<time>2025-07-28T23:46:23.399Z</time>
			</trkpt>
			<trkpt lat="47.94114" lon="15.09903">
				<ele>411.5</ele>
				<time>2025-07-28T23:46:26.549Z</time>
			</trkpt>
			<trkpt lat="47.94118" lon="15.09882">
				<ele>414.03</ele>
				<time>2025-07-28T23:46:27.633Z</time>
			</trkpt>
			<trkpt lat="47.94124" lon="15.09862">
				<ele>414.55</ele>
				<time>2025-07-28T23:46:28.718Z</time>
			</trkpt>
			<trkpt lat="47.94129" lon="15.09852">
				<ele>413.34</ele>
				<time>2025-07-28T23:46:29.336Z</time>
			</trkpt>
			<trkpt lat="47.94141" lon="15.09833">
				<ele>408.78</ele>
				<time>2025-07-28T23:46:30.626Z</time>
			</trkpt>
			<trkpt lat="47.94169" lon="15.09799">
				<ele>407.78</ele>
				<time>2025-07-28T23:46:33.280Z</time>
			</trkpt>
			<trkpt lat="47.94176" lon="15.09787">
				<ele>409.57</ele>
				<time>2025-07-28T23:46:34.062Z</time>
			</trkpt>
			<trkpt lat="47.94181" lon="15.09774">
				<ele>410.8</ele>
				<time>2025-07-28T23:46:34.798Z</time>
			</trkpt>
			<trkpt lat="47.94189" lon="15.09749">
				<ele>412.26</ele>
				<time>2025-07-28T23:46:36.155Z</time>
			</trkpt>
			<trkpt lat="47.94192" lon="15.0973">
				<ele>412.79</ele>
				<time>2025-07-28T23:46:37.110Z</time>
			</trkpt>
			<trkpt lat="47.94193" lon="15.09705">
				<ele>412.94</ele>
				<time>2025-07-28T23:46:38.332Z</time>
			</trkpt>
			<trkpt lat="47.94193" lon="15.09655">
				<ele>411.6</ele>
				<time>2025-07-28T23:46:40.766Z</time>
			</trkpt>
			<trkpt lat="47.94195" lon="15.09639">
				<ele>411.5</ele>
				<time>2025-07-28T23:46:41.556Z</time>
			</trkpt>
			<trkpt lat="47.94212" lon="15.09575">
				<ele>419.22</ele>
				<time>2025-07-28T23:46:44.887Z</time>
			</trkpt>
			<trkpt lat="47.94221" lon="15.09533">
				<ele>422.11</ele>
				<time>2025-07-28T23:46:47.012Z</time>
			</trkpt>
			<trkpt lat="47.9423" lon="15.09443">
				<ele>422.77</ele>
				<time>2025-07-28T23:46:51.380Z</time>
			</trkpt>
			<trkpt lat="47.94237" lon="15.09409">
				<ele>422.91</ele>
				<time>2025-07-28T23:46:53.083Z</time>
			</trkpt>
			<trkpt lat="47.94247" lon="15.09379">
				<ele>422.4</ele>
				<time>2025-07-28T23:46:54.684Z</time>
			</trkpt>
			<trkpt lat="47.94264" lon="15.09342">
				<ele>425.64</ele>
				<time>2025-07-28T23:46:56.823Z</time>
			</trkpt>
			<trkpt lat="47.94279" lon="15.09316">
				<ele>425.6</ele>
				<time>2025-07-28T23:46:58.456Z</time>
			</trkpt>
			<trkpt lat="47.94304" lon="15.09281">
				<ele>424.36</ele>
				<time>2025-07-28T23:47:00.886Z</time>
			</trkpt>
			<trkpt lat="47.94323" lon="15.09262">
				<ele>424.85</ele>
				<time>2025-07-28T23:47:02.505Z</time>
			</trkpt>
			<trkpt lat="47.94453" lon="15.09181">
				<ele>444.04</ele>
				<time>2025-07-28T23:47:12.415Z</time>
			</trkpt>
			<trkpt lat="47.94468" lon="15.09176">
				<ele>447.07</ele>
				<time>2025-07-28T23:47:13.491Z</time>
			</trkpt>
			<trkpt lat="47.94481" lon="15.09175">
				<ele>445.78</ele>
				<time>2025-07-28T23:47:14.401Z</time>
			</trkpt>
			<trkpt lat="47.94591" lon="15.09221">
				<ele>423.73</ele>
				<time>2025-07-28T23:47:22.353Z</time>
			</trkpt>
			<trkpt lat="47.94615" lon="15.09221">
				<ele>423.04</ele>
				<time>2025-07-28T23:47:24.016Z</time>
			</trkpt>
			<trkpt lat="47.94644" lon="15.09216">
				<ele>423.73</ele>
				<time>2025-07-28T23:47:26.036Z</time>
			</trkpt>
			<trkpt lat="47.9466" lon="15.09207">
				<ele>425.18</ele>
				<time>2025-07-28T23:47:27.217Z</time>
			</trkpt>
			<trkpt lat="47.94674" lon="15.09193">
				<ele>426</ele>
				<time>2025-07-28T23:47:28.380Z</time>
			</trkpt>
			<trkpt lat="47.94703" lon="15.09157">
				<ele>426.82</ele>
				<time>2025-07-28T23:47:30.978Z</time>
			</trkpt>
			<trkpt lat="47.94732" lon="15.09113">
				<ele>428.8</ele>
				<time>2025-07-28T23:47:33.819Z</time>
			</trkpt>
			<trkpt lat="47.94891" lon="15.08881">
				<ele>429.57</ele>
				<time>2025-07-28T23:47:48.975Z</time>
			</trkpt>
			<trkpt lat="47.94911" lon="15.08842">
				<ele>431.7</ele>
				<time>2025-07-28T23:47:51.201Z</time>
			</trkpt>
			<trkpt lat="47.94918" lon="15.08822">
				<ele>432.59</ele>
				<time>2025-07-28T23:47:52.223Z</time>
			</trkpt>
			<trkpt lat="47.94928" lon="15.08788">
				<ele>434.67</ele>
				<time>2025-07-28T23:47:53.902Z</time>
			</trkpt>
			<trkpt lat="47.94937" lon="15.08724">
				<ele>437.98</ele>
				<time>2025-07-28T23:47:56.853Z</time>
			</trkpt>
			<trkpt lat="47.95012" lon="15.08034">
				<ele>449.87</ele>
				<time>2025-07-28T23:48:27.995Z</time>
			</trkpt>
			<trkpt lat="47.95015" lon="15.07985">
				<ele>450.72</ele>
				<time>2025-07-28T23:48:30.161Z</time>
			</trkpt>
			<trkpt lat="47.95016" lon="15.07704">
				<ele>458.2</ele>
				<time>2025-07-28T23:48:42.481Z</time>
			</trkpt>
			<trkpt lat="47.95018" lon="15.07663">
				<ele>457.74</ele>
				<time>2025-07-28T23:48:44.275Z</time>
			</trkpt>
			<trkpt lat="47.9507" lon="15.07218">
				<ele>471.88</ele>
				<time>2025-07-28T23:49:03.887Z</time>
			</trkpt>
			<trkpt lat="47.9508" lon="15.07161">
				<ele>475.13</ele>
				<time>2025-07-28T23:49:06.432Z</time>
			</trkpt>
			<trkpt lat="47.95085" lon="15.07144">
				<ele>475.17</ele>
				<time>2025-07-28T23:49:07.233Z</time>
			</trkpt>
			<trkpt lat="47.95095" lon="15.0712">
				<ele>475.72</ele>
				<time>2025-07-28T23:49:08.453Z</time>
			</trkpt>
			<trkpt lat="47.9514" lon="15.07035">
				<ele>477.09</ele>
				<time>2025-07-28T23:49:13.121Z</time>
			</trkpt>
			<trkpt lat="47.95165" lon="15.06979">
				<ele>476.6</ele>
				<time>2025-07-28T23:49:16.016Z</time>
			</trkpt>
			<trkpt lat="47.95236" lon="15.06785">
				<ele>483.45</ele>
				<time>2025-07-28T23:49:25.507Z</time>
			</trkpt>
			<trkpt lat="47.9538" lon="15.06471">
				<ele>479.39</ele>
				<time>2025-07-28T23:49:41.784Z</time>
			</trkpt>
			<trkpt lat="47.95413" lon="15.06397">
				<ele>477.16</ele>
				<time>2025-07-28T23:49:45.578Z</time>
			</trkpt>
			<trkpt lat="47.95426" lon="15.06351">
				<ele>478</ele>
				<time>2025-07-28T23:49:47.707Z</time>
			</trkpt>
			<trkpt lat="47.95433" lon="15.063">
				<ele>477.54</ele>
				<time>2025-07-28T23:49:49.927Z</time>
			</trkpt>
			<trkpt lat="47.95445" lon="15.06154">
				<ele>473.61</ele>
				<time>2025-07-28T23:49:56.195Z</time>
			</trkpt>
			<trkpt lat="47.95455" lon="15.06056">
				<ele>473.59</ele>
				<time>2025-07-28T23:50:00.417Z</time>
			</trkpt>
			<trkpt lat="47.95465" lon="15.06014">
				<ele>472.64</ele>
				<time>2025-07-28T23:50:02.315Z</time>
			</trkpt>
			<trkpt lat="47.95475" lon="15.05988">
				<ele>472.11</ele>
				<time>2025-07-28T23:50:03.592Z</time>
			</trkpt>
			<trkpt lat="47.95504" lon="15.05924">
				<ele>469.65</ele>
				<time>2025-07-28T23:50:06.882Z</time>
			</trkpt>
			<trkpt lat="47.95515" lon="15.05892">
				<ele>468.21</ele>
				<time>2025-07-28T23:50:08.413Z</time>
			</trkpt>
			<trkpt lat="47.95521" lon="15.05863">
				<ele>467.8</ele>
				<time>2025-07-28T23:50:09.705Z</time>
			</trkpt>
			<trkpt lat="47.95528" lon="15.05815">
				<ele>468</ele>
				<time>2025-07-28T23:50:11.796Z</time>
			</trkpt>
			<trkpt lat="47.95531" lon="15.05801">
				<ele>468.12</ele>
				<time>2025-07-28T23:50:12.422Z</time>
			</trkpt>
			<trkpt lat="47.95539" lon="15.05773">
				<ele>468.32</ele>
				<time>2025-07-28T23:50:13.718Z</time>
			</trkpt>
			<trkpt lat="47.95565" lon="15.05711">
				<ele>469.35</ele>
				<time>2025-07-28T23:50:16.832Z</time>
			</trkpt>
			<trkpt lat="47.95574" lon="15.05686">
				<ele>469.6</ele>
				<time>2025-07-28T23:50:18.040Z</time>
			</trkpt>
			<trkpt lat="47.95578" lon="15.0567">
				<ele>469.69</ele>
				<time>2025-07-28T23:50:18.768Z</time>
			</trkpt>
			<trkpt lat="47.95583" lon="15.05647">
				<ele>469.3</ele>
				<time>2025-07-28T23:50:19.797Z</time>
			</trkpt>
			<trkpt lat="47.95586" lon="15.05594">
				<ele>468.39</ele>
				<time>2025-07-28T23:50:22.062Z</time>
			</trkpt>
			<trkpt lat="47.95589" lon="15.05562">
				<ele>467.42</ele>
				<time>2025-07-28T23:50:23.438Z</time>
			</trkpt>
			<trkpt lat="47.95607" lon="15.05482">
				<ele>466.3</ele>
				<time>2025-07-28T23:50:27.034Z</time>
			</trkpt>
			<trkpt lat="47.95612" lon="15.05441">
				<ele>464.88</ele>
				<time>2025-07-28T23:50:28.809Z</time>
			</trkpt>
			<trkpt lat="47.95613" lon="15.05404">
				<ele>463.66</ele>
				<time>2025-07-28T23:50:30.388Z</time>
			</trkpt>
			<trkpt lat="47.95606" lon="15.05319">
				<ele>462.35</ele>
				<time>2025-07-28T23:50:34.039Z</time>
			</trkpt>
			<trkpt lat="47.95604" lon="15.05235">
				<ele>461.11</ele>
				<time>2025-07-28T23:50:37.625Z</time>
			</trkpt>
			<trkpt lat="47.95603" lon="15.04965">
				<ele>456.82</ele>
				<time>2025-07-28T23:50:49.161Z</time>
			</trkpt>
			<trkpt lat="47.95603" lon="15.04878">
				<ele>455.46</ele>
				<time>2025-07-28T23:50:52.885Z</time>
			</trkpt>
			<trkpt lat="47.95623" lon="15.04512">
				<ele>454</ele>
				<time>2025-07-28T23:51:08.652Z</time>
			</trkpt>
			<trkpt lat="47.95623" lon="15.04421">
				<ele>451.79</ele>
				<time>2025-07-28T23:51:12.574Z</time>
			</trkpt>
			<trkpt lat="47.95618" lon="15.03914">
				<ele>445.42</ele>
				<time>2025-07-28T23:51:34.550Z</time>
			</trkpt>
			<trkpt lat="47.95622" lon="15.03855">
				<ele>444.11</ele>
				<time>2025-07-28T23:51:37.136Z</time>
			</trkpt>
			<trkpt lat="47.9563" lon="15.03797">
				<ele>445.31</ele>
				<time>2025-07-28T23:51:39.723Z</time>
			</trkpt>
			<trkpt lat="47.95642" lon="15.03741">
				<ele>445.14</ele>
				<time>2025-07-28T23:51:42.294Z</time>
			</trkpt>
			<trkpt lat="47.95716" lon="15.03475">
				<ele>444.88</ele>
				<time>2025-07-28T23:51:54.951Z</time>
			</trkpt>
			<trkpt lat="47.95587" lon="15.03425">
				<ele>444.32</ele>
				<time>2025-07-28T23:52:03.757Z</time>
			</trkpt>
			<trkpt lat="47.95551" lon="15.03407">
				<ele>446.14</ele>
				<time>2025-07-28T23:52:06.276Z</time>
			</trkpt>
			<trkpt lat="47.9526" lon="15.03218">
				<ele>450.67</ele>
				<time>2025-07-28T23:52:27.531Z</time>
			</trkpt>
			<trkpt lat="47.95199" lon="15.03181">
				<ele>455.05</ele>
				<time>2025-07-28T23:52:32.036Z</time>
			</trkpt>
			<trkpt lat="47.95158" lon="15.03156">
				<ele>456.3</ele>
				<time>2025-07-28T23:52:35.087Z</time>
			</trkpt>
			<trkpt lat="47.95096" lon="15.03114">
				<ele>457.26</ele>
				<time>2025-07-28T23:52:39.800Z</time>
			</trkpt>
			<trkpt lat="47.95064" lon="15.03085">
				<ele>458.91</ele>
				<time>2025-07-28T23:52:42.397Z</time>
			</trkpt>
			<trkpt lat="47.95068" lon="15.0307">
				<ele>459.45</ele>
				<time>2025-07-28T23:52:43.147Z</time>
			</trkpt>
			<trkpt lat="47.95077" lon="15.0301">
				<ele>461.92</ele>
				<time>2025-07-28T23:52:46.005Z</time>
			</trkpt>
			<trkpt lat="47.95084" lon="15.02962">
				<ele>464.44</ele>
				<time>2025-07-28T23:52:48.286Z</time>
			</trkpt>
			<trkpt lat="47.95086" lon="15.02902">
				<ele>467.86</ele>
				<time>2025-07-28T23:52:51.069Z</time>
			</trkpt>
			<trkpt lat="47.95093" lon="15.02878">
				<ele>469.87</ele>
				<time>2025-07-28T23:52:52.279Z</time>
			</trkpt>
			<trkpt lat="47.95109" lon="15.02848">
				<ele>473.32</ele>
				<time>2025-07-28T23:52:54.048Z</time>
			</trkpt>
			<trkpt lat="47.95113" lon="15.02837">
				<ele>473.97</ele>
				<time>2025-07-28T23:52:54.624Z</time>
			</trkpt>
			<trkpt lat="47.95137" lon="15.02701">
				<ele>491.01</ele>
				<time>2025-07-28T23:53:01.049Z</time>
			</trkpt>
			<trkpt lat="47.95138" lon="15.02677">
				<ele>493.2</ele>
				<time>2025-07-28T23:53:02.136Z</time>
			</trkpt>
			<trkpt lat="47.95135" lon="15.02619">
				<ele>496.46</ele>
				<time>2025-07-28T23:53:04.751Z</time>
			</trkpt>
			<trkpt lat="47.95145" lon="15.0257">
				<ele>497.77</ele>
				<time>2025-07-28T23:53:07.034Z</time>
			</trkpt>
			<trkpt lat="47.95146" lon="15.02558">
				<ele>497.73</ele>
				<time>2025-07-28T23:53:07.569Z</time>
			</trkpt>
			<trkpt lat="47.95137" lon="15.02441">
				<ele>503.13</ele>
				<time>2025-07-28T23:53:12.721Z</time>
			</trkpt>
			<trkpt lat="47.95129" lon="15.02399">
				<ele>505.14</ele>
				<time>2025-07-28T23:53:14.609Z</time>
			</trkpt>
			<trkpt lat="47.95124" lon="15.02383">
				<ele>506.27</ele>
				<time>2025-07-28T23:53:15.370Z</time>
			</trkpt>
			<trkpt lat="47.95111" lon="15.02352">
				<ele>509.22</ele>
				<time>2025-07-28T23:53:16.943Z</time>
			</trkpt>
			<trkpt lat="47.95087" lon="15.02312">
				<ele>513.35</ele>
				<time>2025-07-28T23:53:19.245Z</time>
			</trkpt>
			<trkpt lat="47.95049" lon="15.02273">
				<ele>517.53</ele>
				<time>2025-07-28T23:53:22.180Z</time>
			</trkpt>
			<trkpt lat="47.95028" lon="15.0226">
				<ele>519.18</ele>
				<time>2025-07-28T23:53:23.620Z</time>
			</trkpt>
			<trkpt lat="47.9501" lon="15.02258">
				<ele>522.47</ele>
				<time>2025-07-28T23:53:24.761Z</time>
			</trkpt>
			<trkpt lat="47.94938" lon="15.02268">
				<ele>526.28</ele>
				<time>2025-07-28T23:53:29.306Z</time>
			</trkpt>
			<trkpt lat="47.9493" lon="15.02268">
				<ele>527.19</ele>
				<time>2025-07-28T23:53:29.806Z</time>
			</trkpt>
			<trkpt lat="47.94916" lon="15.02262">
				<ele>529.15</ele>
				<time>2025-07-28T23:53:30.716Z</time>
			</trkpt>
			<trkpt lat="47.94871" lon="15.02234">
				<ele>536.87</ele>
				<time>2025-07-28T23:53:33.749Z</time>
			</trkpt>
			<trkpt lat="47.94863" lon="15.02227">
				<ele>538.35</ele>
				<time>2025-07-28T23:53:34.324Z</time>
			</trkpt>
			<trkpt lat="47.9486" lon="15.02217">
				<ele>539.93</ele>
				<time>2025-07-28T23:53:34.779Z</time>
			</trkpt>
			<trkpt lat="47.94861" lon="15.02206">
				<ele>541.22</ele>
				<time>2025-07-28T23:53:35.239Z</time>
			</trkpt>
			<trkpt lat="47.94878" lon="15.02173">
				<ele>542.55</ele>
				<time>2025-07-28T23:53:36.961Z</time>
			</trkpt>
			<trkpt lat="47.94889" lon="15.02146">
				<ele>541.95</ele>
				<time>2025-07-28T23:53:38.264Z</time>
			</trkpt>
			<trkpt lat="47.94892" lon="15.02135">
				<ele>542.12</ele>
				<time>2025-07-28T23:53:38.753Z</time>
			</trkpt>
			<trkpt lat="47.94893" lon="15.02113">
				<ele>543.51</ele>
				<time>2025-07-28T23:53:39.659Z</time>
			</trkpt>
			<trkpt lat="47.94889" lon="15.02082">
				<ele>545.06</ele>
				<time>2025-07-28T23:53:40.955Z</time>
			</trkpt>
			<trkpt lat="47.94879" lon="15.02055">
				<ele>547.72</ele>
				<time>2025-07-28T23:53:42.217Z</time>
			</trkpt>
			<trkpt lat="47.9487" lon="15.02041">
				<ele>550.26</ele>
				<time>2025-07-28T23:53:43.010Z</time>
			</trkpt>
			<trkpt lat="47.94859" lon="15.02031">
				<ele>552.46</ele>
				<time>2025-07-28T23:53:43.795Z</time>
			</trkpt>
			<trkpt lat="47.94749" lon="15.01976">
				<ele>568.52</ele>
				<time>2025-07-28T23:53:50.808Z</time>
			</trkpt>
			<trkpt lat="47.94734" lon="15.01964">
				<ele>570.15</ele>
				<time>2025-07-28T23:53:51.829Z</time>
			</trkpt>
			<trkpt lat="47.94723" lon="15.01949">
				<ele>572.3</ele>
				<time>2025-07-28T23:53:52.722Z</time>
			</trkpt>
			<trkpt lat="47.94694" lon="15.01868">
				<ele>584.36</ele>
				<time>2025-07-28T23:53:56.392Z</time>
			</trkpt>
			<trkpt lat="47.94678" lon="15.0183">
				<ele>588.43</ele>
				<time>2025-07-28T23:53:58.177Z</time>
			</trkpt>
			<trkpt lat="47.94662" lon="15.018">
				<ele>590.4</ele>
				<time>2025-07-28T23:53:59.698Z</time>
			</trkpt>
			<trkpt lat="47.94621" lon="15.01745">
				<ele>595.67</ele>
				<time>2025-07-28T23:54:02.948Z</time>
			</trkpt>
			<trkpt lat="47.94619" lon="15.01739">
				<ele>596.24</ele>
				<time>2025-07-28T23:54:03.212Z</time>
			</trkpt>
			<trkpt lat="47.94618" lon="15.01726">
				<ele>597.79</ele>
				<time>2025-07-28T23:54:03.727Z</time>
			</trkpt>
			<trkpt lat="47.94622" lon="15.01714">
				<ele>600.52</ele>
				<time>2025-07-28T23:54:04.254Z</time>
			</trkpt>
			<trkpt lat="47.9463" lon="15.01706">
				<ele>603.22</ele>
				<time>2025-07-28T23:54:04.818Z</time>
			</trkpt>
			<trkpt lat="47.94709" lon="15.01697">
				<ele>609.51</ele>
				<time>2025-07-28T23:54:09.443Z</time>
			</trkpt>
			<trkpt lat="47.94714" lon="15.01695">
				<ele>609.8</ele>
				<time>2025-07-28T23:54:09.744Z</time>
			</trkpt>
			<trkpt lat="47.94719" lon="15.01688">
				<ele>610.84</ele>
				<time>2025-07-28T23:54:10.142Z</time>
			</trkpt>
			<trkpt lat="47.9472" lon="15.01676">
				<ele>612.55</ele>
				<time>2025-07-28T23:54:10.613Z</time>
			</trkpt>
			<trkpt lat="47.94715" lon="15.01664">
				<ele>614.46</ele>
				<time>2025-07-28T23:54:11.162Z</time>
			</trkpt>
			<trkpt lat="47.9467" lon="15.01601">
				<ele>627.12</ele>
				<time>2025-07-28T23:54:14.729Z</time>
			</trkpt>
			<trkpt lat="47.94638" lon="15.01549">
				<ele>645.94</ele>
				<time>2025-07-28T23:54:17.450Z</time>
			</trkpt>
			<trkpt lat="47.94628" lon="15.01541">
				<ele>648.71</ele>
				<time>2025-07-28T23:54:18.101Z</time>
			</trkpt>
			<trkpt lat="47.94611" lon="15.01539">
				<ele>648.17</ele>
				<time>2025-07-28T23:54:19.078Z</time>
			</trkpt>
			<trkpt lat="47.94595" lon="15.01534">
				<ele>647.05</ele>
				<time>2025-07-28T23:54:20.014Z</time>
			</trkpt>
			<trkpt lat="47.94543" lon="15.01499">
				<ele>646.8</ele>
				<time>2025-07-28T23:54:23.267Z</time>
			</trkpt>
			<trkpt lat="47.94529" lon="15.01484">
				<ele>647.59</ele>
				<time>2025-07-28T23:54:24.247Z</time>
			</trkpt>
			<trkpt lat="47.94501" lon="15.01436">
				<ele>653.29</ele>
				<time>2025-07-28T23:54:26.665Z</time>
			</trkpt>
			<trkpt lat="47.94492" lon="15.01408">
				<ele>656.97</ele>
				<time>2025-07-28T23:54:27.842Z</time>
			</trkpt>
			<trkpt lat="47.94486" lon="15.01352">
				<ele>664.15</ele>
				<time>2025-07-28T23:54:29.986Z</time>
			</trkpt>
			<trkpt lat="47.94496" lon="15.01263">
				<ele>680.94</ele>
				<time>2025-07-28T23:54:33.384Z</time>
			</trkpt>
			<trkpt lat="47.94498" lon="15.01226">
				<ele>688.6</ele>
				<time>2025-07-28T23:54:34.777Z</time>
			</trkpt>
			<trkpt lat="47.94496" lon="15.0119">
				<ele>693.54</ele>
				<time>2025-07-28T23:54:36.131Z</time>
			</trkpt>
			<trkpt lat="47.94491" lon="15.01157">
				<ele>696.75</ele>
				<time>2025-07-28T23:54:37.396Z</time>
			</trkpt>
			<trkpt lat="47.94482" lon="15.01128">
				<ele>697.71</ele>
				<time>2025-07-28T23:54:38.590Z</time>
			</trkpt>
			<trkpt lat="47.94448" lon="15.01057">
				<ele>702.87</ele>
				<time>2025-07-28T23:54:41.839Z</time>
			</trkpt>
			<trkpt lat="47.94446" lon="15.01043">
				<ele>703</ele>
				<time>2025-07-28T23:54:42.371Z</time>
			</trkpt>
			<trkpt lat="47.94451" lon="15.00965">
				<ele>699.3</ele>
				<time>2025-07-28T23:54:45.276Z</time>
			</trkpt>
			<trkpt lat="47.9445" lon="15.00822">
				<ele>692.45</ele>
				<time>2025-07-28T23:54:50.552Z</time>
			</trkpt>
			<trkpt lat="47.9444" lon="15.00706">
				<ele>685.23</ele>
				<time>2025-07-28T23:54:54.845Z</time>
			</trkpt>
			<trkpt lat="47.94435" lon="15.00676">
				<ele>682.71</ele>
				<time>2025-07-28T23:54:55.976Z</time>
			</trkpt>
			<trkpt lat="47.94426" lon="15.00646">
				<ele>679.17</ele>
				<time>2025-07-28T23:54:57.178Z</time>
			</trkpt>
			<trkpt lat="47.9436" lon="15.00494">
				<ele>661.07</ele>
				<time>2025-07-28T23:55:03.775Z</time>
			</trkpt>
			<trkpt lat="47.94345" lon="15.00448">
				<ele>657.91</ele>
				<time>2025-07-28T23:55:05.631Z</time>
			</trkpt>
			<trkpt lat="47.9431" lon="15.00318">
				<ele>638.08</ele>
				<time>2025-07-28T23:55:10.701Z</time>
			</trkpt>
			<trkpt lat="47.94264" lon="15.00166">
				<ele>620.4</ele>
				<time>2025-07-28T23:55:16.712Z</time>
			</trkpt>
			<trkpt lat="47.94234" lon="15.00064">
				<ele>606.78</ele>
				<time>2025-07-28T23:55:20.714Z</time>
			</trkpt>
			<trkpt lat="47.94223" lon="15.00038">
				<ele>605.12</ele>
				<time>2025-07-28T23:55:21.817Z</time>
			</trkpt>
			<trkpt lat="47.94196" lon="14.99989">
				<ele>598.77</ele>
				<time>2025-07-28T23:55:24.092Z</time>
			</trkpt>
			<trkpt lat="47.94186" lon="14.99967">
				<ele>596.03</ele>
				<time>2025-07-28T23:55:25.044Z</time>
			</trkpt>
			<trkpt lat="47.94181" lon="14.9994">
				<ele>595.78</ele>
				<time>2025-07-28T23:55:26.047Z</time>
			</trkpt>
			<trkpt lat="47.9418" lon="14.99908">
				<ele>595.7</ele>
				<time>2025-07-28T23:55:27.193Z</time>
			</trkpt>
			<trkpt lat="47.94193" lon="14.9982">
				<ele>595.97</ele>
				<time>2025-07-28T23:55:30.415Z</time>
			</trkpt>
			<trkpt lat="47.94193" lon="14.99729">
				<ele>597.57</ele>
				<time>2025-07-28T23:55:33.665Z</time>
			</trkpt>
			<trkpt lat="47.94195" lon="14.99693">
				<ele>599.3</ele>
				<time>2025-07-28T23:55:34.954Z</time>
			</trkpt>
			<trkpt lat="47.94219" lon="14.99544">
				<ele>589.86</ele>
				<time>2025-07-28T23:55:40.420Z</time>
			</trkpt>
			<trkpt lat="47.94221" lon="14.99526">
				<ele>590.4</ele>
				<time>2025-07-28T23:55:41.070Z</time>
			</trkpt>
			<trkpt lat="47.94218" lon="14.99495">
				<ele>587.87</ele>
				<time>2025-07-28T23:55:42.187Z</time>
			</trkpt>
			<trkpt lat="47.94213" lon="14.9947">
				<ele>586.68</ele>
				<time>2025-07-28T23:55:43.117Z</time>
			</trkpt>
			<trkpt lat="47.94205" lon="14.99451">
				<ele>587.23</ele>
				<time>2025-07-28T23:55:43.917Z</time>
			</trkpt>
			<trkpt lat="47.94183" lon="14.9941">
				<ele>588.28</ele>
				<time>2025-07-28T23:55:45.788Z</time>
			</trkpt>
			<trkpt lat="47.94118" lon="14.99319">
				<ele>575.95</ele>
				<time>2025-07-28T23:55:50.529Z</time>
			</trkpt>
			<trkpt lat="47.94081" lon="14.99275">
				<ele>568.2</ele>
				<time>2025-07-28T23:55:53.046Z</time>
			</trkpt>
			<trkpt lat="47.94073" lon="14.99254">
				<ele>568.7</ele>
				<time>2025-07-28T23:55:53.907Z</time>
			</trkpt>
			<trkpt lat="47.94066" lon="14.99223">
				<ele>571.69</ele>
				<time>2025-07-28T23:55:55.074Z</time>
			</trkpt>
			<trkpt lat="47.94066" lon="14.99205">
				<ele>573.15</ele>
				<time>2025-07-28T23:55:55.715Z</time>
			</trkpt>
			<trkpt lat="47.94089" lon="14.99078">
				<ele>574.99</ele>
				<time>2025-07-28T23:56:00.410Z</time>
			</trkpt>
			<trkpt lat="47.94113" lon="14.98792">
				<ele>562.54</ele>
				<time>2025-07-28T23:56:10.719Z</time>
			</trkpt>
			<trkpt lat="47.94129" lon="14.98711">
				<ele>560.36</ele>
				<time>2025-07-28T23:56:13.749Z</time>
			</trkpt>
			<trkpt lat="47.94133" lon="14.98688">
				<ele>559.48</ele>
				<time>2025-07-28T23:56:14.602Z</time>
			</trkpt>
			<trkpt lat="47.94129" lon="14.98626">
				<ele>555.28</ele>
				<time>2025-07-28T23:56:16.841Z</time>
			</trkpt>
			<trkpt lat="47.94128" lon="14.98565">
				<ele>552.82</ele>
				<time>2025-07-28T23:56:19.037Z</time>
			</trkpt>
			<trkpt lat="47.94123" lon="14.98503">
				<ele>552.82</ele>
				<time>2025-07-28T23:56:21.288Z</time>
			</trkpt>
			<trkpt lat="47.94127" lon="14.98485">
				<ele>552.12</ele>
				<time>2025-07-28T23:56:21.972Z</time>
			</trkpt>
			<trkpt lat="47.9413" lon="14.98478">
				<ele>551.58</ele>
				<time>2025-07-28T23:56:22.272Z</time>
			</trkpt>
			<trkpt lat="47.94148" lon="14.98453">
				<ele>551.98</ele>
				<time>2025-07-28T23:56:23.598Z</time>
			</trkpt>
			<trkpt lat="47.94157" lon="14.98439">
				<ele>552.95</ele>
				<time>2025-07-28T23:56:24.299Z</time>
			</trkpt>
			<trkpt lat="47.94159" lon="14.98431">
				<ele>553.25</ele>
				<time>2025-07-28T23:56:24.608Z</time>
			</trkpt>
			<trkpt lat="47.94162" lon="14.98412">
				<ele>553.61</ele>
				<time>2025-07-28T23:56:25.314Z</time>
			</trkpt>
			<trkpt lat="47.94162" lon="14.98389">
				<ele>553.85</ele>
				<time>2025-07-28T23:56:26.146Z</time>
			</trkpt>
			<trkpt lat="47.94154" lon="14.98311">
				<ele>556.24</ele>
				<time>2025-07-28T23:56:29.006Z</time>
			</trkpt>
			<trkpt lat="47.94158" lon="14.9816">
				<ele>548.82</ele>
				<time>2025-07-28T23:56:34.503Z</time>
			</trkpt>
			<trkpt lat="47.94163" lon="14.98123">
				<ele>546.85</ele>
				<time>2025-07-28T23:56:35.881Z</time>
			</trkpt>
			<trkpt lat="47.94176" lon="14.98082">
				<ele>546.28</ele>
				<time>2025-07-28T23:56:37.538Z</time>
			</trkpt>
			<trkpt lat="47.94185" lon="14.98044">
				<ele>542.95</ele>
				<time>2025-07-28T23:56:39.014Z</time>
			</trkpt>
			<trkpt lat="47.94206" lon="14.97903">
				<ele>538.35</ele>
				<time>2025-07-28T23:56:44.319Z</time>
			</trkpt>
			<trkpt lat="47.94239" lon="14.97824">
				<ele>536.63</ele>
				<time>2025-07-28T23:56:47.755Z</time>
			</trkpt>
			<trkpt lat="47.9428" lon="14.97695">
				<ele>525.7</ele>
				<time>2025-07-28T23:56:53.053Z</time>
			</trkpt>
			<trkpt lat="47.94289" lon="14.97658">
				<ele>525.12</ele>
				<time>2025-07-28T23:56:54.519Z</time>
			</trkpt>
			<trkpt lat="47.94297" lon="14.97595">
				<ele>519.98</ele>
				<time>2025-07-28T23:56:56.914Z</time>
			</trkpt>
			<trkpt lat="47.94299" lon="14.97297">
				<ele>510.43</ele>
				<time>2025-07-28T23:57:08.146Z</time>
			</trkpt>
			<trkpt lat="47.94297" lon="14.97209">
				<ele>511.41</ele>
				<time>2025-07-28T23:57:11.499Z</time>
			</trkpt>
			<trkpt lat="47.9429" lon="14.97099">
				<ele>507.62</ele>
				<time>2025-07-28T23:57:15.731Z</time>
			</trkpt>
			<trkpt lat="47.9429" lon="14.97075">
				<ele>507.69</ele>
				<time>2025-07-28T23:57:16.654Z</time>
			</trkpt>
			<trkpt lat="47.94293" lon="14.97052">
				<ele>507.07</ele>
				<time>2025-07-28T23:57:17.557Z</time>
			</trkpt>
			<trkpt lat="47.94309" lon="14.97005">
				<ele>503.73</ele>
				<time>2025-07-28T23:57:19.592Z</time>
			</trkpt>
			<trkpt lat="47.94318" lon="14.96989">
				<ele>504.19</ele>
				<time>2025-07-28T23:57:20.400Z</time>
			</trkpt>
			<trkpt lat="47.94339" lon="14.96959">
				<ele>503.03</ele>
				<time>2025-07-28T23:57:22.082Z</time>
			</trkpt>
			<trkpt lat="47.94346" lon="14.96944">
				<ele>502.06</ele>
				<time>2025-07-28T23:57:22.792Z</time>
			</trkpt>
			<trkpt lat="47.94363" lon="14.96885">
				<ele>500.97</ele>
				<time>2025-07-28T23:57:25.293Z</time>
			</trkpt>
			<trkpt lat="47.94385" lon="14.96841">
				<ele>496.56</ele>
				<time>2025-07-28T23:57:27.440Z</time>
			</trkpt>
			<trkpt lat="47.94395" lon="14.9681">
				<ele>492.15</ele>
				<time>2025-07-28T23:57:28.789Z</time>
			</trkpt>
			<trkpt lat="47.94399" lon="14.96791">
				<ele>490.58</ele>
				<time>2025-07-28T23:57:29.571Z</time>
			</trkpt>
			<trkpt lat="47.944" lon="14.96769">
				<ele>489.25</ele>
				<time>2025-07-28T23:57:30.439Z</time>
			</trkpt>
			<trkpt lat="47.94392" lon="14.9661">
				<ele>482.59</ele>
				<time>2025-07-28T23:57:36.750Z</time>
			</trkpt>
			<trkpt lat="47.94392" lon="14.96589">
				<ele>483.27</ele>
				<time>2025-07-28T23:57:37.586Z</time>
			</trkpt>
			<trkpt lat="47.94396" lon="14.96559">
				<ele>483.6</ele>
				<time>2025-07-28T23:57:38.807Z</time>
			</trkpt>
			<trkpt lat="47.94405" lon="14.96513">
				<ele>482.74</ele>
				<time>2025-07-28T23:57:40.724Z</time>
			</trkpt>
			<trkpt lat="47.94408" lon="14.96471">
				<ele>482.53</ele>
				<time>2025-07-28T23:57:42.420Z</time>
			</trkpt>
			<trkpt lat="47.94407" lon="14.9644">
				<ele>481.92</ele>
				<time>2025-07-28T23:57:43.669Z</time>
			</trkpt>
			<trkpt lat="47.94404" lon="14.96405">
				<ele>480.54</ele>
				<time>2025-07-28T23:57:45.093Z</time>
			</trkpt>
			<trkpt lat="47.94396" lon="14.96365">
				<ele>479.08</ele>
				<time>2025-07-28T23:57:46.783Z</time>
			</trkpt>
			<trkpt lat="47.94384" lon="14.96332">
				<ele>477.87</ele>
				<time>2025-07-28T23:57:48.307Z</time>
			</trkpt>
			<trkpt lat="47.94372" lon="14.96312">
				<ele>478.57</ele>
				<time>2025-07-28T23:57:49.399Z</time>
			</trkpt>
			<trkpt lat="47.94365" lon="14.96303">
				<ele>479.03</ele>
				<time>2025-07-28T23:57:49.961Z</time>
			</trkpt>
			<trkpt lat="47.94321" lon="14.96256">
				<ele>476.5</ele>
				<time>2025-07-28T23:57:53.265Z</time>
			</trkpt>
			<trkpt lat="47.94313" lon="14.96243">
				<ele>475.93</ele>
				<time>2025-07-28T23:57:53.989Z</time>
			</trkpt>
			<trkpt lat="47.94299" lon="14.96215">
				<ele>474.53</ele>
				<time>2025-07-28T23:57:55.427Z</time>
			</trkpt>
			<trkpt lat="47.94287" lon="14.96184">
				<ele>473.44</ele>
				<time>2025-07-28T23:57:56.904Z</time>
			</trkpt>
			<trkpt lat="47.94266" lon="14.96121">
				<ele>470.57</ele>
				<time>2025-07-28T23:57:59.819Z</time>
			</trkpt>
			<trkpt lat="47.94219" lon="14.95974">
				<ele>470.15</ele>
				<time>2025-07-28T23:58:06.632Z</time>
			</trkpt>
			<trkpt lat="47.9421" lon="14.9593">
				<ele>469.77</ele>
				<time>2025-07-28T23:58:08.573Z</time>
			</trkpt>
			<trkpt lat="47.94168" lon="14.95703">
				<ele>469.06</ele>
				<time>2025-07-28T23:58:18.627Z</time>
			</trkpt>
			<trkpt lat="47.9415" lon="14.95579">
				<ele>473.76</ele>
				<time>2025-07-28T23:58:24.129Z</time>
			</trkpt>
			<trkpt lat="47.94122" lon="14.95468">
				<ele>473.07</ele>
				<time>2025-07-28T23:58:29.330Z</time>
			</trkpt>
			<trkpt lat="47.94112" lon="14.95411">
				<ele>478.26</ele>
				<time>2025-07-28T23:58:31.934Z</time>
			</trkpt>
			<trkpt lat="47.94108" lon="14.95378">
				<ele>479</ele>
				<time>2025-07-28T23:58:33.423Z</time>
			</trkpt>
			<trkpt lat="47.94107" lon="14.95321">
				<ele>477.63</ele>
				<time>2025-07-28T23:58:35.964Z</time>
			</trkpt>
			<trkpt lat="47.94112" lon="14.95282">
				<ele>477.2</ele>
				<time>2025-07-28T23:58:37.742Z</time>
			</trkpt>
			<trkpt lat="47.94121" lon="14.95223">
				<ele>481.44</ele>
				<time>2025-07-28T23:58:40.464Z</time>
			</trkpt>
			<trkpt lat="47.94122" lon="14.95205">
				<ele>482.13</ele>
				<time>2025-07-28T23:58:41.279Z</time>
			</trkpt>
			<trkpt lat="47.94119" lon="14.95179">
				<ele>482.72</ele>
				<time>2025-07-28T23:58:42.473Z</time>
			</trkpt>
			<trkpt lat="47.94111" lon="14.95141">
				<ele>482.93</ele>
				<time>2025-07-28T23:58:44.281Z</time>
			</trkpt>
			<trkpt lat="47.94097" lon="14.95092">
				<ele>478.9</ele>
				<time>2025-07-28T23:58:46.709Z</time>
			</trkpt>
			<trkpt lat="47.94063" lon="14.95026">
				<ele>477.5</ele>
				<time>2025-07-28T23:58:50.529Z</time>
			</trkpt>
			<trkpt lat="47.94048" lon="14.94988">
				<ele>475.28</ele>
				<time>2025-07-28T23:58:52.565Z</time>
			</trkpt>
			<trkpt lat="47.93965" lon="14.94724">
				<ele>466.04</ele>
				<time>2025-07-28T23:59:06.252Z</time>
			</trkpt>
			<trkpt lat="47.93927" lon="14.94603">
				<ele>458.44</ele>
				<time>2025-07-28T23:59:12.657Z</time>
			</trkpt>
			<trkpt lat="47.93919" lon="14.94567">
				<ele>453.28</ele>
				<time>2025-07-28T23:59:14.491Z</time>
			</trkpt>
			<trkpt lat="47.93918" lon="14.94546">
				<ele>451.05</ele>
				<time>2025-07-28T23:59:15.512Z</time>
			</trkpt>
			<trkpt lat="47.93919" lon="14.94526">
				<ele>449.1</ele>
				<time>2025-07-28T23:59:16.487Z</time>
			</trkpt>
			<trkpt lat="47.9396" lon="14.94529">
				<ele>450.12</ele>
				<time>2025-07-28T23:59:19.477Z</time>
			</trkpt>
			<trkpt lat="47.94037" lon="14.94549">
				<ele>456.86</ele>
				<time>2025-07-28T23:59:25.222Z</time>
			</trkpt>
			<trkpt lat="47.94046" lon="14.9455">
				<ele>458.44</ele>
				<time>2025-07-28T23:59:25.890Z</time>
			</trkpt>
			<trkpt lat="47.9406" lon="14.94547">
				<ele>460.12</ele>
				<time>2025-07-28T23:59:26.939Z</time>
			</trkpt>
			<trkpt lat="47.94089" lon="14.9454">
				<ele>461.63</ele>
				<time>2025-07-28T23:59:29.124Z</time>
			</trkpt>
			<trkpt lat="47.94144" lon="14.94546">
				<ele>464.02</ele>
				<time>2025-07-28T23:59:33.254Z</time>
			</trkpt>
			<trkpt lat="47.94151" lon="14.94545">
				<ele>464.44</ele>
				<time>2025-07-28T23:59:33.783Z</time>
			</trkpt>
			<trkpt lat="47.94177" lon="14.94525">
				<ele>464.55</ele>
				<time>2025-07-28T23:59:35.990Z</time>
			</trkpt>
			<trkpt lat="47.94184" lon="14.94522">
				<ele>465.69</ele>
				<time>2025-07-28T23:59:36.541Z</time>
			</trkpt>
			<trkpt lat="47.94202" lon="14.94525">
				<ele>466.65</ele>
				<time>2025-07-28T23:59:37.915Z</time>
			</trkpt>
			<trkpt lat="47.94288" lon="14.94552">
				<ele>457.85</ele>
				<time>2025-07-28T23:59:44.635Z</time>
			</trkpt>
			<trkpt lat="47.94338" lon="14.94558">
				<ele>456.48</ele>
				<time>2025-07-28T23:59:48.513Z</time>
			</trkpt>
			<trkpt lat="47.94389" lon="14.94568">
				<ele>448.65</ele>
				<time>2025-07-28T23:59:52.529Z</time>
			</trkpt>
			<trkpt lat="47.94408" lon="14.9457">
				<ele>450.73</ele>
				<time>2025-07-28T23:59:54.050Z</time>
			</trkpt>
			<trkpt lat="47.94418" lon="14.94567">
				<ele>451.64</ele>
				<time>2025-07-28T23:59:54.875Z</time>
			</trkpt>
			<trkpt lat="47.94425" lon="14.94561">
				<ele>452.35</ele>
				<time>2025-07-28T23:59:55.533Z</time>
			</trkpt>
			<trkpt lat="47.94435" lon="14.94548">
				<ele>453.48</ele>
				<time>2025-07-28T23:59:56.623Z</time>
			</trkpt>
			<trkpt lat="47.94447" lon="14.94529">
				<ele>452.68</ele>
				<time>2025-07-28T23:59:58.080Z</time>
			</trkpt>
			<trkpt lat="47.94475" lon="14.94464">
				<ele>462.45</ele>
				<time>2025-07-29T00:00:02.509Z</time>
			</trkpt>
			<trkpt lat="47.94487" lon="14.94448">
				<ele>464.73</ele>
				<time>2025-07-29T00:00:03.920Z</time>
			</trkpt>
			<trkpt lat="47.94495" lon="14.94441">
				<ele>464.24</ele>
				<time>2025-07-29T00:00:04.740Z</time>
			</trkpt>
			<trkpt lat="47.94505" lon="14.94436">
				<ele>465.93</ele>
				<time>2025-07-29T00:00:05.680Z</time>
			</trkpt>
			<trkpt lat="47.94529" lon="14.94428">
				<ele>469.5</ele>
				<time>2025-07-29T00:00:07.897Z</time>
			</trkpt>
			<trkpt lat="47.94605" lon="14.94425">
				<ele>445.76</ele>
				<time>2025-07-29T00:00:14.968Z</time>
			</trkpt>
			<trkpt lat="47.94623" lon="14.9443">
				<ele>444.62</ele>
				<time>2025-07-29T00:00:16.718Z</time>
			</trkpt>
			<trkpt lat="47.94647" lon="14.94442">
				<ele>448.82</ele>
				<time>2025-07-29T00:00:19.166Z</time>
			</trkpt>
			<trkpt lat="47.94654" lon="14.94443">
				<ele>449.38</ele>
				<time>2025-07-29T00:00:19.852Z</time>
			</trkpt>
			<trkpt lat="47.94665" lon="14.94438">
				<ele>448.74</ele>
				<time>2025-07-29T00:00:20.978Z</time>
			</trkpt>
			<trkpt lat="47.94725" lon="14.94389">
				<ele>448.45</ele>
				<time>2025-07-29T00:00:27.807Z</time>
			</trkpt>
			<trkpt lat="47.94751" lon="14.9436">
				<ele>449.21</ele>
				<time>2025-07-29T00:00:31.120Z</time>
			</trkpt>
			<trkpt lat="47.94772" lon="14.94331">
				<ele>450.34</ele>
				<time>2025-07-29T00:00:34.077Z</time>
			</trkpt>
			<trkpt lat="47.94775" lon="14.94321">
				<ele>450.34</ele>
				<time>2025-07-29T00:00:34.841Z</time>
			</trkpt>
			<trkpt lat="47.94777" lon="14.94294">
				<ele>449.54</ele>
				<time>2025-07-29T00:00:36.743Z</time>
			</trkpt>
			<trkpt lat="47.94775" lon="14.9419">
				<ele>443.29</ele>
				<time>2025-07-29T00:00:44.141Z</time>
			</trkpt>
			<trkpt lat="47.94778" lon="14.94152">
				<ele>444.97</ele>
				<time>2025-07-29T00:00:46.902Z</time>
			</trkpt>
			<trkpt lat="47.9478" lon="14.94141">
				<ele>445.37</ele>
				<time>2025-07-29T00:00:47.729Z</time>
			</trkpt>
			<trkpt lat="47.94789" lon="14.94118">
				<ele>446.11</ele>
				<time>2025-07-29T00:00:49.667Z</time>
			</trkpt>
			<trkpt lat="47.94808" lon="14.94089">
				<ele>445.02</ele>
				<time>2025-07-29T00:00:52.637Z</time>
			</trkpt>
			<trkpt lat="47.94867" lon="14.94028">
				<ele>439.24</ele>
				<time>2025-07-29T00:01:00.571Z</time>
			</trkpt>
			<trkpt lat="47.94926" lon="14.9397">
				<ele>440.32</ele>
				<time>2025-07-29T00:01:08.490Z</time>
			</trkpt>
			<trkpt lat="47.94939" lon="14.9395">
				<ele>440.03</ele>
				<time>2025-07-29T00:01:10.598Z</time>
			</trkpt>
			<trkpt lat="47.94962" lon="14.93904">
				<ele>440.37</ele>
				<time>2025-07-29T00:01:14.955Z</time>
			</trkpt>
			<trkpt lat="47.94972" lon="14.93879">
				<ele>439.99</ele>
				<time>2025-07-29T00:01:17.173Z</time>
			</trkpt>
			<trkpt lat="47.94976" lon="14.9386">
				<ele>439.66</ele>
				<time>2025-07-29T00:01:18.692Z</time>
			</trkpt>
			<trkpt lat="47.94978" lon="14.93841">
				<ele>439.38</ele>
				<time>2025-07-29T00:01:20.161Z</time>
			</trkpt>
			<trkpt lat="47.94978" lon="14.93816">
				<ele>438.26</ele>
				<time>2025-07-29T00:01:22.072Z</time>
			</trkpt>
			<trkpt lat="47.94967" lon="14.93736">
				<ele>437.08</ele>
				<time>2025-07-29T00:01:28.331Z</time>
			</trkpt>
			<trkpt lat="47.94967" lon="14.9371">
				<ele>437.16</ele>
				<time>2025-07-29T00:01:30.327Z</time>
			</trkpt>
			<trkpt lat="47.94969" lon="14.93699">
				<ele>437.1</ele>
				<time>2025-07-29T00:01:31.202Z</time>
			</trkpt>
			<trkpt lat="47.94977" lon="14.93672">
				<ele>437</ele>
				<time>2025-07-29T00:01:33.470Z</time>
			</trkpt>
			<trkpt lat="47.94992" lon="14.93644">
				<ele>436.21</ele>
				<time>2025-07-29T00:01:36.224Z</time>
			</trkpt>
			<trkpt lat="47.95043" lon="14.93584">
				<ele>439.71</ele>
				<time>2025-07-29T00:01:43.666Z</time>
			</trkpt>
			<trkpt lat="47.95055" lon="14.93563">
				<ele>439.55</ele>
				<time>2025-07-29T00:01:45.781Z</time>
			</trkpt>
			<trkpt lat="47.95062" lon="14.93537">
				<ele>438.69</ele>
				<time>2025-07-29T00:01:47.927Z</time>
			</trkpt>
			<trkpt lat="47.95062" lon="14.93493">
				<ele>438.19</ele>
				<time>2025-07-29T00:01:51.290Z</time>
			</trkpt>
			<trkpt lat="47.95063" lon="14.93475">
				<ele>438.98</ele>
				<time>2025-07-29T00:01:52.667Z</time>
			</trkpt>
			<trkpt lat="47.95065" lon="14.9346">
				<ele>439.35</ele>
				<time>2025-07-29T00:01:53.833Z</time>
			</trkpt>
			<trkpt lat="47.95071" lon="14.9343">
				<ele>439.5</ele>
				<time>2025-07-29T00:01:56.215Z</time>
			</trkpt>
			<trkpt lat="47.95085" lon="14.93394">
				<ele>438.78</ele>
				<time>2025-07-29T00:01:59.373Z</time>
			</trkpt>
			<trkpt lat="47.95118" lon="14.93329">
				<ele>441.05</ele>
				<time>2025-07-29T00:02:05.525Z</time>
			</trkpt>
			<trkpt lat="47.95142" lon="14.9328">
				<ele>441.79</ele>
				<time>2025-07-29T00:02:10.067Z</time>
			</trkpt>
			<trkpt lat="47.95153" lon="14.9325">
				<ele>441.12</ele>
				<time>2025-07-29T00:02:12.611Z</time>
			</trkpt>
			<trkpt lat="47.95158" lon="14.93223">
				<ele>439.64</ele>
				<time>2025-07-29T00:02:14.685Z</time>
			</trkpt>
			<trkpt lat="47.95159" lon="14.93195">
				<ele>437.5</ele>
				<time>2025-07-29T00:02:16.752Z</time>
			</trkpt>
			<trkpt lat="47.95154" lon="14.93143">
				<ele>434.27</ele>
				<time>2025-07-29T00:02:20.599Z</time>
			</trkpt>
			<trkpt lat="47.95154" lon="14.93085">
				<ele>431.66</ele>
				<time>2025-07-29T00:02:24.805Z</time>
			</trkpt>
			<trkpt lat="47.95157" lon="14.93039">
				<ele>430.08</ele>
				<time>2025-07-29T00:02:28.123Z</time>
			</trkpt>
			<trkpt lat="47.95159" lon="14.93021">
				<ele>429.93</ele>
				<time>2025-07-29T00:02:29.424Z</time>
			</trkpt>
			<trkpt lat="47.95169" lon="14.92983">
				<ele>432.29</ele>
				<time>2025-07-29T00:02:32.316Z</time>
			</trkpt>
			<trkpt lat="47.95192" lon="14.92913">
				<ele>432.88</ele>
				<time>2025-07-29T00:02:37.761Z</time>
			</trkpt>
			<trkpt lat="47.95205" lon="14.92867">
				<ele>432.38</ele>
				<time>2025-07-29T00:02:41.190Z</time>
			</trkpt>
			<trkpt lat="47.95219" lon="14.92753">
				<ele>430.26</ele>
				<time>2025-07-29T00:02:48.963Z</time>
			</trkpt>
			<trkpt lat="47.95224" lon="14.92728">
				<ele>429.48</ele>
				<time>2025-07-29T00:02:50.673Z</time>
			</trkpt>
			<trkpt lat="47.95228" lon="14.92719">
				<ele>429.64</ele>
				<time>2025-07-29T00:02:51.377Z</time>
			</trkpt>
			<trkpt lat="47.95245" lon="14.92709">
				<ele>431.43</ele>
				<time>2025-07-29T00:02:53.143Z</time>
			</trkpt>
			<trkpt lat="47.9524" lon="14.92674">
				<ele>430.88</ele>
				<time>2025-07-29T00:02:55.433Z</time>
			</trkpt>
			<trkpt lat="47.95239" lon="14.92639">
				<ele>431.23</ele>
				<time>2025-07-29T00:02:57.645Z</time>
			</trkpt>
			<trkpt lat="47.95242" lon="14.92603">
				<ele>429.46</ele>
				<time>2025-07-29T00:02:59.904Z</time>
			</trkpt>
			<trkpt lat="47.95252" lon="14.92534">
				<ele>428.55</ele>
				<time>2025-07-29T00:03:04.204Z</time>
			</trkpt>
			<trkpt lat="47.95257" lon="14.92495">
				<ele>429.96</ele>
				<time>2025-07-29T00:03:06.564Z</time>
			</trkpt>
			<trkpt lat="47.95257" lon="14.92451">
				<ele>428.8</ele>
				<time>2025-07-29T00:03:09.128Z</time>
			</trkpt>
			<trkpt lat="47.95252" lon="14.92406">
				<ele>427.75</ele>
				<time>2025-07-29T00:03:11.727Z</time>
			</trkpt>
			<trkpt lat="47.95242" lon="14.92332">
				<ele>427.98</ele>
				<time>2025-07-29T00:03:15.892Z</time>
			</trkpt>
			<trkpt lat="47.95241" lon="14.92284">
				<ele>427.48</ele>
				<time>2025-07-29T00:03:18.449Z</time>
			</trkpt>
			<trkpt lat="47.95244" lon="14.92256">
				<ele>426.23</ele>
				<time>2025-07-29T00:03:19.924Z</time>
			</trkpt>
			<trkpt lat="47.95251" lon="14.92222">
				<ele>424.03</ele>
				<time>2025-07-29T00:03:21.737Z</time>
			</trkpt>
			<trkpt lat="47.95277" lon="14.92132">
				<ele>424.77</ele>
				<time>2025-07-29T00:03:26.509Z</time>
			</trkpt>
			<trkpt lat="47.95284" lon="14.92099">
				<ele>425.09</ele>
				<time>2025-07-29T00:03:28.114Z</time>
			</trkpt>
			<trkpt lat="47.95286" lon="14.92083">
				<ele>425.64</ele>
				<time>2025-07-29T00:03:28.853Z</time>
			</trkpt>
			<trkpt lat="47.95287" lon="14.92049">
				<ele>425.87</ele>
				<time>2025-07-29T00:03:30.367Z</time>
			</trkpt>
			<trkpt lat="47.9531" lon="14.92051">
				<ele>427.96</ele>
				<time>2025-07-29T00:03:31.851Z</time>
			</trkpt>
			<trkpt lat="47.95315" lon="14.92048">
				<ele>428.87</ele>
				<time>2025-07-29T00:03:32.188Z</time>
			</trkpt>
			<trkpt lat="47.9532" lon="14.92043">
				<ele>429.74</ele>
				<time>2025-07-29T00:03:32.559Z</time>
			</trkpt>
			<trkpt lat="47.95323" lon="14.92034">
				<ele>430.65</ele>
				<time>2025-07-29T00:03:32.967Z</time>
			</trkpt>
			<trkpt lat="47.95329" lon="14.92001">
				<ele>432.21</ele>
				<time>2025-07-29T00:03:34.308Z</time>
			</trkpt>
			<trkpt lat="47.95335" lon="14.91977">
				<ele>433.32</ele>
				<time>2025-07-29T00:03:35.267Z</time>
			</trkpt>
			<trkpt lat="47.95341" lon="14.91964">
				<ele>433.75</ele>
				<time>2025-07-29T00:03:35.840Z</time>
			</trkpt>
			<trkpt lat="47.95362" lon="14.91938">
				<ele>436.17</ele>
				<time>2025-07-29T00:03:37.265Z</time>
			</trkpt>
			<trkpt lat="47.9539" lon="14.91912">
				<ele>442.2</ele>
				<time>2025-07-29T00:03:38.899Z</time>
			</trkpt>
			<trkpt lat="47.95407" lon="14.91904">
				<ele>445.17</ele>
				<time>2025-07-29T00:03:39.752Z</time>
			</trkpt>
			<trkpt lat="47.95433" lon="14.91894">
				<ele>449.45</ele>
				<time>2025-07-29T00:03:41.007Z</time>
			</trkpt>
			<trkpt lat="47.95442" lon="14.91887">
				<ele>450.53</ele>
				<time>2025-07-29T00:03:41.475Z</time>
			</trkpt>
			<trkpt lat="47.95459" lon="14.91868">
				<ele>454.45</ele>
				<time>2025-07-29T00:03:42.447Z</time>
			</trkpt>
			<trkpt lat="47.9547" lon="14.9185">
				<ele>457.27</ele>
				<time>2025-07-29T00:03:43.192Z</time>
			</trkpt>
			<trkpt lat="47.95474" lon="14.91842">
				<ele>458.07</ele>
				<time>2025-07-29T00:03:43.497Z</time>
			</trkpt>
			<trkpt lat="47.95476" lon="14.91824">
				<ele>458.69</ele>
				<time>2025-07-29T00:03:44.056Z</time>
			</trkpt>
			<trkpt lat="47.95472" lon="14.9177">
				<ele>458.54</ele>
				<time>2025-07-29T00:03:45.744Z</time>
			</trkpt>
			<trkpt lat="47.95474" lon="14.91745">
				<ele>460.38</ele>
				<time>2025-07-29T00:03:46.546Z</time>
			</trkpt>
			<trkpt lat="47.95499" lon="14.91614">
				<ele>474.68</ele>
				<time>2025-07-29T00:03:51.267Z</time>
			</trkpt>
			<trkpt lat="47.95507" lon="14.91591">
				<ele>476.88</ele>
				<time>2025-07-29T00:03:52.269Z</time>
			</trkpt>
			<trkpt lat="47.95523" lon="14.9156">
				<ele>480.02</ele>
				<time>2025-07-29T00:03:53.865Z</time>
			</trkpt>
			<trkpt lat="47.95541" lon="14.91497">
				<ele>483.11</ele>
				<time>2025-07-29T00:03:56.898Z</time>
			</trkpt>
			<trkpt lat="47.95557" lon="14.91455">
				<ele>490.7</ele>
				<time>2025-07-29T00:03:59.159Z</time>
			</trkpt>
			<trkpt lat="47.9557" lon="14.91434">
				<ele>497.26</ele>
				<time>2025-07-29T00:04:00.540Z</time>
			</trkpt>
			<trkpt lat="47.95574" lon="14.91431">
				<ele>498.91</ele>
				<time>2025-07-29T00:04:00.867Z</time>
			</trkpt>
			<trkpt lat="47.95584" lon="14.91431">
				<ele>502.11</ele>
				<time>2025-07-29T00:04:01.605Z</time>
			</trkpt>
			<trkpt lat="47.95601" lon="14.91444">
				<ele>503.31</ele>
				<time>2025-07-29T00:04:03.036Z</time>
			</trkpt>
			<trkpt lat="47.95612" lon="14.91464">
				<ele>502.75</ele>
				<time>2025-07-29T00:04:04.361Z</time>
			</trkpt>
			<trkpt lat="47.95646" lon="14.91546">
				<ele>506.91</ele>
				<time>2025-07-29T00:04:09.513Z</time>
			</trkpt>
			<trkpt lat="47.95666" lon="14.91607">
				<ele>517.44</ele>
				<time>2025-07-29T00:04:13.339Z</time>
			</trkpt>
			<trkpt lat="47.95669" lon="14.91621">
				<ele>519.82</ele>
				<time>2025-07-29T00:04:14.189Z</time>
			</trkpt>
			<trkpt lat="47.95671" lon="14.9164">
				<ele>522.38</ele>
				<time>2025-07-29T00:04:15.311Z</time>
			</trkpt>
			<trkpt lat="47.95668" lon="14.91676">
				<ele>522.46</ele>
				<time>2025-07-29T00:04:17.461Z</time>
			</trkpt>
			<trkpt lat="47.95667" lon="14.9171">
				<ele>522.31</ele>
				<time>2025-07-29T00:04:19.518Z</time>
			</trkpt>
			<trkpt lat="47.95669" lon="14.91723">
				<ele>522.7</ele>
				<time>2025-07-29T00:04:20.335Z</time>
			</trkpt>
			<trkpt lat="47.95675" lon="14.91742">
				<ele>523.1</ele>
				<time>2025-07-29T00:04:21.633Z</time>
			</trkpt>
			<trkpt lat="47.95705" lon="14.91777">
				<ele>527.31</ele>
				<time>2025-07-29T00:04:25.215Z</time>
			</trkpt>
			<trkpt lat="47.95719" lon="14.91799">
				<ele>529.57</ele>
				<time>2025-07-29T00:04:27.169Z</time>
			</trkpt>
			<trkpt lat="47.95758" lon="14.91873">
				<ele>537.38</ele>
				<time>2025-07-29T00:04:33.411Z</time>
			</trkpt>
			<trkpt lat="47.95776" lon="14.91911">
				<ele>542.8</ele>
				<time>2025-07-29T00:04:36.593Z</time>
			</trkpt>
			<trkpt lat="47.95792" lon="14.9195">
				<ele>546.21</ele>
				<time>2025-07-29T00:04:39.780Z</time>
			</trkpt>
			<trkpt lat="47.95803" lon="14.9199">
				<ele>550.86</ele>
				<time>2025-07-29T00:04:42.846Z</time>
			</trkpt>
			<trkpt lat="47.95817" lon="14.92083">
				<ele>557.3</ele>
				<time>2025-07-29T00:04:49.784Z</time>
			</trkpt>
			<trkpt lat="47.95817" lon="14.92099">
				<ele>557.87</ele>
				<time>2025-07-29T00:04:50.972Z</time>
			</trkpt>
			<trkpt lat="47.9581" lon="14.92163">
				<ele>560.04</ele>
				<time>2025-07-29T00:04:55.853Z</time>
			</trkpt>
			<trkpt lat="47.95807" lon="14.92238">
				<ele>560.77</ele>
				<time>2025-07-29T00:05:01.636Z</time>
			</trkpt>
			<trkpt lat="47.9581" lon="14.92256">
				<ele>560.67</ele>
				<time>2025-07-29T00:05:03.084Z</time>
			</trkpt>
			<trkpt lat="47.95817" lon="14.92269">
				<ele>561.47</ele>
				<time>2025-07-29T00:05:04.393Z</time>
			</trkpt>
			<trkpt lat="47.95822" lon="14.92273">
				<ele>562.13</ele>
				<time>2025-07-29T00:05:05.060Z</time>
			</trkpt>
			<trkpt lat="47.95831" lon="14.92276">
				<ele>563.79</ele>
				<time>2025-07-29T00:05:06.148Z</time>
			</trkpt>
			<trkpt lat="47.95841" lon="14.92271">
				<ele>565.34</ele>
				<time>2025-07-29T00:05:07.398Z</time>
			</trkpt>
			<trkpt lat="47.95849" lon="14.9226">
				<ele>566.88</ele>
				<time>2025-07-29T00:05:08.692Z</time>
			</trkpt>
			<trkpt lat="47.95856" lon="14.92242">
				<ele>568.55</ele>
				<time>2025-07-29T00:05:10.359Z</time>
			</trkpt>
			<trkpt lat="47.9589" lon="14.92139">
				<ele>578.05</ele>
				<time>2025-07-29T00:05:19.722Z</time>
			</trkpt>
			<trkpt lat="47.95894" lon="14.92111">
				<ele>582.02</ele>
				<time>2025-07-29T00:05:22.098Z</time>
			</trkpt>
			<trkpt lat="47.95896" lon="14.92068">
				<ele>583.85</ele>
				<time>2025-07-29T00:05:25.705Z</time>
			</trkpt>
			<trkpt lat="47.959" lon="14.92049">
				<ele>584.82</ele>
				<time>2025-07-29T00:05:27.383Z</time>
			</trkpt>
			<trkpt lat="47.9593" lon="14.91944">
				<ele>595.53</ele>
				<time>2025-07-29T00:05:37.140Z</time>
			</trkpt>
			<trkpt lat="47.95949" lon="14.91893">
				<ele>601.21</ele>
				<time>2025-07-29T00:05:42.213Z</time>
			</trkpt>
			<trkpt lat="47.95963" lon="14.9187">
				<ele>604.05</ele>
				<time>2025-07-29T00:05:44.937Z</time>
			</trkpt>
			<trkpt lat="47.95983" lon="14.91842">
				<ele>605.97</ele>
				<time>2025-07-29T00:05:48.547Z</time>
			</trkpt>
			<trkpt lat="47.9599" lon="14.91834">
				<ele>606.3</ele>
				<time>2025-07-29T00:05:49.713Z</time>
			</trkpt>
			<trkpt lat="47.96005" lon="14.91824">
				<ele>606.12</ele>
				<time>2025-07-29T00:05:51.893Z</time>
			</trkpt>
			<trkpt lat="47.9606" lon="14.9181">
				<ele>607.85</ele>
				<time>2025-07-29T00:05:59.357Z</time>
			</trkpt>
			<trkpt lat="47.96092" lon="14.91813">
				<ele>612</ele>
				<time>2025-07-29T00:06:03.686Z</time>
			</trkpt>
			<trkpt lat="47.96116" lon="14.91809">
				<ele>616.45</ele>
				<time>2025-07-29T00:06:06.966Z</time>
			</trkpt>
			<trkpt lat="47.96126" lon="14.9181">
				<ele>617.47</ele>
				<time>2025-07-29T00:06:08.331Z</time>
			</trkpt>
			<trkpt lat="47.9614" lon="14.91815">
				<ele>618.85</ele>
				<time>2025-07-29T00:06:10.296Z</time>
			</trkpt>
			<trkpt lat="47.96178" lon="14.91845">
				<ele>622.51</ele>
				<time>2025-07-29T00:06:16.194Z</time>
			</trkpt>
			<trkpt lat="47.96256" lon="14.91945">
				<ele>623.97</ele>
				<time>2025-07-29T00:06:30.456Z</time>
			</trkpt>
			<trkpt lat="47.96279" lon="14.91968">
				<ele>624.74</ele>
				<time>2025-07-29T00:06:34.328Z</time>
			</trkpt>
			<trkpt lat="47.96297" lon="14.9198">
				<ele>625.7</ele>
				<time>2025-07-29T00:06:37.093Z</time>
			</trkpt>
			<trkpt lat="47.96306" lon="14.91983">
				<ele>626.36</ele>
				<time>2025-07-29T00:06:38.388Z</time>
			</trkpt>
			<trkpt lat="47.96323" lon="14.91984">
				<ele>626.91</ele>
				<time>2025-07-29T00:06:40.781Z</time>
			</trkpt>
			<trkpt lat="47.96394" lon="14.91966">
				<ele>632.41</ele>
				<time>2025-07-29T00:06:50.948Z</time>
			</trkpt>
			<trkpt lat="47.96424" lon="14.91965">
				<ele>631.75</ele>
				<time>2025-07-29T00:06:55.199Z</time>
			</trkpt>
			<trkpt lat="47.96447" lon="14.9197">
				<ele>630.49</ele>
				<time>2025-07-29T00:06:58.497Z</time>
			</trkpt>
			<trkpt lat="47.96512" lon="14.91993">
				<ele>635.65</ele>
				<time>2025-07-29T00:07:07.991Z</time>
			</trkpt>
			<trkpt lat="47.96536" lon="14.92005">
				<ele>638.71</ele>
				<time>2025-07-29T00:07:11.592Z</time>
			</trkpt>
			<trkpt lat="47.9656" lon="14.92009">
				<ele>639.96</ele>
				<time>2025-07-29T00:07:15.029Z</time>
			</trkpt>
			<trkpt lat="47.96576" lon="14.9204">
				<ele>638.29</ele>
				<time>2025-07-29T00:07:18.759Z</time>
			</trkpt>
			<trkpt lat="47.96607" lon="14.92091">
				<ele>630.16</ele>
				<time>2025-07-29T00:07:25.321Z</time>
			</trkpt>
			<trkpt lat="47.96622" lon="14.92106">
				<ele>627.93</ele>
				<time>2025-07-29T00:07:27.888Z</time>
			</trkpt>
			<trkpt lat="47.96633" lon="14.92114">
				<ele>626.53</ele>
				<time>2025-07-29T00:07:29.627Z</time>
			</trkpt>
			<trkpt lat="47.96693" lon="14.92172">
				<ele>620.4</ele>
				<time>2025-07-29T00:07:39.766Z</time>
			</trkpt>
			<trkpt lat="47.96742" lon="14.92215">
				<ele>610.21</ele>
				<time>2025-07-29T00:07:47.798Z</time>
			</trkpt>
			<trkpt lat="47.96787" lon="14.92248">
				<ele>606.17</ele>
				<time>2025-07-29T00:07:54.852Z</time>
			</trkpt>
			<trkpt lat="47.96847" lon="14.92284">
				<ele>599.85</ele>
				<time>2025-07-29T00:08:03.897Z</time>
			</trkpt>
			<trkpt lat="47.96906" lon="14.92326">
				<ele>590.66</ele>
				<time>2025-07-29T00:08:12.964Z</time>
			</trkpt>
			<trkpt lat="47.96921" lon="14.92346">
				<ele>587.35</ele>
				<time>2025-07-29T00:08:15.736Z</time>
			</trkpt>
			<trkpt lat="47.96924" lon="14.92355">
				<ele>586.84</ele>
				<time>2025-07-29T00:08:16.662Z</time>
			</trkpt>
			<trkpt lat="47.96926" lon="14.92404">
				<ele>585.97</ele>
				<time>2025-07-29T00:08:21.169Z</time>
			</trkpt>
			<trkpt lat="47.96928" lon="14.92408">
				<ele>585.04</ele>
				<time>2025-07-29T00:08:21.626Z</time>
			</trkpt>
			<trkpt lat="47.96931" lon="14.92412">
				<ele>583.35</ele>
				<time>2025-07-29T00:08:22.176Z</time>
			</trkpt>
			<trkpt lat="47.96936" lon="14.92414">
				<ele>581.14</ele>
				<time>2025-07-29T00:08:22.882Z</time>
			</trkpt>
			<trkpt lat="47.9694" lon="14.9241">
				<ele>579.93</ele>
				<time>2025-07-29T00:08:23.538Z</time>
			</trkpt>
			<trkpt lat="47.96951" lon="14.92372">
				<ele>579.17</ele>
				<time>2025-07-29T00:08:27.307Z</time>
			</trkpt>
			<trkpt lat="47.96977" lon="14.92314">
				<ele>578.15</ele>
				<time>2025-07-29T00:08:33.614Z</time>
			</trkpt>
			<trkpt lat="47.9699" lon="14.9229">
				<ele>574.84</ele>
				<time>2025-07-29T00:08:36.384Z</time>
			</trkpt>
			<trkpt lat="47.96997" lon="14.92281">
				<ele>573.4</ele>
				<time>2025-07-29T00:08:37.618Z</time>
			</trkpt>
			<trkpt lat="47.97006" lon="14.92281">
				<ele>572.88</ele>
				<time>2025-07-29T00:08:38.817Z</time>
			</trkpt>
			<trkpt lat="47.97018" lon="14.92295">
				<ele>572.56</ele>
				<time>2025-07-29T00:08:40.841Z</time>
			</trkpt>
			<trkpt lat="47.97048" lon="14.92337">
				<ele>569.61</ele>
				<time>2025-07-29T00:08:46.269Z</time>
			</trkpt>
			<trkpt lat="47.97051" lon="14.92342">
				<ele>569.18</ele>
				<time>2025-07-29T00:08:46.859Z</time>
			</trkpt>
			<trkpt lat="47.97052" lon="14.92357">
				<ele>568.59</ele>
				<time>2025-07-29T00:08:48.181Z</time>
			</trkpt>
			<trkpt lat="47.9705" lon="14.92387">
				<ele>568.03</ele>
				<time>2025-07-29T00:08:50.815Z</time>
			</trkpt>
			<trkpt lat="47.97047" lon="14.92411">
				<ele>566.54</ele>
				<time>2025-07-29T00:08:52.937Z</time>
			</trkpt>
			<trkpt lat="47.97039" lon="14.92447">
				<ele>564.43</ele>
				<time>2025-07-29T00:08:56.215Z</time>
			</trkpt>
			<trkpt lat="47.96988" lon="14.92529">
				<ele>560.98</ele>
				<time>2025-07-29T00:09:05.742Z</time>
			</trkpt>
			<trkpt lat="47.96981" lon="14.92545">
				<ele>560.66</ele>
				<time>2025-07-29T00:09:07.346Z</time>
			</trkpt>
			<trkpt lat="47.9698" lon="14.92554">
				<ele>559.86</ele>
				<time>2025-07-29T00:09:08.109Z</time>
			</trkpt>
			<trkpt lat="47.96985" lon="14.9258">
				<ele>556.85</ele>
				<time>2025-07-29T00:09:10.363Z</time>
			</trkpt>
			<trkpt lat="47.97002" lon="14.92623">
				<ele>555.2</ele>
				<time>2025-07-29T00:09:14.486Z</time>
			</trkpt>
			<trkpt lat="47.97014" lon="14.92666">
				<ele>554.93</ele>
				<time>2025-07-29T00:09:18.287Z</time>
			</trkpt>
			<trkpt lat="47.97017" lon="14.92695">
				<ele>555.02</ele>
				<time>2025-07-29T00:09:20.658Z</time>
			</trkpt>
			<trkpt lat="47.97009" lon="14.92784">
				<ele>566.04</ele>
				<time>2025-07-29T00:09:27.796Z</time>
			</trkpt>
			<trkpt lat="47.97014" lon="14.92822">
				<ele>564.14</ele>
				<time>2025-07-29T00:09:30.818Z</time>
			</trkpt>
			<trkpt lat="47.97022" lon="14.92823">
				<ele>561.92</ele>
				<time>2025-07-29T00:09:31.747Z</time>
			</trkpt>
			<trkpt lat="47.97024" lon="14.92827">
				<ele>561.03</ele>
				<time>2025-07-29T00:09:32.133Z</time>
			</trkpt>
			<trkpt lat="47.97039" lon="14.9287">
				<ele>557.91</ele>
				<time>2025-07-29T00:09:35.847Z</time>
			</trkpt>
			<trkpt lat="47.97066" lon="14.92911">
				<ele>558.93</ele>
				<time>2025-07-29T00:09:40.179Z</time>
			</trkpt>
			<trkpt lat="47.97084" lon="14.92945">
				<ele>557.53</ele>
				<time>2025-07-29T00:09:43.388Z</time>
			</trkpt>
			<trkpt lat="47.97094" lon="14.92976">
				<ele>553.3</ele>
				<time>2025-07-29T00:09:45.901Z</time>
			</trkpt>
			<trkpt lat="47.97096" lon="14.92992">
				<ele>552.25</ele>
				<time>2025-07-29T00:09:47.078Z</time>
			</trkpt>
			<trkpt lat="47.97098" lon="14.9301">
				<ele>551.32</ele>
				<time>2025-07-29T00:09:48.390Z</time>
			</trkpt>
			<trkpt lat="47.97097" lon="14.93045">
				<ele>550.07</ele>
				<time>2025-07-29T00:09:50.883Z</time>
			</trkpt>
			<trkpt lat="47.97098" lon="14.93055">
				<ele>548.81</ele>
				<time>2025-07-29T00:09:51.597Z</time>
			</trkpt>
			<trkpt lat="47.97101" lon="14.9306">
				<ele>547.39</ele>
				<time>2025-07-29T00:09:52.069Z</time>
			</trkpt>
			<trkpt lat="47.97107" lon="14.93063">
				<ele>544.91</ele>
				<time>2025-07-29T00:09:52.731Z</time>
			</trkpt>
			<trkpt lat="47.97114" lon="14.93059">
				<ele>542.57</ele>
				<time>2025-07-29T00:09:53.512Z</time>
			</trkpt>
			<trkpt lat="47.97117" lon="14.93051">
				<ele>541.74</ele>
				<time>2025-07-29T00:09:54.150Z</time>
			</trkpt>
			<trkpt lat="47.97122" lon="14.92989">
				<ele>541.42</ele>
				<time>2025-07-29T00:09:58.427Z</time>
			</trkpt>
			<trkpt lat="47.97133" lon="14.92931">
				<ele>536.83</ele>
				<time>2025-07-29T00:10:02.447Z</time>
			</trkpt>
			<trkpt lat="47.97164" lon="14.92844">
				<ele>521.98</ele>
				<time>2025-07-29T00:10:08.780Z</time>
			</trkpt>
			<trkpt lat="47.97172" lon="14.9281">
				<ele>521.99</ele>
				<time>2025-07-29T00:10:11.020Z</time>
			</trkpt>
			<trkpt lat="47.97174" lon="14.92789">
				<ele>522.82</ele>
				<time>2025-07-29T00:10:12.319Z</time>
			</trkpt>
			<trkpt lat="47.97168" lon="14.92718">
				<ele>522.38</ele>
				<time>2025-07-29T00:10:16.591Z</time>
			</trkpt>
			<trkpt lat="47.97168" lon="14.92698">
				<ele>521.7</ele>
				<time>2025-07-29T00:10:17.754Z</time>
			</trkpt>
			<trkpt lat="47.9717" lon="14.92671">
				<ele>520.5</ele>
				<time>2025-07-29T00:10:19.312Z</time>
			</trkpt>
			<trkpt lat="47.97173" lon="14.92658">
				<ele>519.74</ele>
				<time>2025-07-29T00:10:20.091Z</time>
			</trkpt>
			<trkpt lat="47.97186" lon="14.92624">
				<ele>517.08</ele>
				<time>2025-07-29T00:10:22.295Z</time>
			</trkpt>
			<trkpt lat="47.97192" lon="14.92612">
				<ele>515.58</ele>
				<time>2025-07-29T00:10:23.135Z</time>
			</trkpt>
			<trkpt lat="47.97205" lon="14.92576">
				<ele>515.17</ele>
				<time>2025-07-29T00:10:25.423Z</time>
			</trkpt>
			<trkpt lat="47.97364" lon="14.9222">
				<ele>503.31</ele>
				<time>2025-07-29T00:10:48.726Z</time>
			</trkpt>
			<trkpt lat="47.97396" lon="14.92145">
				<ele>500.58</ele>
				<time>2025-07-29T00:10:53.428Z</time>
			</trkpt>
			<trkpt lat="47.97419" lon="14.92082">
				<ele>499.09</ele>
				<time>2025-07-29T00:10:57.188Z</time>
			</trkpt>
			<trkpt lat="47.97425" lon="14.92049">
				<ele>498.36</ele>
				<time>2025-07-29T00:10:58.969Z</time>
			</trkpt>
			<trkpt lat="47.97437" lon="14.91789">
				<ele>494.51</ele>
				<time>2025-07-29T00:11:12.320Z</time>
			</trkpt>
			<trkpt lat="47.97441" lon="14.91746">
				<ele>491.75</ele>
				<time>2025-07-29T00:11:14.506Z</time>
			</trkpt>
			<trkpt lat="47.97444" lon="14.9173">
				<ele>491.3</ele>
				<time>2025-07-29T00:11:15.340Z</time>
			</trkpt>
			<trkpt lat="47.97488" lon="14.91557">
				<ele>491.77</ele>
				<time>2025-07-29T00:11:24.527Z</time>
			</trkpt>
			<trkpt lat="47.97542" lon="14.91327">
				<ele>489.12</ele>
				<time>2025-07-29T00:11:36.344Z</time>
			</trkpt>
			<trkpt lat="47.97576" lon="14.91171">
				<ele>491.32</ele>
				<time>2025-07-29T00:11:44.125Z</time>
			</trkpt>
			<trkpt lat="47.97602" lon="14.91021">
				<ele>483.05</ele>
				<time>2025-07-29T00:11:51.349Z</time>
			</trkpt>
			<trkpt lat="47.97616" lon="14.90962">
				<ele>484.89</ele>
				<time>2025-07-29T00:11:54.234Z</time>
			</trkpt>
			<trkpt lat="47.97631" lon="14.90917">
				<ele>483.85</ele>
				<time>2025-07-29T00:11:56.537Z</time>
			</trkpt>
			<trkpt lat="47.97662" lon="14.90848">
				<ele>482.7</ele>
				<time>2025-07-29T00:12:00.318Z</time>
			</trkpt>
			<trkpt lat="47.97792" lon="14.90575">
				<ele>477.85</ele>
				<time>2025-07-29T00:12:15.235Z</time>
			</trkpt>
			<trkpt lat="47.97808" lon="14.90531">
				<ele>478.5</ele>
				<time>2025-07-29T00:12:17.421Z</time>
			</trkpt>
			<trkpt lat="47.97816" lon="14.90494">
				<ele>479.35</ele>
				<time>2025-07-29T00:12:19.111Z</time>
			</trkpt>
			<trkpt lat="47.97833" lon="14.90394">
				<ele>476.22</ele>
				<time>2025-07-29T00:12:23.563Z</time>
			</trkpt>
			<trkpt lat="47.9789" lon="14.90084">
				<ele>474.45</ele>
				<time>2025-07-29T00:12:37.152Z</time>
			</trkpt>
			<trkpt lat="47.97895" lon="14.90018">
				<ele>475.1</ele>
				<time>2025-07-29T00:12:39.908Z</time>
			</trkpt>
			<trkpt lat="47.97902" lon="14.89564">
				<ele>465.78</ele>
				<time>2025-07-29T00:12:58.302Z</time>
			</trkpt>
			<trkpt lat="47.97908" lon="14.8944">
				<ele>462.98</ele>
				<time>2025-07-29T00:13:03.209Z</time>
			</trkpt>
			<trkpt lat="47.97926" lon="14.89224">
				<ele>461.3</ele>
				<time>2025-07-29T00:13:11.675Z</time>
			</trkpt>
			<trkpt lat="47.9793" lon="14.89146">
				<ele>464.4</ele>
				<time>2025-07-29T00:13:14.681Z</time>
			</trkpt>
			<trkpt lat="47.97928" lon="14.8909">
				<ele>464.27</ele>
				<time>2025-07-29T00:13:16.823Z</time>
			</trkpt>
			<trkpt lat="47.97917" lon="14.89035">
				<ele>464.81</ele>
				<time>2025-07-29T00:13:19.007Z</time>
			</trkpt>
			<trkpt lat="47.97908" lon="14.89">
				<ele>464.53</ele>
				<time>2025-07-29T00:13:20.428Z</time>
			</trkpt>
			<trkpt lat="47.97882" lon="14.88922">
				<ele>460.67</ele>
				<time>2025-07-29T00:13:23.713Z</time>
			</trkpt>
			<trkpt lat="47.97863" lon="14.88892">
				<ele>457.42</ele>
				<time>2025-07-29T00:13:25.263Z</time>
			</trkpt>
			<trkpt lat="47.97844" lon="14.88862">
				<ele>454.48</ele>
				<time>2025-07-29T00:13:26.808Z</time>
			</trkpt>
			<trkpt lat="47.97759" lon="14.88747">
				<ele>454.4</ele>
				<time>2025-07-29T00:13:33.165Z</time>
			</trkpt>
			<trkpt lat="47.97701" lon="14.88658">
				<ele>454.93</ele>
				<time>2025-07-29T00:13:37.725Z</time>
			</trkpt>
			<trkpt lat="47.97691" lon="14.88639">
				<ele>454.89</ele>
				<time>2025-07-29T00:13:38.608Z</time>
			</trkpt>
			<trkpt lat="47.97685" lon="14.88613">
				<ele>453.76</ele>
				<time>2025-07-29T00:13:39.611Z</time>
			</trkpt>
			<trkpt lat="47.97672" lon="14.88512">
				<ele>446.72</ele>
				<time>2025-07-29T00:13:43.343Z</time>
			</trkpt>
			<trkpt lat="47.97647" lon="14.88376">
				<ele>447.72</ele>
				<time>2025-07-29T00:13:48.421Z</time>
			</trkpt>
			<trkpt lat="47.9764" lon="14.88355">
				<ele>448.3</ele>
				<time>2025-07-29T00:13:49.261Z</time>
			</trkpt>
			<trkpt lat="47.97631" lon="14.88336">
				<ele>448.36</ele>
				<time>2025-07-29T00:13:50.093Z</time>
			</trkpt>
			<trkpt lat="47.97612" lon="14.88316">
				<ele>447.09</ele>
				<time>2025-07-29T00:13:51.332Z</time>
			</trkpt>
			<trkpt lat="47.97557" lon="14.88267">
				<ele>444.45</ele>
				<time>2025-07-29T00:13:54.733Z</time>
			</trkpt>
			<trkpt lat="47.97541" lon="14.88248">
				<ele>445.45</ele>
				<time>2025-07-29T00:13:55.814Z</time>
			</trkpt>
			<trkpt lat="47.97495" lon="14.88173">
				<ele>445.54</ele>
				<time>2025-07-29T00:13:59.402Z</time>
			</trkpt>
			<trkpt lat="47.97456" lon="14.88114">
				<ele>446.06</ele>
				<time>2025-07-29T00:14:02.312Z</time>
			</trkpt>
			<trkpt lat="47.97417" lon="14.88069">
				<ele>445.37</ele>
				<time>2025-07-29T00:14:04.884Z</time>
			</trkpt>
			<trkpt lat="47.97397" lon="14.8804">
				<ele>443.39</ele>
				<time>2025-07-29T00:14:06.334Z</time>
			</trkpt>
			<trkpt lat="47.97372" lon="14.87986">
				<ele>446.36</ele>
				<time>2025-07-29T00:14:08.614Z</time>
			</trkpt>
			<trkpt lat="47.97251" lon="14.87638">
				<ele>441.79</ele>
				<time>2025-07-29T00:14:22.083Z</time>
			</trkpt>
			<trkpt lat="47.97233" lon="14.87597">
				<ele>445.92</ele>
				<time>2025-07-29T00:14:23.751Z</time>
			</trkpt>
			<trkpt lat="47.97217" lon="14.87568">
				<ele>447.13</ele>
				<time>2025-07-29T00:14:25.027Z</time>
			</trkpt>
			<trkpt lat="47.97187" lon="14.87505">
				<ele>444.19</ele>
				<time>2025-07-29T00:14:27.645Z</time>
			</trkpt>
			<trkpt lat="47.9716" lon="14.87442">
				<ele>444.29</ele>
				<time>2025-07-29T00:14:30.172Z</time>
			</trkpt>
			<trkpt lat="47.97133" lon="14.8736">
				<ele>443.34</ele>
				<time>2025-07-29T00:14:33.250Z</time>
			</trkpt>
			<trkpt lat="47.97121" lon="14.87317">
				<ele>441.56</ele>
				<time>2025-07-29T00:14:34.815Z</time>
			</trkpt>
			<trkpt lat="47.97113" lon="14.87275">
				<ele>440.36</ele>
				<time>2025-07-29T00:14:36.280Z</time>
			</trkpt>
			<trkpt lat="47.97108" lon="14.87235">
				<ele>437.57</ele>
				<time>2025-07-29T00:14:37.643Z</time>
			</trkpt>
			<trkpt lat="47.97107" lon="14.87191">
				<ele>435.99</ele>
				<time>2025-07-29T00:14:39.116Z</time>
			</trkpt>
			<trkpt lat="47.97109" lon="14.87143">
				<ele>435.26</ele>
				<time>2025-07-29T00:14:40.724Z</time>
			</trkpt>
			<trkpt lat="47.97131" lon="14.86917">
				<ele>434.04</ele>
				<time>2025-07-29T00:14:48.328Z</time>
			</trkpt>
			<trkpt lat="47.97136" lon="14.86891">
				<ele>432.25</ele>
				<time>2025-07-29T00:14:49.226Z</time>
			</trkpt>
			<trkpt lat="47.97146" lon="14.86867">
				<ele>432.05</ele>
				<time>2025-07-29T00:14:50.164Z</time>
			</trkpt>
			<trkpt lat="47.97161" lon="14.86843">
				<ele>432</ele>
				<time>2025-07-29T00:14:51.252Z</time>
			</trkpt>
			<trkpt lat="47.97176" lon="14.86798">
				<ele>432.57</ele>
				<time>2025-07-29T00:14:52.918Z</time>
			</trkpt>
			<trkpt lat="47.97182" lon="14.86775">
				<ele>432.63</ele>
				<time>2025-07-29T00:14:53.735Z</time>
			</trkpt>
			<trkpt lat="47.97195" lon="14.86714">
				<ele>432.85</ele>
				<time>2025-07-29T00:14:55.853Z</time>
			</trkpt>
			<trkpt lat="47.97197" lon="14.86686">
				<ele>432.48</ele>
				<time>2025-07-29T00:14:56.784Z</time>
			</trkpt>
			<trkpt lat="47.97195" lon="14.86649">
				<ele>431.5</ele>
				<time>2025-07-29T00:14:58.010Z</time>
			</trkpt>
			<trkpt lat="47.97189" lon="14.86619">
				<ele>431.23</ele>
				<time>2025-07-29T00:14:59.044Z</time>
			</trkpt>
			<trkpt lat="47.97185" lon="14.86604">
				<ele>431.14</ele>
				<time>2025-07-29T00:14:59.577Z</time>
			</trkpt>
			<trkpt lat="47.97166" lon="14.86561">
				<ele>429</ele>
				<time>2025-07-29T00:15:01.278Z</time>
			</trkpt>
			<trkpt lat="47.97162" lon="14.86547">
				<ele>428.93</ele>
				<time>2025-07-29T00:15:01.780Z</time>
			</trkpt>
			<trkpt lat="47.97157" lon="14.86519">
				<ele>429.14</ele>
				<time>2025-07-29T00:15:02.736Z</time>
			</trkpt>
			<trkpt lat="47.97155" lon="14.86479">
				<ele>427.97</ele>
				<time>2025-07-29T00:15:04.058Z</time>
			</trkpt>
			<trkpt lat="47.97156" lon="14.86443">
				<ele>426.99</ele>
				<time>2025-07-29T00:15:05.246Z</time>
			</trkpt>
			<trkpt lat="47.97161" lon="14.86416">
				<ele>426.84</ele>
				<time>2025-07-29T00:15:06.169Z</time>
			</trkpt>
			<trkpt lat="47.97173" lon="14.86368">
				<ele>430.44</ele>
				<time>2025-07-29T00:15:07.857Z</time>
			</trkpt>
			<trkpt lat="47.97173" lon="14.86345">
				<ele>431.58</ele>
				<time>2025-07-29T00:15:08.614Z</time>
			</trkpt>
			<trkpt lat="47.97169" lon="14.86325">
				<ele>431.68</ele>
				<time>2025-07-29T00:15:09.301Z</time>
			</trkpt>
			<trkpt lat="47.97145" lon="14.86289">
				<ele>429.18</ele>
				<time>2025-07-29T00:15:10.974Z</time>
			</trkpt>
			<trkpt lat="47.97136" lon="14.86268">
				<ele>428.17</ele>
				<time>2025-07-29T00:15:11.795Z</time>
			</trkpt>
			<trkpt lat="47.97133" lon="14.86254">
				<ele>428.25</ele>
				<time>2025-07-29T00:15:12.279Z</time>
			</trkpt>
			<trkpt lat="47.97126" lon="14.86207">
				<ele>428.22</ele>
				<time>2025-07-29T00:15:13.864Z</time>
			</trkpt>
			<trkpt lat="47.97113" lon="14.86091">
				<ele>430.29</ele>
				<time>2025-07-29T00:15:17.735Z</time>
			</trkpt>
			<trkpt lat="47.97106" lon="14.85974">
				<ele>430.19</ele>
				<time>2025-07-29T00:15:21.603Z</time>
			</trkpt>
			<trkpt lat="47.97104" lon="14.85873">
				<ele>430.61</ele>
				<time>2025-07-29T00:15:24.931Z</time>
			</trkpt>
			<trkpt lat="47.97106" lon="14.85737">
				<ele>432.56</ele>
				<time>2025-07-29T00:15:29.417Z</time>
			</trkpt>
			<trkpt lat="47.97132" lon="14.85344">
				<ele>427.11</ele>
				<time>2025-07-29T00:15:42.490Z</time>
			</trkpt>
			<trkpt lat="47.97135" lon="14.85275">
				<ele>425.26</ele>
				<time>2025-07-29T00:15:44.789Z</time>
			</trkpt>
			<trkpt lat="47.97131" lon="14.85187">
				<ele>424.44</ele>
				<time>2025-07-29T00:15:47.728Z</time>
			</trkpt>
			<trkpt lat="47.97125" lon="14.85117">
				<ele>423.28</ele>
				<time>2025-07-29T00:15:50.084Z</time>
			</trkpt>
			<trkpt lat="47.97115" lon="14.85055">
				<ele>419.85</ele>
				<time>2025-07-29T00:15:52.218Z</time>
			</trkpt>
			<trkpt lat="47.97102" lon="14.84991">
				<ele>418.15</ele>
				<time>2025-07-29T00:15:54.459Z</time>
			</trkpt>
			<trkpt lat="47.97088" lon="14.84929">
				<ele>418.54</ele>
				<time>2025-07-29T00:15:56.657Z</time>
			</trkpt>
			<trkpt lat="47.97086" lon="14.84914">
				<ele>418.33</ele>
				<time>2025-07-29T00:15:57.172Z</time>
			</trkpt>
			<trkpt lat="47.97085" lon="14.84866">
				<ele>418.29</ele>
				<time>2025-07-29T00:15:58.789Z</time>
			</trkpt>
			<trkpt lat="47.9709" lon="14.84828">
				<ele>419.63</ele>
				<time>2025-07-29T00:16:00.094Z</time>
			</trkpt>
			<trkpt lat="47.97112" lon="14.84721">
				<ele>422.13</ele>
				<time>2025-07-29T00:16:03.879Z</time>
			</trkpt>
			<trkpt lat="47.97119" lon="14.84676">
				<ele>422.79</ele>
				<time>2025-07-29T00:16:05.446Z</time>
			</trkpt>
			<trkpt lat="47.97124" lon="14.84579">
				<ele>418.8</ele>
				<time>2025-07-29T00:16:08.756Z</time>
			</trkpt>
			<trkpt lat="47.97123" lon="14.84536">
				<ele>418.28</ele>
				<time>2025-07-29T00:16:10.224Z</time>
			</trkpt>
			<trkpt lat="47.97118" lon="14.84491">
				<ele>418.57</ele>
				<time>2025-07-29T00:16:11.783Z</time>
			</trkpt>
			<trkpt lat="47.97094" lon="14.84397">
				<ele>415.65</ele>
				<time>2025-07-29T00:16:15.233Z</time>
			</trkpt>
			<trkpt lat="47.9709" lon="14.84372">
				<ele>415.56</ele>
				<time>2025-07-29T00:16:16.118Z</time>
			</trkpt>
			<trkpt lat="47.97085" lon="14.8432">
				<ele>415.78</ele>
				<time>2025-07-29T00:16:17.928Z</time>
			</trkpt>
			<trkpt lat="47.97083" lon="14.84218">
				<ele>413.99</ele>
				<time>2025-07-29T00:16:21.458Z</time>
			</trkpt>
			<trkpt lat="47.97079" lon="14.84172">
				<ele>413.55</ele>
				<time>2025-07-29T00:16:23.069Z</time>
			</trkpt>
			<trkpt lat="47.97071" lon="14.8413">
				<ele>411.38</ele>
				<time>2025-07-29T00:16:24.589Z</time>
			</trkpt>
			<trkpt lat="47.97059" lon="14.8409">
				<ele>409.42</ele>
				<time>2025-07-29T00:16:26.118Z</time>
			</trkpt>
			<trkpt lat="47.97042" lon="14.84041">
				<ele>408.54</ele>
				<time>2025-07-29T00:16:28.049Z</time>
			</trkpt>
			<trkpt lat="47.97031" lon="14.83998">
				<ele>408.26</ele>
				<time>2025-07-29T00:16:29.664Z</time>
			</trkpt>
			<trkpt lat="47.97002" lon="14.83816">
				<ele>415.78</ele>
				<time>2025-07-29T00:16:36.271Z</time>
			</trkpt>
			<trkpt lat="47.96993" lon="14.83751">
				<ele>412.6</ele>
				<time>2025-07-29T00:16:38.633Z</time>
			</trkpt>
			<trkpt lat="47.96981" lon="14.83644">
				<ele>411.95</ele>
				<time>2025-07-29T00:16:42.516Z</time>
			</trkpt>
			<trkpt lat="47.96979" lon="14.83594">
				<ele>410.14</ele>
				<time>2025-07-29T00:16:44.317Z</time>
			</trkpt>
			<trkpt lat="47.96981" lon="14.83368">
				<ele>410.49</ele>
				<time>2025-07-29T00:16:52.522Z</time>
			</trkpt>
			<trkpt lat="47.96981" lon="14.83352">
				<ele>410.91</ele>
				<time>2025-07-29T00:16:53.107Z</time>
			</trkpt>
			<trkpt lat="47.96977" lon="14.83329">
				<ele>411.35</ele>
				<time>2025-07-29T00:16:53.978Z</time>
			</trkpt>
			<trkpt lat="47.96969" lon="14.8331">
				<ele>412.1</ele>
				<time>2025-07-29T00:16:54.802Z</time>
			</trkpt>
			<trkpt lat="47.96949" lon="14.8328">
				<ele>414.15</ele>
				<time>2025-07-29T00:16:56.360Z</time>
			</trkpt>
			<trkpt lat="47.96924" lon="14.8325">
				<ele>415.82</ele>
				<time>2025-07-29T00:16:58.129Z</time>
			</trkpt>
			<trkpt lat="47.96902" lon="14.83227">
				<ele>415.2</ele>
				<time>2025-07-29T00:16:59.614Z</time>
			</trkpt>
			<trkpt lat="47.96887" lon="14.83204">
				<ele>414.81</ele>
				<time>2025-07-29T00:17:00.806Z</time>
			</trkpt>
			<trkpt lat="47.96871" lon="14.83175">
				<ele>414.82</ele>
				<time>2025-07-29T00:17:02.206Z</time>
			</trkpt>
			<trkpt lat="47.96854" lon="14.83137">
				<ele>417.93</ele>
				<time>2025-07-29T00:17:03.913Z</time>
			</trkpt>
			<trkpt lat="47.96842" lon="14.83098">
				<ele>420.29</ele>
				<time>2025-07-29T00:17:05.521Z</time>
			</trkpt>
			<trkpt lat="47.96834" lon="14.83058">
				<ele>419.29</ele>
				<time>2025-07-29T00:17:07.091Z</time>
			</trkpt>
			<trkpt lat="47.96831" lon="14.8301">
				<ele>417.54</ele>
				<time>2025-07-29T00:17:08.910Z</time>
			</trkpt>
			<trkpt lat="47.96832" lon="14.82941">
				<ele>407.9</ele>
				<time>2025-07-29T00:17:11.526Z</time>
			</trkpt>
			<trkpt lat="47.96843" lon="14.82836">
				<ele>406.16</ele>
				<time>2025-07-29T00:17:15.582Z</time>
			</trkpt>
			<trkpt lat="47.96849" lon="14.82809">
				<ele>407.06</ele>
				<time>2025-07-29T00:17:16.674Z</time>
			</trkpt>
			<trkpt lat="47.96854" lon="14.82792">
				<ele>407.02</ele>
				<time>2025-07-29T00:17:17.388Z</time>
			</trkpt>
			<trkpt lat="47.96872" lon="14.82753">
				<ele>406.16</ele>
				<time>2025-07-29T00:17:19.214Z</time>
			</trkpt>
			<trkpt lat="47.96926" lon="14.82657">
				<ele>406.49</ele>
				<time>2025-07-29T00:17:24.084Z</time>
			</trkpt>
			<trkpt lat="47.96936" lon="14.8263">
				<ele>408.01</ele>
				<time>2025-07-29T00:17:25.290Z</time>
			</trkpt>
			<trkpt lat="47.96941" lon="14.82606">
				<ele>409.36</ele>
				<time>2025-07-29T00:17:26.275Z</time>
			</trkpt>
			<trkpt lat="47.96942" lon="14.82582">
				<ele>410.65</ele>
				<time>2025-07-29T00:17:27.219Z</time>
			</trkpt>
			<trkpt lat="47.9694" lon="14.82568">
				<ele>413.76</ele>
				<time>2025-07-29T00:17:27.782Z</time>
			</trkpt>
			<trkpt lat="47.96933" lon="14.8254">
				<ele>416.65</ele>
				<time>2025-07-29T00:17:28.960Z</time>
			</trkpt>
			<trkpt lat="47.96911" lon="14.82496">
				<ele>414.54</ele>
				<time>2025-07-29T00:17:31.132Z</time>
			</trkpt>
			<trkpt lat="47.96877" lon="14.82447">
				<ele>408.37</ele>
				<time>2025-07-29T00:17:33.939Z</time>
			</trkpt>
			<trkpt lat="47.96866" lon="14.82425">
				<ele>406.92</ele>
				<time>2025-07-29T00:17:35.035Z</time>
			</trkpt>
			<trkpt lat="47.96844" lon="14.82356">
				<ele>403.05</ele>
				<time>2025-07-29T00:17:38.102Z</time>
			</trkpt>
			<trkpt lat="47.96832" lon="14.82304">
				<ele>401.91</ele>
				<time>2025-07-29T00:17:40.323Z</time>
			</trkpt>
			<trkpt lat="47.96825" lon="14.82255">
				<ele>401.36</ele>
				<time>2025-07-29T00:17:42.355Z</time>
			</trkpt>
			<trkpt lat="47.96822" lon="14.82188">
				<ele>401.83</ele>
				<time>2025-07-29T00:17:45.094Z</time>
			</trkpt>
			<trkpt lat="47.96823" lon="14.82169">
				<ele>401.93</ele>
				<time>2025-07-29T00:17:45.874Z</time>
			</trkpt>
			<trkpt lat="47.96836" lon="14.82104">
				<ele>400.96</ele>
				<time>2025-07-29T00:17:48.663Z</time>
			</trkpt>
			<trkpt lat="47.96835" lon="14.82047">
				<ele>398.01</ele>
				<time>2025-07-29T00:17:51.021Z</time>
			</trkpt>
			<trkpt lat="47.9684" lon="14.81966">
				<ele>396.86</ele>
				<time>2025-07-29T00:17:54.407Z</time>
			</trkpt>
			<trkpt lat="47.96848" lon="14.81833">
				<ele>397.27</ele>
				<time>2025-07-29T00:18:00.022Z</time>
			</trkpt>
			<trkpt lat="47.96847" lon="14.81789">
				<ele>397.89</ele>
				<time>2025-07-29T00:18:01.890Z</time>
			</trkpt>
			<trkpt lat="47.96839" lon="14.81712">
				<ele>399.6</ele>
				<time>2025-07-29T00:18:05.215Z</time>
			</trkpt>
			<trkpt lat="47.9683" lon="14.8167">
				<ele>401.21</ele>
				<time>2025-07-29T00:18:07.108Z</time>
			</trkpt>
			<trkpt lat="47.96819" lon="14.81635">
				<ele>403.26</ele>
				<time>2025-07-29T00:18:08.774Z</time>
			</trkpt>
			<trkpt lat="47.96806" lon="14.81604">
				<ele>403.74</ele>
				<time>2025-07-29T00:18:10.357Z</time>
			</trkpt>
			<trkpt lat="47.96783" lon="14.81577">
				<ele>403.53</ele>
				<time>2025-07-29T00:18:12.255Z</time>
			</trkpt>
			<trkpt lat="47.96774" lon="14.81559">
				<ele>403.89</ele>
				<time>2025-07-29T00:18:13.234Z</time>
			</trkpt>
			<trkpt lat="47.96771" lon="14.81547">
				<ele>404.47</ele>
				<time>2025-07-29T00:18:13.793Z</time>
			</trkpt>
			<trkpt lat="47.96763" lon="14.81498">
				<ele>408.03</ele>
				<time>2025-07-29T00:18:16.002Z</time>
			</trkpt>
			<trkpt lat="47.96755" lon="14.8147">
				<ele>406.39</ele>
				<time>2025-07-29T00:18:17.341Z</time>
			</trkpt>
			<trkpt lat="47.96748" lon="14.81455">
				<ele>403.47</ele>
				<time>2025-07-29T00:18:18.147Z</time>
			</trkpt>
			<trkpt lat="47.96732" lon="14.81427">
				<ele>397.7</ele>
				<time>2025-07-29T00:18:19.774Z</time>
			</trkpt>
			<trkpt lat="47.96723" lon="14.81415">
				<ele>395.36</ele>
				<time>2025-07-29T00:18:20.573Z</time>
			</trkpt>
			<trkpt lat="47.96684" lon="14.8137">
				<ele>398.4</ele>
				<time>2025-07-29T00:18:23.852Z</time>
			</trkpt>
			<trkpt lat="47.96674" lon="14.81357">
				<ele>398.75</ele>
				<time>2025-07-29T00:18:24.738Z</time>
			</trkpt>
			<trkpt lat="47.96663" lon="14.81334">
				<ele>398.25</ele>
				<time>2025-07-29T00:18:26.007Z</time>
			</trkpt>
			<trkpt lat="47.96659" lon="14.8132">
				<ele>398.01</ele>
				<time>2025-07-29T00:18:26.691Z</time>
			</trkpt>
			<trkpt lat="47.96656" lon="14.81284">
				<ele>397.02</ele>
				<time>2025-07-29T00:18:28.327Z</time>
			</trkpt>
			<trkpt lat="47.9666" lon="14.8118">
				<ele>398.41</ele>
				<time>2025-07-29T00:18:33.059Z</time>
			</trkpt>
			<trkpt lat="47.96664" lon="14.81158">
				<ele>398.4</ele>
				<time>2025-07-29T00:18:34.101Z</time>
			</trkpt>
			<trkpt lat="47.96684" lon="14.81067">
				<ele>399.43</ele>
				<time>2025-07-29T00:18:38.508Z</time>
			</trkpt>
			<trkpt lat="47.96688" lon="14.81029">
				<ele>399.8</ele>
				<time>2025-07-29T00:18:40.290Z</time>
			</trkpt>
			<trkpt lat="47.96687" lon="14.80988">
				<ele>399.44</ele>
				<time>2025-07-29T00:18:42.199Z</time>
			</trkpt>
			<trkpt lat="47.96681" lon="14.80913">
				<ele>397.21</ele>
				<time>2025-07-29T00:18:45.736Z</time>
			</trkpt>
			<trkpt lat="47.9668" lon="14.80877">
				<ele>397.19</ele>
				<time>2025-07-29T00:18:47.433Z</time>
			</trkpt>
			<trkpt lat="47.96681" lon="14.80851">
				<ele>396.51</ele>
				<time>2025-07-29T00:18:48.664Z</time>
			</trkpt>
			<trkpt lat="47.96683" lon="14.8083">
				<ele>394.18</ele>
				<time>2025-07-29T00:18:49.669Z</time>
			</trkpt>
			<trkpt lat="47.96688" lon="14.80807">
				<ele>390.07</ele>
				<time>2025-07-29T00:18:50.817Z</time>
			</trkpt>
			<trkpt lat="47.96694" lon="14.80794">
				<ele>388.1</ele>
				<time>2025-07-29T00:18:51.569Z</time>
			</trkpt>
			<trkpt lat="47.96701" lon="14.80789">
				<ele>389.31</ele>
				<time>2025-07-29T00:18:52.121Z</time>
			</trkpt>
			<trkpt lat="47.96697" lon="14.80742">
				<ele>387.73</ele>
				<time>2025-07-29T00:18:54.387Z</time>
			</trkpt>
			<trkpt lat="47.96697" lon="14.80719">
				<ele>388.23</ele>
				<time>2025-07-29T00:18:55.491Z</time>
			</trkpt>
			<trkpt lat="47.96701" lon="14.80678">
				<ele>388.53</ele>
				<time>2025-07-29T00:18:57.487Z</time>
			</trkpt>
			<trkpt lat="47.96703" lon="14.80624">
				<ele>389.54</ele>
				<time>2025-07-29T00:19:00.106Z</time>
			</trkpt>
			<trkpt lat="47.96699" lon="14.80553">
				<ele>390.62</ele>
				<time>2025-07-29T00:19:03.580Z</time>
			</trkpt>
			<trkpt lat="47.96692" lon="14.80519">
				<ele>393.67</ele>
				<time>2025-07-29T00:19:05.324Z</time>
			</trkpt>
			<trkpt lat="47.96689" lon="14.80509">
				<ele>395.33</ele>
				<time>2025-07-29T00:19:05.863Z</time>
			</trkpt>
			<trkpt lat="47.96683" lon="14.80493">
				<ele>397.78</ele>
				<time>2025-07-29T00:19:06.766Z</time>
			</trkpt>
			<trkpt lat="47.96662" lon="14.80465">
				<ele>398.55</ele>
				<time>2025-07-29T00:19:08.843Z</time>
			</trkpt>
			<trkpt lat="47.9655" lon="14.80343">
				<ele>387.02</ele>
				<time>2025-07-29T00:19:19.215Z</time>
			</trkpt>
			<trkpt lat="47.96533" lon="14.80317">
				<ele>385.83</ele>
				<time>2025-07-29T00:19:21.060Z</time>
			</trkpt>
			<trkpt lat="47.96525" lon="14.803">
				<ele>385.95</ele>
				<time>2025-07-29T00:19:22.119Z</time>
			</trkpt>
			<trkpt lat="47.96518" lon="14.80278">
				<ele>388.08</ele>
				<time>2025-07-29T00:19:23.363Z</time>
			</trkpt>
			<trkpt lat="47.96515" lon="14.80264">
				<ele>388.77</ele>
				<time>2025-07-29T00:19:24.115Z</time>
			</trkpt>
			<trkpt lat="47.96511" lon="14.80229">
				<ele>390.09</ele>
				<time>2025-07-29T00:19:25.938Z</time>
			</trkpt>
			<trkpt lat="47.96511" lon="14.80175">
				<ele>387.32</ele>
				<time>2025-07-29T00:19:28.723Z</time>
			</trkpt>
			<trkpt lat="47.9652" lon="14.80079">
				<ele>383.93</ele>
				<time>2025-07-29T00:19:33.769Z</time>
			</trkpt>
			<trkpt lat="47.96519" lon="14.80033">
				<ele>382.42</ele>
				<time>2025-07-29T00:19:36.186Z</time>
			</trkpt>
			<trkpt lat="47.96515" lon="14.80008">
				<ele>380.49</ele>
				<time>2025-07-29T00:19:37.542Z</time>
			</trkpt>
			<trkpt lat="47.96503" lon="14.79947">
				<ele>383.09</ele>
				<time>2025-07-29T00:19:40.915Z</time>
			</trkpt>
			<trkpt lat="47.96502" lon="14.79915">
				<ele>390.05</ele>
				<time>2025-07-29T00:19:42.625Z</time>
			</trkpt>
			<trkpt lat="47.96507" lon="14.79882">
				<ele>397.07</ele>
				<time>2025-07-29T00:19:44.438Z</time>
			</trkpt>
			<trkpt lat="47.96514" lon="14.79858">
				<ele>397.45</ele>
				<time>2025-07-29T00:19:45.846Z</time>
			</trkpt>
			<trkpt lat="47.9653" lon="14.79815">
				<ele>396.35</ele>
				<time>2025-07-29T00:19:48.504Z</time>
			</trkpt>
			<trkpt lat="47.96572" lon="14.79716">
				<ele>387.4</ele>
				<time>2025-07-29T00:19:54.900Z</time>
			</trkpt>
			<trkpt lat="47.96583" lon="14.79687">
				<ele>385.27</ele>
				<time>2025-07-29T00:19:56.736Z</time>
			</trkpt>
			<trkpt lat="47.96588" lon="14.79668">
				<ele>388.65</ele>
				<time>2025-07-29T00:19:57.864Z</time>
			</trkpt>
			<trkpt lat="47.96591" lon="14.79645">
				<ele>389.52</ele>
				<time>2025-07-29T00:19:59.162Z</time>
			</trkpt>
			<trkpt lat="47.96593" lon="14.79597">
				<ele>390.31</ele>
				<time>2025-07-29T00:20:01.838Z</time>
			</trkpt>
			<trkpt lat="47.96591" lon="14.79568">
				<ele>390</ele>
				<time>2025-07-29T00:20:03.467Z</time>
			</trkpt>
			<trkpt lat="47.96564" lon="14.79395">
				<ele>384.17</ele>
				<time>2025-07-29T00:20:13.517Z</time>
			</trkpt>
			<trkpt lat="47.96565" lon="14.79361">
				<ele>385.8</ele>
				<time>2025-07-29T00:20:15.466Z</time>
			</trkpt>
			<trkpt lat="47.96568" lon="14.79345">
				<ele>384.48</ele>
				<time>2025-07-29T00:20:16.420Z</time>
			</trkpt>
			<trkpt lat="47.96578" lon="14.79316">
				<ele>380.86</ele>
				<time>2025-07-29T00:20:18.299Z</time>
			</trkpt>
			<trkpt lat="47.9663" lon="14.79247">
				<ele>371.95</ele>
				<time>2025-07-29T00:20:24.330Z</time>
			</trkpt>
			<trkpt lat="47.96644" lon="14.79218">
				<ele>372.49</ele>
				<time>2025-07-29T00:20:26.422Z</time>
			</trkpt>
			<trkpt lat="47.96648" lon="14.79201">
				<ele>373.2</ele>
				<time>2025-07-29T00:20:27.480Z</time>
			</trkpt>
			<trkpt lat="47.96653" lon="14.79167">
				<ele>373.53</ele>
				<time>2025-07-29T00:20:29.529Z</time>
			</trkpt>
			<trkpt lat="47.96653" lon="14.79149">
				<ele>373.82</ele>
				<time>2025-07-29T00:20:30.592Z</time>
			</trkpt>
			<trkpt lat="47.96648" lon="14.79108">
				<ele>374.13</ele>
				<time>2025-07-29T00:20:33.060Z</time>
			</trkpt>
			<trkpt lat="47.96632" lon="14.79043">
				<ele>376.63</ele>
				<time>2025-07-29T00:20:37.188Z</time>
			</trkpt>
			<trkpt lat="47.96625" lon="14.79003">
				<ele>378.47</ele>
				<time>2025-07-29T00:20:39.668Z</time>
			</trkpt>
			<trkpt lat="47.96623" lon="14.78968">
				<ele>378.17</ele>
				<time>2025-07-29T00:20:41.784Z</time>
			</trkpt>
			<trkpt lat="47.96626" lon="14.78922">
				<ele>377.39</ele>
				<time>2025-07-29T00:20:44.580Z</time>
			</trkpt>
			<trkpt lat="47.96633" lon="14.7889">
				<ele>372.26</ele>
				<time>2025-07-29T00:20:46.625Z</time>
			</trkpt>
			<trkpt lat="47.96655" lon="14.78798">
				<ele>371.99</ele>
				<time>2025-07-29T00:20:52.603Z</time>
			</trkpt>
			<trkpt lat="47.9666" lon="14.78759">
				<ele>375.86</ele>
				<time>2025-07-29T00:20:55.051Z</time>
			</trkpt>
			<trkpt lat="47.96661" lon="14.78739">
				<ele>378.07</ele>
				<time>2025-07-29T00:20:56.292Z</time>
			</trkpt>
			<trkpt lat="47.9666" lon="14.78719">
				<ele>379.48</ele>
				<time>2025-07-29T00:20:57.535Z</time>
			</trkpt>
			<trkpt lat="47.96657" lon="14.78699">
				<ele>379.56</ele>
				<time>2025-07-29T00:20:58.808Z</time>
			</trkpt>
			<trkpt lat="47.96644" lon="14.78654">
				<ele>377.64</ele>
				<time>2025-07-29T00:21:01.864Z</time>
			</trkpt>
			<trkpt lat="47.96625" lon="14.78604">
				<ele>374.24</ele>
				<time>2025-07-29T00:21:05.468Z</time>
			</trkpt>
			<trkpt lat="47.9662" lon="14.78583">
				<ele>373.12</ele>
				<time>2025-07-29T00:21:06.872Z</time>
			</trkpt>
			<trkpt lat="47.96616" lon="14.78555">
				<ele>371.46</ele>
				<time>2025-07-29T00:21:08.679Z</time>
			</trkpt>
			<trkpt lat="47.9659" lon="14.7835">
				<ele>371.92</ele>
				<time>2025-07-29T00:21:22.017Z</time>
			</trkpt>
			<trkpt lat="47.96575" lon="14.78302">
				<ele>373.11</ele>
				<time>2025-07-29T00:21:25.449Z</time>
			</trkpt>
			<trkpt lat="47.96562" lon="14.78269">
				<ele>373.95</ele>
				<time>2025-07-29T00:21:27.941Z</time>
			</trkpt>
			<trkpt lat="47.96526" lon="14.7819">
				<ele>372.13</ele>
				<time>2025-07-29T00:21:34.204Z</time>
			</trkpt>
			<trkpt lat="47.96513" lon="14.78171">
				<ele>371.32</ele>
				<time>2025-07-29T00:21:35.996Z</time>
			</trkpt>
			<trkpt lat="47.9646" lon="14.78105">
				<ele>368.46</ele>
				<time>2025-07-29T00:21:42.837Z</time>
			</trkpt>
			<trkpt lat="47.96438" lon="14.78067">
				<ele>366.39</ele>
				<time>2025-07-29T00:21:46.197Z</time>
			</trkpt>
			<trkpt lat="47.96422" lon="14.78032">
				<ele>362.51</ele>
				<time>2025-07-29T00:21:49.045Z</time>
			</trkpt>
			<trkpt lat="47.96417" lon="14.78017">
				<ele>361.39</ele>
				<time>2025-07-29T00:21:50.174Z</time>
			</trkpt>
			<trkpt lat="47.96409" lon="14.77984">
				<ele>364.87</ele>
				<time>2025-07-29T00:21:52.546Z</time>
			</trkpt>
			<trkpt lat="47.96407" lon="14.77969">
				<ele>365.35</ele>
				<time>2025-07-29T00:21:53.582Z</time>
			</trkpt>
			<trkpt lat="47.96406" lon="14.77933">
				<ele>363.85</ele>
				<time>2025-07-29T00:21:56.029Z</time>
			</trkpt>
			<trkpt lat="47.96407" lon="14.77913">
				<ele>362.09</ele>
				<time>2025-07-29T00:21:57.395Z</time>
			</trkpt>
			<trkpt lat="47.9642" lon="14.77851">
				<ele>358.09</ele>
				<time>2025-07-29T00:22:01.837Z</time>
			</trkpt>
			<trkpt lat="47.96421" lon="14.7784">
				<ele>358.04</ele>
				<time>2025-07-29T00:22:02.599Z</time>
			</trkpt>
			<trkpt lat="47.9642" lon="14.77827">
				<ele>357.94</ele>
				<time>2025-07-29T00:22:03.498Z</time>
			</trkpt>
			<trkpt lat="47.96419" lon="14.77822">
				<ele>357.92</ele>
				<time>2025-07-29T00:22:03.857Z</time>
			</trkpt>
			<trkpt lat="47.9641" lon="14.77786">
				<ele>359.01</ele>
				<time>2025-07-29T00:22:06.505Z</time>
			</trkpt>
			<trkpt lat="47.9641" lon="14.77757">
				<ele>356.68</ele>
				<time>2025-07-29T00:22:08.511Z</time>
			</trkpt>
			<trkpt lat="47.96421" lon="14.77696">
				<ele>352.88</ele>
				<time>2025-07-29T00:22:12.898Z</time>
			</trkpt>
			<trkpt lat="47.9642" lon="14.77667">
				<ele>352.16</ele>
				<time>2025-07-29T00:22:14.924Z</time>
			</trkpt>
			<trkpt lat="47.96416" lon="14.77639">
				<ele>352.01</ele>
				<time>2025-07-29T00:22:16.927Z</time>
			</trkpt>
			<trkpt lat="47.96398" lon="14.77552">
				<ele>350.65</ele>
				<time>2025-07-29T00:22:23.333Z</time>
			</trkpt>
			<trkpt lat="47.96399" lon="14.77542">
				<ele>350.61</ele>
				<time>2025-07-29T00:22:24.047Z</time>
			</trkpt>
			<trkpt lat="47.96404" lon="14.77529">
				<ele>350.44</ele>
				<time>2025-07-29T00:22:25.108Z</time>
			</trkpt>
			<trkpt lat="47.96414" lon="14.7751">
				<ele>350.07</ele>
				<time>2025-07-29T00:22:26.822Z</time>
			</trkpt>
			<trkpt lat="47.96428" lon="14.77473">
				<ele>349.48</ele>
				<time>2025-07-29T00:22:29.845Z</time>
			</trkpt>
			<trkpt lat="47.96429" lon="14.77451">
				<ele>349.47</ele>
				<time>2025-07-29T00:22:31.418Z</time>
			</trkpt>
			<trkpt lat="47.96416" lon="14.77371">
				<ele>350.02</ele>
				<time>2025-07-29T00:22:37.319Z</time>
			</trkpt>
			<trkpt lat="47.96409" lon="14.77346">
				<ele>349.07</ele>
				<time>2025-07-29T00:22:39.272Z</time>
			</trkpt>
			<trkpt lat="47.96403" lon="14.77333">
				<ele>349.83</ele>
				<time>2025-07-29T00:22:40.412Z</time>
			</trkpt>
			<trkpt lat="47.96398" lon="14.77325">
				<ele>350.38</ele>
				<time>2025-07-29T00:22:41.203Z</time>
			</trkpt>
			<trkpt lat="47.9639" lon="14.77316">
				<ele>351.01</ele>
				<time>2025-07-29T00:22:42.285Z</time>
			</trkpt>
			<trkpt lat="47.96381" lon="14.77308">
				<ele>351.64</ele>
				<time>2025-07-29T00:22:43.419Z</time>
			</trkpt>
			<trkpt lat="47.96371" lon="14.77302">
				<ele>352.23</ele>
				<time>2025-07-29T00:22:44.587Z</time>
			</trkpt>
			<trkpt lat="47.9635" lon="14.77298">
				<ele>353.44</ele>
				<time>2025-07-29T00:22:46.887Z</time>
			</trkpt>
			<trkpt lat="47.96335" lon="14.77292">
				<ele>357.44</ele>
				<time>2025-07-29T00:22:48.578Z</time>
			</trkpt>
			<trkpt lat="47.96327" lon="14.77283">
				<ele>359.62</ele>
				<time>2025-07-29T00:22:49.671Z</time>
			</trkpt>
			<trkpt lat="47.96324" lon="14.77272">
				<ele>360.94</ele>
				<time>2025-07-29T00:22:50.540Z</time>
			</trkpt>
			<trkpt lat="47.96298" lon="14.77277">
				<ele>363.21</ele>
				<time>2025-07-29T00:22:53.410Z</time>
			</trkpt>
			<trkpt lat="47.96272" lon="14.77277">
				<ele>360.61</ele>
				<time>2025-07-29T00:22:56.266Z</time>
			</trkpt>
			<trkpt lat="47.96237" lon="14.77271">
				<ele>358.73</ele>
				<time>2025-07-29T00:23:00.153Z</time>
			</trkpt>
			<trkpt lat="47.96211" lon="14.77263">
				<ele>357.4</ele>
				<time>2025-07-29T00:23:03.095Z</time>
			</trkpt>
			<trkpt lat="47.96197" lon="14.77262">
				<ele>356.02</ele>
				<time>2025-07-29T00:23:04.652Z</time>
			</trkpt>
			<trkpt lat="47.96192" lon="14.77258">
				<ele>355.88</ele>
				<time>2025-07-29T00:23:05.283Z</time>
			</trkpt>
			<trkpt lat="47.96186" lon="14.77258">
				<ele>355.32</ele>
				<time>2025-07-29T00:23:05.951Z</time>
			</trkpt>
			<trkpt lat="47.96179" lon="14.77258">
				<ele>354.63</ele>
				<time>2025-07-29T00:23:06.731Z</time>
			</trkpt>
			<trkpt lat="47.96163" lon="14.77265">
				<ele>353.09</ele>
				<time>2025-07-29T00:23:08.591Z</time>
			</trkpt>
			<trkpt lat="47.9616" lon="14.77264">
				<ele>353.42</ele>
				<time>2025-07-29T00:23:08.935Z</time>
			</trkpt>
			<trkpt lat="47.96153" lon="14.77267">
				<ele>353.79</ele>
				<time>2025-07-29T00:23:09.749Z</time>
			</trkpt>
			<trkpt lat="47.96134" lon="14.77267">
				<ele>355.17</ele>
				<time>2025-07-29T00:23:11.878Z</time>
			</trkpt>
			<trkpt lat="47.96126" lon="14.77271">
				<ele>355.42</ele>
				<time>2025-07-29T00:23:12.824Z</time>
			</trkpt>
			<trkpt lat="47.9607" lon="14.77277">
				<ele>354.99</ele>
				<time>2025-07-29T00:23:19.152Z</time>
			</trkpt>
			<trkpt lat="47.96036" lon="14.77275">
				<ele>356.28</ele>
				<time>2025-07-29T00:23:23.010Z</time>
			</trkpt>
			<trkpt lat="47.95984" lon="14.77263">
				<ele>357.75</ele>
				<time>2025-07-29T00:23:29.010Z</time>
			</trkpt>
			<trkpt lat="47.9593" lon="14.77254">
				<ele>358.32</ele>
				<time>2025-07-29T00:23:35.250Z</time>
			</trkpt>
			<trkpt lat="47.95887" lon="14.77242">
				<ele>357.69</ele>
				<time>2025-07-29T00:23:40.305Z</time>
			</trkpt>
			<trkpt lat="47.95878" lon="14.77236">
				<ele>357.49</ele>
				<time>2025-07-29T00:23:41.448Z</time>
			</trkpt>
			<trkpt lat="47.9585" lon="14.77228">
				<ele>357.87</ele>
				<time>2025-07-29T00:23:44.762Z</time>
			</trkpt>
			<trkpt lat="47.9584" lon="14.77227">
				<ele>357.94</ele>
				<time>2025-07-29T00:23:45.930Z</time>
			</trkpt>
			<trkpt lat="47.95836" lon="14.7722">
				<ele>357.99</ele>
				<time>2025-07-29T00:23:46.649Z</time>
			</trkpt>
			<trkpt lat="47.95833" lon="14.77218">
				<ele>357.99</ele>
				<time>2025-07-29T00:23:47.032Z</time>
			</trkpt>
			<trkpt lat="47.95827" lon="14.77218">
				<ele>358.17</ele>
				<time>2025-07-29T00:23:47.733Z</time>
			</trkpt>
			<trkpt lat="47.95824" lon="14.7722">
				<ele>358.28</ele>
				<time>2025-07-29T00:23:48.117Z</time>
			</trkpt>
			<trkpt lat="47.95821" lon="14.77225">
				<ele>358.41</ele>
				<time>2025-07-29T00:23:48.646Z</time>
			</trkpt>
			<trkpt lat="47.9582" lon="14.77231">
				<ele>358.46</ele>
				<time>2025-07-29T00:23:49.140Z</time>
			</trkpt>
			<trkpt lat="47.95821" lon="14.77239">
				<ele>358.43</ele>
				<time>2025-07-29T00:23:49.798Z</time>
			</trkpt>
			<trkpt lat="47.95823" lon="14.77244">
				<ele>358.36</ele>
				<time>2025-07-29T00:23:50.275Z</time>
			</trkpt>
			<trkpt lat="47.95823" lon="14.7726">
				<ele>358.33</ele>
				<time>2025-07-29T00:23:51.608Z</time>
			</trkpt>
			<trkpt lat="47.95827" lon="14.77272">
				<ele>358.2</ele>
				<time>2025-07-29T00:23:52.748Z</time>
			</trkpt>
			<trkpt lat="47.9583" lon="14.77275">
				<ele>358.1</ele>
				<time>2025-07-29T00:23:53.212Z</time>
			</trkpt>
			<trkpt lat="47.95844" lon="14.77299">
				<ele>357.58</ele>
				<time>2025-07-29T00:23:56.004Z</time>
			</trkpt>
			<trkpt lat="47.95853" lon="14.77322">
				<ele>358.34</ele>
				<time>2025-07-29T00:23:58.396Z</time>
			</trkpt>
			<trkpt lat="47.95851" lon="14.77331">
				<ele>358.9</ele>
				<time>2025-07-29T00:23:59.255Z</time>
			</trkpt>
			<trkpt lat="47.95854" lon="14.7734">
				<ele>359.67</ele>
				<time>2025-07-29T00:24:00.170Z</time>
			</trkpt>
			<trkpt lat="47.95859" lon="14.77345">
				<ele>360.29</ele>
				<time>2025-07-29T00:24:00.989Z</time>
			</trkpt>
			<trkpt lat="47.95866" lon="14.77344">
				<ele>360.53</ele>
				<time>2025-07-29T00:24:01.948Z</time>
			</trkpt>
			<trkpt lat="47.95869" lon="14.77342">
				<ele>360.43</ele>
				<time>2025-07-29T00:24:02.396Z</time>
			</trkpt>
			<trkpt lat="47.95872" lon="14.7733">
				<ele>359.64</ele>
				<time>2025-07-29T00:24:03.565Z</time>
			</trkpt>
			<trkpt lat="47.95869" lon="14.77318">
				<ele>358.54</ele>
				<time>2025-07-29T00:24:04.732Z</time>
			</trkpt>
			<trkpt lat="47.95884" lon="14.77296">
				<ele>358.43</ele>
				<time>2025-07-29T00:24:07.571Z</time>
			</trkpt>
			<trkpt lat="47.95891" lon="14.77293">
				<ele>358.73</ele>
				<time>2025-07-29T00:24:08.542Z</time>
			</trkpt>
			<trkpt lat="47.95899" lon="14.77296">
				<ele>359.4</ele>
				<time>2025-07-29T00:24:09.632Z</time>
			</trkpt>
			<trkpt lat="47.95905" lon="14.77304">
				<ele>360.15</ele>
				<time>2025-07-29T00:24:10.688Z</time>
			</trkpt>
			<trkpt lat="47.95912" lon="14.77325">
				<ele>362.1</ele>
				<time>2025-07-29T00:24:12.735Z</time>
			</trkpt>
			<trkpt lat="47.9593" lon="14.77333">
				<ele>363.52</ele>
				<time>2025-07-29T00:24:15.164Z</time>
			</trkpt>
			<trkpt lat="47.95991" lon="14.77351">
				<ele>361.38</ele>
				<time>2025-07-29T00:24:23.113Z</time>
			</trkpt>
			<trkpt lat="47.96021" lon="14.77357">
				<ele>359.39</ele>
				<time>2025-07-29T00:24:26.967Z</time>
			</trkpt>
			<trkpt lat="47.96048" lon="14.77358">
				<ele>359.57</ele>
				<time>2025-07-29T00:24:30.419Z</time>
			</trkpt>
			<trkpt lat="47.96068" lon="14.77412">
				<ele>363.67</ele>
				<time>2025-07-29T00:24:35.760Z</time>
			</trkpt>
			<trkpt lat="47.96074" lon="14.77421">
				<ele>364.05</ele>
				<time>2025-07-29T00:24:36.871Z</time>
			</trkpt>
			<trkpt lat="47.96099" lon="14.77479">
				<ele>362.3</ele>
				<time>2025-07-29T00:24:43.012Z</time>
			</trkpt>
			<trkpt lat="47.9616" lon="14.77427">
				<ele>365.77</ele>
				<time>2025-07-29T00:24:52.807Z</time>
			</trkpt>
			<trkpt lat="47.96201" lon="14.77395">
				<ele>363.58</ele>
				<time>2025-07-29T00:24:59.218Z</time>
			</trkpt>
			<trkpt lat="47.9616" lon="14.77427">
				<ele>365.77</ele>
				<time>2025-07-29T00:25:06.867Z</time>
			</trkpt>
			<trkpt lat="47.96099" lon="14.77479">
				<ele>362.3</ele>
				<time>2025-07-29T00:25:27.007Z</time>
			</trkpt>
			<trkpt lat="47.96069" lon="14.7751">
				<ele>362.99</ele>
				<time>2025-07-29T00:25:41.325Z</time>
			</trkpt>
			<trkpt lat="47.96043" lon="14.77543">
				<ele>364.63</ele>
				<time>2025-07-29T00:25:55.899Z</time>
			</trkpt>
			<trkpt lat="47.96051" lon="14.77564">
				<ele>364.14</ele>
				<time>2025-07-29T00:26:02.956Z</time>
			</trkpt>
			<trkpt lat="47.96056" lon="14.77578">
				<ele>363.94</ele>
				<time>2025-07-29T00:26:07.580Z</time>
			</trkpt>
			<trkpt lat="47.96057" lon="14.77588">
				<ele>363.47</ele>
				<time>2025-07-29T00:26:10.509Z</time>
			</trkpt>
			<trkpt lat="47.9604" lon="14.77624">
				<ele>362.93</ele>
				<time>2025-07-29T00:26:22.921Z</time>
			</trkpt>
			<trkpt lat="47.96035" lon="14.7763">
				<ele>363.19</ele>
				<time>2025-07-29T00:26:25.510Z</time>
			</trkpt>
			<trkpt lat="47.96029" lon="14.77636">
				<ele>363.8</ele>
				<time>2025-07-29T00:26:28.363Z</time>
			</trkpt>
			<trkpt lat="47.96018" lon="14.77636">
				<ele>364.7</ele>
				<time>2025-07-29T00:26:32.565Z</time>
			</trkpt>
			<trkpt lat="47.96012" lon="14.77643">
				<ele>364.71</ele>
				<time>2025-07-29T00:26:35.359Z</time>
			</trkpt>
			<trkpt lat="47.95964" lon="14.7756">
				<ele>367.15</ele>
				<time>2025-07-29T00:26:58.680Z</time>
			</trkpt>
			<trkpt lat="47.95907" lon="14.77456">
				<ele>369.5</ele>
				<time>2025-07-29T00:27:25.827Z</time>
			</trkpt>
			<trkpt lat="47.95891" lon="14.77421">
				<ele>367.43</ele>
				<time>2025-07-29T00:27:34.464Z</time>
			</trkpt>
			<trkpt lat="47.95887" lon="14.77407">
				<ele>366.3</ele>
				<time>2025-07-29T00:27:37.625Z</time>
			</trkpt>
			<trkpt lat="47.95877" lon="14.77359">
				<ele>362.45</ele>
				<time>2025-07-29T00:27:48.433Z</time>
			</trkpt>
			<trkpt lat="47.95874" lon="14.77349">
				<ele>361.39</ele>
				<time>2025-07-29T00:27:50.900Z</time>
			</trkpt>
			<trkpt lat="47.95869" lon="14.77342">
				<ele>360.43</ele>
				<time>2025-07-29T00:27:53.242Z</time>
			</trkpt>
			<trkpt lat="47.95872" lon="14.7733">
				<ele>359.64</ele>
				<time>2025-07-29T00:27:56.223Z</time>
			</trkpt>
			<trkpt lat="47.95869" lon="14.77318">
				<ele>358.54</ele>
				<time>2025-07-29T00:27:59.253Z</time>
			</trkpt>
			<trkpt lat="47.95861" lon="14.77314">
				<ele>357.69</ele>
				<time>2025-07-29T00:28:02.278Z</time>
			</trkpt>
			<trkpt lat="47.95852" lon="14.77304">
				<ele>357.31</ele>
				<time>2025-07-29T00:28:06.360Z</time>
			</trkpt>
			<trkpt lat="47.95844" lon="14.77299">
				<ele>357.58</ele>
				<time>2025-07-29T00:28:09.556Z</time>
			</trkpt>
			<trkpt lat="47.9583" lon="14.77275">
				<ele>358.1</ele>
				<time>2025-07-29T00:28:17.526Z</time>
			</trkpt>
			<trkpt lat="47.95831" lon="14.77249">
				<ele>358.06</ele>
				<time>2025-07-29T00:28:24.129Z</time>
			</trkpt>
			<trkpt lat="47.95835" lon="14.77247">
				<ele>357.91</ele>
				<time>2025-07-29T00:28:25.731Z</time>
			</trkpt>
			<trkpt lat="47.9584" lon="14.77239">
				<ele>357.84</ele>
				<time>2025-07-29T00:28:28.518Z</time>
			</trkpt>
			<trkpt lat="47.9584" lon="14.77227">
				<ele>357.94</ele>
				<time>2025-07-29T00:28:31.575Z</time>
			</trkpt>
			<trkpt lat="47.95836" lon="14.7722">
				<ele>357.99</ele>
				<time>2025-07-29T00:28:33.917Z</time>
			</trkpt>
			<trkpt lat="47.95833" lon="14.77218">
				<ele>357.99</ele>
				<time>2025-07-29T00:28:35.164Z</time>
			</trkpt>
			<trkpt lat="47.95827" lon="14.77218">
				<ele>358.17</ele>
				<time>2025-07-29T00:28:37.437Z</time>
			</trkpt>
			<trkpt lat="47.95824" lon="14.7722">
				<ele>358.28</ele>
				<time>2025-07-29T00:28:38.680Z</time>
			</trkpt>
			<trkpt lat="47.95808" lon="14.77205">
				<ele>358.37</ele>
				<time>2025-07-29T00:28:45.773Z</time>
			</trkpt>
			<trkpt lat="47.95799" lon="14.77201">
				<ele>358.88</ele>
				<time>2025-07-29T00:28:49.257Z</time>
			</trkpt>
			<trkpt lat="47.95763" lon="14.77161">
				<ele>364.83</ele>
				<time>2025-07-29T00:29:05.283Z</time>
			</trkpt>
			<trkpt lat="47.95745" lon="14.77129">
				<ele>370.83</ele>
				<time>2025-07-29T00:29:14.544Z</time>
			</trkpt>
			<trkpt lat="47.95681" lon="14.76991">
				<ele>369.76</ele>
				<time>2025-07-29T00:29:45.625Z</time>
			</trkpt>
			<trkpt lat="47.95657" lon="14.76952">
				<ele>368.01</ele>
				<time>2025-07-29T00:29:54.362Z</time>
			</trkpt>
			<trkpt lat="47.95616" lon="14.76907">
				<ele>368.54</ele>
				<time>2025-07-29T00:30:05.981Z</time>
			</trkpt>
			<trkpt lat="47.95588" lon="14.76885">
				<ele>368</ele>
				<time>2025-07-29T00:30:12.598Z</time>
			</trkpt>
			<trkpt lat="47.95568" lon="14.76873">
				<ele>368</ele>
				<time>2025-07-29T00:30:16.814Z</time>
			</trkpt>
			<trkpt lat="47.95496" lon="14.76835">
				<ele>367.98</ele>
				<time>2025-07-29T00:30:29.399Z</time>
			</trkpt>
			<trkpt lat="47.95457" lon="14.76807">
				<ele>367.65</ele>
				<time>2025-07-29T00:30:35.256Z</time>
			</trkpt>
			<trkpt lat="47.95418" lon="14.76775">
				<ele>370.7</ele>
				<time>2025-07-29T00:30:41.384Z</time>
			</trkpt>
			<trkpt lat="47.95401" lon="14.76758">
				<ele>372.63</ele>
				<time>2025-07-29T00:30:44.177Z</time>
			</trkpt>
			<trkpt lat="47.9538" lon="14.76731">
				<ele>373.19</ele>
				<time>2025-07-29T00:30:47.935Z</time>
			</trkpt>
			<trkpt lat="47.95366" lon="14.76705">
				<ele>372.28</ele>
				<time>2025-07-29T00:30:50.947Z</time>
			</trkpt>
			<trkpt lat="47.9534" lon="14.76639">
				<ele>373.2</ele>
				<time>2025-07-29T00:30:57.802Z</time>
			</trkpt>
			<trkpt lat="47.95348" lon="14.76631">
				<ele>372.08</ele>
				<time>2025-07-29T00:30:59.081Z</time>
			</trkpt>
			<trkpt lat="47.95358" lon="14.76618">
				<ele>371.12</ele>
				<time>2025-07-29T00:31:00.838Z</time>
			</trkpt>
			<trkpt lat="47.95359" lon="14.76607">
				<ele>371.18</ele>
				<time>2025-07-29T00:31:01.822Z</time>
			</trkpt>
			<trkpt lat="47.95328" lon="14.76485">
				<ele>372.43</ele>
				<time>2025-07-29T00:31:13.294Z</time>
			</trkpt>
			<trkpt lat="47.95317" lon="14.76393">
				<ele>374.92</ele>
				<time>2025-07-29T00:31:21.434Z</time>
			</trkpt>
			<trkpt lat="47.95306" lon="14.76332">
				<ele>373.13</ele>
				<time>2025-07-29T00:31:26.912Z</time>
			</trkpt>
			<trkpt lat="47.95305" lon="14.76302">
				<ele>373.01</ele>
				<time>2025-07-29T00:31:29.513Z</time>
			</trkpt>
			<trkpt lat="47.95307" lon="14.76277">
				<ele>373</ele>
				<time>2025-07-29T00:31:31.692Z</time>
			</trkpt>
			<trkpt lat="47.95311" lon="14.76253">
				<ele>373</ele>
				<time>2025-07-29T00:31:33.831Z</time>
			</trkpt>
			<trkpt lat="47.95331" lon="14.76185">
				<ele>375.04</ele>
				<time>2025-07-29T00:31:40.256Z</time>
			</trkpt>
			<trkpt lat="47.95334" lon="14.76168">
				<ele>375</ele>
				<time>2025-07-29T00:31:41.777Z</time>
			</trkpt>
			<trkpt lat="47.95342" lon="14.7607">
				<ele>379.58</ele>
				<time>2025-07-29T00:31:50.338Z</time>
			</trkpt>
			<trkpt lat="47.95348" lon="14.76045">
				<ele>381.02</ele>
				<time>2025-07-29T00:31:52.648Z</time>
			</trkpt>
			<trkpt lat="47.95359" lon="14.76009">
				<ele>380.04</ele>
				<time>2025-07-29T00:31:56.097Z</time>
			</trkpt>
			<trkpt lat="47.95394" lon="14.75952">
				<ele>381.26</ele>
				<time>2025-07-29T00:32:02.868Z</time>
			</trkpt>
			<trkpt lat="47.95401" lon="14.7593">
				<ele>383.05</ele>
				<time>2025-07-29T00:32:05.016Z</time>
			</trkpt>
			<trkpt lat="47.95405" lon="14.75909">
				<ele>384.33</ele>
				<time>2025-07-29T00:32:06.962Z</time>
			</trkpt>
			<trkpt lat="47.95406" lon="14.75883">
				<ele>385.97</ele>
				<time>2025-07-29T00:32:09.087Z</time>
			</trkpt>
			<trkpt lat="47.95404" lon="14.75831">
				<ele>387.62</ele>
				<time>2025-07-29T00:32:13.304Z</time>
			</trkpt>
			<trkpt lat="47.9541" lon="14.75798">
				<ele>388.05</ele>
				<time>2025-07-29T00:32:16.072Z</time>
			</trkpt>
			<trkpt lat="47.95418" lon="14.75781">
				<ele>387.55</ele>
				<time>2025-07-29T00:32:17.753Z</time>
			</trkpt>
			<trkpt lat="47.95434" lon="14.75759">
				<ele>388.72</ele>
				<time>2025-07-29T00:32:20.381Z</time>
			</trkpt>
			<trkpt lat="47.95455" lon="14.75716">
				<ele>386.17</ele>
				<time>2025-07-29T00:32:24.684Z</time>
			</trkpt>
			<trkpt lat="47.95477" lon="14.75663">
				<ele>386.52</ele>
				<time>2025-07-29T00:32:29.721Z</time>
			</trkpt>
			<trkpt lat="47.95529" lon="14.7555">
				<ele>384.14</ele>
				<time>2025-07-29T00:32:40.775Z</time>
			</trkpt>
			<trkpt lat="47.95539" lon="14.75521">
				<ele>385.23</ele>
				<time>2025-07-29T00:32:43.400Z</time>
			</trkpt>
			<trkpt lat="47.95549" lon="14.75476">
				<ele>386.96</ele>
				<time>2025-07-29T00:32:47.210Z</time>
			</trkpt>
			<trkpt lat="47.95554" lon="14.75437">
				<ele>386.1</ele>
				<time>2025-07-29T00:32:50.397Z</time>
			</trkpt>
			<trkpt lat="47.95554" lon="14.75405">
				<ele>386.14</ele>
				<time>2025-07-29T00:32:52.962Z</time>
			</trkpt>
			<trkpt lat="47.95541" lon="14.7533">
				<ele>389.65</ele>
				<time>2025-07-29T00:32:59.160Z</time>
			</trkpt>
			<trkpt lat="47.95541" lon="14.75294">
				<ele>391.65</ele>
				<time>2025-07-29T00:33:02.034Z</time>
			</trkpt>
			<trkpt lat="47.95543" lon="14.75265">
				<ele>393.03</ele>
				<time>2025-07-29T00:33:04.358Z</time>
			</trkpt>
			<trkpt lat="47.9555" lon="14.75237">
				<ele>392.91</ele>
				<time>2025-07-29T00:33:06.738Z</time>
			</trkpt>
			<trkpt lat="47.95572" lon="14.75182">
				<ele>391.54</ele>
				<time>2025-07-29T00:33:11.827Z</time>
			</trkpt>
			<trkpt lat="47.95574" lon="14.75165">
				<ele>391.7</ele>
				<time>2025-07-29T00:33:13.196Z</time>
			</trkpt>
			<trkpt lat="47.95573" lon="14.75148">
				<ele>392.78</ele>
				<time>2025-07-29T00:33:14.548Z</time>
			</trkpt>
			<trkpt lat="47.95564" lon="14.75122">
				<ele>393.87</ele>
				<time>2025-07-29T00:33:16.864Z</time>
			</trkpt>
			<trkpt lat="47.95538" lon="14.75055">
				<ele>395.4</ele>
				<time>2025-07-29T00:33:22.974Z</time>
			</trkpt>
			<trkpt lat="47.95534" lon="14.75037">
				<ele>396.18</ele>
				<time>2025-07-29T00:33:24.466Z</time>
			</trkpt>
			<trkpt lat="47.95531" lon="14.74994">
				<ele>396.88</ele>
				<time>2025-07-29T00:33:27.862Z</time>
			</trkpt>
			<trkpt lat="47.95531" lon="14.74943">
				<ele>396.11</ele>
				<time>2025-07-29T00:33:31.856Z</time>
			</trkpt>
			<trkpt lat="47.9554" lon="14.74876">
				<ele>394.69</ele>
				<time>2025-07-29T00:33:37.188Z</time>
			</trkpt>
			<trkpt lat="47.95543" lon="14.74853">
				<ele>394.82</ele>
				<time>2025-07-29T00:33:39.010Z</time>
			</trkpt>
			<trkpt lat="47.95545" lon="14.74824">
				<ele>395.92</ele>
				<time>2025-07-29T00:33:41.273Z</time>
			</trkpt>
			<trkpt lat="47.95542" lon="14.74767">
				<ele>398.38</ele>
				<time>2025-07-29T00:33:45.698Z</time>
			</trkpt>
			<trkpt lat="47.95543" lon="14.74733">
				<ele>399.58</ele>
				<time>2025-07-29T00:33:48.323Z</time>
			</trkpt>
			<trkpt lat="47.95548" lon="14.74704">
				<ele>400.47</ele>
				<time>2025-07-29T00:33:50.627Z</time>
			</trkpt>
			<trkpt lat="47.95577" lon="14.74582">
				<ele>401.57</ele>
				<time>2025-07-29T00:34:00.521Z</time>
			</trkpt>
			<trkpt lat="47.95634" lon="14.74383">
				<ele>404.85</ele>
				<time>2025-07-29T00:34:16.807Z</time>
			</trkpt>
			<trkpt lat="47.9564" lon="14.74352">
				<ele>404.86</ele>
				<time>2025-07-29T00:34:19.206Z</time>
			</trkpt>
			<trkpt lat="47.95644" lon="14.74316">
				<ele>404.42</ele>
				<time>2025-07-29T00:34:21.908Z</time>
			</trkpt>
			<trkpt lat="47.95645" lon="14.7419">
				<ele>407.27</ele>
				<time>2025-07-29T00:34:31.156Z</time>
			</trkpt>
			<trkpt lat="47.95642" lon="14.74156">
				<ele>407.64</ele>
				<time>2025-07-29T00:34:33.649Z</time>
			</trkpt>
			<trkpt lat="47.95637" lon="14.74129">
				<ele>408.01</ele>
				<time>2025-07-29T00:34:35.679Z</time>
			</trkpt>
			<trkpt lat="47.95611" lon="14.74059">
				<ele>409.97</ele>
				<time>2025-07-29T00:34:41.438Z</time>
			</trkpt>
			<trkpt lat="47.95605" lon="14.74027">
				<ele>411.21</ele>
				<time>2025-07-29T00:34:43.812Z</time>
			</trkpt>
			<trkpt lat="47.95584" lon="14.7383">
				<ele>415</ele>
				<time>2025-07-29T00:34:57.839Z</time>
			</trkpt>
			<trkpt lat="47.95573" lon="14.73742">
				<ele>415.03</ele>
				<time>2025-07-29T00:35:04.003Z</time>
			</trkpt>
			<trkpt lat="47.95566" lon="14.73725">
				<ele>415.78</ele>
				<time>2025-07-29T00:35:05.366Z</time>
			</trkpt>
			<trkpt lat="47.95559" lon="14.73717">
				<ele>416.35</ele>
				<time>2025-07-29T00:35:06.262Z</time>
			</trkpt>
			<trkpt lat="47.95547" lon="14.73708">
				<ele>417.39</ele>
				<time>2025-07-29T00:35:07.624Z</time>
			</trkpt>
			<trkpt lat="47.95528" lon="14.73701">
				<ele>419.21</ele>
				<time>2025-07-29T00:35:09.601Z</time>
			</trkpt>
			<trkpt lat="47.95515" lon="14.73688">
				<ele>419.58</ele>
				<time>2025-07-29T00:35:11.174Z</time>
			</trkpt>
			<trkpt lat="47.95493" lon="14.73655">
				<ele>419.7</ele>
				<time>2025-07-29T00:35:14.293Z</time>
			</trkpt>
			<trkpt lat="47.95459" lon="14.7359">
				<ele>417.39</ele>
				<time>2025-07-29T00:35:19.755Z</time>
			</trkpt>
			<trkpt lat="47.95435" lon="14.73536">
				<ele>419.59</ele>
				<time>2025-07-29T00:35:23.991Z</time>
			</trkpt>
			<trkpt lat="47.9542" lon="14.73487">
				<ele>422.77</ele>
				<time>2025-07-29T00:35:27.474Z</time>
			</trkpt>
			<trkpt lat="47.95413" lon="14.73472">
				<ele>422.78</ele>
				<time>2025-07-29T00:35:28.648Z</time>
			</trkpt>
			<trkpt lat="47.95394" lon="14.73446">
				<ele>421.62</ele>
				<time>2025-07-29T00:35:31.105Z</time>
			</trkpt>
			<trkpt lat="47.95369" lon="14.73419">
				<ele>421.9</ele>
				<time>2025-07-29T00:35:34.023Z</time>
			</trkpt>
			<trkpt lat="47.95357" lon="14.73403">
				<ele>422.55</ele>
				<time>2025-07-29T00:35:35.533Z</time>
			</trkpt>
			<trkpt lat="47.95338" lon="14.73368">
				<ele>423</ele>
				<time>2025-07-29T00:35:38.346Z</time>
			</trkpt>
			<trkpt lat="47.95322" lon="14.73323">
				<ele>423.39</ele>
				<time>2025-07-29T00:35:41.495Z</time>
			</trkpt>
			<trkpt lat="47.95312" lon="14.73288">
				<ele>424.37</ele>
				<time>2025-07-29T00:35:43.824Z</time>
			</trkpt>
			<trkpt lat="47.95302" lon="14.73236">
				<ele>425.72</ele>
				<time>2025-07-29T00:35:47.102Z</time>
			</trkpt>
			<trkpt lat="47.95337" lon="14.73215">
				<ele>426.24</ele>
				<time>2025-07-29T00:35:50.472Z</time>
			</trkpt>
			<trkpt lat="47.95343" lon="14.73213">
				<ele>427.52</ele>
				<time>2025-07-29T00:35:51.017Z</time>
			</trkpt>
			<trkpt lat="47.95349" lon="14.73214">
				<ele>428.61</ele>
				<time>2025-07-29T00:35:51.551Z</time>
			</trkpt>
			<trkpt lat="47.95356" lon="14.73219">
				<ele>429.48</ele>
				<time>2025-07-29T00:35:52.236Z</time>
			</trkpt>
			<trkpt lat="47.95452" lon="14.73351">
				<ele>441.08</ele>
				<time>2025-07-29T00:36:03.464Z</time>
			</trkpt>
			<trkpt lat="47.95458" lon="14.73357">
				<ele>441.58</ele>
				<time>2025-07-29T00:36:04.069Z</time>
			</trkpt>
			<trkpt lat="47.9547" lon="14.73362">
				<ele>443.34</ele>
				<time>2025-07-29T00:36:05.109Z</time>
			</trkpt>
			<trkpt lat="47.95488" lon="14.73356">
				<ele>447.05</ele>
				<time>2025-07-29T00:36:06.638Z</time>
			</trkpt>
			<trkpt lat="47.95512" lon="14.73344">
				<ele>450.15</ele>
				<time>2025-07-29T00:36:08.718Z</time>
			</trkpt>
			<trkpt lat="47.95517" lon="14.73339">
				<ele>450.59</ele>
				<time>2025-07-29T00:36:09.209Z</time>
			</trkpt>
			<trkpt lat="47.95523" lon="14.73326">
				<ele>451.66</ele>
				<time>2025-07-29T00:36:10.069Z</time>
			</trkpt>
			<trkpt lat="47.95523" lon="14.73317">
				<ele>452.41</ele>
				<time>2025-07-29T00:36:10.558Z</time>
			</trkpt>
			<trkpt lat="47.95512" lon="14.7324">
				<ele>455.94</ele>
				<time>2025-07-29T00:36:14.778Z</time>
			</trkpt>
			<trkpt lat="47.955" lon="14.73124">
				<ele>462.89</ele>
				<time>2025-07-29T00:36:20.885Z</time>
			</trkpt>
			<trkpt lat="47.95484" lon="14.73018">
				<ele>471.29</ele>
				<time>2025-07-29T00:36:26.337Z</time>
			</trkpt>
			<trkpt lat="47.95462" lon="14.729">
				<ele>493.52</ele>
				<time>2025-07-29T00:36:32.234Z</time>
			</trkpt>
			<trkpt lat="47.9546" lon="14.72878">
				<ele>496.14</ele>
				<time>2025-07-29T00:36:33.272Z</time>
			</trkpt>
			<trkpt lat="47.95459" lon="14.72852">
				<ele>498.6</ele>
				<time>2025-07-29T00:36:34.477Z</time>
			</trkpt>
			<trkpt lat="47.95465" lon="14.72765">
				<ele>504.56</ele>
				<time>2025-07-29T00:36:38.431Z</time>
			</trkpt>
			<trkpt lat="47.95467" lon="14.72715">
				<ele>509.49</ele>
				<time>2025-07-29T00:36:40.635Z</time>
			</trkpt>
			<trkpt lat="47.95459" lon="14.72582">
				<ele>516.09</ele>
				<time>2025-07-29T00:36:46.313Z</time>
			</trkpt>
			<trkpt lat="47.95458" lon="14.72478">
				<ele>522.76</ele>
				<time>2025-07-29T00:36:50.556Z</time>
			</trkpt>
			<trkpt lat="47.95462" lon="14.72379">
				<ele>524.77</ele>
				<time>2025-07-29T00:36:54.473Z</time>
			</trkpt>
			<trkpt lat="47.95469" lon="14.72301">
				<ele>529.65</ele>
				<time>2025-07-29T00:36:57.502Z</time>
			</trkpt>
			<trkpt lat="47.9547" lon="14.72215">
				<ele>533.19</ele>
				<time>2025-07-29T00:37:00.745Z</time>
			</trkpt>
			<trkpt lat="47.95468" lon="14.72193">
				<ele>533.65</ele>
				<time>2025-07-29T00:37:01.571Z</time>
			</trkpt>
			<trkpt lat="47.95459" lon="14.72153">
				<ele>537.68</ele>
				<time>2025-07-29T00:37:03.131Z</time>
			</trkpt>
			<trkpt lat="47.95441" lon="14.72105">
				<ele>543.51</ele>
				<time>2025-07-29T00:37:05.145Z</time>
			</trkpt>
			<trkpt lat="47.95429" lon="14.72057">
				<ele>549.72</ele>
				<time>2025-07-29T00:37:07.003Z</time>
			</trkpt>
			<trkpt lat="47.95422" lon="14.72008">
				<ele>555.66</ele>
				<time>2025-07-29T00:37:08.806Z</time>
			</trkpt>
			<trkpt lat="47.95418" lon="14.71943">
				<ele>563.81</ele>
				<time>2025-07-29T00:37:11.137Z</time>
			</trkpt>
			<trkpt lat="47.95421" lon="14.71755">
				<ele>582.24</ele>
				<time>2025-07-29T00:37:17.779Z</time>
			</trkpt>
			<trkpt lat="47.95423" lon="14.71732">
				<ele>583.42</ele>
				<time>2025-07-29T00:37:18.595Z</time>
			</trkpt>
			<trkpt lat="47.95432" lon="14.71691">
				<ele>583.82</ele>
				<time>2025-07-29T00:37:20.111Z</time>
			</trkpt>
			<trkpt lat="47.95436" lon="14.71693">
				<ele>582.66</ele>
				<time>2025-07-29T00:37:20.333Z</time>
			</trkpt>
			<trkpt lat="47.95443" lon="14.71691">
				<ele>581.37</ele>
				<time>2025-07-29T00:37:20.707Z</time>
			</trkpt>
			<trkpt lat="47.95453" lon="14.71685">
				<ele>580.57</ele>
				<time>2025-07-29T00:37:21.273Z</time>
			</trkpt>
			<trkpt lat="47.95488" lon="14.71653">
				<ele>578.32</ele>
				<time>2025-07-29T00:37:23.432Z</time>
			</trkpt>
			<trkpt lat="47.95513" lon="14.71626">
				<ele>577.49</ele>
				<time>2025-07-29T00:37:25.059Z</time>
			</trkpt>
			<trkpt lat="47.95528" lon="14.71604">
				<ele>577.24</ele>
				<time>2025-07-29T00:37:26.171Z</time>
			</trkpt>
			<trkpt lat="47.9554" lon="14.7158">
				<ele>578.05</ele>
				<time>2025-07-29T00:37:27.235Z</time>
			</trkpt>
			<trkpt lat="47.95545" lon="14.71563">
				<ele>578.24</ele>
				<time>2025-07-29T00:37:27.896Z</time>
			</trkpt>
			<trkpt lat="47.95557" lon="14.71524">
				<ele>577.09</ele>
				<time>2025-07-29T00:37:29.430Z</time>
			</trkpt>
			<trkpt lat="47.95618" lon="14.71329">
				<ele>566.6</ele>
				<time>2025-07-29T00:37:37.281Z</time>
			</trkpt>
			<trkpt lat="47.95632" lon="14.71299">
				<ele>565.2</ele>
				<time>2025-07-29T00:37:38.648Z</time>
			</trkpt>
			<trkpt lat="47.95643" lon="14.71286">
				<ele>563.66</ele>
				<time>2025-07-29T00:37:39.436Z</time>
			</trkpt>
			<trkpt lat="47.95655" lon="14.71277">
				<ele>561.77</ele>
				<time>2025-07-29T00:37:40.195Z</time>
			</trkpt>
			<trkpt lat="47.95671" lon="14.71276">
				<ele>560.19</ele>
				<time>2025-07-29T00:37:41.105Z</time>
			</trkpt>
			<trkpt lat="47.95712" lon="14.71276">
				<ele>556.54</ele>
				<time>2025-07-29T00:37:43.460Z</time>
			</trkpt>
			<trkpt lat="47.95737" lon="14.71271">
				<ele>553.88</ele>
				<time>2025-07-29T00:37:44.929Z</time>
			</trkpt>
			<trkpt lat="47.95759" lon="14.71262">
				<ele>551.82</ele>
				<time>2025-07-29T00:37:46.272Z</time>
			</trkpt>
			<trkpt lat="47.95778" lon="14.71251">
				<ele>550.24</ele>
				<time>2025-07-29T00:37:47.483Z</time>
			</trkpt>
			<trkpt lat="47.95815" lon="14.7122">
				<ele>542.98</ele>
				<time>2025-07-29T00:37:50.039Z</time>
			</trkpt>
			<trkpt lat="47.95837" lon="14.71209">
				<ele>539.12</ele>
				<time>2025-07-29T00:37:51.445Z</time>
			</trkpt>
			<trkpt lat="47.9589" lon="14.71203">
				<ele>537.29</ele>
				<time>2025-07-29T00:37:54.675Z</time>
			</trkpt>
			<trkpt lat="47.9591" lon="14.71193">
				<ele>537.01</ele>
				<time>2025-07-29T00:37:55.960Z</time>
			</trkpt>
			<trkpt lat="47.95922" lon="14.71179">
				<ele>538.22</ele>
				<time>2025-07-29T00:37:56.889Z</time>
			</trkpt>
			<trkpt lat="47.95927" lon="14.7117">
				<ele>539.38</ele>
				<time>2025-07-29T00:37:57.368Z</time>
			</trkpt>
			<trkpt lat="47.95933" lon="14.71152">
				<ele>540.7</ele>
				<time>2025-07-29T00:37:58.191Z</time>
			</trkpt>
			<trkpt lat="47.9594" lon="14.71073">
				<ele>539.58</ele>
				<time>2025-07-29T00:38:01.461Z</time>
			</trkpt>
			<trkpt lat="47.95944" lon="14.71058">
				<ele>539.93</ele>
				<time>2025-07-29T00:38:02.125Z</time>
			</trkpt>
			<trkpt lat="47.95953" lon="14.7105">
				<ele>538.06</ele>
				<time>2025-07-29T00:38:02.769Z</time>
			</trkpt>
			<trkpt lat="47.95967" lon="14.71049">
				<ele>534.67</ele>
				<time>2025-07-29T00:38:03.632Z</time>
			</trkpt>
			<trkpt lat="47.95983" lon="14.71055">
				<ele>531.12</ele>
				<time>2025-07-29T00:38:04.648Z</time>
			</trkpt>
			<trkpt lat="47.96004" lon="14.71068">
				<ele>529.73</ele>
				<time>2025-07-29T00:38:06.050Z</time>
			</trkpt>
			<trkpt lat="47.96024" lon="14.71086">
				<ele>531.21</ele>
				<time>2025-07-29T00:38:07.493Z</time>
			</trkpt>
			<trkpt lat="47.96043" lon="14.71098">
				<ele>532.88</ele>
				<time>2025-07-29T00:38:08.769Z</time>
			</trkpt>
			<trkpt lat="47.96062" lon="14.71101">
				<ele>532.14</ele>
				<time>2025-07-29T00:38:09.953Z</time>
			</trkpt>
			<trkpt lat="47.96084" lon="14.71099">
				<ele>528.77</ele>
				<time>2025-07-29T00:38:11.320Z</time>
			</trkpt>
			<trkpt lat="47.96102" lon="14.71091">
				<ele>526</ele>
				<time>2025-07-29T00:38:12.487Z</time>
			</trkpt>
			<trkpt lat="47.96112" lon="14.71084">
				<ele>523.54</ele>
				<time>2025-07-29T00:38:13.174Z</time>
			</trkpt>
			<trkpt lat="47.96168" lon="14.71025">
				<ele>513.88</ele>
				<time>2025-07-29T00:38:17.447Z</time>
			</trkpt>
			<trkpt lat="47.96182" lon="14.71014">
				<ele>512.61</ele>
				<time>2025-07-29T00:38:18.436Z</time>
			</trkpt>
			<trkpt lat="47.96215" lon="14.70992">
				<ele>507.54</ele>
				<time>2025-07-29T00:38:20.699Z</time>
			</trkpt>
			<trkpt lat="47.96381" lon="14.70937">
				<ele>490.6</ele>
				<time>2025-07-29T00:38:31.412Z</time>
			</trkpt>
			<trkpt lat="47.96443" lon="14.70944">
				<ele>488.06</ele>
				<time>2025-07-29T00:38:35.354Z</time>
			</trkpt>
			<trkpt lat="47.96465" lon="14.70943">
				<ele>485.59</ele>
				<time>2025-07-29T00:38:36.753Z</time>
			</trkpt>
			<trkpt lat="47.96481" lon="14.70936">
				<ele>484.29</ele>
				<time>2025-07-29T00:38:37.814Z</time>
			</trkpt>
			<trkpt lat="47.96624" lon="14.70865">
				<ele>462.65</ele>
				<time>2025-07-29T00:38:47.440Z</time>
			</trkpt>
			<trkpt lat="47.96645" lon="14.70859">
				<ele>463.16</ele>
				<time>2025-07-29T00:38:48.811Z</time>
			</trkpt>
			<trkpt lat="47.96684" lon="14.70858">
				<ele>463.59</ele>
				<time>2025-07-29T00:38:51.316Z</time>
			</trkpt>
			<trkpt lat="47.96693" lon="14.7086">
				<ele>463.09</ele>
				<time>2025-07-29T00:38:51.901Z</time>
			</trkpt>
			<trkpt lat="47.96703" lon="14.70864">
				<ele>463.59</ele>
				<time>2025-07-29T00:38:52.567Z</time>
			</trkpt>
			<trkpt lat="47.96738" lon="14.70892">
				<ele>461.83</ele>
				<time>2025-07-29T00:38:55.123Z</time>
			</trkpt>
			<trkpt lat="47.96751" lon="14.70898">
				<ele>460.94</ele>
				<time>2025-07-29T00:38:56.001Z</time>
			</trkpt>
			<trkpt lat="47.96775" lon="14.70905">
				<ele>459.07</ele>
				<time>2025-07-29T00:38:57.578Z</time>
			</trkpt>
			<trkpt lat="47.96785" lon="14.70906">
				<ele>458.09</ele>
				<time>2025-07-29T00:38:58.225Z</time>
			</trkpt>
			<trkpt lat="47.96807" lon="14.70904">
				<ele>456.16</ele>
				<time>2025-07-29T00:38:59.649Z</time>
			</trkpt>
			<trkpt lat="47.96957" lon="14.70863">
				<ele>438.91</ele>
				<time>2025-07-29T00:39:09.531Z</time>
			</trkpt>
			<trkpt lat="47.97007" lon="14.7084">
				<ele>445.74</ele>
				<time>2025-07-29T00:39:12.934Z</time>
			</trkpt>
			<trkpt lat="47.97018" lon="14.70837">
				<ele>447.5</ele>
				<time>2025-07-29T00:39:13.662Z</time>
			</trkpt>
			<trkpt lat="47.9703" lon="14.70835">
				<ele>448.53</ele>
				<time>2025-07-29T00:39:14.448Z</time>
			</trkpt>
			<trkpt lat="47.97054" lon="14.70836">
				<ele>447.54</ele>
				<time>2025-07-29T00:39:16.013Z</time>
			</trkpt>
			<trkpt lat="47.97095" lon="14.70846">
				<ele>442.19</ele>
				<time>2025-07-29T00:39:18.723Z</time>
			</trkpt>
			<trkpt lat="47.97162" lon="14.70876">
				<ele>423.94</ele>
				<time>2025-07-29T00:39:23.292Z</time>
			</trkpt>
			<trkpt lat="47.97202" lon="14.70902">
				<ele>416.89</ele>
				<time>2025-07-29T00:39:26.147Z</time>
			</trkpt>
			<trkpt lat="47.97269" lon="14.70956">
				<ele>416.56</ele>
				<time>2025-07-29T00:39:31.136Z</time>
			</trkpt>
			<trkpt lat="47.97303" lon="14.7098">
				<ele>415.81</ele>
				<time>2025-07-29T00:39:33.604Z</time>
			</trkpt>
			<trkpt lat="47.97323" lon="14.70986">
				<ele>412.11</ele>
				<time>2025-07-29T00:39:34.943Z</time>
			</trkpt>
			<trkpt lat="47.97464" lon="14.70987">
				<ele>400.27</ele>
				<time>2025-07-29T00:39:44.216Z</time>
			</trkpt>
			<trkpt lat="47.97484" lon="14.70992">
				<ele>399.13</ele>
				<time>2025-07-29T00:39:45.552Z</time>
			</trkpt>
			<trkpt lat="47.97549" lon="14.71026">
				<ele>396.2</ele>
				<time>2025-07-29T00:39:50.091Z</time>
			</trkpt>
			<trkpt lat="47.97566" lon="14.7103">
				<ele>395.96</ele>
				<time>2025-07-29T00:39:51.226Z</time>
			</trkpt>
			<trkpt lat="47.97656" lon="14.71008">
				<ele>392.38</ele>
				<time>2025-07-29T00:39:57.244Z</time>
			</trkpt>
			<trkpt lat="47.97679" lon="14.71003">
				<ele>391.45</ele>
				<time>2025-07-29T00:39:58.778Z</time>
			</trkpt>
			<trkpt lat="47.97715" lon="14.71224">
				<ele>386.77</ele>
				<time>2025-07-29T00:40:08.839Z</time>
			</trkpt>
			<trkpt lat="47.97772" lon="14.71655">
				<ele>385.85</ele>
				<time>2025-07-29T00:40:28.283Z</time>
			</trkpt>
			<trkpt lat="47.97791" lon="14.71774">
				<ele>386.08</ele>
				<time>2025-07-29T00:40:33.695Z</time>
			</trkpt>
			<trkpt lat="47.97817" lon="14.71877">
				<ele>384.6</ele>
				<time>2025-07-29T00:40:38.527Z</time>
			</trkpt>
			<trkpt lat="47.97827" lon="14.7191">
				<ele>384.32</ele>
				<time>2025-07-29T00:40:40.098Z</time>
			</trkpt>
			<trkpt lat="47.97849" lon="14.71973">
				<ele>383.27</ele>
				<time>2025-07-29T00:40:43.154Z</time>
			</trkpt>
			<trkpt lat="47.97869" lon="14.72033">
				<ele>382.98</ele>
				<time>2025-07-29T00:40:46.006Z</time>
			</trkpt>
			<trkpt lat="47.97904" lon="14.72168">
				<ele>380.51</ele>
				<time>2025-07-29T00:40:52.074Z</time>
			</trkpt>
			<trkpt lat="47.97923" lon="14.72228">
				<ele>379.02</ele>
				<time>2025-07-29T00:40:54.817Z</time>
			</trkpt>
			<trkpt lat="47.97949" lon="14.72299">
				<ele>379.57</ele>
				<time>2025-07-29T00:40:58.131Z</time>
			</trkpt>
			<trkpt lat="47.98005" lon="14.72441">
				<ele>380.62</ele>
				<time>2025-07-29T00:41:04.786Z</time>
			</trkpt>
			<trkpt lat="47.98017" lon="14.72484">
				<ele>381.76</ele>
				<time>2025-07-29T00:41:06.647Z</time>
			</trkpt>
			<trkpt lat="47.98043" lon="14.7263">
				<ele>381.88</ele>
				<time>2025-07-29T00:41:12.628Z</time>
			</trkpt>
			<trkpt lat="47.9805" lon="14.7268">
				<ele>380.07</ele>
				<time>2025-07-29T00:41:14.634Z</time>
			</trkpt>
			<trkpt lat="47.98054" lon="14.72744">
				<ele>378.91</ele>
				<time>2025-07-29T00:41:17.148Z</time>
			</trkpt>
			<trkpt lat="47.98054" lon="14.72807">
				<ele>377.8</ele>
				<time>2025-07-29T00:41:19.603Z</time>
			</trkpt>
			<trkpt lat="47.98045" lon="14.72909">
				<ele>376.47</ele>
				<time>2025-07-29T00:41:23.594Z</time>
			</trkpt>
			<trkpt lat="47.98032" lon="14.72999">
				<ele>373.22</ele>
				<time>2025-07-29T00:41:27.152Z</time>
			</trkpt>
			<trkpt lat="47.98019" lon="14.73068">
				<ele>370.08</ele>
				<time>2025-07-29T00:41:29.914Z</time>
			</trkpt>
			<trkpt lat="47.98011" lon="14.73098">
				<ele>368.89</ele>
				<time>2025-07-29T00:41:31.158Z</time>
			</trkpt>
			<trkpt lat="47.97995" lon="14.73143">
				<ele>365.49</ele>
				<time>2025-07-29T00:41:33.118Z</time>
			</trkpt>
			<trkpt lat="47.97967" lon="14.73214">
				<ele>362.73</ele>
				<time>2025-07-29T00:41:36.286Z</time>
			</trkpt>
			<trkpt lat="47.97959" lon="14.73251">
				<ele>364.86</ele>
				<time>2025-07-29T00:41:37.781Z</time>
			</trkpt>
			<trkpt lat="47.97952" lon="14.73293">
				<ele>366.33</ele>
				<time>2025-07-29T00:41:39.445Z</time>
			</trkpt>
			<trkpt lat="47.97948" lon="14.73366">
				<ele>371.47</ele>
				<time>2025-07-29T00:41:42.264Z</time>
			</trkpt>
			<trkpt lat="47.97949" lon="14.73425">
				<ele>375.15</ele>
				<time>2025-07-29T00:41:44.538Z</time>
			</trkpt>
			<trkpt lat="47.97954" lon="14.73538">
				<ele>382.86</ele>
				<time>2025-07-29T00:41:48.913Z</time>
			</trkpt>
			<trkpt lat="47.97953" lon="14.73601">
				<ele>381.8</ele>
				<time>2025-07-29T00:41:51.356Z</time>
			</trkpt>
			<trkpt lat="47.97948" lon="14.73658">
				<ele>378.57</ele>
				<time>2025-07-29T00:41:53.591Z</time>
			</trkpt>
			<trkpt lat="47.97932" lon="14.73763">
				<ele>381.47</ele>
				<time>2025-07-29T00:41:57.799Z</time>
			</trkpt>
			<trkpt lat="47.97929" lon="14.7381">
				<ele>380.4</ele>
				<time>2025-07-29T00:41:59.653Z</time>
			</trkpt>
			<trkpt lat="47.9793" lon="14.73855">
				<ele>380.56</ele>
				<time>2025-07-29T00:42:01.428Z</time>
			</trkpt>
			<trkpt lat="47.97935" lon="14.73908">
				<ele>383.86</ele>
				<time>2025-07-29T00:42:03.546Z</time>
			</trkpt>
			<trkpt lat="47.97953" lon="14.74018">
				<ele>394.25</ele>
				<time>2025-07-29T00:42:08.060Z</time>
			</trkpt>
			<trkpt lat="47.97966" lon="14.74078">
				<ele>401.44</ele>
				<time>2025-07-29T00:42:10.596Z</time>
			</trkpt>
			<trkpt lat="47.97994" lon="14.74181">
				<ele>402.63</ele>
				<time>2025-07-29T00:42:15.109Z</time>
			</trkpt>
			<trkpt lat="47.98013" lon="14.74237">
				<ele>394.22</ele>
				<time>2025-07-29T00:42:17.684Z</time>
			</trkpt>
			<trkpt lat="47.9803" lon="14.74273">
				<ele>393</ele>
				<time>2025-07-29T00:42:19.503Z</time>
			</trkpt>
			<trkpt lat="47.98048" lon="14.74304">
				<ele>393.01</ele>
				<time>2025-07-29T00:42:21.207Z</time>
			</trkpt>
			<trkpt lat="47.98079" lon="14.74344">
				<ele>388.32</ele>
				<time>2025-07-29T00:42:23.765Z</time>
			</trkpt>
			<trkpt lat="47.98108" lon="14.74372">
				<ele>383.88</ele>
				<time>2025-07-29T00:42:25.938Z</time>
			</trkpt>
			<trkpt lat="47.98234" lon="14.7448">
				<ele>382.73</ele>
				<time>2025-07-29T00:42:35.268Z</time>
			</trkpt>
			<trkpt lat="47.98266" lon="14.74498">
				<ele>379.46</ele>
				<time>2025-07-29T00:42:37.512Z</time>
			</trkpt>
			<trkpt lat="47.983" lon="14.74508">
				<ele>375.27</ele>
				<time>2025-07-29T00:42:39.806Z</time>
			</trkpt>
			<trkpt lat="47.98334" lon="14.74511">
				<ele>371.37</ele>
				<time>2025-07-29T00:42:42.080Z</time>
			</trkpt>
			<trkpt lat="47.98371" lon="14.74504">
				<ele>369.04</ele>
				<time>2025-07-29T00:42:44.594Z</time>
			</trkpt>
			<trkpt lat="47.98406" lon="14.7449">
				<ele>367.67</ele>
				<time>2025-07-29T00:42:47.062Z</time>
			</trkpt>
			<trkpt lat="47.98456" lon="14.74462">
				<ele>363.4</ele>
				<time>2025-07-29T00:42:50.743Z</time>
			</trkpt>
			<trkpt lat="47.9855" lon="14.74399">
				<ele>358.07</ele>
				<time>2025-07-29T00:42:58.008Z</time>
			</trkpt>
			<trkpt lat="47.9859" lon="14.74368">
				<ele>355.89</ele>
				<time>2025-07-29T00:43:01.256Z</time>
			</trkpt>
			<trkpt lat="47.98654" lon="14.74325">
				<ele>352.16</ele>
				<time>2025-07-29T00:43:06.405Z</time>
			</trkpt>
			<trkpt lat="47.98663" lon="14.74322">
				<ele>351.57</ele>
				<time>2025-07-29T00:43:07.090Z</time>
			</trkpt>
			<trkpt lat="47.98679" lon="14.74323">
				<ele>349.96</ele>
				<time>2025-07-29T00:43:08.284Z</time>
			</trkpt>
			<trkpt lat="47.98685" lon="14.74325">
				<ele>349.23</ele>
				<time>2025-07-29T00:43:08.744Z</time>
			</trkpt>
			<trkpt lat="47.98695" lon="14.74333">
				<ele>347.84</ele>
				<time>2025-07-29T00:43:09.596Z</time>
			</trkpt>
			<trkpt lat="47.98701" lon="14.74341">
				<ele>347.03</ele>
				<time>2025-07-29T00:43:10.201Z</time>
			</trkpt>
			<trkpt lat="47.98709" lon="14.74364">
				<ele>345.82</ele>
				<time>2025-07-29T00:43:11.513Z</time>
			</trkpt>
			<trkpt lat="47.98711" lon="14.74383">
				<ele>345.01</ele>
				<time>2025-07-29T00:43:12.491Z</time>
			</trkpt>
			<trkpt lat="47.98711" lon="14.74416">
				<ele>343.62</ele>
				<time>2025-07-29T00:43:14.178Z</time>
			</trkpt>
			<trkpt lat="47.98708" lon="14.74467">
				<ele>345.25</ele>
				<time>2025-07-29T00:43:16.821Z</time>
			</trkpt>
			<trkpt lat="47.98693" lon="14.746">
				<ele>345.47</ele>
				<time>2025-07-29T00:43:23.928Z</time>
			</trkpt>
			<trkpt lat="47.98681" lon="14.7467">
				<ele>345.82</ele>
				<time>2025-07-29T00:43:27.825Z</time>
			</trkpt>
			<trkpt lat="47.98682" lon="14.74678">
				<ele>345.66</ele>
				<time>2025-07-29T00:43:28.268Z</time>
			</trkpt>
			<trkpt lat="47.98687" lon="14.74694">
				<ele>344.76</ele>
				<time>2025-07-29T00:43:29.232Z</time>
			</trkpt>
			<trkpt lat="47.98778" lon="14.74567">
				<ele>338.29</ele>
				<time>2025-07-29T00:43:39.635Z</time>
			</trkpt>
			<trkpt lat="47.98789" lon="14.74579">
				<ele>341.36</ele>
				<time>2025-07-29T00:43:40.801Z</time>
			</trkpt>
			<trkpt lat="47.98789" lon="14.74586">
				<ele>341.42</ele>
				<time>2025-07-29T00:43:41.203Z</time>
			</trkpt>
			<trkpt lat="47.98781" lon="14.74651">
				<ele>340.5</ele>
				<time>2025-07-29T00:43:45.034Z</time>
			</trkpt>
			<trkpt lat="47.98771" lon="14.74694">
				<ele>341.22</ele>
				<time>2025-07-29T00:43:47.709Z</time>
			</trkpt>
			<trkpt lat="47.98741" lon="14.74783">
				<ele>339.15</ele>
				<time>2025-07-29T00:43:53.667Z</time>
			</trkpt>
			<trkpt lat="47.98721" lon="14.74876">
				<ele>345.4</ele>
				<time>2025-07-29T00:43:59.649Z</time>
			</trkpt>
			<trkpt lat="47.98704" lon="14.7493">
				<ele>344.83</ele>
				<time>2025-07-29T00:44:03.374Z</time>
			</trkpt>
			<trkpt lat="47.98686" lon="14.7497">
				<ele>342.15</ele>
				<time>2025-07-29T00:44:06.424Z</time>
			</trkpt>
			<trkpt lat="47.9864" lon="14.75101">
				<ele>345.41</ele>
				<time>2025-07-29T00:44:16.013Z</time>
			</trkpt>
			<trkpt lat="47.98602" lon="14.75183">
				<ele>350.76</ele>
				<time>2025-07-29T00:44:23.507Z</time>
			</trkpt>
			<trkpt lat="47.98589" lon="14.75197">
				<ele>352.66</ele>
				<time>2025-07-29T00:44:25.684Z</time>
			</trkpt>
			<trkpt lat="47.98555" lon="14.75229">
				<ele>347.64</ele>
				<time>2025-07-29T00:44:31.367Z</time>
			</trkpt>
			<trkpt lat="47.98516" lon="14.75276">
				<ele>343.16</ele>
				<time>2025-07-29T00:44:38.276Z</time>
			</trkpt>
			<trkpt lat="47.98492" lon="14.75303">
				<ele>344.26</ele>
				<time>2025-07-29T00:44:42.537Z</time>
			</trkpt>
			<trkpt lat="47.98477" lon="14.75331">
				<ele>345.42</ele>
				<time>2025-07-29T00:44:46.031Z</time>
			</trkpt>
			<trkpt lat="47.98463" lon="14.75362">
				<ele>347.9</ele>
				<time>2025-07-29T00:44:49.749Z</time>
			</trkpt>
			<trkpt lat="47.9846" lon="14.75368">
				<ele>347.82</ele>
				<time>2025-07-29T00:44:50.502Z</time>
			</trkpt>
			<trkpt lat="47.98454" lon="14.75374">
				<ele>347.48</ele>
				<time>2025-07-29T00:44:51.591Z</time>
			</trkpt>
			<trkpt lat="47.98432" lon="14.75381">
				<ele>347.42</ele>
				<time>2025-07-29T00:44:55.015Z</time>
			</trkpt>
			<trkpt lat="47.98412" lon="14.7538">
				<ele>347.97</ele>
				<time>2025-07-29T00:44:58.096Z</time>
			</trkpt>
			<trkpt lat="47.98384" lon="14.75369">
				<ele>348.6</ele>
				<time>2025-07-29T00:45:02.603Z</time>
			</trkpt>
			<trkpt lat="47.98386" lon="14.75385">
				<ele>349.75</ele>
				<time>2025-07-29T00:45:04.311Z</time>
			</trkpt>
			<trkpt lat="47.98392" lon="14.754">
				<ele>350.51</ele>
				<time>2025-07-29T00:45:06.151Z</time>
			</trkpt>
			<trkpt lat="47.98397" lon="14.75437">
				<ele>353.18</ele>
				<time>2025-07-29T00:45:10.140Z</time>
			</trkpt>
			<trkpt lat="47.98401" lon="14.75457">
				<ele>353.15</ele>
				<time>2025-07-29T00:45:12.353Z</time>
			</trkpt>
			<trkpt lat="47.98408" lon="14.75494">
				<ele>352.17</ele>
				<time>2025-07-29T00:45:16.433Z</time>
			</trkpt>
			<trkpt lat="47.98409" lon="14.75522">
				<ele>352.92</ele>
				<time>2025-07-29T00:45:19.407Z</time>
			</trkpt>
			<trkpt lat="47.98407" lon="14.75535">
				<ele>353.49</ele>
				<time>2025-07-29T00:45:20.820Z</time>
			</trkpt>
			<trkpt lat="47.98402" lon="14.75557">
				<ele>354.51</ele>
				<time>2025-07-29T00:45:23.276Z</time>
			</trkpt>
			<trkpt lat="47.98393" lon="14.75573">
				<ele>355.35</ele>
				<time>2025-07-29T00:45:25.479Z</time>
			</trkpt>
			<trkpt lat="47.9838" lon="14.75589">
				<ele>356.8</ele>
				<time>2025-07-29T00:45:28.120Z</time>
			</trkpt>
			<trkpt lat="47.98371" lon="14.75604">
				<ele>358.1</ele>
				<time>2025-07-29T00:45:30.224Z</time>
			</trkpt>
			<trkpt lat="47.98364" lon="14.75623">
				<ele>359.41</ele>
				<time>2025-07-29T00:45:32.476Z</time>
			</trkpt>
			<trkpt lat="47.98361" lon="14.75636">
				<ele>359.98</ele>
				<time>2025-07-29T00:45:33.897Z</time>
			</trkpt>
			<trkpt lat="47.98355" lon="14.75682">
				<ele>361.38</ele>
				<time>2025-07-29T00:45:38.686Z</time>
			</trkpt>
			<trkpt lat="47.98351" lon="14.75754">
				<ele>369.33</ele>
				<time>2025-07-29T00:45:45.874Z</time>
			</trkpt>
			<trkpt lat="47.98336" lon="14.75874">
				<ele>373.39</ele>
				<time>2025-07-29T00:45:57.300Z</time>
			</trkpt>
			<trkpt lat="47.98329" lon="14.76008">
				<ele>370.65</ele>
				<time>2025-07-29T00:46:08.467Z</time>
			</trkpt>
			<trkpt lat="47.98336" lon="14.76133">
				<ele>374.13</ele>
				<time>2025-07-29T00:46:17.151Z</time>
			</trkpt>
			<trkpt lat="47.98337" lon="14.76189">
				<ele>371.29</ele>
				<time>2025-07-29T00:46:20.475Z</time>
			</trkpt>
			<trkpt lat="47.98334" lon="14.76238">
				<ele>374.17</ele>
				<time>2025-07-29T00:46:23.289Z</time>
			</trkpt>
			<trkpt lat="47.9833" lon="14.76276">
				<ele>375.52</ele>
				<time>2025-07-29T00:46:25.427Z</time>
			</trkpt>
			<trkpt lat="47.98315" lon="14.76391">
				<ele>374.48</ele>
				<time>2025-07-29T00:46:31.623Z</time>
			</trkpt>
			<trkpt lat="47.98308" lon="14.7642">
				<ele>371.07</ele>
				<time>2025-07-29T00:46:33.179Z</time>
			</trkpt>
			<trkpt lat="47.98297" lon="14.76452">
				<ele>372.43</ele>
				<time>2025-07-29T00:46:34.956Z</time>
			</trkpt>
			<trkpt lat="47.98251" lon="14.76534">
				<ele>381.3</ele>
				<time>2025-07-29T00:46:40.015Z</time>
			</trkpt>
			<trkpt lat="47.9825" lon="14.7655">
				<ele>378.2</ele>
				<time>2025-07-29T00:46:40.747Z</time>
			</trkpt>
			<trkpt lat="47.98259" lon="14.76596">
				<ele>368.1</ele>
				<time>2025-07-29T00:46:42.889Z</time>
			</trkpt>
			<trkpt lat="47.98263" lon="14.76624">
				<ele>365.54</ele>
				<time>2025-07-29T00:46:44.141Z</time>
			</trkpt>
			<trkpt lat="47.9826" lon="14.76663">
				<ele>364.47</ele>
				<time>2025-07-29T00:46:45.824Z</time>
			</trkpt>
			<trkpt lat="47.98261" lon="14.76685">
				<ele>365.08</ele>
				<time>2025-07-29T00:46:46.753Z</time>
			</trkpt>
			<trkpt lat="47.98263" lon="14.767">
				<ele>365.7</ele>
				<time>2025-07-29T00:46:47.391Z</time>
			</trkpt>
			<trkpt lat="47.9832" lon="14.76809">
				<ele>374.11</ele>
				<time>2025-07-29T00:46:52.931Z</time>
			</trkpt>
			<trkpt lat="47.9833" lon="14.76839">
				<ele>374.14</ele>
				<time>2025-07-29T00:46:54.216Z</time>
			</trkpt>
			<trkpt lat="47.98336" lon="14.76878">
				<ele>372.33</ele>
				<time>2025-07-29T00:46:55.724Z</time>
			</trkpt>
			<trkpt lat="47.98342" lon="14.7703">
				<ele>366.41</ele>
				<time>2025-07-29T00:47:01.230Z</time>
			</trkpt>
			<trkpt lat="47.98343" lon="14.77098">
				<ele>370.28</ele>
				<time>2025-07-29T00:47:03.589Z</time>
			</trkpt>
			<trkpt lat="47.98346" lon="14.77124">
				<ele>371.7</ele>
				<time>2025-07-29T00:47:04.490Z</time>
			</trkpt>
			<trkpt lat="47.98349" lon="14.77135">
				<ele>371.79</ele>
				<time>2025-07-29T00:47:04.894Z</time>
			</trkpt>
			<trkpt lat="47.98356" lon="14.77152">
				<ele>370.18</ele>
				<time>2025-07-29T00:47:05.569Z</time>
			</trkpt>
			<trkpt lat="47.98367" lon="14.77163">
				<ele>369.3</ele>
				<time>2025-07-29T00:47:06.234Z</time>
			</trkpt>
			<trkpt lat="47.98398" lon="14.77182">
				<ele>369.93</ele>
				<time>2025-07-29T00:47:07.902Z</time>
			</trkpt>
			<trkpt lat="47.98404" lon="14.77188">
				<ele>369.89</ele>
				<time>2025-07-29T00:47:08.259Z</time>
			</trkpt>
			<trkpt lat="47.98411" lon="14.772">
				<ele>369.24</ele>
				<time>2025-07-29T00:47:08.785Z</time>
			</trkpt>
			<trkpt lat="47.98415" lon="14.7721">
				<ele>368.79</ele>
				<time>2025-07-29T00:47:09.168Z</time>
			</trkpt>
			<trkpt lat="47.98417" lon="14.77229">
				<ele>367.91</ele>
				<time>2025-07-29T00:47:09.799Z</time>
			</trkpt>
			<trkpt lat="47.98416" lon="14.77239">
				<ele>367.4</ele>
				<time>2025-07-29T00:47:10.130Z</time>
			</trkpt>
			<trkpt lat="47.9841" lon="14.77259">
				<ele>366.84</ele>
				<time>2025-07-29T00:47:10.846Z</time>
			</trkpt>
			<trkpt lat="47.98377" lon="14.77308">
				<ele>368.94</ele>
				<time>2025-07-29T00:47:13.102Z</time>
			</trkpt>
			<trkpt lat="47.98369" lon="14.77325">
				<ele>370.09</ele>
				<time>2025-07-29T00:47:13.773Z</time>
			</trkpt>
			<trkpt lat="47.98367" lon="14.77348">
				<ele>371.54</ele>
				<time>2025-07-29T00:47:14.522Z</time>
			</trkpt>
			<trkpt lat="47.9837" lon="14.77369">
				<ele>372.95</ele>
				<time>2025-07-29T00:47:15.213Z</time>
			</trkpt>
			<trkpt lat="47.98374" lon="14.77381">
				<ele>373.29</ele>
				<time>2025-07-29T00:47:15.645Z</time>
			</trkpt>
			<trkpt lat="47.98402" lon="14.77425">
				<ele>374.04</ele>
				<time>2025-07-29T00:47:17.599Z</time>
			</trkpt>
			<trkpt lat="47.98417" lon="14.77444">
				<ele>374.01</ele>
				<time>2025-07-29T00:47:18.546Z</time>
			</trkpt>
			<trkpt lat="47.98438" lon="14.77469">
				<ele>375.47</ele>
				<time>2025-07-29T00:47:19.841Z</time>
			</trkpt>
			<trkpt lat="47.98459" lon="14.77487">
				<ele>377.08</ele>
				<time>2025-07-29T00:47:21.013Z</time>
			</trkpt>
			<trkpt lat="47.98518" lon="14.77526">
				<ele>377.45</ele>
				<time>2025-07-29T00:47:24.163Z</time>
			</trkpt>
			<trkpt lat="47.9855" lon="14.7756">
				<ele>379.47</ele>
				<time>2025-07-29T00:47:26.109Z</time>
			</trkpt>
			<trkpt lat="47.98585" lon="14.77588">
				<ele>384.22</ele>
				<time>2025-07-29T00:47:28.105Z</time>
			</trkpt>
			<trkpt lat="47.98608" lon="14.77612">
				<ele>384.69</ele>
				<time>2025-07-29T00:47:29.536Z</time>
			</trkpt>
			<trkpt lat="47.98611" lon="14.77598">
				<ele>386.98</ele>
				<time>2025-07-29T00:47:30.042Z</time>
			</trkpt>
			<trkpt lat="47.98609" lon="14.77591">
				<ele>387.64</ele>
				<time>2025-07-29T00:47:30.305Z</time>
			</trkpt>
			<trkpt lat="47.986" lon="14.77576">
				<ele>387.87</ele>
				<time>2025-07-29T00:47:31.004Z</time>
			</trkpt>
			<trkpt lat="47.98589" lon="14.77551">
				<ele>386.98</ele>
				<time>2025-07-29T00:47:32.052Z</time>
			</trkpt>
			<trkpt lat="47.98585" lon="14.7752">
				<ele>387.39</ele>
				<time>2025-07-29T00:47:33.171Z</time>
			</trkpt>
			<trkpt lat="47.98588" lon="14.77464">
				<ele>392.73</ele>
				<time>2025-07-29T00:47:35.196Z</time>
			</trkpt>
			<trkpt lat="47.98583" lon="14.77428">
				<ele>393.68</ele>
				<time>2025-07-29T00:47:36.547Z</time>
			</trkpt>
			<trkpt lat="47.98586" lon="14.7742">
				<ele>394.84</ele>
				<time>2025-07-29T00:47:36.888Z</time>
			</trkpt>
			<trkpt lat="47.98592" lon="14.77418">
				<ele>396.47</ele>
				<time>2025-07-29T00:47:37.230Z</time>
			</trkpt>
			<trkpt lat="47.98596" lon="14.77422">
				<ele>397.79</ele>
				<time>2025-07-29T00:47:37.499Z</time>
			</trkpt>
			<trkpt lat="47.98611" lon="14.77488">
				<ele>398.55</ele>
				<time>2025-07-29T00:47:40.154Z</time>
			</trkpt>
			<trkpt lat="47.98617" lon="14.775">
				<ele>399.56</ele>
				<time>2025-07-29T00:47:40.736Z</time>
			</trkpt>
			<trkpt lat="47.98641" lon="14.77535">
				<ele>405.55</ele>
				<time>2025-07-29T00:47:42.716Z</time>
			</trkpt>
			<trkpt lat="47.98651" lon="14.77545">
				<ele>406.68</ele>
				<time>2025-07-29T00:47:43.439Z</time>
			</trkpt>
			<trkpt lat="47.98661" lon="14.7755">
				<ele>408.33</ele>
				<time>2025-07-29T00:47:44.079Z</time>
			</trkpt>
			<trkpt lat="47.9869" lon="14.77561">
				<ele>413.19</ele>
				<time>2025-07-29T00:47:45.922Z</time>
			</trkpt>
			<trkpt lat="47.98698" lon="14.77568">
				<ele>414.19</ele>
				<time>2025-07-29T00:47:46.503Z</time>
			</trkpt>
			<trkpt lat="47.98734" lon="14.77614">
				<ele>419.67</ele>
				<time>2025-07-29T00:47:49.540Z</time>
			</trkpt>
			<trkpt lat="47.98743" lon="14.7762">
				<ele>420.77</ele>
				<time>2025-07-29T00:47:50.187Z</time>
			</trkpt>
			<trkpt lat="47.98758" lon="14.77625">
				<ele>422.85</ele>
				<time>2025-07-29T00:47:51.208Z</time>
			</trkpt>
			<trkpt lat="47.98804" lon="14.77635">
				<ele>429.9</ele>
				<time>2025-07-29T00:47:54.381Z</time>
			</trkpt>
			<trkpt lat="47.98861" lon="14.77658">
				<ele>437.76</ele>
				<time>2025-07-29T00:47:58.609Z</time>
			</trkpt>
			<trkpt lat="47.98883" lon="14.77669">
				<ele>441.41</ele>
				<time>2025-07-29T00:48:00.335Z</time>
			</trkpt>
			<trkpt lat="47.98893" lon="14.7768">
				<ele>442.79</ele>
				<time>2025-07-29T00:48:01.274Z</time>
			</trkpt>
			<trkpt lat="47.98906" lon="14.77698">
				<ele>444.77</ele>
				<time>2025-07-29T00:48:02.634Z</time>
			</trkpt>
			<trkpt lat="47.98919" lon="14.77729">
				<ele>445.86</ele>
				<time>2025-07-29T00:48:04.550Z</time>
			</trkpt>
			<trkpt lat="47.98923" lon="14.77732">
				<ele>446.76</ele>
				<time>2025-07-29T00:48:04.905Z</time>
			</trkpt>
			<trkpt lat="47.98928" lon="14.77732">
				<ele>448.39</ele>
				<time>2025-07-29T00:48:05.303Z</time>
			</trkpt>
			<trkpt lat="47.98932" lon="14.77727">
				<ele>450.01</ele>
				<time>2025-07-29T00:48:05.719Z</time>
			</trkpt>
			<trkpt lat="47.98934" lon="14.77718">
				<ele>451.4</ele>
				<time>2025-07-29T00:48:06.229Z</time>
			</trkpt>
			<trkpt lat="47.98922" lon="14.77583">
				<ele>460.79</ele>
				<time>2025-07-29T00:48:13.830Z</time>
			</trkpt>
			<trkpt lat="47.98926" lon="14.77568">
				<ele>462.17</ele>
				<time>2025-07-29T00:48:14.766Z</time>
			</trkpt>
			<trkpt lat="47.9893" lon="14.77565">
				<ele>462.93</ele>
				<time>2025-07-29T00:48:15.156Z</time>
			</trkpt>
			<trkpt lat="47.98934" lon="14.77565">
				<ele>463.58</ele>
				<time>2025-07-29T00:48:15.505Z</time>
			</trkpt>
			<trkpt lat="47.98938" lon="14.77568">
				<ele>464.1</ele>
				<time>2025-07-29T00:48:15.897Z</time>
			</trkpt>
			<trkpt lat="47.98944" lon="14.77577">
				<ele>464.35</ele>
				<time>2025-07-29T00:48:16.645Z</time>
			</trkpt>
			<trkpt lat="47.9895" lon="14.77595">
				<ele>464.05</ele>
				<time>2025-07-29T00:48:17.838Z</time>
			</trkpt>
			<trkpt lat="47.9896" lon="14.77613">
				<ele>464.9</ele>
				<time>2025-07-29T00:48:19.239Z</time>
			</trkpt>
			<trkpt lat="47.98977" lon="14.7764">
				<ele>467.72</ele>
				<time>2025-07-29T00:48:21.489Z</time>
			</trkpt>
			<trkpt lat="47.98998" lon="14.77678">
				<ele>472.28</ele>
				<time>2025-07-29T00:48:24.535Z</time>
			</trkpt>
			<trkpt lat="47.99048" lon="14.77779">
				<ele>484.74</ele>
				<time>2025-07-29T00:48:32.579Z</time>
			</trkpt>
			<trkpt lat="47.99058" lon="14.77805">
				<ele>486.68</ele>
				<time>2025-07-29T00:48:34.556Z</time>
			</trkpt>
			<trkpt lat="47.99075" lon="14.77865">
				<ele>487.6</ele>
				<time>2025-07-29T00:48:38.924Z</time>
			</trkpt>
			<trkpt lat="47.99078" lon="14.77868">
				<ele>488.29</ele>
				<time>2025-07-29T00:48:39.290Z</time>
			</trkpt>
			<trkpt lat="47.99083" lon="14.77868">
				<ele>489.8</ele>
				<time>2025-07-29T00:48:39.798Z</time>
			</trkpt>
			<trkpt lat="47.99087" lon="14.77865">
				<ele>490.98</ele>
				<time>2025-07-29T00:48:40.254Z</time>
			</trkpt>
			<trkpt lat="47.99088" lon="14.77857">
				<ele>491.63</ele>
				<time>2025-07-29T00:48:40.810Z</time>
			</trkpt>
			<trkpt lat="47.99084" lon="14.77826">
				<ele>491.43</ele>
				<time>2025-07-29T00:48:42.982Z</time>
			</trkpt>
			<trkpt lat="47.99083" lon="14.77807">
				<ele>491.94</ele>
				<time>2025-07-29T00:48:44.303Z</time>
			</trkpt>
			<trkpt lat="47.99084" lon="14.77785">
				<ele>493.85</ele>
				<time>2025-07-29T00:48:45.842Z</time>
			</trkpt>
			<trkpt lat="47.9909" lon="14.77748">
				<ele>497.87</ele>
				<time>2025-07-29T00:48:48.525Z</time>
			</trkpt>
			<trkpt lat="47.99099" lon="14.77706">
				<ele>501.42</ele>
				<time>2025-07-29T00:48:51.670Z</time>
			</trkpt>
			<trkpt lat="47.99107" lon="14.77677">
				<ele>502.45</ele>
				<time>2025-07-29T00:48:53.932Z</time>
			</trkpt>
			<trkpt lat="47.9912" lon="14.77646">
				<ele>505.17</ele>
				<time>2025-07-29T00:48:56.595Z</time>
			</trkpt>
			<trkpt lat="47.99137" lon="14.77611">
				<ele>507.81</ele>
				<time>2025-07-29T00:48:59.778Z</time>
			</trkpt>
			<trkpt lat="47.99154" lon="14.77583">
				<ele>509.35</ele>
				<time>2025-07-29T00:49:02.590Z</time>
			</trkpt>
			<trkpt lat="47.99164" lon="14.77571">
				<ele>511.55</ele>
				<time>2025-07-29T00:49:04.027Z</time>
			</trkpt>
			<trkpt lat="47.99191" lon="14.77549">
				<ele>515.83</ele>
				<time>2025-07-29T00:49:07.498Z</time>
			</trkpt>
			<trkpt lat="47.99214" lon="14.7754">
				<ele>518.89</ele>
				<time>2025-07-29T00:49:10.208Z</time>
			</trkpt>
			<trkpt lat="47.99244" lon="14.77532">
				<ele>525.06</ele>
				<time>2025-07-29T00:49:13.715Z</time>
			</trkpt>
			<trkpt lat="47.99262" lon="14.77531">
				<ele>531.01</ele>
				<time>2025-07-29T00:49:15.805Z</time>
			</trkpt>
			<trkpt lat="47.99294" lon="14.77533">
				<ele>541.25</ele>
				<time>2025-07-29T00:49:19.551Z</time>
			</trkpt>
			<trkpt lat="47.99302" lon="14.77528">
				<ele>543.2</ele>
				<time>2025-07-29T00:49:20.572Z</time>
			</trkpt>
			<trkpt lat="47.99323" lon="14.77511">
				<ele>547.72</ele>
				<time>2025-07-29T00:49:23.397Z</time>
			</trkpt>
			<trkpt lat="47.9933" lon="14.77501">
				<ele>549.01</ele>
				<time>2025-07-29T00:49:24.549Z</time>
			</trkpt>
			<trkpt lat="47.99337" lon="14.77485">
				<ele>549.26</ele>
				<time>2025-07-29T00:49:26.075Z</time>
			</trkpt>
			<trkpt lat="47.99345" lon="14.77462">
				<ele>548.09</ele>
				<time>2025-07-29T00:49:28.154Z</time>
			</trkpt>
			<trkpt lat="47.99351" lon="14.77451">
				<ele>548.02</ele>
				<time>2025-07-29T00:49:29.296Z</time>
			</trkpt>
			<trkpt lat="47.99357" lon="14.77445">
				<ele>548.93</ele>
				<time>2025-07-29T00:49:30.166Z</time>
			</trkpt>
			<trkpt lat="47.99386" lon="14.77433">
				<ele>551.37</ele>
				<time>2025-07-29T00:49:33.812Z</time>
			</trkpt>
			<trkpt lat="47.99439" lon="14.77403">
				<ele>558.78</ele>
				<time>2025-07-29T00:49:40.758Z</time>
			</trkpt>
			<trkpt lat="47.99467" lon="14.77375">
				<ele>563.05</ele>
				<time>2025-07-29T00:49:44.933Z</time>
			</trkpt>
			<trkpt lat="47.99473" lon="14.77377">
				<ele>564.78</ele>
				<time>2025-07-29T00:49:45.698Z</time>
			</trkpt>
			<trkpt lat="47.99474" lon="14.77381">
				<ele>565.22</ele>
				<time>2025-07-29T00:49:46.054Z</time>
			</trkpt>
			<trkpt lat="47.99473" lon="14.77387">
				<ele>565.21</ele>
				<time>2025-07-29T00:49:46.570Z</time>
			</trkpt>
			<trkpt lat="47.9947" lon="14.77393">
				<ele>565.13</ele>
				<time>2025-07-29T00:49:47.196Z</time>
			</trkpt>
			<trkpt lat="47.9946" lon="14.77401">
				<ele>563.96</ele>
				<time>2025-07-29T00:49:48.615Z</time>
			</trkpt>
			<trkpt lat="47.99452" lon="14.77412">
				<ele>563.44</ele>
				<time>2025-07-29T00:49:49.978Z</time>
			</trkpt>
			<trkpt lat="47.99423" lon="14.77463">
				<ele>564.47</ele>
				<time>2025-07-29T00:49:55.626Z</time>
			</trkpt>
			<trkpt lat="47.99416" lon="14.77482">
				<ele>565.78</ele>
				<time>2025-07-29T00:49:57.468Z</time>
			</trkpt>
			<trkpt lat="47.99411" lon="14.77508">
				<ele>569.03</ele>
				<time>2025-07-29T00:49:59.772Z</time>
			</trkpt>
			<trkpt lat="47.99407" lon="14.77556">
				<ele>573.39</ele>
				<time>2025-07-29T00:50:03.912Z</time>
			</trkpt>
			<trkpt lat="47.99415" lon="14.77689">
				<ele>584.25</ele>
				<time>2025-07-29T00:50:15.460Z</time>
			</trkpt>
			<trkpt lat="47.99415" lon="14.77708">
				<ele>585.56</ele>
				<time>2025-07-29T00:50:17.116Z</time>
			</trkpt>
			<trkpt lat="47.99409" lon="14.77766">
				<ele>590.34</ele>
				<time>2025-07-29T00:50:22.251Z</time>
			</trkpt>
			<trkpt lat="47.99403" lon="14.77814">
				<ele>591.2</ele>
				<time>2025-07-29T00:50:26.543Z</time>
			</trkpt>
			<trkpt lat="47.99404" lon="14.77823">
				<ele>591.57</ele>
				<time>2025-07-29T00:50:27.347Z</time>
			</trkpt>
			<trkpt lat="47.99406" lon="14.77828">
				<ele>592.54</ele>
				<time>2025-07-29T00:50:27.861Z</time>
			</trkpt>
			<trkpt lat="47.9941" lon="14.7783">
				<ele>594.02</ele>
				<time>2025-07-29T00:50:28.417Z</time>
			</trkpt>
			<trkpt lat="47.99414" lon="14.77829">
				<ele>595.1</ele>
				<time>2025-07-29T00:50:28.951Z</time>
			</trkpt>
			<trkpt lat="47.99417" lon="14.77823">
				<ele>595.83</ele>
				<time>2025-07-29T00:50:29.613Z</time>
			</trkpt>
			<trkpt lat="47.99424" lon="14.77794">
				<ele>596.73</ele>
				<time>2025-07-29T00:50:32.339Z</time>
			</trkpt>
			<trkpt lat="47.9943" lon="14.77775">
				<ele>597.63</ele>
				<time>2025-07-29T00:50:34.200Z</time>
			</trkpt>
			<trkpt lat="47.99436" lon="14.77761">
				<ele>597.78</ele>
				<time>2025-07-29T00:50:35.675Z</time>
			</trkpt>
			<trkpt lat="47.99445" lon="14.77746">
				<ele>598.87</ele>
				<time>2025-07-29T00:50:37.464Z</time>
			</trkpt>
			<trkpt lat="47.99476" lon="14.77708">
				<ele>604.31</ele>
				<time>2025-07-29T00:50:42.799Z</time>
			</trkpt>
			<trkpt lat="47.99484" lon="14.77695">
				<ele>605.5</ele>
				<time>2025-07-29T00:50:44.375Z</time>
			</trkpt>
			<trkpt lat="47.99505" lon="14.7765">
				<ele>610.09</ele>
				<time>2025-07-29T00:50:49.281Z</time>
			</trkpt>
			<trkpt lat="47.99521" lon="14.77608">
				<ele>613.37</ele>
				<time>2025-07-29T00:50:53.612Z</time>
			</trkpt>
			<trkpt lat="47.99529" lon="14.77593">
				<ele>614.6</ele>
				<time>2025-07-29T00:50:55.334Z</time>
			</trkpt>
			<trkpt lat="47.99539" lon="14.77582">
				<ele>615.68</ele>
				<time>2025-07-29T00:50:57.000Z</time>
			</trkpt>
			<trkpt lat="47.99551" lon="14.7757">
				<ele>617.35</ele>
				<time>2025-07-29T00:50:58.939Z</time>
			</trkpt>
			<trkpt lat="47.99563" lon="14.77563">
				<ele>618.11</ele>
				<time>2025-07-29T00:51:00.671Z</time>
			</trkpt>
			<trkpt lat="47.99572" lon="14.7756">
				<ele>618.71</ele>
				<time>2025-07-29T00:51:01.910Z</time>
			</trkpt>
			<trkpt lat="47.99637" lon="14.77544">
				<ele>627.22</ele>
				<time>2025-07-29T00:51:10.780Z</time>
			</trkpt>
			<trkpt lat="47.99651" lon="14.77534">
				<ele>628.63</ele>
				<time>2025-07-29T00:51:12.872Z</time>
			</trkpt>
			<trkpt lat="47.99668" lon="14.7751">
				<ele>630.3</ele>
				<time>2025-07-29T00:51:16.025Z</time>
			</trkpt>
			<trkpt lat="47.99718" lon="14.77423">
				<ele>643.36</ele>
				<time>2025-07-29T00:51:26.377Z</time>
			</trkpt>
			<trkpt lat="47.99722" lon="14.77411">
				<ele>645.3</ele>
				<time>2025-07-29T00:51:27.586Z</time>
			</trkpt>
			<trkpt lat="47.99725" lon="14.77397">
				<ele>646.52</ele>
				<time>2025-07-29T00:51:28.913Z</time>
			</trkpt>
			<trkpt lat="47.99726" lon="14.77378">
				<ele>647.03</ele>
				<time>2025-07-29T00:51:30.632Z</time>
			</trkpt>
			<trkpt lat="47.99717" lon="14.77242">
				<ele>647.6</ele>
				<time>2025-07-29T00:51:42.944Z</time>
			</trkpt>
			<trkpt lat="47.9972" lon="14.77202">
				<ele>652.68</ele>
				<time>2025-07-29T00:51:46.561Z</time>
			</trkpt>
			<trkpt lat="47.99728" lon="14.77138">
				<ele>658.49</ele>
				<time>2025-07-29T00:51:52.401Z</time>
			</trkpt>
			<trkpt lat="47.99737" lon="14.77025">
				<ele>675.15</ele>
				<time>2025-07-29T00:52:02.564Z</time>
			</trkpt>
			<trkpt lat="47.99736" lon="14.7701">
				<ele>676.26</ele>
				<time>2025-07-29T00:52:03.906Z</time>
			</trkpt>
			<trkpt lat="47.99732" lon="14.76985">
				<ele>677.77</ele>
				<time>2025-07-29T00:52:06.191Z</time>
			</trkpt>
			<trkpt lat="47.99726" lon="14.76968">
				<ele>678.89</ele>
				<time>2025-07-29T00:52:07.896Z</time>
			</trkpt>
			<trkpt lat="47.99706" lon="14.76923">
				<ele>681.51</ele>
				<time>2025-07-29T00:52:12.679Z</time>
			</trkpt>
			<trkpt lat="47.99707" lon="14.76909">
				<ele>685.37</ele>
				<time>2025-07-29T00:52:13.922Z</time>
			</trkpt>
			<trkpt lat="47.99716" lon="14.7691">
				<ele>688.6</ele>
				<time>2025-07-29T00:52:15.111Z</time>
			</trkpt>
			<trkpt lat="47.99723" lon="14.76918">
				<ele>689.63</ele>
				<time>2025-07-29T00:52:16.272Z</time>
			</trkpt>
			<trkpt lat="47.99731" lon="14.76932">
				<ele>687.58</ele>
				<time>2025-07-29T00:52:17.892Z</time>
			</trkpt>
			<trkpt lat="47.99752" lon="14.76982">
				<ele>683.17</ele>
				<time>2025-07-29T00:52:23.070Z</time>
			</trkpt>
			<trkpt lat="47.99756" lon="14.76987">
				<ele>683.16</ele>
				<time>2025-07-29T00:52:23.751Z</time>
			</trkpt>
			<trkpt lat="47.99761" lon="14.76989">
				<ele>683.8</ele>
				<time>2025-07-29T00:52:24.427Z</time>
			</trkpt>
			<trkpt lat="47.99766" lon="14.76988">
				<ele>684.64</ele>
				<time>2025-07-29T00:52:25.085Z</time>
			</trkpt>
			<trkpt lat="47.99757" lon="14.76765">
				<ele>703.48</ele>
				<time>2025-07-29T00:52:44.356Z</time>
			</trkpt>
			<trkpt lat="47.99752" lon="14.76715">
				<ele>707.33</ele>
				<time>2025-07-29T00:52:48.645Z</time>
			</trkpt>
			<trkpt lat="47.99735" lon="14.76614">
				<ele>705.39</ele>
				<time>2025-07-29T00:52:57.388Z</time>
			</trkpt>
			<trkpt lat="47.99726" lon="14.7654">
				<ele>699.93</ele>
				<time>2025-07-29T00:53:03.616Z</time>
			</trkpt>
			<trkpt lat="47.9972" lon="14.76458">
				<ele>689.08</ele>
				<time>2025-07-29T00:53:10.358Z</time>
			</trkpt>
			<trkpt lat="47.99711" lon="14.76452">
				<ele>689.73</ele>
				<time>2025-07-29T00:53:11.551Z</time>
			</trkpt>
			<trkpt lat="47.99702" lon="14.76437">
				<ele>689.11</ele>
				<time>2025-07-29T00:53:13.179Z</time>
			</trkpt>
			<trkpt lat="47.99652" lon="14.76306">
				<ele>704.58</ele>
				<time>2025-07-29T00:53:25.161Z</time>
			</trkpt>
			<trkpt lat="47.99648" lon="14.763">
				<ele>706.97</ele>
				<time>2025-07-29T00:53:25.824Z</time>
			</trkpt>
			<trkpt lat="47.99641" lon="14.76299">
				<ele>710.28</ele>
				<time>2025-07-29T00:53:26.645Z</time>
			</trkpt>
			<trkpt lat="47.9964" lon="14.76369">
				<ele>708.49</ele>
				<time>2025-07-29T00:53:32.065Z</time>
			</trkpt>
			<trkpt lat="47.99641" lon="14.76394">
				<ele>709.13</ele>
				<time>2025-07-29T00:53:33.966Z</time>
			</trkpt>
			<trkpt lat="47.99649" lon="14.76463">
				<ele>706.11</ele>
				<time>2025-07-29T00:53:38.886Z</time>
			</trkpt>
			<trkpt lat="47.99655" lon="14.76492">
				<ele>705.15</ele>
				<time>2025-07-29T00:53:40.771Z</time>
			</trkpt>
			<trkpt lat="47.99666" lon="14.76524">
				<ele>707.88</ele>
				<time>2025-07-29T00:53:42.867Z</time>
			</trkpt>
			<trkpt lat="47.99681" lon="14.76624">
				<ele>709.8</ele>
				<time>2025-07-29T00:53:48.477Z</time>
			</trkpt>
			<trkpt lat="47.99695" lon="14.76709">
				<ele>710.97</ele>
				<time>2025-07-29T00:53:53.556Z</time>
			</trkpt>
			<trkpt lat="47.99712" lon="14.76792">
				<ele>708.19</ele>
				<time>2025-07-29T00:53:59.649Z</time>
			</trkpt>
			<trkpt lat="47.9972" lon="14.76818">
				<ele>706.33</ele>
				<time>2025-07-29T00:54:02.015Z</time>
			</trkpt>
			<trkpt lat="47.99733" lon="14.76874">
				<ele>697.7</ele>
				<time>2025-07-29T00:54:07.653Z</time>
			</trkpt>
			<trkpt lat="47.99758" lon="14.76953">
				<ele>686.75</ele>
				<time>2025-07-29T00:54:20.126Z</time>
			</trkpt>
			<trkpt lat="47.99766" lon="14.76988">
				<ele>684.64</ele>
				<time>2025-07-29T00:54:30.372Z</time>
			</trkpt>
			<trkpt lat="47.99768" lon="14.77025">
				<ele>682.56</ele>
				<time>2025-07-29T00:54:42.389Z</time>
			</trkpt>
			<trkpt lat="47.99774" lon="14.77062">
				<ele>682.55</ele>
				<time>2025-07-29T00:54:54.643Z</time>
			</trkpt>
			<trkpt lat="47.9978" lon="14.77084">
				<ele>682.02</ele>
				<time>2025-07-29T00:55:01.406Z</time>
			</trkpt>
			<trkpt lat="47.99793" lon="14.77115">
				<ele>679.81</ele>
				<time>2025-07-29T00:55:09.224Z</time>
			</trkpt>
			<trkpt lat="47.99829" lon="14.77169">
				<ele>675.51</ele>
				<time>2025-07-29T00:55:18.152Z</time>
			</trkpt>
			<trkpt lat="47.99843" lon="14.77198">
				<ele>673.3</ele>
				<time>2025-07-29T00:55:24.254Z</time>
			</trkpt>
			<trkpt lat="47.99873" lon="14.77287">
				<ele>669</ele>
				<time>2025-07-29T00:55:57.078Z</time>
			</trkpt>
			<trkpt lat="47.9996" lon="14.77496">
				<ele>658.9</ele>
				<time>2025-07-29T00:58:09.943Z</time>
			</trkpt>
			<trkpt lat="48.00019" lon="14.77648">
				<ele>663.4</ele>
				<time>2025-07-29T00:59:31.514Z</time>
			</trkpt>
			<trkpt lat="48.0003" lon="14.77683">
				<ele>664.56</ele>
				<time>2025-07-29T00:59:42.212Z</time>
			</trkpt>
			<trkpt lat="48.00034" lon="14.77702">
				<ele>666.51</ele>
				<time>2025-07-29T00:59:46.290Z</time>
			</trkpt>
			<trkpt lat="48.00037" lon="14.77723">
				<ele>669.6</ele>
				<time>2025-07-29T00:59:49.486Z</time>
			</trkpt>
			<trkpt lat="48.00031" lon="14.78012">
				<ele>677.68</ele>
				<time>2025-07-29T01:00:14.183Z</time>
			</trkpt>
			<trkpt lat="48.00032" lon="14.78049">
				<ele>679.78</ele>
				<time>2025-07-29T01:00:17.098Z</time>
			</trkpt>
			<trkpt lat="48.00037" lon="14.78074">
				<ele>680.26</ele>
				<time>2025-07-29T01:00:19.122Z</time>
			</trkpt>
			<trkpt lat="48.00046" lon="14.781">
				<ele>679.9</ele>
				<time>2025-07-29T01:00:21.363Z</time>
			</trkpt>
			<trkpt lat="48.00082" lon="14.78171">
				<ele>673.85</ele>
				<time>2025-07-29T01:00:27.993Z</time>
			</trkpt>
			<trkpt lat="48.00101" lon="14.78214">
				<ele>670.09</ele>
				<time>2025-07-29T01:00:31.701Z</time>
			</trkpt>
			<trkpt lat="48.00146" lon="14.78352">
				<ele>648.28</ele>
				<time>2025-07-29T01:00:42.211Z</time>
			</trkpt>
			<trkpt lat="48.00152" lon="14.78376">
				<ele>643.25</ele>
				<time>2025-07-29T01:00:43.889Z</time>
			</trkpt>
			<trkpt lat="48.00152" lon="14.784">
				<ele>640.4</ele>
				<time>2025-07-29T01:00:45.441Z</time>
			</trkpt>
			<trkpt lat="48.00146" lon="14.78433">
				<ele>640.45</ele>
				<time>2025-07-29T01:00:47.622Z</time>
			</trkpt>
			<trkpt lat="48.00135" lon="14.78475">
				<ele>643.63</ele>
				<time>2025-07-29T01:00:50.441Z</time>
			</trkpt>
			<trkpt lat="48.00124" lon="14.78505">
				<ele>644.16</ele>
				<time>2025-07-29T01:00:52.537Z</time>
			</trkpt>
			<trkpt lat="48.00112" lon="14.78527">
				<ele>645.1</ele>
				<time>2025-07-29T01:00:54.250Z</time>
			</trkpt>
			<trkpt lat="48.00048" lon="14.786">
				<ele>650.28</ele>
				<time>2025-07-29T01:01:01.239Z</time>
			</trkpt>
			<trkpt lat="48.0003" lon="14.78627">
				<ele>651.35</ele>
				<time>2025-07-29T01:01:03.365Z</time>
			</trkpt>
			<trkpt lat="48.00021" lon="14.78646">
				<ele>651.65</ele>
				<time>2025-07-29T01:01:04.643Z</time>
			</trkpt>
			<trkpt lat="48.00011" lon="14.78683">
				<ele>652.4</ele>
				<time>2025-07-29T01:01:06.798Z</time>
			</trkpt>
			<trkpt lat="47.99993" lon="14.78764">
				<ele>649.78</ele>
				<time>2025-07-29T01:01:11.261Z</time>
			</trkpt>
			<trkpt lat="47.99991" lon="14.78786">
				<ele>650.17</ele>
				<time>2025-07-29T01:01:12.390Z</time>
			</trkpt>
			<trkpt lat="47.99992" lon="14.78827">
				<ele>653.13</ele>
				<time>2025-07-29T01:01:14.442Z</time>
			</trkpt>
			<trkpt lat="47.99991" lon="14.78852">
				<ele>654.58</ele>
				<time>2025-07-29T01:01:15.673Z</time>
			</trkpt>
			<trkpt lat="47.99987" lon="14.78879">
				<ele>654.48</ele>
				<time>2025-07-29T01:01:17.013Z</time>
			</trkpt>
			<trkpt lat="47.9997" lon="14.78957">
				<ele>655.54</ele>
				<time>2025-07-29T01:01:20.877Z</time>
			</trkpt>
			<trkpt lat="47.99964" lon="14.78998">
				<ele>653.31</ele>
				<time>2025-07-29T01:01:22.790Z</time>
			</trkpt>
			<trkpt lat="47.99959" lon="14.79045">
				<ele>652.09</ele>
				<time>2025-07-29T01:01:24.909Z</time>
			</trkpt>
			<trkpt lat="47.99957" lon="14.79087">
				<ele>652.8</ele>
				<time>2025-07-29T01:01:26.740Z</time>
			</trkpt>
			<trkpt lat="47.99959" lon="14.79123">
				<ele>652.3</ele>
				<time>2025-07-29T01:01:28.278Z</time>
			</trkpt>
			<trkpt lat="47.99962" lon="14.79144">
				<ele>652.11</ele>
				<time>2025-07-29T01:01:29.178Z</time>
			</trkpt>
			<trkpt lat="47.99975" lon="14.79203">
				<ele>652.14</ele>
				<time>2025-07-29T01:01:31.727Z</time>
			</trkpt>
			<trkpt lat="47.99988" lon="14.79231">
				<ele>653.28</ele>
				<time>2025-07-29T01:01:33.090Z</time>
			</trkpt>
			<trkpt lat="48.00041" lon="14.79298">
				<ele>652.9</ele>
				<time>2025-07-29T01:01:37.091Z</time>
			</trkpt>
			<trkpt lat="48.00115" lon="14.79414">
				<ele>652.45</ele>
				<time>2025-07-29T01:01:42.861Z</time>
			</trkpt>
			<trkpt lat="48.0013" lon="14.79429">
				<ele>656.91</ele>
				<time>2025-07-29T01:01:43.785Z</time>
			</trkpt>
			<trkpt lat="48.00148" lon="14.79442">
				<ele>664.24</ele>
				<time>2025-07-29T01:01:44.795Z</time>
			</trkpt>
			<trkpt lat="48.00162" lon="14.79458">
				<ele>668.64</ele>
				<time>2025-07-29T01:01:45.672Z</time>
			</trkpt>
			<trkpt lat="48.00188" lon="14.795">
				<ele>665.93</ele>
				<time>2025-07-29T01:01:47.538Z</time>
			</trkpt>
			<trkpt lat="48.00214" lon="14.79534">
				<ele>666.29</ele>
				<time>2025-07-29T01:01:49.177Z</time>
			</trkpt>
			<trkpt lat="48.00223" lon="14.7955">
				<ele>665.46</ele>
				<time>2025-07-29T01:01:49.828Z</time>
			</trkpt>
			<trkpt lat="48.00228" lon="14.79566">
				<ele>664.14</ele>
				<time>2025-07-29T01:01:50.373Z</time>
			</trkpt>
			<trkpt lat="48.0023" lon="14.79614">
				<ele>660.42</ele>
				<time>2025-07-29T01:01:51.835Z</time>
			</trkpt>
			<trkpt lat="48.00232" lon="14.79628">
				<ele>659.94</ele>
				<time>2025-07-29T01:01:52.263Z</time>
			</trkpt>
			<trkpt lat="48.00266" lon="14.79776">
				<ele>663.9</ele>
				<time>2025-07-29T01:01:56.763Z</time>
			</trkpt>
			<trkpt lat="48.00281" lon="14.79831">
				<ele>666.17</ele>
				<time>2025-07-29T01:01:58.388Z</time>
			</trkpt>
			<trkpt lat="48.00291" lon="14.79855">
				<ele>667.5</ele>
				<time>2025-07-29T01:01:59.147Z</time>
			</trkpt>
			<trkpt lat="48.00297" lon="14.79865">
				<ele>667.9</ele>
				<time>2025-07-29T01:01:59.505Z</time>
			</trkpt>
			<trkpt lat="48.00305" lon="14.79872">
				<ele>668.34</ele>
				<time>2025-07-29T01:01:59.871Z</time>
			</trkpt>
			<trkpt lat="48.00317" lon="14.79878">
				<ele>669.04</ele>
				<time>2025-07-29T01:02:00.368Z</time>
			</trkpt>
			<trkpt lat="48.00359" lon="14.79878">
				<ele>668.95</ele>
				<time>2025-07-29T01:02:01.991Z</time>
			</trkpt>
			<trkpt lat="48.00377" lon="14.79882">
				<ele>669.34</ele>
				<time>2025-07-29T01:02:02.681Z</time>
			</trkpt>
			<trkpt lat="48.00395" lon="14.7989">
				<ele>669.61</ele>
				<time>2025-07-29T01:02:03.386Z</time>
			</trkpt>
			<trkpt lat="48.00404" lon="14.79897">
				<ele>669.86</ele>
				<time>2025-07-29T01:02:03.764Z</time>
			</trkpt>
			<trkpt lat="48.00419" lon="14.79914">
				<ele>670.15</ele>
				<time>2025-07-29T01:02:04.459Z</time>
			</trkpt>
			<trkpt lat="48.00432" lon="14.79937">
				<ele>671.25</ele>
				<time>2025-07-29T01:02:05.195Z</time>
			</trkpt>
			<trkpt lat="48.00442" lon="14.79965">
				<ele>672.57</ele>
				<time>2025-07-29T01:02:05.963Z</time>
			</trkpt>
			<trkpt lat="48.0046" lon="14.8006">
				<ele>675.68</ele>
				<time>2025-07-29T01:02:08.300Z</time>
			</trkpt>
			<trkpt lat="48.00469" lon="14.80123">
				<ele>681.99</ele>
				<time>2025-07-29T01:02:09.787Z</time>
			</trkpt>
			<trkpt lat="48.00475" lon="14.80228">
				<ele>685.91</ele>
				<time>2025-07-29T01:02:12.166Z</time>
			</trkpt>
			<trkpt lat="48.00478" lon="14.80355">
				<ele>688.07</ele>
				<time>2025-07-29T01:02:14.962Z</time>
			</trkpt>
			<trkpt lat="48.00474" lon="14.80387">
				<ele>687.17</ele>
				<time>2025-07-29T01:02:15.668Z</time>
			</trkpt>
			<trkpt lat="48.00465" lon="14.80428">
				<ele>689.05</ele>
				<time>2025-07-29T01:02:16.599Z</time>
			</trkpt>
			<trkpt lat="48.00462" lon="14.8046">
				<ele>690.54</ele>
				<time>2025-07-29T01:02:17.293Z</time>
			</trkpt>
			<trkpt lat="48.00461" lon="14.80483">
				<ele>692.06</ele>
				<time>2025-07-29T01:02:17.787Z</time>
			</trkpt>
			<trkpt lat="48.00462" lon="14.80506">
				<ele>694.26</ele>
				<time>2025-07-29T01:02:18.280Z</time>
			</trkpt>
			<trkpt lat="48.00467" lon="14.80544">
				<ele>698.3</ele>
				<time>2025-07-29T01:02:19.106Z</time>
			</trkpt>
			<trkpt lat="48.00488" lon="14.80639">
				<ele>700.99</ele>
				<time>2025-07-29T01:02:21.233Z</time>
			</trkpt>
			<trkpt lat="48.00509" lon="14.8068">
				<ele>700.73</ele>
				<time>2025-07-29T01:02:22.330Z</time>
			</trkpt>
			<trkpt lat="48.00551" lon="14.80736">
				<ele>705.25</ele>
				<time>2025-07-29T01:02:24.122Z</time>
			</trkpt>
			<trkpt lat="48.00609" lon="14.80846">
				<ele>697.39</ele>
				<time>2025-07-29T01:02:27.134Z</time>
			</trkpt>
			<trkpt lat="48.00703" lon="14.8096">
				<ele>690.55</ele>
				<time>2025-07-29T01:02:31.126Z</time>
			</trkpt>
			<trkpt lat="48.00796" lon="14.81044">
				<ele>692.12</ele>
				<time>2025-07-29T01:02:34.859Z</time>
			</trkpt>
			<trkpt lat="48.00808" lon="14.81058">
				<ele>691.73</ele>
				<time>2025-07-29T01:02:35.396Z</time>
			</trkpt>
			<trkpt lat="48.0083" lon="14.81097">
				<ele>690.89</ele>
				<time>2025-07-29T01:02:36.615Z</time>
			</trkpt>
			<trkpt lat="48.00854" lon="14.81147">
				<ele>688.84</ele>
				<time>2025-07-29T01:02:38.115Z</time>
			</trkpt>
			<trkpt lat="48.00864" lon="14.81176">
				<ele>688.33</ele>
				<time>2025-07-29T01:02:38.924Z</time>
			</trkpt>
			<trkpt lat="48.00874" lon="14.81217">
				<ele>687.02</ele>
				<time>2025-07-29T01:02:40.021Z</time>
			</trkpt>
			<trkpt lat="48.00876" lon="14.81217">
				<ele>686.96</ele>
				<time>2025-07-29T01:02:40.097Z</time>
			</trkpt>
			<trkpt lat="48.00878" lon="14.81221">
				<ele>686.99</ele>
				<time>2025-07-29T01:02:40.224Z</time>
			</trkpt>
			<trkpt lat="48.00902" lon="14.81279">
				<ele>686.64</ele>
				<time>2025-07-29T01:02:41.982Z</time>
			</trkpt>
			<trkpt lat="48.00908" lon="14.8129">
				<ele>686.86</ele>
				<time>2025-07-29T01:02:42.355Z</time>
			</trkpt>
			<trkpt lat="48.00922" lon="14.81309">
				<ele>686.86</ele>
				<time>2025-07-29T01:02:43.102Z</time>
			</trkpt>
			<trkpt lat="48.00942" lon="14.81329">
				<ele>685.43</ele>
				<time>2025-07-29T01:02:44.067Z</time>
			</trkpt>
			<trkpt lat="48.00973" lon="14.8135">
				<ele>682.64</ele>
				<time>2025-07-29T01:02:45.458Z</time>
			</trkpt>
			<trkpt lat="48.01018" lon="14.81396">
				<ele>671.78</ele>
				<time>2025-07-29T01:02:47.752Z</time>
			</trkpt>
			<trkpt lat="48.01027" lon="14.81401">
				<ele>667.76</ele>
				<time>2025-07-29T01:02:48.165Z</time>
			</trkpt>
			<trkpt lat="48.01072" lon="14.81414">
				<ele>655.41</ele>
				<time>2025-07-29T01:02:50.176Z</time>
			</trkpt>
			<trkpt lat="48.01083" lon="14.81415">
				<ele>653.5</ele>
				<time>2025-07-29T01:02:50.669Z</time>
			</trkpt>
			<trkpt lat="48.01124" lon="14.81407">
				<ele>645.58</ele>
				<time>2025-07-29T01:02:52.556Z</time>
			</trkpt>
			<trkpt lat="48.01178" lon="14.81404">
				<ele>639.37</ele>
				<time>2025-07-29T01:02:55.110Z</time>
			</trkpt>
			<trkpt lat="48.01189" lon="14.81414">
				<ele>638.53</ele>
				<time>2025-07-29T01:02:55.733Z</time>
			</trkpt>
			<trkpt lat="48.01196" lon="14.81426">
				<ele>637.99</ele>
				<time>2025-07-29T01:02:56.254Z</time>
			</trkpt>
			<trkpt lat="48.01213" lon="14.81469">
				<ele>637.15</ele>
				<time>2025-07-29T01:02:57.915Z</time>
			</trkpt>
			<trkpt lat="48.01227" lon="14.81495">
				<ele>634.54</ele>
				<time>2025-07-29T01:02:59.048Z</time>
			</trkpt>
			<trkpt lat="48.01283" lon="14.81568">
				<ele>620.42</ele>
				<time>2025-07-29T01:03:02.964Z</time>
			</trkpt>
			<trkpt lat="48.01287" lon="14.81579">
				<ele>620.07</ele>
				<time>2025-07-29T01:03:03.420Z</time>
			</trkpt>
			<trkpt lat="48.01293" lon="14.81603">
				<ele>618.89</ele>
				<time>2025-07-29T01:03:04.362Z</time>
			</trkpt>
			<trkpt lat="48.01302" lon="14.81629">
				<ele>616.47</ele>
				<time>2025-07-29T01:03:05.454Z</time>
			</trkpt>
			<trkpt lat="48.01317" lon="14.81623">
				<ele>612.41</ele>
				<time>2025-07-29T01:03:06.332Z</time>
			</trkpt>
			<trkpt lat="48.01327" lon="14.81616">
				<ele>609.7</ele>
				<time>2025-07-29T01:03:06.962Z</time>
			</trkpt>
			<trkpt lat="48.01372" lon="14.81574">
				<ele>604.51</ele>
				<time>2025-07-29T01:03:10.001Z</time>
			</trkpt>
			<trkpt lat="48.01384" lon="14.81559">
				<ele>604.16</ele>
				<time>2025-07-29T01:03:10.892Z</time>
			</trkpt>
			<trkpt lat="48.01391" lon="14.81547">
				<ele>603.88</ele>
				<time>2025-07-29T01:03:11.497Z</time>
			</trkpt>
			<trkpt lat="48.01422" lon="14.81463">
				<ele>595.98</ele>
				<time>2025-07-29T01:03:15.130Z</time>
			</trkpt>
			<trkpt lat="48.01427" lon="14.81456">
				<ele>594.34</ele>
				<time>2025-07-29T01:03:15.517Z</time>
			</trkpt>
			<trkpt lat="48.01435" lon="14.81452">
				<ele>593.26</ele>
				<time>2025-07-29T01:03:15.993Z</time>
			</trkpt>
			<trkpt lat="48.01512" lon="14.81463">
				<ele>584.66</ele>
				<time>2025-07-29T01:03:20.357Z</time>
			</trkpt>
			<trkpt lat="48.01525" lon="14.81468">
				<ele>583.18</ele>
				<time>2025-07-29T01:03:21.115Z</time>
			</trkpt>
			<trkpt lat="48.01537" lon="14.81475">
				<ele>582.34</ele>
				<time>2025-07-29T01:03:21.843Z</time>
			</trkpt>
			<trkpt lat="48.01559" lon="14.81493">
				<ele>581.26</ele>
				<time>2025-07-29T01:03:23.264Z</time>
			</trkpt>
			<trkpt lat="48.01569" lon="14.81499">
				<ele>579.71</ele>
				<time>2025-07-29T01:03:23.875Z</time>
			</trkpt>
			<trkpt lat="48.01582" lon="14.81503">
				<ele>576.94</ele>
				<time>2025-07-29T01:03:24.630Z</time>
			</trkpt>
			<trkpt lat="48.01624" lon="14.81501">
				<ele>565.48</ele>
				<time>2025-07-29T01:03:27.028Z</time>
			</trkpt>
			<trkpt lat="48.01642" lon="14.81509">
				<ele>563.46</ele>
				<time>2025-07-29T01:03:28.106Z</time>
			</trkpt>
			<trkpt lat="48.01653" lon="14.81518">
				<ele>562.8</ele>
				<time>2025-07-29T01:03:28.828Z</time>
			</trkpt>
			<trkpt lat="48.01674" lon="14.81544">
				<ele>560.89</ele>
				<time>2025-07-29T01:03:30.405Z</time>
			</trkpt>
			<trkpt lat="48.01728" lon="14.81639">
				<ele>550.12</ele>
				<time>2025-07-29T01:03:35.301Z</time>
			</trkpt>
			<trkpt lat="48.01733" lon="14.81657">
				<ele>549.13</ele>
				<time>2025-07-29T01:03:36.078Z</time>
			</trkpt>
			<trkpt lat="48.01733" lon="14.81669">
				<ele>548.93</ele>
				<time>2025-07-29T01:03:36.558Z</time>
			</trkpt>
			<trkpt lat="48.01731" lon="14.81682">
				<ele>548.93</ele>
				<time>2025-07-29T01:03:37.094Z</time>
			</trkpt>
			<trkpt lat="48.0172" lon="14.81716">
				<ele>549.64</ele>
				<time>2025-07-29T01:03:38.619Z</time>
			</trkpt>
			<trkpt lat="48.01719" lon="14.81727">
				<ele>548.65</ele>
				<time>2025-07-29T01:03:39.071Z</time>
			</trkpt>
			<trkpt lat="48.01721" lon="14.81736">
				<ele>547.06</ele>
				<time>2025-07-29T01:03:39.457Z</time>
			</trkpt>
			<trkpt lat="48.01725" lon="14.81742">
				<ele>545.48</ele>
				<time>2025-07-29T01:03:39.803Z</time>
			</trkpt>
			<trkpt lat="48.01729" lon="14.81744">
				<ele>544.38</ele>
				<time>2025-07-29T01:03:40.061Z</time>
			</trkpt>
			<trkpt lat="48.0174" lon="14.81743">
				<ele>542.29</ele>
				<time>2025-07-29T01:03:40.736Z</time>
			</trkpt>
			<trkpt lat="48.01751" lon="14.81734">
				<ele>540.82</ele>
				<time>2025-07-29T01:03:41.507Z</time>
			</trkpt>
			<trkpt lat="48.01763" lon="14.81717">
				<ele>538.6</ele>
				<time>2025-07-29T01:03:42.527Z</time>
			</trkpt>
			<trkpt lat="48.01858" lon="14.81573">
				<ele>526.27</ele>
				<time>2025-07-29T01:03:51.033Z</time>
			</trkpt>
			<trkpt lat="48.01914" lon="14.81466">
				<ele>514.63</ele>
				<time>2025-07-29T01:03:56.894Z</time>
			</trkpt>
			<trkpt lat="48.01988" lon="14.81261">
				<ele>495.28</ele>
				<time>2025-07-29T01:04:07.180Z</time>
			</trkpt>
			<trkpt lat="48.02008" lon="14.81214">
				<ele>490.72</ele>
				<time>2025-07-29T01:04:09.679Z</time>
			</trkpt>
			<trkpt lat="48.02053" lon="14.81143">
				<ele>489</ele>
				<time>2025-07-29T01:04:14.098Z</time>
			</trkpt>
			<trkpt lat="48.02123" lon="14.8103">
				<ele>483.5</ele>
				<time>2025-07-29T01:04:21.130Z</time>
			</trkpt>
			<trkpt lat="48.02146" lon="14.80984">
				<ele>481.07</ele>
				<time>2025-07-29T01:04:23.773Z</time>
			</trkpt>
			<trkpt lat="48.02169" lon="14.8093">
				<ele>477.54</ele>
				<time>2025-07-29T01:04:26.729Z</time>
			</trkpt>
			<trkpt lat="48.02175" lon="14.80921">
				<ele>476.79</ele>
				<time>2025-07-29T01:04:27.317Z</time>
			</trkpt>
			<trkpt lat="48.02182" lon="14.80915">
				<ele>476.46</ele>
				<time>2025-07-29T01:04:27.876Z</time>
			</trkpt>
			<trkpt lat="48.02194" lon="14.80912">
				<ele>476.41</ele>
				<time>2025-07-29T01:04:28.719Z</time>
			</trkpt>
			<trkpt lat="48.02226" lon="14.80913">
				<ele>476.51</ele>
				<time>2025-07-29T01:04:30.941Z</time>
			</trkpt>
			<trkpt lat="48.02239" lon="14.8091">
				<ele>476.17</ele>
				<time>2025-07-29T01:04:31.856Z</time>
			</trkpt>
			<trkpt lat="48.02272" lon="14.80899">
				<ele>475.01</ele>
				<time>2025-07-29T01:04:34.210Z</time>
			</trkpt>
			<trkpt lat="48.02281" lon="14.80899">
				<ele>475.14</ele>
				<time>2025-07-29T01:04:34.838Z</time>
			</trkpt>
			<trkpt lat="48.02295" lon="14.80902">
				<ele>475.5</ele>
				<time>2025-07-29T01:04:35.825Z</time>
			</trkpt>
			<trkpt lat="48.02314" lon="14.80912">
				<ele>475.53</ele>
				<time>2025-07-29T01:04:37.231Z</time>
			</trkpt>
			<trkpt lat="48.02339" lon="14.80931">
				<ele>473.02</ele>
				<time>2025-07-29T01:04:39.192Z</time>
			</trkpt>
			<trkpt lat="48.02351" lon="14.80948">
				<ele>470.95</ele>
				<time>2025-07-29T01:04:40.349Z</time>
			</trkpt>
			<trkpt lat="48.02357" lon="14.80963">
				<ele>470.28</ele>
				<time>2025-07-29T01:04:41.168Z</time>
			</trkpt>
			<trkpt lat="48.02366" lon="14.80993">
				<ele>468.45</ele>
				<time>2025-07-29T01:04:42.709Z</time>
			</trkpt>
			<trkpt lat="48.0237" lon="14.80998">
				<ele>467.75</ele>
				<time>2025-07-29T01:04:43.074Z</time>
			</trkpt>
			<trkpt lat="48.02374" lon="14.81002">
				<ele>467</ele>
				<time>2025-07-29T01:04:43.412Z</time>
			</trkpt>
			<trkpt lat="48.02382" lon="14.81">
				<ele>465.92</ele>
				<time>2025-07-29T01:04:43.980Z</time>
			</trkpt>
			<trkpt lat="48.02386" lon="14.80991">
				<ele>465.39</ele>
				<time>2025-07-29T01:04:44.487Z</time>
			</trkpt>
			<trkpt lat="48.02399" lon="14.80921">
				<ele>460.07</ele>
				<time>2025-07-29T01:04:47.897Z</time>
			</trkpt>
			<trkpt lat="48.02433" lon="14.80806">
				<ele>452.32</ele>
				<time>2025-07-29T01:04:53.805Z</time>
			</trkpt>
			<trkpt lat="48.02439" lon="14.8078">
				<ele>450.26</ele>
				<time>2025-07-29T01:04:55.097Z</time>
			</trkpt>
			<trkpt lat="48.0245" lon="14.80694">
				<ele>446.6</ele>
				<time>2025-07-29T01:04:59.209Z</time>
			</trkpt>
			<trkpt lat="48.02457" lon="14.80651">
				<ele>444.7</ele>
				<time>2025-07-29T01:05:01.286Z</time>
			</trkpt>
			<trkpt lat="48.02462" lon="14.8063">
				<ele>443.76</ele>
				<time>2025-07-29T01:05:02.332Z</time>
			</trkpt>
			<trkpt lat="48.0251" lon="14.80514">
				<ele>432.22</ele>
				<time>2025-07-29T01:05:08.717Z</time>
			</trkpt>
			<trkpt lat="48.02549" lon="14.80426">
				<ele>426.71</ele>
				<time>2025-07-29T01:05:13.639Z</time>
			</trkpt>
			<trkpt lat="48.0257" lon="14.80391">
				<ele>424.36</ele>
				<time>2025-07-29T01:05:15.825Z</time>
			</trkpt>
			<trkpt lat="48.02603" lon="14.80342">
				<ele>421.38</ele>
				<time>2025-07-29T01:05:19.047Z</time>
			</trkpt>
			<trkpt lat="48.02643" lon="14.80306">
				<ele>421.16</ele>
				<time>2025-07-29T01:05:22.270Z</time>
			</trkpt>
			<trkpt lat="48.02666" lon="14.80282">
				<ele>421.99</ele>
				<time>2025-07-29T01:05:24.199Z</time>
			</trkpt>
			<trkpt lat="48.02715" lon="14.80217">
				<ele>423</ele>
				<time>2025-07-29T01:05:28.682Z</time>
			</trkpt>
			<trkpt lat="48.02723" lon="14.80203">
				<ele>423</ele>
				<time>2025-07-29T01:05:29.521Z</time>
			</trkpt>
			<trkpt lat="48.02731" lon="14.80178">
				<ele>423</ele>
				<time>2025-07-29T01:05:30.781Z</time>
			</trkpt>
			<trkpt lat="48.02736" lon="14.80155">
				<ele>423.2</ele>
				<time>2025-07-29T01:05:31.879Z</time>
			</trkpt>
			<trkpt lat="48.02742" lon="14.80148">
				<ele>423.45</ele>
				<time>2025-07-29T01:05:32.395Z</time>
			</trkpt>
			<trkpt lat="48.02749" lon="14.80162">
				<ele>423.13</ele>
				<time>2025-07-29T01:05:33.186Z</time>
			</trkpt>
			<trkpt lat="48.02758" lon="14.80168">
				<ele>423.29</ele>
				<time>2025-07-29T01:05:33.852Z</time>
			</trkpt>
			<trkpt lat="48.02833" lon="14.80185">
				<ele>420.3</ele>
				<time>2025-07-29T01:05:38.947Z</time>
			</trkpt>
			<trkpt lat="48.0287" lon="14.80212">
				<ele>415.82</ele>
				<time>2025-07-29T01:05:41.688Z</time>
			</trkpt>
			<trkpt lat="48.02893" lon="14.80231">
				<ele>413.43</ele>
				<time>2025-07-29T01:05:43.428Z</time>
			</trkpt>
			<trkpt lat="48.02966" lon="14.80303">
				<ele>407.2</ele>
				<time>2025-07-29T01:05:49.159Z</time>
			</trkpt>
			<trkpt lat="48.03029" lon="14.80354">
				<ele>401.56</ele>
				<time>2025-07-29T01:05:53.782Z</time>
			</trkpt>
			<trkpt lat="48.0308" lon="14.80416">
				<ele>400.79</ele>
				<time>2025-07-29T01:05:57.961Z</time>
			</trkpt>
			<trkpt lat="48.03094" lon="14.80441">
				<ele>401.26</ele>
				<time>2025-07-29T01:05:59.333Z</time>
			</trkpt>
			<trkpt lat="48.03101" lon="14.80459">
				<ele>401.02</ele>
				<time>2025-07-29T01:06:00.206Z</time>
			</trkpt>
			<trkpt lat="48.03114" lon="14.80522">
				<ele>396.61</ele>
				<time>2025-07-29T01:06:02.948Z</time>
			</trkpt>
			<trkpt lat="48.03128" lon="14.80565">
				<ele>394.34</ele>
				<time>2025-07-29T01:06:04.918Z</time>
			</trkpt>
			<trkpt lat="48.0316" lon="14.80635">
				<ele>389.85</ele>
				<time>2025-07-29T01:06:08.369Z</time>
			</trkpt>
			<trkpt lat="48.03196" lon="14.80695">
				<ele>383.13</ele>
				<time>2025-07-29T01:06:11.598Z</time>
			</trkpt>
			<trkpt lat="48.03238" lon="14.80757">
				<ele>380.74</ele>
				<time>2025-07-29T01:06:15.100Z</time>
			</trkpt>
			<trkpt lat="48.03277" lon="14.80828">
				<ele>375.85</ele>
				<time>2025-07-29T01:06:18.719Z</time>
			</trkpt>
			<trkpt lat="48.03299" lon="14.80848">
				<ele>371.89</ele>
				<time>2025-07-29T01:06:20.227Z</time>
			</trkpt>
			<trkpt lat="48.03339" lon="14.80866">
				<ele>364.33</ele>
				<time>2025-07-29T01:06:22.664Z</time>
			</trkpt>
			<trkpt lat="48.03372" lon="14.80875">
				<ele>362.05</ele>
				<time>2025-07-29T01:06:24.611Z</time>
			</trkpt>
			<trkpt lat="48.03385" lon="14.80875">
				<ele>361.59</ele>
				<time>2025-07-29T01:06:25.364Z</time>
			</trkpt>
			<trkpt lat="48.03396" lon="14.80872">
				<ele>361.39</ele>
				<time>2025-07-29T01:06:26.010Z</time>
			</trkpt>
			<trkpt lat="48.03409" lon="14.80865">
				<ele>361.62</ele>
				<time>2025-07-29T01:06:26.808Z</time>
			</trkpt>
			<trkpt lat="48.03448" lon="14.80838">
				<ele>362.96</ele>
				<time>2025-07-29T01:06:29.279Z</time>
			</trkpt>
			<trkpt lat="48.03471" lon="14.80825">
				<ele>362.62</ele>
				<time>2025-07-29T01:06:30.686Z</time>
			</trkpt>
			<trkpt lat="48.03484" lon="14.8082">
				<ele>361.59</ele>
				<time>2025-07-29T01:06:31.453Z</time>
			</trkpt>
			<trkpt lat="48.03616" lon="14.80795">
				<ele>348.22</ele>
				<time>2025-07-29T01:06:38.980Z</time>
			</trkpt>
			<trkpt lat="48.03674" lon="14.80799">
				<ele>341.57</ele>
				<time>2025-07-29T01:06:42.224Z</time>
			</trkpt>
			<trkpt lat="48.03691" lon="14.80807">
				<ele>340.19</ele>
				<time>2025-07-29T01:06:43.214Z</time>
			</trkpt>
			<trkpt lat="48.03697" lon="14.80815">
				<ele>339.57</ele>
				<time>2025-07-29T01:06:43.660Z</time>
			</trkpt>
			<trkpt lat="48.03703" lon="14.80826">
				<ele>339.15</ele>
				<time>2025-07-29T01:06:44.186Z</time>
			</trkpt>
			<trkpt lat="48.03706" lon="14.80838">
				<ele>339.2</ele>
				<time>2025-07-29T01:06:44.661Z</time>
			</trkpt>
			<trkpt lat="48.03712" lon="14.80904">
				<ele>340.52</ele>
				<time>2025-07-29T01:06:47.118Z</time>
			</trkpt>
			<trkpt lat="48.03716" lon="14.80921">
				<ele>340.41</ele>
				<time>2025-07-29T01:06:47.780Z</time>
			</trkpt>
			<trkpt lat="48.03724" lon="14.80947">
				<ele>339.84</ele>
				<time>2025-07-29T01:06:48.829Z</time>
			</trkpt>
			<trkpt lat="48.03731" lon="14.80965">
				<ele>339.3</ele>
				<time>2025-07-29T01:06:49.591Z</time>
			</trkpt>
			<trkpt lat="48.03739" lon="14.80977">
				<ele>338.67</ele>
				<time>2025-07-29T01:06:50.210Z</time>
			</trkpt>
			<trkpt lat="48.03767" lon="14.81013">
				<ele>336.38</ele>
				<time>2025-07-29T01:06:52.221Z</time>
			</trkpt>
			<trkpt lat="48.03791" lon="14.81043">
				<ele>334.99</ele>
				<time>2025-07-29T01:06:53.916Z</time>
			</trkpt>
			<trkpt lat="48.03799" lon="14.81049">
				<ele>334.45</ele>
				<time>2025-07-29T01:06:54.400Z</time>
			</trkpt>
			<trkpt lat="48.03809" lon="14.81019">
				<ele>334.15</ele>
				<time>2025-07-29T01:06:55.609Z</time>
			</trkpt>
			<trkpt lat="48.03816" lon="14.81003">
				<ele>334.45</ele>
				<time>2025-07-29T01:06:56.297Z</time>
			</trkpt>
			<trkpt lat="48.03844" lon="14.8096">
				<ele>335.38</ele>
				<time>2025-07-29T01:06:58.448Z</time>
			</trkpt>
			<trkpt lat="48.03897" lon="14.80886">
				<ele>332.76</ele>
				<time>2025-07-29T01:07:02.305Z</time>
			</trkpt>
			<trkpt lat="48.03907" lon="14.80869">
				<ele>332.57</ele>
				<time>2025-07-29T01:07:03.105Z</time>
			</trkpt>
			<trkpt lat="48.03921" lon="14.80836">
				<ele>332.57</ele>
				<time>2025-07-29T01:07:04.482Z</time>
			</trkpt>
			<trkpt lat="48.03939" lon="14.80779">
				<ele>332.13</ele>
				<time>2025-07-29T01:07:06.694Z</time>
			</trkpt>
			<trkpt lat="48.0395" lon="14.80759">
				<ele>331.93</ele>
				<time>2025-07-29T01:07:07.598Z</time>
			</trkpt>
			<trkpt lat="48.03965" lon="14.80742">
				<ele>332.06</ele>
				<time>2025-07-29T01:07:08.579Z</time>
			</trkpt>
			<trkpt lat="48.03993" lon="14.80726">
				<ele>331.25</ele>
				<time>2025-07-29T01:07:10.135Z</time>
			</trkpt>
			<trkpt lat="48.04226" lon="14.80645">
				<ele>329.99</ele>
				<time>2025-07-29T01:07:22.317Z</time>
			</trkpt>
			<trkpt lat="48.04379" lon="14.80589">
				<ele>326.07</ele>
				<time>2025-07-29T01:07:29.848Z</time>
			</trkpt>
			<trkpt lat="48.04405" lon="14.80573">
				<ele>325.65</ele>
				<time>2025-07-29T01:07:31.056Z</time>
			</trkpt>
			<trkpt lat="48.0443" lon="14.80552">
				<ele>325</ele>
				<time>2025-07-29T01:07:32.252Z</time>
			</trkpt>
			<trkpt lat="48.04432" lon="14.80564">
				<ele>325.13</ele>
				<time>2025-07-29T01:07:32.591Z</time>
			</trkpt>
			<trkpt lat="48.04431" lon="14.80638">
				<ele>325.89</ele>
				<time>2025-07-29T01:07:34.578Z</time>
			</trkpt>
			<trkpt lat="48.04435" lon="14.80659">
				<ele>326.67</ele>
				<time>2025-07-29T01:07:35.153Z</time>
			</trkpt>
			<trkpt lat="48.04464" lon="14.80763">
				<ele>330.12</ele>
				<time>2025-07-29T01:07:38.080Z</time>
			</trkpt>
			<trkpt lat="48.04496" lon="14.80859">
				<ele>333.92</ele>
				<time>2025-07-29T01:07:40.881Z</time>
			</trkpt>
			<trkpt lat="48.04515" lon="14.80893">
				<ele>335.09</ele>
				<time>2025-07-29T01:07:42.065Z</time>
			</trkpt>
			<trkpt lat="48.04587" lon="14.80995">
				<ele>338.83</ele>
				<time>2025-07-29T01:07:46.262Z</time>
			</trkpt>
			<trkpt lat="48.04767" lon="14.81298">
				<ele>336.06</ele>
				<time>2025-07-29T01:08:01.354Z</time>
			</trkpt>
			<trkpt lat="48.04812" lon="14.81368">
				<ele>337.01</ele>
				<time>2025-07-29T01:08:06.726Z</time>
			</trkpt>
			<trkpt lat="48.04915" lon="14.81508">
				<ele>332.29</ele>
				<time>2025-07-29T01:08:21.904Z</time>
			</trkpt>
			<trkpt lat="48.04921" lon="14.81513">
				<ele>332.46</ele>
				<time>2025-07-29T01:08:22.761Z</time>
			</trkpt>
			<trkpt lat="48.04933" lon="14.81514">
				<ele>332.5</ele>
				<time>2025-07-29T01:08:24.282Z</time>
			</trkpt>
			<trkpt lat="48.04938" lon="14.8151">
				<ele>332.38</ele>
				<time>2025-07-29T01:08:25.009Z</time>
			</trkpt>
			<trkpt lat="48.04952" lon="14.81494">
				<ele>332.14</ele>
				<time>2025-07-29T01:08:27.302Z</time>
			</trkpt>
			<trkpt lat="48.05008" lon="14.81516">
				<ele>330.7</ele>
				<time>2025-07-29T01:08:35.181Z</time>
			</trkpt>
			<trkpt lat="48.05014" lon="14.81521">
				<ele>330.47</ele>
				<time>2025-07-29T01:08:36.147Z</time>
			</trkpt>
			<trkpt lat="48.05041" lon="14.81565">
				<ele>330</ele>
				<time>2025-07-29T01:08:41.873Z</time>
			</trkpt>
			<trkpt lat="48.05058" lon="14.81582">
				<ele>330</ele>
				<time>2025-07-29T01:08:44.872Z</time>
			</trkpt>
			<trkpt lat="48.05079" lon="14.81611">
				<ele>328.97</ele>
				<time>2025-07-29T01:08:49.124Z</time>
			</trkpt>
			<trkpt lat="48.0512" lon="14.81683">
				<ele>326.52</ele>
				<time>2025-07-29T01:08:58.724Z</time>
			</trkpt>
			<trkpt lat="48.05127" lon="14.81699">
				<ele>326.59</ele>
				<time>2025-07-29T01:09:00.687Z</time>
			</trkpt>
			<trkpt lat="48.05153" lon="14.81796">
				<ele>328.32</ele>
				<time>2025-07-29T01:09:11.464Z</time>
			</trkpt>
			<trkpt lat="48.05179" lon="14.81879">
				<ele>328.18</ele>
				<time>2025-07-29T01:09:20.867Z</time>
			</trkpt>
			<trkpt lat="48.05194" lon="14.81911">
				<ele>328.01</ele>
				<time>2025-07-29T01:09:24.828Z</time>
			</trkpt>
			<trkpt lat="48.05205" lon="14.81925">
				<ele>328.57</ele>
				<time>2025-07-29T01:09:26.998Z</time>
			</trkpt>
			<trkpt lat="48.05261" lon="14.81968">
				<ele>329</ele>
				<time>2025-07-29T01:09:36.255Z</time>
			</trkpt>
			<trkpt lat="48.05321" lon="14.8202">
				<ele>328.44</ele>
				<time>2025-07-29T01:09:45.934Z</time>
			</trkpt>
			<trkpt lat="48.05356" lon="14.82045">
				<ele>329</ele>
				<time>2025-07-29T01:09:51.040Z</time>
			</trkpt>
			<trkpt lat="48.05393" lon="14.82099">
				<ele>328.81</ele>
				<time>2025-07-29T01:09:57.483Z</time>
			</trkpt>
			<trkpt lat="48.05419" lon="14.82131">
				<ele>328.56</ele>
				<time>2025-07-29T01:10:01.657Z</time>
			</trkpt>
			<trkpt lat="48.0545" lon="14.82185">
				<ele>329.03</ele>
				<time>2025-07-29T01:10:07.592Z</time>
			</trkpt>
			<trkpt lat="48.0546" lon="14.82216">
				<ele>329.31</ele>
				<time>2025-07-29T01:10:10.472Z</time>
			</trkpt>
			<trkpt lat="48.05449" lon="14.82264">
				<ele>329.3</ele>
				<time>2025-07-29T01:10:14.720Z</time>
			</trkpt>
			<trkpt lat="48.05435" lon="14.82306">
				<ele>327.97</ele>
				<time>2025-07-29T01:10:18.647Z</time>
			</trkpt>
			<trkpt lat="48.05433" lon="14.8232">
				<ele>327.65</ele>
				<time>2025-07-29T01:10:19.843Z</time>
			</trkpt>
			<trkpt lat="48.05434" lon="14.82335">
				<ele>327.35</ele>
				<time>2025-07-29T01:10:21.101Z</time>
			</trkpt>
			<trkpt lat="48.05441" lon="14.82363">
				<ele>327.1</ele>
				<time>2025-07-29T01:10:23.592Z</time>
			</trkpt>
			<trkpt lat="48.05476" lon="14.82451">
				<ele>326.13</ele>
				<time>2025-07-29T01:10:32.055Z</time>
			</trkpt>
			<trkpt lat="48.05509" lon="14.82578">
				<ele>325.64</ele>
				<time>2025-07-29T01:10:43.057Z</time>
			</trkpt>
			<trkpt lat="48.05522" lon="14.82615">
				<ele>324.87</ele>
				<time>2025-07-29T01:10:46.349Z</time>
			</trkpt>
			<trkpt lat="48.05538" lon="14.82651">
				<ele>324.2</ele>
				<time>2025-07-29T01:10:49.705Z</time>
			</trkpt>
			<trkpt lat="48.05588" lon="14.8275">
				<ele>323.99</ele>
				<time>2025-07-29T01:10:59.005Z</time>
			</trkpt>
			<trkpt lat="48.05604" lon="14.82791">
				<ele>323</ele>
				<time>2025-07-29T01:11:02.415Z</time>
			</trkpt>
			<trkpt lat="48.05619" lon="14.82834">
				<ele>322.28</ele>
				<time>2025-07-29T01:11:05.802Z</time>
			</trkpt>
			<trkpt lat="48.05633" lon="14.82886">
				<ele>321.89</ele>
				<time>2025-07-29T01:11:09.585Z</time>
			</trkpt>
			<trkpt lat="48.05643" lon="14.82939">
				<ele>321.85</ele>
				<time>2025-07-29T01:11:13.154Z</time>
			</trkpt>
			<trkpt lat="48.05678" lon="14.83144">
				<ele>322.4</ele>
				<time>2025-07-29T01:11:25.501Z</time>
			</trkpt>
			<trkpt lat="48.05708" lon="14.83259">
				<ele>319.67</ele>
				<time>2025-07-29T01:11:31.977Z</time>
			</trkpt>
			<trkpt lat="48.05713" lon="14.83312">
				<ele>319</ele>
				<time>2025-07-29T01:11:34.646Z</time>
			</trkpt>
			<trkpt lat="48.05714" lon="14.83389">
				<ele>319</ele>
				<time>2025-07-29T01:11:38.348Z</time>
			</trkpt>
			<trkpt lat="48.05725" lon="14.83612">
				<ele>317.92</ele>
				<time>2025-07-29T01:11:48.292Z</time>
			</trkpt>
			<trkpt lat="48.0573" lon="14.83696">
				<ele>320.41</ele>
				<time>2025-07-29T01:11:51.776Z</time>
			</trkpt>
			<trkpt lat="48.05751" lon="14.83831">
				<ele>318.94</ele>
				<time>2025-07-29T01:11:57.245Z</time>
			</trkpt>
			<trkpt lat="48.05781" lon="14.83954">
				<ele>317.85</ele>
				<time>2025-07-29T01:12:02.177Z</time>
			</trkpt>
			<trkpt lat="48.0581" lon="14.84156">
				<ele>317.32</ele>
				<time>2025-07-29T01:12:09.642Z</time>
			</trkpt>
			<trkpt lat="48.05854" lon="14.84412">
				<ele>314.16</ele>
				<time>2025-07-29T01:12:18.966Z</time>
			</trkpt>
			<trkpt lat="48.0586" lon="14.84451">
				<ele>313.73</ele>
				<time>2025-07-29T01:12:20.383Z</time>
			</trkpt>
			<trkpt lat="48.0586" lon="14.84491">
				<ele>313</ele>
				<time>2025-07-29T01:12:21.807Z</time>
			</trkpt>
			<trkpt lat="48.05852" lon="14.84578">
				<ele>315.19</ele>
				<time>2025-07-29T01:12:24.962Z</time>
			</trkpt>
			<trkpt lat="48.05853" lon="14.84613">
				<ele>315.27</ele>
				<time>2025-07-29T01:12:26.236Z</time>
			</trkpt>
			<trkpt lat="48.05867" lon="14.84732">
				<ele>314.75</ele>
				<time>2025-07-29T01:12:30.717Z</time>
			</trkpt>
			<trkpt lat="48.05873" lon="14.8476">
				<ele>314.34</ele>
				<time>2025-07-29T01:12:31.832Z</time>
			</trkpt>
			<trkpt lat="48.0588" lon="14.84785">
				<ele>313.79</ele>
				<time>2025-07-29T01:12:32.869Z</time>
			</trkpt>
			<trkpt lat="48.05898" lon="14.84847">
				<ele>314.16</ele>
				<time>2025-07-29T01:12:35.498Z</time>
			</trkpt>
			<trkpt lat="48.05902" lon="14.84872">
				<ele>314.71</ele>
				<time>2025-07-29T01:12:36.516Z</time>
			</trkpt>
			<trkpt lat="48.05902" lon="14.84899">
				<ele>315.39</ele>
				<time>2025-07-29T01:12:37.596Z</time>
			</trkpt>
			<trkpt lat="48.05922" lon="14.84912">
				<ele>314.28</ele>
				<time>2025-07-29T01:12:38.917Z</time>
			</trkpt>
			<trkpt lat="48.05921" lon="14.84924">
				<ele>314.78</ele>
				<time>2025-07-29T01:12:39.411Z</time>
			</trkpt>
			<trkpt lat="48.05926" lon="14.84933">
				<ele>314.73</ele>
				<time>2025-07-29T01:12:39.892Z</time>
			</trkpt>
			<trkpt lat="48.05931" lon="14.84935">
				<ele>314.39</ele>
				<time>2025-07-29T01:12:40.211Z</time>
			</trkpt>
			<trkpt lat="48.05936" lon="14.84933">
				<ele>313.95</ele>
				<time>2025-07-29T01:12:40.532Z</time>
			</trkpt>
			<trkpt lat="48.05941" lon="14.84925">
				<ele>312.89</ele>
				<time>2025-07-29T01:12:40.987Z</time>
			</trkpt>
			<trkpt lat="48.05959" lon="14.84935">
				<ele>313.38</ele>
				<time>2025-07-29T01:12:42.192Z</time>
			</trkpt>
			<trkpt lat="48.05988" lon="14.8496">
				<ele>314.01</ele>
				<time>2025-07-29T01:12:44.332Z</time>
			</trkpt>
			<trkpt lat="48.05995" lon="14.84971">
				<ele>314.14</ele>
				<time>2025-07-29T01:12:44.991Z</time>
			</trkpt>
			<trkpt lat="48.06085" lon="14.85139">
				<ele>312.99</ele>
				<time>2025-07-29T01:12:54.905Z</time>
			</trkpt>
			<trkpt lat="48.06135" lon="14.85239">
				<ele>311.92</ele>
				<time>2025-07-29T01:13:01.213Z</time>
			</trkpt>
			<trkpt lat="48.06147" lon="14.85266">
				<ele>311.57</ele>
				<time>2025-07-29T01:13:02.927Z</time>
			</trkpt>
			<trkpt lat="48.06163" lon="14.85313">
				<ele>311.63</ele>
				<time>2025-07-29T01:13:05.784Z</time>
			</trkpt>
			<trkpt lat="48.06188" lon="14.85396">
				<ele>309.94</ele>
				<time>2025-07-29T01:13:10.933Z</time>
			</trkpt>
			<trkpt lat="48.06212" lon="14.85507">
				<ele>306.47</ele>
				<time>2025-07-29T01:13:17.961Z</time>
			</trkpt>
			<trkpt lat="48.06245" lon="14.85617">
				<ele>307.41</ele>
				<time>2025-07-29T01:13:26.438Z</time>
			</trkpt>
			<trkpt lat="48.06269" lon="14.8568">
				<ele>307.29</ele>
				<time>2025-07-29T01:13:31.495Z</time>
			</trkpt>
			<trkpt lat="48.06346" lon="14.85847">
				<ele>307.77</ele>
				<time>2025-07-29T01:13:44.433Z</time>
			</trkpt>
			<trkpt lat="48.06365" lon="14.85891">
				<ele>306.85</ele>
				<time>2025-07-29T01:13:47.518Z</time>
			</trkpt>
			<trkpt lat="48.06383" lon="14.85943">
				<ele>307</ele>
				<time>2025-07-29T01:13:50.858Z</time>
			</trkpt>
			<trkpt lat="48.06429" lon="14.85908">
				<ele>306.21</ele>
				<time>2025-07-29T01:13:55.098Z</time>
			</trkpt>
			<trkpt lat="48.06444" lon="14.85899">
				<ele>305.38</ele>
				<time>2025-07-29T01:13:56.390Z</time>
			</trkpt>
			<trkpt lat="48.0651" lon="14.8588">
				<ele>301.6</ele>
				<time>2025-07-29T01:14:01.600Z</time>
			</trkpt>
			<trkpt lat="48.06544" lon="14.85874">
				<ele>298.15</ele>
				<time>2025-07-29T01:14:04.161Z</time>
			</trkpt>
			<trkpt lat="48.06553" lon="14.85875">
				<ele>297.26</ele>
				<time>2025-07-29T01:14:04.826Z</time>
			</trkpt>
			<trkpt lat="48.06572" lon="14.85882">
				<ele>295.83</ele>
				<time>2025-07-29T01:14:06.257Z</time>
			</trkpt>
			<trkpt lat="48.06655" lon="14.85944">
				<ele>293</ele>
				<time>2025-07-29T01:14:12.833Z</time>
			</trkpt>
			<trkpt lat="48.0668" lon="14.85956">
				<ele>292.78</ele>
				<time>2025-07-29T01:14:14.642Z</time>
			</trkpt>
			<trkpt lat="48.06691" lon="14.85957">
				<ele>292.95</ele>
				<time>2025-07-29T01:14:15.395Z</time>
			</trkpt>
			<trkpt lat="48.06705" lon="14.85956">
				<ele>293.59</ele>
				<time>2025-07-29T01:14:16.350Z</time>
			</trkpt>
			<trkpt lat="48.06722" lon="14.85952">
				<ele>294.73</ele>
				<time>2025-07-29T01:14:17.515Z</time>
			</trkpt>
			<trkpt lat="48.06875" lon="14.85896">
				<ele>306.73</ele>
				<time>2025-07-29T01:14:27.984Z</time>
			</trkpt>
			<trkpt lat="48.06923" lon="14.85888">
				<ele>306.73</ele>
				<time>2025-07-29T01:14:31.174Z</time>
			</trkpt>
			<trkpt lat="48.06968" lon="14.85883">
				<ele>306.69</ele>
				<time>2025-07-29T01:14:34.169Z</time>
			</trkpt>
			<trkpt lat="48.07118" lon="14.85883">
				<ele>306.14</ele>
				<time>2025-07-29T01:14:43.737Z</time>
			</trkpt>
			<trkpt lat="48.07203" lon="14.85887">
				<ele>306.03</ele>
				<time>2025-07-29T01:14:48.879Z</time>
			</trkpt>
			<trkpt lat="48.07292" lon="14.859">
				<ele>305</ele>
				<time>2025-07-29T01:14:54.108Z</time>
			</trkpt>
			<trkpt lat="48.07382" lon="14.85922">
				<ele>306.61</ele>
				<time>2025-07-29T01:14:59.292Z</time>
			</trkpt>
			<trkpt lat="48.07371" lon="14.86035">
				<ele>303.49</ele>
				<time>2025-07-29T01:15:03.544Z</time>
			</trkpt>
			<trkpt lat="48.07367" lon="14.86114">
				<ele>303.44</ele>
				<time>2025-07-29T01:15:06.461Z</time>
			</trkpt>
			<trkpt lat="48.07365" lon="14.86264">
				<ele>302.92</ele>
				<time>2025-07-29T01:15:11.942Z</time>
			</trkpt>
			<trkpt lat="48.07372" lon="14.86395">
				<ele>305</ele>
				<time>2025-07-29T01:15:16.733Z</time>
			</trkpt>
			<trkpt lat="48.07375" lon="14.8642">
				<ele>305</ele>
				<time>2025-07-29T01:15:17.661Z</time>
			</trkpt>
			<trkpt lat="48.07393" lon="14.86527">
				<ele>304.16</ele>
				<time>2025-07-29T01:15:21.710Z</time>
			</trkpt>
			<trkpt lat="48.07409" lon="14.86614">
				<ele>303.73</ele>
				<time>2025-07-29T01:15:25.055Z</time>
			</trkpt>
			<trkpt lat="48.07439" lon="14.86733">
				<ele>303</ele>
				<time>2025-07-29T01:15:29.843Z</time>
			</trkpt>
			<trkpt lat="48.07454" lon="14.86821">
				<ele>301.63</ele>
				<time>2025-07-29T01:15:33.329Z</time>
			</trkpt>
			<trkpt lat="48.07465" lon="14.86925">
				<ele>301.51</ele>
				<time>2025-07-29T01:15:37.399Z</time>
			</trkpt>
			<trkpt lat="48.07472" lon="14.87061">
				<ele>300.98</ele>
				<time>2025-07-29T01:15:42.679Z</time>
			</trkpt>
			<trkpt lat="48.07478" lon="14.87145">
				<ele>300.57</ele>
				<time>2025-07-29T01:15:45.953Z</time>
			</trkpt>
			<trkpt lat="48.07499" lon="14.87322">
				<ele>299.59</ele>
				<time>2025-07-29T01:15:52.927Z</time>
			</trkpt>
			<trkpt lat="48.07505" lon="14.87384">
				<ele>300.79</ele>
				<time>2025-07-29T01:15:55.360Z</time>
			</trkpt>
			<trkpt lat="48.07509" lon="14.87472">
				<ele>301</ele>
				<time>2025-07-29T01:15:58.788Z</time>
			</trkpt>
			<trkpt lat="48.07508" lon="14.87507">
				<ele>300.02</ele>
				<time>2025-07-29T01:16:00.149Z</time>
			</trkpt>
			<trkpt lat="48.07501" lon="14.87593">
				<ele>299</ele>
				<time>2025-07-29T01:16:03.518Z</time>
			</trkpt>
			<trkpt lat="48.07479" lon="14.87758">
				<ele>297.51</ele>
				<time>2025-07-29T01:16:10.063Z</time>
			</trkpt>
			<trkpt lat="48.07477" lon="14.87778">
				<ele>297.41</ele>
				<time>2025-07-29T01:16:10.850Z</time>
			</trkpt>
			<trkpt lat="48.07478" lon="14.87805">
				<ele>297.46</ele>
				<time>2025-07-29T01:16:11.903Z</time>
			</trkpt>
			<trkpt lat="48.07481" lon="14.87825">
				<ele>297.64</ele>
				<time>2025-07-29T01:16:12.700Z</time>
			</trkpt>
			<trkpt lat="48.07487" lon="14.87851">
				<ele>298.4</ele>
				<time>2025-07-29T01:16:13.771Z</time>
			</trkpt>
			<trkpt lat="48.07527" lon="14.87988">
				<ele>298.98</ele>
				<time>2025-07-29T01:16:19.590Z</time>
			</trkpt>
			<trkpt lat="48.07538" lon="14.88037">
				<ele>298.62</ele>
				<time>2025-07-29T01:16:21.602Z</time>
			</trkpt>
			<trkpt lat="48.07551" lon="14.88108">
				<ele>297.1</ele>
				<time>2025-07-29T01:16:24.467Z</time>
			</trkpt>
			<trkpt lat="48.07553" lon="14.88135">
				<ele>297.76</ele>
				<time>2025-07-29T01:16:25.524Z</time>
			</trkpt>
			<trkpt lat="48.07551" lon="14.88192">
				<ele>296.58</ele>
				<time>2025-07-29T01:16:27.745Z</time>
			</trkpt>
			<trkpt lat="48.07545" lon="14.88255">
				<ele>292.6</ele>
				<time>2025-07-29T01:16:30.221Z</time>
			</trkpt>
			<trkpt lat="48.07576" lon="14.88264">
				<ele>294.59</ele>
				<time>2025-07-29T01:16:32.059Z</time>
			</trkpt>
			<trkpt lat="48.07631" lon="14.88274">
				<ele>297.73</ele>
				<time>2025-07-29T01:16:35.284Z</time>
			</trkpt>
			<trkpt lat="48.07674" lon="14.88289">
				<ele>297.4</ele>
				<time>2025-07-29T01:16:37.853Z</time>
			</trkpt>
			<trkpt lat="48.07714" lon="14.88313">
				<ele>295.53</ele>
				<time>2025-07-29T01:16:40.359Z</time>
			</trkpt>
			<trkpt lat="48.07796" lon="14.88387">
				<ele>289.65</ele>
				<time>2025-07-29T01:16:45.924Z</time>
			</trkpt>
			<trkpt lat="48.07848" lon="14.88425">
				<ele>289.54</ele>
				<time>2025-07-29T01:16:49.284Z</time>
			</trkpt>
			<trkpt lat="48.07895" lon="14.8849">
				<ele>286.84</ele>
				<time>2025-07-29T01:16:52.996Z</time>
			</trkpt>
			<trkpt lat="48.07941" lon="14.88534">
				<ele>284.79</ele>
				<time>2025-07-29T01:16:56.161Z</time>
			</trkpt>
			<trkpt lat="48.07955" lon="14.88544">
				<ele>286.4</ele>
				<time>2025-07-29T01:16:57.059Z</time>
			</trkpt>
			<trkpt lat="48.07963" lon="14.88548">
				<ele>287.69</ele>
				<time>2025-07-29T01:16:57.548Z</time>
			</trkpt>
			<trkpt lat="48.07971" lon="14.88549">
				<ele>289.12</ele>
				<time>2025-07-29T01:16:58.013Z</time>
			</trkpt>
			<trkpt lat="48.08007" lon="14.88547">
				<ele>292.78</ele>
				<time>2025-07-29T01:17:00.098Z</time>
			</trkpt>
			<trkpt lat="48.0805" lon="14.88539">
				<ele>296.76</ele>
				<time>2025-07-29T01:17:02.605Z</time>
			</trkpt>
			<trkpt lat="48.08055" lon="14.88567">
				<ele>297.53</ele>
				<time>2025-07-29T01:17:03.724Z</time>
			</trkpt>
			<trkpt lat="48.08049" lon="14.88581">
				<ele>296.57</ele>
				<time>2025-07-29T01:17:04.366Z</time>
			</trkpt>
			<trkpt lat="48.08045" lon="14.88603">
				<ele>296.27</ele>
				<time>2025-07-29T01:17:05.247Z</time>
			</trkpt>
			<trkpt lat="48.08043" lon="14.88628">
				<ele>295.78</ele>
				<time>2025-07-29T01:17:06.218Z</time>
			</trkpt>
			<trkpt lat="48.08044" lon="14.88648">
				<ele>295.95</ele>
				<time>2025-07-29T01:17:06.992Z</time>
			</trkpt>
			<trkpt lat="48.08052" lon="14.88679">
				<ele>296.93</ele>
				<time>2025-07-29T01:17:08.273Z</time>
			</trkpt>
			<trkpt lat="48.08066" lon="14.88719">
				<ele>296.62</ele>
				<time>2025-07-29T01:17:10.013Z</time>
			</trkpt>
			<trkpt lat="48.08099" lon="14.88786">
				<ele>295.28</ele>
				<time>2025-07-29T01:17:13.217Z</time>
			</trkpt>
			<trkpt lat="48.08144" lon="14.88901">
				<ele>294.64</ele>
				<time>2025-07-29T01:17:18.342Z</time>
			</trkpt>
			<trkpt lat="48.08187" lon="14.88993">
				<ele>293.16</ele>
				<time>2025-07-29T01:17:22.654Z</time>
			</trkpt>
			<trkpt lat="48.08221" lon="14.89073">
				<ele>290.37</ele>
				<time>2025-07-29T01:17:26.295Z</time>
			</trkpt>
			<trkpt lat="48.08268" lon="14.89171">
				<ele>285.94</ele>
				<time>2025-07-29T01:17:30.925Z</time>
			</trkpt>
			<trkpt lat="48.08284" lon="14.89214">
				<ele>285.92</ele>
				<time>2025-07-29T01:17:32.815Z</time>
			</trkpt>
			<trkpt lat="48.08326" lon="14.89392">
				<ele>290.54</ele>
				<time>2025-07-29T01:17:40.065Z</time>
			</trkpt>
			<trkpt lat="48.08331" lon="14.89398">
				<ele>290.85</ele>
				<time>2025-07-29T01:17:40.434Z</time>
			</trkpt>
			<trkpt lat="48.08331" lon="14.89426">
				<ele>290.54</ele>
				<time>2025-07-29T01:17:41.509Z</time>
			</trkpt>
			<trkpt lat="48.08337" lon="14.89515">
				<ele>290.48</ele>
				<time>2025-07-29T01:17:44.947Z</time>
			</trkpt>
			<trkpt lat="48.08335" lon="14.89525">
				<ele>290.83</ele>
				<time>2025-07-29T01:17:45.348Z</time>
			</trkpt>
			<trkpt lat="48.0833" lon="14.89538">
				<ele>290.9</ele>
				<time>2025-07-29T01:17:45.924Z</time>
			</trkpt>
			<trkpt lat="48.08312" lon="14.89554">
				<ele>290.25</ele>
				<time>2025-07-29T01:17:47.129Z</time>
			</trkpt>
			<trkpt lat="48.08334" lon="14.89657">
				<ele>287.69</ele>
				<time>2025-07-29T01:17:51.285Z</time>
			</trkpt>
			<trkpt lat="48.08392" lon="14.89836">
				<ele>276.89</ele>
				<time>2025-07-29T01:17:58.933Z</time>
			</trkpt>
			<trkpt lat="48.08406" lon="14.89869">
				<ele>275.89</ele>
				<time>2025-07-29T01:18:00.436Z</time>
			</trkpt>
			<trkpt lat="48.08416" lon="14.89901">
				<ele>276.01</ele>
				<time>2025-07-29T01:18:01.794Z</time>
			</trkpt>
			<trkpt lat="48.08419" lon="14.89917">
				<ele>276.17</ele>
				<time>2025-07-29T01:18:02.433Z</time>
			</trkpt>
			<trkpt lat="48.08421" lon="14.89963">
				<ele>276.04</ele>
				<time>2025-07-29T01:18:04.206Z</time>
			</trkpt>
			<trkpt lat="48.08426" lon="14.89996">
				<ele>276.57</ele>
				<time>2025-07-29T01:18:05.507Z</time>
			</trkpt>
			<trkpt lat="48.08448" lon="14.90061">
				<ele>275.96</ele>
				<time>2025-07-29T01:18:08.308Z</time>
			</trkpt>
			<trkpt lat="48.08458" lon="14.90094">
				<ele>276.13</ele>
				<time>2025-07-29T01:18:09.701Z</time>
			</trkpt>
			<trkpt lat="48.08462" lon="14.90168">
				<ele>278.81</ele>
				<time>2025-07-29T01:18:12.555Z</time>
			</trkpt>
			<trkpt lat="48.08469" lon="14.90186">
				<ele>279</ele>
				<time>2025-07-29T01:18:13.356Z</time>
			</trkpt>
			<trkpt lat="48.08481" lon="14.90209">
				<ele>277.8</ele>
				<time>2025-07-29T01:18:14.477Z</time>
			</trkpt>
			<trkpt lat="48.08529" lon="14.90318">
				<ele>274.92</ele>
				<time>2025-07-29T01:18:19.495Z</time>
			</trkpt>
			<trkpt lat="48.08538" lon="14.90342">
				<ele>274.45</ele>
				<time>2025-07-29T01:18:20.553Z</time>
			</trkpt>
			<trkpt lat="48.08545" lon="14.90369">
				<ele>273.85</ele>
				<time>2025-07-29T01:18:21.666Z</time>
			</trkpt>
			<trkpt lat="48.08563" lon="14.90503">
				<ele>274.2</ele>
				<time>2025-07-29T01:18:26.776Z</time>
			</trkpt>
			<trkpt lat="48.08576" lon="14.90578">
				<ele>271.28</ele>
				<time>2025-07-29T01:18:29.562Z</time>
			</trkpt>
			<trkpt lat="48.08578" lon="14.90596">
				<ele>271.48</ele>
				<time>2025-07-29T01:18:30.209Z</time>
			</trkpt>
			<trkpt lat="48.08576" lon="14.90609">
				<ele>271.71</ele>
				<time>2025-07-29T01:18:30.681Z</time>
			</trkpt>
			<trkpt lat="48.08568" lon="14.90664">
				<ele>270.09</ele>
				<time>2025-07-29T01:18:32.657Z</time>
			</trkpt>
			<trkpt lat="48.08572" lon="14.90679">
				<ele>269.7</ele>
				<time>2025-07-29T01:18:33.221Z</time>
			</trkpt>
			<trkpt lat="48.08586" lon="14.90704">
				<ele>269.2</ele>
				<time>2025-07-29T01:18:34.356Z</time>
			</trkpt>
			<trkpt lat="48.08576" lon="14.90714">
				<ele>269.26</ele>
				<time>2025-07-29T01:18:34.981Z</time>
			</trkpt>
			<trkpt lat="48.08529" lon="14.90769">
				<ele>270</ele>
				<time>2025-07-29T01:18:38.075Z</time>
			</trkpt>
			<trkpt lat="48.08512" lon="14.9079">
				<ele>270.5</ele>
				<time>2025-07-29T01:18:39.220Z</time>
			</trkpt>
			<trkpt lat="48.08537" lon="14.90838">
				<ele>269.94</ele>
				<time>2025-07-29T01:18:41.342Z</time>
			</trkpt>
			<trkpt lat="48.08614" lon="14.90999">
				<ele>267</ele>
				<time>2025-07-29T01:18:48.443Z</time>
			</trkpt>
			<trkpt lat="48.08636" lon="14.91048">
				<ele>267.98</ele>
				<time>2025-07-29T01:18:50.655Z</time>
			</trkpt>
			<trkpt lat="48.08677" lon="14.91144">
				<ele>268.07</ele>
				<time>2025-07-29T01:18:55.099Z</time>
			</trkpt>
			<trkpt lat="48.08688" lon="14.91185">
				<ele>268.63</ele>
				<time>2025-07-29T01:18:56.895Z</time>
			</trkpt>
			<trkpt lat="48.08698" lon="14.91232">
				<ele>269.4</ele>
				<time>2025-07-29T01:18:58.956Z</time>
			</trkpt>
			<trkpt lat="48.08709" lon="14.91291">
				<ele>269.52</ele>
				<time>2025-07-29T01:19:01.605Z</time>
			</trkpt>
			<trkpt lat="48.08715" lon="14.91337">
				<ele>268.96</ele>
				<time>2025-07-29T01:19:03.703Z</time>
			</trkpt>
			<trkpt lat="48.08718" lon="14.9142">
				<ele>268.1</ele>
				<time>2025-07-29T01:19:07.595Z</time>
			</trkpt>
			<trkpt lat="48.08723" lon="14.91459">
				<ele>269</ele>
				<time>2025-07-29T01:19:09.537Z</time>
			</trkpt>
			<trkpt lat="48.08738" lon="14.91495">
				<ele>268.63</ele>
				<time>2025-07-29T01:19:11.904Z</time>
			</trkpt>
			<trkpt lat="48.08788" lon="14.91577">
				<ele>267.13</ele>
				<time>2025-07-29T01:19:18.635Z</time>
			</trkpt>
			<trkpt lat="48.08806" lon="14.91614">
				<ele>265.91</ele>
				<time>2025-07-29T01:19:20.775Z</time>
			</trkpt>
			<trkpt lat="48.08898" lon="14.91857">
				<ele>267</ele>
				<time>2025-07-29T01:19:32.823Z</time>
			</trkpt>
			<trkpt lat="48.08912" lon="14.91884">
				<ele>267</ele>
				<time>2025-07-29T01:19:34.189Z</time>
			</trkpt>
			<trkpt lat="48.08989" lon="14.92001">
				<ele>265.05</ele>
				<time>2025-07-29T01:19:40.467Z</time>
			</trkpt>
			<trkpt lat="48.0904" lon="14.9209">
				<ele>264.7</ele>
				<time>2025-07-29T01:19:44.689Z</time>
			</trkpt>
			<trkpt lat="48.09052" lon="14.92123">
				<ele>264.2</ele>
				<time>2025-07-29T01:19:46.001Z</time>
			</trkpt>
			<trkpt lat="48.09066" lon="14.92173">
				<ele>264</ele>
				<time>2025-07-29T01:19:47.862Z</time>
			</trkpt>
			<trkpt lat="48.09089" lon="14.92282">
				<ele>263.76</ele>
				<time>2025-07-29T01:19:51.675Z</time>
			</trkpt>
			<trkpt lat="48.09103" lon="14.92327">
				<ele>263.62</ele>
				<time>2025-07-29T01:19:53.288Z</time>
			</trkpt>
			<trkpt lat="48.09123" lon="14.92376">
				<ele>263</ele>
				<time>2025-07-29T01:19:55.126Z</time>
			</trkpt>
			<trkpt lat="48.09153" lon="14.92427">
				<ele>263.18</ele>
				<time>2025-07-29T01:19:57.266Z</time>
			</trkpt>
			<trkpt lat="48.09183" lon="14.92464">
				<ele>263.29</ele>
				<time>2025-07-29T01:19:59.072Z</time>
			</trkpt>
			<trkpt lat="48.09254" lon="14.92529">
				<ele>260.83</ele>
				<time>2025-07-29T01:20:02.874Z</time>
			</trkpt>
			<trkpt lat="48.09284" lon="14.92567">
				<ele>260.59</ele>
				<time>2025-07-29T01:20:04.645Z</time>
			</trkpt>
			<trkpt lat="48.09294" lon="14.92579">
				<ele>260.32</ele>
				<time>2025-07-29T01:20:05.220Z</time>
			</trkpt>
			<trkpt lat="48.09303" lon="14.92599">
				<ele>260.67</ele>
				<time>2025-07-29T01:20:05.941Z</time>
			</trkpt>
			<trkpt lat="48.09305" lon="14.92607">
				<ele>260.9</ele>
				<time>2025-07-29T01:20:06.197Z</time>
			</trkpt>
			<trkpt lat="48.09306" lon="14.92619">
				<ele>260.98</ele>
				<time>2025-07-29T01:20:06.558Z</time>
			</trkpt>
			<trkpt lat="48.09312" lon="14.92629">
				<ele>260.9</ele>
				<time>2025-07-29T01:20:06.959Z</time>
			</trkpt>
			<trkpt lat="48.09318" lon="14.92631">
				<ele>260.86</ele>
				<time>2025-07-29T01:20:07.233Z</time>
			</trkpt>
			<trkpt lat="48.09326" lon="14.92627">
				<ele>260.69</ele>
				<time>2025-07-29T01:20:07.609Z</time>
			</trkpt>
			<trkpt lat="48.09343" lon="14.92638">
				<ele>260.97</ele>
				<time>2025-07-29T01:20:08.435Z</time>
			</trkpt>
			<trkpt lat="48.09375" lon="14.92668">
				<ele>260.48</ele>
				<time>2025-07-29T01:20:10.115Z</time>
			</trkpt>
			<trkpt lat="48.09484" lon="14.92743">
				<ele>258.12</ele>
				<time>2025-07-29T01:20:15.471Z</time>
			</trkpt>
			<trkpt lat="48.09495" lon="14.92755">
				<ele>258.15</ele>
				<time>2025-07-29T01:20:16.083Z</time>
			</trkpt>
			<trkpt lat="48.09511" lon="14.92779">
				<ele>258.95</ele>
				<time>2025-07-29T01:20:17.105Z</time>
			</trkpt>
			<trkpt lat="48.09523" lon="14.92808">
				<ele>258.85</ele>
				<time>2025-07-29T01:20:18.137Z</time>
			</trkpt>
			<trkpt lat="48.09548" lon="14.92872">
				<ele>258.76</ele>
				<time>2025-07-29T01:20:20.400Z</time>
			</trkpt>
			<trkpt lat="48.09558" lon="14.9289">
				<ele>258.04</ele>
				<time>2025-07-29T01:20:21.121Z</time>
			</trkpt>
			<trkpt lat="48.09576" lon="14.92915">
				<ele>258.5</ele>
				<time>2025-07-29T01:20:22.259Z</time>
			</trkpt>
			<trkpt lat="48.09588" lon="14.92927">
				<ele>259.16</ele>
				<time>2025-07-29T01:20:22.933Z</time>
			</trkpt>
			<trkpt lat="48.09602" lon="14.92939">
				<ele>259.7</ele>
				<time>2025-07-29T01:20:23.690Z</time>
			</trkpt>
			<trkpt lat="48.09628" lon="14.92953">
				<ele>259.24</ele>
				<time>2025-07-29T01:20:24.996Z</time>
			</trkpt>
			<trkpt lat="48.09642" lon="14.92956">
				<ele>258.82</ele>
				<time>2025-07-29T01:20:25.671Z</time>
			</trkpt>
			<trkpt lat="48.09671" lon="14.92955">
				<ele>257.48</ele>
				<time>2025-07-29T01:20:27.066Z</time>
			</trkpt>
			<trkpt lat="48.09755" lon="14.92945">
				<ele>257.16</ele>
				<time>2025-07-29T01:20:31.223Z</time>
			</trkpt>
			<trkpt lat="48.09786" lon="14.92947">
				<ele>257.45</ele>
				<time>2025-07-29T01:20:32.798Z</time>
			</trkpt>
			<trkpt lat="48.09802" lon="14.92951">
				<ele>256.62</ele>
				<time>2025-07-29T01:20:33.632Z</time>
			</trkpt>
			<trkpt lat="48.0983" lon="14.92963">
				<ele>255.61</ele>
				<time>2025-07-29T01:20:35.145Z</time>
			</trkpt>
			<trkpt lat="48.09859" lon="14.92982">
				<ele>256.5</ele>
				<time>2025-07-29T01:20:36.791Z</time>
			</trkpt>
			<trkpt lat="48.09888" lon="14.93009">
				<ele>255.65</ele>
				<time>2025-07-29T01:20:38.565Z</time>
			</trkpt>
			<trkpt lat="48.09908" lon="14.93035">
				<ele>255.71</ele>
				<time>2025-07-29T01:20:39.939Z</time>
			</trkpt>
			<trkpt lat="48.0992" lon="14.93052">
				<ele>256.27</ele>
				<time>2025-07-29T01:20:40.796Z</time>
			</trkpt>
			<trkpt lat="48.09938" lon="14.93086">
				<ele>255.68</ele>
				<time>2025-07-29T01:20:42.297Z</time>
			</trkpt>
			<trkpt lat="48.09953" lon="14.93124">
				<ele>255.47</ele>
				<time>2025-07-29T01:20:43.823Z</time>
			</trkpt>
			<trkpt lat="48.09965" lon="14.93167">
				<ele>255</ele>
				<time>2025-07-29T01:20:45.433Z</time>
			</trkpt>
			<trkpt lat="48.09981" lon="14.9323">
				<ele>254.66</ele>
				<time>2025-07-29T01:20:47.759Z</time>
			</trkpt>
			<trkpt lat="48.09989" lon="14.93268">
				<ele>254.39</ele>
				<time>2025-07-29T01:20:49.133Z</time>
			</trkpt>
			<trkpt lat="48.10012" lon="14.93408">
				<ele>254</ele>
				<time>2025-07-29T01:20:54.098Z</time>
			</trkpt>
			<trkpt lat="48.10019" lon="14.93443">
				<ele>254</ele>
				<time>2025-07-29T01:20:55.355Z</time>
			</trkpt>
			<trkpt lat="48.10028" lon="14.9348">
				<ele>253.97</ele>
				<time>2025-07-29T01:20:56.709Z</time>
			</trkpt>
			<trkpt lat="48.1004" lon="14.93518">
				<ele>254.18</ele>
				<time>2025-07-29T01:20:58.154Z</time>
			</trkpt>
			<trkpt lat="48.10058" lon="14.93566">
				<ele>255.23</ele>
				<time>2025-07-29T01:21:00.046Z</time>
			</trkpt>
			<trkpt lat="48.10084" lon="14.93621">
				<ele>254.03</ele>
				<time>2025-07-29T01:21:02.360Z</time>
			</trkpt>
			<trkpt lat="48.10141" lon="14.93721">
				<ele>256.03</ele>
				<time>2025-07-29T01:21:06.876Z</time>
			</trkpt>
			<trkpt lat="48.10159" lon="14.93761">
				<ele>253.57</ele>
				<time>2025-07-29T01:21:08.532Z</time>
			</trkpt>
			<trkpt lat="48.10192" lon="14.9386">
				<ele>252.97</ele>
				<time>2025-07-29T01:21:12.332Z</time>
			</trkpt>
			<trkpt lat="48.10204" lon="14.93894">
				<ele>253.75</ele>
				<time>2025-07-29T01:21:13.653Z</time>
			</trkpt>
			<trkpt lat="48.10227" lon="14.93947">
				<ele>253.55</ele>
				<time>2025-07-29T01:21:15.825Z</time>
			</trkpt>
			<trkpt lat="48.10249" lon="14.93989">
				<ele>253.85</ele>
				<time>2025-07-29T01:21:17.660Z</time>
			</trkpt>
			<trkpt lat="48.10278" lon="14.94033">
				<ele>254.19</ele>
				<time>2025-07-29T01:21:19.786Z</time>
			</trkpt>
			<trkpt lat="48.10294" lon="14.94053">
				<ele>254.36</ele>
				<time>2025-07-29T01:21:20.860Z</time>
			</trkpt>
			<trkpt lat="48.1032" lon="14.94083">
				<ele>254</ele>
				<time>2025-07-29T01:21:22.552Z</time>
			</trkpt>
			<trkpt lat="48.10331" lon="14.94093">
				<ele>254</ele>
				<time>2025-07-29T01:21:23.216Z</time>
			</trkpt>
			<trkpt lat="48.10354" lon="14.94107">
				<ele>253.23</ele>
				<time>2025-07-29T01:21:24.497Z</time>
			</trkpt>
			<trkpt lat="48.10375" lon="14.94116">
				<ele>252.38</ele>
				<time>2025-07-29T01:21:25.624Z</time>
			</trkpt>
			<trkpt lat="48.10402" lon="14.94124">
				<ele>252</ele>
				<time>2025-07-29T01:21:27.046Z</time>
			</trkpt>
			<trkpt lat="48.10432" lon="14.94129">
				<ele>252.38</ele>
				<time>2025-07-29T01:21:28.606Z</time>
			</trkpt>
			<trkpt lat="48.10455" lon="14.9413">
				<ele>253.1</ele>
				<time>2025-07-29T01:21:29.796Z</time>
			</trkpt>
			<trkpt lat="48.10492" lon="14.94127">
				<ele>253.57</ele>
				<time>2025-07-29T01:21:31.714Z</time>
			</trkpt>
			<trkpt lat="48.10511" lon="14.94122">
				<ele>253.41</ele>
				<time>2025-07-29T01:21:32.713Z</time>
			</trkpt>
			<trkpt lat="48.10567" lon="14.94103">
				<ele>253.43</ele>
				<time>2025-07-29T01:21:35.692Z</time>
			</trkpt>
			<trkpt lat="48.10618" lon="14.94085">
				<ele>254.25</ele>
				<time>2025-07-29T01:21:38.415Z</time>
			</trkpt>
			<trkpt lat="48.1064" lon="14.94074">
				<ele>255</ele>
				<time>2025-07-29T01:21:39.622Z</time>
			</trkpt>
			<trkpt lat="48.10709" lon="14.94033">
				<ele>255.41</ele>
				<time>2025-07-29T01:21:43.492Z</time>
			</trkpt>
			<trkpt lat="48.10913" lon="14.93941">
				<ele>257.9</ele>
				<time>2025-07-29T01:21:54.675Z</time>
			</trkpt>
			<trkpt lat="48.1111" lon="14.93867">
				<ele>256.98</ele>
				<time>2025-07-29T01:22:05.461Z</time>
			</trkpt>
			<trkpt lat="48.11196" lon="14.9383">
				<ele>258</ele>
				<time>2025-07-29T01:22:10.258Z</time>
			</trkpt>
			<trkpt lat="48.11262" lon="14.93804">
				<ele>257.56</ele>
				<time>2025-07-29T01:22:13.938Z</time>
			</trkpt>
			<trkpt lat="48.11438" lon="14.93746">
				<ele>259</ele>
				<time>2025-07-29T01:22:23.750Z</time>
			</trkpt>
			<trkpt lat="48.11465" lon="14.93944">
				<ele>257.25</ele>
				<time>2025-07-29T01:22:31.195Z</time>
			</trkpt>
			<trkpt lat="48.11502" lon="14.94216">
				<ele>258</ele>
				<time>2025-07-29T01:22:41.576Z</time>
			</trkpt>
			<trkpt lat="48.11563" lon="14.94687">
				<ele>256.8</ele>
				<time>2025-07-29T01:22:59.999Z</time>
			</trkpt>
			<trkpt lat="48.11633" lon="14.95279">
				<ele>253.74</ele>
				<time>2025-07-29T01:23:24.442Z</time>
			</trkpt>
			<trkpt lat="48.1165" lon="14.95431">
				<ele>254.22</ele>
				<time>2025-07-29T01:23:30.934Z</time>
			</trkpt>
			<trkpt lat="48.11662" lon="14.95518">
				<ele>254.74</ele>
				<time>2025-07-29T01:23:34.709Z</time>
			</trkpt>
			<trkpt lat="48.11674" lon="14.95589">
				<ele>255.28</ele>
				<time>2025-07-29T01:23:37.835Z</time>
			</trkpt>
			<trkpt lat="48.11699" lon="14.95698">
				<ele>253.14</ele>
				<time>2025-07-29T01:23:42.780Z</time>
			</trkpt>
			<trkpt lat="48.11724" lon="14.95786">
				<ele>253.28</ele>
				<time>2025-07-29T01:23:46.902Z</time>
			</trkpt>
			<trkpt lat="48.11751" lon="14.95867">
				<ele>252.93</ele>
				<time>2025-07-29T01:23:50.817Z</time>
			</trkpt>
			<trkpt lat="48.11789" lon="14.95962">
				<ele>252</ele>
				<time>2025-07-29T01:23:55.619Z</time>
			</trkpt>
			<trkpt lat="48.11846" lon="14.96091">
				<ele>250.86</ele>
				<time>2025-07-29T01:24:02.343Z</time>
			</trkpt>
			<trkpt lat="48.11861" lon="14.96132">
				<ele>250</ele>
				<time>2025-07-29T01:24:04.378Z</time>
			</trkpt>
			<trkpt lat="48.11866" lon="14.96152">
				<ele>250.19</ele>
				<time>2025-07-29T01:24:05.307Z</time>
			</trkpt>
			<trkpt lat="48.11864" lon="14.96166">
				<ele>250.11</ele>
				<time>2025-07-29T01:24:05.930Z</time>
			</trkpt>
			<trkpt lat="48.11865" lon="14.96175">
				<ele>250.48</ele>
				<time>2025-07-29T01:24:06.327Z</time>
			</trkpt>
			<trkpt lat="48.11868" lon="14.96183">
				<ele>250.9</ele>
				<time>2025-07-29T01:24:06.726Z</time>
			</trkpt>
			<trkpt lat="48.11873" lon="14.96189">
				<ele>251.29</ele>
				<time>2025-07-29T01:24:07.144Z</time>
			</trkpt>
			<trkpt lat="48.11879" lon="14.96193">
				<ele>251.62</ele>
				<time>2025-07-29T01:24:07.572Z</time>
			</trkpt>
			<trkpt lat="48.11886" lon="14.96193">
				<ele>251.84</ele>
				<time>2025-07-29T01:24:08.028Z</time>
			</trkpt>
			<trkpt lat="48.11895" lon="14.96185">
				<ele>251.93</ele>
				<time>2025-07-29T01:24:08.710Z</time>
			</trkpt>
			<trkpt lat="48.11899" lon="14.96176">
				<ele>251.75</ele>
				<time>2025-07-29T01:24:09.181Z</time>
			</trkpt>
			<trkpt lat="48.11901" lon="14.96166">
				<ele>251.43</ele>
				<time>2025-07-29T01:24:09.635Z</time>
			</trkpt>
			<trkpt lat="48.11917" lon="14.96143">
				<ele>251.2</ele>
				<time>2025-07-29T01:24:11.080Z</time>
			</trkpt>
			<trkpt lat="48.11931" lon="14.96117">
				<ele>251.51</ele>
				<time>2025-07-29T01:24:12.532Z</time>
			</trkpt>
			<trkpt lat="48.11936" lon="14.96094">
				<ele>251.7</ele>
				<time>2025-07-29T01:24:13.584Z</time>
			</trkpt>
			<trkpt lat="48.11958" lon="14.95874">
				<ele>253.52</ele>
				<time>2025-07-29T01:24:23.231Z</time>
			</trkpt>
			<trkpt lat="48.11965" lon="14.95847">
				<ele>253.38</ele>
				<time>2025-07-29T01:24:24.483Z</time>
			</trkpt>
			<trkpt lat="48.11971" lon="14.95836">
				<ele>253.1</ele>
				<time>2025-07-29T01:24:25.096Z</time>
			</trkpt>
			<trkpt lat="48.11983" lon="14.95822">
				<ele>253</ele>
				<time>2025-07-29T01:24:26.080Z</time>
			</trkpt>
			<trkpt lat="48.12002" lon="14.95812">
				<ele>253.05</ele>
				<time>2025-07-29T01:24:27.381Z</time>
			</trkpt>
			<trkpt lat="48.12282" lon="14.95703">
				<ele>253</ele>
				<time>2025-07-29T01:24:45.833Z</time>
			</trkpt>
			<trkpt lat="48.12331" lon="14.95687">
				<ele>253.23</ele>
				<time>2025-07-29T01:24:48.877Z</time>
			</trkpt>
			<trkpt lat="48.12499" lon="14.95648">
				<ele>254.3</ele>
				<time>2025-07-29T01:24:58.485Z</time>
			</trkpt>
			<trkpt lat="48.12644" lon="14.95603">
				<ele>255.8</ele>
				<time>2025-07-29T01:25:06.307Z</time>
			</trkpt>
			<trkpt lat="48.12699" lon="14.95589">
				<ele>255</ele>
				<time>2025-07-29T01:25:09.208Z</time>
			</trkpt>
			<trkpt lat="48.12774" lon="14.95573">
				<ele>255.89</ele>
				<time>2025-07-29T01:25:13.161Z</time>
			</trkpt>
			<trkpt lat="48.12909" lon="14.95524">
				<ele>258.61</ele>
				<time>2025-07-29T01:25:20.619Z</time>
			</trkpt>
			<trkpt lat="48.12917" lon="14.95518">
				<ele>259.86</ele>
				<time>2025-07-29T01:25:21.114Z</time>
			</trkpt>
			<trkpt lat="48.12933" lon="14.95552">
				<ele>260.47</ele>
				<time>2025-07-29T01:25:22.667Z</time>
			</trkpt>
			<trkpt lat="48.12945" lon="14.95588">
				<ele>259.88</ele>
				<time>2025-07-29T01:25:24.193Z</time>
			</trkpt>
			<trkpt lat="48.12979" lon="14.95555">
				<ele>265.53</ele>
				<time>2025-07-29T01:25:26.545Z</time>
			</trkpt>
			<trkpt lat="48.12988" lon="14.95542">
				<ele>266.81</ele>
				<time>2025-07-29T01:25:27.284Z</time>
			</trkpt>
			<trkpt lat="48.12996" lon="14.95521">
				<ele>268.13</ele>
				<time>2025-07-29T01:25:28.248Z</time>
			</trkpt>
			<trkpt lat="48.13005" lon="14.95475">
				<ele>270.81</ele>
				<time>2025-07-29T01:25:30.192Z</time>
			</trkpt>
			<trkpt lat="48.13002" lon="14.95435">
				<ele>273.54</ele>
				<time>2025-07-29T01:25:31.863Z</time>
			</trkpt>
			<trkpt lat="48.13052" lon="14.95422">
				<ele>274.47</ele>
				<time>2025-07-29T01:25:35.122Z</time>
			</trkpt>
			<trkpt lat="48.13159" lon="14.95387">
				<ele>285.25</ele>
				<time>2025-07-29T01:25:42.681Z</time>
			</trkpt>
			<trkpt lat="48.13188" lon="14.95388">
				<ele>288.4</ele>
				<time>2025-07-29T01:25:44.818Z</time>
			</trkpt>
			<trkpt lat="48.1324" lon="14.95397">
				<ele>291.36</ele>
				<time>2025-07-29T01:25:48.835Z</time>
			</trkpt>
			<trkpt lat="48.13315" lon="14.95405">
				<ele>296.84</ele>
				<time>2025-07-29T01:25:54.995Z</time>
			</trkpt>
			<trkpt lat="48.13341" lon="14.95412">
				<ele>298.27</ele>
				<time>2025-07-29T01:25:57.277Z</time>
			</trkpt>
			<trkpt lat="48.13385" lon="14.95418">
				<ele>303.31</ele>
				<time>2025-07-29T01:26:01.239Z</time>
			</trkpt>
			<trkpt lat="48.134" lon="14.95413">
				<ele>304.68</ele>
				<time>2025-07-29T01:26:02.661Z</time>
			</trkpt>
			<trkpt lat="48.13493" lon="14.95354">
				<ele>305.05</ele>
				<time>2025-07-29T01:26:15.368Z</time>
			</trkpt>
			<trkpt lat="48.13552" lon="14.95322">
				<ele>313.31</ele>
				<time>2025-07-29T01:26:24.169Z</time>
			</trkpt>
			<trkpt lat="48.13596" lon="14.95289">
				<ele>319.5</ele>
				<time>2025-07-29T01:26:29.565Z</time>
			</trkpt>
			<trkpt lat="48.13633" lon="14.95256">
				<ele>322.57</ele>
				<time>2025-07-29T01:26:33.556Z</time>
			</trkpt>
			<trkpt lat="48.13797" lon="14.9508">
				<ele>332.95</ele>
				<time>2025-07-29T01:26:51.225Z</time>
			</trkpt>
			<trkpt lat="48.13832" lon="14.95045">
				<ele>335.74</ele>
				<time>2025-07-29T01:26:54.708Z</time>
			</trkpt>
			<trkpt lat="48.1385" lon="14.95036">
				<ele>335.36</ele>
				<time>2025-07-29T01:26:56.257Z</time>
			</trkpt>
			<trkpt lat="48.13871" lon="14.95029">
				<ele>334.57</ele>
				<time>2025-07-29T01:26:57.996Z</time>
			</trkpt>
			<trkpt lat="48.13964" lon="14.95008">
				<ele>337.14</ele>
				<time>2025-07-29T01:27:05.406Z</time>
			</trkpt>
			<trkpt lat="48.13984" lon="14.94993">
				<ele>338.2</ele>
				<time>2025-07-29T01:27:07.122Z</time>
			</trkpt>
			<trkpt lat="48.14014" lon="14.94955">
				<ele>338.41</ele>
				<time>2025-07-29T01:27:10.095Z</time>
			</trkpt>
			<trkpt lat="48.14025" lon="14.94937">
				<ele>338.56</ele>
				<time>2025-07-29T01:27:11.313Z</time>
			</trkpt>
			<trkpt lat="48.1404" lon="14.94905">
				<ele>339.35</ele>
				<time>2025-07-29T01:27:13.246Z</time>
			</trkpt>
			<trkpt lat="48.14051" lon="14.94871">
				<ele>339.41</ele>
				<time>2025-07-29T01:27:15.093Z</time>
			</trkpt>
			<trkpt lat="48.14074" lon="14.94764">
				<ele>341.01</ele>
				<time>2025-07-29T01:27:20.471Z</time>
			</trkpt>
			<trkpt lat="48.14079" lon="14.94748">
				<ele>341.54</ele>
				<time>2025-07-29T01:27:21.300Z</time>
			</trkpt>
			<trkpt lat="48.14093" lon="14.94721">
				<ele>343.11</ele>
				<time>2025-07-29T01:27:22.894Z</time>
			</trkpt>
			<trkpt lat="48.1411" lon="14.94705">
				<ele>344.92</ele>
				<time>2025-07-29T01:27:24.284Z</time>
			</trkpt>
			<trkpt lat="48.14161" lon="14.94671">
				<ele>348.13</ele>
				<time>2025-07-29T01:27:28.088Z</time>
			</trkpt>
			<trkpt lat="48.14226" lon="14.9464">
				<ele>354.85</ele>
				<time>2025-07-29T01:27:32.620Z</time>
			</trkpt>
			<trkpt lat="48.14273" lon="14.94604">
				<ele>358.89</ele>
				<time>2025-07-29T01:27:36.044Z</time>
			</trkpt>
			<trkpt lat="48.14302" lon="14.94587">
				<ele>361.01</ele>
				<time>2025-07-29T01:27:38.031Z</time>
			</trkpt>
			<trkpt lat="48.14329" lon="14.94579">
				<ele>363.43</ele>
				<time>2025-07-29T01:27:39.768Z</time>
			</trkpt>
			<trkpt lat="48.14345" lon="14.94577">
				<ele>364.22</ele>
				<time>2025-07-29T01:27:40.773Z</time>
			</trkpt>
			<trkpt lat="48.14443" lon="14.94578">
				<ele>373.55</ele>
				<time>2025-07-29T01:27:46.781Z</time>
			</trkpt>
			<trkpt lat="48.14507" lon="14.94584">
				<ele>374.85</ele>
				<time>2025-07-29T01:27:50.602Z</time>
			</trkpt>
			<trkpt lat="48.14618" lon="14.94615">
				<ele>368.92</ele>
				<time>2025-07-29T01:27:57.138Z</time>
			</trkpt>
			<trkpt lat="48.14647" lon="14.94617">
				<ele>366.44</ele>
				<time>2025-07-29T01:27:58.782Z</time>
			</trkpt>
			<trkpt lat="48.14702" lon="14.9461">
				<ele>364.96</ele>
				<time>2025-07-29T01:28:01.871Z</time>
			</trkpt>
			<trkpt lat="48.14753" lon="14.94594">
				<ele>363.6</ele>
				<time>2025-07-29T01:28:04.743Z</time>
			</trkpt>
			<trkpt lat="48.14782" lon="14.94579">
				<ele>360.35</ele>
				<time>2025-07-29T01:28:06.417Z</time>
			</trkpt>
			<trkpt lat="48.14824" lon="14.94551">
				<ele>356.15</ele>
				<time>2025-07-29T01:28:08.901Z</time>
			</trkpt>
			<trkpt lat="48.14905" lon="14.94484">
				<ele>356.38</ele>
				<time>2025-07-29T01:28:13.824Z</time>
			</trkpt>
			<trkpt lat="48.14939" lon="14.9446">
				<ele>356.89</ele>
				<time>2025-07-29T01:28:15.797Z</time>
			</trkpt>
			<trkpt lat="48.14954" lon="14.94452">
				<ele>357.98</ele>
				<time>2025-07-29T01:28:16.629Z</time>
			</trkpt>
			<trkpt lat="48.14973" lon="14.94447">
				<ele>360.12</ele>
				<time>2025-07-29T01:28:17.634Z</time>
			</trkpt>
			<trkpt lat="48.15016" lon="14.94441">
				<ele>365.07</ele>
				<time>2025-07-29T01:28:19.873Z</time>
			</trkpt>
			<trkpt lat="48.15045" lon="14.94442">
				<ele>365.36</ele>
				<time>2025-07-29T01:28:21.368Z</time>
			</trkpt>
			<trkpt lat="48.15068" lon="14.9445">
				<ele>366.58</ele>
				<time>2025-07-29T01:28:22.581Z</time>
			</trkpt>
			<trkpt lat="48.15089" lon="14.94465">
				<ele>369.33</ele>
				<time>2025-07-29T01:28:23.773Z</time>
			</trkpt>
			<trkpt lat="48.15107" lon="14.94483">
				<ele>371.96</ele>
				<time>2025-07-29T01:28:24.878Z</time>
			</trkpt>
			<trkpt lat="48.15128" lon="14.94514">
				<ele>373.2</ele>
				<time>2025-07-29T01:28:26.379Z</time>
			</trkpt>
			<trkpt lat="48.15179" lon="14.94595">
				<ele>375.1</ele>
				<time>2025-07-29T01:28:30.147Z</time>
			</trkpt>
			<trkpt lat="48.15184" lon="14.94606">
				<ele>375.26</ele>
				<time>2025-07-29T01:28:30.596Z</time>
			</trkpt>
			<trkpt lat="48.15211" lon="14.94684">
				<ele>370.37</ele>
				<time>2025-07-29T01:28:33.554Z</time>
			</trkpt>
			<trkpt lat="48.15229" lon="14.94721">
				<ele>370.08</ele>
				<time>2025-07-29T01:28:35.093Z</time>
			</trkpt>
			<trkpt lat="48.15248" lon="14.94751">
				<ele>368.74</ele>
				<time>2025-07-29T01:28:36.482Z</time>
			</trkpt>
			<trkpt lat="48.1527" lon="14.94775">
				<ele>368.29</ele>
				<time>2025-07-29T01:28:37.852Z</time>
			</trkpt>
			<trkpt lat="48.15297" lon="14.94797">
				<ele>369.44</ele>
				<time>2025-07-29T01:28:39.398Z</time>
			</trkpt>
			<trkpt lat="48.1535" lon="14.94822">
				<ele>371.07</ele>
				<time>2025-07-29T01:28:42.198Z</time>
			</trkpt>
			<trkpt lat="48.15375" lon="14.94832">
				<ele>369.67</ele>
				<time>2025-07-29T01:28:43.503Z</time>
			</trkpt>
			<trkpt lat="48.15394" lon="14.94829">
				<ele>369.17</ele>
				<time>2025-07-29T01:28:44.468Z</time>
			</trkpt>
			<trkpt lat="48.15433" lon="14.94811">
				<ele>367.23</ele>
				<time>2025-07-29T01:28:46.534Z</time>
			</trkpt>
			<trkpt lat="48.15507" lon="14.94785">
				<ele>368.93</ele>
				<time>2025-07-29T01:28:50.400Z</time>
			</trkpt>
			<trkpt lat="48.15521" lon="14.94775">
				<ele>370.21</ele>
				<time>2025-07-29T01:28:51.192Z</time>
			</trkpt>
			<trkpt lat="48.1553" lon="14.94765">
				<ele>371.25</ele>
				<time>2025-07-29T01:28:51.765Z</time>
			</trkpt>
			<trkpt lat="48.15533" lon="14.94769">
				<ele>370.76</ele>
				<time>2025-07-29T01:28:51.971Z</time>
			</trkpt>
			<trkpt lat="48.15543" lon="14.94774">
				<ele>370.21</ele>
				<time>2025-07-29T01:28:52.512Z</time>
			</trkpt>
			<trkpt lat="48.15656" lon="14.94768">
				<ele>361.37</ele>
				<time>2025-07-29T01:28:58.361Z</time>
			</trkpt>
			<trkpt lat="48.15669" lon="14.94774">
				<ele>359.73</ele>
				<time>2025-07-29T01:28:59.072Z</time>
			</trkpt>
			<trkpt lat="48.1568" lon="14.94787">
				<ele>358.17</ele>
				<time>2025-07-29T01:28:59.806Z</time>
			</trkpt>
			<trkpt lat="48.15686" lon="14.94803">
				<ele>356.91</ele>
				<time>2025-07-29T01:29:00.449Z</time>
			</trkpt>
			<trkpt lat="48.15702" lon="14.94891">
				<ele>350.48</ele>
				<time>2025-07-29T01:29:03.667Z</time>
			</trkpt>
			<trkpt lat="48.15716" lon="14.94947">
				<ele>346.95</ele>
				<time>2025-07-29T01:29:05.800Z</time>
			</trkpt>
			<trkpt lat="48.15775" lon="14.95122">
				<ele>338.55</ele>
				<time>2025-07-29T01:29:12.937Z</time>
			</trkpt>
			<trkpt lat="48.15792" lon="14.95186">
				<ele>338.65</ele>
				<time>2025-07-29T01:29:15.503Z</time>
			</trkpt>
			<trkpt lat="48.15804" lon="14.95243">
				<ele>340.95</ele>
				<time>2025-07-29T01:29:17.757Z</time>
			</trkpt>
			<trkpt lat="48.15812" lon="14.95329">
				<ele>338.65</ele>
				<time>2025-07-29T01:29:21.081Z</time>
			</trkpt>
			<trkpt lat="48.15818" lon="14.95376">
				<ele>335.98</ele>
				<time>2025-07-29T01:29:22.938Z</time>
			</trkpt>
			<trkpt lat="48.15826" lon="14.95412">
				<ele>334.12</ele>
				<time>2025-07-29T01:29:24.425Z</time>
			</trkpt>
			<trkpt lat="48.15836" lon="14.95435">
				<ele>332.53</ele>
				<time>2025-07-29T01:29:25.508Z</time>
			</trkpt>
			<trkpt lat="48.15879" lon="14.9549">
				<ele>328.19</ele>
				<time>2025-07-29T01:29:28.846Z</time>
			</trkpt>
			<trkpt lat="48.159" lon="14.95525">
				<ele>324.02</ele>
				<time>2025-07-29T01:29:30.695Z</time>
			</trkpt>
			<trkpt lat="48.15927" lon="14.95579">
				<ele>319.74</ele>
				<time>2025-07-29T01:29:33.340Z</time>
			</trkpt>
			<trkpt lat="48.15944" lon="14.95601">
				<ele>319.34</ele>
				<time>2025-07-29T01:29:34.657Z</time>
			</trkpt>
			<trkpt lat="48.15976" lon="14.95632">
				<ele>321.52</ele>
				<time>2025-07-29T01:29:36.888Z</time>
			</trkpt>
			<trkpt lat="48.16027" lon="14.95664">
				<ele>322.92</ele>
				<time>2025-07-29T01:29:40.116Z</time>
			</trkpt>
			<trkpt lat="48.16047" lon="14.95671">
				<ele>321.36</ele>
				<time>2025-07-29T01:29:41.313Z</time>
			</trkpt>
			<trkpt lat="48.16059" lon="14.95673">
				<ele>320.18</ele>
				<time>2025-07-29T01:29:42.016Z</time>
			</trkpt>
			<trkpt lat="48.16098" lon="14.9567">
				<ele>315.28</ele>
				<time>2025-07-29T01:29:44.286Z</time>
			</trkpt>
			<trkpt lat="48.16117" lon="14.9567">
				<ele>313.64</ele>
				<time>2025-07-29T01:29:45.390Z</time>
			</trkpt>
			<trkpt lat="48.16135" lon="14.95681">
				<ele>313.05</ele>
				<time>2025-07-29T01:29:46.517Z</time>
			</trkpt>
			<trkpt lat="48.16149" lon="14.95698">
				<ele>313.5</ele>
				<time>2025-07-29T01:29:47.562Z</time>
			</trkpt>
			<trkpt lat="48.16164" lon="14.95727">
				<ele>313.59</ele>
				<time>2025-07-29T01:29:48.979Z</time>
			</trkpt>
			<trkpt lat="48.16181" lon="14.95775">
				<ele>313.12</ele>
				<time>2025-07-29T01:29:51.076Z</time>
			</trkpt>
			<trkpt lat="48.16185" lon="14.95804">
				<ele>312.7</ele>
				<time>2025-07-29T01:29:52.217Z</time>
			</trkpt>
			<trkpt lat="48.16186" lon="14.95851">
				<ele>312.45</ele>
				<time>2025-07-29T01:29:54.027Z</time>
			</trkpt>
			<trkpt lat="48.16183" lon="14.95891">
				<ele>312.86</ele>
				<time>2025-07-29T01:29:55.575Z</time>
			</trkpt>
			<trkpt lat="48.16167" lon="14.96008">
				<ele>315.42</ele>
				<time>2025-07-29T01:30:00.159Z</time>
			</trkpt>
			<trkpt lat="48.16168" lon="14.96033">
				<ele>316.41</ele>
				<time>2025-07-29T01:30:01.118Z</time>
			</trkpt>
			<trkpt lat="48.16173" lon="14.96052">
				<ele>317.89</ele>
				<time>2025-07-29T01:30:01.901Z</time>
			</trkpt>
			<trkpt lat="48.16178" lon="14.96063">
				<ele>319.34</ele>
				<time>2025-07-29T01:30:02.410Z</time>
			</trkpt>
			<trkpt lat="48.16189" lon="14.96079">
				<ele>322.74</ele>
				<time>2025-07-29T01:30:03.290Z</time>
			</trkpt>
			<trkpt lat="48.16203" lon="14.96089">
				<ele>326.48</ele>
				<time>2025-07-29T01:30:04.179Z</time>
			</trkpt>
			<trkpt lat="48.16224" lon="14.96094">
				<ele>331.38</ele>
				<time>2025-07-29T01:30:05.398Z</time>
			</trkpt>
			<trkpt lat="48.16296" lon="14.96097">
				<ele>337.28</ele>
				<time>2025-07-29T01:30:09.522Z</time>
			</trkpt>
			<trkpt lat="48.16344" lon="14.96097">
				<ele>340.89</ele>
				<time>2025-07-29T01:30:12.267Z</time>
			</trkpt>
			<trkpt lat="48.16391" lon="14.96092">
				<ele>347.51</ele>
				<time>2025-07-29T01:30:14.958Z</time>
			</trkpt>
			<trkpt lat="48.16426" lon="14.96093">
				<ele>349.87</ele>
				<time>2025-07-29T01:30:16.957Z</time>
			</trkpt>
			<trkpt lat="48.16469" lon="14.96099">
				<ele>351.98</ele>
				<time>2025-07-29T01:30:19.421Z</time>
			</trkpt>
			<trkpt lat="48.16517" lon="14.96112">
				<ele>355.14</ele>
				<time>2025-07-29T01:30:22.203Z</time>
			</trkpt>
			<trkpt lat="48.16545" lon="14.96124">
				<ele>356.66</ele>
				<time>2025-07-29T01:30:23.863Z</time>
			</trkpt>
			<trkpt lat="48.16571" lon="14.96141">
				<ele>357.6</ele>
				<time>2025-07-29T01:30:25.480Z</time>
			</trkpt>
			<trkpt lat="48.16579" lon="14.96151">
				<ele>358.27</ele>
				<time>2025-07-29T01:30:26.073Z</time>
			</trkpt>
			<trkpt lat="48.16589" lon="14.96175">
				<ele>359.95</ele>
				<time>2025-07-29T01:30:27.149Z</time>
			</trkpt>
			<trkpt lat="48.16578" lon="14.96196">
				<ele>361.78</ele>
				<time>2025-07-29T01:30:28.164Z</time>
			</trkpt>
			<trkpt lat="48.16547" lon="14.96248">
				<ele>363</ele>
				<time>2025-07-29T01:30:30.814Z</time>
			</trkpt>
			<trkpt lat="48.16529" lon="14.96284">
				<ele>366.34</ele>
				<time>2025-07-29T01:30:32.524Z</time>
			</trkpt>
			<trkpt lat="48.16523" lon="14.963">
				<ele>368.87</ele>
				<time>2025-07-29T01:30:33.222Z</time>
			</trkpt>
			<trkpt lat="48.16519" lon="14.96319">
				<ele>371.81</ele>
				<time>2025-07-29T01:30:33.979Z</time>
			</trkpt>
			<trkpt lat="48.16506" lon="14.964">
				<ele>378.82</ele>
				<time>2025-07-29T01:30:37.147Z</time>
			</trkpt>
			<trkpt lat="48.16502" lon="14.96452">
				<ele>379.67</ele>
				<time>2025-07-29T01:30:39.137Z</time>
			</trkpt>
			<trkpt lat="48.16503" lon="14.96504">
				<ele>382.75</ele>
				<time>2025-07-29T01:30:41.116Z</time>
			</trkpt>
			<trkpt lat="48.1651" lon="14.96638">
				<ele>389.76</ele>
				<time>2025-07-29T01:30:46.234Z</time>
			</trkpt>
			<trkpt lat="48.1652" lon="14.96745">
				<ele>393.96</ele>
				<time>2025-07-29T01:30:50.353Z</time>
			</trkpt>
			<trkpt lat="48.16554" lon="14.96998">
				<ele>397.92</ele>
				<time>2025-07-29T01:31:00.221Z</time>
			</trkpt>
			<trkpt lat="48.16554" lon="14.97019">
				<ele>399.4</ele>
				<time>2025-07-29T01:31:01.026Z</time>
			</trkpt>
			<trkpt lat="48.16552" lon="14.97027">
				<ele>399.94</ele>
				<time>2025-07-29T01:31:01.354Z</time>
			</trkpt>
			<trkpt lat="48.16561" lon="14.97038">
				<ele>400.58</ele>
				<time>2025-07-29T01:31:02.021Z</time>
			</trkpt>
			<trkpt lat="48.16585" lon="14.97087">
				<ele>404.51</ele>
				<time>2025-07-29T01:31:04.347Z</time>
			</trkpt>
			<trkpt lat="48.16608" lon="14.97125">
				<ele>409.1</ele>
				<time>2025-07-29T01:31:06.298Z</time>
			</trkpt>
			<trkpt lat="48.16651" lon="14.97185">
				<ele>411.09</ele>
				<time>2025-07-29T01:31:09.625Z</time>
			</trkpt>
			<trkpt lat="48.16721" lon="14.97337">
				<ele>405.15</ele>
				<time>2025-07-29T01:31:16.568Z</time>
			</trkpt>
			<trkpt lat="48.16731" lon="14.97352">
				<ele>405.37</ele>
				<time>2025-07-29T01:31:17.366Z</time>
			</trkpt>
			<trkpt lat="48.16747" lon="14.97371">
				<ele>405.44</ele>
				<time>2025-07-29T01:31:18.519Z</time>
			</trkpt>
			<trkpt lat="48.16765" lon="14.97385">
				<ele>407.55</ele>
				<time>2025-07-29T01:31:19.667Z</time>
			</trkpt>
			<trkpt lat="48.16875" lon="14.97451">
				<ele>414.1</ele>
				<time>2025-07-29T01:31:26.443Z</time>
			</trkpt>
			<trkpt lat="48.1706" lon="14.97578">
				<ele>419.15</ele>
				<time>2025-07-29T01:31:38.579Z</time>
			</trkpt>
			<trkpt lat="48.17088" lon="14.97602">
				<ele>420.98</ele>
				<time>2025-07-29T01:31:40.569Z</time>
			</trkpt>
			<trkpt lat="48.17118" lon="14.97635">
				<ele>423.24</ele>
				<time>2025-07-29T01:31:42.879Z</time>
			</trkpt>
			<trkpt lat="48.17202" lon="14.97728">
				<ele>417.48</ele>
				<time>2025-07-29T01:31:49.442Z</time>
			</trkpt>
			<trkpt lat="48.1722" lon="14.97744">
				<ele>410.98</ele>
				<time>2025-07-29T01:31:50.770Z</time>
			</trkpt>
			<trkpt lat="48.17242" lon="14.97756">
				<ele>405.33</ele>
				<time>2025-07-29T01:31:52.262Z</time>
			</trkpt>
			<trkpt lat="48.17263" lon="14.97753">
				<ele>403.23</ele>
				<time>2025-07-29T01:31:53.611Z</time>
			</trkpt>
			<trkpt lat="48.17388" lon="14.97764">
				<ele>396.46</ele>
				<time>2025-07-29T01:32:01.705Z</time>
			</trkpt>
			<trkpt lat="48.1742" lon="14.97771">
				<ele>395.11</ele>
				<time>2025-07-29T01:32:03.819Z</time>
			</trkpt>
			<trkpt lat="48.17449" lon="14.97787">
				<ele>393.4</ele>
				<time>2025-07-29T01:32:05.848Z</time>
			</trkpt>
			<trkpt lat="48.17503" lon="14.97835">
				<ele>387.75</ele>
				<time>2025-07-29T01:32:09.993Z</time>
			</trkpt>
			<trkpt lat="48.17522" lon="14.97846">
				<ele>386.76</ele>
				<time>2025-07-29T01:32:11.345Z</time>
			</trkpt>
			<trkpt lat="48.1754" lon="14.97849">
				<ele>387.22</ele>
				<time>2025-07-29T01:32:12.550Z</time>
			</trkpt>
			<trkpt lat="48.17544" lon="14.97849">
				<ele>387.4</ele>
				<time>2025-07-29T01:32:12.817Z</time>
			</trkpt>
			<trkpt lat="48.17559" lon="14.97839">
				<ele>388.28</ele>
				<time>2025-07-29T01:32:13.912Z</time>
			</trkpt>
			<trkpt lat="48.17567" lon="14.9783">
				<ele>388.92</ele>
				<time>2025-07-29T01:32:14.580Z</time>
			</trkpt>
			<trkpt lat="48.17586" lon="14.97805">
				<ele>389.99</ele>
				<time>2025-07-29T01:32:16.272Z</time>
			</trkpt>
			<trkpt lat="48.17619" lon="14.97754">
				<ele>389.35</ele>
				<time>2025-07-29T01:32:19.458Z</time>
			</trkpt>
			<trkpt lat="48.17647" lon="14.97708">
				<ele>390.29</ele>
				<time>2025-07-29T01:32:22.263Z</time>
			</trkpt>
			<trkpt lat="48.17706" lon="14.97592">
				<ele>390.56</ele>
				<time>2025-07-29T01:32:28.881Z</time>
			</trkpt>
			<trkpt lat="48.1774" lon="14.97545">
				<ele>387.34</ele>
				<time>2025-07-29T01:32:32.048Z</time>
			</trkpt>
			<trkpt lat="48.17769" lon="14.97514">
				<ele>387.04</ele>
				<time>2025-07-29T01:32:34.495Z</time>
			</trkpt>
			<trkpt lat="48.17792" lon="14.97495">
				<ele>386.74</ele>
				<time>2025-07-29T01:32:36.305Z</time>
			</trkpt>
			<trkpt lat="48.17804" lon="14.97487">
				<ele>386.14</ele>
				<time>2025-07-29T01:32:37.212Z</time>
			</trkpt>
			<trkpt lat="48.17832" lon="14.97482">
				<ele>381.27</ele>
				<time>2025-07-29T01:32:39.161Z</time>
			</trkpt>
			<trkpt lat="48.17855" lon="14.97486">
				<ele>375.86</ele>
				<time>2025-07-29T01:32:40.765Z</time>
			</trkpt>
			<trkpt lat="48.17908" lon="14.97517">
				<ele>368.02</ele>
				<time>2025-07-29T01:32:44.719Z</time>
			</trkpt>
			<trkpt lat="48.1795" lon="14.97546">
				<ele>365.03</ele>
				<time>2025-07-29T01:32:47.943Z</time>
			</trkpt>
			<trkpt lat="48.17969" lon="14.97563">
				<ele>364.67</ele>
				<time>2025-07-29T01:32:49.490Z</time>
			</trkpt>
			<trkpt lat="48.18003" lon="14.97603">
				<ele>363.88</ele>
				<time>2025-07-29T01:32:52.517Z</time>
			</trkpt>
			<trkpt lat="48.18045" lon="14.97658">
				<ele>360.95</ele>
				<time>2025-07-29T01:32:56.434Z</time>
			</trkpt>
			<trkpt lat="48.18071" lon="14.97696">
				<ele>356.62</ele>
				<time>2025-07-29T01:32:58.991Z</time>
			</trkpt>
			<trkpt lat="48.18081" lon="14.97714">
				<ele>353.88</ele>
				<time>2025-07-29T01:33:00.092Z</time>
			</trkpt>
			<trkpt lat="48.18102" lon="14.97761">
				<ele>356.13</ele>
				<time>2025-07-29T01:33:02.756Z</time>
			</trkpt>
			<trkpt lat="48.18127" lon="14.97799">
				<ele>360.52</ele>
				<time>2025-07-29T01:33:05.274Z</time>
			</trkpt>
			<trkpt lat="48.18135" lon="14.97815">
				<ele>360.72</ele>
				<time>2025-07-29T01:33:06.218Z</time>
			</trkpt>
			<trkpt lat="48.18153" lon="14.97862">
				<ele>358.45</ele>
				<time>2025-07-29T01:33:08.780Z</time>
			</trkpt>
			<trkpt lat="48.18167" lon="14.97903">
				<ele>357.03</ele>
				<time>2025-07-29T01:33:10.960Z</time>
			</trkpt>
			<trkpt lat="48.18177" lon="14.97919">
				<ele>358.15</ele>
				<time>2025-07-29T01:33:11.998Z</time>
			</trkpt>
			<trkpt lat="48.18189" lon="14.97928">
				<ele>359</ele>
				<time>2025-07-29T01:33:12.952Z</time>
			</trkpt>
			<trkpt lat="48.18203" lon="14.97928">
				<ele>358.99</ele>
				<time>2025-07-29T01:33:13.947Z</time>
			</trkpt>
			<trkpt lat="48.18265" lon="14.97892">
				<ele>357.81</ele>
				<time>2025-07-29T01:33:18.679Z</time>
			</trkpt>
			<trkpt lat="48.18288" lon="14.97883">
				<ele>355.55</ele>
				<time>2025-07-29T01:33:20.373Z</time>
			</trkpt>
			<trkpt lat="48.18312" lon="14.97882">
				<ele>353.53</ele>
				<time>2025-07-29T01:33:22.085Z</time>
			</trkpt>
			<trkpt lat="48.18356" lon="14.97892">
				<ele>352.77</ele>
				<time>2025-07-29T01:33:25.260Z</time>
			</trkpt>
			<trkpt lat="48.1838" lon="14.97889">
				<ele>351.41</ele>
				<time>2025-07-29T01:33:26.979Z</time>
			</trkpt>
			<trkpt lat="48.18388" lon="14.97885">
				<ele>350.65</ele>
				<time>2025-07-29T01:33:27.582Z</time>
			</trkpt>
			<trkpt lat="48.18395" lon="14.97879">
				<ele>349.8</ele>
				<time>2025-07-29T01:33:28.157Z</time>
			</trkpt>
			<trkpt lat="48.18412" lon="14.97858">
				<ele>346.05</ele>
				<time>2025-07-29T01:33:29.731Z</time>
			</trkpt>
			<trkpt lat="48.18435" lon="14.97823">
				<ele>341.09</ele>
				<time>2025-07-29T01:33:32.072Z</time>
			</trkpt>
			<trkpt lat="48.18448" lon="14.97812">
				<ele>339.23</ele>
				<time>2025-07-29T01:33:33.139Z</time>
			</trkpt>
			<trkpt lat="48.1848" lon="14.97797">
				<ele>335.6</ele>
				<time>2025-07-29T01:33:35.535Z</time>
			</trkpt>
			<trkpt lat="48.18545" lon="14.97775">
				<ele>332.15</ele>
				<time>2025-07-29T01:33:40.299Z</time>
			</trkpt>
			<trkpt lat="48.18564" lon="14.97775">
				<ele>333.46</ele>
				<time>2025-07-29T01:33:41.657Z</time>
			</trkpt>
			<trkpt lat="48.18573" lon="14.97779">
				<ele>333.71</ele>
				<time>2025-07-29T01:33:42.328Z</time>
			</trkpt>
			<trkpt lat="48.18593" lon="14.97801">
				<ele>331.7</ele>
				<time>2025-07-29T01:33:44.101Z</time>
			</trkpt>
			<trkpt lat="48.18603" lon="14.97813">
				<ele>330.34</ele>
				<time>2025-07-29T01:33:45.016Z</time>
			</trkpt>
			<trkpt lat="48.18635" lon="14.97861">
				<ele>326.1</ele>
				<time>2025-07-29T01:33:48.250Z</time>
			</trkpt>
			<trkpt lat="48.18649" lon="14.97876">
				<ele>324.13</ele>
				<time>2025-07-29T01:33:49.479Z</time>
			</trkpt>
			<trkpt lat="48.18659" lon="14.97882">
				<ele>322.56</ele>
				<time>2025-07-29T01:33:50.248Z</time>
			</trkpt>
			<trkpt lat="48.18677" lon="14.97886">
				<ele>318.35</ele>
				<time>2025-07-29T01:33:51.547Z</time>
			</trkpt>
			<trkpt lat="48.18695" lon="14.97883">
				<ele>313.95</ele>
				<time>2025-07-29T01:33:52.840Z</time>
			</trkpt>
			<trkpt lat="48.18762" lon="14.97854">
				<ele>311.39</ele>
				<time>2025-07-29T01:33:57.813Z</time>
			</trkpt>
			<trkpt lat="48.18787" lon="14.97849">
				<ele>307.81</ele>
				<time>2025-07-29T01:33:59.609Z</time>
			</trkpt>
			<trkpt lat="48.18809" lon="14.97848">
				<ele>306.15</ele>
				<time>2025-07-29T01:34:01.176Z</time>
			</trkpt>
			<trkpt lat="48.18857" lon="14.97857">
				<ele>304.63</ele>
				<time>2025-07-29T01:34:04.616Z</time>
			</trkpt>
			<trkpt lat="48.18922" lon="14.97876">
				<ele>298.72</ele>
				<time>2025-07-29T01:34:09.317Z</time>
			</trkpt>
			<trkpt lat="48.18944" lon="14.97885">
				<ele>301.02</ele>
				<time>2025-07-29T01:34:10.933Z</time>
			</trkpt>
			<trkpt lat="48.18984" lon="14.97925">
				<ele>297.48</ele>
				<time>2025-07-29T01:34:14.335Z</time>
			</trkpt>
			<trkpt lat="48.18991" lon="14.97929">
				<ele>295.34</ele>
				<time>2025-07-29T01:34:14.864Z</time>
			</trkpt>
			<trkpt lat="48.19007" lon="14.9793">
				<ele>291.57</ele>
				<time>2025-07-29T01:34:15.995Z</time>
			</trkpt>
			<trkpt lat="48.19044" lon="14.97919">
				<ele>286.9</ele>
				<time>2025-07-29T01:34:18.656Z</time>
			</trkpt>
			<trkpt lat="48.19058" lon="14.97918">
				<ele>286.23</ele>
				<time>2025-07-29T01:34:19.643Z</time>
			</trkpt>
			<trkpt lat="48.19067" lon="14.9792">
				<ele>286.43</ele>
				<time>2025-07-29T01:34:20.284Z</time>
			</trkpt>
			<trkpt lat="48.1911" lon="14.97945">
				<ele>283.53</ele>
				<time>2025-07-29T01:34:23.526Z</time>
			</trkpt>
			<trkpt lat="48.19149" lon="14.97955">
				<ele>281.73</ele>
				<time>2025-07-29T01:34:26.300Z</time>
			</trkpt>
			<trkpt lat="48.19171" lon="14.97956">
				<ele>278.09</ele>
				<time>2025-07-29T01:34:27.841Z</time>
			</trkpt>
			<trkpt lat="48.19253" lon="14.97934">
				<ele>269.51</ele>
				<time>2025-07-29T01:34:33.651Z</time>
			</trkpt>
			<trkpt lat="48.19268" lon="14.97937">
				<ele>266.92</ele>
				<time>2025-07-29T01:34:34.703Z</time>
			</trkpt>
			<trkpt lat="48.19306" lon="14.97959">
				<ele>259.97</ele>
				<time>2025-07-29T01:34:37.528Z</time>
			</trkpt>
			<trkpt lat="48.19328" lon="14.97964">
				<ele>259.54</ele>
				<time>2025-07-29T01:34:39.068Z</time>
			</trkpt>
			<trkpt lat="48.19353" lon="14.97962">
				<ele>256.84</ele>
				<time>2025-07-29T01:34:40.797Z</time>
			</trkpt>
			<trkpt lat="48.19399" lon="14.97951">
				<ele>249.99</ele>
				<time>2025-07-29T01:34:44.005Z</time>
			</trkpt>
			<trkpt lat="48.1942" lon="14.9795">
				<ele>246.79</ele>
				<time>2025-07-29T01:34:45.448Z</time>
			</trkpt>
			<trkpt lat="48.19442" lon="14.97953">
				<ele>242.45</ele>
				<time>2025-07-29T01:34:46.962Z</time>
			</trkpt>
			<trkpt lat="48.19488" lon="14.97967">
				<ele>231.8</ele>
				<time>2025-07-29T01:34:50.168Z</time>
			</trkpt>
			<trkpt lat="48.19544" lon="14.97969">
				<ele>227</ele>
				<time>2025-07-29T01:34:53.976Z</time>
			</trkpt>
			<trkpt lat="48.19527" lon="14.9809">
				<ele>231.56</ele>
				<time>2025-07-29T01:34:59.540Z</time>
			</trkpt>
			<trkpt lat="48.19489" lon="14.98298">
				<ele>252.46</ele>
				<time>2025-07-29T01:35:09.121Z</time>
			</trkpt>
			<trkpt lat="48.19483" lon="14.9834">
				<ele>242.04</ele>
				<time>2025-07-29T01:35:11.009Z</time>
			</trkpt>
			<trkpt lat="48.19473" lon="14.98446">
				<ele>252.74</ele>
				<time>2025-07-29T01:35:15.684Z</time>
			</trkpt>
			<trkpt lat="48.19465" lon="14.98605">
				<ele>239.92</ele>
				<time>2025-07-29T01:35:22.562Z</time>
			</trkpt>
			<trkpt lat="48.19456" lon="14.9871">
				<ele>240.03</ele>
				<time>2025-07-29T01:35:27.069Z</time>
			</trkpt>
			<trkpt lat="48.19447" lon="14.98785">
				<ele>245.98</ele>
				<time>2025-07-29T01:35:30.281Z</time>
			</trkpt>
			<trkpt lat="48.19413" lon="14.99017">
				<ele>252.91</ele>
				<time>2025-07-29T01:35:40.142Z</time>
			</trkpt>
			<trkpt lat="48.194" lon="14.99139">
				<ele>242.78</ele>
				<time>2025-07-29T01:35:45.219Z</time>
			</trkpt>
			<trkpt lat="48.19391" lon="14.99264">
				<ele>236.49</ele>
				<time>2025-07-29T01:35:50.358Z</time>
			</trkpt>
			<trkpt lat="48.19386" lon="14.99363">
				<ele>231.93</ele>
				<time>2025-07-29T01:35:54.396Z</time>
			</trkpt>
			<trkpt lat="48.19383" lon="14.99466">
				<ele>258.1</ele>
				<time>2025-07-29T01:35:58.571Z</time>
			</trkpt>
			<trkpt lat="48.19381" lon="14.99644">
				<ele>263.25</ele>
				<time>2025-07-29T01:36:05.739Z</time>
			</trkpt>
			<trkpt lat="48.19381" lon="14.99892">
				<ele>258.58</ele>
				<time>2025-07-29T01:36:15.638Z</time>
			</trkpt>
			<trkpt lat="48.19375" lon="14.99995">
				<ele>250.09</ele>
				<time>2025-07-29T01:36:19.736Z</time>
			</trkpt>
			<trkpt lat="48.19366" lon="15.0009">
				<ele>236.68</ele>
				<time>2025-07-29T01:36:23.525Z</time>
			</trkpt>
			<trkpt lat="48.1936" lon="15.00136">
				<ele>231.55</ele>
				<time>2025-07-29T01:36:25.371Z</time>
			</trkpt>
			<trkpt lat="48.19337" lon="15.00274">
				<ele>237.28</ele>
				<time>2025-07-29T01:36:30.953Z</time>
			</trkpt>
			<trkpt lat="48.19316" lon="15.00391">
				<ele>232.52</ele>
				<time>2025-07-29T01:36:35.685Z</time>
			</trkpt>
			<trkpt lat="48.19302" lon="15.00461">
				<ele>229.4</ele>
				<time>2025-07-29T01:36:38.529Z</time>
			</trkpt>
			<trkpt lat="48.19273" lon="15.00581">
				<ele>230.11</ele>
				<time>2025-07-29T01:36:43.480Z</time>
			</trkpt>
			<trkpt lat="48.19248" lon="15.00703">
				<ele>227.39</ele>
				<time>2025-07-29T01:36:48.408Z</time>
			</trkpt>
			<trkpt lat="48.19207" lon="15.00954">
				<ele>237.82</ele>
				<time>2025-07-29T01:36:58.325Z</time>
			</trkpt>
			<trkpt lat="48.19171" lon="15.01107">
				<ele>235.1</ele>
				<time>2025-07-29T01:37:04.509Z</time>
			</trkpt>
			<trkpt lat="48.19162" lon="15.01163">
				<ele>232.6</ele>
				<time>2025-07-29T01:37:06.698Z</time>
			</trkpt>
			<trkpt lat="48.19157" lon="15.01209">
				<ele>229.36</ele>
				<time>2025-07-29T01:37:08.466Z</time>
			</trkpt>
			<trkpt lat="48.19148" lon="15.01317">
				<ele>227.39</ele>
				<time>2025-07-29T01:37:12.586Z</time>
			</trkpt>
			<trkpt lat="48.1914" lon="15.01433">
				<ele>235.64</ele>
				<time>2025-07-29T01:37:16.986Z</time>
			</trkpt>
			<trkpt lat="48.19132" lon="15.01611">
				<ele>238.17</ele>
				<time>2025-07-29T01:37:23.690Z</time>
			</trkpt>
			<trkpt lat="48.19129" lon="15.01688">
				<ele>237.74</ele>
				<time>2025-07-29T01:37:26.578Z</time>
			</trkpt>
			<trkpt lat="48.19127" lon="15.0189">
				<ele>229.06</ele>
				<time>2025-07-29T01:37:34.119Z</time>
			</trkpt>
			<trkpt lat="48.19131" lon="15.01998">
				<ele>230.55</ele>
				<time>2025-07-29T01:37:38.141Z</time>
			</trkpt>
			<trkpt lat="48.19135" lon="15.0205">
				<ele>233</ele>
				<time>2025-07-29T01:37:40.084Z</time>
			</trkpt>
			<trkpt lat="48.19141" lon="15.02111">
				<ele>240.76</ele>
				<time>2025-07-29T01:37:42.369Z</time>
			</trkpt>
			<trkpt lat="48.19156" lon="15.02211">
				<ele>244.76</ele>
				<time>2025-07-29T01:37:46.162Z</time>
			</trkpt>
			<trkpt lat="48.19172" lon="15.02295">
				<ele>244.81</ele>
				<time>2025-07-29T01:37:49.389Z</time>
			</trkpt>
			<trkpt lat="48.19181" lon="15.02334">
				<ele>238.65</ele>
				<time>2025-07-29T01:37:50.911Z</time>
			</trkpt>
			<trkpt lat="48.19224" lon="15.02489">
				<ele>241.56</ele>
				<time>2025-07-29T01:37:57.090Z</time>
			</trkpt>
			<trkpt lat="48.19238" lon="15.02547">
				<ele>238.19</ele>
				<time>2025-07-29T01:37:59.356Z</time>
			</trkpt>
			<trkpt lat="48.19255" lon="15.02638">
				<ele>232.83</ele>
				<time>2025-07-29T01:38:02.822Z</time>
			</trkpt>
			<trkpt lat="48.19279" lon="15.02787">
				<ele>232.03</ele>
				<time>2025-07-29T01:38:08.433Z</time>
			</trkpt>
			<trkpt lat="48.19304" lon="15.02961">
				<ele>232.16</ele>
				<time>2025-07-29T01:38:14.931Z</time>
			</trkpt>
			<trkpt lat="48.19327" lon="15.03146">
				<ele>247.49</ele>
				<time>2025-07-29T01:38:21.783Z</time>
			</trkpt>
			<trkpt lat="48.19357" lon="15.034">
				<ele>231.33</ele>
				<time>2025-07-29T01:38:31.151Z</time>
			</trkpt>
			<trkpt lat="48.19366" lon="15.03459">
				<ele>231.19</ele>
				<time>2025-07-29T01:38:33.345Z</time>
			</trkpt>
			<trkpt lat="48.19383" lon="15.03552">
				<ele>230.51</ele>
				<time>2025-07-29T01:38:36.839Z</time>
			</trkpt>
			<trkpt lat="48.194" lon="15.0363">
				<ele>235.83</ele>
				<time>2025-07-29T01:38:39.809Z</time>
			</trkpt>
			<trkpt lat="48.19423" lon="15.0372">
				<ele>244.41</ele>
				<time>2025-07-29T01:38:43.296Z</time>
			</trkpt>
			<trkpt lat="48.19519" lon="15.04044">
				<ele>241.67</ele>
				<time>2025-07-29T01:38:56.103Z</time>
			</trkpt>
			<trkpt lat="48.19537" lon="15.04131">
				<ele>254.78</ele>
				<time>2025-07-29T01:38:59.390Z</time>
			</trkpt>
			<trkpt lat="48.19547" lon="15.04224">
				<ele>255.92</ele>
				<time>2025-07-29T01:39:02.788Z</time>
			</trkpt>
			<trkpt lat="48.19549" lon="15.04284">
				<ele>254.25</ele>
				<time>2025-07-29T01:39:04.955Z</time>
			</trkpt>
			<trkpt lat="48.19547" lon="15.04366">
				<ele>252.84</ele>
				<time>2025-07-29T01:39:07.914Z</time>
			</trkpt>
			<trkpt lat="48.1954" lon="15.0452">
				<ele>242.09</ele>
				<time>2025-07-29T01:39:13.480Z</time>
			</trkpt>
			<trkpt lat="48.19525" lon="15.04731">
				<ele>242.38</ele>
				<time>2025-07-29T01:39:21.133Z</time>
			</trkpt>
			<trkpt lat="48.19502" lon="15.04987">
				<ele>224.58</ele>
				<time>2025-07-29T01:39:30.456Z</time>
			</trkpt>
			<trkpt lat="48.19493" lon="15.05086">
				<ele>226</ele>
				<time>2025-07-29T01:39:34.064Z</time>
			</trkpt>
			<trkpt lat="48.19487" lon="15.05118">
				<ele>225.84</ele>
				<time>2025-07-29T01:39:35.266Z</time>
			</trkpt>
			<trkpt lat="48.19476" lon="15.05157">
				<ele>225.28</ele>
				<time>2025-07-29T01:39:36.796Z</time>
			</trkpt>
			<trkpt lat="48.19469" lon="15.05174">
				<ele>225.62</ele>
				<time>2025-07-29T01:39:37.518Z</time>
			</trkpt>
			<trkpt lat="48.19453" lon="15.05205">
				<ele>226.46</ele>
				<time>2025-07-29T01:39:38.936Z</time>
			</trkpt>
			<trkpt lat="48.19438" lon="15.05229">
				<ele>226.57</ele>
				<time>2025-07-29T01:39:40.125Z</time>
			</trkpt>
			<trkpt lat="48.19396" lon="15.05276">
				<ele>227.75</ele>
				<time>2025-07-29T01:39:42.969Z</time>
			</trkpt>
			<trkpt lat="48.19367" lon="15.05316">
				<ele>227.41</ele>
				<time>2025-07-29T01:39:45.109Z</time>
			</trkpt>
			<trkpt lat="48.1935" lon="15.0535">
				<ele>230.33</ele>
				<time>2025-07-29T01:39:46.648Z</time>
			</trkpt>
			<trkpt lat="48.19303" lon="15.05475">
				<ele>233.45</ele>
				<time>2025-07-29T01:39:51.850Z</time>
			</trkpt>
			<trkpt lat="48.1927" lon="15.0555">
				<ele>235.21</ele>
				<time>2025-07-29T01:39:55.111Z</time>
			</trkpt>
			<trkpt lat="48.19244" lon="15.05616">
				<ele>232.9</ele>
				<time>2025-07-29T01:39:57.895Z</time>
			</trkpt>
			<trkpt lat="48.19225" lon="15.05673">
				<ele>229.47</ele>
				<time>2025-07-29T01:40:00.212Z</time>
			</trkpt>
			<trkpt lat="48.192" lon="15.05758">
				<ele>232.67</ele>
				<time>2025-07-29T01:40:03.593Z</time>
			</trkpt>
			<trkpt lat="48.19155" lon="15.0593">
				<ele>234.21</ele>
				<time>2025-07-29T01:40:10.329Z</time>
			</trkpt>
			<trkpt lat="48.1914" lon="15.05971">
				<ele>231.87</ele>
				<time>2025-07-29T01:40:12.037Z</time>
			</trkpt>
			<trkpt lat="48.19127" lon="15.05998">
				<ele>231.36</ele>
				<time>2025-07-29T01:40:13.254Z</time>
			</trkpt>
			<trkpt lat="48.19113" lon="15.0602">
				<ele>230.8</ele>
				<time>2025-07-29T01:40:14.366Z</time>
			</trkpt>
			<trkpt lat="48.19097" lon="15.06039">
				<ele>232.28</ele>
				<time>2025-07-29T01:40:15.486Z</time>
			</trkpt>
			<trkpt lat="48.19035" lon="15.06101">
				<ele>236.2</ele>
				<time>2025-07-29T01:40:19.579Z</time>
			</trkpt>
			<trkpt lat="48.19022" lon="15.06118">
				<ele>236.15</ele>
				<time>2025-07-29T01:40:20.527Z</time>
			</trkpt>
			<trkpt lat="48.19002" lon="15.06151">
				<ele>234.92</ele>
				<time>2025-07-29T01:40:22.163Z</time>
			</trkpt>
			<trkpt lat="48.18993" lon="15.06171">
				<ele>235.13</ele>
				<time>2025-07-29T01:40:23.049Z</time>
			</trkpt>
			<trkpt lat="48.18981" lon="15.06208">
				<ele>236.95</ele>
				<time>2025-07-29T01:40:24.560Z</time>
			</trkpt>
			<trkpt lat="48.18957" lon="15.06317">
				<ele>240.29</ele>
				<time>2025-07-29T01:40:28.782Z</time>
			</trkpt>
			<trkpt lat="48.18937" lon="15.06365">
				<ele>237.8</ele>
				<time>2025-07-29T01:40:30.868Z</time>
			</trkpt>
			<trkpt lat="48.1889" lon="15.06459">
				<ele>237.14</ele>
				<time>2025-07-29T01:40:35.204Z</time>
			</trkpt>
			<trkpt lat="48.18863" lon="15.06519">
				<ele>237.37</ele>
				<time>2025-07-29T01:40:37.881Z</time>
			</trkpt>
			<trkpt lat="48.18844" lon="15.06564">
				<ele>241.98</ele>
				<time>2025-07-29T01:40:39.853Z</time>
			</trkpt>
			<trkpt lat="48.1883" lon="15.06602">
				<ele>243.73</ele>
				<time>2025-07-29T01:40:41.462Z</time>
			</trkpt>
			<trkpt lat="48.18813" lon="15.06649">
				<ele>245.83</ele>
				<time>2025-07-29T01:40:43.446Z</time>
			</trkpt>
			<trkpt lat="48.18807" lon="15.06675">
				<ele>243.1</ele>
				<time>2025-07-29T01:40:44.468Z</time>
			</trkpt>
			<trkpt lat="48.18806" lon="15.06693">
				<ele>239.99</ele>
				<time>2025-07-29T01:40:45.139Z</time>
			</trkpt>
			<trkpt lat="48.18807" lon="15.06713">
				<ele>237.27</ele>
				<time>2025-07-29T01:40:45.885Z</time>
			</trkpt>
			<trkpt lat="48.18819" lon="15.06711">
				<ele>237.08</ele>
				<time>2025-07-29T01:40:46.558Z</time>
			</trkpt>
			<trkpt lat="48.18833" lon="15.06714">
				<ele>236.71</ele>
				<time>2025-07-29T01:40:47.348Z</time>
			</trkpt>
			<trkpt lat="48.18847" lon="15.06723">
				<ele>237</ele>
				<time>2025-07-29T01:40:48.198Z</time>
			</trkpt>
			<trkpt lat="48.18859" lon="15.06738">
				<ele>237</ele>
				<time>2025-07-29T01:40:49.071Z</time>
			</trkpt>
			<trkpt lat="48.19004" lon="15.06973">
				<ele>235.64</ele>
				<time>2025-07-29T01:41:01.048Z</time>
			</trkpt>
			<trkpt lat="48.1919" lon="15.07277">
				<ele>233.9</ele>
				<time>2025-07-29T01:41:16.634Z</time>
			</trkpt>
			<trkpt lat="48.19195" lon="15.07284">
				<ele>235.41</ele>
				<time>2025-07-29T01:41:17.024Z</time>
			</trkpt>
			<trkpt lat="48.19197" lon="15.07294">
				<ele>236.09</ele>
				<time>2025-07-29T01:41:17.420Z</time>
			</trkpt>
			<trkpt lat="48.19197" lon="15.0731">
				<ele>237.16</ele>
				<time>2025-07-29T01:41:18.029Z</time>
			</trkpt>
			<trkpt lat="48.19192" lon="15.07332">
				<ele>237.7</ele>
				<time>2025-07-29T01:41:18.913Z</time>
			</trkpt>
			<trkpt lat="48.19189" lon="15.0734">
				<ele>236.88</ele>
				<time>2025-07-29T01:41:19.263Z</time>
			</trkpt>
			<trkpt lat="48.19133" lon="15.07431">
				<ele>234.2</ele>
				<time>2025-07-29T01:41:23.962Z</time>
			</trkpt>
			<trkpt lat="48.1912" lon="15.07455">
				<ele>234.94</ele>
				<time>2025-07-29T01:41:25.080Z</time>
			</trkpt>
			<trkpt lat="48.19116" lon="15.07454">
				<ele>234.66</ele>
				<time>2025-07-29T01:41:25.297Z</time>
			</trkpt>
			<trkpt lat="48.19107" lon="15.07458">
				<ele>234.07</ele>
				<time>2025-07-29T01:41:25.792Z</time>
			</trkpt>
			<trkpt lat="48.19099" lon="15.07467">
				<ele>233.86</ele>
				<time>2025-07-29T01:41:26.314Z</time>
			</trkpt>
			<trkpt lat="48.19097" lon="15.07476">
				<ele>234.09</ele>
				<time>2025-07-29T01:41:26.640Z</time>
			</trkpt>
			<trkpt lat="48.19097" lon="15.07493">
				<ele>234.41</ele>
				<time>2025-07-29T01:41:27.219Z</time>
			</trkpt>
			<trkpt lat="48.1907" lon="15.07537">
				<ele>238.72</ele>
				<time>2025-07-29T01:41:29.205Z</time>
			</trkpt>
			<trkpt lat="48.19044" lon="15.07601">
				<ele>246.66</ele>
				<time>2025-07-29T01:41:31.623Z</time>
			</trkpt>
			<trkpt lat="48.19026" lon="15.07633">
				<ele>247.09</ele>
				<time>2025-07-29T01:41:32.964Z</time>
			</trkpt>
			<trkpt lat="48.19004" lon="15.07656">
				<ele>245.24</ele>
				<time>2025-07-29T01:41:34.257Z</time>
			</trkpt>
			<trkpt lat="48.1898" lon="15.07671">
				<ele>241.99</ele>
				<time>2025-07-29T01:41:35.527Z</time>
			</trkpt>
			<trkpt lat="48.18948" lon="15.0769">
				<ele>236.13</ele>
				<time>2025-07-29T01:41:37.249Z</time>
			</trkpt>
			<trkpt lat="48.18931" lon="15.07703">
				<ele>233.73</ele>
				<time>2025-07-29T01:41:38.230Z</time>
			</trkpt>
			<trkpt lat="48.18915" lon="15.07724">
				<ele>234.05</ele>
				<time>2025-07-29T01:41:39.352Z</time>
			</trkpt>
			<trkpt lat="48.18895" lon="15.07765">
				<ele>235.85</ele>
				<time>2025-07-29T01:41:41.214Z</time>
			</trkpt>
			<trkpt lat="48.18835" lon="15.07934">
				<ele>231.16</ele>
				<time>2025-07-29T01:41:49.386Z</time>
			</trkpt>
			<trkpt lat="48.18781" lon="15.0809">
				<ele>231.73</ele>
				<time>2025-07-29T01:41:59.917Z</time>
			</trkpt>
			<trkpt lat="48.18771" lon="15.0813">
				<ele>229.71</ele>
				<time>2025-07-29T01:42:03.830Z</time>
			</trkpt>
			<trkpt lat="48.18762" lon="15.08174">
				<ele>229.06</ele>
				<time>2025-07-29T01:42:08.293Z</time>
			</trkpt>
			<trkpt lat="48.18756" lon="15.08224">
				<ele>228.45</ele>
				<time>2025-07-29T01:42:12.970Z</time>
			</trkpt>
			<trkpt lat="48.18752" lon="15.08285">
				<ele>228</ele>
				<time>2025-07-29T01:42:18.275Z</time>
			</trkpt>
			<trkpt lat="48.1875" lon="15.08334">
				<ele>227.97</ele>
				<time>2025-07-29T01:42:22.195Z</time>
			</trkpt>
			<trkpt lat="48.18751" lon="15.08392">
				<ele>225.87</ele>
				<time>2025-07-29T01:42:26.817Z</time>
			</trkpt>
			<trkpt lat="48.18762" lon="15.08493">
				<ele>225.54</ele>
				<time>2025-07-29T01:42:34.936Z</time>
			</trkpt>
			<trkpt lat="48.18782" lon="15.08609">
				<ele>226.16</ele>
				<time>2025-07-29T01:42:44.391Z</time>
			</trkpt>
			<trkpt lat="48.18815" lon="15.08756">
				<ele>227.13</ele>
				<time>2025-07-29T01:42:56.551Z</time>
			</trkpt>
			<trkpt lat="48.18864" lon="15.09004">
				<ele>226</ele>
				<time>2025-07-29T01:43:16.633Z</time>
			</trkpt>
			<trkpt lat="48.18911" lon="15.09284">
				<ele>224</ele>
				<time>2025-07-29T01:43:38.767Z</time>
			</trkpt>
			<trkpt lat="48.18931" lon="15.0937">
				<ele>223.81</ele>
				<time>2025-07-29T01:43:45.689Z</time>
			</trkpt>
			<trkpt lat="48.18952" lon="15.09452">
				<ele>227</ele>
				<time>2025-07-29T01:43:52.338Z</time>
			</trkpt>
			<trkpt lat="48.19041" lon="15.09776">
				<ele>224.97</ele>
				<time>2025-07-29T01:44:18.607Z</time>
			</trkpt>
			<trkpt lat="48.19056" lon="15.09841">
				<ele>227.01</ele>
				<time>2025-07-29T01:44:23.716Z</time>
			</trkpt>
			<trkpt lat="48.19067" lon="15.09909">
				<ele>227.52</ele>
				<time>2025-07-29T01:44:28.899Z</time>
			</trkpt>
			<trkpt lat="48.19078" lon="15.10021">
				<ele>227.87</ele>
				<time>2025-07-29T01:44:37.251Z</time>
			</trkpt>
			<trkpt lat="48.1909" lon="15.10111">
				<ele>223.98</ele>
				<time>2025-07-29T01:44:43.993Z</time>
			</trkpt>
			<trkpt lat="48.19104" lon="15.10176">
				<ele>223.75</ele>
				<time>2025-07-29T01:44:48.994Z</time>
			</trkpt>
			<trkpt lat="48.19117" lon="15.10218">
				<ele>223.79</ele>
				<time>2025-07-29T01:44:52.377Z</time>
			</trkpt>
			<trkpt lat="48.19133" lon="15.10259">
				<ele>221.91</ele>
				<time>2025-07-29T01:44:55.840Z</time>
			</trkpt>
			<trkpt lat="48.19157" lon="15.10307">
				<ele>221</ele>
				<time>2025-07-29T01:45:00.204Z</time>
			</trkpt>
			<trkpt lat="48.19177" lon="15.10338">
				<ele>221.51</ele>
				<time>2025-07-29T01:45:03.336Z</time>
			</trkpt>
			<trkpt lat="48.19209" lon="15.10377">
				<ele>221.74</ele>
				<time>2025-07-29T01:45:07.816Z</time>
			</trkpt>
			<trkpt lat="48.19228" lon="15.10394">
				<ele>221.83</ele>
				<time>2025-07-29T01:45:10.215Z</time>
			</trkpt>
			<trkpt lat="48.19257" lon="15.10416">
				<ele>221.99</ele>
				<time>2025-07-29T01:45:13.734Z</time>
			</trkpt>
			<trkpt lat="48.19292" lon="15.10435">
				<ele>223.36</ele>
				<time>2025-07-29T01:45:17.756Z</time>
			</trkpt>
			<trkpt lat="48.19341" lon="15.10454">
				<ele>224.37</ele>
				<time>2025-07-29T01:45:23.210Z</time>
			</trkpt>
			<trkpt lat="48.19484" lon="15.10494">
				<ele>221.42</ele>
				<time>2025-07-29T01:45:38.798Z</time>
			</trkpt>
			<trkpt lat="48.19532" lon="15.10511">
				<ele>220.7</ele>
				<time>2025-07-29T01:45:44.053Z</time>
			</trkpt>
			<trkpt lat="48.19561" lon="15.10523">
				<ele>220.49</ele>
				<time>2025-07-29T01:45:47.252Z</time>
			</trkpt>
			<trkpt lat="48.19633" lon="15.10563">
				<ele>223.1</ele>
				<time>2025-07-29T01:45:55.391Z</time>
			</trkpt>
			<trkpt lat="48.19665" lon="15.10584">
				<ele>222.91</ele>
				<time>2025-07-29T01:45:59.082Z</time>
			</trkpt>
			<trkpt lat="48.19709" lon="15.10625">
				<ele>220.96</ele>
				<time>2025-07-29T01:46:04.543Z</time>
			</trkpt>
			<trkpt lat="48.19772" lon="15.10699">
				<ele>219.17</ele>
				<time>2025-07-29T01:46:12.949Z</time>
			</trkpt>
			<trkpt lat="48.19802" lon="15.1073">
				<ele>217.82</ele>
				<time>2025-07-29T01:46:16.764Z</time>
			</trkpt>
			<trkpt lat="48.19846" lon="15.10767">
				<ele>217.2</ele>
				<time>2025-07-29T01:46:22.035Z</time>
			</trkpt>
			<trkpt lat="48.19869" lon="15.10783">
				<ele>216.86</ele>
				<time>2025-07-29T01:46:24.679Z</time>
			</trkpt>
			<trkpt lat="48.20008" lon="15.10856">
				<ele>219.87</ele>
				<time>2025-07-29T01:46:39.969Z</time>
			</trkpt>
			<trkpt lat="48.20051" lon="15.10882">
				<ele>220.48</ele>
				<time>2025-07-29T01:46:44.759Z</time>
			</trkpt>
			<trkpt lat="48.20101" lon="15.10918">
				<ele>219.73</ele>
				<time>2025-07-29T01:46:50.475Z</time>
			</trkpt>
			<trkpt lat="48.2015" lon="15.10962">
				<ele>223.53</ele>
				<time>2025-07-29T01:46:56.344Z</time>
			</trkpt>
			<trkpt lat="48.2018" lon="15.10995">
				<ele>225.12</ele>
				<time>2025-07-29T01:47:00.159Z</time>
			</trkpt>
			<trkpt lat="48.2021" lon="15.11033">
				<ele>224.71</ele>
				<time>2025-07-29T01:47:04.178Z</time>
			</trkpt>
			<trkpt lat="48.20259" lon="15.11107">
				<ele>224.98</ele>
				<time>2025-07-29T01:47:11.276Z</time>
			</trkpt>
			<trkpt lat="48.20317" lon="15.11213">
				<ele>215.28</ele>
				<time>2025-07-29T01:47:20.574Z</time>
			</trkpt>
			<trkpt lat="48.20344" lon="15.11254">
				<ele>216.33</ele>
				<time>2025-07-29T01:47:24.470Z</time>
			</trkpt>
			<trkpt lat="48.20391" lon="15.11313">
				<ele>220.49</ele>
				<time>2025-07-29T01:47:30.672Z</time>
			</trkpt>
			<trkpt lat="48.20468" lon="15.11405">
				<ele>223.83</ele>
				<time>2025-07-29T01:47:40.599Z</time>
			</trkpt>
			<trkpt lat="48.20534" lon="15.11492">
				<ele>228.52</ele>
				<time>2025-07-29T01:47:49.424Z</time>
			</trkpt>
			<trkpt lat="48.20583" lon="15.11559">
				<ele>223.53</ele>
				<time>2025-07-29T01:47:56.062Z</time>
			</trkpt>
			<trkpt lat="48.20655" lon="15.11669">
				<ele>220.9</ele>
				<time>2025-07-29T01:48:06.317Z</time>
			</trkpt>
			<trkpt lat="48.20737" lon="15.11808">
				<ele>226.35</ele>
				<time>2025-07-29T01:48:18.610Z</time>
			</trkpt>
			<trkpt lat="48.20757" lon="15.11848">
				<ele>227.43</ele>
				<time>2025-07-29T01:48:21.912Z</time>
			</trkpt>
			<trkpt lat="48.20808" lon="15.11957">
				<ele>221.53</ele>
				<time>2025-07-29T01:48:30.686Z</time>
			</trkpt>
			<trkpt lat="48.20842" lon="15.12027">
				<ele>218.03</ele>
				<time>2025-07-29T01:48:36.377Z</time>
			</trkpt>
			<trkpt lat="48.20881" lon="15.12095">
				<ele>218.8</ele>
				<time>2025-07-29T01:48:42.260Z</time>
			</trkpt>
			<trkpt lat="48.20928" lon="15.12171">
				<ele>221.61</ele>
				<time>2025-07-29T01:48:49.044Z</time>
			</trkpt>
			<trkpt lat="48.20975" lon="15.12255">
				<ele>220.5</ele>
				<time>2025-07-29T01:48:56.205Z</time>
			</trkpt>
			<trkpt lat="48.20996" lon="15.12296">
				<ele>220.44</ele>
				<time>2025-07-29T01:48:59.575Z</time>
			</trkpt>
			<trkpt lat="48.21025" lon="15.12359">
				<ele>218.03</ele>
				<time>2025-07-29T01:49:04.558Z</time>
			</trkpt>
			<trkpt lat="48.2105" lon="15.12419">
				<ele>215.93</ele>
				<time>2025-07-29T01:49:09.157Z</time>
			</trkpt>
			<trkpt lat="48.21087" lon="15.12524">
				<ele>218.43</ele>
				<time>2025-07-29T01:49:16.862Z</time>
			</trkpt>
			<trkpt lat="48.21109" lon="15.12598">
				<ele>214.55</ele>
				<time>2025-07-29T01:49:22.108Z</time>
			</trkpt>
			<trkpt lat="48.21119" lon="15.12639">
				<ele>215.73</ele>
				<time>2025-07-29T01:49:24.931Z</time>
			</trkpt>
			<trkpt lat="48.21131" lon="15.12704">
				<ele>222.4</ele>
				<time>2025-07-29T01:49:29.289Z</time>
			</trkpt>
			<trkpt lat="48.21143" lon="15.12785">
				<ele>220.02</ele>
				<time>2025-07-29T01:49:34.643Z</time>
			</trkpt>
			<trkpt lat="48.21155" lon="15.12901">
				<ele>224.96</ele>
				<time>2025-07-29T01:49:42.204Z</time>
			</trkpt>
			<trkpt lat="48.21162" lon="15.12962">
				<ele>221.64</ele>
				<time>2025-07-29T01:49:46.185Z</time>
			</trkpt>
			<trkpt lat="48.21174" lon="15.1305">
				<ele>219.41</ele>
				<time>2025-07-29T01:49:51.956Z</time>
			</trkpt>
			<trkpt lat="48.21211" lon="15.13258">
				<ele>221.13</ele>
				<time>2025-07-29T01:50:05.754Z</time>
			</trkpt>
			<trkpt lat="48.21225" lon="15.13368">
				<ele>222.62</ele>
				<time>2025-07-29T01:50:12.916Z</time>
			</trkpt>
			<trkpt lat="48.21241" lon="15.1352">
				<ele>217.25</ele>
				<time>2025-07-29T01:50:22.740Z</time>
			</trkpt>
			<trkpt lat="48.21246" lon="15.13555">
				<ele>214.88</ele>
				<time>2025-07-29T01:50:25.023Z</time>
			</trkpt>
			<trkpt lat="48.21263" lon="15.13627">
				<ele>215.17</ele>
				<time>2025-07-29T01:50:29.890Z</time>
			</trkpt>
			<trkpt lat="48.21298" lon="15.13741">
				<ele>213.4</ele>
				<time>2025-07-29T01:50:37.881Z</time>
			</trkpt>
			<trkpt lat="48.21314" lon="15.13811">
				<ele>214.48</ele>
				<time>2025-07-29T01:50:42.587Z</time>
			</trkpt>
			<trkpt lat="48.21397" lon="15.1422">
				<ele>217.96</ele>
				<time>2025-07-29T01:51:09.715Z</time>
			</trkpt>
			<trkpt lat="48.21413" lon="15.14318">
				<ele>218</ele>
				<time>2025-07-29T01:51:16.105Z</time>
			</trkpt>
			<trkpt lat="48.21423" lon="15.14411">
				<ele>218.05</ele>
				<time>2025-07-29T01:51:22.068Z</time>
			</trkpt>
			<trkpt lat="48.21425" lon="15.14497">
				<ele>219.1</ele>
				<time>2025-07-29T01:51:27.512Z</time>
			</trkpt>
			<trkpt lat="48.2142" lon="15.14573">
				<ele>217.94</ele>
				<time>2025-07-29T01:51:32.341Z</time>
			</trkpt>
			<trkpt lat="48.21394" lon="15.14755">
				<ele>215.67</ele>
				<time>2025-07-29T01:51:44.107Z</time>
			</trkpt>
			<trkpt lat="48.21391" lon="15.14793">
				<ele>216.04</ele>
				<time>2025-07-29T01:51:46.525Z</time>
			</trkpt>
			<trkpt lat="48.21388" lon="15.14929">
				<ele>217.01</ele>
				<time>2025-07-29T01:51:55.122Z</time>
			</trkpt>
			<trkpt lat="48.21389" lon="15.14979">
				<ele>216.25</ele>
				<time>2025-07-29T01:51:58.282Z</time>
			</trkpt>
			<trkpt lat="48.21394" lon="15.15074">
				<ele>216.7</ele>
				<time>2025-07-29T01:52:04.301Z</time>
			</trkpt>
			<trkpt lat="48.21398" lon="15.15119">
				<ele>217.55</ele>
				<time>2025-07-29T01:52:07.168Z</time>
			</trkpt>
			<trkpt lat="48.2141" lon="15.15241">
				<ele>217.75</ele>
				<time>2025-07-29T01:52:14.958Z</time>
			</trkpt>
			<trkpt lat="48.21457" lon="15.15238">
				<ele>221.03</ele>
				<time>2025-07-29T01:52:19.417Z</time>
			</trkpt>
			<trkpt lat="48.21501" lon="15.15208">
				<ele>226.94</ele>
				<time>2025-07-29T01:52:23.999Z</time>
			</trkpt>
			<trkpt lat="48.2153" lon="15.15201">
				<ele>226.13</ele>
				<time>2025-07-29T01:52:26.784Z</time>
			</trkpt>
			<trkpt lat="48.21542" lon="15.15195">
				<ele>225.91</ele>
				<time>2025-07-29T01:52:27.984Z</time>
			</trkpt>
			<trkpt lat="48.21568" lon="15.15177">
				<ele>227.97</ele>
				<time>2025-07-29T01:52:30.699Z</time>
			</trkpt>
			<trkpt lat="48.21596" lon="15.15165">
				<ele>230.05</ele>
				<time>2025-07-29T01:52:33.461Z</time>
			</trkpt>
			<trkpt lat="48.21606" lon="15.15165">
				<ele>230.91</ele>
				<time>2025-07-29T01:52:34.409Z</time>
			</trkpt>
			<trkpt lat="48.21618" lon="15.15176">
				<ele>231.16</ele>
				<time>2025-07-29T01:52:35.743Z</time>
			</trkpt>
			<trkpt lat="48.21659" lon="15.15247">
				<ele>239.96</ele>
				<time>2025-07-29T01:52:41.683Z</time>
			</trkpt>
			<trkpt lat="48.21672" lon="15.1526">
				<ele>241.99</ele>
				<time>2025-07-29T01:52:43.165Z</time>
			</trkpt>
			<trkpt lat="48.21683" lon="15.15267">
				<ele>243</ele>
				<time>2025-07-29T01:52:44.299Z</time>
			</trkpt>
			<trkpt lat="48.21689" lon="15.15269">
				<ele>243.16</ele>
				<time>2025-07-29T01:52:44.883Z</time>
			</trkpt>
			<trkpt lat="48.21702" lon="15.15268">
				<ele>244.37</ele>
				<time>2025-07-29T01:52:46.118Z</time>
			</trkpt>
			<trkpt lat="48.2174" lon="15.15256">
				<ele>247.89</ele>
				<time>2025-07-29T01:52:49.805Z</time>
			</trkpt>
			<trkpt lat="48.21748" lon="15.15249">
				<ele>247.74</ele>
				<time>2025-07-29T01:52:50.684Z</time>
			</trkpt>
			<trkpt lat="48.21769" lon="15.15227">
				<ele>247.48</ele>
				<time>2025-07-29T01:52:53.116Z</time>
			</trkpt>
			<trkpt lat="48.21791" lon="15.15217">
				<ele>251.62</ele>
				<time>2025-07-29T01:52:55.299Z</time>
			</trkpt>
			<trkpt lat="48.21801" lon="15.1521">
				<ele>253.84</ele>
				<time>2025-07-29T01:52:56.347Z</time>
			</trkpt>
			<trkpt lat="48.21812" lon="15.15187">
				<ele>253.5</ele>
				<time>2025-07-29T01:52:58.140Z</time>
			</trkpt>
			<trkpt lat="48.21824" lon="15.15153">
				<ele>250.14</ele>
				<time>2025-07-29T01:53:00.576Z</time>
			</trkpt>
			<trkpt lat="48.21831" lon="15.15136">
				<ele>249.47</ele>
				<time>2025-07-29T01:53:01.841Z</time>
			</trkpt>
			<trkpt lat="48.21836" lon="15.15129">
				<ele>249.99</ele>
				<time>2025-07-29T01:53:02.491Z</time>
			</trkpt>
			<trkpt lat="48.21844" lon="15.15121">
				<ele>251.27</ele>
				<time>2025-07-29T01:53:03.405Z</time>
			</trkpt>
			<trkpt lat="48.21855" lon="15.15121">
				<ele>253.63</ele>
				<time>2025-07-29T01:53:04.451Z</time>
			</trkpt>
			<trkpt lat="48.2188" lon="15.15137">
				<ele>261.26</ele>
				<time>2025-07-29T01:53:07.035Z</time>
			</trkpt>
			<trkpt lat="48.21902" lon="15.15146">
				<ele>268.44</ele>
				<time>2025-07-29T01:53:09.204Z</time>
			</trkpt>
			<trkpt lat="48.21926" lon="15.15154">
				<ele>275.07</ele>
				<time>2025-07-29T01:53:11.543Z</time>
			</trkpt>
			<trkpt lat="48.21937" lon="15.15154">
				<ele>276.98</ele>
				<time>2025-07-29T01:53:12.589Z</time>
			</trkpt>
			<trkpt lat="48.21985" lon="15.15125">
				<ele>274.1</ele>
				<time>2025-07-29T01:53:17.515Z</time>
			</trkpt>
			<trkpt lat="48.22033" lon="15.1512">
				<ele>288.68</ele>
				<time>2025-07-29T01:53:22.070Z</time>
			</trkpt>
			<trkpt lat="48.2204" lon="15.15117">
				<ele>290.6</ele>
				<time>2025-07-29T01:53:22.755Z</time>
			</trkpt>
			<trkpt lat="48.22054" lon="15.15107">
				<ele>292.55</ele>
				<time>2025-07-29T01:53:24.211Z</time>
			</trkpt>
			<trkpt lat="48.22072" lon="15.15084">
				<ele>287.41</ele>
				<time>2025-07-29T01:53:26.420Z</time>
			</trkpt>
			<trkpt lat="48.22084" lon="15.15074">
				<ele>286.16</ele>
				<time>2025-07-29T01:53:27.697Z</time>
			</trkpt>
			<trkpt lat="48.22118" lon="15.1506">
				<ele>291.18</ele>
				<time>2025-07-29T01:53:30.962Z</time>
			</trkpt>
			<trkpt lat="48.22155" lon="15.15032">
				<ele>293.9</ele>
				<time>2025-07-29T01:53:34.768Z</time>
			</trkpt>
			<trkpt lat="48.22189" lon="15.15012">
				<ele>291.57</ele>
				<time>2025-07-29T01:53:38.095Z</time>
			</trkpt>
			<trkpt lat="48.22201" lon="15.15011">
				<ele>291.07</ele>
				<time>2025-07-29T01:53:39.185Z</time>
			</trkpt>
			<trkpt lat="48.22206" lon="15.15013">
				<ele>291.62</ele>
				<time>2025-07-29T01:53:39.654Z</time>
			</trkpt>
			<trkpt lat="48.22239" lon="15.15042">
				<ele>302.82</ele>
				<time>2025-07-29T01:53:43.102Z</time>
			</trkpt>
			<trkpt lat="48.22308" lon="15.15066">
				<ele>317.76</ele>
				<time>2025-07-29T01:53:49.424Z</time>
			</trkpt>
			<trkpt lat="48.22322" lon="15.15065">
				<ele>316.95</ele>
				<time>2025-07-29T01:53:50.666Z</time>
			</trkpt>
			<trkpt lat="48.22335" lon="15.1506">
				<ele>315.31</ele>
				<time>2025-07-29T01:53:51.852Z</time>
			</trkpt>
			<trkpt lat="48.22422" lon="15.15025">
				<ele>318.1</ele>
				<time>2025-07-29T01:53:59.746Z</time>
			</trkpt>
			<trkpt lat="48.22426" lon="15.15025">
				<ele>318.53</ele>
				<time>2025-07-29T01:54:00.094Z</time>
			</trkpt>
			<trkpt lat="48.22429" lon="15.15028">
				<ele>319.67</ele>
				<time>2025-07-29T01:54:00.407Z</time>
			</trkpt>
			<trkpt lat="48.2243" lon="15.15039">
				<ele>323.18</ele>
				<time>2025-07-29T01:54:01.050Z</time>
			</trkpt>
			<trkpt lat="48.22427" lon="15.15044">
				<ele>323.93</ele>
				<time>2025-07-29T01:54:01.439Z</time>
			</trkpt>
			<trkpt lat="48.22387" lon="15.15055">
				<ele>322.82</ele>
				<time>2025-07-29T01:54:04.957Z</time>
			</trkpt>
			<trkpt lat="48.22365" lon="15.15073">
				<ele>325.05</ele>
				<time>2025-07-29T01:54:07.115Z</time>
			</trkpt>
			<trkpt lat="48.2235" lon="15.15088">
				<ele>327.81</ele>
				<time>2025-07-29T01:54:08.662Z</time>
			</trkpt>
			<trkpt lat="48.22309" lon="15.15147">
				<ele>345.55</ele>
				<time>2025-07-29T01:54:13.516Z</time>
			</trkpt>
			<trkpt lat="48.223" lon="15.15153">
				<ele>346.91</ele>
				<time>2025-07-29T01:54:14.354Z</time>
			</trkpt>
			<trkpt lat="48.22291" lon="15.15156">
				<ele>347.29</ele>
				<time>2025-07-29T01:54:15.138Z</time>
			</trkpt>
			<trkpt lat="48.22231" lon="15.15166">
				<ele>342.61</ele>
				<time>2025-07-29T01:54:20.250Z</time>
			</trkpt>
			<trkpt lat="48.22223" lon="15.15169">
				<ele>342.39</ele>
				<time>2025-07-29T01:54:20.946Z</time>
			</trkpt>
			<trkpt lat="48.22211" lon="15.15179">
				<ele>342.78</ele>
				<time>2025-07-29T01:54:22.103Z</time>
			</trkpt>
			<trkpt lat="48.22199" lon="15.15197">
				<ele>343.56</ele>
				<time>2025-07-29T01:54:23.530Z</time>
			</trkpt>
			<trkpt lat="48.22186" lon="15.15209">
				<ele>344.4</ele>
				<time>2025-07-29T01:54:24.813Z</time>
			</trkpt>
			<trkpt lat="48.22168" lon="15.15217">
				<ele>346.25</ele>
				<time>2025-07-29T01:54:26.388Z</time>
			</trkpt>
			<trkpt lat="48.2213" lon="15.15225">
				<ele>347.48</ele>
				<time>2025-07-29T01:54:29.599Z</time>
			</trkpt>
			<trkpt lat="48.22118" lon="15.15234">
				<ele>345.87</ele>
				<time>2025-07-29T01:54:30.720Z</time>
			</trkpt>
			<trkpt lat="48.22103" lon="15.15251">
				<ele>344.26</ele>
				<time>2025-07-29T01:54:32.288Z</time>
			</trkpt>
			<trkpt lat="48.22097" lon="15.15265">
				<ele>343.4</ele>
				<time>2025-07-29T01:54:33.212Z</time>
			</trkpt>
			<trkpt lat="48.22095" lon="15.15281">
				<ele>343.72</ele>
				<time>2025-07-29T01:54:34.115Z</time>
			</trkpt>
			<trkpt lat="48.22097" lon="15.15328">
				<ele>347.15</ele>
				<time>2025-07-29T01:54:36.725Z</time>
			</trkpt>
			<trkpt lat="48.221" lon="15.15365">
				<ele>349.58</ele>
				<time>2025-07-29T01:54:38.787Z</time>
			</trkpt>
			<trkpt lat="48.22107" lon="15.15396">
				<ele>351.61</ele>
				<time>2025-07-29T01:54:40.595Z</time>
			</trkpt>
			<trkpt lat="48.22143" lon="15.15513">
				<ele>360.59</ele>
				<time>2025-07-29T01:54:47.698Z</time>
			</trkpt>
			<trkpt lat="48.22151" lon="15.15532">
				<ele>361.39</ele>
				<time>2025-07-29T01:54:48.934Z</time>
			</trkpt>
			<trkpt lat="48.22167" lon="15.15559">
				<ele>363.17</ele>
				<time>2025-07-29T01:54:50.922Z</time>
			</trkpt>
			<trkpt lat="48.22176" lon="15.15579">
				<ele>365.59</ele>
				<time>2025-07-29T01:54:52.248Z</time>
			</trkpt>
			<trkpt lat="48.22207" lon="15.15666">
				<ele>366.81</ele>
				<time>2025-07-29T01:54:57.669Z</time>
			</trkpt>
			<trkpt lat="48.22216" lon="15.15679">
				<ele>368.6</ele>
				<time>2025-07-29T01:54:58.699Z</time>
			</trkpt>
			<trkpt lat="48.22234" lon="15.15696">
				<ele>372.6</ele>
				<time>2025-07-29T01:55:00.453Z</time>
			</trkpt>
			<trkpt lat="48.22246" lon="15.1571">
				<ele>374.7</ele>
				<time>2025-07-29T01:55:01.706Z</time>
			</trkpt>
			<trkpt lat="48.22303" lon="15.15803">
				<ele>378.77</ele>
				<time>2025-07-29T01:55:08.654Z</time>
			</trkpt>
			<trkpt lat="48.22328" lon="15.15873">
				<ele>381.66</ele>
				<time>2025-07-29T01:55:13.029Z</time>
			</trkpt>
			<trkpt lat="48.22335" lon="15.15881">
				<ele>384.06</ele>
				<time>2025-07-29T01:55:13.758Z</time>
			</trkpt>
			<trkpt lat="48.22342" lon="15.15877">
				<ele>387.5</ele>
				<time>2025-07-29T01:55:14.378Z</time>
			</trkpt>
			<trkpt lat="48.22345" lon="15.15872">
				<ele>388.57</ele>
				<time>2025-07-29T01:55:14.749Z</time>
			</trkpt>
			<trkpt lat="48.22345" lon="15.15864">
				<ele>388.98</ele>
				<time>2025-07-29T01:55:15.191Z</time>
			</trkpt>
			<trkpt lat="48.22347" lon="15.1581">
				<ele>391.68</ele>
				<time>2025-07-29T01:55:18.179Z</time>
			</trkpt>
			<trkpt lat="48.22359" lon="15.15756">
				<ele>394.06</ele>
				<time>2025-07-29T01:55:21.331Z</time>
			</trkpt>
			<trkpt lat="48.2237" lon="15.15685">
				<ele>396.64</ele>
				<time>2025-07-29T01:55:25.379Z</time>
			</trkpt>
			<trkpt lat="48.22381" lon="15.15633">
				<ele>401.2</ele>
				<time>2025-07-29T01:55:28.418Z</time>
			</trkpt>
			<trkpt lat="48.224" lon="15.15563">
				<ele>402.63</ele>
				<time>2025-07-29T01:55:32.644Z</time>
			</trkpt>
			<trkpt lat="48.22447" lon="15.15414">
				<ele>410.32</ele>
				<time>2025-07-29T01:55:41.933Z</time>
			</trkpt>
			<trkpt lat="48.22455" lon="15.15396">
				<ele>409.59</ele>
				<time>2025-07-29T01:55:43.161Z</time>
			</trkpt>
			<trkpt lat="48.22461" lon="15.1539">
				<ele>409.66</ele>
				<time>2025-07-29T01:55:43.776Z</time>
			</trkpt>
			<trkpt lat="48.22471" lon="15.15385">
				<ele>410.54</ele>
				<time>2025-07-29T01:55:44.675Z</time>
			</trkpt>
			<trkpt lat="48.22483" lon="15.15386">
				<ele>411.48</ele>
				<time>2025-07-29T01:55:45.703Z</time>
			</trkpt>
			<trkpt lat="48.22494" lon="15.15396">
				<ele>413.85</ele>
				<time>2025-07-29T01:55:46.804Z</time>
			</trkpt>
			<trkpt lat="48.22528" lon="15.15442">
				<ele>421.75</ele>
				<time>2025-07-29T01:55:50.738Z</time>
			</trkpt>
			<trkpt lat="48.22563" lon="15.15503">
				<ele>425.31</ele>
				<time>2025-07-29T01:55:55.380Z</time>
			</trkpt>
			<trkpt lat="48.22571" lon="15.15521">
				<ele>426.67</ele>
				<time>2025-07-29T01:55:56.634Z</time>
			</trkpt>
			<trkpt lat="48.22577" lon="15.15549">
				<ele>428.4</ele>
				<time>2025-07-29T01:55:58.343Z</time>
			</trkpt>
			<trkpt lat="48.2258" lon="15.15633">
				<ele>432.68</ele>
				<time>2025-07-29T01:56:03.260Z</time>
			</trkpt>
			<trkpt lat="48.22578" lon="15.15653">
				<ele>434.93</ele>
				<time>2025-07-29T01:56:04.449Z</time>
			</trkpt>
			<trkpt lat="48.22574" lon="15.15667">
				<ele>437.05</ele>
				<time>2025-07-29T01:56:05.346Z</time>
			</trkpt>
			<trkpt lat="48.22561" lon="15.1569">
				<ele>441.64</ele>
				<time>2025-07-29T01:56:07.127Z</time>
			</trkpt>
			<trkpt lat="48.22529" lon="15.15727">
				<ele>446.1</ele>
				<time>2025-07-29T01:56:10.727Z</time>
			</trkpt>
			<trkpt lat="48.22528" lon="15.15742">
				<ele>446.71</ele>
				<time>2025-07-29T01:56:11.626Z</time>
			</trkpt>
			<trkpt lat="48.22544" lon="15.1585">
				<ele>452.62</ele>
				<time>2025-07-29T01:56:18.277Z</time>
			</trkpt>
			<trkpt lat="48.22561" lon="15.1595">
				<ele>449.96</ele>
				<time>2025-07-29T01:56:24.568Z</time>
			</trkpt>
			<trkpt lat="48.22591" lon="15.16086">
				<ele>446.35</ele>
				<time>2025-07-29T01:56:33.453Z</time>
			</trkpt>
			<trkpt lat="48.22599" lon="15.16098">
				<ele>445.62</ele>
				<time>2025-07-29T01:56:34.518Z</time>
			</trkpt>
			<trkpt lat="48.22606" lon="15.16101">
				<ele>445.24</ele>
				<time>2025-07-29T01:56:35.205Z</time>
			</trkpt>
			<trkpt lat="48.22613" lon="15.1608">
				<ele>444.99</ele>
				<time>2025-07-29T01:56:36.686Z</time>
			</trkpt>
			<trkpt lat="48.22658" lon="15.16022">
				<ele>438.95</ele>
				<time>2025-07-29T01:56:42.347Z</time>
			</trkpt>
			<trkpt lat="48.22676" lon="15.16004">
				<ele>436.51</ele>
				<time>2025-07-29T01:56:44.431Z</time>
			</trkpt>
			<trkpt lat="48.22712" lon="15.15981">
				<ele>433.89</ele>
				<time>2025-07-29T01:56:48.229Z</time>
			</trkpt>
			<trkpt lat="48.22756" lon="15.15961">
				<ele>429.54</ele>
				<time>2025-07-29T01:56:52.739Z</time>
			</trkpt>
			<trkpt lat="48.22764" lon="15.15992">
				<ele>430.97</ele>
				<time>2025-07-29T01:56:54.930Z</time>
			</trkpt>
			<trkpt lat="48.22756" lon="15.15961">
				<ele>429.54</ele>
				<time>2025-07-29T01:56:57.133Z</time>
			</trkpt>
			<trkpt lat="48.22793" lon="15.15943">
				<ele>424.26</ele>
				<time>2025-07-29T01:57:01.033Z</time>
			</trkpt>
			<trkpt lat="48.22857" lon="15.15912">
				<ele>417</ele>
				<time>2025-07-29T01:57:07.871Z</time>
			</trkpt>
			<trkpt lat="48.22866" lon="15.15903">
				<ele>415.98</ele>
				<time>2025-07-29T01:57:08.983Z</time>
			</trkpt>
			<trkpt lat="48.22875" lon="15.15888">
				<ele>414.98</ele>
				<time>2025-07-29T01:57:10.369Z</time>
			</trkpt>
			<trkpt lat="48.22878" lon="15.15879">
				<ele>414.4</ele>
				<time>2025-07-29T01:57:11.062Z</time>
			</trkpt>
			<trkpt lat="48.22881" lon="15.15857">
				<ele>413.26</ele>
				<time>2025-07-29T01:57:12.613Z</time>
			</trkpt>
			<trkpt lat="48.22884" lon="15.15784">
				<ele>409.39</ele>
				<time>2025-07-29T01:57:17.709Z</time>
			</trkpt>
			<trkpt lat="48.22888" lon="15.1577">
				<ele>408.75</ele>
				<time>2025-07-29T01:57:18.779Z</time>
			</trkpt>
			<trkpt lat="48.22892" lon="15.15764">
				<ele>408.19</ele>
				<time>2025-07-29T01:57:19.377Z</time>
			</trkpt>
			<trkpt lat="48.22903" lon="15.15759">
				<ele>406.8</ele>
				<time>2025-07-29T01:57:20.595Z</time>
			</trkpt>
			<trkpt lat="48.22924" lon="15.15759">
				<ele>404.56</ele>
				<time>2025-07-29T01:57:22.830Z</time>
			</trkpt>
			<trkpt lat="48.22945" lon="15.15764">
				<ele>402.97</ele>
				<time>2025-07-29T01:57:25.106Z</time>
			</trkpt>
			<trkpt lat="48.22973" lon="15.15774">
				<ele>401.76</ele>
				<time>2025-07-29T01:57:28.210Z</time>
			</trkpt>
			<trkpt lat="48.23037" lon="15.15803">
				<ele>399.9</ele>
				<time>2025-07-29T01:57:35.521Z</time>
			</trkpt>
			<trkpt lat="48.23103" lon="15.15845">
				<ele>397.9</ele>
				<time>2025-07-29T01:57:43.523Z</time>
			</trkpt>
			<trkpt lat="48.23181" lon="15.15874">
				<ele>401.83</ele>
				<time>2025-07-29T01:57:50.617Z</time>
			</trkpt>
			<trkpt lat="48.23284" lon="15.15942">
				<ele>406.23</ele>
				<time>2025-07-29T01:58:07.924Z</time>
			</trkpt>
			<trkpt lat="48.23304" lon="15.15953">
				<ele>406.96</ele>
				<time>2025-07-29T01:58:38.390Z</time>
			</trkpt>
			<trkpt lat="48.2332" lon="15.15958">
				<ele>407.82</ele>
				<time>2025-07-29T01:58:47.589Z</time>
			</trkpt>
			<trkpt lat="48.23341" lon="15.15956">
				<ele>408.59</ele>
				<time>2025-07-29T01:58:50.993Z</time>
			</trkpt>
			<trkpt lat="48.23354" lon="15.15948">
				<ele>408.8</ele>
				<time>2025-07-29T01:58:53.106Z</time>
			</trkpt>
			<trkpt lat="48.23366" lon="15.15936">
				<ele>409.85</ele>
				<time>2025-07-29T01:58:55.241Z</time>
			</trkpt>
			<trkpt lat="48.23381" lon="15.15911">
				<ele>412.69</ele>
				<time>2025-07-29T01:58:58.495Z</time>
			</trkpt>
			<trkpt lat="48.2339" lon="15.1588">
				<ele>416.59</ele>
				<time>2025-07-29T01:59:01.687Z</time>
			</trkpt>
			<trkpt lat="48.23395" lon="15.15829">
				<ele>419.07</ele>
				<time>2025-07-29T01:59:06.406Z</time>
			</trkpt>
			<trkpt lat="48.23403" lon="15.15783">
				<ele>422.73</ele>
				<time>2025-07-29T01:59:10.605Z</time>
			</trkpt>
			<trkpt lat="48.23413" lon="15.15756">
				<ele>426.8</ele>
				<time>2025-07-29T01:59:13.258Z</time>
			</trkpt>
			<trkpt lat="48.23423" lon="15.15741">
				<ele>429.64</ele>
				<time>2025-07-29T01:59:15.047Z</time>
			</trkpt>
			<trkpt lat="48.2344" lon="15.15723">
				<ele>434.08</ele>
				<time>2025-07-29T01:59:17.631Z</time>
			</trkpt>
			<trkpt lat="48.23453" lon="15.15714">
				<ele>435.36</ele>
				<time>2025-07-29T01:59:19.377Z</time>
			</trkpt>
			<trkpt lat="48.23476" lon="15.15708">
				<ele>436.76</ele>
				<time>2025-07-29T01:59:22.166Z</time>
			</trkpt>
			<trkpt lat="48.23496" lon="15.1571">
				<ele>437.79</ele>
				<time>2025-07-29T01:59:24.507Z</time>
			</trkpt>
			<trkpt lat="48.23514" lon="15.15719">
				<ele>440.5</ele>
				<time>2025-07-29T01:59:26.677Z</time>
			</trkpt>
			<trkpt lat="48.23526" lon="15.15729">
				<ele>442.76</ele>
				<time>2025-07-29T01:59:28.221Z</time>
			</trkpt>
			<trkpt lat="48.23582" lon="15.15793">
				<ele>447.45</ele>
				<time>2025-07-29T01:59:35.800Z</time>
			</trkpt>
			<trkpt lat="48.23594" lon="15.15801">
				<ele>448.93</ele>
				<time>2025-07-29T01:59:37.155Z</time>
			</trkpt>
			<trkpt lat="48.23605" lon="15.15804">
				<ele>450.31</ele>
				<time>2025-07-29T01:59:38.295Z</time>
			</trkpt>
			<trkpt lat="48.23617" lon="15.15806">
				<ele>451.47</ele>
				<time>2025-07-29T01:59:39.512Z</time>
			</trkpt>
			<trkpt lat="48.23631" lon="15.15804">
				<ele>452.39</ele>
				<time>2025-07-29T01:59:40.911Z</time>
			</trkpt>
			<trkpt lat="48.23648" lon="15.15796">
				<ele>453.69</ele>
				<time>2025-07-29T01:59:42.656Z</time>
			</trkpt>
			<trkpt lat="48.23668" lon="15.15782">
				<ele>455.38</ele>
				<time>2025-07-29T01:59:44.776Z</time>
			</trkpt>
			<trkpt lat="48.23678" lon="15.15773">
				<ele>455.99</ele>
				<time>2025-07-29T01:59:45.879Z</time>
			</trkpt>
			<trkpt lat="48.23693" lon="15.15756">
				<ele>456.35</ele>
				<time>2025-07-29T01:59:47.631Z</time>
			</trkpt>
			<trkpt lat="48.23708" lon="15.15733">
				<ele>456.72</ele>
				<time>2025-07-29T01:59:49.593Z</time>
			</trkpt>
			<trkpt lat="48.2372" lon="15.15708">
				<ele>456.74</ele>
				<time>2025-07-29T01:59:51.437Z</time>
			</trkpt>
			<trkpt lat="48.23724" lon="15.15702">
				<ele>456.92</ele>
				<time>2025-07-29T01:59:51.939Z</time>
			</trkpt>
			<trkpt lat="48.23736" lon="15.15693">
				<ele>457.89</ele>
				<time>2025-07-29T01:59:53.120Z</time>
			</trkpt>
			<trkpt lat="48.23754" lon="15.15687">
				<ele>459.72</ele>
				<time>2025-07-29T01:59:54.722Z</time>
			</trkpt>
			<trkpt lat="48.23774" lon="15.15692">
				<ele>460.76</ele>
				<time>2025-07-29T01:59:56.455Z</time>
			</trkpt>
			<trkpt lat="48.23776" lon="15.15725">
				<ele>462.09</ele>
				<time>2025-07-29T01:59:58.309Z</time>
			</trkpt>
			<trkpt lat="48.23805" lon="15.15892">
				<ele>466.26</ele>
				<time>2025-07-29T02:00:07.497Z</time>
			</trkpt>
			<trkpt lat="48.23806" lon="15.15929">
				<ele>468.1</ele>
				<time>2025-07-29T02:00:09.381Z</time>
			</trkpt>
			<trkpt lat="48.23804" lon="15.15976">
				<ele>468.16</ele>
				<time>2025-07-29T02:00:11.740Z</time>
			</trkpt>
			<trkpt lat="48.23796" lon="15.16023">
				<ele>469.49</ele>
				<time>2025-07-29T02:00:14.132Z</time>
			</trkpt>
			<trkpt lat="48.23797" lon="15.16054">
				<ele>470.94</ele>
				<time>2025-07-29T02:00:15.645Z</time>
			</trkpt>
			<trkpt lat="48.23805" lon="15.16088">
				<ele>470.81</ele>
				<time>2025-07-29T02:00:17.388Z</time>
			</trkpt>
			<trkpt lat="48.23865" lon="15.16218">
				<ele>471.02</ele>
				<time>2025-07-29T02:00:24.897Z</time>
			</trkpt>
			<trkpt lat="48.23916" lon="15.16317">
				<ele>478.92</ele>
				<time>2025-07-29T02:00:30.775Z</time>
			</trkpt>
			<trkpt lat="48.23943" lon="15.16365">
				<ele>482.86</ele>
				<time>2025-07-29T02:00:33.738Z</time>
			</trkpt>
			<trkpt lat="48.23973" lon="15.16403">
				<ele>486.09</ele>
				<time>2025-07-29T02:00:36.538Z</time>
			</trkpt>
			<trkpt lat="48.23994" lon="15.16422">
				<ele>487.39</ele>
				<time>2025-07-29T02:00:38.303Z</time>
			</trkpt>
			<trkpt lat="48.2403" lon="15.16434">
				<ele>493.76</ele>
				<time>2025-07-29T02:00:40.985Z</time>
			</trkpt>
			<trkpt lat="48.24052" lon="15.16461">
				<ele>501.69</ele>
				<time>2025-07-29T02:00:43.079Z</time>
			</trkpt>
			<trkpt lat="48.24063" lon="15.16484">
				<ele>505.42</ele>
				<time>2025-07-29T02:00:44.484Z</time>
			</trkpt>
			<trkpt lat="48.24126" lon="15.16652">
				<ele>524.33</ele>
				<time>2025-07-29T02:00:54.130Z</time>
			</trkpt>
			<trkpt lat="48.24152" lon="15.16715">
				<ele>531.09</ele>
				<time>2025-07-29T02:00:57.731Z</time>
			</trkpt>
			<trkpt lat="48.24185" lon="15.16861">
				<ele>544.73</ele>
				<time>2025-07-29T02:01:05.019Z</time>
			</trkpt>
			<trkpt lat="48.24207" lon="15.16926">
				<ele>547.96</ele>
				<time>2025-07-29T02:01:08.374Z</time>
			</trkpt>
			<trkpt lat="48.2424" lon="15.16981">
				<ele>553.52</ele>
				<time>2025-07-29T02:01:11.724Z</time>
			</trkpt>
			<trkpt lat="48.24249" lon="15.17005">
				<ele>556.72</ele>
				<time>2025-07-29T02:01:12.956Z</time>
			</trkpt>
			<trkpt lat="48.24262" lon="15.17066">
				<ele>554.17</ele>
				<time>2025-07-29T02:01:15.794Z</time>
			</trkpt>
			<trkpt lat="48.24273" lon="15.17137">
				<ele>554.28</ele>
				<time>2025-07-29T02:01:18.977Z</time>
			</trkpt>
			<trkpt lat="48.24287" lon="15.17196">
				<ele>558.32</ele>
				<time>2025-07-29T02:01:21.674Z</time>
			</trkpt>
			<trkpt lat="48.24294" lon="15.17206">
				<ele>560</ele>
				<time>2025-07-29T02:01:22.294Z</time>
			</trkpt>
			<trkpt lat="48.24307" lon="15.17219">
				<ele>562.57</ele>
				<time>2025-07-29T02:01:23.293Z</time>
			</trkpt>
			<trkpt lat="48.24334" lon="15.17219">
				<ele>569.16</ele>
				<time>2025-07-29T02:01:25.008Z</time>
			</trkpt>
			<trkpt lat="48.2436" lon="15.17213">
				<ele>572.2</ele>
				<time>2025-07-29T02:01:26.667Z</time>
			</trkpt>
			<trkpt lat="48.24408" lon="15.17229">
				<ele>575.05</ele>
				<time>2025-07-29T02:01:29.736Z</time>
			</trkpt>
			<trkpt lat="48.24432" lon="15.17234">
				<ele>571.95</ele>
				<time>2025-07-29T02:01:31.233Z</time>
			</trkpt>
			<trkpt lat="48.24478" lon="15.1723">
				<ele>573.98</ele>
				<time>2025-07-29T02:01:34.056Z</time>
			</trkpt>
			<trkpt lat="48.24525" lon="15.17198">
				<ele>583.49</ele>
				<time>2025-07-29T02:01:37.180Z</time>
			</trkpt>
			<trkpt lat="48.24537" lon="15.17198">
				<ele>583.54</ele>
				<time>2025-07-29T02:01:37.901Z</time>
			</trkpt>
			<trkpt lat="48.24546" lon="15.17201">
				<ele>583.32</ele>
				<time>2025-07-29T02:01:38.454Z</time>
			</trkpt>
			<trkpt lat="48.24559" lon="15.17215">
				<ele>582.74</ele>
				<time>2025-07-29T02:01:39.411Z</time>
			</trkpt>
			<trkpt lat="48.24581" lon="15.17272">
				<ele>580.01</ele>
				<time>2025-07-29T02:01:42.017Z</time>
			</trkpt>
			<trkpt lat="48.24593" lon="15.17341">
				<ele>581.01</ele>
				<time>2025-07-29T02:01:44.812Z</time>
			</trkpt>
			<trkpt lat="48.24595" lon="15.1741">
				<ele>584.46</ele>
				<time>2025-07-29T02:01:47.496Z</time>
			</trkpt>
			<trkpt lat="48.24603" lon="15.1748">
				<ele>589.39</ele>
				<time>2025-07-29T02:01:50.234Z</time>
			</trkpt>
			<trkpt lat="48.2461" lon="15.17524">
				<ele>589.03</ele>
				<time>2025-07-29T02:01:51.968Z</time>
			</trkpt>
			<trkpt lat="48.24618" lon="15.17547">
				<ele>588.57</ele>
				<time>2025-07-29T02:01:52.959Z</time>
			</trkpt>
			<trkpt lat="48.2463" lon="15.17568">
				<ele>589.4</ele>
				<time>2025-07-29T02:01:54.013Z</time>
			</trkpt>
			<trkpt lat="48.2464" lon="15.17581">
				<ele>590.15</ele>
				<time>2025-07-29T02:01:54.768Z</time>
			</trkpt>
			<trkpt lat="48.24652" lon="15.17583">
				<ele>590.5</ele>
				<time>2025-07-29T02:01:55.456Z</time>
			</trkpt>
			<trkpt lat="48.24666" lon="15.17581">
				<ele>591.11</ele>
				<time>2025-07-29T02:01:56.256Z</time>
			</trkpt>
			<trkpt lat="48.24674" lon="15.17575">
				<ele>592.44</ele>
				<time>2025-07-29T02:01:56.764Z</time>
			</trkpt>
			<trkpt lat="48.2473" lon="15.1752">
				<ele>600.14</ele>
				<time>2025-07-29T02:02:00.551Z</time>
			</trkpt>
			<trkpt lat="48.24761" lon="15.17509">
				<ele>600.68</ele>
				<time>2025-07-29T02:02:02.346Z</time>
			</trkpt>
			<trkpt lat="48.24787" lon="15.17517">
				<ele>599.83</ele>
				<time>2025-07-29T02:02:03.838Z</time>
			</trkpt>
			<trkpt lat="48.24808" lon="15.17552">
				<ele>599.39</ele>
				<time>2025-07-29T02:02:05.598Z</time>
			</trkpt>
			<trkpt lat="48.24838" lon="15.17608">
				<ele>603.11</ele>
				<time>2025-07-29T02:02:08.277Z</time>
			</trkpt>
			<trkpt lat="48.24859" lon="15.17657">
				<ele>605.93</ele>
				<time>2025-07-29T02:02:10.446Z</time>
			</trkpt>
			<trkpt lat="48.24924" lon="15.1776">
				<ele>614.79</ele>
				<time>2025-07-29T02:02:15.723Z</time>
			</trkpt>
			<trkpt lat="48.24967" lon="15.17819">
				<ele>618.83</ele>
				<time>2025-07-29T02:02:18.978Z</time>
			</trkpt>
			<trkpt lat="48.25062" lon="15.17911">
				<ele>622.67</ele>
				<time>2025-07-29T02:02:25.319Z</time>
			</trkpt>
			<trkpt lat="48.25076" lon="15.17931">
				<ele>622.07</ele>
				<time>2025-07-29T02:02:26.408Z</time>
			</trkpt>
			<trkpt lat="48.25087" lon="15.17968">
				<ele>621.64</ele>
				<time>2025-07-29T02:02:27.932Z</time>
			</trkpt>
			<trkpt lat="48.2511" lon="15.18075">
				<ele>619.45</ele>
				<time>2025-07-29T02:02:32.182Z</time>
			</trkpt>
			<trkpt lat="48.25143" lon="15.18168">
				<ele>617.51</ele>
				<time>2025-07-29T02:02:36.201Z</time>
			</trkpt>
			<trkpt lat="48.25161" lon="15.18214">
				<ele>616.95</ele>
				<time>2025-07-29T02:02:38.252Z</time>
			</trkpt>
			<trkpt lat="48.2521" lon="15.1832">
				<ele>611.1</ele>
				<time>2025-07-29T02:02:43.263Z</time>
			</trkpt>
			<trkpt lat="48.25248" lon="15.18365">
				<ele>610.61</ele>
				<time>2025-07-29T02:02:46.120Z</time>
			</trkpt>
			<trkpt lat="48.2526" lon="15.18389">
				<ele>609.73</ele>
				<time>2025-07-29T02:02:47.309Z</time>
			</trkpt>
			<trkpt lat="48.25274" lon="15.18422">
				<ele>607.45</ele>
				<time>2025-07-29T02:02:48.866Z</time>
			</trkpt>
			<trkpt lat="48.25279" lon="15.18414">
				<ele>608.38</ele>
				<time>2025-07-29T02:02:49.304Z</time>
			</trkpt>
			<trkpt lat="48.25288" lon="15.18411">
				<ele>609.3</ele>
				<time>2025-07-29T02:02:49.858Z</time>
			</trkpt>
			<trkpt lat="48.25297" lon="15.18411">
				<ele>609.95</ele>
				<time>2025-07-29T02:02:50.400Z</time>
			</trkpt>
			<trkpt lat="48.25346" lon="15.18423">
				<ele>616.83</ele>
				<time>2025-07-29T02:02:53.410Z</time>
			</trkpt>
			<trkpt lat="48.2536" lon="15.18423">
				<ele>618.48</ele>
				<time>2025-07-29T02:02:54.265Z</time>
			</trkpt>
			<trkpt lat="48.2537" lon="15.18419">
				<ele>618.54</ele>
				<time>2025-07-29T02:02:54.900Z</time>
			</trkpt>
			<trkpt lat="48.25379" lon="15.18409">
				<ele>618.57</ele>
				<time>2025-07-29T02:02:55.588Z</time>
			</trkpt>
			<trkpt lat="48.25387" lon="15.18394">
				<ele>618.83</ele>
				<time>2025-07-29T02:02:56.376Z</time>
			</trkpt>
			<trkpt lat="48.25398" lon="15.18368">
				<ele>620.35</ele>
				<time>2025-07-29T02:02:57.646Z</time>
			</trkpt>
			<trkpt lat="48.25435" lon="15.18285">
				<ele>628.5</ele>
				<time>2025-07-29T02:03:01.811Z</time>
			</trkpt>
			<trkpt lat="48.25457" lon="15.18248">
				<ele>633.2</ele>
				<time>2025-07-29T02:03:03.909Z</time>
			</trkpt>
			<trkpt lat="48.25542" lon="15.18117">
				<ele>645.41</ele>
				<time>2025-07-29T02:03:11.824Z</time>
			</trkpt>
			<trkpt lat="48.25573" lon="15.18088">
				<ele>644.1</ele>
				<time>2025-07-29T02:03:14.256Z</time>
			</trkpt>
			<trkpt lat="48.25601" lon="15.18131">
				<ele>638.17</ele>
				<time>2025-07-29T02:03:16.958Z</time>
			</trkpt>
			<trkpt lat="48.25608" lon="15.18147">
				<ele>636.83</ele>
				<time>2025-07-29T02:03:17.825Z</time>
			</trkpt>
			<trkpt lat="48.25615" lon="15.18164">
				<ele>636.33</ele>
				<time>2025-07-29T02:03:18.735Z</time>
			</trkpt>
			<trkpt lat="48.25636" lon="15.18255">
				<ele>637.63</ele>
				<time>2025-07-29T02:03:23.177Z</time>
			</trkpt>
			<trkpt lat="48.25643" lon="15.18279">
				<ele>637.09</ele>
				<time>2025-07-29T02:03:24.403Z</time>
			</trkpt>
			<trkpt lat="48.25652" lon="15.18301">
				<ele>636.65</ele>
				<time>2025-07-29T02:03:25.618Z</time>
			</trkpt>
			<trkpt lat="48.25673" lon="15.18338">
				<ele>635.39</ele>
				<time>2025-07-29T02:03:27.927Z</time>
			</trkpt>
			<trkpt lat="48.25707" lon="15.18386">
				<ele>634.13</ele>
				<time>2025-07-29T02:03:31.304Z</time>
			</trkpt>
			<trkpt lat="48.25732" lon="15.18414">
				<ele>632.45</ele>
				<time>2025-07-29T02:03:33.594Z</time>
			</trkpt>
			<trkpt lat="48.25788" lon="15.18461">
				<ele>629.41</ele>
				<time>2025-07-29T02:03:38.507Z</time>
			</trkpt>
			<trkpt lat="48.258" lon="15.18479">
				<ele>627.73</ele>
				<time>2025-07-29T02:03:39.884Z</time>
			</trkpt>
			<trkpt lat="48.25859" lon="15.18583">
				<ele>623</ele>
				<time>2025-07-29T02:03:47.667Z</time>
			</trkpt>
			<trkpt lat="48.25899" lon="15.18641">
				<ele>623.64</ele>
				<time>2025-07-29T02:03:52.596Z</time>
			</trkpt>
			<trkpt lat="48.25929" lon="15.18689">
				<ele>623.7</ele>
				<time>2025-07-29T02:03:56.477Z</time>
			</trkpt>
			<trkpt lat="48.25962" lon="15.18777">
				<ele>623.95</ele>
				<time>2025-07-29T02:04:02.274Z</time>
			</trkpt>
			<trkpt lat="48.2602" lon="15.18916">
				<ele>622.97</ele>
				<time>2025-07-29T02:04:10.846Z</time>
			</trkpt>
			<trkpt lat="48.26035" lon="15.18971">
				<ele>623.56</ele>
				<time>2025-07-29T02:04:13.787Z</time>
			</trkpt>
			<trkpt lat="48.26065" lon="15.19062">
				<ele>629.36</ele>
				<time>2025-07-29T02:04:18.775Z</time>
			</trkpt>
			<trkpt lat="48.26162" lon="15.1934">
				<ele>613.03</ele>
				<time>2025-07-29T02:04:33.907Z</time>
			</trkpt>
			<trkpt lat="48.2619" lon="15.19374">
				<ele>610.65</ele>
				<time>2025-07-29T02:04:36.473Z</time>
			</trkpt>
			<trkpt lat="48.26219" lon="15.194">
				<ele>605.41</ele>
				<time>2025-07-29T02:04:38.868Z</time>
			</trkpt>
			<trkpt lat="48.26239" lon="15.19424">
				<ele>599.19</ele>
				<time>2025-07-29T02:04:40.677Z</time>
			</trkpt>
			<trkpt lat="48.26242" lon="15.19444">
				<ele>597.55</ele>
				<time>2025-07-29T02:04:41.640Z</time>
			</trkpt>
			<trkpt lat="48.26232" lon="15.19573">
				<ele>596.89</ele>
				<time>2025-07-29T02:04:47.696Z</time>
			</trkpt>
			<trkpt lat="48.26235" lon="15.19692">
				<ele>585.33</ele>
				<time>2025-07-29T02:04:53.192Z</time>
			</trkpt>
			<trkpt lat="48.26242" lon="15.1976">
				<ele>578.53</ele>
				<time>2025-07-29T02:04:56.344Z</time>
			</trkpt>
			<trkpt lat="48.2624" lon="15.19774">
				<ele>576.7</ele>
				<time>2025-07-29T02:04:56.997Z</time>
			</trkpt>
			<trkpt lat="48.26222" lon="15.19798">
				<ele>573.53</ele>
				<time>2025-07-29T02:04:58.645Z</time>
			</trkpt>
			<trkpt lat="48.26136" lon="15.19872">
				<ele>568.72</ele>
				<time>2025-07-29T02:05:05.378Z</time>
			</trkpt>
			<trkpt lat="48.26129" lon="15.19891">
				<ele>565.65</ele>
				<time>2025-07-29T02:05:06.354Z</time>
			</trkpt>
			<trkpt lat="48.26135" lon="15.19978">
				<ele>556.99</ele>
				<time>2025-07-29T02:05:10.268Z</time>
			</trkpt>
			<trkpt lat="48.26143" lon="15.19999">
				<ele>556.02</ele>
				<time>2025-07-29T02:05:11.346Z</time>
			</trkpt>
			<trkpt lat="48.2616" lon="15.20031">
				<ele>554.73</ele>
				<time>2025-07-29T02:05:13.166Z</time>
			</trkpt>
			<trkpt lat="48.26168" lon="15.20065">
				<ele>554.82</ele>
				<time>2025-07-29T02:05:14.764Z</time>
			</trkpt>
			<trkpt lat="48.2618" lon="15.20123">
				<ele>553.57</ele>
				<time>2025-07-29T02:05:17.446Z</time>
			</trkpt>
			<trkpt lat="48.26193" lon="15.20169">
				<ele>551.65</ele>
				<time>2025-07-29T02:05:19.645Z</time>
			</trkpt>
			<trkpt lat="48.26201" lon="15.20292">
				<ele>544.86</ele>
				<time>2025-07-29T02:05:25.048Z</time>
			</trkpt>
			<trkpt lat="48.26202" lon="15.20415">
				<ele>536.04</ele>
				<time>2025-07-29T02:05:30.379Z</time>
			</trkpt>
			<trkpt lat="48.26205" lon="15.20512">
				<ele>529.73</ele>
				<time>2025-07-29T02:05:34.557Z</time>
			</trkpt>
			<trkpt lat="48.26221" lon="15.20589">
				<ele>525.78</ele>
				<time>2025-07-29T02:05:38.008Z</time>
			</trkpt>
			<trkpt lat="48.26223" lon="15.20648">
				<ele>523.59</ele>
				<time>2025-07-29T02:05:40.523Z</time>
			</trkpt>
			<trkpt lat="48.26219" lon="15.20702">
				<ele>520.48</ele>
				<time>2025-07-29T02:05:42.829Z</time>
			</trkpt>
			<trkpt lat="48.26211" lon="15.20766">
				<ele>516.57</ele>
				<time>2025-07-29T02:05:45.582Z</time>
			</trkpt>
			<trkpt lat="48.26211" lon="15.20797">
				<ele>514.54</ele>
				<time>2025-07-29T02:05:46.889Z</time>
			</trkpt>
			<trkpt lat="48.26213" lon="15.20867">
				<ele>510.94</ele>
				<time>2025-07-29T02:05:49.833Z</time>
			</trkpt>
			<trkpt lat="48.26207" lon="15.20911">
				<ele>508.24</ele>
				<time>2025-07-29T02:05:51.714Z</time>
			</trkpt>
			<trkpt lat="48.26182" lon="15.21051">
				<ele>505.48</ele>
				<time>2025-07-29T02:05:57.753Z</time>
			</trkpt>
			<trkpt lat="48.26163" lon="15.21077">
				<ele>504.86</ele>
				<time>2025-07-29T02:05:59.353Z</time>
			</trkpt>
			<trkpt lat="48.26082" lon="15.21284">
				<ele>499.5</ele>
				<time>2025-07-29T02:06:09.233Z</time>
			</trkpt>
			<trkpt lat="48.26062" lon="15.21327">
				<ele>496.8</ele>
				<time>2025-07-29T02:06:11.375Z</time>
			</trkpt>
			<trkpt lat="48.25974" lon="15.21474">
				<ele>491.8</ele>
				<time>2025-07-29T02:06:19.403Z</time>
			</trkpt>
			<trkpt lat="48.25952" lon="15.2152">
				<ele>493.49</ele>
				<time>2025-07-29T02:06:21.690Z</time>
			</trkpt>
			<trkpt lat="48.2593" lon="15.21547">
				<ele>493.65</ele>
				<time>2025-07-29T02:06:23.410Z</time>
			</trkpt>
			<trkpt lat="48.25863" lon="15.21653">
				<ele>482.23</ele>
				<time>2025-07-29T02:06:29.277Z</time>
			</trkpt>
			<trkpt lat="48.25831" lon="15.21707">
				<ele>476.42</ele>
				<time>2025-07-29T02:06:32.167Z</time>
			</trkpt>
			<trkpt lat="48.25821" lon="15.21736">
				<ele>474.84</ele>
				<time>2025-07-29T02:06:33.470Z</time>
			</trkpt>
			<trkpt lat="48.25809" lon="15.21861">
				<ele>467.85</ele>
				<time>2025-07-29T02:06:38.496Z</time>
			</trkpt>
			<trkpt lat="48.25803" lon="15.21884">
				<ele>467.22</ele>
				<time>2025-07-29T02:06:39.476Z</time>
			</trkpt>
			<trkpt lat="48.25793" lon="15.21911">
				<ele>465.64</ele>
				<time>2025-07-29T02:06:40.701Z</time>
			</trkpt>
			<trkpt lat="48.2575" lon="15.21986">
				<ele>462.85</ele>
				<time>2025-07-29T02:06:44.619Z</time>
			</trkpt>
			<trkpt lat="48.25701" lon="15.22099">
				<ele>455.57</ele>
				<time>2025-07-29T02:06:49.938Z</time>
			</trkpt>
			<trkpt lat="48.25692" lon="15.2213">
				<ele>453.08</ele>
				<time>2025-07-29T02:06:51.269Z</time>
			</trkpt>
			<trkpt lat="48.25688" lon="15.22173">
				<ele>449.69</ele>
				<time>2025-07-29T02:06:52.977Z</time>
			</trkpt>
			<trkpt lat="48.25685" lon="15.22276">
				<ele>445.44</ele>
				<time>2025-07-29T02:06:57.024Z</time>
			</trkpt>
			<trkpt lat="48.25686" lon="15.22299">
				<ele>444.64</ele>
				<time>2025-07-29T02:06:57.927Z</time>
			</trkpt>
			<trkpt lat="48.2569" lon="15.22321">
				<ele>444.14</ele>
				<time>2025-07-29T02:06:58.821Z</time>
			</trkpt>
			<trkpt lat="48.25718" lon="15.2239">
				<ele>438.18</ele>
				<time>2025-07-29T02:07:01.984Z</time>
			</trkpt>
			<trkpt lat="48.25729" lon="15.2241">
				<ele>436.49</ele>
				<time>2025-07-29T02:07:02.999Z</time>
			</trkpt>
			<trkpt lat="48.2574" lon="15.2244">
				<ele>434.12</ele>
				<time>2025-07-29T02:07:04.337Z</time>
			</trkpt>
			<trkpt lat="48.25741" lon="15.22475">
				<ele>432.5</ele>
				<time>2025-07-29T02:07:05.706Z</time>
			</trkpt>
			<trkpt lat="48.25736" lon="15.22502">
				<ele>429.47</ele>
				<time>2025-07-29T02:07:06.800Z</time>
			</trkpt>
			<trkpt lat="48.25728" lon="15.22524">
				<ele>428.03</ele>
				<time>2025-07-29T02:07:07.778Z</time>
			</trkpt>
			<trkpt lat="48.25693" lon="15.22581">
				<ele>422.33</ele>
				<time>2025-07-29T02:07:10.802Z</time>
			</trkpt>
			<trkpt lat="48.25646" lon="15.2269">
				<ele>420.99</ele>
				<time>2025-07-29T02:07:15.861Z</time>
			</trkpt>
			<trkpt lat="48.25593" lon="15.22779">
				<ele>408.94</ele>
				<time>2025-07-29T02:07:20.506Z</time>
			</trkpt>
			<trkpt lat="48.25558" lon="15.22873">
				<ele>403.61</ele>
				<time>2025-07-29T02:07:24.694Z</time>
			</trkpt>
			<trkpt lat="48.25541" lon="15.22931">
				<ele>403.23</ele>
				<time>2025-07-29T02:07:27.157Z</time>
			</trkpt>
			<trkpt lat="48.25521" lon="15.2298">
				<ele>402.77</ele>
				<time>2025-07-29T02:07:29.391Z</time>
			</trkpt>
			<trkpt lat="48.25447" lon="15.23088">
				<ele>402.3</ele>
				<time>2025-07-29T02:07:35.414Z</time>
			</trkpt>
			<trkpt lat="48.25436" lon="15.23112">
				<ele>402.76</ele>
				<time>2025-07-29T02:07:36.547Z</time>
			</trkpt>
			<trkpt lat="48.25418" lon="15.23179">
				<ele>404</ele>
				<time>2025-07-29T02:07:39.356Z</time>
			</trkpt>
			<trkpt lat="48.25406" lon="15.23205">
				<ele>403</ele>
				<time>2025-07-29T02:07:40.586Z</time>
			</trkpt>
			<trkpt lat="48.25385" lon="15.23226">
				<ele>401.72</ele>
				<time>2025-07-29T02:07:42.061Z</time>
			</trkpt>
			<trkpt lat="48.253" lon="15.23267">
				<ele>396.72</ele>
				<time>2025-07-29T02:07:47.281Z</time>
			</trkpt>
			<trkpt lat="48.25281" lon="15.2327">
				<ele>398.02</ele>
				<time>2025-07-29T02:07:48.399Z</time>
			</trkpt>
			<trkpt lat="48.25333" lon="15.23333">
				<ele>395.98</ele>
				<time>2025-07-29T02:07:52.312Z</time>
			</trkpt>
			<trkpt lat="48.25382" lon="15.23381">
				<ele>393.47</ele>
				<time>2025-07-29T02:07:55.743Z</time>
			</trkpt>
			<trkpt lat="48.25403" lon="15.23393">
				<ele>393.26</ele>
				<time>2025-07-29T02:07:57.063Z</time>
			</trkpt>
			<trkpt lat="48.25432" lon="15.23399">
				<ele>393.2</ele>
				<time>2025-07-29T02:07:58.782Z</time>
			</trkpt>
			<trkpt lat="48.25448" lon="15.23408">
				<ele>392.57</ele>
				<time>2025-07-29T02:07:59.787Z</time>
			</trkpt>
			<trkpt lat="48.25462" lon="15.23427">
				<ele>391.35</ele>
				<time>2025-07-29T02:08:00.896Z</time>
			</trkpt>
			<trkpt lat="48.255" lon="15.23506">
				<ele>384.87</ele>
				<time>2025-07-29T02:08:04.718Z</time>
			</trkpt>
			<trkpt lat="48.2551" lon="15.23511">
				<ele>383.83</ele>
				<time>2025-07-29T02:08:05.339Z</time>
			</trkpt>
			<trkpt lat="48.25522" lon="15.2351">
				<ele>383.96</ele>
				<time>2025-07-29T02:08:06.048Z</time>
			</trkpt>
			<trkpt lat="48.25543" lon="15.23492">
				<ele>384.8</ele>
				<time>2025-07-29T02:08:07.475Z</time>
			</trkpt>
			<trkpt lat="48.25579" lon="15.23448">
				<ele>383.36</ele>
				<time>2025-07-29T02:08:10.218Z</time>
			</trkpt>
			<trkpt lat="48.25604" lon="15.23407">
				<ele>381.89</ele>
				<time>2025-07-29T02:08:12.409Z</time>
			</trkpt>
			<trkpt lat="48.25627" lon="15.23389">
				<ele>380.92</ele>
				<time>2025-07-29T02:08:13.946Z</time>
			</trkpt>
			<trkpt lat="48.25668" lon="15.23362">
				<ele>386.38</ele>
				<time>2025-07-29T02:08:16.604Z</time>
			</trkpt>
			<trkpt lat="48.25706" lon="15.2335">
				<ele>384.92</ele>
				<time>2025-07-29T02:08:18.913Z</time>
			</trkpt>
			<trkpt lat="48.25748" lon="15.23346">
				<ele>377.54</ele>
				<time>2025-07-29T02:08:21.420Z</time>
			</trkpt>
			<trkpt lat="48.25785" lon="15.2336">
				<ele>370</ele>
				<time>2025-07-29T02:08:23.698Z</time>
			</trkpt>
			<trkpt lat="48.25817" lon="15.23378">
				<ele>364.44</ele>
				<time>2025-07-29T02:08:25.741Z</time>
			</trkpt>
			<trkpt lat="48.25843" lon="15.23409">
				<ele>358.27</ele>
				<time>2025-07-29T02:08:27.730Z</time>
			</trkpt>
			<trkpt lat="48.25852" lon="15.23423">
				<ele>356.28</ele>
				<time>2025-07-29T02:08:28.507Z</time>
			</trkpt>
			<trkpt lat="48.25867" lon="15.23429">
				<ele>355.32</ele>
				<time>2025-07-29T02:08:29.439Z</time>
			</trkpt>
			<trkpt lat="48.25885" lon="15.23427">
				<ele>354.58</ele>
				<time>2025-07-29T02:08:30.523Z</time>
			</trkpt>
			<trkpt lat="48.25903" lon="15.23413">
				<ele>354.34</ele>
				<time>2025-07-29T02:08:31.741Z</time>
			</trkpt>
			<trkpt lat="48.25914" lon="15.23413">
				<ele>352.77</ele>
				<time>2025-07-29T02:08:32.401Z</time>
			</trkpt>
			<trkpt lat="48.25934" lon="15.23432">
				<ele>350.88</ele>
				<time>2025-07-29T02:08:33.820Z</time>
			</trkpt>
			<trkpt lat="48.25945" lon="15.23435">
				<ele>350.82</ele>
				<time>2025-07-29T02:08:34.491Z</time>
			</trkpt>
			<trkpt lat="48.25985" lon="15.23418">
				<ele>357.09</ele>
				<time>2025-07-29T02:08:36.980Z</time>
			</trkpt>
			<trkpt lat="48.26011" lon="15.23415">
				<ele>361.96</ele>
				<time>2025-07-29T02:08:38.539Z</time>
			</trkpt>
			<trkpt lat="48.26031" lon="15.23418">
				<ele>365.43</ele>
				<time>2025-07-29T02:08:39.740Z</time>
			</trkpt>
			<trkpt lat="48.26042" lon="15.23424">
				<ele>367.18</ele>
				<time>2025-07-29T02:08:40.439Z</time>
			</trkpt>
			<trkpt lat="48.26055" lon="15.23433">
				<ele>369.7</ele>
				<time>2025-07-29T02:08:41.293Z</time>
			</trkpt>
			<trkpt lat="48.26131" lon="15.23524">
				<ele>377.93</ele>
				<time>2025-07-29T02:08:47.081Z</time>
			</trkpt>
			<trkpt lat="48.26154" lon="15.23562">
				<ele>380.35</ele>
				<time>2025-07-29T02:08:49.113Z</time>
			</trkpt>
			<trkpt lat="48.26167" lon="15.23592">
				<ele>381.62</ele>
				<time>2025-07-29T02:08:50.527Z</time>
			</trkpt>
			<trkpt lat="48.26183" lon="15.23624">
				<ele>381.74</ele>
				<time>2025-07-29T02:08:52.107Z</time>
			</trkpt>
			<trkpt lat="48.262" lon="15.23653">
				<ele>382.05</ele>
				<time>2025-07-29T02:08:53.631Z</time>
			</trkpt>
			<trkpt lat="48.26256" lon="15.2374">
				<ele>389.27</ele>
				<time>2025-07-29T02:08:58.395Z</time>
			</trkpt>
			<trkpt lat="48.26309" lon="15.23796">
				<ele>389.66</ele>
				<time>2025-07-29T02:09:02.217Z</time>
			</trkpt>
			<trkpt lat="48.26366" lon="15.23869">
				<ele>391.3</ele>
				<time>2025-07-29T02:09:06.626Z</time>
			</trkpt>
			<trkpt lat="48.26383" lon="15.23878">
				<ele>391.61</ele>
				<time>2025-07-29T02:09:07.685Z</time>
			</trkpt>
			<trkpt lat="48.26414" lon="15.23873">
				<ele>391.94</ele>
				<time>2025-07-29T02:09:09.516Z</time>
			</trkpt>
			<trkpt lat="48.26416" lon="15.23876">
				<ele>391.99</ele>
				<time>2025-07-29T02:09:09.682Z</time>
			</trkpt>
			<trkpt lat="48.26419" lon="15.2389">
				<ele>391.93</ele>
				<time>2025-07-29T02:09:10.256Z</time>
			</trkpt>
			<trkpt lat="48.26421" lon="15.23893">
				<ele>391.84</ele>
				<time>2025-07-29T02:09:10.422Z</time>
			</trkpt>
			<trkpt lat="48.26432" lon="15.23892">
				<ele>391.93</ele>
				<time>2025-07-29T02:09:11.069Z</time>
			</trkpt>
			<trkpt lat="48.26467" lon="15.23877">
				<ele>393.98</ele>
				<time>2025-07-29T02:09:13.202Z</time>
			</trkpt>
			<trkpt lat="48.26533" lon="15.23898">
				<ele>398.25</ele>
				<time>2025-07-29T02:09:17.151Z</time>
			</trkpt>
			<trkpt lat="48.26554" lon="15.23908">
				<ele>400.13</ele>
				<time>2025-07-29T02:09:18.439Z</time>
			</trkpt>
			<trkpt lat="48.26561" lon="15.23924">
				<ele>400.37</ele>
				<time>2025-07-29T02:09:19.184Z</time>
			</trkpt>
			<trkpt lat="48.26572" lon="15.23968">
				<ele>402.26</ele>
				<time>2025-07-29T02:09:21.010Z</time>
			</trkpt>
			<trkpt lat="48.26581" lon="15.24015">
				<ele>406.18</ele>
				<time>2025-07-29T02:09:22.910Z</time>
			</trkpt>
			<trkpt lat="48.26587" lon="15.24031">
				<ele>407.42</ele>
				<time>2025-07-29T02:09:23.623Z</time>
			</trkpt>
			<trkpt lat="48.26596" lon="15.24042">
				<ele>408.29</ele>
				<time>2025-07-29T02:09:24.299Z</time>
			</trkpt>
			<trkpt lat="48.26636" lon="15.24074">
				<ele>410.64</ele>
				<time>2025-07-29T02:09:26.939Z</time>
			</trkpt>
			<trkpt lat="48.26655" lon="15.24096">
				<ele>412.08</ele>
				<time>2025-07-29T02:09:28.335Z</time>
			</trkpt>
			<trkpt lat="48.26698" lon="15.2418">
				<ele>417.02</ele>
				<time>2025-07-29T02:09:32.435Z</time>
			</trkpt>
			<trkpt lat="48.26711" lon="15.24196">
				<ele>418.11</ele>
				<time>2025-07-29T02:09:33.411Z</time>
			</trkpt>
			<trkpt lat="48.26787" lon="15.24235">
				<ele>424.86</ele>
				<time>2025-07-29T02:09:38.069Z</time>
			</trkpt>
			<trkpt lat="48.26806" lon="15.24257">
				<ele>426.74</ele>
				<time>2025-07-29T02:09:39.459Z</time>
			</trkpt>
			<trkpt lat="48.26838" lon="15.24317">
				<ele>426.5</ele>
				<time>2025-07-29T02:09:42.421Z</time>
			</trkpt>
			<trkpt lat="48.26872" lon="15.24357">
				<ele>429.15</ele>
				<time>2025-07-29T02:09:44.918Z</time>
			</trkpt>
			<trkpt lat="48.2691" lon="15.24382">
				<ele>434.33</ele>
				<time>2025-07-29T02:09:47.315Z</time>
			</trkpt>
			<trkpt lat="48.26943" lon="15.24385">
				<ele>437.09</ele>
				<time>2025-07-29T02:09:49.224Z</time>
			</trkpt>
			<trkpt lat="48.26989" lon="15.24378">
				<ele>438.95</ele>
				<time>2025-07-29T02:09:51.892Z</time>
			</trkpt>
			<trkpt lat="48.2701" lon="15.24369">
				<ele>440.76</ele>
				<time>2025-07-29T02:09:53.151Z</time>
			</trkpt>
			<trkpt lat="48.27123" lon="15.24299">
				<ele>448.76</ele>
				<time>2025-07-29T02:10:00.190Z</time>
			</trkpt>
			<trkpt lat="48.27167" lon="15.24261">
				<ele>451.02</ele>
				<time>2025-07-29T02:10:03.109Z</time>
			</trkpt>
			<trkpt lat="48.27195" lon="15.24228">
				<ele>453.94</ele>
				<time>2025-07-29T02:10:05.154Z</time>
			</trkpt>
			<trkpt lat="48.27236" lon="15.24176">
				<ele>459.95</ele>
				<time>2025-07-29T02:10:08.236Z</time>
			</trkpt>
			<trkpt lat="48.27258" lon="15.24139">
				<ele>463.6</ele>
				<time>2025-07-29T02:10:10.132Z</time>
			</trkpt>
			<trkpt lat="48.27284" lon="15.24082">
				<ele>467.13</ele>
				<time>2025-07-29T02:10:12.771Z</time>
			</trkpt>
			<trkpt lat="48.27295" lon="15.2405">
				<ele>471.17</ele>
				<time>2025-07-29T02:10:14.146Z</time>
			</trkpt>
			<trkpt lat="48.27303" lon="15.24001">
				<ele>477.57</ele>
				<time>2025-07-29T02:10:16.071Z</time>
			</trkpt>
			<trkpt lat="48.27316" lon="15.23951">
				<ele>481.12</ele>
				<time>2025-07-29T02:10:18.119Z</time>
			</trkpt>
			<trkpt lat="48.27349" lon="15.23868">
				<ele>483.47</ele>
				<time>2025-07-29T02:10:21.805Z</time>
			</trkpt>
			<trkpt lat="48.27444" lon="15.23667">
				<ele>490.94</ele>
				<time>2025-07-29T02:10:31.196Z</time>
			</trkpt>
			<trkpt lat="48.27463" lon="15.23644">
				<ele>492.87</ele>
				<time>2025-07-29T02:10:32.592Z</time>
			</trkpt>
			<trkpt lat="48.27496" lon="15.2362">
				<ele>492.77</ele>
				<time>2025-07-29T02:10:34.689Z</time>
			</trkpt>
			<trkpt lat="48.27539" lon="15.23583">
				<ele>492.42</ele>
				<time>2025-07-29T02:10:37.522Z</time>
			</trkpt>
			<trkpt lat="48.27594" lon="15.23512">
				<ele>496.15</ele>
				<time>2025-07-29T02:10:41.667Z</time>
			</trkpt>
			<trkpt lat="48.27635" lon="15.23439">
				<ele>495.5</ele>
				<time>2025-07-29T02:10:45.301Z</time>
			</trkpt>
			<trkpt lat="48.27651" lon="15.23387">
				<ele>495.66</ele>
				<time>2025-07-29T02:10:47.480Z</time>
			</trkpt>
			<trkpt lat="48.27656" lon="15.23376">
				<ele>495.57</ele>
				<time>2025-07-29T02:10:47.986Z</time>
			</trkpt>
			<trkpt lat="48.27672" lon="15.23366">
				<ele>494.38</ele>
				<time>2025-07-29T02:10:48.976Z</time>
			</trkpt>
			<trkpt lat="48.27685" lon="15.23351">
				<ele>493.86</ele>
				<time>2025-07-29T02:10:49.913Z</time>
			</trkpt>
			<trkpt lat="48.27704" lon="15.23349">
				<ele>493.41</ele>
				<time>2025-07-29T02:10:51.002Z</time>
			</trkpt>
			<trkpt lat="48.27736" lon="15.2336">
				<ele>494.52</ele>
				<time>2025-07-29T02:10:52.878Z</time>
			</trkpt>
			<trkpt lat="48.27755" lon="15.23351">
				<ele>496.48</ele>
				<time>2025-07-29T02:10:54.016Z</time>
			</trkpt>
			<trkpt lat="48.27782" lon="15.23351">
				<ele>498.76</ele>
				<time>2025-07-29T02:10:55.559Z</time>
			</trkpt>
			<trkpt lat="48.27819" lon="15.23344">
				<ele>499.59</ele>
				<time>2025-07-29T02:10:57.691Z</time>
			</trkpt>
			<trkpt lat="48.27837" lon="15.23351">
				<ele>499.63</ele>
				<time>2025-07-29T02:10:58.753Z</time>
			</trkpt>
			<trkpt lat="48.27851" lon="15.23377">
				<ele>500.3</ele>
				<time>2025-07-29T02:11:00.026Z</time>
			</trkpt>
			<trkpt lat="48.27854" lon="15.23396">
				<ele>500.32</ele>
				<time>2025-07-29T02:11:00.769Z</time>
			</trkpt>
			<trkpt lat="48.27869" lon="15.23543">
				<ele>498.12</ele>
				<time>2025-07-29T02:11:06.428Z</time>
			</trkpt>
			<trkpt lat="48.27879" lon="15.23585">
				<ele>496.66</ele>
				<time>2025-07-29T02:11:08.125Z</time>
			</trkpt>
			<trkpt lat="48.27933" lon="15.23555">
				<ele>501.84</ele>
				<time>2025-07-29T02:11:11.419Z</time>
			</trkpt>
			<trkpt lat="48.27955" lon="15.23552">
				<ele>504.54</ele>
				<time>2025-07-29T02:11:12.683Z</time>
			</trkpt>
			<trkpt lat="48.28007" lon="15.23553">
				<ele>510.63</ele>
				<time>2025-07-29T02:11:15.660Z</time>
			</trkpt>
			<trkpt lat="48.28051" lon="15.23534">
				<ele>518.14</ele>
				<time>2025-07-29T02:11:18.281Z</time>
			</trkpt>
			<trkpt lat="48.28072" lon="15.23518">
				<ele>520.92</ele>
				<time>2025-07-29T02:11:19.630Z</time>
			</trkpt>
			<trkpt lat="48.28101" lon="15.23503">
				<ele>525.42</ele>
				<time>2025-07-29T02:11:21.387Z</time>
			</trkpt>
			<trkpt lat="48.2811" lon="15.23492">
				<ele>526.68</ele>
				<time>2025-07-29T02:11:22.052Z</time>
			</trkpt>
			<trkpt lat="48.28137" lon="15.23449">
				<ele>529.06</ele>
				<time>2025-07-29T02:11:24.307Z</time>
			</trkpt>
			<trkpt lat="48.28145" lon="15.23448">
				<ele>529.56</ele>
				<time>2025-07-29T02:11:24.768Z</time>
			</trkpt>
			<trkpt lat="48.2815" lon="15.23457">
				<ele>530.1</ele>
				<time>2025-07-29T02:11:25.215Z</time>
			</trkpt>
			<trkpt lat="48.28164" lon="15.23558">
				<ele>542.22</ele>
				<time>2025-07-29T02:11:29.153Z</time>
			</trkpt>
			<trkpt lat="48.28157" lon="15.23587">
				<ele>547.54</ele>
				<time>2025-07-29T02:11:30.332Z</time>
			</trkpt>
			<trkpt lat="48.28156" lon="15.23623">
				<ele>554.51</ele>
				<time>2025-07-29T02:11:31.708Z</time>
			</trkpt>
			<trkpt lat="48.28152" lon="15.23654">
				<ele>556.77</ele>
				<time>2025-07-29T02:11:32.915Z</time>
			</trkpt>
			<trkpt lat="48.28129" lon="15.23695">
				<ele>555.74</ele>
				<time>2025-07-29T02:11:34.965Z</time>
			</trkpt>
			<trkpt lat="48.28129" lon="15.23705">
				<ele>556.71</ele>
				<time>2025-07-29T02:11:35.347Z</time>
			</trkpt>
			<trkpt lat="48.28136" lon="15.23711">
				<ele>558</ele>
				<time>2025-07-29T02:11:35.811Z</time>
			</trkpt>
			<trkpt lat="48.28154" lon="15.23707">
				<ele>559.34</ele>
				<time>2025-07-29T02:11:36.857Z</time>
			</trkpt>
			<trkpt lat="48.28175" lon="15.23709">
				<ele>561.74</ele>
				<time>2025-07-29T02:11:38.066Z</time>
			</trkpt>
			<trkpt lat="48.28237" lon="15.23728">
				<ele>570.49</ele>
				<time>2025-07-29T02:11:41.707Z</time>
			</trkpt>
			<trkpt lat="48.28257" lon="15.23742">
				<ele>571.53</ele>
				<time>2025-07-29T02:11:42.977Z</time>
			</trkpt>
			<trkpt lat="48.28288" lon="15.23776">
				<ele>572.38</ele>
				<time>2025-07-29T02:11:45.188Z</time>
			</trkpt>
			<trkpt lat="48.2832" lon="15.23797">
				<ele>572.28</ele>
				<time>2025-07-29T02:11:47.201Z</time>
			</trkpt>
			<trkpt lat="48.28351" lon="15.23808">
				<ele>571.92</ele>
				<time>2025-07-29T02:11:49.038Z</time>
			</trkpt>
			<trkpt lat="48.2839" lon="15.23815">
				<ele>565.89</ele>
				<time>2025-07-29T02:11:51.303Z</time>
			</trkpt>
			<trkpt lat="48.28446" lon="15.23831">
				<ele>566.53</ele>
				<time>2025-07-29T02:11:54.587Z</time>
			</trkpt>
			<trkpt lat="48.28494" lon="15.23855">
				<ele>571.52</ele>
				<time>2025-07-29T02:11:57.498Z</time>
			</trkpt>
			<trkpt lat="48.28541" lon="15.23884">
				<ele>566.11</ele>
				<time>2025-07-29T02:12:00.419Z</time>
			</trkpt>
			<trkpt lat="48.28622" lon="15.23916">
				<ele>567.03</ele>
				<time>2025-07-29T02:12:05.228Z</time>
			</trkpt>
			<trkpt lat="48.28644" lon="15.23918">
				<ele>566.74</ele>
				<time>2025-07-29T02:12:06.492Z</time>
			</trkpt>
			<trkpt lat="48.28697" lon="15.23913">
				<ele>561.39</ele>
				<time>2025-07-29T02:12:09.538Z</time>
			</trkpt>
			<trkpt lat="48.28735" lon="15.23922">
				<ele>558.53</ele>
				<time>2025-07-29T02:12:11.743Z</time>
			</trkpt>
			<trkpt lat="48.28796" lon="15.2392">
				<ele>554.61</ele>
				<time>2025-07-29T02:12:15.238Z</time>
			</trkpt>
			<trkpt lat="48.28812" lon="15.23921">
				<ele>553.25</ele>
				<time>2025-07-29T02:12:16.155Z</time>
			</trkpt>
			<trkpt lat="48.28821" lon="15.23914">
				<ele>551.03</ele>
				<time>2025-07-29T02:12:16.736Z</time>
			</trkpt>
			<trkpt lat="48.28822" lon="15.23901">
				<ele>548.98</ele>
				<time>2025-07-29T02:12:17.234Z</time>
			</trkpt>
			<trkpt lat="48.28817" lon="15.23892">
				<ele>548.23</ele>
				<time>2025-07-29T02:12:17.681Z</time>
			</trkpt>
			<trkpt lat="48.28799" lon="15.23879">
				<ele>548.62</ele>
				<time>2025-07-29T02:12:18.824Z</time>
			</trkpt>
			<trkpt lat="48.28788" lon="15.23851">
				<ele>547</ele>
				<time>2025-07-29T02:12:20.063Z</time>
			</trkpt>
			<trkpt lat="48.28782" lon="15.23805">
				<ele>544.73</ele>
				<time>2025-07-29T02:12:21.848Z</time>
			</trkpt>
			<trkpt lat="48.28783" lon="15.23771">
				<ele>545.58</ele>
				<time>2025-07-29T02:12:23.144Z</time>
			</trkpt>
			<trkpt lat="48.28792" lon="15.23662">
				<ele>538.91</ele>
				<time>2025-07-29T02:12:27.327Z</time>
			</trkpt>
			<trkpt lat="48.28784" lon="15.23516">
				<ele>526.56</ele>
				<time>2025-07-29T02:12:32.906Z</time>
			</trkpt>
			<trkpt lat="48.28784" lon="15.23428">
				<ele>521.8</ele>
				<time>2025-07-29T02:12:36.258Z</time>
			</trkpt>
			<trkpt lat="48.2878" lon="15.23353">
				<ele>518.16</ele>
				<time>2025-07-29T02:12:39.126Z</time>
			</trkpt>
			<trkpt lat="48.28769" lon="15.23261">
				<ele>515.12</ele>
				<time>2025-07-29T02:12:42.689Z</time>
			</trkpt>
			<trkpt lat="48.28769" lon="15.23243">
				<ele>514.47</ele>
				<time>2025-07-29T02:12:43.376Z</time>
			</trkpt>
			<trkpt lat="48.28779" lon="15.23212">
				<ele>511.76</ele>
				<time>2025-07-29T02:12:44.690Z</time>
			</trkpt>
			<trkpt lat="48.28783" lon="15.23186">
				<ele>511.92</ele>
				<time>2025-07-29T02:12:45.708Z</time>
			</trkpt>
			<trkpt lat="48.28786" lon="15.23183">
				<ele>511.86</ele>
				<time>2025-07-29T02:12:45.915Z</time>
			</trkpt>
			<trkpt lat="48.28791" lon="15.23184">
				<ele>511.27</ele>
				<time>2025-07-29T02:12:46.204Z</time>
			</trkpt>
			<trkpt lat="48.28798" lon="15.23193">
				<ele>509.85</ele>
				<time>2025-07-29T02:12:46.732Z</time>
			</trkpt>
			<trkpt lat="48.28815" lon="15.23221">
				<ele>508.67</ele>
				<time>2025-07-29T02:12:48.179Z</time>
			</trkpt>
			<trkpt lat="48.28837" lon="15.23275">
				<ele>506.27</ele>
				<time>2025-07-29T02:12:50.598Z</time>
			</trkpt>
			<trkpt lat="48.28928" lon="15.23443">
				<ele>511.15</ele>
				<time>2025-07-29T02:12:58.884Z</time>
			</trkpt>
			<trkpt lat="48.29006" lon="15.23565">
				<ele>514.29</ele>
				<time>2025-07-29T02:13:05.374Z</time>
			</trkpt>
			<trkpt lat="48.29015" lon="15.23575">
				<ele>513.49</ele>
				<time>2025-07-29T02:13:06.020Z</time>
			</trkpt>
			<trkpt lat="48.29029" lon="15.23585">
				<ele>512.74</ele>
				<time>2025-07-29T02:13:06.915Z</time>
			</trkpt>
			<trkpt lat="48.29098" lon="15.23618">
				<ele>507.02</ele>
				<time>2025-07-29T02:13:11.101Z</time>
			</trkpt>
			<trkpt lat="48.29217" lon="15.23652">
				<ele>509.11</ele>
				<time>2025-07-29T02:13:18.125Z</time>
			</trkpt>
			<trkpt lat="48.29312" lon="15.23692">
				<ele>496.73</ele>
				<time>2025-07-29T02:13:23.866Z</time>
			</trkpt>
			<trkpt lat="48.29399" lon="15.23743">
				<ele>489.08</ele>
				<time>2025-07-29T02:13:29.321Z</time>
			</trkpt>
			<trkpt lat="48.29449" lon="15.23779">
				<ele>485.8</ele>
				<time>2025-07-29T02:13:32.574Z</time>
			</trkpt>
			<trkpt lat="48.29484" lon="15.23816">
				<ele>481.05</ele>
				<time>2025-07-29T02:13:35.093Z</time>
			</trkpt>
			<trkpt lat="48.29516" lon="15.23856">
				<ele>477.01</ele>
				<time>2025-07-29T02:13:37.549Z</time>
			</trkpt>
			<trkpt lat="48.2953" lon="15.23877">
				<ele>474.13</ele>
				<time>2025-07-29T02:13:38.718Z</time>
			</trkpt>
			<trkpt lat="48.29532" lon="15.23888">
				<ele>473</ele>
				<time>2025-07-29T02:13:39.167Z</time>
			</trkpt>
			<trkpt lat="48.29532" lon="15.239">
				<ele>472.14</ele>
				<time>2025-07-29T02:13:39.640Z</time>
			</trkpt>
			<trkpt lat="48.29528" lon="15.2391">
				<ele>471.43</ele>
				<time>2025-07-29T02:13:40.099Z</time>
			</trkpt>
			<trkpt lat="48.29521" lon="15.23919">
				<ele>470.44</ele>
				<time>2025-07-29T02:13:40.645Z</time>
			</trkpt>
			<trkpt lat="48.29496" lon="15.23937">
				<ele>467.25</ele>
				<time>2025-07-29T02:13:42.288Z</time>
			</trkpt>
			<trkpt lat="48.29488" lon="15.23946">
				<ele>465.14</ele>
				<time>2025-07-29T02:13:42.881Z</time>
			</trkpt>
			<trkpt lat="48.29486" lon="15.23952">
				<ele>464.29</ele>
				<time>2025-07-29T02:13:43.146Z</time>
			</trkpt>
			<trkpt lat="48.29488" lon="15.23969">
				<ele>462.95</ele>
				<time>2025-07-29T02:13:43.828Z</time>
			</trkpt>
			<trkpt lat="48.29491" lon="15.23977">
				<ele>462.57</ele>
				<time>2025-07-29T02:13:44.191Z</time>
			</trkpt>
			<trkpt lat="48.29528" lon="15.24022">
				<ele>459.37</ele>
				<time>2025-07-29T02:13:47.021Z</time>
			</trkpt>
			<trkpt lat="48.29551" lon="15.24038">
				<ele>458.15</ele>
				<time>2025-07-29T02:13:48.530Z</time>
			</trkpt>
			<trkpt lat="48.29563" lon="15.24038">
				<ele>458.32</ele>
				<time>2025-07-29T02:13:49.245Z</time>
			</trkpt>
			<trkpt lat="48.29578" lon="15.24033">
				<ele>458.75</ele>
				<time>2025-07-29T02:13:50.161Z</time>
			</trkpt>
			<trkpt lat="48.29604" lon="15.24018">
				<ele>456.78</ele>
				<time>2025-07-29T02:13:51.821Z</time>
			</trkpt>
			<trkpt lat="48.29619" lon="15.24005">
				<ele>456.51</ele>
				<time>2025-07-29T02:13:52.855Z</time>
			</trkpt>
			<trkpt lat="48.29633" lon="15.23987">
				<ele>457.28</ele>
				<time>2025-07-29T02:13:53.954Z</time>
			</trkpt>
			<trkpt lat="48.2964" lon="15.2398">
				<ele>457.73</ele>
				<time>2025-07-29T02:13:54.456Z</time>
			</trkpt>
			<trkpt lat="48.29657" lon="15.23975">
				<ele>458.01</ele>
				<time>2025-07-29T02:13:55.491Z</time>
			</trkpt>
			<trkpt lat="48.29695" lon="15.23987">
				<ele>459.98</ele>
				<time>2025-07-29T02:13:57.811Z</time>
			</trkpt>
			<trkpt lat="48.29714" lon="15.23988">
				<ele>463.09</ele>
				<time>2025-07-29T02:13:58.948Z</time>
			</trkpt>
			<trkpt lat="48.29732" lon="15.23983">
				<ele>464.93</ele>
				<time>2025-07-29T02:14:00.042Z</time>
			</trkpt>
			<trkpt lat="48.2976" lon="15.23964">
				<ele>466.56</ele>
				<time>2025-07-29T02:14:01.879Z</time>
			</trkpt>
			<trkpt lat="48.2977" lon="15.23971">
				<ele>466.02</ele>
				<time>2025-07-29T02:14:02.539Z</time>
			</trkpt>
			<trkpt lat="48.29781" lon="15.23986">
				<ele>465.2</ele>
				<time>2025-07-29T02:14:03.427Z</time>
			</trkpt>
			<trkpt lat="48.29787" lon="15.23997">
				<ele>464.37</ele>
				<time>2025-07-29T02:14:03.993Z</time>
			</trkpt>
			<trkpt lat="48.29804" lon="15.23986">
				<ele>463.55</ele>
				<time>2025-07-29T02:14:05.100Z</time>
			</trkpt>
			<trkpt lat="48.29906" lon="15.23891">
				<ele>456.25</ele>
				<time>2025-07-29T02:14:12.275Z</time>
			</trkpt>
			<trkpt lat="48.29945" lon="15.2385">
				<ele>456.02</ele>
				<time>2025-07-29T02:14:15.117Z</time>
			</trkpt>
			<trkpt lat="48.29973" lon="15.23817">
				<ele>455.55</ele>
				<time>2025-07-29T02:14:17.240Z</time>
			</trkpt>
			<trkpt lat="48.2999" lon="15.23789">
				<ele>454.89</ele>
				<time>2025-07-29T02:14:18.744Z</time>
			</trkpt>
			<trkpt lat="48.30038" lon="15.23701">
				<ele>462.91</ele>
				<time>2025-07-29T02:14:23.250Z</time>
			</trkpt>
			<trkpt lat="48.3006" lon="15.23666">
				<ele>461.82</ele>
				<time>2025-07-29T02:14:25.153Z</time>
			</trkpt>
			<trkpt lat="48.30075" lon="15.23645">
				<ele>459.74</ele>
				<time>2025-07-29T02:14:26.370Z</time>
			</trkpt>
			<trkpt lat="48.30127" lon="15.23592">
				<ele>453.58</ele>
				<time>2025-07-29T02:14:30.091Z</time>
			</trkpt>
			<trkpt lat="48.30134" lon="15.23581">
				<ele>452.97</ele>
				<time>2025-07-29T02:14:30.689Z</time>
			</trkpt>
			<trkpt lat="48.30147" lon="15.2355">
				<ele>454</ele>
				<time>2025-07-29T02:14:32.129Z</time>
			</trkpt>
			<trkpt lat="48.30153" lon="15.23543">
				<ele>454.35</ele>
				<time>2025-07-29T02:14:32.577Z</time>
			</trkpt>
			<trkpt lat="48.30159" lon="15.23542">
				<ele>454.42</ele>
				<time>2025-07-29T02:14:32.934Z</time>
			</trkpt>
			<trkpt lat="48.30165" lon="15.23544">
				<ele>454.16</ele>
				<time>2025-07-29T02:14:33.296Z</time>
			</trkpt>
			<trkpt lat="48.3017" lon="15.23549">
				<ele>453.93</ele>
				<time>2025-07-29T02:14:33.650Z</time>
			</trkpt>
			<trkpt lat="48.30187" lon="15.23578">
				<ele>452.04</ele>
				<time>2025-07-29T02:14:35.164Z</time>
			</trkpt>
			<trkpt lat="48.30205" lon="15.23602">
				<ele>451.53</ele>
				<time>2025-07-29T02:14:36.579Z</time>
			</trkpt>
			<trkpt lat="48.3022" lon="15.23615">
				<ele>452.37</ele>
				<time>2025-07-29T02:14:37.595Z</time>
			</trkpt>
			<trkpt lat="48.30239" lon="15.23625">
				<ele>453.45</ele>
				<time>2025-07-29T02:14:38.776Z</time>
			</trkpt>
			<trkpt lat="48.30251" lon="15.23628">
				<ele>454.18</ele>
				<time>2025-07-29T02:14:39.488Z</time>
			</trkpt>
			<trkpt lat="48.3027" lon="15.23627">
				<ele>454.95</ele>
				<time>2025-07-29T02:14:40.601Z</time>
			</trkpt>
			<trkpt lat="48.30299" lon="15.23636">
				<ele>454.29</ele>
				<time>2025-07-29T02:14:42.330Z</time>
			</trkpt>
			<trkpt lat="48.30326" lon="15.23639">
				<ele>455.44</ele>
				<time>2025-07-29T02:14:43.907Z</time>
			</trkpt>
			<trkpt lat="48.30339" lon="15.23647">
				<ele>454.73</ele>
				<time>2025-07-29T02:14:44.724Z</time>
			</trkpt>
			<trkpt lat="48.30365" lon="15.23694">
				<ele>448.63</ele>
				<time>2025-07-29T02:14:47.066Z</time>
			</trkpt>
			<trkpt lat="48.3038" lon="15.23729">
				<ele>446.63</ele>
				<time>2025-07-29T02:14:48.651Z</time>
			</trkpt>
			<trkpt lat="48.30394" lon="15.23771">
				<ele>443.12</ele>
				<time>2025-07-29T02:14:50.421Z</time>
			</trkpt>
			<trkpt lat="48.30417" lon="15.2387">
				<ele>433.6</ele>
				<time>2025-07-29T02:14:54.306Z</time>
			</trkpt>
			<trkpt lat="48.30425" lon="15.2389">
				<ele>430.45</ele>
				<time>2025-07-29T02:14:55.159Z</time>
			</trkpt>
			<trkpt lat="48.30432" lon="15.23898">
				<ele>429.41</ele>
				<time>2025-07-29T02:14:55.640Z</time>
			</trkpt>
			<trkpt lat="48.3044" lon="15.23901">
				<ele>428.74</ele>
				<time>2025-07-29T02:14:56.090Z</time>
			</trkpt>
			<trkpt lat="48.30453" lon="15.23898">
				<ele>428.91</ele>
				<time>2025-07-29T02:14:56.806Z</time>
			</trkpt>
			<trkpt lat="48.30553" lon="15.23852">
				<ele>428.89</ele>
				<time>2025-07-29T02:15:02.405Z</time>
			</trkpt>
			<trkpt lat="48.30561" lon="15.23851">
				<ele>429.82</ele>
				<time>2025-07-29T02:15:02.829Z</time>
			</trkpt>
			<trkpt lat="48.30571" lon="15.23856">
				<ele>430.5</ele>
				<time>2025-07-29T02:15:03.384Z</time>
			</trkpt>
			<trkpt lat="48.306" lon="15.2389">
				<ele>430.38</ele>
				<time>2025-07-29T02:15:05.310Z</time>
			</trkpt>
			<trkpt lat="48.30608" lon="15.23906">
				<ele>430.58</ele>
				<time>2025-07-29T02:15:06.003Z</time>
			</trkpt>
			<trkpt lat="48.30632" lon="15.2396">
				<ele>428.01</ele>
				<time>2025-07-29T02:15:08.240Z</time>
			</trkpt>
			<trkpt lat="48.30648" lon="15.2399">
				<ele>427.3</ele>
				<time>2025-07-29T02:15:09.556Z</time>
			</trkpt>
			<trkpt lat="48.30665" lon="15.24005">
				<ele>428.33</ele>
				<time>2025-07-29T02:15:10.566Z</time>
			</trkpt>
			<trkpt lat="48.30682" lon="15.24016">
				<ele>429.73</ele>
				<time>2025-07-29T02:15:11.512Z</time>
			</trkpt>
			<trkpt lat="48.30705" lon="15.2402">
				<ele>430.47</ele>
				<time>2025-07-29T02:15:12.691Z</time>
			</trkpt>
			<trkpt lat="48.30727" lon="15.24016">
				<ele>430.37</ele>
				<time>2025-07-29T02:15:13.816Z</time>
			</trkpt>
			<trkpt lat="48.30795" lon="15.23983">
				<ele>434.63</ele>
				<time>2025-07-29T02:15:17.424Z</time>
			</trkpt>
			<trkpt lat="48.30836" lon="15.23968">
				<ele>435.36</ele>
				<time>2025-07-29T02:15:19.543Z</time>
			</trkpt>
			<trkpt lat="48.30869" lon="15.23948">
				<ele>434.51</ele>
				<time>2025-07-29T02:15:21.326Z</time>
			</trkpt>
			<trkpt lat="48.30897" lon="15.23926">
				<ele>436.71</ele>
				<time>2025-07-29T02:15:22.907Z</time>
			</trkpt>
			<trkpt lat="48.30918" lon="15.239">
				<ele>438.41</ele>
				<time>2025-07-29T02:15:24.267Z</time>
			</trkpt>
			<trkpt lat="48.30959" lon="15.23813">
				<ele>433.45</ele>
				<time>2025-07-29T02:15:27.812Z</time>
			</trkpt>
			<trkpt lat="48.30975" lon="15.23756">
				<ele>436.01</ele>
				<time>2025-07-29T02:15:29.872Z</time>
			</trkpt>
			<trkpt lat="48.30984" lon="15.23749">
				<ele>436.19</ele>
				<time>2025-07-29T02:15:30.380Z</time>
			</trkpt>
			<trkpt lat="48.30999" lon="15.23749">
				<ele>435.04</ele>
				<time>2025-07-29T02:15:31.133Z</time>
			</trkpt>
			<trkpt lat="48.3102" lon="15.23744">
				<ele>433.36</ele>
				<time>2025-07-29T02:15:32.201Z</time>
			</trkpt>
			<trkpt lat="48.31043" lon="15.23722">
				<ele>433.24</ele>
				<time>2025-07-29T02:15:33.573Z</time>
			</trkpt>
			<trkpt lat="48.31071" lon="15.23664">
				<ele>438</ele>
				<time>2025-07-29T02:15:35.982Z</time>
			</trkpt>
			<trkpt lat="48.31091" lon="15.23605">
				<ele>442.82</ele>
				<time>2025-07-29T02:15:38.220Z</time>
			</trkpt>
			<trkpt lat="48.31097" lon="15.23573">
				<ele>445.28</ele>
				<time>2025-07-29T02:15:39.350Z</time>
			</trkpt>
			<trkpt lat="48.31123" lon="15.23508">
				<ele>447.86</ele>
				<time>2025-07-29T02:15:41.941Z</time>
			</trkpt>
			<trkpt lat="48.31176" lon="15.23423">
				<ele>437.13</ele>
				<time>2025-07-29T02:15:45.972Z</time>
			</trkpt>
			<trkpt lat="48.31203" lon="15.23395">
				<ele>432.42</ele>
				<time>2025-07-29T02:15:47.699Z</time>
			</trkpt>
			<trkpt lat="48.31229" lon="15.2338">
				<ele>425.21</ele>
				<time>2025-07-29T02:15:49.175Z</time>
			</trkpt>
			<trkpt lat="48.31284" lon="15.23358">
				<ele>413.58</ele>
				<time>2025-07-29T02:15:52.228Z</time>
			</trkpt>
			<trkpt lat="48.31322" lon="15.23355">
				<ele>406.23</ele>
				<time>2025-07-29T02:15:54.296Z</time>
			</trkpt>
			<trkpt lat="48.31358" lon="15.23331">
				<ele>403.05</ele>
				<time>2025-07-29T02:15:56.461Z</time>
			</trkpt>
			<trkpt lat="48.3139" lon="15.23325">
				<ele>397.75</ele>
				<time>2025-07-29T02:15:58.254Z</time>
			</trkpt>
			<trkpt lat="48.31416" lon="15.23331">
				<ele>393.3</ele>
				<time>2025-07-29T02:15:59.731Z</time>
			</trkpt>
			<trkpt lat="48.31424" lon="15.23349">
				<ele>392.31</ele>
				<time>2025-07-29T02:16:00.545Z</time>
			</trkpt>
			<trkpt lat="48.31436" lon="15.2339">
				<ele>393.81</ele>
				<time>2025-07-29T02:16:02.243Z</time>
			</trkpt>
			<trkpt lat="48.31487" lon="15.23355">
				<ele>394.35</ele>
				<time>2025-07-29T02:16:05.487Z</time>
			</trkpt>
			<trkpt lat="48.31554" lon="15.23317">
				<ele>396.83</ele>
				<time>2025-07-29T02:16:09.733Z</time>
			</trkpt>
			<trkpt lat="48.31594" lon="15.23299">
				<ele>399.96</ele>
				<time>2025-07-29T02:16:12.265Z</time>
			</trkpt>
			<trkpt lat="48.31661" lon="15.23276">
				<ele>404.07</ele>
				<time>2025-07-29T02:16:16.531Z</time>
			</trkpt>
			<trkpt lat="48.3169" lon="15.23267">
				<ele>403.88</ele>
				<time>2025-07-29T02:16:18.408Z</time>
			</trkpt>
			<trkpt lat="48.31706" lon="15.23258">
				<ele>403.36</ele>
				<time>2025-07-29T02:16:19.503Z</time>
			</trkpt>
			<trkpt lat="48.31714" lon="15.23253">
				<ele>402.99</ele>
				<time>2025-07-29T02:16:20.061Z</time>
			</trkpt>
			<trkpt lat="48.31736" lon="15.2323">
				<ele>403.22</ele>
				<time>2025-07-29T02:16:21.801Z</time>
			</trkpt>
			<trkpt lat="48.31747" lon="15.23208">
				<ele>402.8</ele>
				<time>2025-07-29T02:16:23.002Z</time>
			</trkpt>
			<trkpt lat="48.31753" lon="15.23193">
				<ele>402.69</ele>
				<time>2025-07-29T02:16:23.771Z</time>
			</trkpt>
			<trkpt lat="48.31761" lon="15.23197">
				<ele>404.59</ele>
				<time>2025-07-29T02:16:24.331Z</time>
			</trkpt>
			<trkpt lat="48.3177" lon="15.23196">
				<ele>406.55</ele>
				<time>2025-07-29T02:16:24.932Z</time>
			</trkpt>
			<trkpt lat="48.31779" lon="15.2319">
				<ele>408.16</ele>
				<time>2025-07-29T02:16:25.591Z</time>
			</trkpt>
			<trkpt lat="48.31786" lon="15.23179">
				<ele>409.53</ele>
				<time>2025-07-29T02:16:26.272Z</time>
			</trkpt>
			<trkpt lat="48.31793" lon="15.23163">
				<ele>410.69</ele>
				<time>2025-07-29T02:16:27.133Z</time>
			</trkpt>
			<trkpt lat="48.31818" lon="15.23112">
				<ele>413.39</ele>
				<time>2025-07-29T02:16:30.020Z</time>
			</trkpt>
			<trkpt lat="48.31861" lon="15.23046">
				<ele>421.5</ele>
				<time>2025-07-29T02:16:34.335Z</time>
			</trkpt>
			<trkpt lat="48.31865" lon="15.23041">
				<ele>422.21</ele>
				<time>2025-07-29T02:16:34.707Z</time>
			</trkpt>
			<trkpt lat="48.31873" lon="15.23037">
				<ele>423.76</ele>
				<time>2025-07-29T02:16:35.311Z</time>
			</trkpt>
			<trkpt lat="48.31879" lon="15.23041">
				<ele>425.58</ele>
				<time>2025-07-29T02:16:35.782Z</time>
			</trkpt>
			<trkpt lat="48.31882" lon="15.2305">
				<ele>427.12</ele>
				<time>2025-07-29T02:16:36.265Z</time>
			</trkpt>
			<trkpt lat="48.31882" lon="15.23062">
				<ele>427.93</ele>
				<time>2025-07-29T02:16:36.843Z</time>
			</trkpt>
			<trkpt lat="48.3187" lon="15.23124">
				<ele>428.69</ele>
				<time>2025-07-29T02:16:39.992Z</time>
			</trkpt>
			<trkpt lat="48.31867" lon="15.23155">
				<ele>430.25</ele>
				<time>2025-07-29T02:16:41.544Z</time>
			</trkpt>
			<trkpt lat="48.31866" lon="15.23176">
				<ele>431.3</ele>
				<time>2025-07-29T02:16:42.596Z</time>
			</trkpt>
			<trkpt lat="48.31869" lon="15.23192">
				<ele>432.19</ele>
				<time>2025-07-29T02:16:43.433Z</time>
			</trkpt>
			<trkpt lat="48.31875" lon="15.23199">
				<ele>433.81</ele>
				<time>2025-07-29T02:16:44.010Z</time>
			</trkpt>
			<trkpt lat="48.31883" lon="15.23201">
				<ele>435.73</ele>
				<time>2025-07-29T02:16:44.629Z</time>
			</trkpt>
			<trkpt lat="48.31892" lon="15.23195">
				<ele>437.76</ele>
				<time>2025-07-29T02:16:45.383Z</time>
			</trkpt>
			<trkpt lat="48.31901" lon="15.23181">
				<ele>439.65</ele>
				<time>2025-07-29T02:16:46.382Z</time>
			</trkpt>
			<trkpt lat="48.3194" lon="15.23093">
				<ele>445.65</ele>
				<time>2025-07-29T02:16:51.923Z</time>
			</trkpt>
			<trkpt lat="48.3196" lon="15.23053">
				<ele>448.42</ele>
				<time>2025-07-29T02:16:54.839Z</time>
			</trkpt>
			<trkpt lat="48.31976" lon="15.23026">
				<ele>451.92</ele>
				<time>2025-07-29T02:16:57.204Z</time>
			</trkpt>
			<trkpt lat="48.3199" lon="15.23009">
				<ele>454.31</ele>
				<time>2025-07-29T02:16:59.090Z</time>
			</trkpt>
			<trkpt lat="48.32011" lon="15.22989">
				<ele>457.54</ele>
				<time>2025-07-29T02:17:01.827Z</time>
			</trkpt>
			<trkpt lat="48.32032" lon="15.22961">
				<ele>460.56</ele>
				<time>2025-07-29T02:17:05.055Z</time>
			</trkpt>
			<trkpt lat="48.32041" lon="15.22936">
				<ele>461.47</ele>
				<time>2025-07-29T02:17:07.284Z</time>
			</trkpt>
			<trkpt lat="48.32052" lon="15.22895">
				<ele>462.01</ele>
				<time>2025-07-29T02:17:10.787Z</time>
			</trkpt>
			<trkpt lat="48.32056" lon="15.22884">
				<ele>462.07</ele>
				<time>2025-07-29T02:17:11.782Z</time>
			</trkpt>
			<trkpt lat="48.32064" lon="15.2287">
				<ele>462.45</ele>
				<time>2025-07-29T02:17:13.240Z</time>
			</trkpt>
			<trkpt lat="48.3207" lon="15.22863">
				<ele>462.55</ele>
				<time>2025-07-29T02:17:14.138Z</time>
			</trkpt>
			<trkpt lat="48.32081" lon="15.22853">
				<ele>462.92</ele>
				<time>2025-07-29T02:17:15.644Z</time>
			</trkpt>
			<trkpt lat="48.32087" lon="15.22849">
				<ele>463.7</ele>
				<time>2025-07-29T02:17:16.406Z</time>
			</trkpt>
			<trkpt lat="48.32099" lon="15.22849">
				<ele>465.92</ele>
				<time>2025-07-29T02:17:17.782Z</time>
			</trkpt>
			<trkpt lat="48.32096" lon="15.22885">
				<ele>466.25</ele>
				<time>2025-07-29T02:17:20.469Z</time>
			</trkpt>
			<trkpt lat="48.321" lon="15.22907">
				<ele>468.13</ele>
				<time>2025-07-29T02:17:22.089Z</time>
			</trkpt>
			<trkpt lat="48.32117" lon="15.22947">
				<ele>473.72</ele>
				<time>2025-07-29T02:17:25.246Z</time>
			</trkpt>
			<trkpt lat="48.32121" lon="15.22963">
				<ele>475.37</ele>
				<time>2025-07-29T02:17:26.299Z</time>
			</trkpt>
			<trkpt lat="48.32121" lon="15.22981">
				<ele>476.22</ele>
				<time>2025-07-29T02:17:27.352Z</time>
			</trkpt>
			<trkpt lat="48.32115" lon="15.23023">
				<ele>476.25</ele>
				<time>2025-07-29T02:17:29.627Z</time>
			</trkpt>
			<trkpt lat="48.32117" lon="15.23044">
				<ele>477.32</ele>
				<time>2025-07-29T02:17:30.681Z</time>
			</trkpt>
			<trkpt lat="48.32125" lon="15.23065">
				<ele>479.32</ele>
				<time>2025-07-29T02:17:31.856Z</time>
			</trkpt>
			<trkpt lat="48.32141" lon="15.23096">
				<ele>481.52</ele>
				<time>2025-07-29T02:17:33.701Z</time>
			</trkpt>
			<trkpt lat="48.32155" lon="15.23114">
				<ele>482.04</ele>
				<time>2025-07-29T02:17:34.960Z</time>
			</trkpt>
			<trkpt lat="48.32167" lon="15.2312">
				<ele>482.92</ele>
				<time>2025-07-29T02:17:35.806Z</time>
			</trkpt>
			<trkpt lat="48.32232" lon="15.23118">
				<ele>493.29</ele>
				<time>2025-07-29T02:17:39.927Z</time>
			</trkpt>
			<trkpt lat="48.32247" lon="15.23122">
				<ele>493.91</ele>
				<time>2025-07-29T02:17:40.844Z</time>
			</trkpt>
			<trkpt lat="48.32271" lon="15.23133">
				<ele>496.55</ele>
				<time>2025-07-29T02:17:42.319Z</time>
			</trkpt>
			<trkpt lat="48.32282" lon="15.23134">
				<ele>498.35</ele>
				<time>2025-07-29T02:17:42.955Z</time>
			</trkpt>
			<trkpt lat="48.32288" lon="15.23127">
				<ele>500.43</ele>
				<time>2025-07-29T02:17:43.388Z</time>
			</trkpt>
			<trkpt lat="48.32287" lon="15.23119">
				<ele>501.75</ele>
				<time>2025-07-29T02:17:43.695Z</time>
			</trkpt>
			<trkpt lat="48.32279" lon="15.23108">
				<ele>502.76</ele>
				<time>2025-07-29T02:17:44.304Z</time>
			</trkpt>
			<trkpt lat="48.32234" lon="15.2307">
				<ele>503.75</ele>
				<time>2025-07-29T02:17:47.128Z</time>
			</trkpt>
			<trkpt lat="48.32222" lon="15.23058">
				<ele>503.66</ele>
				<time>2025-07-29T02:17:47.897Z</time>
			</trkpt>
			<trkpt lat="48.32211" lon="15.23041">
				<ele>502.55</ele>
				<time>2025-07-29T02:17:48.730Z</time>
			</trkpt>
			<trkpt lat="48.32207" lon="15.23025">
				<ele>502.83</ele>
				<time>2025-07-29T02:17:49.326Z</time>
			</trkpt>
			<trkpt lat="48.32209" lon="15.23015">
				<ele>504.26</ele>
				<time>2025-07-29T02:17:49.689Z</time>
			</trkpt>
			<trkpt lat="48.32215" lon="15.23013">
				<ele>506.55</ele>
				<time>2025-07-29T02:17:50.009Z</time>
			</trkpt>
			<trkpt lat="48.32234" lon="15.23038">
				<ele>509.4</ele>
				<time>2025-07-29T02:17:51.315Z</time>
			</trkpt>
			<trkpt lat="48.32243" lon="15.23042">
				<ele>510.82</ele>
				<time>2025-07-29T02:17:51.798Z</time>
			</trkpt>
			<trkpt lat="48.32266" lon="15.23038">
				<ele>516.17</ele>
				<time>2025-07-29T02:17:52.986Z</time>
			</trkpt>
			<trkpt lat="48.32282" lon="15.23039">
				<ele>519.39</ele>
				<time>2025-07-29T02:17:53.805Z</time>
			</trkpt>
			<trkpt lat="48.3232" lon="15.23048">
				<ele>524.56</ele>
				<time>2025-07-29T02:17:55.776Z</time>
			</trkpt>
			<trkpt lat="48.32428" lon="15.23069">
				<ele>534.33</ele>
				<time>2025-07-29T02:18:01.501Z</time>
			</trkpt>
			<trkpt lat="48.32484" lon="15.23067">
				<ele>538.46</ele>
				<time>2025-07-29T02:18:04.621Z</time>
			</trkpt>
			<trkpt lat="48.32689" lon="15.23051">
				<ele>570.04</ele>
				<time>2025-07-29T02:18:16.425Z</time>
			</trkpt>
			<trkpt lat="48.32889" lon="15.23049">
				<ele>585.53</ele>
				<time>2025-07-29T02:18:27.914Z</time>
			</trkpt>
			<trkpt lat="48.32941" lon="15.23052">
				<ele>592.71</ele>
				<time>2025-07-29T02:18:30.902Z</time>
			</trkpt>
			<trkpt lat="48.32991" lon="15.23062">
				<ele>596.78</ele>
				<time>2025-07-29T02:18:33.797Z</time>
			</trkpt>
			<trkpt lat="48.33058" lon="15.23066">
				<ele>603.9</ele>
				<time>2025-07-29T02:18:37.645Z</time>
			</trkpt>
			<trkpt lat="48.3309" lon="15.23075">
				<ele>607.22</ele>
				<time>2025-07-29T02:18:39.513Z</time>
			</trkpt>
			<trkpt lat="48.33104" lon="15.23082">
				<ele>607.2</ele>
				<time>2025-07-29T02:18:40.360Z</time>
			</trkpt>
			<trkpt lat="48.33199" lon="15.23148">
				<ele>615.9</ele>
				<time>2025-07-29T02:18:46.362Z</time>
			</trkpt>
			<trkpt lat="48.33206" lon="15.23148">
				<ele>617.15</ele>
				<time>2025-07-29T02:18:46.764Z</time>
			</trkpt>
			<trkpt lat="48.3321" lon="15.23141">
				<ele>618.2</ele>
				<time>2025-07-29T02:18:47.115Z</time>
			</trkpt>
			<trkpt lat="48.3321" lon="15.2313">
				<ele>619.21</ele>
				<time>2025-07-29T02:18:47.535Z</time>
			</trkpt>
			<trkpt lat="48.33205" lon="15.23115">
				<ele>620.1</ele>
				<time>2025-07-29T02:18:48.175Z</time>
			</trkpt>
			<trkpt lat="48.33195" lon="15.23097">
				<ele>621.03</ele>
				<time>2025-07-29T02:18:49.069Z</time>
			</trkpt>
			<trkpt lat="48.33165" lon="15.23063">
				<ele>622.72</ele>
				<time>2025-07-29T02:18:51.223Z</time>
			</trkpt>
			<trkpt lat="48.33161" lon="15.23054">
				<ele>624.11</ele>
				<time>2025-07-29T02:18:51.635Z</time>
			</trkpt>
			<trkpt lat="48.33161" lon="15.23045">
				<ele>627.01</ele>
				<time>2025-07-29T02:18:51.979Z</time>
			</trkpt>
			<trkpt lat="48.33167" lon="15.23041">
				<ele>629.46</ele>
				<time>2025-07-29T02:18:52.355Z</time>
			</trkpt>
			<trkpt lat="48.33188" lon="15.23052">
				<ele>629.77</ele>
				<time>2025-07-29T02:18:53.630Z</time>
			</trkpt>
			<trkpt lat="48.33323" lon="15.23098">
				<ele>644.91</ele>
				<time>2025-07-29T02:19:01.565Z</time>
			</trkpt>
			<trkpt lat="48.33391" lon="15.23125">
				<ele>651.46</ele>
				<time>2025-07-29T02:19:05.595Z</time>
			</trkpt>
			<trkpt lat="48.3342" lon="15.23138">
				<ele>655.54</ele>
				<time>2025-07-29T02:19:07.329Z</time>
			</trkpt>
			<trkpt lat="48.33426" lon="15.23135">
				<ele>656.7</ele>
				<time>2025-07-29T02:19:07.692Z</time>
			</trkpt>
			<trkpt lat="48.33428" lon="15.23127">
				<ele>657.93</ele>
				<time>2025-07-29T02:19:08.017Z</time>
			</trkpt>
			<trkpt lat="48.33426" lon="15.23115">
				<ele>658.85</ele>
				<time>2025-07-29T02:19:08.489Z</time>
			</trkpt>
			<trkpt lat="48.33362" lon="15.23047">
				<ele>658.22</ele>
				<time>2025-07-29T02:19:12.979Z</time>
			</trkpt>
			<trkpt lat="48.33358" lon="15.23037">
				<ele>660.34</ele>
				<time>2025-07-29T02:19:13.423Z</time>
			</trkpt>
			<trkpt lat="48.33359" lon="15.23028">
				<ele>662.65</ele>
				<time>2025-07-29T02:19:13.771Z</time>
			</trkpt>
			<trkpt lat="48.33364" lon="15.23026">
				<ele>663.51</ele>
				<time>2025-07-29T02:19:14.067Z</time>
			</trkpt>
			<trkpt lat="48.33401" lon="15.23042">
				<ele>664.58</ele>
				<time>2025-07-29T02:19:16.273Z</time>
			</trkpt>
			<trkpt lat="48.33455" lon="15.23054">
				<ele>675.22</ele>
				<time>2025-07-29T02:19:19.401Z</time>
			</trkpt>
			<trkpt lat="48.33547" lon="15.23088">
				<ele>677.32</ele>
				<time>2025-07-29T02:19:24.828Z</time>
			</trkpt>
			<trkpt lat="48.33603" lon="15.23105">
				<ele>675.14</ele>
				<time>2025-07-29T02:19:28.102Z</time>
			</trkpt>
			<trkpt lat="48.33689" lon="15.2314">
				<ele>681.24</ele>
				<time>2025-07-29T02:19:33.206Z</time>
			</trkpt>
			<trkpt lat="48.33743" lon="15.23168">
				<ele>686.77</ele>
				<time>2025-07-29T02:19:36.479Z</time>
			</trkpt>
			<trkpt lat="48.33752" lon="15.2317">
				<ele>688.66</ele>
				<time>2025-07-29T02:19:37.000Z</time>
			</trkpt>
			<trkpt lat="48.33756" lon="15.23167">
				<ele>689.63</ele>
				<time>2025-07-29T02:19:37.256Z</time>
			</trkpt>
			<trkpt lat="48.33757" lon="15.23158">
				<ele>690.06</ele>
				<time>2025-07-29T02:19:37.604Z</time>
			</trkpt>
			<trkpt lat="48.33752" lon="15.23143">
				<ele>689.36</ele>
				<time>2025-07-29T02:19:38.243Z</time>
			</trkpt>
			<trkpt lat="48.33706" lon="15.23053">
				<ele>692.18</ele>
				<time>2025-07-29T02:19:42.567Z</time>
			</trkpt>
			<trkpt lat="48.33696" lon="15.23038">
				<ele>694.16</ele>
				<time>2025-07-29T02:19:43.377Z</time>
			</trkpt>
			<trkpt lat="48.33657" lon="15.22992">
				<ele>700.52</ele>
				<time>2025-07-29T02:19:46.217Z</time>
			</trkpt>
			<trkpt lat="48.33608" lon="15.22919">
				<ele>704.85</ele>
				<time>2025-07-29T02:19:50.169Z</time>
			</trkpt>
			<trkpt lat="48.33588" lon="15.22899">
				<ele>711.09</ele>
				<time>2025-07-29T02:19:51.546Z</time>
			</trkpt>
			<trkpt lat="48.33565" lon="15.22879">
				<ele>722.72</ele>
				<time>2025-07-29T02:19:53.069Z</time>
			</trkpt>
			<trkpt lat="48.3356" lon="15.22871">
				<ele>725.81</ele>
				<time>2025-07-29T02:19:53.487Z</time>
			</trkpt>
			<trkpt lat="48.33561" lon="15.22862">
				<ele>727.04</ele>
				<time>2025-07-29T02:19:53.835Z</time>
			</trkpt>
			<trkpt lat="48.33563" lon="15.22858">
				<ele>726.95</ele>
				<time>2025-07-29T02:19:54.026Z</time>
			</trkpt>
			<trkpt lat="48.33572" lon="15.22854">
				<ele>725.41</ele>
				<time>2025-07-29T02:19:54.564Z</time>
			</trkpt>
			<trkpt lat="48.3363" lon="15.2285">
				<ele>722.34</ele>
				<time>2025-07-29T02:19:57.892Z</time>
			</trkpt>
			<trkpt lat="48.3375" lon="15.22834">
				<ele>736.71</ele>
				<time>2025-07-29T02:20:04.801Z</time>
			</trkpt>
			<trkpt lat="48.33861" lon="15.22823">
				<ele>753.43</ele>
				<time>2025-07-29T02:20:11.182Z</time>
			</trkpt>
			<trkpt lat="48.33897" lon="15.22822">
				<ele>755.52</ele>
				<time>2025-07-29T02:20:13.248Z</time>
			</trkpt>
			<trkpt lat="48.33922" lon="15.22829">
				<ele>754.78</ele>
				<time>2025-07-29T02:20:14.707Z</time>
			</trkpt>
			<trkpt lat="48.3395" lon="15.22844">
				<ele>754.95</ele>
				<time>2025-07-29T02:20:16.413Z</time>
			</trkpt>
			<trkpt lat="48.33995" lon="15.22861">
				<ele>759.91</ele>
				<time>2025-07-29T02:20:19.076Z</time>
			</trkpt>
			<trkpt lat="48.34005" lon="15.22861">
				<ele>761.42</ele>
				<time>2025-07-29T02:20:19.650Z</time>
			</trkpt>
			<trkpt lat="48.34023" lon="15.22844">
				<ele>766.21</ele>
				<time>2025-07-29T02:20:20.870Z</time>
			</trkpt>
			<trkpt lat="48.34031" lon="15.22839">
				<ele>768.1</ele>
				<time>2025-07-29T02:20:21.367Z</time>
			</trkpt>
			<trkpt lat="48.34052" lon="15.22833">
				<ele>771.56</ele>
				<time>2025-07-29T02:20:22.595Z</time>
			</trkpt>
			<trkpt lat="48.34075" lon="15.2283">
				<ele>773.18</ele>
				<time>2025-07-29T02:20:23.920Z</time>
			</trkpt>
			<trkpt lat="48.34093" lon="15.22832">
				<ele>774.21</ele>
				<time>2025-07-29T02:20:24.957Z</time>
			</trkpt>
			<trkpt lat="48.34104" lon="15.22836">
				<ele>774.69</ele>
				<time>2025-07-29T02:20:25.607Z</time>
			</trkpt>
			<trkpt lat="48.34176" lon="15.22874">
				<ele>776.3</ele>
				<time>2025-07-29T02:20:29.990Z</time>
			</trkpt>
			<trkpt lat="48.34194" lon="15.22888">
				<ele>779.11</ele>
				<time>2025-07-29T02:20:31.154Z</time>
			</trkpt>
			<trkpt lat="48.34237" lon="15.22939">
				<ele>784.83</ele>
				<time>2025-07-29T02:20:34.301Z</time>
			</trkpt>
			<trkpt lat="48.34275" lon="15.22966">
				<ele>788.69</ele>
				<time>2025-07-29T02:20:36.716Z</time>
			</trkpt>
			<trkpt lat="48.34326" lon="15.2299">
				<ele>798.16</ele>
				<time>2025-07-29T02:20:39.789Z</time>
			</trkpt>
			<trkpt lat="48.34388" lon="15.23024">
				<ele>805.47</ele>
				<time>2025-07-29T02:20:43.584Z</time>
			</trkpt>
			<trkpt lat="48.34507" lon="15.23084">
				<ele>816.09</ele>
				<time>2025-07-29T02:20:50.807Z</time>
			</trkpt>
			<trkpt lat="48.34543" lon="15.23094">
				<ele>819.01</ele>
				<time>2025-07-29T02:20:52.915Z</time>
			</trkpt>
			<trkpt lat="48.34598" lon="15.23096">
				<ele>824.01</ele>
				<time>2025-07-29T02:20:56.084Z</time>
			</trkpt>
			<trkpt lat="48.34621" lon="15.23106">
				<ele>826.64</ele>
				<time>2025-07-29T02:20:57.463Z</time>
			</trkpt>
			<trkpt lat="48.34645" lon="15.23128">
				<ele>827.35</ele>
				<time>2025-07-29T02:20:59.082Z</time>
			</trkpt>
			<trkpt lat="48.34689" lon="15.23177">
				<ele>828.52</ele>
				<time>2025-07-29T02:21:02.238Z</time>
			</trkpt>
			<trkpt lat="48.34771" lon="15.23243">
				<ele>836.04</ele>
				<time>2025-07-29T02:21:07.601Z</time>
			</trkpt>
			<trkpt lat="48.34783" lon="15.23255">
				<ele>836.61</ele>
				<time>2025-07-29T02:21:08.432Z</time>
			</trkpt>
			<trkpt lat="48.34792" lon="15.2327">
				<ele>837.34</ele>
				<time>2025-07-29T02:21:09.207Z</time>
			</trkpt>
			<trkpt lat="48.34798" lon="15.2329">
				<ele>837.72</ele>
				<time>2025-07-29T02:21:10.049Z</time>
			</trkpt>
			<trkpt lat="48.34807" lon="15.23356">
				<ele>839.05</ele>
				<time>2025-07-29T02:21:12.633Z</time>
			</trkpt>
			<trkpt lat="48.3481" lon="15.23408">
				<ele>842.48</ele>
				<time>2025-07-29T02:21:14.636Z</time>
			</trkpt>
			<trkpt lat="48.34809" lon="15.2344">
				<ele>844.23</ele>
				<time>2025-07-29T02:21:15.866Z</time>
			</trkpt>
			<trkpt lat="48.34806" lon="15.23463">
				<ele>844.81</ele>
				<time>2025-07-29T02:21:16.766Z</time>
			</trkpt>
			<trkpt lat="48.34788" lon="15.23563">
				<ele>848.39</ele>
				<time>2025-07-29T02:21:20.744Z</time>
			</trkpt>
			<trkpt lat="48.34787" lon="15.23583">
				<ele>849.36</ele>
				<time>2025-07-29T02:21:21.515Z</time>
			</trkpt>
			<trkpt lat="48.34788" lon="15.23601">
				<ele>850.35</ele>
				<time>2025-07-29T02:21:22.209Z</time>
			</trkpt>
			<trkpt lat="48.34794" lon="15.23615">
				<ele>850.9</ele>
				<time>2025-07-29T02:21:22.849Z</time>
			</trkpt>
			<trkpt lat="48.34781" lon="15.23633">
				<ele>848.61</ele>
				<time>2025-07-29T02:21:23.870Z</time>
			</trkpt>
			<trkpt lat="48.34722" lon="15.23685">
				<ele>843.31</ele>
				<time>2025-07-29T02:21:27.826Z</time>
			</trkpt>
			<trkpt lat="48.34695" lon="15.23703">
				<ele>839.14</ele>
				<time>2025-07-29T02:21:29.535Z</time>
			</trkpt>
			<trkpt lat="48.34681" lon="15.23709">
				<ele>838.79</ele>
				<time>2025-07-29T02:21:30.377Z</time>
			</trkpt>
			<trkpt lat="48.3465" lon="15.23713">
				<ele>839.26</ele>
				<time>2025-07-29T02:21:32.179Z</time>
			</trkpt>
			<trkpt lat="48.3461" lon="15.23715">
				<ele>841.19</ele>
				<time>2025-07-29T02:21:34.497Z</time>
			</trkpt>
			<trkpt lat="48.34564" lon="15.23721">
				<ele>840.2</ele>
				<time>2025-07-29T02:21:37.172Z</time>
			</trkpt>
			<trkpt lat="48.34468" lon="15.23724">
				<ele>845.39</ele>
				<time>2025-07-29T02:21:42.739Z</time>
			</trkpt>
			<trkpt lat="48.34441" lon="15.23728">
				<ele>846.53</ele>
				<time>2025-07-29T02:21:44.313Z</time>
			</trkpt>
			<trkpt lat="48.34344" lon="15.23758">
				<ele>848.47</ele>
				<time>2025-07-29T02:21:50.063Z</time>
			</trkpt>
			<trkpt lat="48.34321" lon="15.23773">
				<ele>846.85</ele>
				<time>2025-07-29T02:21:51.519Z</time>
			</trkpt>
			<trkpt lat="48.3425" lon="15.23835">
				<ele>846.35</ele>
				<time>2025-07-29T02:21:56.291Z</time>
			</trkpt>
			<trkpt lat="48.34236" lon="15.23851">
				<ele>845.84</ele>
				<time>2025-07-29T02:21:57.313Z</time>
			</trkpt>
			<trkpt lat="48.34228" lon="15.23866">
				<ele>845.81</ele>
				<time>2025-07-29T02:21:58.057Z</time>
			</trkpt>
			<trkpt lat="48.34211" lon="15.23931">
				<ele>844.59</ele>
				<time>2025-07-29T02:22:00.759Z</time>
			</trkpt>
			<trkpt lat="48.34184" lon="15.2406">
				<ele>845.57</ele>
				<time>2025-07-29T02:22:05.994Z</time>
			</trkpt>
			<trkpt lat="48.34167" lon="15.24105">
				<ele>845.77</ele>
				<time>2025-07-29T02:22:07.999Z</time>
			</trkpt>
			<trkpt lat="48.34157" lon="15.24121">
				<ele>844.77</ele>
				<time>2025-07-29T02:22:08.850Z</time>
			</trkpt>
			<trkpt lat="48.34133" lon="15.24142">
				<ele>842.62</ele>
				<time>2025-07-29T02:22:10.470Z</time>
			</trkpt>
			<trkpt lat="48.3411" lon="15.24156">
				<ele>841.23</ele>
				<time>2025-07-29T02:22:11.918Z</time>
			</trkpt>
			<trkpt lat="48.34094" lon="15.24166">
				<ele>840.73</ele>
				<time>2025-07-29T02:22:12.930Z</time>
			</trkpt>
			<trkpt lat="48.34055" lon="15.24175">
				<ele>838.66</ele>
				<time>2025-07-29T02:22:15.234Z</time>
			</trkpt>
			<trkpt lat="48.33875" lon="15.24176">
				<ele>839.61</ele>
				<time>2025-07-29T02:22:25.770Z</time>
			</trkpt>
			<trkpt lat="48.3385" lon="15.24179">
				<ele>839.29</ele>
				<time>2025-07-29T02:22:27.241Z</time>
			</trkpt>
			<trkpt lat="48.33832" lon="15.24187">
				<ele>838.49</ele>
				<time>2025-07-29T02:22:28.342Z</time>
			</trkpt>
			<trkpt lat="48.33822" lon="15.24199">
				<ele>837.08</ele>
				<time>2025-07-29T02:22:29.092Z</time>
			</trkpt>
			<trkpt lat="48.33815" lon="15.2422">
				<ele>835.76</ele>
				<time>2025-07-29T02:22:30.009Z</time>
			</trkpt>
			<trkpt lat="48.33813" lon="15.24247">
				<ele>833.71</ele>
				<time>2025-07-29T02:22:31.069Z</time>
			</trkpt>
			<trkpt lat="48.33814" lon="15.24286">
				<ele>829.54</ele>
				<time>2025-07-29T02:22:32.592Z</time>
			</trkpt>
			<trkpt lat="48.33822" lon="15.24325">
				<ele>825.9</ele>
				<time>2025-07-29T02:22:34.186Z</time>
			</trkpt>
			<trkpt lat="48.33834" lon="15.24358">
				<ele>823.79</ele>
				<time>2025-07-29T02:22:35.655Z</time>
			</trkpt>
			<trkpt lat="48.33845" lon="15.24379">
				<ele>822.53</ele>
				<time>2025-07-29T02:22:36.700Z</time>
			</trkpt>
			<trkpt lat="48.33955" lon="15.24539">
				<ele>806.04</ele>
				<time>2025-07-29T02:22:45.706Z</time>
			</trkpt>
			<trkpt lat="48.33972" lon="15.24558">
				<ele>804.28</ele>
				<time>2025-07-29T02:22:46.954Z</time>
			</trkpt>
			<trkpt lat="48.33987" lon="15.2457">
				<ele>803.77</ele>
				<time>2025-07-29T02:22:47.955Z</time>
			</trkpt>
			<trkpt lat="48.33992" lon="15.24579">
				<ele>802.23</ele>
				<time>2025-07-29T02:22:48.415Z</time>
			</trkpt>
			<trkpt lat="48.33993" lon="15.24588">
				<ele>799.97</ele>
				<time>2025-07-29T02:22:48.772Z</time>
			</trkpt>
			<trkpt lat="48.3399" lon="15.24595">
				<ele>797.81</ele>
				<time>2025-07-29T02:22:49.099Z</time>
			</trkpt>
			<trkpt lat="48.33983" lon="15.24598">
				<ele>796.33</ele>
				<time>2025-07-29T02:22:49.528Z</time>
			</trkpt>
			<trkpt lat="48.33941" lon="15.24588">
				<ele>794.86</ele>
				<time>2025-07-29T02:22:52.036Z</time>
			</trkpt>
			<trkpt lat="48.33871" lon="15.24577">
				<ele>785.55</ele>
				<time>2025-07-29T02:22:56.191Z</time>
			</trkpt>
			<trkpt lat="48.33843" lon="15.24569">
				<ele>780.08</ele>
				<time>2025-07-29T02:22:57.874Z</time>
			</trkpt>
			<trkpt lat="48.3382" lon="15.24558">
				<ele>777.28</ele>
				<time>2025-07-29T02:22:59.300Z</time>
			</trkpt>
			<trkpt lat="48.33741" lon="15.24513">
				<ele>767.6</ele>
				<time>2025-07-29T02:23:04.293Z</time>
			</trkpt>
			<trkpt lat="48.33725" lon="15.24502">
				<ele>767.07</ele>
				<time>2025-07-29T02:23:05.334Z</time>
			</trkpt>
			<trkpt lat="48.33713" lon="15.245">
				<ele>766.63</ele>
				<time>2025-07-29T02:23:06.048Z</time>
			</trkpt>
			<trkpt lat="48.33675" lon="15.245">
				<ele>764.59</ele>
				<time>2025-07-29T02:23:08.296Z</time>
			</trkpt>
			<trkpt lat="48.33653" lon="15.24495">
				<ele>763.41</ele>
				<time>2025-07-29T02:23:09.613Z</time>
			</trkpt>
			<trkpt lat="48.33625" lon="15.24494">
				<ele>761.04</ele>
				<time>2025-07-29T02:23:11.271Z</time>
			</trkpt>
			<trkpt lat="48.33598" lon="15.2449">
				<ele>759.06</ele>
				<time>2025-07-29T02:23:12.878Z</time>
			</trkpt>
			<trkpt lat="48.33581" lon="15.24499">
				<ele>757.06</ele>
				<time>2025-07-29T02:23:13.945Z</time>
			</trkpt>
			<trkpt lat="48.33548" lon="15.24525">
				<ele>754.08</ele>
				<time>2025-07-29T02:23:16.152Z</time>
			</trkpt>
			<trkpt lat="48.33537" lon="15.24545">
				<ele>751.39</ele>
				<time>2025-07-29T02:23:17.175Z</time>
			</trkpt>
			<trkpt lat="48.33518" lon="15.24592">
				<ele>744.59</ele>
				<time>2025-07-29T02:23:19.342Z</time>
			</trkpt>
			<trkpt lat="48.33472" lon="15.24678">
				<ele>737.24</ele>
				<time>2025-07-29T02:23:23.693Z</time>
			</trkpt>
			<trkpt lat="48.33449" lon="15.24735">
				<ele>735.55</ele>
				<time>2025-07-29T02:23:26.323Z</time>
			</trkpt>
			<trkpt lat="48.33441" lon="15.24764">
				<ele>733.4</ele>
				<time>2025-07-29T02:23:27.561Z</time>
			</trkpt>
			<trkpt lat="48.33435" lon="15.24793">
				<ele>731.63</ele>
				<time>2025-07-29T02:23:28.759Z</time>
			</trkpt>
			<trkpt lat="48.33402" lon="15.24923">
				<ele>721.86</ele>
				<time>2025-07-29T02:23:34.251Z</time>
			</trkpt>
			<trkpt lat="48.3339" lon="15.24954">
				<ele>719.64</ele>
				<time>2025-07-29T02:23:35.667Z</time>
			</trkpt>
			<trkpt lat="48.33371" lon="15.24985">
				<ele>718.25</ele>
				<time>2025-07-29T02:23:37.332Z</time>
			</trkpt>
			<trkpt lat="48.33356" lon="15.25019">
				<ele>715.11</ele>
				<time>2025-07-29T02:23:38.943Z</time>
			</trkpt>
			<trkpt lat="48.33304" lon="15.2516">
				<ele>703.94</ele>
				<time>2025-07-29T02:23:45.312Z</time>
			</trkpt>
			<trkpt lat="48.333" lon="15.25176">
				<ele>702.15</ele>
				<time>2025-07-29T02:23:45.988Z</time>
			</trkpt>
			<trkpt lat="48.33302" lon="15.25188">
				<ele>699.64</ele>
				<time>2025-07-29T02:23:46.476Z</time>
			</trkpt>
			<trkpt lat="48.33308" lon="15.25196">
				<ele>696.81</ele>
				<time>2025-07-29T02:23:46.953Z</time>
			</trkpt>
			<trkpt lat="48.33319" lon="15.25198">
				<ele>693.52</ele>
				<time>2025-07-29T02:23:47.612Z</time>
			</trkpt>
			<trkpt lat="48.33331" lon="15.25194">
				<ele>690.55</ele>
				<time>2025-07-29T02:23:48.342Z</time>
			</trkpt>
			<trkpt lat="48.33356" lon="15.25169">
				<ele>688.38</ele>
				<time>2025-07-29T02:23:50.127Z</time>
			</trkpt>
			<trkpt lat="48.33407" lon="15.25098">
				<ele>686.11</ele>
				<time>2025-07-29T02:23:54.258Z</time>
			</trkpt>
			<trkpt lat="48.33423" lon="15.25081">
				<ele>684.08</ele>
				<time>2025-07-29T02:23:55.423Z</time>
			</trkpt>
			<trkpt lat="48.33454" lon="15.25056">
				<ele>683.33</ele>
				<time>2025-07-29T02:23:57.515Z</time>
			</trkpt>
			<trkpt lat="48.3347" lon="15.25047">
				<ele>682.36</ele>
				<time>2025-07-29T02:23:58.530Z</time>
			</trkpt>
			<trkpt lat="48.3349" lon="15.2504">
				<ele>681.84</ele>
				<time>2025-07-29T02:23:59.752Z</time>
			</trkpt>
			<trkpt lat="48.33544" lon="15.25024">
				<ele>680.12</ele>
				<time>2025-07-29T02:24:03.025Z</time>
			</trkpt>
			<trkpt lat="48.33552" lon="15.25024">
				<ele>679.04</ele>
				<time>2025-07-29T02:24:03.501Z</time>
			</trkpt>
			<trkpt lat="48.33556" lon="15.25031">
				<ele>677.03</ele>
				<time>2025-07-29T02:24:03.866Z</time>
			</trkpt>
			<trkpt lat="48.33554" lon="15.25042">
				<ele>675</ele>
				<time>2025-07-29T02:24:04.316Z</time>
			</trkpt>
			<trkpt lat="48.33534" lon="15.25064">
				<ele>674.08</ele>
				<time>2025-07-29T02:24:05.790Z</time>
			</trkpt>
			<trkpt lat="48.33511" lon="15.25096">
				<ele>670.17</ele>
				<time>2025-07-29T02:24:07.653Z</time>
			</trkpt>
			<trkpt lat="48.3347" lon="15.25178">
				<ele>661.63</ele>
				<time>2025-07-29T02:24:11.710Z</time>
			</trkpt>
			<trkpt lat="48.3345" lon="15.25223">
				<ele>659.97</ele>
				<time>2025-07-29T02:24:13.851Z</time>
			</trkpt>
			<trkpt lat="48.33434" lon="15.25272">
				<ele>656.28</ele>
				<time>2025-07-29T02:24:16.009Z</time>
			</trkpt>
			<trkpt lat="48.33427" lon="15.25308">
				<ele>653.51</ele>
				<time>2025-07-29T02:24:17.492Z</time>
			</trkpt>
			<trkpt lat="48.33425" lon="15.2534">
				<ele>652.58</ele>
				<time>2025-07-29T02:24:18.763Z</time>
			</trkpt>
			<trkpt lat="48.33425" lon="15.25385">
				<ele>651.48</ele>
				<time>2025-07-29T02:24:20.542Z</time>
			</trkpt>
			<trkpt lat="48.33428" lon="15.25434">
				<ele>649.53</ele>
				<time>2025-07-29T02:24:22.487Z</time>
			</trkpt>
			<trkpt lat="48.33434" lon="15.25484">
				<ele>645.93</ele>
				<time>2025-07-29T02:24:24.496Z</time>
			</trkpt>
			<trkpt lat="48.33448" lon="15.25549">
				<ele>636.4</ele>
				<time>2025-07-29T02:24:27.197Z</time>
			</trkpt>
			<trkpt lat="48.33462" lon="15.25623">
				<ele>632.75</ele>
				<time>2025-07-29T02:24:30.237Z</time>
			</trkpt>
			<trkpt lat="48.33493" lon="15.25759">
				<ele>632.11</ele>
				<time>2025-07-29T02:24:35.918Z</time>
			</trkpt>
			<trkpt lat="48.33496" lon="15.25789">
				<ele>631.59</ele>
				<time>2025-07-29T02:24:37.116Z</time>
			</trkpt>
			<trkpt lat="48.33495" lon="15.25818">
				<ele>631.27</ele>
				<time>2025-07-29T02:24:38.263Z</time>
			</trkpt>
			<trkpt lat="48.33492" lon="15.25841">
				<ele>631.32</ele>
				<time>2025-07-29T02:24:39.189Z</time>
			</trkpt>
			<trkpt lat="48.33468" lon="15.25894">
				<ele>630.73</ele>
				<time>2025-07-29T02:24:41.722Z</time>
			</trkpt>
			<trkpt lat="48.33451" lon="15.25945">
				<ele>624.11</ele>
				<time>2025-07-29T02:24:43.974Z</time>
			</trkpt>
			<trkpt lat="48.33447" lon="15.26002">
				<ele>618.46</ele>
				<time>2025-07-29T02:24:46.237Z</time>
			</trkpt>
			<trkpt lat="48.33441" lon="15.26031">
				<ele>614.24</ele>
				<time>2025-07-29T02:24:47.436Z</time>
			</trkpt>
			<trkpt lat="48.33428" lon="15.26051">
				<ele>610.64</ele>
				<time>2025-07-29T02:24:48.540Z</time>
			</trkpt>
			<trkpt lat="48.33402" lon="15.26083">
				<ele>604.3</ele>
				<time>2025-07-29T02:24:50.534Z</time>
			</trkpt>
			<trkpt lat="48.33326" lon="15.26211">
				<ele>587.15</ele>
				<time>2025-07-29T02:24:57.302Z</time>
			</trkpt>
			<trkpt lat="48.33306" lon="15.26234">
				<ele>584.73</ele>
				<time>2025-07-29T02:24:58.795Z</time>
			</trkpt>
			<trkpt lat="48.33264" lon="15.26263">
				<ele>583</ele>
				<time>2025-07-29T02:25:01.535Z</time>
			</trkpt>
			<trkpt lat="48.33241" lon="15.26282">
				<ele>582.52</ele>
				<time>2025-07-29T02:25:03.090Z</time>
			</trkpt>
			<trkpt lat="48.33214" lon="15.26309">
				<ele>583.28</ele>
				<time>2025-07-29T02:25:05.011Z</time>
			</trkpt>
			<trkpt lat="48.33194" lon="15.26339">
				<ele>578.4</ele>
				<time>2025-07-29T02:25:06.684Z</time>
			</trkpt>
			<trkpt lat="48.33128" lon="15.26502">
				<ele>555.49</ele>
				<time>2025-07-29T02:25:14.194Z</time>
			</trkpt>
			<trkpt lat="48.33098" lon="15.26562">
				<ele>550.04</ele>
				<time>2025-07-29T02:25:17.145Z</time>
			</trkpt>
			<trkpt lat="48.33065" lon="15.26668">
				<ele>543.26</ele>
				<time>2025-07-29T02:25:21.744Z</time>
			</trkpt>
			<trkpt lat="48.33021" lon="15.26775">
				<ele>534.39</ele>
				<time>2025-07-29T02:25:26.683Z</time>
			</trkpt>
			<trkpt lat="48.33003" lon="15.26809">
				<ele>532.43</ele>
				<time>2025-07-29T02:25:28.388Z</time>
			</trkpt>
			<trkpt lat="48.32963" lon="15.26849">
				<ele>525.85</ele>
				<time>2025-07-29T02:25:31.221Z</time>
			</trkpt>
			<trkpt lat="48.32954" lon="15.26863">
				<ele>523.03</ele>
				<time>2025-07-29T02:25:31.984Z</time>
			</trkpt>
			<trkpt lat="48.32958" lon="15.26873">
				<ele>521.53</ele>
				<time>2025-07-29T02:25:32.441Z</time>
			</trkpt>
			<trkpt lat="48.32995" lon="15.26882">
				<ele>520.09</ele>
				<time>2025-07-29T02:25:34.650Z</time>
			</trkpt>
			<trkpt lat="48.33003" lon="15.26889">
				<ele>519.06</ele>
				<time>2025-07-29T02:25:35.195Z</time>
			</trkpt>
			<trkpt lat="48.33007" lon="15.26899">
				<ele>518.5</ele>
				<time>2025-07-29T02:25:35.652Z</time>
			</trkpt>
			<trkpt lat="48.33006" lon="15.26916">
				<ele>517.27</ele>
				<time>2025-07-29T02:25:36.321Z</time>
			</trkpt>
			<trkpt lat="48.32979" lon="15.26947">
				<ele>513.84</ele>
				<time>2025-07-29T02:25:38.320Z</time>
			</trkpt>
			<trkpt lat="48.32953" lon="15.26988">
				<ele>506.87</ele>
				<time>2025-07-29T02:25:40.537Z</time>
			</trkpt>
			<trkpt lat="48.32933" lon="15.27031">
				<ele>503.04</ele>
				<time>2025-07-29T02:25:42.589Z</time>
			</trkpt>
			<trkpt lat="48.32923" lon="15.27061">
				<ele>500.87</ele>
				<time>2025-07-29T02:25:43.901Z</time>
			</trkpt>
			<trkpt lat="48.32905" lon="15.27109">
				<ele>497.07</ele>
				<time>2025-07-29T02:25:46.054Z</time>
			</trkpt>
			<trkpt lat="48.32905" lon="15.27121">
				<ele>496.39</ele>
				<time>2025-07-29T02:25:46.523Z</time>
			</trkpt>
			<trkpt lat="48.32909" lon="15.27129">
				<ele>495.88</ele>
				<time>2025-07-29T02:25:46.914Z</time>
			</trkpt>
			<trkpt lat="48.32939" lon="15.27145">
				<ele>493.44</ele>
				<time>2025-07-29T02:25:48.783Z</time>
			</trkpt>
			<trkpt lat="48.32962" lon="15.27171">
				<ele>488.89</ele>
				<time>2025-07-29T02:25:50.472Z</time>
			</trkpt>
			<trkpt lat="48.32975" lon="15.27178">
				<ele>486.91</ele>
				<time>2025-07-29T02:25:51.282Z</time>
			</trkpt>
			<trkpt lat="48.33004" lon="15.27161">
				<ele>490.11</ele>
				<time>2025-07-29T02:25:53.107Z</time>
			</trkpt>
			<trkpt lat="48.33012" lon="15.27165">
				<ele>489.75</ele>
				<time>2025-07-29T02:25:53.602Z</time>
			</trkpt>
			<trkpt lat="48.33009" lon="15.27179">
				<ele>486.74</ele>
				<time>2025-07-29T02:25:54.175Z</time>
			</trkpt>
			<trkpt lat="48.32967" lon="15.27233">
				<ele>479.67</ele>
				<time>2025-07-29T02:25:57.412Z</time>
			</trkpt>
			<trkpt lat="48.32919" lon="15.27286">
				<ele>473.11</ele>
				<time>2025-07-29T02:26:00.898Z</time>
			</trkpt>
			<trkpt lat="48.329" lon="15.27328">
				<ele>467.47</ele>
				<time>2025-07-29T02:26:02.873Z</time>
			</trkpt>
			<trkpt lat="48.3287" lon="15.2743">
				<ele>457.02</ele>
				<time>2025-07-29T02:26:07.206Z</time>
			</trkpt>
			<trkpt lat="48.32847" lon="15.27493">
				<ele>453.15</ele>
				<time>2025-07-29T02:26:09.995Z</time>
			</trkpt>
			<trkpt lat="48.32838" lon="15.2753">
				<ele>449.8</ele>
				<time>2025-07-29T02:26:11.522Z</time>
			</trkpt>
			<trkpt lat="48.32879" lon="15.27453">
				<ele>454.66</ele>
				<time>2025-07-29T02:26:15.344Z</time>
			</trkpt>
			<trkpt lat="48.32905" lon="15.27413">
				<ele>452.18</ele>
				<time>2025-07-29T02:26:17.509Z</time>
			</trkpt>
			<trkpt lat="48.32963" lon="15.27341">
				<ele>456.88</ele>
				<time>2025-07-29T02:26:21.881Z</time>
			</trkpt>
			<trkpt lat="48.3301" lon="15.27306">
				<ele>458.41</ele>
				<time>2025-07-29T02:26:24.920Z</time>
			</trkpt>
			<trkpt lat="48.33074" lon="15.27241">
				<ele>461.48</ele>
				<time>2025-07-29T02:26:29.370Z</time>
			</trkpt>
			<trkpt lat="48.33133" lon="15.27174">
				<ele>468.58</ele>
				<time>2025-07-29T02:26:33.611Z</time>
			</trkpt>
			<trkpt lat="48.33198" lon="15.27089">
				<ele>472.58</ele>
				<time>2025-07-29T02:26:38.539Z</time>
			</trkpt>
			<trkpt lat="48.33244" lon="15.27066">
				<ele>473.56</ele>
				<time>2025-07-29T02:26:41.313Z</time>
			</trkpt>
			<trkpt lat="48.33273" lon="15.27038">
				<ele>478.15</ele>
				<time>2025-07-29T02:26:43.286Z</time>
			</trkpt>
			<trkpt lat="48.33316" lon="15.26981">
				<ele>477.26</ele>
				<time>2025-07-29T02:26:46.573Z</time>
			</trkpt>
			<trkpt lat="48.33349" lon="15.26918">
				<ele>471.68</ele>
				<time>2025-07-29T02:26:49.640Z</time>
			</trkpt>
			<trkpt lat="48.33389" lon="15.26876">
				<ele>475.02</ele>
				<time>2025-07-29T02:26:52.457Z</time>
			</trkpt>
			<trkpt lat="48.33438" lon="15.26842">
				<ele>477.9</ele>
				<time>2025-07-29T02:26:55.588Z</time>
			</trkpt>
			<trkpt lat="48.33491" lon="15.26802">
				<ele>483.47</ele>
				<time>2025-07-29T02:26:59.041Z</time>
			</trkpt>
			<trkpt lat="48.33558" lon="15.26765">
				<ele>485.86</ele>
				<time>2025-07-29T02:27:03.181Z</time>
			</trkpt>
			<trkpt lat="48.33583" lon="15.26763">
				<ele>484.09</ele>
				<time>2025-07-29T02:27:04.628Z</time>
			</trkpt>
			<trkpt lat="48.33609" lon="15.26772">
				<ele>481.86</ele>
				<time>2025-07-29T02:27:06.168Z</time>
			</trkpt>
			<trkpt lat="48.33645" lon="15.26791">
				<ele>478.68</ele>
				<time>2025-07-29T02:27:08.365Z</time>
			</trkpt>
			<trkpt lat="48.33689" lon="15.26803">
				<ele>478.85</ele>
				<time>2025-07-29T02:27:10.933Z</time>
			</trkpt>
			<trkpt lat="48.33705" lon="15.26797">
				<ele>480.62</ele>
				<time>2025-07-29T02:27:11.879Z</time>
			</trkpt>
			<trkpt lat="48.33716" lon="15.26785">
				<ele>482.63</ele>
				<time>2025-07-29T02:27:12.657Z</time>
			</trkpt>
			<trkpt lat="48.33726" lon="15.26759">
				<ele>486.53</ele>
				<time>2025-07-29T02:27:13.799Z</time>
			</trkpt>
			<trkpt lat="48.33735" lon="15.26727">
				<ele>490.48</ele>
				<time>2025-07-29T02:27:15.119Z</time>
			</trkpt>
			<trkpt lat="48.33864" lon="15.26575">
				<ele>487.59</ele>
				<time>2025-07-29T02:27:24.427Z</time>
			</trkpt>
			<trkpt lat="48.339" lon="15.26549">
				<ele>492.49</ele>
				<time>2025-07-29T02:27:26.682Z</time>
			</trkpt>
			<trkpt lat="48.33959" lon="15.26525">
				<ele>504.66</ele>
				<time>2025-07-29T02:27:30.123Z</time>
			</trkpt>
			<trkpt lat="48.34039" lon="15.2652">
				<ele>501.43</ele>
				<time>2025-07-29T02:27:34.615Z</time>
			</trkpt>
			<trkpt lat="48.3409" lon="15.26503">
				<ele>500.22</ele>
				<time>2025-07-29T02:27:37.535Z</time>
			</trkpt>
			<trkpt lat="48.34107" lon="15.26487">
				<ele>500.78</ele>
				<time>2025-07-29T02:27:38.654Z</time>
			</trkpt>
			<trkpt lat="48.34157" lon="15.2648">
				<ele>502.44</ele>
				<time>2025-07-29T02:27:41.451Z</time>
			</trkpt>
			<trkpt lat="48.34251" lon="15.26424">
				<ele>511.91</ele>
				<time>2025-07-29T02:27:47.062Z</time>
			</trkpt>
			<trkpt lat="48.3429" lon="15.26384">
				<ele>519.21</ele>
				<time>2025-07-29T02:27:49.673Z</time>
			</trkpt>
			<trkpt lat="48.34315" lon="15.26375">
				<ele>521.05</ele>
				<time>2025-07-29T02:27:51.093Z</time>
			</trkpt>
			<trkpt lat="48.34341" lon="15.26376">
				<ele>521.72</ele>
				<time>2025-07-29T02:27:52.528Z</time>
			</trkpt>
			<trkpt lat="48.34374" lon="15.26385">
				<ele>520.8</ele>
				<time>2025-07-29T02:27:54.375Z</time>
			</trkpt>
			<trkpt lat="48.34422" lon="15.26412">
				<ele>523.49</ele>
				<time>2025-07-29T02:27:57.194Z</time>
			</trkpt>
			<trkpt lat="48.34457" lon="15.26428">
				<ele>524.48</ele>
				<time>2025-07-29T02:27:59.203Z</time>
			</trkpt>
			<trkpt lat="48.34497" lon="15.26436">
				<ele>524.95</ele>
				<time>2025-07-29T02:28:01.415Z</time>
			</trkpt>
			<trkpt lat="48.34531" lon="15.26436">
				<ele>521.49</ele>
				<time>2025-07-29T02:28:03.277Z</time>
			</trkpt>
			<trkpt lat="48.34553" lon="15.26422">
				<ele>521.02</ele>
				<time>2025-07-29T02:28:04.583Z</time>
			</trkpt>
			<trkpt lat="48.3457" lon="15.26407">
				<ele>522.29</ele>
				<time>2025-07-29T02:28:05.660Z</time>
			</trkpt>
			<trkpt lat="48.34585" lon="15.26387">
				<ele>522.03</ele>
				<time>2025-07-29T02:28:06.755Z</time>
			</trkpt>
			<trkpt lat="48.34594" lon="15.26362">
				<ele>522.21</ele>
				<time>2025-07-29T02:28:07.786Z</time>
			</trkpt>
			<trkpt lat="48.34603" lon="15.26317">
				<ele>525.32</ele>
				<time>2025-07-29T02:28:09.490Z</time>
			</trkpt>
			<trkpt lat="48.34609" lon="15.26297">
				<ele>527.28</ele>
				<time>2025-07-29T02:28:10.285Z</time>
			</trkpt>
			<trkpt lat="48.34612" lon="15.26293">
				<ele>527.48</ele>
				<time>2025-07-29T02:28:10.503Z</time>
			</trkpt>
			<trkpt lat="48.34625" lon="15.26283">
				<ele>526.87</ele>
				<time>2025-07-29T02:28:11.298Z</time>
			</trkpt>
			<trkpt lat="48.34656" lon="15.26281">
				<ele>525.11</ele>
				<time>2025-07-29T02:28:12.987Z</time>
			</trkpt>
			<trkpt lat="48.34674" lon="15.26275">
				<ele>527.11</ele>
				<time>2025-07-29T02:28:13.990Z</time>
			</trkpt>
			<trkpt lat="48.34703" lon="15.2626">
				<ele>532.81</ele>
				<time>2025-07-29T02:28:15.657Z</time>
			</trkpt>
			<trkpt lat="48.34828" lon="15.26248">
				<ele>531.11</ele>
				<time>2025-07-29T02:28:22.450Z</time>
			</trkpt>
			<trkpt lat="48.3488" lon="15.26237">
				<ele>531.16</ele>
				<time>2025-07-29T02:28:25.292Z</time>
			</trkpt>
			<trkpt lat="48.34906" lon="15.26236">
				<ele>532.1</ele>
				<time>2025-07-29T02:28:26.698Z</time>
			</trkpt>
			<trkpt lat="48.34936" lon="15.26246">
				<ele>533.4</ele>
				<time>2025-07-29T02:28:28.358Z</time>
			</trkpt>
			<trkpt lat="48.34967" lon="15.26235">
				<ele>534.63</ele>
				<time>2025-07-29T02:28:30.078Z</time>
			</trkpt>
			<trkpt lat="48.35128" lon="15.26229">
				<ele>546.6</ele>
				<time>2025-07-29T02:28:38.761Z</time>
			</trkpt>
			<trkpt lat="48.35159" lon="15.26217">
				<ele>548.67</ele>
				<time>2025-07-29T02:28:40.484Z</time>
			</trkpt>
			<trkpt lat="48.35194" lon="15.262">
				<ele>549.78</ele>
				<time>2025-07-29T02:28:42.463Z</time>
			</trkpt>
			<trkpt lat="48.35217" lon="15.26195">
				<ele>550.78</ele>
				<time>2025-07-29T02:28:43.713Z</time>
			</trkpt>
			<trkpt lat="48.35237" lon="15.26188">
				<ele>552.19</ele>
				<time>2025-07-29T02:28:44.817Z</time>
			</trkpt>
			<trkpt lat="48.35248" lon="15.26182">
				<ele>553.62</ele>
				<time>2025-07-29T02:28:45.446Z</time>
			</trkpt>
			<trkpt lat="48.35259" lon="15.26179">
				<ele>555.18</ele>
				<time>2025-07-29T02:28:46.047Z</time>
			</trkpt>
			<trkpt lat="48.35282" lon="15.26179">
				<ele>557.57</ele>
				<time>2025-07-29T02:28:47.284Z</time>
			</trkpt>
			<trkpt lat="48.35306" lon="15.26176">
				<ele>559.61</ele>
				<time>2025-07-29T02:28:48.578Z</time>
			</trkpt>
			<trkpt lat="48.35356" lon="15.26162">
				<ele>561.09</ele>
				<time>2025-07-29T02:28:51.311Z</time>
			</trkpt>
			<trkpt lat="48.35438" lon="15.26148">
				<ele>568.1</ele>
				<time>2025-07-29T02:28:55.744Z</time>
			</trkpt>
			<trkpt lat="48.3548" lon="15.26149">
				<ele>571.64</ele>
				<time>2025-07-29T02:28:57.999Z</time>
			</trkpt>
			<trkpt lat="48.35514" lon="15.26138">
				<ele>576.58</ele>
				<time>2025-07-29T02:28:59.867Z</time>
			</trkpt>
			<trkpt lat="48.35554" lon="15.26139">
				<ele>574.93</ele>
				<time>2025-07-29T02:29:02.015Z</time>
			</trkpt>
			<trkpt lat="48.35603" lon="15.26144">
				<ele>573.79</ele>
				<time>2025-07-29T02:29:04.652Z</time>
			</trkpt>
			<trkpt lat="48.35617" lon="15.26144">
				<ele>575.15</ele>
				<time>2025-07-29T02:29:05.404Z</time>
			</trkpt>
			<trkpt lat="48.35641" lon="15.26136">
				<ele>579.43</ele>
				<time>2025-07-29T02:29:06.725Z</time>
			</trkpt>
			<trkpt lat="48.35661" lon="15.26135">
				<ele>580.54</ele>
				<time>2025-07-29T02:29:07.800Z</time>
			</trkpt>
			<trkpt lat="48.35674" lon="15.26137">
				<ele>581.16</ele>
				<time>2025-07-29T02:29:08.502Z</time>
			</trkpt>
			<trkpt lat="48.35707" lon="15.26149">
				<ele>580.63</ele>
				<time>2025-07-29T02:29:10.326Z</time>
			</trkpt>
			<trkpt lat="48.35726" lon="15.26151">
				<ele>580.08</ele>
				<time>2025-07-29T02:29:11.349Z</time>
			</trkpt>
			<trkpt lat="48.35751" lon="15.26145">
				<ele>579.94</ele>
				<time>2025-07-29T02:29:12.710Z</time>
			</trkpt>
			<trkpt lat="48.35771" lon="15.26144">
				<ele>579.21</ele>
				<time>2025-07-29T02:29:13.785Z</time>
			</trkpt>
			<trkpt lat="48.3586" lon="15.2616">
				<ele>585.36</ele>
				<time>2025-07-29T02:29:18.606Z</time>
			</trkpt>
			<trkpt lat="48.35879" lon="15.26155">
				<ele>584.41</ele>
				<time>2025-07-29T02:29:19.644Z</time>
			</trkpt>
			<trkpt lat="48.35893" lon="15.26149">
				<ele>584.26</ele>
				<time>2025-07-29T02:29:20.427Z</time>
			</trkpt>
			<trkpt lat="48.35906" lon="15.26148">
				<ele>584.33</ele>
				<time>2025-07-29T02:29:21.128Z</time>
			</trkpt>
			<trkpt lat="48.35924" lon="15.2615">
				<ele>584.45</ele>
				<time>2025-07-29T02:29:22.100Z</time>
			</trkpt>
			<trkpt lat="48.35966" lon="15.26162">
				<ele>585.11</ele>
				<time>2025-07-29T02:29:24.403Z</time>
			</trkpt>
			<trkpt lat="48.35993" lon="15.26165">
				<ele>588.16</ele>
				<time>2025-07-29T02:29:25.862Z</time>
			</trkpt>
			<trkpt lat="48.36024" lon="15.26166">
				<ele>589.9</ele>
				<time>2025-07-29T02:29:27.534Z</time>
			</trkpt>
			<trkpt lat="48.36085" lon="15.2616">
				<ele>595.25</ele>
				<time>2025-07-29T02:29:30.834Z</time>
			</trkpt>
			<trkpt lat="48.36109" lon="15.26169">
				<ele>595.31</ele>
				<time>2025-07-29T02:29:32.170Z</time>
			</trkpt>
			<trkpt lat="48.36169" lon="15.26204">
				<ele>598.44</ele>
				<time>2025-07-29T02:29:35.649Z</time>
			</trkpt>
			<trkpt lat="48.36205" lon="15.26218">
				<ele>598.9</ele>
				<time>2025-07-29T02:29:37.661Z</time>
			</trkpt>
			<trkpt lat="48.36234" lon="15.26244">
				<ele>602.38</ele>
				<time>2025-07-29T02:29:39.490Z</time>
			</trkpt>
			<trkpt lat="48.36274" lon="15.26267">
				<ele>604.99</ele>
				<time>2025-07-29T02:29:41.811Z</time>
			</trkpt>
			<trkpt lat="48.36283" lon="15.2628">
				<ele>605.41</ele>
				<time>2025-07-29T02:29:42.488Z</time>
			</trkpt>
			<trkpt lat="48.36293" lon="15.26302">
				<ele>606.23</ele>
				<time>2025-07-29T02:29:43.450Z</time>
			</trkpt>
			<trkpt lat="48.36317" lon="15.26376">
				<ele>614.29</ele>
				<time>2025-07-29T02:29:46.423Z</time>
			</trkpt>
			<trkpt lat="48.36327" lon="15.26411">
				<ele>622.71</ele>
				<time>2025-07-29T02:29:47.800Z</time>
			</trkpt>
			<trkpt lat="48.36333" lon="15.26423">
				<ele>625.08</ele>
				<time>2025-07-29T02:29:48.343Z</time>
			</trkpt>
			<trkpt lat="48.36341" lon="15.26435">
				<ele>627.55</ele>
				<time>2025-07-29T02:29:48.958Z</time>
			</trkpt>
			<trkpt lat="48.36355" lon="15.26453">
				<ele>631.48</ele>
				<time>2025-07-29T02:29:49.961Z</time>
			</trkpt>
			<trkpt lat="48.36374" lon="15.26471">
				<ele>634.3</ele>
				<time>2025-07-29T02:29:51.184Z</time>
			</trkpt>
			<trkpt lat="48.36384" lon="15.26485">
				<ele>636.15</ele>
				<time>2025-07-29T02:29:51.929Z</time>
			</trkpt>
			<trkpt lat="48.36395" lon="15.26508">
				<ele>637.62</ele>
				<time>2025-07-29T02:29:52.957Z</time>
			</trkpt>
			<trkpt lat="48.36415" lon="15.2658">
				<ele>640.18</ele>
				<time>2025-07-29T02:29:55.789Z</time>
			</trkpt>
			<trkpt lat="48.3645" lon="15.26657">
				<ele>645.25</ele>
				<time>2025-07-29T02:29:59.183Z</time>
			</trkpt>
			<trkpt lat="48.36462" lon="15.26675">
				<ele>648.19</ele>
				<time>2025-07-29T02:30:00.111Z</time>
			</trkpt>
			<trkpt lat="48.36477" lon="15.2669">
				<ele>650.25</ele>
				<time>2025-07-29T02:30:01.099Z</time>
			</trkpt>
			<trkpt lat="48.36539" lon="15.26731">
				<ele>650.99</ele>
				<time>2025-07-29T02:30:04.820Z</time>
			</trkpt>
			<trkpt lat="48.36637" lon="15.26807">
				<ele>655.45</ele>
				<time>2025-07-29T02:30:10.900Z</time>
			</trkpt>
			<trkpt lat="48.3668" lon="15.26846">
				<ele>659.56</ele>
				<time>2025-07-29T02:30:13.678Z</time>
			</trkpt>
			<trkpt lat="48.36735" lon="15.26912">
				<ele>662.88</ele>
				<time>2025-07-29T02:30:17.581Z</time>
			</trkpt>
			<trkpt lat="48.36761" lon="15.26953">
				<ele>668.04</ele>
				<time>2025-07-29T02:30:19.676Z</time>
			</trkpt>
			<trkpt lat="48.36769" lon="15.26963">
				<ele>669.15</ele>
				<time>2025-07-29T02:30:20.255Z</time>
			</trkpt>
			<trkpt lat="48.3678" lon="15.26964">
				<ele>668.89</ele>
				<time>2025-07-29T02:30:20.869Z</time>
			</trkpt>
			<trkpt lat="48.36791" lon="15.26958">
				<ele>668.95</ele>
				<time>2025-07-29T02:30:21.521Z</time>
			</trkpt>
			<trkpt lat="48.36799" lon="15.26956">
				<ele>669.52</ele>
				<time>2025-07-29T02:30:21.974Z</time>
			</trkpt>
			<trkpt lat="48.36803" lon="15.26958">
				<ele>670.33</ele>
				<time>2025-07-29T02:30:22.209Z</time>
			</trkpt>
			<trkpt lat="48.36807" lon="15.26963">
				<ele>671.99</ele>
				<time>2025-07-29T02:30:22.499Z</time>
			</trkpt>
			<trkpt lat="48.36808" lon="15.26972">
				<ele>673.95</ele>
				<time>2025-07-29T02:30:22.837Z</time>
			</trkpt>
			<trkpt lat="48.36806" lon="15.2698">
				<ele>674.6</ele>
				<time>2025-07-29T02:30:23.155Z</time>
			</trkpt>
			<trkpt lat="48.368" lon="15.26991">
				<ele>675.06</ele>
				<time>2025-07-29T02:30:23.683Z</time>
			</trkpt>
			<trkpt lat="48.36778" lon="15.27018">
				<ele>675.01</ele>
				<time>2025-07-29T02:30:25.270Z</time>
			</trkpt>
			<trkpt lat="48.3671" lon="15.27091">
				<ele>692.64</ele>
				<time>2025-07-29T02:30:29.954Z</time>
			</trkpt>
			<trkpt lat="48.36686" lon="15.27115">
				<ele>697.33</ele>
				<time>2025-07-29T02:30:31.575Z</time>
			</trkpt>
			<trkpt lat="48.36668" lon="15.27123">
				<ele>698.27</ele>
				<time>2025-07-29T02:30:32.633Z</time>
			</trkpt>
			<trkpt lat="48.36637" lon="15.27126">
				<ele>696.71</ele>
				<time>2025-07-29T02:30:34.385Z</time>
			</trkpt>
			<trkpt lat="48.36631" lon="15.27131">
				<ele>697.21</ele>
				<time>2025-07-29T02:30:34.772Z</time>
			</trkpt>
			<trkpt lat="48.3663" lon="15.27138">
				<ele>697.94</ele>
				<time>2025-07-29T02:30:35.041Z</time>
			</trkpt>
			<trkpt lat="48.36631" lon="15.27145">
				<ele>699.21</ele>
				<time>2025-07-29T02:30:35.309Z</time>
			</trkpt>
			<trkpt lat="48.36634" lon="15.27152">
				<ele>700.48</ele>
				<time>2025-07-29T02:30:35.622Z</time>
			</trkpt>
			<trkpt lat="48.36652" lon="15.27167">
				<ele>703.61</ele>
				<time>2025-07-29T02:30:36.786Z</time>
			</trkpt>
			<trkpt lat="48.36668" lon="15.27195">
				<ele>706.69</ele>
				<time>2025-07-29T02:30:38.175Z</time>
			</trkpt>
			<trkpt lat="48.36686" lon="15.27236">
				<ele>707.57</ele>
				<time>2025-07-29T02:30:40.028Z</time>
			</trkpt>
			<trkpt lat="48.36718" lon="15.27296">
				<ele>712.58</ele>
				<time>2025-07-29T02:30:42.935Z</time>
			</trkpt>
			<trkpt lat="48.36733" lon="15.2732">
				<ele>714.85</ele>
				<time>2025-07-29T02:30:44.182Z</time>
			</trkpt>
			<trkpt lat="48.36772" lon="15.27366">
				<ele>715.31</ele>
				<time>2025-07-29T02:30:47.012Z</time>
			</trkpt>
			<trkpt lat="48.36797" lon="15.27387">
				<ele>714.47</ele>
				<time>2025-07-29T02:30:48.652Z</time>
			</trkpt>
			<trkpt lat="48.36835" lon="15.27411">
				<ele>715.61</ele>
				<time>2025-07-29T02:30:51.017Z</time>
			</trkpt>
			<trkpt lat="48.36879" lon="15.27427">
				<ele>717.91</ele>
				<time>2025-07-29T02:30:53.622Z</time>
			</trkpt>
			<trkpt lat="48.36915" lon="15.2743">
				<ele>719.45</ele>
				<time>2025-07-29T02:30:55.703Z</time>
			</trkpt>
			<trkpt lat="48.36944" lon="15.2743">
				<ele>723.03</ele>
				<time>2025-07-29T02:30:57.380Z</time>
			</trkpt>
			<trkpt lat="48.36975" lon="15.27435">
				<ele>726.59</ele>
				<time>2025-07-29T02:30:59.186Z</time>
			</trkpt>
			<trkpt lat="48.37" lon="15.27442">
				<ele>728.11</ele>
				<time>2025-07-29T02:31:00.663Z</time>
			</trkpt>
			<trkpt lat="48.3702" lon="15.27451">
				<ele>727.93</ele>
				<time>2025-07-29T02:31:01.877Z</time>
			</trkpt>
			<trkpt lat="48.37084" lon="15.27493">
				<ele>726.97</ele>
				<time>2025-07-29T02:31:05.950Z</time>
			</trkpt>
			<trkpt lat="48.37117" lon="15.2751">
				<ele>725.77</ele>
				<time>2025-07-29T02:31:07.993Z</time>
			</trkpt>
			<trkpt lat="48.37151" lon="15.27519">
				<ele>724.67</ele>
				<time>2025-07-29T02:31:10.020Z</time>
			</trkpt>
			<trkpt lat="48.37225" lon="15.27521">
				<ele>728</ele>
				<time>2025-07-29T02:31:14.383Z</time>
			</trkpt>
			<trkpt lat="48.37253" lon="15.2752">
				<ele>729.8</ele>
				<time>2025-07-29T02:31:16.040Z</time>
			</trkpt>
			<trkpt lat="48.37273" lon="15.27515">
				<ele>732.62</ele>
				<time>2025-07-29T02:31:17.242Z</time>
			</trkpt>
			<trkpt lat="48.3732" lon="15.27486">
				<ele>742.44</ele>
				<time>2025-07-29T02:31:20.262Z</time>
			</trkpt>
			<trkpt lat="48.37339" lon="15.27481">
				<ele>744.04</ele>
				<time>2025-07-29T02:31:21.411Z</time>
			</trkpt>
			<trkpt lat="48.37355" lon="15.27484">
				<ele>743.9</ele>
				<time>2025-07-29T02:31:22.374Z</time>
			</trkpt>
			<trkpt lat="48.3737" lon="15.27496">
				<ele>743.89</ele>
				<time>2025-07-29T02:31:23.389Z</time>
			</trkpt>
			<trkpt lat="48.37379" lon="15.27507">
				<ele>744.28</ele>
				<time>2025-07-29T02:31:24.083Z</time>
			</trkpt>
			<trkpt lat="48.37392" lon="15.27532">
				<ele>746.77</ele>
				<time>2025-07-29T02:31:25.346Z</time>
			</trkpt>
			<trkpt lat="48.37395" lon="15.27543">
				<ele>747.32</ele>
				<time>2025-07-29T02:31:25.820Z</time>
			</trkpt>
			<trkpt lat="48.37395" lon="15.27553">
				<ele>747.42</ele>
				<time>2025-07-29T02:31:26.219Z</time>
			</trkpt>
			<trkpt lat="48.37388" lon="15.27576">
				<ele>743.68</ele>
				<time>2025-07-29T02:31:27.229Z</time>
			</trkpt>
			<trkpt lat="48.37388" lon="15.27585">
				<ele>742.69</ele>
				<time>2025-07-29T02:31:27.588Z</time>
			</trkpt>
			<trkpt lat="48.37392" lon="15.27599">
				<ele>742.08</ele>
				<time>2025-07-29T02:31:28.197Z</time>
			</trkpt>
			<trkpt lat="48.37401" lon="15.27617">
				<ele>742.29</ele>
				<time>2025-07-29T02:31:29.099Z</time>
			</trkpt>
			<trkpt lat="48.37414" lon="15.27637">
				<ele>743.62</ele>
				<time>2025-07-29T02:31:30.220Z</time>
			</trkpt>
			<trkpt lat="48.37432" lon="15.27658">
				<ele>747.45</ele>
				<time>2025-07-29T02:31:31.596Z</time>
			</trkpt>
			<trkpt lat="48.3744" lon="15.27662">
				<ele>749.27</ele>
				<time>2025-07-29T02:31:32.106Z</time>
			</trkpt>
			<trkpt lat="48.3746" lon="15.27666">
				<ele>752.93</ele>
				<time>2025-07-29T02:31:33.328Z</time>
			</trkpt>
			<trkpt lat="48.37467" lon="15.27669">
				<ele>753.9</ele>
				<time>2025-07-29T02:31:33.769Z</time>
			</trkpt>
			<trkpt lat="48.37478" lon="15.27679">
				<ele>755.18</ele>
				<time>2025-07-29T02:31:34.549Z</time>
			</trkpt>
			<trkpt lat="48.3749" lon="15.27693">
				<ele>756.39</ele>
				<time>2025-07-29T02:31:35.472Z</time>
			</trkpt>
			<trkpt lat="48.37506" lon="15.27715">
				<ele>756.88</ele>
				<time>2025-07-29T02:31:36.790Z</time>
			</trkpt>
			<trkpt lat="48.37532" lon="15.27764">
				<ele>755.96</ele>
				<time>2025-07-29T02:31:39.332Z</time>
			</trkpt>
			<trkpt lat="48.37548" lon="15.27776">
				<ele>757.74</ele>
				<time>2025-07-29T02:31:40.426Z</time>
			</trkpt>
			<trkpt lat="48.37566" lon="15.27783">
				<ele>759.79</ele>
				<time>2025-07-29T02:31:41.565Z</time>
			</trkpt>
			<trkpt lat="48.37578" lon="15.27783">
				<ele>761.46</ele>
				<time>2025-07-29T02:31:42.301Z</time>
			</trkpt>
			<trkpt lat="48.37585" lon="15.27778">
				<ele>762.89</ele>
				<time>2025-07-29T02:31:42.777Z</time>
			</trkpt>
			<trkpt lat="48.37616" lon="15.27721">
				<ele>767.47</ele>
				<time>2025-07-29T02:31:45.789Z</time>
			</trkpt>
			<trkpt lat="48.37627" lon="15.2771">
				<ele>769.36</ele>
				<time>2025-07-29T02:31:46.604Z</time>
			</trkpt>
			<trkpt lat="48.3765" lon="15.27697">
				<ele>771.68</ele>
				<time>2025-07-29T02:31:48.123Z</time>
			</trkpt>
			<trkpt lat="48.37662" lon="15.27687">
				<ele>772.53</ele>
				<time>2025-07-29T02:31:48.973Z</time>
			</trkpt>
			<trkpt lat="48.37724" lon="15.27619">
				<ele>773.75</ele>
				<time>2025-07-29T02:31:53.743Z</time>
			</trkpt>
			<trkpt lat="48.3775" lon="15.27596">
				<ele>772.1</ele>
				<time>2025-07-29T02:31:55.628Z</time>
			</trkpt>
			<trkpt lat="48.37781" lon="15.27583">
				<ele>769.68</ele>
				<time>2025-07-29T02:31:57.644Z</time>
			</trkpt>
			<trkpt lat="48.37816" lon="15.27575">
				<ele>768.31</ele>
				<time>2025-07-29T02:31:59.870Z</time>
			</trkpt>
			<trkpt lat="48.37839" lon="15.27576">
				<ele>767.42</ele>
				<time>2025-07-29T02:32:01.320Z</time>
			</trkpt>
			<trkpt lat="48.37853" lon="15.27549">
				<ele>768.48</ele>
				<time>2025-07-29T02:32:02.757Z</time>
			</trkpt>
			<trkpt lat="48.37862" lon="15.27543">
				<ele>768.47</ele>
				<time>2025-07-29T02:32:03.380Z</time>
			</trkpt>
			<trkpt lat="48.3787" lon="15.27543">
				<ele>768.75</ele>
				<time>2025-07-29T02:32:03.886Z</time>
			</trkpt>
			<trkpt lat="48.37877" lon="15.27549">
				<ele>768.78</ele>
				<time>2025-07-29T02:32:04.397Z</time>
			</trkpt>
			<trkpt lat="48.37904" lon="15.27583">
				<ele>769.15</ele>
				<time>2025-07-29T02:32:06.632Z</time>
			</trkpt>
			<trkpt lat="48.37924" lon="15.27615">
				<ele>768.87</ele>
				<time>2025-07-29T02:32:08.491Z</time>
			</trkpt>
			<trkpt lat="48.37949" lon="15.2766">
				<ele>767.09</ele>
				<time>2025-07-29T02:32:10.981Z</time>
			</trkpt>
			<trkpt lat="48.3796" lon="15.27669">
				<ele>766.15</ele>
				<time>2025-07-29T02:32:11.783Z</time>
			</trkpt>
			<trkpt lat="48.37972" lon="15.27668">
				<ele>766.65</ele>
				<time>2025-07-29T02:32:12.553Z</time>
			</trkpt>
			<trkpt lat="48.37983" lon="15.27662">
				<ele>767.49</ele>
				<time>2025-07-29T02:32:13.305Z</time>
			</trkpt>
			<trkpt lat="48.38025" lon="15.27627">
				<ele>769.86</ele>
				<time>2025-07-29T02:32:16.396Z</time>
			</trkpt>
			<trkpt lat="48.38062" lon="15.27583">
				<ele>773.11</ele>
				<time>2025-07-29T02:32:19.446Z</time>
			</trkpt>
			<trkpt lat="48.38068" lon="15.27579">
				<ele>773.06</ele>
				<time>2025-07-29T02:32:19.872Z</time>
			</trkpt>
			<trkpt lat="48.38079" lon="15.27576">
				<ele>772.26</ele>
				<time>2025-07-29T02:32:20.598Z</time>
			</trkpt>
			<trkpt lat="48.3811" lon="15.27575">
				<ele>771.22</ele>
				<time>2025-07-29T02:32:22.615Z</time>
			</trkpt>
			<trkpt lat="48.38124" lon="15.27569">
				<ele>771.47</ele>
				<time>2025-07-29T02:32:23.564Z</time>
			</trkpt>
			<trkpt lat="48.38136" lon="15.27561">
				<ele>772.23</ele>
				<time>2025-07-29T02:32:24.421Z</time>
			</trkpt>
			<trkpt lat="48.38141" lon="15.27554">
				<ele>772.44</ele>
				<time>2025-07-29T02:32:24.867Z</time>
			</trkpt>
			<trkpt lat="48.38169" lon="15.27502">
				<ele>770.92</ele>
				<time>2025-07-29T02:32:27.781Z</time>
			</trkpt>
			<trkpt lat="48.38183" lon="15.27486">
				<ele>769.26</ele>
				<time>2025-07-29T02:32:28.937Z</time>
			</trkpt>
			<trkpt lat="48.38198" lon="15.27477">
				<ele>767.32</ele>
				<time>2025-07-29T02:32:30.000Z</time>
			</trkpt>
			<trkpt lat="48.3821" lon="15.27472">
				<ele>767.4</ele>
				<time>2025-07-29T02:32:30.821Z</time>
			</trkpt>
			<trkpt lat="48.38242" lon="15.27467">
				<ele>767.7</ele>
				<time>2025-07-29T02:32:32.948Z</time>
			</trkpt>
			<trkpt lat="48.38262" lon="15.27471">
				<ele>768.42</ele>
				<time>2025-07-29T02:32:34.285Z</time>
			</trkpt>
			<trkpt lat="48.38283" lon="15.27482">
				<ele>770.46</ele>
				<time>2025-07-29T02:32:35.762Z</time>
			</trkpt>
			<trkpt lat="48.38293" lon="15.2749">
				<ele>771.9</ele>
				<time>2025-07-29T02:32:36.515Z</time>
			</trkpt>
			<trkpt lat="48.38307" lon="15.2751">
				<ele>774.48</ele>
				<time>2025-07-29T02:32:37.801Z</time>
			</trkpt>
			<trkpt lat="48.38313" lon="15.27529">
				<ele>775.84</ele>
				<time>2025-07-29T02:32:38.734Z</time>
			</trkpt>
			<trkpt lat="48.38317" lon="15.27547">
				<ele>777.24</ele>
				<time>2025-07-29T02:32:39.577Z</time>
			</trkpt>
			<trkpt lat="48.38323" lon="15.27607">
				<ele>780.15</ele>
				<time>2025-07-29T02:32:42.278Z</time>
			</trkpt>
			<trkpt lat="48.38325" lon="15.2766">
				<ele>782.38</ele>
				<time>2025-07-29T02:32:44.651Z</time>
			</trkpt>
			<trkpt lat="48.38323" lon="15.27673">
				<ele>782.83</ele>
				<time>2025-07-29T02:32:45.249Z</time>
			</trkpt>
			<trkpt lat="48.38309" lon="15.27729">
				<ele>781.02</ele>
				<time>2025-07-29T02:32:47.937Z</time>
			</trkpt>
			<trkpt lat="48.38304" lon="15.27756">
				<ele>779.94</ele>
				<time>2025-07-29T02:32:49.200Z</time>
			</trkpt>
			<trkpt lat="48.38303" lon="15.27783">
				<ele>781.53</ele>
				<time>2025-07-29T02:32:50.421Z</time>
			</trkpt>
			<trkpt lat="48.38304" lon="15.27822">
				<ele>785.02</ele>
				<time>2025-07-29T02:32:52.187Z</time>
			</trkpt>
			<trkpt lat="48.38305" lon="15.27886">
				<ele>784.93</ele>
				<time>2025-07-29T02:32:55.095Z</time>
			</trkpt>
			<trkpt lat="48.38306" lon="15.27899">
				<ele>784.86</ele>
				<time>2025-07-29T02:32:55.691Z</time>
			</trkpt>
			<trkpt lat="48.38311" lon="15.27918">
				<ele>785.44</ele>
				<time>2025-07-29T02:32:56.623Z</time>
			</trkpt>
			<trkpt lat="48.38325" lon="15.27947">
				<ele>787.78</ele>
				<time>2025-07-29T02:32:58.261Z</time>
			</trkpt>
			<trkpt lat="48.38336" lon="15.27962">
				<ele>789.4</ele>
				<time>2025-07-29T02:32:59.284Z</time>
			</trkpt>
			<trkpt lat="48.38369" lon="15.27994">
				<ele>792.86</ele>
				<time>2025-07-29T02:33:01.998Z</time>
			</trkpt>
			<trkpt lat="48.38394" lon="15.28025">
				<ele>791.69</ele>
				<time>2025-07-29T02:33:04.247Z</time>
			</trkpt>
			<trkpt lat="48.38401" lon="15.28031">
				<ele>792.11</ele>
				<time>2025-07-29T02:33:04.807Z</time>
			</trkpt>
			<trkpt lat="48.38412" lon="15.28038">
				<ele>793.55</ele>
				<time>2025-07-29T02:33:05.639Z</time>
			</trkpt>
			<trkpt lat="48.38423" lon="15.2804">
				<ele>795.08</ele>
				<time>2025-07-29T02:33:06.412Z</time>
			</trkpt>
			<trkpt lat="48.38445" lon="15.28037">
				<ele>797.57</ele>
				<time>2025-07-29T02:33:07.955Z</time>
			</trkpt>
			<trkpt lat="48.38538" lon="15.28023">
				<ele>796.29</ele>
				<time>2025-07-29T02:33:14.527Z</time>
			</trkpt>
			<trkpt lat="48.38549" lon="15.28017">
				<ele>796.74</ele>
				<time>2025-07-29T02:33:15.355Z</time>
			</trkpt>
			<trkpt lat="48.38555" lon="15.28032">
				<ele>795.64</ele>
				<time>2025-07-29T02:33:16.178Z</time>
			</trkpt>
			<trkpt lat="48.38594" lon="15.2812">
				<ele>792.29</ele>
				<time>2025-07-29T02:33:21.178Z</time>
			</trkpt>
			<trkpt lat="48.38603" lon="15.28131">
				<ele>791.5</ele>
				<time>2025-07-29T02:33:22.006Z</time>
			</trkpt>
			<trkpt lat="48.38642" lon="15.2817">
				<ele>792.55</ele>
				<time>2025-07-29T02:33:25.364Z</time>
			</trkpt>
			<trkpt lat="48.38656" lon="15.28189">
				<ele>794.68</ele>
				<time>2025-07-29T02:33:26.721Z</time>
			</trkpt>
			<trkpt lat="48.38666" lon="15.28215">
				<ele>795.94</ele>
				<time>2025-07-29T02:33:28.161Z</time>
			</trkpt>
			<trkpt lat="48.38675" lon="15.28249">
				<ele>796.01</ele>
				<time>2025-07-29T02:33:29.919Z</time>
			</trkpt>
			<trkpt lat="48.38678" lon="15.28266">
				<ele>796.3</ele>
				<time>2025-07-29T02:33:30.766Z</time>
			</trkpt>
			<trkpt lat="48.38682" lon="15.28342">
				<ele>796.15</ele>
				<time>2025-07-29T02:33:34.449Z</time>
			</trkpt>
			<trkpt lat="48.38687" lon="15.28367">
				<ele>796.36</ele>
				<time>2025-07-29T02:33:35.715Z</time>
			</trkpt>
			<trkpt lat="48.38697" lon="15.28399">
				<ele>795.94</ele>
				<time>2025-07-29T02:33:37.434Z</time>
			</trkpt>
			<trkpt lat="48.38712" lon="15.28434">
				<ele>795.03</ele>
				<time>2025-07-29T02:33:39.465Z</time>
			</trkpt>
			<trkpt lat="48.38736" lon="15.2848">
				<ele>793.1</ele>
				<time>2025-07-29T02:33:42.329Z</time>
			</trkpt>
			<trkpt lat="48.38756" lon="15.2851">
				<ele>792.46</ele>
				<time>2025-07-29T02:33:44.417Z</time>
			</trkpt>
			<trkpt lat="48.38769" lon="15.28526">
				<ele>791.8</ele>
				<time>2025-07-29T02:33:45.663Z</time>
			</trkpt>
			<trkpt lat="48.3883" lon="15.28581">
				<ele>790.1</ele>
				<time>2025-07-29T02:33:50.965Z</time>
			</trkpt>
			<trkpt lat="48.38868" lon="15.28603">
				<ele>789.75</ele>
				<time>2025-07-29T02:33:54.022Z</time>
			</trkpt>
			<trkpt lat="48.38873" lon="15.2861">
				<ele>789.41</ele>
				<time>2025-07-29T02:33:54.535Z</time>
			</trkpt>
			<trkpt lat="48.38873" lon="15.28623">
				<ele>787.81</ele>
				<time>2025-07-29T02:33:55.186Z</time>
			</trkpt>
			<trkpt lat="48.38867" lon="15.2863">
				<ele>786.42</ele>
				<time>2025-07-29T02:33:55.758Z</time>
			</trkpt>
			<trkpt lat="48.38862" lon="15.28633">
				<ele>785.71</ele>
				<time>2025-07-29T02:33:56.165Z</time>
			</trkpt>
			<trkpt lat="48.38818" lon="15.28639">
				<ele>782.92</ele>
				<time>2025-07-29T02:33:59.509Z</time>
			</trkpt>
			<trkpt lat="48.38802" lon="15.28647">
				<ele>781.95</ele>
				<time>2025-07-29T02:34:00.790Z</time>
			</trkpt>
			<trkpt lat="48.38784" lon="15.28663">
				<ele>779.55</ele>
				<time>2025-07-29T02:34:02.382Z</time>
			</trkpt>
			<trkpt lat="48.38701" lon="15.28759">
				<ele>770.48</ele>
				<time>2025-07-29T02:34:10.412Z</time>
			</trkpt>
			<trkpt lat="48.38685" lon="15.28771">
				<ele>768.5</ele>
				<time>2025-07-29T02:34:11.794Z</time>
			</trkpt>
			<trkpt lat="48.38653" lon="15.28786">
				<ele>765.29</ele>
				<time>2025-07-29T02:34:14.393Z</time>
			</trkpt>
			<trkpt lat="48.38633" lon="15.28802">
				<ele>763.21</ele>
				<time>2025-07-29T02:34:16.164Z</time>
			</trkpt>
			<trkpt lat="48.38623" lon="15.28817">
				<ele>762.57</ele>
				<time>2025-07-29T02:34:17.291Z</time>
			</trkpt>
			<trkpt lat="48.38616" lon="15.28835">
				<ele>761.93</ele>
				<time>2025-07-29T02:34:18.416Z</time>
			</trkpt>
			<trkpt lat="48.38615" lon="15.28844">
				<ele>761.6</ele>
				<time>2025-07-29T02:34:18.914Z</time>
			</trkpt>
			<trkpt lat="48.38614" lon="15.28865">
				<ele>760.82</ele>
				<time>2025-07-29T02:34:20.076Z</time>
			</trkpt>
			<trkpt lat="48.38617" lon="15.28891">
				<ele>759.83</ele>
				<time>2025-07-29T02:34:21.557Z</time>
			</trkpt>
			<trkpt lat="48.38567" lon="15.28925">
				<ele>753.54</ele>
				<time>2025-07-29T02:34:26.356Z</time>
			</trkpt>
			<trkpt lat="48.38554" lon="15.28947">
				<ele>750.76</ele>
				<time>2025-07-29T02:34:28.122Z</time>
			</trkpt>
			<trkpt lat="48.38529" lon="15.29001">
				<ele>749.3</ele>
				<time>2025-07-29T02:34:32.163Z</time>
			</trkpt>
			<trkpt lat="48.38513" lon="15.29023">
				<ele>749.1</ele>
				<time>2025-07-29T02:34:34.209Z</time>
			</trkpt>
			<trkpt lat="48.38467" lon="15.29073">
				<ele>746.61</ele>
				<time>2025-07-29T02:34:39.681Z</time>
			</trkpt>
			<trkpt lat="48.38456" lon="15.29089">
				<ele>746.45</ele>
				<time>2025-07-29T02:34:41.182Z</time>
			</trkpt>
			<trkpt lat="48.38445" lon="15.29107">
				<ele>745.88</ele>
				<time>2025-07-29T02:34:42.785Z</time>
			</trkpt>
			<trkpt lat="48.38424" lon="15.29149">
				<ele>743.23</ele>
				<time>2025-07-29T02:34:46.261Z</time>
			</trkpt>
			<trkpt lat="48.38401" lon="15.29208">
				<ele>739.62</ele>
				<time>2025-07-29T02:34:50.832Z</time>
			</trkpt>
			<trkpt lat="48.38384" lon="15.29246">
				<ele>733.05</ele>
				<time>2025-07-29T02:34:53.915Z</time>
			</trkpt>
			<trkpt lat="48.38366" lon="15.29278">
				<ele>726.12</ele>
				<time>2025-07-29T02:34:56.745Z</time>
			</trkpt>
			<trkpt lat="48.38349" lon="15.29299">
				<ele>720.73</ele>
				<time>2025-07-29T02:34:58.982Z</time>
			</trkpt>
			<trkpt lat="48.38337" lon="15.29319">
				<ele>717.48</ele>
				<time>2025-07-29T02:35:00.803Z</time>
			</trkpt>
			<trkpt lat="48.38308" lon="15.29389">
				<ele>712.28</ele>
				<time>2025-07-29T02:35:06.364Z</time>
			</trkpt>
			<trkpt lat="48.38276" lon="15.29444">
				<ele>709.79</ele>
				<time>2025-07-29T02:35:11.251Z</time>
			</trkpt>
			<trkpt lat="48.38263" lon="15.29491">
				<ele>709.91</ele>
				<time>2025-07-29T02:35:14.617Z</time>
			</trkpt>
			<trkpt lat="48.38254" lon="15.29535">
				<ele>704.17</ele>
				<time>2025-07-29T02:35:17.628Z</time>
			</trkpt>
			<trkpt lat="48.38248" lon="15.29605">
				<ele>694.15</ele>
				<time>2025-07-29T02:35:22.165Z</time>
			</trkpt>
			<trkpt lat="48.38248" lon="15.29652">
				<ele>691.62</ele>
				<time>2025-07-29T02:35:25.124Z</time>
			</trkpt>
			<trkpt lat="48.38244" lon="15.29805">
				<ele>688.66</ele>
				<time>2025-07-29T02:35:34.333Z</time>
			</trkpt>
			<trkpt lat="48.38247" lon="15.2988">
				<ele>685.68</ele>
				<time>2025-07-29T02:35:38.559Z</time>
			</trkpt>
			<trkpt lat="48.3824" lon="15.3">
				<ele>674.16</ele>
				<time>2025-07-29T02:35:45.072Z</time>
			</trkpt>
			<trkpt lat="48.38247" lon="15.30051">
				<ele>665.84</ele>
				<time>2025-07-29T02:35:47.845Z</time>
			</trkpt>
			<trkpt lat="48.38245" lon="15.30077">
				<ele>663.14</ele>
				<time>2025-07-29T02:35:49.230Z</time>
			</trkpt>
			<trkpt lat="48.38238" lon="15.30101">
				<ele>660.68</ele>
				<time>2025-07-29T02:35:50.610Z</time>
			</trkpt>
			<trkpt lat="48.38227" lon="15.30129">
				<ele>658.09</ele>
				<time>2025-07-29T02:35:52.314Z</time>
			</trkpt>
			<trkpt lat="48.38212" lon="15.30193">
				<ele>656.01</ele>
				<time>2025-07-29T02:35:55.840Z</time>
			</trkpt>
			<trkpt lat="48.38173" lon="15.30291">
				<ele>644.11</ele>
				<time>2025-07-29T02:36:01.686Z</time>
			</trkpt>
			<trkpt lat="48.38145" lon="15.30373">
				<ele>638.58</ele>
				<time>2025-07-29T02:36:06.325Z</time>
			</trkpt>
			<trkpt lat="48.38128" lon="15.30411">
				<ele>636.25</ele>
				<time>2025-07-29T02:36:08.605Z</time>
			</trkpt>
			<trkpt lat="48.38099" lon="15.30456">
				<ele>630.69</ele>
				<time>2025-07-29T02:36:11.699Z</time>
			</trkpt>
			<trkpt lat="48.38078" lon="15.30509">
				<ele>627.06</ele>
				<time>2025-07-29T02:36:14.716Z</time>
			</trkpt>
			<trkpt lat="48.38053" lon="15.30548">
				<ele>621.4</ele>
				<time>2025-07-29T02:36:17.342Z</time>
			</trkpt>
			<trkpt lat="48.38031" lon="15.30626">
				<ele>619.93</ele>
				<time>2025-07-29T02:36:21.407Z</time>
			</trkpt>
			<trkpt lat="48.38006" lon="15.30686">
				<ele>610.97</ele>
				<time>2025-07-29T02:36:24.767Z</time>
			</trkpt>
			<trkpt lat="48.38" lon="15.30691">
				<ele>607.53</ele>
				<time>2025-07-29T02:36:25.254Z</time>
			</trkpt>
			<trkpt lat="48.37994" lon="15.30689">
				<ele>603.96</ele>
				<time>2025-07-29T02:36:25.690Z</time>
			</trkpt>
			<trkpt lat="48.37992" lon="15.30684">
				<ele>602.27</ele>
				<time>2025-07-29T02:36:25.964Z</time>
			</trkpt>
			<trkpt lat="48.37993" lon="15.30672">
				<ele>600.68</ele>
				<time>2025-07-29T02:36:26.533Z</time>
			</trkpt>
			<trkpt lat="48.38002" lon="15.30643">
				<ele>602.61</ele>
				<time>2025-07-29T02:36:28.033Z</time>
			</trkpt>
			<trkpt lat="48.38006" lon="15.30601">
				<ele>604.24</ele>
				<time>2025-07-29T02:36:30.011Z</time>
			</trkpt>
			<trkpt lat="48.38005" lon="15.30593">
				<ele>603.55</ele>
				<time>2025-07-29T02:36:30.389Z</time>
			</trkpt>
			<trkpt lat="48.38" lon="15.30588">
				<ele>601.29</ele>
				<time>2025-07-29T02:36:30.808Z</time>
			</trkpt>
			<trkpt lat="48.37995" lon="15.30593">
				<ele>600.02</ele>
				<time>2025-07-29T02:36:31.227Z</time>
			</trkpt>
			<trkpt lat="48.37987" lon="15.30619">
				<ele>596.88</ele>
				<time>2025-07-29T02:36:32.552Z</time>
			</trkpt>
			<trkpt lat="48.37957" lon="15.30676">
				<ele>589.11</ele>
				<time>2025-07-29T02:36:35.894Z</time>
			</trkpt>
			<trkpt lat="48.37951" lon="15.30697">
				<ele>588.59</ele>
				<time>2025-07-29T02:36:36.938Z</time>
			</trkpt>
			<trkpt lat="48.37948" lon="15.30726">
				<ele>589.27</ele>
				<time>2025-07-29T02:36:38.274Z</time>
			</trkpt>
			<trkpt lat="48.37943" lon="15.30749">
				<ele>589.34</ele>
				<time>2025-07-29T02:36:39.372Z</time>
			</trkpt>
			<trkpt lat="48.37893" lon="15.30853">
				<ele>581.82</ele>
				<time>2025-07-29T02:36:45.145Z</time>
			</trkpt>
			<trkpt lat="48.37863" lon="15.30911">
				<ele>570.32</ele>
				<time>2025-07-29T02:36:48.413Z</time>
			</trkpt>
			<trkpt lat="48.37855" lon="15.30923">
				<ele>568.6</ele>
				<time>2025-07-29T02:36:49.165Z</time>
			</trkpt>
			<trkpt lat="48.37802" lon="15.30975">
				<ele>559.04</ele>
				<time>2025-07-29T02:36:53.355Z</time>
			</trkpt>
			<trkpt lat="48.37797" lon="15.30983">
				<ele>559.05</ele>
				<time>2025-07-29T02:36:53.835Z</time>
			</trkpt>
			<trkpt lat="48.37792" lon="15.30992">
				<ele>559.14</ele>
				<time>2025-07-29T02:36:54.348Z</time>
			</trkpt>
			<trkpt lat="48.37783" lon="15.31027">
				<ele>559.96</ele>
				<time>2025-07-29T02:36:55.984Z</time>
			</trkpt>
			<trkpt lat="48.37779" lon="15.31036">
				<ele>559.84</ele>
				<time>2025-07-29T02:36:56.455Z</time>
			</trkpt>
			<trkpt lat="48.37773" lon="15.31047">
				<ele>559.2</ele>
				<time>2025-07-29T02:36:57.074Z</time>
			</trkpt>
			<trkpt lat="48.3774" lon="15.31093">
				<ele>552.4</ele>
				<time>2025-07-29T02:37:00.005Z</time>
			</trkpt>
			<trkpt lat="48.37727" lon="15.31117">
				<ele>548.95</ele>
				<time>2025-07-29T02:37:01.339Z</time>
			</trkpt>
			<trkpt lat="48.37711" lon="15.31165">
				<ele>547</ele>
				<time>2025-07-29T02:37:03.646Z</time>
			</trkpt>
			<trkpt lat="48.37696" lon="15.31215">
				<ele>540.39</ele>
				<time>2025-07-29T02:37:05.991Z</time>
			</trkpt>
			<trkpt lat="48.37674" lon="15.31306">
				<ele>531.64</ele>
				<time>2025-07-29T02:37:10.108Z</time>
			</trkpt>
			<trkpt lat="48.37658" lon="15.31363">
				<ele>527.02</ele>
				<time>2025-07-29T02:37:12.724Z</time>
			</trkpt>
			<trkpt lat="48.3763" lon="15.31433">
				<ele>523.31</ele>
				<time>2025-07-29T02:37:16.162Z</time>
			</trkpt>
			<trkpt lat="48.37595" lon="15.31543">
				<ele>515.94</ele>
				<time>2025-07-29T02:37:21.265Z</time>
			</trkpt>
			<trkpt lat="48.37581" lon="15.3156">
				<ele>513.58</ele>
				<time>2025-07-29T02:37:22.394Z</time>
			</trkpt>
			<trkpt lat="48.37559" lon="15.31601">
				<ele>508.08</ele>
				<time>2025-07-29T02:37:24.587Z</time>
			</trkpt>
			<trkpt lat="48.37552" lon="15.3161">
				<ele>506.9</ele>
				<time>2025-07-29T02:37:25.163Z</time>
			</trkpt>
			<trkpt lat="48.37545" lon="15.31623">
				<ele>505.91</ele>
				<time>2025-07-29T02:37:25.858Z</time>
			</trkpt>
			<trkpt lat="48.37535" lon="15.31649">
				<ele>503.05</ele>
				<time>2025-07-29T02:37:27.104Z</time>
			</trkpt>
			<trkpt lat="48.37518" lon="15.31705">
				<ele>498.29</ele>
				<time>2025-07-29T02:37:29.654Z</time>
			</trkpt>
			<trkpt lat="48.37503" lon="15.31771">
				<ele>497.76</ele>
				<time>2025-07-29T02:37:32.537Z</time>
			</trkpt>
			<trkpt lat="48.3748" lon="15.31833">
				<ele>496.25</ele>
				<time>2025-07-29T02:37:35.468Z</time>
			</trkpt>
			<trkpt lat="48.37448" lon="15.31883">
				<ele>491.31</ele>
				<time>2025-07-29T02:37:38.329Z</time>
			</trkpt>
			<trkpt lat="48.37437" lon="15.31905">
				<ele>488.51</ele>
				<time>2025-07-29T02:37:39.463Z</time>
			</trkpt>
			<trkpt lat="48.37424" lon="15.31937">
				<ele>484.96</ele>
				<time>2025-07-29T02:37:41.007Z</time>
			</trkpt>
			<trkpt lat="48.37405" lon="15.31992">
				<ele>482.58</ele>
				<time>2025-07-29T02:37:43.558Z</time>
			</trkpt>
			<trkpt lat="48.37396" lon="15.3201">
				<ele>480.83</ele>
				<time>2025-07-29T02:37:44.485Z</time>
			</trkpt>
			<trkpt lat="48.37374" lon="15.32046">
				<ele>477.32</ele>
				<time>2025-07-29T02:37:46.498Z</time>
			</trkpt>
			<trkpt lat="48.37358" lon="15.32082">
				<ele>476.76</ele>
				<time>2025-07-29T02:37:48.280Z</time>
			</trkpt>
			<trkpt lat="48.37318" lon="15.32142">
				<ele>475.03</ele>
				<time>2025-07-29T02:37:51.781Z</time>
			</trkpt>
			<trkpt lat="48.37254" lon="15.32231">
				<ele>469.7</ele>
				<time>2025-07-29T02:37:57.191Z</time>
			</trkpt>
			<trkpt lat="48.3722" lon="15.32264">
				<ele>461.4</ele>
				<time>2025-07-29T02:37:59.709Z</time>
			</trkpt>
			<trkpt lat="48.37187" lon="15.3232">
				<ele>463.19</ele>
				<time>2025-07-29T02:38:02.811Z</time>
			</trkpt>
			<trkpt lat="48.37172" lon="15.32334">
				<ele>460.99</ele>
				<time>2025-07-29T02:38:03.914Z</time>
			</trkpt>
			<trkpt lat="48.37162" lon="15.3234">
				<ele>459.71</ele>
				<time>2025-07-29T02:38:04.588Z</time>
			</trkpt>
			<trkpt lat="48.37096" lon="15.32371">
				<ele>451.6</ele>
				<time>2025-07-29T02:38:08.924Z</time>
			</trkpt>
			<trkpt lat="48.37073" lon="15.32389">
				<ele>447.73</ele>
				<time>2025-07-29T02:38:10.555Z</time>
			</trkpt>
			<trkpt lat="48.37053" lon="15.32416">
				<ele>446.51</ele>
				<time>2025-07-29T02:38:12.249Z</time>
			</trkpt>
			<trkpt lat="48.3699" lon="15.32537">
				<ele>434.75</ele>
				<time>2025-07-29T02:38:18.727Z</time>
			</trkpt>
			<trkpt lat="48.36964" lon="15.32597">
				<ele>433.37</ele>
				<time>2025-07-29T02:38:21.769Z</time>
			</trkpt>
			<trkpt lat="48.36917" lon="15.32724">
				<ele>431.61</ele>
				<time>2025-07-29T02:38:27.993Z</time>
			</trkpt>
			<trkpt lat="48.369" lon="15.32753">
				<ele>431.25</ele>
				<time>2025-07-29T02:38:29.661Z</time>
			</trkpt>
			<trkpt lat="48.36879" lon="15.3278">
				<ele>426.07</ele>
				<time>2025-07-29T02:38:31.461Z</time>
			</trkpt>
			<trkpt lat="48.36864" lon="15.32807">
				<ele>423.14</ele>
				<time>2025-07-29T02:38:32.990Z</time>
			</trkpt>
			<trkpt lat="48.3683" lon="15.3287">
				<ele>415.69</ele>
				<time>2025-07-29T02:38:36.536Z</time>
			</trkpt>
			<trkpt lat="48.36822" lon="15.32897">
				<ele>414.53</ele>
				<time>2025-07-29T02:38:37.834Z</time>
			</trkpt>
			<trkpt lat="48.36794" lon="15.33034">
				<ele>403.32</ele>
				<time>2025-07-29T02:38:44.188Z</time>
			</trkpt>
			<trkpt lat="48.36784" lon="15.33067">
				<ele>399.27</ele>
				<time>2025-07-29T02:38:45.812Z</time>
			</trkpt>
			<trkpt lat="48.36756" lon="15.33129">
				<ele>395.53</ele>
				<time>2025-07-29T02:38:49.189Z</time>
			</trkpt>
			<trkpt lat="48.36749" lon="15.33136">
				<ele>394.3</ele>
				<time>2025-07-29T02:38:49.762Z</time>
			</trkpt>
			<trkpt lat="48.3676" lon="15.33206">
				<ele>393.12</ele>
				<time>2025-07-29T02:38:53.036Z</time>
			</trkpt>
			<trkpt lat="48.36777" lon="15.33259">
				<ele>395.35</ele>
				<time>2025-07-29T02:38:55.737Z</time>
			</trkpt>
			<trkpt lat="48.36788" lon="15.33279">
				<ele>394.18</ele>
				<time>2025-07-29T02:38:56.935Z</time>
			</trkpt>
			<trkpt lat="48.36817" lon="15.33318">
				<ele>388.69</ele>
				<time>2025-07-29T02:38:59.651Z</time>
			</trkpt>
			<trkpt lat="48.36845" lon="15.33381">
				<ele>381.92</ele>
				<time>2025-07-29T02:39:03.199Z</time>
			</trkpt>
			<trkpt lat="48.36896" lon="15.33482">
				<ele>376.22</ele>
				<time>2025-07-29T02:39:09.221Z</time>
			</trkpt>
			<trkpt lat="48.36909" lon="15.33504">
				<ele>374.97</ele>
				<time>2025-07-29T02:39:10.635Z</time>
			</trkpt>
			<trkpt lat="48.36941" lon="15.33541">
				<ele>373.72</ele>
				<time>2025-07-29T02:39:13.570Z</time>
			</trkpt>
			<trkpt lat="48.3696" lon="15.33562">
				<ele>372.96</ele>
				<time>2025-07-29T02:39:15.297Z</time>
			</trkpt>
			<trkpt lat="48.36981" lon="15.33589">
				<ele>372.32</ele>
				<time>2025-07-29T02:39:17.332Z</time>
			</trkpt>
			<trkpt lat="48.36995" lon="15.33613">
				<ele>372.78</ele>
				<time>2025-07-29T02:39:18.904Z</time>
			</trkpt>
			<trkpt lat="48.37011" lon="15.33644">
				<ele>371.91</ele>
				<time>2025-07-29T02:39:20.848Z</time>
			</trkpt>
			<trkpt lat="48.37054" lon="15.33758">
				<ele>367.73</ele>
				<time>2025-07-29T02:39:27.425Z</time>
			</trkpt>
			<trkpt lat="48.37072" lon="15.33802">
				<ele>367.87</ele>
				<time>2025-07-29T02:39:30.056Z</time>
			</trkpt>
			<trkpt lat="48.37082" lon="15.33816">
				<ele>368.41</ele>
				<time>2025-07-29T02:39:31.109Z</time>
			</trkpt>
			<trkpt lat="48.3711" lon="15.33848">
				<ele>366.6</ele>
				<time>2025-07-29T02:39:33.836Z</time>
			</trkpt>
			<trkpt lat="48.37121" lon="15.33864">
				<ele>366.22</ele>
				<time>2025-07-29T02:39:35.030Z</time>
			</trkpt>
			<trkpt lat="48.37129" lon="15.33881">
				<ele>365.68</ele>
				<time>2025-07-29T02:39:36.114Z</time>
			</trkpt>
			<trkpt lat="48.37143" lon="15.33924">
				<ele>365.28</ele>
				<time>2025-07-29T02:39:38.621Z</time>
			</trkpt>
			<trkpt lat="48.37155" lon="15.3398">
				<ele>365.83</ele>
				<time>2025-07-29T02:39:41.730Z</time>
			</trkpt>
			<trkpt lat="48.37165" lon="15.34044">
				<ele>367.14</ele>
				<time>2025-07-29T02:39:45.242Z</time>
			</trkpt>
			<trkpt lat="48.37174" lon="15.3411">
				<ele>368.14</ele>
				<time>2025-07-29T02:39:48.883Z</time>
			</trkpt>
			<trkpt lat="48.37184" lon="15.34138">
				<ele>368.75</ele>
				<time>2025-07-29T02:39:50.616Z</time>
			</trkpt>
			<trkpt lat="48.37198" lon="15.34154">
				<ele>369.59</ele>
				<time>2025-07-29T02:39:52.066Z</time>
			</trkpt>
			<trkpt lat="48.37244" lon="15.34191">
				<ele>368.62</ele>
				<time>2025-07-29T02:39:56.391Z</time>
			</trkpt>
			<trkpt lat="48.37258" lon="15.34211">
				<ele>368.78</ele>
				<time>2025-07-29T02:39:58.000Z</time>
			</trkpt>
			<trkpt lat="48.37273" lon="15.34243">
				<ele>367.38</ele>
				<time>2025-07-29T02:40:00.177Z</time>
			</trkpt>
			<trkpt lat="48.37286" lon="15.34286">
				<ele>365.06</ele>
				<time>2025-07-29T02:40:02.817Z</time>
			</trkpt>
			<trkpt lat="48.37303" lon="15.34364">
				<ele>357.22</ele>
				<time>2025-07-29T02:40:07.440Z</time>
			</trkpt>
			<trkpt lat="48.37304" lon="15.34381">
				<ele>355.73</ele>
				<time>2025-07-29T02:40:08.407Z</time>
			</trkpt>
			<trkpt lat="48.37304" lon="15.34433">
				<ele>354.32</ele>
				<time>2025-07-29T02:40:11.369Z</time>
			</trkpt>
			<trkpt lat="48.37305" lon="15.34453">
				<ele>354.67</ele>
				<time>2025-07-29T02:40:12.517Z</time>
			</trkpt>
			<trkpt lat="48.37307" lon="15.34472">
				<ele>355.03</ele>
				<time>2025-07-29T02:40:13.622Z</time>
			</trkpt>
			<trkpt lat="48.37322" lon="15.34542">
				<ele>354</ele>
				<time>2025-07-29T02:40:17.876Z</time>
			</trkpt>
			<trkpt lat="48.37334" lon="15.34548">
				<ele>354</ele>
				<time>2025-07-29T02:40:18.985Z</time>
			</trkpt>
			<trkpt lat="48.37342" lon="15.34549">
				<ele>354</ele>
				<time>2025-07-29T02:40:19.691Z</time>
			</trkpt>
			<trkpt lat="48.37388" lon="15.34493">
				<ele>356.89</ele>
				<time>2025-07-29T02:40:24.938Z</time>
			</trkpt>
			<trkpt lat="48.37401" lon="15.3451">
				<ele>357.45</ele>
				<time>2025-07-29T02:40:26.481Z</time>
			</trkpt>
			<trkpt lat="48.37403" lon="15.34519">
				<ele>358.13</ele>
				<time>2025-07-29T02:40:27.047Z</time>
			</trkpt>
			<trkpt lat="48.37401" lon="15.34528">
				<ele>358.43</ele>
				<time>2025-07-29T02:40:27.615Z</time>
			</trkpt>
			<trkpt lat="48.37392" lon="15.34539">
				<ele>357.86</ele>
				<time>2025-07-29T02:40:28.662Z</time>
			</trkpt>
			<trkpt lat="48.37385" lon="15.34551">
				<ele>357.39</ele>
				<time>2025-07-29T02:40:29.622Z</time>
			</trkpt>
			<trkpt lat="48.37386" lon="15.3456">
				<ele>357.75</ele>
				<time>2025-07-29T02:40:30.172Z</time>
			</trkpt>
			<trkpt lat="48.37392" lon="15.34574">
				<ele>359.32</ele>
				<time>2025-07-29T02:40:31.179Z</time>
			</trkpt>
			<trkpt lat="48.37411" lon="15.34596">
				<ele>364.57</ele>
				<time>2025-07-29T02:40:33.371Z</time>
			</trkpt>
			<trkpt lat="48.37423" lon="15.34604">
				<ele>366.43</ele>
				<time>2025-07-29T02:40:34.578Z</time>
			</trkpt>
			<trkpt lat="48.37528" lon="15.3471">
				<ele>383.07</ele>
				<time>2025-07-29T02:40:46.458Z</time>
			</trkpt>
			<trkpt lat="48.37602" lon="15.34821">
				<ele>386.11</ele>
				<time>2025-07-29T02:40:56.656Z</time>
			</trkpt>
			<trkpt lat="48.37635" lon="15.34849">
				<ele>385.41</ele>
				<time>2025-07-29T02:41:00.448Z</time>
			</trkpt>
			<trkpt lat="48.37641" lon="15.34852">
				<ele>385.49</ele>
				<time>2025-07-29T02:41:01.086Z</time>
			</trkpt>
			<trkpt lat="48.37653" lon="15.3485">
				<ele>386.21</ele>
				<time>2025-07-29T02:41:02.308Z</time>
			</trkpt>
			<trkpt lat="48.3768" lon="15.34833">
				<ele>388.47</ele>
				<time>2025-07-29T02:41:05.293Z</time>
			</trkpt>
			<trkpt lat="48.37724" lon="15.34813">
				<ele>393.08</ele>
				<time>2025-07-29T02:41:10.048Z</time>
			</trkpt>
			<trkpt lat="48.3775" lon="15.34798">
				<ele>394.07</ele>
				<time>2025-07-29T02:41:12.969Z</time>
			</trkpt>
			<trkpt lat="48.37759" lon="15.34795">
				<ele>394.69</ele>
				<time>2025-07-29T02:41:13.943Z</time>
			</trkpt>
			<trkpt lat="48.37764" lon="15.348">
				<ele>395.05</ele>
				<time>2025-07-29T02:41:14.579Z</time>
			</trkpt>
			<trkpt lat="48.37767" lon="15.34813">
				<ele>395.25</ele>
				<time>2025-07-29T02:41:15.551Z</time>
			</trkpt>
			<trkpt lat="48.37766" lon="15.34873">
				<ele>395.78</ele>
				<time>2025-07-29T02:41:19.829Z</time>
			</trkpt>
			<trkpt lat="48.37769" lon="15.34885">
				<ele>395.96</ele>
				<time>2025-07-29T02:41:20.752Z</time>
			</trkpt>
			<trkpt lat="48.37774" lon="15.34892">
				<ele>396</ele>
				<time>2025-07-29T02:41:21.494Z</time>
			</trkpt>
			<trkpt lat="48.3778" lon="15.34896">
				<ele>395.94</ele>
				<time>2025-07-29T02:41:22.209Z</time>
			</trkpt>
			<trkpt lat="48.37798" lon="15.34898">
				<ele>395.51</ele>
				<time>2025-07-29T02:41:24.185Z</time>
			</trkpt>
			<trkpt lat="48.37817" lon="15.34896">
				<ele>397.14</ele>
				<time>2025-07-29T02:41:26.287Z</time>
			</trkpt>
			<trkpt lat="48.37998" lon="15.34854">
				<ele>420.2</ele>
				<time>2025-07-29T02:41:48.096Z</time>
			</trkpt>
			<trkpt lat="48.38063" lon="15.34846">
				<ele>424.07</ele>
				<time>2025-07-29T02:41:56.557Z</time>
			</trkpt>
			<trkpt lat="48.3822" lon="15.34801">
				<ele>450.53</ele>
				<time>2025-07-29T02:42:17.829Z</time>
			</trkpt>
			<trkpt lat="48.38243" lon="15.348">
				<ele>455.48</ele>
				<time>2025-07-29T02:42:20.866Z</time>
			</trkpt>
			<trkpt lat="48.38282" lon="15.34812">
				<ele>462.07</ele>
				<time>2025-07-29T02:42:26.042Z</time>
			</trkpt>
			<trkpt lat="48.38328" lon="15.34821">
				<ele>466.63</ele>
				<time>2025-07-29T02:42:31.898Z</time>
			</trkpt>
			<trkpt lat="48.3835" lon="15.34833">
				<ele>465.48</ele>
				<time>2025-07-29T02:42:34.761Z</time>
			</trkpt>
			<trkpt lat="48.38377" lon="15.34857">
				<ele>463.16</ele>
				<time>2025-07-29T02:42:38.479Z</time>
			</trkpt>
			<trkpt lat="48.38395" lon="15.34865">
				<ele>463.98</ele>
				<time>2025-07-29T02:42:40.634Z</time>
			</trkpt>
			<trkpt lat="48.38414" lon="15.34867">
				<ele>466.4</ele>
				<time>2025-07-29T02:42:42.759Z</time>
			</trkpt>
			<trkpt lat="48.3845" lon="15.34864">
				<ele>470.02</ele>
				<time>2025-07-29T02:42:46.600Z</time>
			</trkpt>
			<trkpt lat="48.38493" lon="15.34864">
				<ele>472.5</ele>
				<time>2025-07-29T02:42:50.827Z</time>
			</trkpt>
			<trkpt lat="48.38508" lon="15.34869">
				<ele>472.82</ele>
				<time>2025-07-29T02:42:52.235Z</time>
			</trkpt>
			<trkpt lat="48.38518" lon="15.3488">
				<ele>472.11</ele>
				<time>2025-07-29T02:42:53.327Z</time>
			</trkpt>
			<trkpt lat="48.38525" lon="15.34893">
				<ele>471.28</ele>
				<time>2025-07-29T02:42:54.285Z</time>
			</trkpt>
			<trkpt lat="48.38529" lon="15.34909">
				<ele>470.89</ele>
				<time>2025-07-29T02:42:55.259Z</time>
			</trkpt>
			<trkpt lat="48.38527" lon="15.34925">
				<ele>470.76</ele>
				<time>2025-07-29T02:42:56.181Z</time>
			</trkpt>
			<trkpt lat="48.38508" lon="15.34974">
				<ele>469.86</ele>
				<time>2025-07-29T02:42:59.361Z</time>
			</trkpt>
			<trkpt lat="48.38489" lon="15.35017">
				<ele>464.9</ele>
				<time>2025-07-29T02:43:02.209Z</time>
			</trkpt>
			<trkpt lat="48.38488" lon="15.35031">
				<ele>464.04</ele>
				<time>2025-07-29T02:43:02.978Z</time>
			</trkpt>
			<trkpt lat="48.38493" lon="15.35044">
				<ele>464.57</ele>
				<time>2025-07-29T02:43:03.795Z</time>
			</trkpt>
			<trkpt lat="48.38497" lon="15.3505">
				<ele>465.55</ele>
				<time>2025-07-29T02:43:04.256Z</time>
			</trkpt>
			<trkpt lat="48.38521" lon="15.35071">
				<ele>472.39</ele>
				<time>2025-07-29T02:43:06.505Z</time>
			</trkpt>
			<trkpt lat="48.38557" lon="15.35096">
				<ele>476.35</ele>
				<time>2025-07-29T02:43:09.668Z</time>
			</trkpt>
			<trkpt lat="48.38608" lon="15.35137">
				<ele>479.58</ele>
				<time>2025-07-29T02:43:14.182Z</time>
			</trkpt>
			<trkpt lat="48.38728" lon="15.35251">
				<ele>468.03</ele>
				<time>2025-07-29T02:43:24.785Z</time>
			</trkpt>
			<trkpt lat="48.38735" lon="15.35264">
				<ele>468.39</ele>
				<time>2025-07-29T02:43:25.588Z</time>
			</trkpt>
			<trkpt lat="48.38741" lon="15.3528">
				<ele>468.44</ele>
				<time>2025-07-29T02:43:26.465Z</time>
			</trkpt>
			<trkpt lat="48.38747" lon="15.35332">
				<ele>470.38</ele>
				<time>2025-07-29T02:43:28.959Z</time>
			</trkpt>
			<trkpt lat="48.38757" lon="15.35388">
				<ele>470.55</ele>
				<time>2025-07-29T02:43:31.655Z</time>
			</trkpt>
			<trkpt lat="48.38775" lon="15.3543">
				<ele>469.34</ele>
				<time>2025-07-29T02:43:33.944Z</time>
			</trkpt>
			<trkpt lat="48.38794" lon="15.35463">
				<ele>467.38</ele>
				<time>2025-07-29T02:43:35.917Z</time>
			</trkpt>
			<trkpt lat="48.38813" lon="15.35481">
				<ele>465.26</ele>
				<time>2025-07-29T02:43:37.427Z</time>
			</trkpt>
			<trkpt lat="48.38854" lon="15.3551">
				<ele>465.44</ele>
				<time>2025-07-29T02:43:40.431Z</time>
			</trkpt>
			<trkpt lat="48.3887" lon="15.35524">
				<ele>466.87</ele>
				<time>2025-07-29T02:43:41.642Z</time>
			</trkpt>
			<trkpt lat="48.38901" lon="15.35555">
				<ele>469.16</ele>
				<time>2025-07-29T02:43:44.049Z</time>
			</trkpt>
			<trkpt lat="48.3892" lon="15.35578">
				<ele>470.5</ele>
				<time>2025-07-29T02:43:45.605Z</time>
			</trkpt>
			<trkpt lat="48.38978" lon="15.3566">
				<ele>469.04</ele>
				<time>2025-07-29T02:43:50.576Z</time>
			</trkpt>
			<trkpt lat="48.39026" lon="15.35712">
				<ele>468.91</ele>
				<time>2025-07-29T02:43:54.168Z</time>
			</trkpt>
			<trkpt lat="48.39093" lon="15.35761">
				<ele>474.7</ele>
				<time>2025-07-29T02:43:58.574Z</time>
			</trkpt>
			<trkpt lat="48.39121" lon="15.35776">
				<ele>475.37</ele>
				<time>2025-07-29T02:44:00.296Z</time>
			</trkpt>
			<trkpt lat="48.3914" lon="15.3578">
				<ele>477.15</ele>
				<time>2025-07-29T02:44:01.398Z</time>
			</trkpt>
			<trkpt lat="48.39184" lon="15.35797">
				<ele>485.65</ele>
				<time>2025-07-29T02:44:03.974Z</time>
			</trkpt>
			<trkpt lat="48.39216" lon="15.35824">
				<ele>490.04</ele>
				<time>2025-07-29T02:44:06.022Z</time>
			</trkpt>
			<trkpt lat="48.3925" lon="15.35862">
				<ele>491.95</ele>
				<time>2025-07-29T02:44:08.353Z</time>
			</trkpt>
			<trkpt lat="48.39267" lon="15.35879">
				<ele>492.2</ele>
				<time>2025-07-29T02:44:09.463Z</time>
			</trkpt>
			<trkpt lat="48.39307" lon="15.35906">
				<ele>492.1</ele>
				<time>2025-07-29T02:44:11.822Z</time>
			</trkpt>
			<trkpt lat="48.3932" lon="15.35912">
				<ele>491.09</ele>
				<time>2025-07-29T02:44:12.546Z</time>
			</trkpt>
			<trkpt lat="48.39338" lon="15.35914">
				<ele>490.64</ele>
				<time>2025-07-29T02:44:13.502Z</time>
			</trkpt>
			<trkpt lat="48.3939" lon="15.35906">
				<ele>496.75</ele>
				<time>2025-07-29T02:44:16.239Z</time>
			</trkpt>
			<trkpt lat="48.39406" lon="15.35907">
				<ele>497.23</ele>
				<time>2025-07-29T02:44:17.068Z</time>
			</trkpt>
			<trkpt lat="48.39464" lon="15.35935">
				<ele>497.32</ele>
				<time>2025-07-29T02:44:20.181Z</time>
			</trkpt>
			<trkpt lat="48.39488" lon="15.35951">
				<ele>499.42</ele>
				<time>2025-07-29T02:44:21.505Z</time>
			</trkpt>
			<trkpt lat="48.39509" lon="15.3596">
				<ele>501.64</ele>
				<time>2025-07-29T02:44:22.597Z</time>
			</trkpt>
			<trkpt lat="48.39601" lon="15.35981">
				<ele>512.89</ele>
				<time>2025-07-29T02:44:27.177Z</time>
			</trkpt>
			<trkpt lat="48.39645" lon="15.35982">
				<ele>518.49</ele>
				<time>2025-07-29T02:44:29.302Z</time>
			</trkpt>
			<trkpt lat="48.39668" lon="15.35979">
				<ele>523.07</ele>
				<time>2025-07-29T02:44:30.407Z</time>
			</trkpt>
			<trkpt lat="48.39688" lon="15.35972">
				<ele>524.5</ele>
				<time>2025-07-29T02:44:31.384Z</time>
			</trkpt>
			<trkpt lat="48.3975" lon="15.35943">
				<ele>525.05</ele>
				<time>2025-07-29T02:44:34.442Z</time>
			</trkpt>
			<trkpt lat="48.3977" lon="15.35938">
				<ele>526.55</ele>
				<time>2025-07-29T02:44:35.387Z</time>
			</trkpt>
			<trkpt lat="48.39787" lon="15.35936">
				<ele>527.47</ele>
				<time>2025-07-29T02:44:36.179Z</time>
			</trkpt>
			<trkpt lat="48.39865" lon="15.35953">
				<ele>534.97</ele>
				<time>2025-07-29T02:44:39.802Z</time>
			</trkpt>
			<trkpt lat="48.3989" lon="15.35961">
				<ele>534.73</ele>
				<time>2025-07-29T02:44:40.965Z</time>
			</trkpt>
			<trkpt lat="48.39915" lon="15.35972">
				<ele>533.29</ele>
				<time>2025-07-29T02:44:42.145Z</time>
			</trkpt>
			<trkpt lat="48.3994" lon="15.35987">
				<ele>536.52</ele>
				<time>2025-07-29T02:44:43.358Z</time>
			</trkpt>
			<trkpt lat="48.40022" lon="15.36058">
				<ele>545.73</ele>
				<time>2025-07-29T02:44:47.582Z</time>
			</trkpt>
			<trkpt lat="48.40035" lon="15.36074">
				<ele>547.56</ele>
				<time>2025-07-29T02:44:48.326Z</time>
			</trkpt>
			<trkpt lat="48.40055" lon="15.36116">
				<ele>549.6</ele>
				<time>2025-07-29T02:44:49.842Z</time>
			</trkpt>
			<trkpt lat="48.40064" lon="15.36163">
				<ele>554.93</ele>
				<time>2025-07-29T02:44:51.272Z</time>
			</trkpt>
			<trkpt lat="48.40072" lon="15.36253">
				<ele>561.81</ele>
				<time>2025-07-29T02:44:53.914Z</time>
			</trkpt>
			<trkpt lat="48.40086" lon="15.36338">
				<ele>563.9</ele>
				<time>2025-07-29T02:44:56.452Z</time>
			</trkpt>
			<trkpt lat="48.40095" lon="15.36373">
				<ele>563.96</ele>
				<time>2025-07-29T02:44:57.537Z</time>
			</trkpt>
			<trkpt lat="48.40114" lon="15.36439">
				<ele>564.42</ele>
				<time>2025-07-29T02:44:59.613Z</time>
			</trkpt>
			<trkpt lat="48.40118" lon="15.36474">
				<ele>569.51</ele>
				<time>2025-07-29T02:45:00.637Z</time>
			</trkpt>
			<trkpt lat="48.40117" lon="15.36513">
				<ele>574.09</ele>
				<time>2025-07-29T02:45:01.763Z</time>
			</trkpt>
			<trkpt lat="48.40119" lon="15.36533">
				<ele>577.04</ele>
				<time>2025-07-29T02:45:02.346Z</time>
			</trkpt>
			<trkpt lat="48.40122" lon="15.36557">
				<ele>580.32</ele>
				<time>2025-07-29T02:45:03.050Z</time>
			</trkpt>
			<trkpt lat="48.40132" lon="15.36599">
				<ele>585.09</ele>
				<time>2025-07-29T02:45:04.337Z</time>
			</trkpt>
			<trkpt lat="48.402" lon="15.3677">
				<ele>588.55</ele>
				<time>2025-07-29T02:45:10.101Z</time>
			</trkpt>
			<trkpt lat="48.4022" lon="15.36814">
				<ele>589.85</ele>
				<time>2025-07-29T02:45:11.651Z</time>
			</trkpt>
			<trkpt lat="48.40233" lon="15.36837">
				<ele>589.73</ele>
				<time>2025-07-29T02:45:12.531Z</time>
			</trkpt>
			<trkpt lat="48.40253" lon="15.36854">
				<ele>590.6</ele>
				<time>2025-07-29T02:45:13.541Z</time>
			</trkpt>
			<trkpt lat="48.4026" lon="15.36858">
				<ele>591.72</ele>
				<time>2025-07-29T02:45:13.871Z</time>
			</trkpt>
			<trkpt lat="48.40475" lon="15.36903">
				<ele>621.79</ele>
				<time>2025-07-29T02:45:23.576Z</time>
			</trkpt>
			<trkpt lat="48.40551" lon="15.3696">
				<ele>635.65</ele>
				<time>2025-07-29T02:45:27.470Z</time>
			</trkpt>
			<trkpt lat="48.40576" lon="15.36981">
				<ele>637.53</ele>
				<time>2025-07-29T02:45:28.798Z</time>
			</trkpt>
			<trkpt lat="48.40631" lon="15.37046">
				<ele>646.58</ele>
				<time>2025-07-29T02:45:32.080Z</time>
			</trkpt>
			<trkpt lat="48.40681" lon="15.37114">
				<ele>653.85</ele>
				<time>2025-07-29T02:45:35.295Z</time>
			</trkpt>
			<trkpt lat="48.40701" lon="15.37144">
				<ele>653.15</ele>
				<time>2025-07-29T02:45:36.660Z</time>
			</trkpt>
			<trkpt lat="48.40788" lon="15.37317">
				<ele>654.5</ele>
				<time>2025-07-29T02:45:43.797Z</time>
			</trkpt>
			<trkpt lat="48.40844" lon="15.37415">
				<ele>667.49</ele>
				<time>2025-07-29T02:45:48.202Z</time>
			</trkpt>
			<trkpt lat="48.40875" lon="15.37497">
				<ele>673.78</ele>
				<time>2025-07-29T02:45:51.495Z</time>
			</trkpt>
			<trkpt lat="48.40895" lon="15.37544">
				<ele>679.28</ele>
				<time>2025-07-29T02:45:53.478Z</time>
			</trkpt>
			<trkpt lat="48.40907" lon="15.37566">
				<ele>681.95</ele>
				<time>2025-07-29T02:45:54.499Z</time>
			</trkpt>
			<trkpt lat="48.40926" lon="15.37594">
				<ele>685.59</ele>
				<time>2025-07-29T02:45:55.946Z</time>
			</trkpt>
			<trkpt lat="48.40967" lon="15.37644">
				<ele>686.49</ele>
				<time>2025-07-29T02:45:58.861Z</time>
			</trkpt>
			<trkpt lat="48.40984" lon="15.37661">
				<ele>687.23</ele>
				<time>2025-07-29T02:46:00.003Z</time>
			</trkpt>
			<trkpt lat="48.41016" lon="15.37686">
				<ele>692.09</ele>
				<time>2025-07-29T02:46:02.043Z</time>
			</trkpt>
			<trkpt lat="48.41027" lon="15.37699">
				<ele>693.72</ele>
				<time>2025-07-29T02:46:02.842Z</time>
			</trkpt>
			<trkpt lat="48.41038" lon="15.37719">
				<ele>695.4</ele>
				<time>2025-07-29T02:46:03.833Z</time>
			</trkpt>
			<trkpt lat="48.41043" lon="15.37732">
				<ele>695.98</ele>
				<time>2025-07-29T02:46:04.409Z</time>
			</trkpt>
			<trkpt lat="48.41045" lon="15.37749">
				<ele>695.82</ele>
				<time>2025-07-29T02:46:05.074Z</time>
			</trkpt>
			<trkpt lat="48.41046" lon="15.37783">
				<ele>695.61</ele>
				<time>2025-07-29T02:46:06.393Z</time>
			</trkpt>
			<trkpt lat="48.41051" lon="15.37792">
				<ele>696.8</ele>
				<time>2025-07-29T02:46:06.851Z</time>
			</trkpt>
			<trkpt lat="48.41057" lon="15.37795">
				<ele>697.96</ele>
				<time>2025-07-29T02:46:07.223Z</time>
			</trkpt>
			<trkpt lat="48.41063" lon="15.37792">
				<ele>698.73</ele>
				<time>2025-07-29T02:46:07.597Z</time>
			</trkpt>
			<trkpt lat="48.41068" lon="15.37783">
				<ele>699.05</ele>
				<time>2025-07-29T02:46:08.058Z</time>
			</trkpt>
			<trkpt lat="48.41079" lon="15.3769">
				<ele>704.51</ele>
				<time>2025-07-29T02:46:11.824Z</time>
			</trkpt>
			<trkpt lat="48.41083" lon="15.37669">
				<ele>705.92</ele>
				<time>2025-07-29T02:46:12.709Z</time>
			</trkpt>
			<trkpt lat="48.41087" lon="15.3766">
				<ele>706.13</ele>
				<time>2025-07-29T02:46:13.149Z</time>
			</trkpt>
			<trkpt lat="48.41092" lon="15.37651">
				<ele>706.33</ele>
				<time>2025-07-29T02:46:13.628Z</time>
			</trkpt>
			<trkpt lat="48.41105" lon="15.37639">
				<ele>706.79</ele>
				<time>2025-07-29T02:46:14.569Z</time>
			</trkpt>
			<trkpt lat="48.41112" lon="15.37676">
				<ele>706.64</ele>
				<time>2025-07-29T02:46:16.159Z</time>
			</trkpt>
			<trkpt lat="48.4112" lon="15.3774">
				<ele>704.54</ele>
				<time>2025-07-29T02:46:18.889Z</time>
			</trkpt>
			<trkpt lat="48.41121" lon="15.37792">
				<ele>703.38</ele>
				<time>2025-07-29T02:46:21.105Z</time>
			</trkpt>
			<trkpt lat="48.41119" lon="15.37852">
				<ele>705.01</ele>
				<time>2025-07-29T02:46:23.704Z</time>
			</trkpt>
			<trkpt lat="48.41112" lon="15.37946">
				<ele>705.08</ele>
				<time>2025-07-29T02:46:27.887Z</time>
			</trkpt>
			<trkpt lat="48.41108" lon="15.38021">
				<ele>707.87</ele>
				<time>2025-07-29T02:46:31.295Z</time>
			</trkpt>
			<trkpt lat="48.41106" lon="15.38123">
				<ele>707.52</ele>
				<time>2025-07-29T02:46:36.036Z</time>
			</trkpt>
			<trkpt lat="48.41099" lon="15.38292">
				<ele>709.43</ele>
				<time>2025-07-29T02:46:44.218Z</time>
			</trkpt>
			<trkpt lat="48.41092" lon="15.38344">
				<ele>710.68</ele>
				<time>2025-07-29T02:46:46.866Z</time>
			</trkpt>
			<trkpt lat="48.41077" lon="15.38415">
				<ele>713.81</ele>
				<time>2025-07-29T02:46:50.655Z</time>
			</trkpt>
			<trkpt lat="48.41072" lon="15.38477">
				<ele>715.61</ele>
				<time>2025-07-29T02:46:53.896Z</time>
			</trkpt>
			<trkpt lat="48.41064" lon="15.38638">
				<ele>716.66</ele>
				<time>2025-07-29T02:47:02.555Z</time>
			</trkpt>
			<trkpt lat="48.41062" lon="15.38738">
				<ele>717.39</ele>
				<time>2025-07-29T02:47:08.132Z</time>
			</trkpt>
			<trkpt lat="48.41062" lon="15.38788">
				<ele>715.2</ele>
				<time>2025-07-29T02:47:11.658Z</time>
			</trkpt>
			<trkpt lat="48.41068" lon="15.38832">
				<ele>713.56</ele>
				<time>2025-07-29T02:47:15.437Z</time>
			</trkpt>
			<trkpt lat="48.41068" lon="15.38877">
				<ele>712.97</ele>
				<time>2025-07-29T02:47:19.053Z</time>
			</trkpt>
			<trkpt lat="48.41064" lon="15.38899">
				<ele>713.06</ele>
				<time>2025-07-29T02:47:20.590Z</time>
			</trkpt>
			<trkpt lat="48.41047" lon="15.38973">
				<ele>717.81</ele>
				<time>2025-07-29T02:47:24.857Z</time>
			</trkpt>
			<trkpt lat="48.41037" lon="15.39006">
				<ele>719.04</ele>
				<time>2025-07-29T02:47:26.795Z</time>
			</trkpt>
			<trkpt lat="48.41022" lon="15.39043">
				<ele>719.53</ele>
				<time>2025-07-29T02:47:29.094Z</time>
			</trkpt>
			<trkpt lat="48.41" lon="15.39084">
				<ele>718.91</ele>
				<time>2025-07-29T02:47:31.863Z</time>
			</trkpt>
			<trkpt lat="48.40978" lon="15.39123">
				<ele>718.78</ele>
				<time>2025-07-29T02:47:34.524Z</time>
			</trkpt>
			<trkpt lat="48.40959" lon="15.39162">
				<ele>718.63</ele>
				<time>2025-07-29T02:47:37.014Z</time>
			</trkpt>
			<trkpt lat="48.40941" lon="15.39207">
				<ele>717.75</ele>
				<time>2025-07-29T02:47:39.691Z</time>
			</trkpt>
			<trkpt lat="48.40907" lon="15.39307">
				<ele>717.29</ele>
				<time>2025-07-29T02:47:45.323Z</time>
			</trkpt>
			<trkpt lat="48.40892" lon="15.39343">
				<ele>716.64</ele>
				<time>2025-07-29T02:47:47.421Z</time>
			</trkpt>
			<trkpt lat="48.40801" lon="15.39466">
				<ele>715.82</ele>
				<time>2025-07-29T02:47:56.308Z</time>
			</trkpt>
			<trkpt lat="48.40785" lon="15.39495">
				<ele>716</ele>
				<time>2025-07-29T02:47:58.087Z</time>
			</trkpt>
			<trkpt lat="48.4077" lon="15.39526">
				<ele>716.47</ele>
				<time>2025-07-29T02:47:59.883Z</time>
			</trkpt>
			<trkpt lat="48.40753" lon="15.39576">
				<ele>717.25</ele>
				<time>2025-07-29T02:48:02.489Z</time>
			</trkpt>
			<trkpt lat="48.40735" lon="15.39614">
				<ele>714.33</ele>
				<time>2025-07-29T02:48:04.632Z</time>
			</trkpt>
			<trkpt lat="48.40715" lon="15.39641">
				<ele>711.24</ele>
				<time>2025-07-29T02:48:06.473Z</time>
			</trkpt>
			<trkpt lat="48.40692" lon="15.39665">
				<ele>707.88</ele>
				<time>2025-07-29T02:48:08.375Z</time>
			</trkpt>
			<trkpt lat="48.40659" lon="15.39693">
				<ele>704.76</ele>
				<time>2025-07-29T02:48:10.924Z</time>
			</trkpt>
			<trkpt lat="48.40621" lon="15.39715">
				<ele>701.67</ele>
				<time>2025-07-29T02:48:13.631Z</time>
			</trkpt>
			<trkpt lat="48.40456" lon="15.39789">
				<ele>707.74</ele>
				<time>2025-07-29T02:48:24.716Z</time>
			</trkpt>
			<trkpt lat="48.40445" lon="15.39797">
				<ele>707.99</ele>
				<time>2025-07-29T02:48:25.481Z</time>
			</trkpt>
			<trkpt lat="48.40435" lon="15.3981">
				<ele>708.43</ele>
				<time>2025-07-29T02:48:26.305Z</time>
			</trkpt>
			<trkpt lat="48.4043" lon="15.39821">
				<ele>708.77</ele>
				<time>2025-07-29T02:48:26.855Z</time>
			</trkpt>
			<trkpt lat="48.40426" lon="15.39843">
				<ele>709.48</ele>
				<time>2025-07-29T02:48:27.792Z</time>
			</trkpt>
			<trkpt lat="48.40428" lon="15.39866">
				<ele>710.51</ele>
				<time>2025-07-29T02:48:28.742Z</time>
			</trkpt>
			<trkpt lat="48.40439" lon="15.39886">
				<ele>711.59</ele>
				<time>2025-07-29T02:48:29.799Z</time>
			</trkpt>
			<trkpt lat="48.40488" lon="15.39924">
				<ele>716.87</ele>
				<time>2025-07-29T02:48:33.143Z</time>
			</trkpt>
			<trkpt lat="48.40499" lon="15.39937">
				<ele>715.8</ele>
				<time>2025-07-29T02:48:33.982Z</time>
			</trkpt>
			<trkpt lat="48.40605" lon="15.401">
				<ele>715.31</ele>
				<time>2025-07-29T02:48:42.851Z</time>
			</trkpt>
			<trkpt lat="48.4063" lon="15.40149">
				<ele>718.7</ele>
				<time>2025-07-29T02:48:45.183Z</time>
			</trkpt>
			<trkpt lat="48.40644" lon="15.40186">
				<ele>722.08</ele>
				<time>2025-07-29T02:48:46.774Z</time>
			</trkpt>
			<trkpt lat="48.40659" lon="15.4024">
				<ele>719.11</ele>
				<time>2025-07-29T02:48:48.939Z</time>
			</trkpt>
			<trkpt lat="48.40662" lon="15.4027">
				<ele>717.47</ele>
				<time>2025-07-29T02:48:50.051Z</time>
			</trkpt>
			<trkpt lat="48.40662" lon="15.40298">
				<ele>716.02</ele>
				<time>2025-07-29T02:48:51.072Z</time>
			</trkpt>
			<trkpt lat="48.40656" lon="15.40342">
				<ele>716.15</ele>
				<time>2025-07-29T02:48:52.697Z</time>
			</trkpt>
			<trkpt lat="48.40622" lon="15.40493">
				<ele>721.78</ele>
				<time>2025-07-29T02:48:58.350Z</time>
			</trkpt>
			<trkpt lat="48.40608" lon="15.4053">
				<ele>720.9</ele>
				<time>2025-07-29T02:48:59.830Z</time>
			</trkpt>
			<trkpt lat="48.40572" lon="15.40582">
				<ele>719.39</ele>
				<time>2025-07-29T02:49:02.412Z</time>
			</trkpt>
			<trkpt lat="48.40568" lon="15.40595">
				<ele>718.64</ele>
				<time>2025-07-29T02:49:02.900Z</time>
			</trkpt>
			<trkpt lat="48.40567" lon="15.40603">
				<ele>718.13</ele>
				<time>2025-07-29T02:49:03.176Z</time>
			</trkpt>
			<trkpt lat="48.40571" lon="15.40629">
				<ele>715.19</ele>
				<time>2025-07-29T02:49:04.080Z</time>
			</trkpt>
			<trkpt lat="48.40578" lon="15.40654">
				<ele>713.29</ele>
				<time>2025-07-29T02:49:04.994Z</time>
			</trkpt>
			<trkpt lat="48.40596" lon="15.40699">
				<ele>710.06</ele>
				<time>2025-07-29T02:49:06.751Z</time>
			</trkpt>
			<trkpt lat="48.40623" lon="15.40751">
				<ele>710.04</ele>
				<time>2025-07-29T02:49:08.932Z</time>
			</trkpt>
			<trkpt lat="48.40632" lon="15.40785">
				<ele>707.71</ele>
				<time>2025-07-29T02:49:10.130Z</time>
			</trkpt>
			<trkpt lat="48.40634" lon="15.40812">
				<ele>705.65</ele>
				<time>2025-07-29T02:49:11.014Z</time>
			</trkpt>
			<trkpt lat="48.40633" lon="15.4086">
				<ele>702.99</ele>
				<time>2025-07-29T02:49:12.564Z</time>
			</trkpt>
			<trkpt lat="48.40618" lon="15.40993">
				<ele>693.83</ele>
				<time>2025-07-29T02:49:16.845Z</time>
			</trkpt>
			<trkpt lat="48.40617" lon="15.41041">
				<ele>692.52</ele>
				<time>2025-07-29T02:49:18.343Z</time>
			</trkpt>
			<trkpt lat="48.40621" lon="15.41107">
				<ele>691.65</ele>
				<time>2025-07-29T02:49:20.388Z</time>
			</trkpt>
			<trkpt lat="48.4063" lon="15.41187">
				<ele>688.95</ele>
				<time>2025-07-29T02:49:22.858Z</time>
			</trkpt>
			<trkpt lat="48.40644" lon="15.41267">
				<ele>689.79</ele>
				<time>2025-07-29T02:49:25.338Z</time>
			</trkpt>
			<trkpt lat="48.40653" lon="15.41367">
				<ele>689.94</ele>
				<time>2025-07-29T02:49:28.314Z</time>
			</trkpt>
			<trkpt lat="48.40657" lon="15.41397">
				<ele>690.63</ele>
				<time>2025-07-29T02:49:29.206Z</time>
			</trkpt>
			<trkpt lat="48.40664" lon="15.41427">
				<ele>691.35</ele>
				<time>2025-07-29T02:49:30.127Z</time>
			</trkpt>
			<trkpt lat="48.40683" lon="15.41483">
				<ele>690.86</ele>
				<time>2025-07-29T02:49:31.934Z</time>
			</trkpt>
			<trkpt lat="48.40691" lon="15.41518">
				<ele>688.57</ele>
				<time>2025-07-29T02:49:32.989Z</time>
			</trkpt>
			<trkpt lat="48.40692" lon="15.41542">
				<ele>686.73</ele>
				<time>2025-07-29T02:49:33.670Z</time>
			</trkpt>
			<trkpt lat="48.4069" lon="15.41611">
				<ele>687.57</ele>
				<time>2025-07-29T02:49:35.611Z</time>
			</trkpt>
			<trkpt lat="48.40693" lon="15.41683">
				<ele>688.26</ele>
				<time>2025-07-29T02:49:37.614Z</time>
			</trkpt>
			<trkpt lat="48.40713" lon="15.41819">
				<ele>686</ele>
				<time>2025-07-29T02:49:41.414Z</time>
			</trkpt>
			<trkpt lat="48.40724" lon="15.4187">
				<ele>686.03</ele>
				<time>2025-07-29T02:49:42.854Z</time>
			</trkpt>
			<trkpt lat="48.40743" lon="15.41945">
				<ele>683.98</ele>
				<time>2025-07-29T02:49:44.986Z</time>
			</trkpt>
			<trkpt lat="48.40752" lon="15.42013">
				<ele>681.34</ele>
				<time>2025-07-29T02:49:46.805Z</time>
			</trkpt>
			<trkpt lat="48.40753" lon="15.42044">
				<ele>680.53</ele>
				<time>2025-07-29T02:49:47.614Z</time>
			</trkpt>
			<trkpt lat="48.40752" lon="15.42069">
				<ele>679.86</ele>
				<time>2025-07-29T02:49:48.263Z</time>
			</trkpt>
			<trkpt lat="48.4074" lon="15.42153">
				<ele>677.69</ele>
				<time>2025-07-29T02:49:50.472Z</time>
			</trkpt>
			<trkpt lat="48.40738" lon="15.4219">
				<ele>676.89</ele>
				<time>2025-07-29T02:49:51.417Z</time>
			</trkpt>
			<trkpt lat="48.40742" lon="15.42241">
				<ele>674.74</ele>
				<time>2025-07-29T02:49:52.717Z</time>
			</trkpt>
			<trkpt lat="48.40754" lon="15.42333">
				<ele>675.26</ele>
				<time>2025-07-29T02:49:55.064Z</time>
			</trkpt>
			<trkpt lat="48.40775" lon="15.42489">
				<ele>667.57</ele>
				<time>2025-07-29T02:49:58.980Z</time>
			</trkpt>
			<trkpt lat="48.40785" lon="15.42602">
				<ele>662.32</ele>
				<time>2025-07-29T02:50:01.734Z</time>
			</trkpt>
			<trkpt lat="48.40784" lon="15.42624">
				<ele>660.56</ele>
				<time>2025-07-29T02:50:02.262Z</time>
			</trkpt>
			<trkpt lat="48.40772" lon="15.427">
				<ele>651.94</ele>
				<time>2025-07-29T02:50:04.122Z</time>
			</trkpt>
			<trkpt lat="48.40772" lon="15.42732">
				<ele>649.71</ele>
				<time>2025-07-29T02:50:04.878Z</time>
			</trkpt>
			<trkpt lat="48.40778" lon="15.42759">
				<ele>649.01</ele>
				<time>2025-07-29T02:50:05.549Z</time>
			</trkpt>
			<trkpt lat="48.40794" lon="15.42806">
				<ele>648.68</ele>
				<time>2025-07-29T02:50:06.787Z</time>
			</trkpt>
			<trkpt lat="48.40812" lon="15.42868">
				<ele>644.74</ele>
				<time>2025-07-29T02:50:08.363Z</time>
			</trkpt>
			<trkpt lat="48.40843" lon="15.43001">
				<ele>638.39</ele>
				<time>2025-07-29T02:50:11.609Z</time>
			</trkpt>
			<trkpt lat="48.40863" lon="15.43057">
				<ele>636.36</ele>
				<time>2025-07-29T02:50:13.058Z</time>
			</trkpt>
			<trkpt lat="48.40867" lon="15.4307">
				<ele>634.57</ele>
				<time>2025-07-29T02:50:13.383Z</time>
			</trkpt>
			<trkpt lat="48.40871" lon="15.43094">
				<ele>630.63</ele>
				<time>2025-07-29T02:50:13.944Z</time>
			</trkpt>
			<trkpt lat="48.40874" lon="15.43152">
				<ele>624.49</ele>
				<time>2025-07-29T02:50:15.257Z</time>
			</trkpt>
			<trkpt lat="48.40881" lon="15.43206">
				<ele>623</ele>
				<time>2025-07-29T02:50:16.492Z</time>
			</trkpt>
			<trkpt lat="48.40883" lon="15.43244">
				<ele>620.17</ele>
				<time>2025-07-29T02:50:17.345Z</time>
			</trkpt>
			<trkpt lat="48.4088" lon="15.4328">
				<ele>617.95</ele>
				<time>2025-07-29T02:50:18.154Z</time>
			</trkpt>
			<trkpt lat="48.40877" lon="15.43301">
				<ele>616.87</ele>
				<time>2025-07-29T02:50:18.632Z</time>
			</trkpt>
			<trkpt lat="48.40866" lon="15.43353">
				<ele>612</ele>
				<time>2025-07-29T02:50:19.842Z</time>
			</trkpt>
			<trkpt lat="48.40867" lon="15.43371">
				<ele>611.18</ele>
				<time>2025-07-29T02:50:20.242Z</time>
			</trkpt>
			<trkpt lat="48.40894" lon="15.43441">
				<ele>609.89</ele>
				<time>2025-07-29T02:50:22.026Z</time>
			</trkpt>
			<trkpt lat="48.40903" lon="15.43453">
				<ele>609.21</ele>
				<time>2025-07-29T02:50:22.424Z</time>
			</trkpt>
			<trkpt lat="48.40913" lon="15.43455">
				<ele>611.15</ele>
				<time>2025-07-29T02:50:22.757Z</time>
			</trkpt>
			<trkpt lat="48.4097" lon="15.43448">
				<ele>611.35</ele>
				<time>2025-07-29T02:50:24.642Z</time>
			</trkpt>
			<trkpt lat="48.40978" lon="15.4345">
				<ele>610.28</ele>
				<time>2025-07-29T02:50:24.908Z</time>
			</trkpt>
			<trkpt lat="48.40988" lon="15.43456">
				<ele>608.23</ele>
				<time>2025-07-29T02:50:25.261Z</time>
			</trkpt>
			<trkpt lat="48.40996" lon="15.43468">
				<ele>606.44</ele>
				<time>2025-07-29T02:50:25.632Z</time>
			</trkpt>
			<trkpt lat="48.41001" lon="15.43486">
				<ele>605.18</ele>
				<time>2025-07-29T02:50:26.056Z</time>
			</trkpt>
			<trkpt lat="48.41001" lon="15.43521">
				<ele>602.75</ele>
				<time>2025-07-29T02:50:26.816Z</time>
			</trkpt>
			<trkpt lat="48.40996" lon="15.43555">
				<ele>600.41</ele>
				<time>2025-07-29T02:50:27.571Z</time>
			</trkpt>
			<trkpt lat="48.40984" lon="15.43626">
				<ele>593.79</ele>
				<time>2025-07-29T02:50:29.155Z</time>
			</trkpt>
			<trkpt lat="48.40975" lon="15.43677">
				<ele>587.9</ele>
				<time>2025-07-29T02:50:30.293Z</time>
			</trkpt>
			<trkpt lat="48.40967" lon="15.43708">
				<ele>586.83</ele>
				<time>2025-07-29T02:50:31.009Z</time>
			</trkpt>
			<trkpt lat="48.40956" lon="15.4374">
				<ele>585.37</ele>
				<time>2025-07-29T02:50:31.784Z</time>
			</trkpt>
			<trkpt lat="48.40939" lon="15.43776">
				<ele>581.57</ele>
				<time>2025-07-29T02:50:32.733Z</time>
			</trkpt>
			<trkpt lat="48.40913" lon="15.43828">
				<ele>576.44</ele>
				<time>2025-07-29T02:50:34.128Z</time>
			</trkpt>
			<trkpt lat="48.40879" lon="15.43889">
				<ele>579.11</ele>
				<time>2025-07-29T02:50:35.833Z</time>
			</trkpt>
			<trkpt lat="48.40869" lon="15.43913">
				<ele>578.27</ele>
				<time>2025-07-29T02:50:36.439Z</time>
			</trkpt>
			<trkpt lat="48.4084" lon="15.43999">
				<ele>568.43</ele>
				<time>2025-07-29T02:50:38.500Z</time>
			</trkpt>
			<trkpt lat="48.40823" lon="15.44071">
				<ele>560.71</ele>
				<time>2025-07-29T02:50:40.132Z</time>
			</trkpt>
			<trkpt lat="48.40796" lon="15.44161">
				<ele>552.01</ele>
				<time>2025-07-29T02:50:42.241Z</time>
			</trkpt>
			<trkpt lat="48.4079" lon="15.44206">
				<ele>553.44</ele>
				<time>2025-07-29T02:50:43.221Z</time>
			</trkpt>
			<trkpt lat="48.40779" lon="15.44238">
				<ele>550.86</ele>
				<time>2025-07-29T02:50:43.991Z</time>
			</trkpt>
			<trkpt lat="48.40765" lon="15.44261">
				<ele>549.01</ele>
				<time>2025-07-29T02:50:44.658Z</time>
			</trkpt>
			<trkpt lat="48.40753" lon="15.44275">
				<ele>547.72</ele>
				<time>2025-07-29T02:50:45.147Z</time>
			</trkpt>
			<trkpt lat="48.40709" lon="15.44319">
				<ele>541.34</ele>
				<time>2025-07-29T02:50:46.851Z</time>
			</trkpt>
			<trkpt lat="48.40668" lon="15.44365">
				<ele>536.76</ele>
				<time>2025-07-29T02:50:48.503Z</time>
			</trkpt>
			<trkpt lat="48.40635" lon="15.44413">
				<ele>532.16</ele>
				<time>2025-07-29T02:50:49.988Z</time>
			</trkpt>
			<trkpt lat="48.40622" lon="15.44427">
				<ele>528.83</ele>
				<time>2025-07-29T02:50:50.507Z</time>
			</trkpt>
			<trkpt lat="48.40605" lon="15.44439">
				<ele>524.76</ele>
				<time>2025-07-29T02:50:51.116Z</time>
			</trkpt>
			<trkpt lat="48.40593" lon="15.44452">
				<ele>522.7</ele>
				<time>2025-07-29T02:50:51.597Z</time>
			</trkpt>
			<trkpt lat="48.40569" lon="15.4449">
				<ele>522.22</ele>
				<time>2025-07-29T02:50:52.731Z</time>
			</trkpt>
			<trkpt lat="48.40562" lon="15.44498">
				<ele>521.36</ele>
				<time>2025-07-29T02:50:53.017Z</time>
			</trkpt>
			<trkpt lat="48.40555" lon="15.44505">
				<ele>519.73</ele>
				<time>2025-07-29T02:50:53.291Z</time>
			</trkpt>
			<trkpt lat="48.40529" lon="15.44518">
				<ele>511.35</ele>
				<time>2025-07-29T02:50:54.186Z</time>
			</trkpt>
			<trkpt lat="48.40515" lon="15.44521">
				<ele>508.23</ele>
				<time>2025-07-29T02:50:54.649Z</time>
			</trkpt>
			<trkpt lat="48.405" lon="15.44529">
				<ele>506.77</ele>
				<time>2025-07-29T02:50:55.170Z</time>
			</trkpt>
			<trkpt lat="48.40483" lon="15.44548">
				<ele>504.18</ele>
				<time>2025-07-29T02:50:55.865Z</time>
			</trkpt>
			<trkpt lat="48.40473" lon="15.44566">
				<ele>502.09</ele>
				<time>2025-07-29T02:50:56.377Z</time>
			</trkpt>
			<trkpt lat="48.40442" lon="15.4464">
				<ele>496.36</ele>
				<time>2025-07-29T02:50:58.293Z</time>
			</trkpt>
			<trkpt lat="48.40413" lon="15.44693">
				<ele>492.65</ele>
				<time>2025-07-29T02:50:59.804Z</time>
			</trkpt>
			<trkpt lat="48.40407" lon="15.4471">
				<ele>491.04</ele>
				<time>2025-07-29T02:51:00.229Z</time>
			</trkpt>
			<trkpt lat="48.40406" lon="15.44721">
				<ele>491.41</ele>
				<time>2025-07-29T02:51:00.474Z</time>
			</trkpt>
			<trkpt lat="48.40406" lon="15.44755">
				<ele>492.53</ele>
				<time>2025-07-29T02:51:01.227Z</time>
			</trkpt>
			<trkpt lat="48.40413" lon="15.44836">
				<ele>491.63</ele>
				<time>2025-07-29T02:51:03.043Z</time>
			</trkpt>
			<trkpt lat="48.40419" lon="15.44868">
				<ele>487.85</ele>
				<time>2025-07-29T02:51:03.786Z</time>
			</trkpt>
			<trkpt lat="48.40431" lon="15.44913">
				<ele>484.93</ele>
				<time>2025-07-29T02:51:04.873Z</time>
			</trkpt>
			<trkpt lat="48.40434" lon="15.44939">
				<ele>485.66</ele>
				<time>2025-07-29T02:51:05.466Z</time>
			</trkpt>
			<trkpt lat="48.40433" lon="15.4498">
				<ele>485.67</ele>
				<time>2025-07-29T02:51:06.391Z</time>
			</trkpt>
			<trkpt lat="48.40427" lon="15.45017">
				<ele>484.29</ele>
				<time>2025-07-29T02:51:07.254Z</time>
			</trkpt>
			<trkpt lat="48.4042" lon="15.45046">
				<ele>480.22</ele>
				<time>2025-07-29T02:51:07.954Z</time>
			</trkpt>
			<trkpt lat="48.40405" lon="15.45096">
				<ele>473.57</ele>
				<time>2025-07-29T02:51:09.206Z</time>
			</trkpt>
			<trkpt lat="48.40399" lon="15.45127">
				<ele>470.96</ele>
				<time>2025-07-29T02:51:09.945Z</time>
			</trkpt>
			<trkpt lat="48.40396" lon="15.45164">
				<ele>468.85</ele>
				<time>2025-07-29T02:51:10.802Z</time>
			</trkpt>
			<trkpt lat="48.40397" lon="15.45201">
				<ele>466.6</ele>
				<time>2025-07-29T02:51:11.657Z</time>
			</trkpt>
			<trkpt lat="48.40402" lon="15.45234">
				<ele>464.28</ele>
				<time>2025-07-29T02:51:12.441Z</time>
			</trkpt>
			<trkpt lat="48.40418" lon="15.45277">
				<ele>465.25</ele>
				<time>2025-07-29T02:51:13.588Z</time>
			</trkpt>
			<trkpt lat="48.40417" lon="15.45288">
				<ele>464.3</ele>
				<time>2025-07-29T02:51:13.847Z</time>
			</trkpt>
			<trkpt lat="48.40415" lon="15.45292">
				<ele>463.59</ele>
				<time>2025-07-29T02:51:13.964Z</time>
			</trkpt>
			<trkpt lat="48.40406" lon="15.45297">
				<ele>461.16</ele>
				<time>2025-07-29T02:51:14.303Z</time>
			</trkpt>
			<trkpt lat="48.404" lon="15.45292">
				<ele>459.89</ele>
				<time>2025-07-29T02:51:14.545Z</time>
			</trkpt>
			<trkpt lat="48.40391" lon="15.45269">
				<ele>459.01</ele>
				<time>2025-07-29T02:51:15.171Z</time>
			</trkpt>
			<trkpt lat="48.40368" lon="15.45195">
				<ele>457.42</ele>
				<time>2025-07-29T02:51:17.102Z</time>
			</trkpt>
			<trkpt lat="48.40354" lon="15.45162">
				<ele>454.16</ele>
				<time>2025-07-29T02:51:18.035Z</time>
			</trkpt>
			<trkpt lat="48.40347" lon="15.45151">
				<ele>452.88</ele>
				<time>2025-07-29T02:51:18.399Z</time>
			</trkpt>
			<trkpt lat="48.40328" lon="15.45129">
				<ele>450.57</ele>
				<time>2025-07-29T02:51:19.264Z</time>
			</trkpt>
			<trkpt lat="48.40285" lon="15.45092">
				<ele>446.96</ele>
				<time>2025-07-29T02:51:21.064Z</time>
			</trkpt>
			<trkpt lat="48.40275" lon="15.45078">
				<ele>446.75</ele>
				<time>2025-07-29T02:51:21.563Z</time>
			</trkpt>
			<trkpt lat="48.40268" lon="15.45062">
				<ele>446.35</ele>
				<time>2025-07-29T02:51:22.030Z</time>
			</trkpt>
			<trkpt lat="48.40268" lon="15.45041">
				<ele>445.89</ele>
				<time>2025-07-29T02:51:22.542Z</time>
			</trkpt>
			<trkpt lat="48.40274" lon="15.45007">
				<ele>444.87</ele>
				<time>2025-07-29T02:51:23.404Z</time>
			</trkpt>
			<trkpt lat="48.40282" lon="15.44991">
				<ele>444.42</ele>
				<time>2025-07-29T02:51:23.897Z</time>
			</trkpt>
			<trkpt lat="48.40286" lon="15.44985">
				<ele>444.33</ele>
				<time>2025-07-29T02:51:24.107Z</time>
			</trkpt>
			<trkpt lat="48.40301" lon="15.44974">
				<ele>444.84</ele>
				<time>2025-07-29T02:51:24.727Z</time>
			</trkpt>
			<trkpt lat="48.40326" lon="15.44962">
				<ele>446.48</ele>
				<time>2025-07-29T02:51:25.708Z</time>
			</trkpt>
			<trkpt lat="48.40338" lon="15.44953">
				<ele>447.8</ele>
				<time>2025-07-29T02:51:26.211Z</time>
			</trkpt>
			<trkpt lat="48.40345" lon="15.4494">
				<ele>448.84</ele>
				<time>2025-07-29T02:51:26.629Z</time>
			</trkpt>
			<trkpt lat="48.40347" lon="15.44932">
				<ele>449.4</ele>
				<time>2025-07-29T02:51:26.843Z</time>
			</trkpt>
			<trkpt lat="48.40348" lon="15.44913">
				<ele>449.56</ele>
				<time>2025-07-29T02:51:27.321Z</time>
			</trkpt>
			<trkpt lat="48.40329" lon="15.44805">
				<ele>446.45</ele>
				<time>2025-07-29T02:51:30.150Z</time>
			</trkpt>
			<trkpt lat="48.40324" lon="15.44789">
				<ele>444.84</ele>
				<time>2025-07-29T02:51:30.602Z</time>
			</trkpt>
			<trkpt lat="48.40305" lon="15.44748">
				<ele>435.97</ele>
				<time>2025-07-29T02:51:31.886Z</time>
			</trkpt>
			<trkpt lat="48.40299" lon="15.44728">
				<ele>433.32</ele>
				<time>2025-07-29T02:51:32.453Z</time>
			</trkpt>
			<trkpt lat="48.40298" lon="15.44718">
				<ele>432.61</ele>
				<time>2025-07-29T02:51:32.715Z</time>
			</trkpt>
			<trkpt lat="48.403" lon="15.44699">
				<ele>432.29</ele>
				<time>2025-07-29T02:51:33.215Z</time>
			</trkpt>
			<trkpt lat="48.40317" lon="15.44613">
				<ele>427.3</ele>
				<time>2025-07-29T02:51:35.563Z</time>
			</trkpt>
			<trkpt lat="48.40371" lon="15.44453">
				<ele>420.31</ele>
				<time>2025-07-29T02:51:40.364Z</time>
			</trkpt>
			<trkpt lat="48.40402" lon="15.44374">
				<ele>419.53</ele>
				<time>2025-07-29T02:51:42.874Z</time>
			</trkpt>
			<trkpt lat="48.40413" lon="15.44352">
				<ele>419.28</ele>
				<time>2025-07-29T02:51:43.634Z</time>
			</trkpt>
			<trkpt lat="48.40436" lon="15.4432">
				<ele>424.31</ele>
				<time>2025-07-29T02:51:44.945Z</time>
			</trkpt>
			<trkpt lat="48.40438" lon="15.44314">
				<ele>423.51</ele>
				<time>2025-07-29T02:51:45.133Z</time>
			</trkpt>
			<trkpt lat="48.40436" lon="15.44303">
				<ele>419.87</ele>
				<time>2025-07-29T02:51:45.452Z</time>
			</trkpt>
			<trkpt lat="48.40431" lon="15.44299">
				<ele>417.17</ele>
				<time>2025-07-29T02:51:45.691Z</time>
			</trkpt>
			<trkpt lat="48.40423" lon="15.44303">
				<ele>415.2</ele>
				<time>2025-07-29T02:51:46.047Z</time>
			</trkpt>
			<trkpt lat="48.40387" lon="15.4437">
				<ele>412.19</ele>
				<time>2025-07-29T02:51:48.488Z</time>
			</trkpt>
			<trkpt lat="48.40252" lon="15.4458">
				<ele>391.77</ele>
				<time>2025-07-29T02:51:57.047Z</time>
			</trkpt>
			<trkpt lat="48.4024" lon="15.44602">
				<ele>387.01</ele>
				<time>2025-07-29T02:51:57.905Z</time>
			</trkpt>
			<trkpt lat="48.40199" lon="15.44699">
				<ele>381.55</ele>
				<time>2025-07-29T02:52:01.417Z</time>
			</trkpt>
			<trkpt lat="48.40195" lon="15.44718">
				<ele>380.47</ele>
				<time>2025-07-29T02:52:02.034Z</time>
			</trkpt>
			<trkpt lat="48.40194" lon="15.4477">
				<ele>384.29</ele>
				<time>2025-07-29T02:52:03.654Z</time>
			</trkpt>
			<trkpt lat="48.4019" lon="15.44788">
				<ele>387.09</ele>
				<time>2025-07-29T02:52:04.249Z</time>
			</trkpt>
			<trkpt lat="48.40186" lon="15.44795">
				<ele>388.33</ele>
				<time>2025-07-29T02:52:04.539Z</time>
			</trkpt>
			<trkpt lat="48.40175" lon="15.44801">
				<ele>388.86</ele>
				<time>2025-07-29T02:52:05.094Z</time>
			</trkpt>
			<trkpt lat="48.40163" lon="15.448">
				<ele>388.01</ele>
				<time>2025-07-29T02:52:05.666Z</time>
			</trkpt>
			<trkpt lat="48.40123" lon="15.44782">
				<ele>384.67</ele>
				<time>2025-07-29T02:52:07.670Z</time>
			</trkpt>
			<trkpt lat="48.40105" lon="15.44777">
				<ele>383.53</ele>
				<time>2025-07-29T02:52:08.556Z</time>
			</trkpt>
			<trkpt lat="48.40087" lon="15.44777">
				<ele>382.38</ele>
				<time>2025-07-29T02:52:09.431Z</time>
			</trkpt>
			<trkpt lat="48.40077" lon="15.4478">
				<ele>380.73</ele>
				<time>2025-07-29T02:52:09.930Z</time>
			</trkpt>
			<trkpt lat="48.40022" lon="15.44803">
				<ele>373.15</ele>
				<time>2025-07-29T02:52:12.745Z</time>
			</trkpt>
			<trkpt lat="48.40003" lon="15.44808">
				<ele>373.14</ele>
				<time>2025-07-29T02:52:13.708Z</time>
			</trkpt>
			<trkpt lat="48.39986" lon="15.44811">
				<ele>372.32</ele>
				<time>2025-07-29T02:52:14.566Z</time>
			</trkpt>
			<trkpt lat="48.39962" lon="15.44807">
				<ele>370.14</ele>
				<time>2025-07-29T02:52:15.784Z</time>
			</trkpt>
			<trkpt lat="48.39918" lon="15.44785">
				<ele>359.89</ele>
				<time>2025-07-29T02:52:18.147Z</time>
			</trkpt>
			<trkpt lat="48.39905" lon="15.44783">
				<ele>358.1</ele>
				<time>2025-07-29T02:52:18.819Z</time>
			</trkpt>
			<trkpt lat="48.39891" lon="15.4479">
				<ele>357.77</ele>
				<time>2025-07-29T02:52:19.581Z</time>
			</trkpt>
			<trkpt lat="48.39835" lon="15.44844">
				<ele>348.57</ele>
				<time>2025-07-29T02:52:23.056Z</time>
			</trkpt>
			<trkpt lat="48.3982" lon="15.44866">
				<ele>343.3</ele>
				<time>2025-07-29T02:52:24.164Z</time>
			</trkpt>
			<trkpt lat="48.39814" lon="15.44877">
				<ele>341.29</ele>
				<time>2025-07-29T02:52:24.667Z</time>
			</trkpt>
			<trkpt lat="48.3981" lon="15.44887">
				<ele>339.84</ele>
				<time>2025-07-29T02:52:25.080Z</time>
			</trkpt>
			<trkpt lat="48.39806" lon="15.44905">
				<ele>337.92</ele>
				<time>2025-07-29T02:52:25.754Z</time>
			</trkpt>
			<trkpt lat="48.39809" lon="15.44926">
				<ele>337.56</ele>
				<time>2025-07-29T02:52:26.520Z</time>
			</trkpt>
			<trkpt lat="48.39819" lon="15.44973">
				<ele>336.7</ele>
				<time>2025-07-29T02:52:28.292Z</time>
			</trkpt>
			<trkpt lat="48.39833" lon="15.45029">
				<ele>335.83</ele>
				<time>2025-07-29T02:52:30.463Z</time>
			</trkpt>
			<trkpt lat="48.39842" lon="15.45076">
				<ele>335.71</ele>
				<time>2025-07-29T02:52:32.258Z</time>
			</trkpt>
			<trkpt lat="48.39848" lon="15.45098">
				<ele>336.29</ele>
				<time>2025-07-29T02:52:33.137Z</time>
			</trkpt>
			<trkpt lat="48.39849" lon="15.4511">
				<ele>335.91</ele>
				<time>2025-07-29T02:52:33.585Z</time>
			</trkpt>
			<trkpt lat="48.39844" lon="15.45118">
				<ele>335.66</ele>
				<time>2025-07-29T02:52:33.994Z</time>
			</trkpt>
			<trkpt lat="48.3983" lon="15.45113">
				<ele>333.86</ele>
				<time>2025-07-29T02:52:34.802Z</time>
			</trkpt>
			<trkpt lat="48.39801" lon="15.4509">
				<ele>334.03</ele>
				<time>2025-07-29T02:52:36.656Z</time>
			</trkpt>
			<trkpt lat="48.3978" lon="15.4507">
				<ele>332.06</ele>
				<time>2025-07-29T02:52:38.074Z</time>
			</trkpt>
			<trkpt lat="48.39756" lon="15.4504">
				<ele>325.63</ele>
				<time>2025-07-29T02:52:39.869Z</time>
			</trkpt>
			<trkpt lat="48.39744" lon="15.45029">
				<ele>321.95</ele>
				<time>2025-07-29T02:52:40.683Z</time>
			</trkpt>
			<trkpt lat="48.39731" lon="15.4502">
				<ele>318.67</ele>
				<time>2025-07-29T02:52:41.515Z</time>
			</trkpt>
			<trkpt lat="48.39709" lon="15.45015">
				<ele>313.28</ele>
				<time>2025-07-29T02:52:42.817Z</time>
			</trkpt>
			<trkpt lat="48.39693" lon="15.45019">
				<ele>311.46</ele>
				<time>2025-07-29T02:52:43.772Z</time>
			</trkpt>
			<trkpt lat="48.39656" lon="15.45045">
				<ele>309.3</ele>
				<time>2025-07-29T02:52:46.195Z</time>
			</trkpt>
			<trkpt lat="48.39614" lon="15.45068">
				<ele>300.43</ele>
				<time>2025-07-29T02:52:48.883Z</time>
			</trkpt>
			<trkpt lat="48.396" lon="15.45082">
				<ele>298.76</ele>
				<time>2025-07-29T02:52:49.903Z</time>
			</trkpt>
			<trkpt lat="48.39578" lon="15.45112">
				<ele>295.25</ele>
				<time>2025-07-29T02:52:51.718Z</time>
			</trkpt>
			<trkpt lat="48.39562" lon="15.45138">
				<ele>293.8</ele>
				<time>2025-07-29T02:52:53.169Z</time>
			</trkpt>
			<trkpt lat="48.39555" lon="15.45156">
				<ele>293.41</ele>
				<time>2025-07-29T02:52:54.027Z</time>
			</trkpt>
			<trkpt lat="48.39543" lon="15.45197">
				<ele>293.09</ele>
				<time>2025-07-29T02:52:55.883Z</time>
			</trkpt>
			<trkpt lat="48.3952" lon="15.45258">
				<ele>288.32</ele>
				<time>2025-07-29T02:52:58.824Z</time>
			</trkpt>
			<trkpt lat="48.39515" lon="15.45282">
				<ele>287.41</ele>
				<time>2025-07-29T02:52:59.888Z</time>
			</trkpt>
			<trkpt lat="48.39513" lon="15.45324">
				<ele>287.51</ele>
				<time>2025-07-29T02:53:01.682Z</time>
			</trkpt>
			<trkpt lat="48.39514" lon="15.45394">
				<ele>285.62</ele>
				<time>2025-07-29T02:53:04.700Z</time>
			</trkpt>
			<trkpt lat="48.39513" lon="15.45423">
				<ele>284.28</ele>
				<time>2025-07-29T02:53:05.964Z</time>
			</trkpt>
			<trkpt lat="48.39508" lon="15.45462">
				<ele>282.69</ele>
				<time>2025-07-29T02:53:07.705Z</time>
			</trkpt>
			<trkpt lat="48.39496" lon="15.45535">
				<ele>276.95</ele>
				<time>2025-07-29T02:53:11.039Z</time>
			</trkpt>
			<trkpt lat="48.39495" lon="15.45562">
				<ele>275.52</ele>
				<time>2025-07-29T02:53:12.251Z</time>
			</trkpt>
			<trkpt lat="48.39496" lon="15.45585">
				<ele>275.22</ele>
				<time>2025-07-29T02:53:13.289Z</time>
			</trkpt>
			<trkpt lat="48.39499" lon="15.45597">
				<ele>275.38</ele>
				<time>2025-07-29T02:53:13.868Z</time>
			</trkpt>
			<trkpt lat="48.39523" lon="15.45658">
				<ele>275.2</ele>
				<time>2025-07-29T02:53:17.100Z</time>
			</trkpt>
			<trkpt lat="48.3953" lon="15.45711">
				<ele>269.74</ele>
				<time>2025-07-29T02:53:19.594Z</time>
			</trkpt>
			<trkpt lat="48.39555" lon="15.45826">
				<ele>262.79</ele>
				<time>2025-07-29T02:53:25.278Z</time>
			</trkpt>
			<trkpt lat="48.39571" lon="15.45949">
				<ele>255.89</ele>
				<time>2025-07-29T02:53:31.313Z</time>
			</trkpt>
			<trkpt lat="48.39577" lon="15.45975">
				<ele>255.28</ele>
				<time>2025-07-29T02:53:32.659Z</time>
			</trkpt>
			<trkpt lat="48.39604" lon="15.46049">
				<ele>252.91</ele>
				<time>2025-07-29T02:53:36.834Z</time>
			</trkpt>
			<trkpt lat="48.3961" lon="15.46071">
				<ele>251.22</ele>
				<time>2025-07-29T02:53:38.023Z</time>
			</trkpt>
			<trkpt lat="48.39617" lon="15.4611">
				<ele>249.66</ele>
				<time>2025-07-29T02:53:40.055Z</time>
			</trkpt>
			<trkpt lat="48.39616" lon="15.46132">
				<ele>247.89</ele>
				<time>2025-07-29T02:53:41.172Z</time>
			</trkpt>
			<trkpt lat="48.39611" lon="15.4616">
				<ele>246.29</ele>
				<time>2025-07-29T02:53:42.647Z</time>
			</trkpt>
			<trkpt lat="48.39603" lon="15.462">
				<ele>244.21</ele>
				<time>2025-07-29T02:53:44.787Z</time>
			</trkpt>
			<trkpt lat="48.39569" lon="15.46297">
				<ele>239.19</ele>
				<time>2025-07-29T02:53:50.493Z</time>
			</trkpt>
			<trkpt lat="48.39561" lon="15.46326">
				<ele>236.13</ele>
				<time>2025-07-29T02:53:52.150Z</time>
			</trkpt>
			<trkpt lat="48.39559" lon="15.46349">
				<ele>233.22</ele>
				<time>2025-07-29T02:53:53.380Z</time>
			</trkpt>
			<trkpt lat="48.39561" lon="15.46377">
				<ele>230.27</ele>
				<time>2025-07-29T02:53:54.881Z</time>
			</trkpt>
			<trkpt lat="48.3956" lon="15.46393">
				<ele>228.68</ele>
				<time>2025-07-29T02:53:55.741Z</time>
			</trkpt>
			<trkpt lat="48.39554" lon="15.46405">
				<ele>227.32</ele>
				<time>2025-07-29T02:53:56.548Z</time>
			</trkpt>
			<trkpt lat="48.39545" lon="15.46412">
				<ele>225.74</ele>
				<time>2025-07-29T02:53:57.370Z</time>
			</trkpt>
			<trkpt lat="48.39546" lon="15.46455">
				<ele>224.51</ele>
				<time>2025-07-29T02:53:59.701Z</time>
			</trkpt>
			<trkpt lat="48.39542" lon="15.46475">
				<ele>223.41</ele>
				<time>2025-07-29T02:54:00.840Z</time>
			</trkpt>
			<trkpt lat="48.39541" lon="15.46494">
				<ele>222.25</ele>
				<time>2025-07-29T02:54:01.883Z</time>
			</trkpt>
			<trkpt lat="48.39544" lon="15.46513">
				<ele>220.48</ele>
				<time>2025-07-29T02:54:02.956Z</time>
			</trkpt>
			<trkpt lat="48.39562" lon="15.46538">
				<ele>219.53</ele>
				<time>2025-07-29T02:54:04.994Z</time>
			</trkpt>
			<trkpt lat="48.39572" lon="15.46559">
				<ele>218.56</ele>
				<time>2025-07-29T02:54:06.430Z</time>
			</trkpt>
			<trkpt lat="48.39597" lon="15.46649">
				<ele>216.39</ele>
				<time>2025-07-29T02:54:11.920Z</time>
			</trkpt>
			<trkpt lat="48.39649" lon="15.4677">
				<ele>215.3</ele>
				<time>2025-07-29T02:54:20.225Z</time>
			</trkpt>
			<trkpt lat="48.39657" lon="15.46794">
				<ele>215.08</ele>
				<time>2025-07-29T02:54:21.798Z</time>
			</trkpt>
			<trkpt lat="48.3966" lon="15.46811">
				<ele>214.21</ele>
				<time>2025-07-29T02:54:22.833Z</time>
			</trkpt>
			<trkpt lat="48.3966" lon="15.46836">
				<ele>211.76</ele>
				<time>2025-07-29T02:54:24.310Z</time>
			</trkpt>
			<trkpt lat="48.3966" lon="15.46871">
				<ele>208.66</ele>
				<time>2025-07-29T02:54:26.390Z</time>
			</trkpt>
			<trkpt lat="48.39669" lon="15.4692">
				<ele>209.29</ele>
				<time>2025-07-29T02:54:29.436Z</time>
			</trkpt>
			<trkpt lat="48.3967" lon="15.46935">
				<ele>209.29</ele>
				<time>2025-07-29T02:54:30.345Z</time>
			</trkpt>
			<trkpt lat="48.39667" lon="15.46972">
				<ele>209.05</ele>
				<time>2025-07-29T02:54:32.604Z</time>
			</trkpt>
			<trkpt lat="48.39682" lon="15.46989">
				<ele>209.78</ele>
				<time>2025-07-29T02:54:34.329Z</time>
			</trkpt>
			<trkpt lat="48.39704" lon="15.47004">
				<ele>210.53</ele>
				<time>2025-07-29T02:54:36.561Z</time>
			</trkpt>
			<trkpt lat="48.39709" lon="15.4701">
				<ele>210.49</ele>
				<time>2025-07-29T02:54:37.155Z</time>
			</trkpt>
			<trkpt lat="48.39723" lon="15.46998">
				<ele>212.12</ele>
				<time>2025-07-29T02:54:38.655Z</time>
			</trkpt>
			<trkpt lat="48.3974" lon="15.46975">
				<ele>214.19</ele>
				<time>2025-07-29T02:54:40.796Z</time>
			</trkpt>
			<trkpt lat="48.39753" lon="15.46993">
				<ele>214.69</ele>
				<time>2025-07-29T02:54:42.460Z</time>
			</trkpt>
			<trkpt lat="48.39764" lon="15.47016">
				<ele>214.57</ele>
				<time>2025-07-29T02:54:44.242Z</time>
			</trkpt>
			<trkpt lat="48.39769" lon="15.47035">
				<ele>213.33</ele>
				<time>2025-07-29T02:54:45.534Z</time>
			</trkpt>
			<trkpt lat="48.39771" lon="15.47049">
				<ele>211.98</ele>
				<time>2025-07-29T02:54:46.442Z</time>
			</trkpt>
			<trkpt lat="48.39779" lon="15.47072">
				<ele>210.8</ele>
				<time>2025-07-29T02:54:48.094Z</time>
			</trkpt>
			<trkpt lat="48.39813" lon="15.47123">
				<ele>210.53</ele>
				<time>2025-07-29T02:54:52.737Z</time>
			</trkpt>
			<trkpt lat="48.39857" lon="15.47184">
				<ele>213.12</ele>
				<time>2025-07-29T02:54:58.613Z</time>
			</trkpt>
			<trkpt lat="48.39905" lon="15.47228">
				<ele>214.84</ele>
				<time>2025-07-29T02:55:04.226Z</time>
			</trkpt>
			<trkpt lat="48.3993" lon="15.47258">
				<ele>215.98</ele>
				<time>2025-07-29T02:55:07.459Z</time>
			</trkpt>
			<trkpt lat="48.39977" lon="15.47326">
				<ele>214.31</ele>
				<time>2025-07-29T02:55:14.142Z</time>
			</trkpt>
			<trkpt lat="48.40026" lon="15.47427">
				<ele>210.4</ele>
				<time>2025-07-29T02:55:23.593Z</time>
			</trkpt>
			<trkpt lat="48.40029" lon="15.47434">
				<ele>210.59</ele>
				<time>2025-07-29T02:55:24.420Z</time>
			</trkpt>
			<trkpt lat="48.40031" lon="15.47449">
				<ele>210.54</ele>
				<time>2025-07-29T02:55:26.020Z</time>
			</trkpt>
			<trkpt lat="48.40031" lon="15.47519">
				<ele>208.23</ele>
				<time>2025-07-29T02:55:34.558Z</time>
			</trkpt>
			<trkpt lat="48.40036" lon="15.47572">
				<ele>207.46</ele>
				<time>2025-07-29T02:55:42.211Z</time>
			</trkpt>
			<trkpt lat="48.40033" lon="15.47631">
				<ele>202.7</ele>
				<time>2025-07-29T02:55:51.507Z</time>
			</trkpt>
			<trkpt lat="48.40063" lon="15.47674">
				<ele>205.15</ele>
				<time>2025-07-29T02:56:01.932Z</time>
			</trkpt>
			<trkpt lat="48.40107" lon="15.47754">
				<ele>202.73</ele>
				<time>2025-07-29T02:56:19.775Z</time>
			</trkpt>
			<trkpt lat="48.4013" lon="15.47793">
				<ele>205.42</ele>
				<time>2025-07-29T02:56:28.526Z</time>
			</trkpt>
			<trkpt lat="48.40278" lon="15.48003">
				<ele>205.02</ele>
				<time>2025-07-29T02:57:20.712Z</time>
			</trkpt>
			<trkpt lat="48.40302" lon="15.48042">
				<ele>207.39</ele>
				<time>2025-07-29T02:57:42.321Z</time>
			</trkpt>
			<trkpt lat="48.40375" lon="15.48168">
				<ele>210.08</ele>
				<time>2025-07-29T02:58:03.265Z</time>
			</trkpt>
			<trkpt lat="48.40409" lon="15.4822">
				<ele>208.64</ele>
				<time>2025-07-29T02:58:08.945Z</time>
			</trkpt>
			<trkpt lat="48.40452" lon="15.48281">
				<ele>215.8</ele>
				<time>2025-07-29T02:58:14.432Z</time>
			</trkpt>
			<trkpt lat="48.40483" lon="15.48318">
				<ele>209.75</ele>
				<time>2025-07-29T02:58:17.807Z</time>
			</trkpt>
			<trkpt lat="48.40564" lon="15.48407">
				<ele>202.92</ele>
				<time>2025-07-29T02:58:28.110Z</time>
			</trkpt>
			<trkpt lat="48.40602" lon="15.48455">
				<ele>203.05</ele>
				<time>2025-07-29T02:58:34.956Z</time>
			</trkpt>
			<trkpt lat="48.40619" lon="15.48482">
				<ele>202.1</ele>
				<time>2025-07-29T02:58:38.431Z</time>
			</trkpt>
			<trkpt lat="48.4064" lon="15.48525">
				<ele>201.05</ele>
				<time>2025-07-29T02:58:43.103Z</time>
			</trkpt>
			<trkpt lat="48.40653" lon="15.4856">
				<ele>198.78</ele>
				<time>2025-07-29T02:58:46.135Z</time>
			</trkpt>
			<trkpt lat="48.4083" lon="15.49113">
				<ele>197.25</ele>
				<time>2025-07-29T02:59:25.142Z</time>
			</trkpt>
			<trkpt lat="48.40867" lon="15.49212">
				<ele>197.08</ele>
				<time>2025-07-29T02:59:31.938Z</time>
			</trkpt>
			<trkpt lat="48.41018" lon="15.49572">
				<ele>199</ele>
				<time>2025-07-29T02:59:56.320Z</time>
			</trkpt>
			<trkpt lat="48.41038" lon="15.49628">
				<ele>198.84</ele>
				<time>2025-07-29T02:59:59.819Z</time>
			</trkpt>
			<trkpt lat="48.41052" lon="15.49677">
				<ele>199.1</ele>
				<time>2025-07-29T03:00:02.727Z</time>
			</trkpt>
			<trkpt lat="48.41064" lon="15.49736">
				<ele>198.82</ele>
				<time>2025-07-29T03:00:06.060Z</time>
			</trkpt>
			<trkpt lat="48.41069" lon="15.49772">
				<ele>198.09</ele>
				<time>2025-07-29T03:00:08.030Z</time>
			</trkpt>
			<trkpt lat="48.41073" lon="15.49815">
				<ele>196.63</ele>
				<time>2025-07-29T03:00:10.342Z</time>
			</trkpt>
			<trkpt lat="48.41076" lon="15.49915">
				<ele>193.51</ele>
				<time>2025-07-29T03:00:15.611Z</time>
			</trkpt>
			<trkpt lat="48.41073" lon="15.50035">
				<ele>196.27</ele>
				<time>2025-07-29T03:00:21.823Z</time>
			</trkpt>
			<trkpt lat="48.41064" lon="15.50145">
				<ele>201.2</ele>
				<time>2025-07-29T03:00:27.453Z</time>
			</trkpt>
			<trkpt lat="48.41057" lon="15.50202">
				<ele>201.48</ele>
				<time>2025-07-29T03:00:30.360Z</time>
			</trkpt>
			<trkpt lat="48.41047" lon="15.50272">
				<ele>207</ele>
				<time>2025-07-29T03:00:33.914Z</time>
			</trkpt>
			<trkpt lat="48.4103" lon="15.50347">
				<ele>209.86</ele>
				<time>2025-07-29T03:00:37.802Z</time>
			</trkpt>
			<trkpt lat="48.41017" lon="15.50386">
				<ele>209.38</ele>
				<time>2025-07-29T03:00:39.923Z</time>
			</trkpt>
			<trkpt lat="48.41008" lon="15.50408">
				<ele>210.94</ele>
				<time>2025-07-29T03:00:41.173Z</time>
			</trkpt>
			<trkpt lat="48.40982" lon="15.50459">
				<ele>205.71</ele>
				<time>2025-07-29T03:00:44.260Z</time>
			</trkpt>
			<trkpt lat="48.40925" lon="15.50557">
				<ele>206.73</ele>
				<time>2025-07-29T03:00:50.426Z</time>
			</trkpt>
			<trkpt lat="48.40905" lon="15.50601">
				<ele>207.75</ele>
				<time>2025-07-29T03:00:52.915Z</time>
			</trkpt>
			<trkpt lat="48.40893" lon="15.50638">
				<ele>207.1</ele>
				<time>2025-07-29T03:00:54.824Z</time>
			</trkpt>
			<trkpt lat="48.40864" lon="15.50749">
				<ele>203</ele>
				<time>2025-07-29T03:01:00.288Z</time>
			</trkpt>
			<trkpt lat="48.40845" lon="15.50799">
				<ele>203.52</ele>
				<time>2025-07-29T03:01:02.893Z</time>
			</trkpt>
			<trkpt lat="48.4082" lon="15.50846">
				<ele>203.51</ele>
				<time>2025-07-29T03:01:05.594Z</time>
			</trkpt>
			<trkpt lat="48.40607" lon="15.51232">
				<ele>199.62</ele>
				<time>2025-07-29T03:01:27.238Z</time>
			</trkpt>
			<trkpt lat="48.40564" lon="15.51302">
				<ele>204.16</ele>
				<time>2025-07-29T03:01:31.188Z</time>
			</trkpt>
			<trkpt lat="48.40535" lon="15.51343">
				<ele>204.48</ele>
				<time>2025-07-29T03:01:33.645Z</time>
			</trkpt>
			<trkpt lat="48.40502" lon="15.51382">
				<ele>203.1</ele>
				<time>2025-07-29T03:01:36.215Z</time>
			</trkpt>
			<trkpt lat="48.4043" lon="15.51455">
				<ele>206.04</ele>
				<time>2025-07-29T03:01:41.470Z</time>
			</trkpt>
			<trkpt lat="48.40374" lon="15.51517">
				<ele>204.69</ele>
				<time>2025-07-29T03:01:45.619Z</time>
			</trkpt>
			<trkpt lat="48.40316" lon="15.51567">
				<ele>200.51</ele>
				<time>2025-07-29T03:01:49.560Z</time>
			</trkpt>
			<trkpt lat="48.40258" lon="15.51623">
				<ele>202.68</ele>
				<time>2025-07-29T03:01:53.575Z</time>
			</trkpt>
			<trkpt lat="48.40211" lon="15.51658">
				<ele>205.38</ele>
				<time>2025-07-29T03:01:56.600Z</time>
			</trkpt>
			<trkpt lat="48.40144" lon="15.51699">
				<ele>204.03</ele>
				<time>2025-07-29T03:02:00.731Z</time>
			</trkpt>
			<trkpt lat="48.40054" lon="15.51748">
				<ele>206.88</ele>
				<time>2025-07-29T03:02:06.125Z</time>
			</trkpt>
			<trkpt lat="48.40014" lon="15.51766">
				<ele>206.88</ele>
				<time>2025-07-29T03:02:08.454Z</time>
			</trkpt>
			<trkpt lat="48.39919" lon="15.51805">
				<ele>202.38</ele>
				<time>2025-07-29T03:02:13.893Z</time>
			</trkpt>
			<trkpt lat="48.39784" lon="15.51854">
				<ele>202.08</ele>
				<time>2025-07-29T03:02:21.441Z</time>
			</trkpt>
			<trkpt lat="48.39758" lon="15.51868">
				<ele>205.34</ele>
				<time>2025-07-29T03:02:22.927Z</time>
			</trkpt>
			<trkpt lat="48.39739" lon="15.51883">
				<ele>208.66</ele>
				<time>2025-07-29T03:02:24.077Z</time>
			</trkpt>
			<trkpt lat="48.39725" lon="15.51897">
				<ele>213.26</ele>
				<time>2025-07-29T03:02:24.976Z</time>
			</trkpt>
			<trkpt lat="48.39581" lon="15.52086">
				<ele>211.8</ele>
				<time>2025-07-29T03:02:35.082Z</time>
			</trkpt>
			<trkpt lat="48.39398" lon="15.52303">
				<ele>210.06</ele>
				<time>2025-07-29T03:02:47.163Z</time>
			</trkpt>
			<trkpt lat="48.39394" lon="15.52307">
				<ele>209.27</ele>
				<time>2025-07-29T03:02:47.410Z</time>
			</trkpt>
			<trkpt lat="48.39373" lon="15.52324">
				<ele>206.02</ele>
				<time>2025-07-29T03:02:48.634Z</time>
			</trkpt>
			<trkpt lat="48.39356" lon="15.52334">
				<ele>203.69</ele>
				<time>2025-07-29T03:02:49.569Z</time>
			</trkpt>
			<trkpt lat="48.39322" lon="15.52346">
				<ele>201.79</ele>
				<time>2025-07-29T03:02:51.357Z</time>
			</trkpt>
			<trkpt lat="48.39295" lon="15.52348">
				<ele>201.55</ele>
				<time>2025-07-29T03:02:52.738Z</time>
			</trkpt>
			<trkpt lat="48.39255" lon="15.52341">
				<ele>201.27</ele>
				<time>2025-07-29T03:02:54.791Z</time>
			</trkpt>
			<trkpt lat="48.39226" lon="15.52325">
				<ele>200.69</ele>
				<time>2025-07-29T03:02:56.363Z</time>
			</trkpt>
			<trkpt lat="48.39158" lon="15.52273">
				<ele>199.71</ele>
				<time>2025-07-29T03:03:00.235Z</time>
			</trkpt>
			<trkpt lat="48.39142" lon="15.52263">
				<ele>199.13</ele>
				<time>2025-07-29T03:03:01.113Z</time>
			</trkpt>
			<trkpt lat="48.39126" lon="15.52255">
				<ele>198.63</ele>
				<time>2025-07-29T03:03:01.967Z</time>
			</trkpt>
			<trkpt lat="48.3911" lon="15.5225">
				<ele>198.03</ele>
				<time>2025-07-29T03:03:02.794Z</time>
			</trkpt>
			<trkpt lat="48.39092" lon="15.52248">
				<ele>198.67</ele>
				<time>2025-07-29T03:03:03.707Z</time>
			</trkpt>
			<trkpt lat="48.39077" lon="15.52248">
				<ele>199.22</ele>
				<time>2025-07-29T03:03:04.465Z</time>
			</trkpt>
			<trkpt lat="48.39048" lon="15.52255">
				<ele>200.19</ele>
				<time>2025-07-29T03:03:05.950Z</time>
			</trkpt>
			<trkpt lat="48.39021" lon="15.52269">
				<ele>200.22</ele>
				<time>2025-07-29T03:03:07.391Z</time>
			</trkpt>
			<trkpt lat="48.39008" lon="15.52279">
				<ele>200</ele>
				<time>2025-07-29T03:03:08.128Z</time>
			</trkpt>
			<trkpt lat="48.38994" lon="15.52293">
				<ele>200.33</ele>
				<time>2025-07-29T03:03:08.976Z</time>
			</trkpt>
			<trkpt lat="48.38977" lon="15.52315">
				<ele>201.65</ele>
				<time>2025-07-29T03:03:10.107Z</time>
			</trkpt>
			<trkpt lat="48.38958" lon="15.52348">
				<ele>200.95</ele>
				<time>2025-07-29T03:03:11.569Z</time>
			</trkpt>
			<trkpt lat="48.38942" lon="15.52387">
				<ele>200.03</ele>
				<time>2025-07-29T03:03:13.103Z</time>
			</trkpt>
			<trkpt lat="48.38907" lon="15.52487">
				<ele>196</ele>
				<time>2025-07-29T03:03:16.886Z</time>
			</trkpt>
			<trkpt lat="48.38896" lon="15.5251">
				<ele>196.38</ele>
				<time>2025-07-29T03:03:17.834Z</time>
			</trkpt>
			<trkpt lat="48.38815" lon="15.52656">
				<ele>197</ele>
				<time>2025-07-29T03:03:24.204Z</time>
			</trkpt>
			<trkpt lat="48.38774" lon="15.52741">
				<ele>197.08</ele>
				<time>2025-07-29T03:03:27.727Z</time>
			</trkpt>
			<trkpt lat="48.38726" lon="15.52854">
				<ele>197.03</ele>
				<time>2025-07-29T03:03:32.236Z</time>
			</trkpt>
			<trkpt lat="48.38691" lon="15.52954">
				<ele>197.26</ele>
				<time>2025-07-29T03:03:36.048Z</time>
			</trkpt>
			<trkpt lat="48.38675" lon="15.53007">
				<ele>197.33</ele>
				<time>2025-07-29T03:03:38.017Z</time>
			</trkpt>
			<trkpt lat="48.38649" lon="15.53123">
				<ele>196.72</ele>
				<time>2025-07-29T03:03:42.170Z</time>
			</trkpt>
			<trkpt lat="48.38641" lon="15.53152">
				<ele>196.14</ele>
				<time>2025-07-29T03:03:43.239Z</time>
			</trkpt>
			<trkpt lat="48.38621" lon="15.53205">
				<ele>196.13</ele>
				<time>2025-07-29T03:03:45.317Z</time>
			</trkpt>
			<trkpt lat="48.38586" lon="15.53282">
				<ele>194.9</ele>
				<time>2025-07-29T03:03:48.510Z</time>
			</trkpt>
			<trkpt lat="48.38564" lon="15.53342">
				<ele>195.32</ele>
				<time>2025-07-29T03:03:50.865Z</time>
			</trkpt>
			<trkpt lat="48.3855" lon="15.53403">
				<ele>196.26</ele>
				<time>2025-07-29T03:03:53.090Z</time>
			</trkpt>
			<trkpt lat="48.38544" lon="15.53448">
				<ele>197.91</ele>
				<time>2025-07-29T03:03:54.678Z</time>
			</trkpt>
			<trkpt lat="48.38542" lon="15.53479">
				<ele>198.77</ele>
				<time>2025-07-29T03:03:55.758Z</time>
			</trkpt>
			<trkpt lat="48.38541" lon="15.53529">
				<ele>198.49</ele>
				<time>2025-07-29T03:03:57.497Z</time>
			</trkpt>
			<trkpt lat="48.38543" lon="15.53583">
				<ele>197.57</ele>
				<time>2025-07-29T03:03:59.383Z</time>
			</trkpt>
			<trkpt lat="48.38547" lon="15.53624">
				<ele>197.36</ele>
				<time>2025-07-29T03:04:00.833Z</time>
			</trkpt>
			<trkpt lat="48.38559" lon="15.53724">
				<ele>194.25</ele>
				<time>2025-07-29T03:04:04.405Z</time>
			</trkpt>
			<trkpt lat="48.38593" lon="15.53956">
				<ele>197.31</ele>
				<time>2025-07-29T03:04:12.866Z</time>
			</trkpt>
			<trkpt lat="48.38616" lon="15.5408">
				<ele>196.89</ele>
				<time>2025-07-29T03:04:17.519Z</time>
			</trkpt>
			<trkpt lat="48.3863" lon="15.5415">
				<ele>197.89</ele>
				<time>2025-07-29T03:04:20.186Z</time>
			</trkpt>
			<trkpt lat="48.38654" lon="15.5425">
				<ele>196.52</ele>
				<time>2025-07-29T03:04:24.096Z</time>
			</trkpt>
			<trkpt lat="48.38693" lon="15.54396">
				<ele>195.33</ele>
				<time>2025-07-29T03:04:29.958Z</time>
			</trkpt>
			<trkpt lat="48.38736" lon="15.54534">
				<ele>198.54</ele>
				<time>2025-07-29T03:04:35.728Z</time>
			</trkpt>
			<trkpt lat="48.38755" lon="15.54588">
				<ele>196.37</ele>
				<time>2025-07-29T03:04:38.067Z</time>
			</trkpt>
			<trkpt lat="48.38789" lon="15.54672">
				<ele>194.99</ele>
				<time>2025-07-29T03:04:41.866Z</time>
			</trkpt>
			<trkpt lat="48.38812" lon="15.54722">
				<ele>194.75</ele>
				<time>2025-07-29T03:04:44.237Z</time>
			</trkpt>
			<trkpt lat="48.38855" lon="15.54807">
				<ele>194.41</ele>
				<time>2025-07-29T03:04:48.442Z</time>
			</trkpt>
			<trkpt lat="48.38953" lon="15.54996">
				<ele>196.83</ele>
				<time>2025-07-29T03:04:58.079Z</time>
			</trkpt>
			<trkpt lat="48.39068" lon="15.55244">
				<ele>193.76</ele>
				<time>2025-07-29T03:05:10.661Z</time>
			</trkpt>
			<trkpt lat="48.39202" lon="15.55538">
				<ele>195.27</ele>
				<time>2025-07-29T03:05:26.169Z</time>
			</trkpt>
			<trkpt lat="48.39228" lon="15.55601">
				<ele>195.68</ele>
				<time>2025-07-29T03:05:29.494Z</time>
			</trkpt>
			<trkpt lat="48.39268" lon="15.55712">
				<ele>197.24</ele>
				<time>2025-07-29T03:05:35.237Z</time>
			</trkpt>
			<trkpt lat="48.39341" lon="15.5595">
				<ele>208.8</ele>
				<time>2025-07-29T03:05:47.506Z</time>
			</trkpt>
			<trkpt lat="48.3937" lon="15.56031">
				<ele>205.71</ele>
				<time>2025-07-29T03:05:51.928Z</time>
			</trkpt>
			<trkpt lat="48.39426" lon="15.56174">
				<ele>202.52</ele>
				<time>2025-07-29T03:06:00.065Z</time>
			</trkpt>
			<trkpt lat="48.39471" lon="15.56306">
				<ele>201.01</ele>
				<time>2025-07-29T03:06:07.516Z</time>
			</trkpt>
			<trkpt lat="48.39493" lon="15.56363">
				<ele>202.53</ele>
				<time>2025-07-29T03:06:10.882Z</time>
			</trkpt>
			<trkpt lat="48.39553" lon="15.56509">
				<ele>205.44</ele>
				<time>2025-07-29T03:06:19.815Z</time>
			</trkpt>
			<trkpt lat="48.39572" lon="15.56553">
				<ele>198.88</ele>
				<time>2025-07-29T03:06:22.595Z</time>
			</trkpt>
			<trkpt lat="48.39737" lon="15.56907">
				<ele>194.27</ele>
				<time>2025-07-29T03:06:46.410Z</time>
			</trkpt>
			<trkpt lat="48.39797" lon="15.57031">
				<ele>199.74</ele>
				<time>2025-07-29T03:06:55.267Z</time>
			</trkpt>
			<trkpt lat="48.39801" lon="15.57048">
				<ele>199.95</ele>
				<time>2025-07-29T03:06:56.323Z</time>
			</trkpt>
			<trkpt lat="48.39813" lon="15.57079">
				<ele>199.15</ele>
				<time>2025-07-29T03:06:58.433Z</time>
			</trkpt>
			<trkpt lat="48.39814" lon="15.57093">
				<ele>198.16</ele>
				<time>2025-07-29T03:06:59.264Z</time>
			</trkpt>
			<trkpt lat="48.39816" lon="15.57097">
				<ele>197.8</ele>
				<time>2025-07-29T03:06:59.560Z</time>
			</trkpt>
			<trkpt lat="48.39822" lon="15.571">
				<ele>197.33</ele>
				<time>2025-07-29T03:07:00.124Z</time>
			</trkpt>
			<trkpt lat="48.39829" lon="15.57098">
				<ele>197.44</ele>
				<time>2025-07-29T03:07:00.760Z</time>
			</trkpt>
			<trkpt lat="48.39833" lon="15.5709">
				<ele>198.2</ele>
				<time>2025-07-29T03:07:01.355Z</time>
			</trkpt>
			<trkpt lat="48.39833" lon="15.57085">
				<ele>198.84</ele>
				<time>2025-07-29T03:07:01.652Z</time>
			</trkpt>
			<trkpt lat="48.3984" lon="15.57081">
				<ele>200.12</ele>
				<time>2025-07-29T03:07:02.323Z</time>
			</trkpt>
			<trkpt lat="48.39849" lon="15.57082">
				<ele>201.27</ele>
				<time>2025-07-29T03:07:03.134Z</time>
			</trkpt>
			<trkpt lat="48.39863" lon="15.57101">
				<ele>202.42</ele>
				<time>2025-07-29T03:07:04.834Z</time>
			</trkpt>
			<trkpt lat="48.39873" lon="15.5715">
				<ele>199.37</ele>
				<time>2025-07-29T03:07:07.923Z</time>
			</trkpt>
			<trkpt lat="48.3988" lon="15.57175">
				<ele>198.15</ele>
				<time>2025-07-29T03:07:09.569Z</time>
			</trkpt>
			<trkpt lat="48.39897" lon="15.57208">
				<ele>200.13</ele>
				<time>2025-07-29T03:07:12.116Z</time>
			</trkpt>
			<trkpt lat="48.39952" lon="15.57299">
				<ele>204.9</ele>
				<time>2025-07-29T03:07:19.725Z</time>
			</trkpt>
			<trkpt lat="48.39961" lon="15.57321">
				<ele>205.48</ele>
				<time>2025-07-29T03:07:21.342Z</time>
			</trkpt>
			<trkpt lat="48.39962" lon="15.57331">
				<ele>205.1</ele>
				<time>2025-07-29T03:07:21.977Z</time>
			</trkpt>
			<trkpt lat="48.39962" lon="15.57348">
				<ele>203.94</ele>
				<time>2025-07-29T03:07:23.046Z</time>
			</trkpt>
			<trkpt lat="48.39957" lon="15.5736">
				<ele>202.37</ele>
				<time>2025-07-29T03:07:23.940Z</time>
			</trkpt>
			<trkpt lat="48.39951" lon="15.57368">
				<ele>200.74</ele>
				<time>2025-07-29T03:07:24.703Z</time>
			</trkpt>
			<trkpt lat="48.3994" lon="15.57377">
				<ele>198.36</ele>
				<time>2025-07-29T03:07:25.897Z</time>
			</trkpt>
			<trkpt lat="48.39634" lon="15.57614">
				<ele>198.12</ele>
				<time>2025-07-29T03:08:00.235Z</time>
			</trkpt>
			<trkpt lat="48.3962" lon="15.57626">
				<ele>198.42</ele>
				<time>2025-07-29T03:08:01.916Z</time>
			</trkpt>
			<trkpt lat="48.39582" lon="15.57648">
				<ele>196.34</ele>
				<time>2025-07-29T03:08:06.193Z</time>
			</trkpt>
			<trkpt lat="48.3956" lon="15.57649">
				<ele>196.39</ele>
				<time>2025-07-29T03:08:08.524Z</time>
			</trkpt>
			<trkpt lat="48.39542" lon="15.57636">
				<ele>196.93</ele>
				<time>2025-07-29T03:08:10.648Z</time>
			</trkpt>
			<trkpt lat="48.3954" lon="15.57632">
				<ele>197.09</ele>
				<time>2025-07-29T03:08:11.003Z</time>
			</trkpt>
			<trkpt lat="48.39533" lon="15.57624">
				<ele>197.92</ele>
				<time>2025-07-29T03:08:11.943Z</time>
			</trkpt>
			<trkpt lat="48.39525" lon="15.57624">
				<ele>198.8</ele>
				<time>2025-07-29T03:08:12.800Z</time>
			</trkpt>
			<trkpt lat="48.39517" lon="15.57629">
				<ele>199.44</ele>
				<time>2025-07-29T03:08:13.729Z</time>
			</trkpt>
			<trkpt lat="48.39513" lon="15.57639">
				<ele>199.57</ele>
				<time>2025-07-29T03:08:14.563Z</time>
			</trkpt>
			<trkpt lat="48.39511" lon="15.57653">
				<ele>199.11</ele>
				<time>2025-07-29T03:08:15.588Z</time>
			</trkpt>
			<trkpt lat="48.39501" lon="15.57658">
				<ele>199.51</ele>
				<time>2025-07-29T03:08:16.727Z</time>
			</trkpt>
			<trkpt lat="48.39473" lon="15.57662">
				<ele>200.11</ele>
				<time>2025-07-29T03:08:19.781Z</time>
			</trkpt>
			<trkpt lat="48.39407" lon="15.57646">
				<ele>205.34</ele>
				<time>2025-07-29T03:08:27.128Z</time>
			</trkpt>
			<trkpt lat="48.39381" lon="15.57647">
				<ele>206</ele>
				<time>2025-07-29T03:08:30.159Z</time>
			</trkpt>
			<trkpt lat="48.39367" lon="15.57653">
				<ele>206</ele>
				<time>2025-07-29T03:08:31.954Z</time>
			</trkpt>
			<trkpt lat="48.39364" lon="15.57656">
				<ele>206</ele>
				<time>2025-07-29T03:08:32.409Z</time>
			</trkpt>
			<trkpt lat="48.39363" lon="15.57667">
				<ele>205.99</ele>
				<time>2025-07-29T03:08:33.352Z</time>
			</trkpt>
			<trkpt lat="48.39379" lon="15.57743">
				<ele>205.7</ele>
				<time>2025-07-29T03:08:40.600Z</time>
			</trkpt>
			<trkpt lat="48.39379" lon="15.57767">
				<ele>206.08</ele>
				<time>2025-07-29T03:08:42.933Z</time>
			</trkpt>
			<trkpt lat="48.39377" lon="15.57782">
				<ele>206.3</ele>
				<time>2025-07-29T03:08:44.454Z</time>
			</trkpt>
			<trkpt lat="48.39374" lon="15.5779">
				<ele>206.28</ele>
				<time>2025-07-29T03:08:45.380Z</time>
			</trkpt>
			<trkpt lat="48.39368" lon="15.57797">
				<ele>206.52</ele>
				<time>2025-07-29T03:08:46.545Z</time>
			</trkpt>
			<trkpt lat="48.39333" lon="15.57821">
				<ele>205.45</ele>
				<time>2025-07-29T03:08:52.645Z</time>
			</trkpt>
			<trkpt lat="48.39302" lon="15.57848">
				<ele>203.87</ele>
				<time>2025-07-29T03:08:58.597Z</time>
			</trkpt>
			<trkpt lat="48.39289" lon="15.57865">
				<ele>203.43</ele>
				<time>2025-07-29T03:09:01.540Z</time>
			</trkpt>
			<trkpt lat="48.39286" lon="15.57872">
				<ele>203.33</ele>
				<time>2025-07-29T03:09:02.497Z</time>
			</trkpt>
			<trkpt lat="48.39284" lon="15.57891">
				<ele>203.31</ele>
				<time>2025-07-29T03:09:04.723Z</time>
			</trkpt>
			<trkpt lat="48.39286" lon="15.57923">
				<ele>204.23</ele>
				<time>2025-07-29T03:09:08.494Z</time>
			</trkpt>
			<trkpt lat="48.39283" lon="15.57939">
				<ele>204.83</ele>
				<time>2025-07-29T03:09:10.468Z</time>
			</trkpt>
			<trkpt lat="48.3928" lon="15.57947">
				<ele>204.99</ele>
				<time>2025-07-29T03:09:11.566Z</time>
			</trkpt>
			<trkpt lat="48.3926" lon="15.57979">
				<ele>204.9</ele>
				<time>2025-07-29T03:09:16.871Z</time>
			</trkpt>
			<trkpt lat="48.39218" lon="15.58082">
				<ele>202.01</ele>
				<time>2025-07-29T03:09:31.806Z</time>
			</trkpt>
			<trkpt lat="48.39212" lon="15.58077">
				<ele>202.12</ele>
				<time>2025-07-29T03:09:33.096Z</time>
			</trkpt>
			<trkpt lat="48.39204" lon="15.5808">
				<ele>202.03</ele>
				<time>2025-07-29T03:09:34.648Z</time>
			</trkpt>
			<trkpt lat="48.392" lon="15.58092">
				<ele>201.91</ele>
				<time>2025-07-29T03:09:36.328Z</time>
			</trkpt>
			<trkpt lat="48.39203" lon="15.58101">
				<ele>201.8</ele>
				<time>2025-07-29T03:09:37.589Z</time>
			</trkpt>
			<trkpt lat="48.39174" lon="15.58166">
				<ele>201.72</ele>
				<time>2025-07-29T03:09:47.374Z</time>
			</trkpt>
			<trkpt lat="48.39163" lon="15.58203">
				<ele>201.28</ele>
				<time>2025-07-29T03:09:52.405Z</time>
			</trkpt>
			<trkpt lat="48.3916" lon="15.58222">
				<ele>201.77</ele>
				<time>2025-07-29T03:09:54.814Z</time>
			</trkpt>
			<trkpt lat="48.39159" lon="15.58241">
				<ele>201.22</ele>
				<time>2025-07-29T03:09:57.154Z</time>
			</trkpt>
			<trkpt lat="48.3916" lon="15.58261">
				<ele>201</ele>
				<time>2025-07-29T03:09:59.601Z</time>
			</trkpt>
			<trkpt lat="48.39169" lon="15.58338">
				<ele>200.17</ele>
				<time>2025-07-29T03:10:08.968Z</time>
			</trkpt>
			<trkpt lat="48.3917" lon="15.58371">
				<ele>201</ele>
				<time>2025-07-29T03:10:12.823Z</time>
			</trkpt>
			<trkpt lat="48.39168" lon="15.58402">
				<ele>200.48</ele>
				<time>2025-07-29T03:10:16.391Z</time>
			</trkpt>
			<trkpt lat="48.39153" lon="15.58515">
				<ele>199.21</ele>
				<time>2025-07-29T03:10:28.910Z</time>
			</trkpt>
			<trkpt lat="48.39146" lon="15.58599">
				<ele>197.26</ele>
				<time>2025-07-29T03:10:37.517Z</time>
			</trkpt>
			<trkpt lat="48.39144" lon="15.58634">
				<ele>197.35</ele>
				<time>2025-07-29T03:10:41.107Z</time>
			</trkpt>
			<trkpt lat="48.39136" lon="15.58709">
				<ele>197.89</ele>
				<time>2025-07-29T03:10:48.894Z</time>
			</trkpt>
			<trkpt lat="48.39116" lon="15.58806">
				<ele>199.19</ele>
				<time>2025-07-29T03:10:59.263Z</time>
			</trkpt>
			<trkpt lat="48.39102" lon="15.58863">
				<ele>200.06</ele>
				<time>2025-07-29T03:11:05.384Z</time>
			</trkpt>
			<trkpt lat="48.39054" lon="15.59026">
				<ele>199</ele>
				<time>2025-07-29T03:11:22.621Z</time>
			</trkpt>
			<trkpt lat="48.39041" lon="15.59064">
				<ele>198.66</ele>
				<time>2025-07-29T03:11:26.526Z</time>
			</trkpt>
			<trkpt lat="48.39005" lon="15.59141">
				<ele>197.91</ele>
				<time>2025-07-29T03:11:34.719Z</time>
			</trkpt>
			<trkpt lat="48.38971" lon="15.592">
				<ele>197.98</ele>
				<time>2025-07-29T03:11:41.013Z</time>
			</trkpt>
			<trkpt lat="48.38948" lon="15.59233">
				<ele>196.24</ele>
				<time>2025-07-29T03:11:44.609Z</time>
			</trkpt>
			<trkpt lat="48.38893" lon="15.59295">
				<ele>197.82</ele>
				<time>2025-07-29T03:11:51.709Z</time>
			</trkpt>
			<trkpt lat="48.38852" lon="15.59338">
				<ele>198.31</ele>
				<time>2025-07-29T03:11:56.613Z</time>
			</trkpt>
			<trkpt lat="48.38827" lon="15.59369">
				<ele>199.46</ele>
				<time>2025-07-29T03:11:59.719Z</time>
			</trkpt>
			<trkpt lat="48.38807" lon="15.59399">
				<ele>200.02</ele>
				<time>2025-07-29T03:12:02.381Z</time>
			</trkpt>
			<trkpt lat="48.38783" lon="15.59441">
				<ele>200.71</ele>
				<time>2025-07-29T03:12:05.789Z</time>
			</trkpt>
			<trkpt lat="48.38749" lon="15.59509">
				<ele>201.64</ele>
				<time>2025-07-29T03:12:10.892Z</time>
			</trkpt>
			<trkpt lat="48.38642" lon="15.59713">
				<ele>201</ele>
				<time>2025-07-29T03:12:25.541Z</time>
			</trkpt>
			<trkpt lat="48.38667" lon="15.59735">
				<ele>201</ele>
				<time>2025-07-29T03:12:27.870Z</time>
			</trkpt>
			<trkpt lat="48.38719" lon="15.59762">
				<ele>200.55</ele>
				<time>2025-07-29T03:12:32.199Z</time>
			</trkpt>
			<trkpt lat="48.38767" lon="15.59781">
				<ele>200.91</ele>
				<time>2025-07-29T03:12:36.002Z</time>
			</trkpt>
			<trkpt lat="48.38722" lon="15.59945">
				<ele>199.96</ele>
				<time>2025-07-29T03:12:44.672Z</time>
			</trkpt>
			<trkpt lat="48.38676" lon="15.6008">
				<ele>200.42</ele>
				<time>2025-07-29T03:12:51.717Z</time>
			</trkpt>
			<trkpt lat="48.38633" lon="15.60191">
				<ele>197.27</ele>
				<time>2025-07-29T03:12:57.447Z</time>
			</trkpt>
			<trkpt lat="48.38625" lon="15.60217">
				<ele>197.48</ele>
				<time>2025-07-29T03:12:58.698Z</time>
			</trkpt>
			<trkpt lat="48.38618" lon="15.60244">
				<ele>198.31</ele>
				<time>2025-07-29T03:12:59.954Z</time>
			</trkpt>
			<trkpt lat="48.38572" lon="15.605">
				<ele>200.59</ele>
				<time>2025-07-29T03:13:11.043Z</time>
			</trkpt>
			<trkpt lat="48.38555" lon="15.60612">
				<ele>199</ele>
				<time>2025-07-29T03:13:15.656Z</time>
			</trkpt>
			<trkpt lat="48.3855" lon="15.60661">
				<ele>199.66</ele>
				<time>2025-07-29T03:13:17.617Z</time>
			</trkpt>
			<trkpt lat="48.38537" lon="15.60936">
				<ele>200.65</ele>
				<time>2025-07-29T03:13:27.908Z</time>
			</trkpt>
			<trkpt lat="48.38533" lon="15.60988">
				<ele>201.6</ele>
				<time>2025-07-29T03:13:29.562Z</time>
			</trkpt>
			<trkpt lat="48.38525" lon="15.61038">
				<ele>202.08</ele>
				<time>2025-07-29T03:13:31.365Z</time>
			</trkpt>
			<trkpt lat="48.38516" lon="15.61105">
				<ele>202.39</ele>
				<time>2025-07-29T03:13:34.181Z</time>
			</trkpt>
			<trkpt lat="48.38511" lon="15.61129">
				<ele>202.56</ele>
				<time>2025-07-29T03:13:35.274Z</time>
			</trkpt>
			<trkpt lat="48.38506" lon="15.61142">
				<ele>202.75</ele>
				<time>2025-07-29T03:13:35.940Z</time>
			</trkpt>
			<trkpt lat="48.38479" lon="15.61266">
				<ele>202.41</ele>
				<time>2025-07-29T03:13:42.122Z</time>
			</trkpt>
			<trkpt lat="48.38457" lon="15.61351">
				<ele>201.81</ele>
				<time>2025-07-29T03:13:46.836Z</time>
			</trkpt>
			<trkpt lat="48.38452" lon="15.61376">
				<ele>202</ele>
				<time>2025-07-29T03:13:48.240Z</time>
			</trkpt>
			<trkpt lat="48.3845" lon="15.61407">
				<ele>202.13</ele>
				<time>2025-07-29T03:13:49.946Z</time>
			</trkpt>
			<trkpt lat="48.38452" lon="15.6145">
				<ele>203</ele>
				<time>2025-07-29T03:13:52.359Z</time>
			</trkpt>
			<trkpt lat="48.38458" lon="15.61492">
				<ele>203.74</ele>
				<time>2025-07-29T03:13:54.823Z</time>
			</trkpt>
			<trkpt lat="48.38466" lon="15.61523">
				<ele>205.01</ele>
				<time>2025-07-29T03:13:56.769Z</time>
			</trkpt>
			<trkpt lat="48.38487" lon="15.61598">
				<ele>206</ele>
				<time>2025-07-29T03:14:01.662Z</time>
			</trkpt>
			<trkpt lat="48.38497" lon="15.61639">
				<ele>204.1</ele>
				<time>2025-07-29T03:14:04.361Z</time>
			</trkpt>
			<trkpt lat="48.38503" lon="15.6168">
				<ele>202.66</ele>
				<time>2025-07-29T03:14:06.998Z</time>
			</trkpt>
			<trkpt lat="48.38509" lon="15.61726">
				<ele>201.27</ele>
				<time>2025-07-29T03:14:09.992Z</time>
			</trkpt>
			<trkpt lat="48.38532" lon="15.61954">
				<ele>200.69</ele>
				<time>2025-07-29T03:14:25.332Z</time>
			</trkpt>
			<trkpt lat="48.38543" lon="15.62086">
				<ele>199.84</ele>
				<time>2025-07-29T03:14:34.529Z</time>
			</trkpt>
			<trkpt lat="48.38544" lon="15.62148">
				<ele>198.66</ele>
				<time>2025-07-29T03:14:38.873Z</time>
			</trkpt>
			<trkpt lat="48.38544" lon="15.62177">
				<ele>198.8</ele>
				<time>2025-07-29T03:14:40.914Z</time>
			</trkpt>
			<trkpt lat="48.38542" lon="15.62188">
				<ele>199.25</ele>
				<time>2025-07-29T03:14:41.717Z</time>
			</trkpt>
			<trkpt lat="48.38535" lon="15.62194">
				<ele>199.71</ele>
				<time>2025-07-29T03:14:42.573Z</time>
			</trkpt>
			<trkpt lat="48.38532" lon="15.62201">
				<ele>199.77</ele>
				<time>2025-07-29T03:14:43.161Z</time>
			</trkpt>
			<trkpt lat="48.38466" lon="15.62215">
				<ele>204</ele>
				<time>2025-07-29T03:14:50.261Z</time>
			</trkpt>
			<trkpt lat="48.38329" lon="15.62216">
				<ele>211.25</ele>
				<time>2025-07-29T03:15:04.837Z</time>
			</trkpt>
			<trkpt lat="48.38293" lon="15.62213">
				<ele>213.53</ele>
				<time>2025-07-29T03:15:08.639Z</time>
			</trkpt>
			<trkpt lat="48.38232" lon="15.62202">
				<ele>215.93</ele>
				<time>2025-07-29T03:15:15.056Z</time>
			</trkpt>
			<trkpt lat="48.38181" lon="15.62189">
				<ele>217.73</ele>
				<time>2025-07-29T03:15:20.383Z</time>
			</trkpt>
			<trkpt lat="48.3814" lon="15.62174">
				<ele>220.85</ele>
				<time>2025-07-29T03:15:24.663Z</time>
			</trkpt>
			<trkpt lat="48.38096" lon="15.62156">
				<ele>224.5</ele>
				<time>2025-07-29T03:15:29.212Z</time>
			</trkpt>
			<trkpt lat="48.38025" lon="15.62118">
				<ele>226.67</ele>
				<time>2025-07-29T03:15:36.526Z</time>
			</trkpt>
			<trkpt lat="48.37918" lon="15.6205">
				<ele>238.63</ele>
				<time>2025-07-29T03:15:47.198Z</time>
			</trkpt>
			<trkpt lat="48.37854" lon="15.62011">
				<ele>245.12</ele>
				<time>2025-07-29T03:15:53.128Z</time>
			</trkpt>
			<trkpt lat="48.37798" lon="15.61984">
				<ele>245.99</ele>
				<time>2025-07-29T03:15:57.899Z</time>
			</trkpt>
			<trkpt lat="48.37771" lon="15.61973">
				<ele>248.18</ele>
				<time>2025-07-29T03:16:00.070Z</time>
			</trkpt>
			<trkpt lat="48.37718" lon="15.61959">
				<ele>253.78</ele>
				<time>2025-07-29T03:16:04.058Z</time>
			</trkpt>
			<trkpt lat="48.37665" lon="15.61952">
				<ele>256.81</ele>
				<time>2025-07-29T03:16:07.750Z</time>
			</trkpt>
			<trkpt lat="48.3762" lon="15.61952">
				<ele>263.42</ele>
				<time>2025-07-29T03:16:10.763Z</time>
			</trkpt>
			<trkpt lat="48.37574" lon="15.61957">
				<ele>266.4</ele>
				<time>2025-07-29T03:16:13.776Z</time>
			</trkpt>
			<trkpt lat="48.37546" lon="15.61962">
				<ele>265.62</ele>
				<time>2025-07-29T03:16:15.582Z</time>
			</trkpt>
			<trkpt lat="48.37475" lon="15.61985">
				<ele>263.22</ele>
				<time>2025-07-29T03:16:20.113Z</time>
			</trkpt>
			<trkpt lat="48.37122" lon="15.62132">
				<ele>269.94</ele>
				<time>2025-07-29T03:16:40.709Z</time>
			</trkpt>
			<trkpt lat="48.37057" lon="15.62149">
				<ele>269.02</ele>
				<time>2025-07-29T03:16:44.094Z</time>
			</trkpt>
			<trkpt lat="48.37026" lon="15.62153">
				<ele>266.48</ele>
				<time>2025-07-29T03:16:45.663Z</time>
			</trkpt>
			<trkpt lat="48.36963" lon="15.62155">
				<ele>265.1</ele>
				<time>2025-07-29T03:16:48.792Z</time>
			</trkpt>
			<trkpt lat="48.36912" lon="15.6215">
				<ele>266.86</ele>
				<time>2025-07-29T03:16:51.287Z</time>
			</trkpt>
			<trkpt lat="48.36696" lon="15.62119">
				<ele>274.65</ele>
				<time>2025-07-29T03:17:01.547Z</time>
			</trkpt>
			<trkpt lat="48.3658" lon="15.62114">
				<ele>282.98</ele>
				<time>2025-07-29T03:17:06.891Z</time>
			</trkpt>
			<trkpt lat="48.36503" lon="15.62118">
				<ele>285.93</ele>
				<time>2025-07-29T03:17:10.415Z</time>
			</trkpt>
			<trkpt lat="48.36411" lon="15.62133">
				<ele>292.34</ele>
				<time>2025-07-29T03:17:14.646Z</time>
			</trkpt>
			<trkpt lat="48.36361" lon="15.62145">
				<ele>296.49</ele>
				<time>2025-07-29T03:17:16.969Z</time>
			</trkpt>
			<trkpt lat="48.36326" lon="15.62156">
				<ele>297.33</ele>
				<time>2025-07-29T03:17:18.615Z</time>
			</trkpt>
			<trkpt lat="48.36283" lon="15.62174">
				<ele>300.14</ele>
				<time>2025-07-29T03:17:20.680Z</time>
			</trkpt>
			<trkpt lat="48.36231" lon="15.622">
				<ele>301.85</ele>
				<time>2025-07-29T03:17:23.233Z</time>
			</trkpt>
			<trkpt lat="48.36216" lon="15.62199">
				<ele>301.28</ele>
				<time>2025-07-29T03:17:23.936Z</time>
			</trkpt>
			<trkpt lat="48.36209" lon="15.62196">
				<ele>301.07</ele>
				<time>2025-07-29T03:17:24.278Z</time>
			</trkpt>
			<trkpt lat="48.36203" lon="15.6219">
				<ele>301.04</ele>
				<time>2025-07-29T03:17:24.617Z</time>
			</trkpt>
			<trkpt lat="48.36199" lon="15.62178">
				<ele>301.35</ele>
				<time>2025-07-29T03:17:25.037Z</time>
			</trkpt>
			<trkpt lat="48.36194" lon="15.62173">
				<ele>301.72</ele>
				<time>2025-07-29T03:17:25.320Z</time>
			</trkpt>
			<trkpt lat="48.36193" lon="15.62164">
				<ele>302.08</ele>
				<time>2025-07-29T03:17:25.607Z</time>
			</trkpt>
			<trkpt lat="48.36181" lon="15.62127">
				<ele>302.72</ele>
				<time>2025-07-29T03:17:26.903Z</time>
			</trkpt>
			<trkpt lat="48.36171" lon="15.62102">
				<ele>302.87</ele>
				<time>2025-07-29T03:17:27.827Z</time>
			</trkpt>
			<trkpt lat="48.36153" lon="15.62072">
				<ele>304.52</ele>
				<time>2025-07-29T03:17:29.114Z</time>
			</trkpt>
			<trkpt lat="48.36144" lon="15.62064">
				<ele>305.43</ele>
				<time>2025-07-29T03:17:29.617Z</time>
			</trkpt>
			<trkpt lat="48.36127" lon="15.62058">
				<ele>308.61</ele>
				<time>2025-07-29T03:17:30.461Z</time>
			</trkpt>
			<trkpt lat="48.36115" lon="15.62058">
				<ele>311.78</ele>
				<time>2025-07-29T03:17:31.043Z</time>
			</trkpt>
			<trkpt lat="48.36107" lon="15.62061">
				<ele>313.84</ele>
				<time>2025-07-29T03:17:31.444Z</time>
			</trkpt>
			<trkpt lat="48.36049" lon="15.62104">
				<ele>320.79</ele>
				<time>2025-07-29T03:17:34.622Z</time>
			</trkpt>
			<trkpt lat="48.3604" lon="15.62106">
				<ele>321.82</ele>
				<time>2025-07-29T03:17:35.075Z</time>
			</trkpt>
			<trkpt lat="48.36031" lon="15.62103">
				<ele>323.52</ele>
				<time>2025-07-29T03:17:35.534Z</time>
			</trkpt>
			<trkpt lat="48.36024" lon="15.62098">
				<ele>325.82</ele>
				<time>2025-07-29T03:17:35.922Z</time>
			</trkpt>
			<trkpt lat="48.36018" lon="15.62089">
				<ele>329.2</ele>
				<time>2025-07-29T03:17:36.346Z</time>
			</trkpt>
			<trkpt lat="48.36014" lon="15.62077">
				<ele>333.08</ele>
				<time>2025-07-29T03:17:36.795Z</time>
			</trkpt>
			<trkpt lat="48.36014" lon="15.62059">
				<ele>337.3</ele>
				<time>2025-07-29T03:17:37.398Z</time>
			</trkpt>
			<trkpt lat="48.36047" lon="15.61936">
				<ele>350.87</ele>
				<time>2025-07-29T03:17:41.926Z</time>
			</trkpt>
			<trkpt lat="48.36061" lon="15.61892">
				<ele>355.21</ele>
				<time>2025-07-29T03:17:43.629Z</time>
			</trkpt>
			<trkpt lat="48.36076" lon="15.61849">
				<ele>362.5</ele>
				<time>2025-07-29T03:17:45.347Z</time>
			</trkpt>
			<trkpt lat="48.36132" lon="15.61717">
				<ele>377.08</ele>
				<time>2025-07-29T03:17:51.048Z</time>
			</trkpt>
			<trkpt lat="48.36165" lon="15.6167">
				<ele>381.95</ele>
				<time>2025-07-29T03:17:53.622Z</time>
			</trkpt>
			<trkpt lat="48.36198" lon="15.61638">
				<ele>384.18</ele>
				<time>2025-07-29T03:17:55.890Z</time>
			</trkpt>
			<trkpt lat="48.36234" lon="15.61614">
				<ele>384.19</ele>
				<time>2025-07-29T03:17:58.208Z</time>
			</trkpt>
			<trkpt lat="48.36255" lon="15.61604">
				<ele>384.37</ele>
				<time>2025-07-29T03:17:59.525Z</time>
			</trkpt>
			<trkpt lat="48.36292" lon="15.6159">
				<ele>384.91</ele>
				<time>2025-07-29T03:18:01.839Z</time>
			</trkpt>
			<trkpt lat="48.36324" lon="15.61574">
				<ele>386.77</ele>
				<time>2025-07-29T03:18:03.923Z</time>
			</trkpt>
			<trkpt lat="48.364" lon="15.61517">
				<ele>392.06</ele>
				<time>2025-07-29T03:18:09.335Z</time>
			</trkpt>
			<trkpt lat="48.36505" lon="15.61497">
				<ele>399.84</ele>
				<time>2025-07-29T03:18:16.136Z</time>
			</trkpt>
			<trkpt lat="48.36521" lon="15.61492">
				<ele>401.51</ele>
				<time>2025-07-29T03:18:17.106Z</time>
			</trkpt>
			<trkpt lat="48.36532" lon="15.61483">
				<ele>402.77</ele>
				<time>2025-07-29T03:18:17.834Z</time>
			</trkpt>
			<trkpt lat="48.36549" lon="15.61459">
				<ele>405.04</ele>
				<time>2025-07-29T03:18:19.157Z</time>
			</trkpt>
			<trkpt lat="48.36557" lon="15.61452">
				<ele>405.56</ele>
				<time>2025-07-29T03:18:19.671Z</time>
			</trkpt>
			<trkpt lat="48.36565" lon="15.61449">
				<ele>406.58</ele>
				<time>2025-07-29T03:18:20.125Z</time>
			</trkpt>
			<trkpt lat="48.36573" lon="15.61451">
				<ele>407.19</ele>
				<time>2025-07-29T03:18:20.566Z</time>
			</trkpt>
			<trkpt lat="48.36584" lon="15.61456">
				<ele>407.38</ele>
				<time>2025-07-29T03:18:21.184Z</time>
			</trkpt>
			<trkpt lat="48.36612" lon="15.61486">
				<ele>404.45</ele>
				<time>2025-07-29T03:18:22.989Z</time>
			</trkpt>
			<trkpt lat="48.36621" lon="15.61489">
				<ele>404.32</ele>
				<time>2025-07-29T03:18:23.463Z</time>
			</trkpt>
			<trkpt lat="48.36626" lon="15.61488">
				<ele>404.9</ele>
				<time>2025-07-29T03:18:23.720Z</time>
			</trkpt>
			<trkpt lat="48.36688" lon="15.61449">
				<ele>408.88</ele>
				<time>2025-07-29T03:18:27.063Z</time>
			</trkpt>
			<trkpt lat="48.36697" lon="15.61425">
				<ele>411.1</ele>
				<time>2025-07-29T03:18:27.953Z</time>
			</trkpt>
			<trkpt lat="48.3671" lon="15.61399">
				<ele>410.19</ele>
				<time>2025-07-29T03:18:28.998Z</time>
			</trkpt>
			<trkpt lat="48.36718" lon="15.61387">
				<ele>408.75</ele>
				<time>2025-07-29T03:18:29.542Z</time>
			</trkpt>
			<trkpt lat="48.36747" lon="15.61357">
				<ele>404.62</ele>
				<time>2025-07-29T03:18:31.235Z</time>
			</trkpt>
			<trkpt lat="48.36744" lon="15.61264">
				<ele>409.2</ele>
				<time>2025-07-29T03:18:34.244Z</time>
			</trkpt>
			<trkpt lat="48.36743" lon="15.61258">
				<ele>409.69</ele>
				<time>2025-07-29T03:18:34.447Z</time>
			</trkpt>
			<trkpt lat="48.3674" lon="15.61255">
				<ele>410.95</ele>
				<time>2025-07-29T03:18:34.625Z</time>
			</trkpt>
			<trkpt lat="48.36734" lon="15.61256">
				<ele>413.39</ele>
				<time>2025-07-29T03:18:34.924Z</time>
			</trkpt>
			<trkpt lat="48.36731" lon="15.61264">
				<ele>414.81</ele>
				<time>2025-07-29T03:18:35.228Z</time>
			</trkpt>
			<trkpt lat="48.36734" lon="15.61256">
				<ele>413.39</ele>
				<time>2025-07-29T03:18:35.533Z</time>
			</trkpt>
			<trkpt lat="48.3674" lon="15.61255">
				<ele>410.95</ele>
				<time>2025-07-29T03:18:35.837Z</time>
			</trkpt>
			<trkpt lat="48.36743" lon="15.61258">
				<ele>409.69</ele>
				<time>2025-07-29T03:18:36.018Z</time>
			</trkpt>
			<trkpt lat="48.36744" lon="15.61264">
				<ele>409.2</ele>
				<time>2025-07-29T03:18:36.226Z</time>
			</trkpt>
			<trkpt lat="48.36747" lon="15.61357">
				<ele>404.62</ele>
				<time>2025-07-29T03:18:39.451Z</time>
			</trkpt>
			<trkpt lat="48.36718" lon="15.61387">
				<ele>408.75</ele>
				<time>2025-07-29T03:18:41.385Z</time>
			</trkpt>
			<trkpt lat="48.3671" lon="15.61399">
				<ele>410.19</ele>
				<time>2025-07-29T03:18:42.025Z</time>
			</trkpt>
			<trkpt lat="48.36697" lon="15.61425">
				<ele>411.1</ele>
				<time>2025-07-29T03:18:43.276Z</time>
			</trkpt>
			<trkpt lat="48.36688" lon="15.61449">
				<ele>408.88</ele>
				<time>2025-07-29T03:18:44.367Z</time>
			</trkpt>
			<trkpt lat="48.36626" lon="15.61488">
				<ele>404.9</ele>
				<time>2025-07-29T03:18:48.644Z</time>
			</trkpt>
			<trkpt lat="48.36621" lon="15.61489">
				<ele>404.32</ele>
				<time>2025-07-29T03:18:48.984Z</time>
			</trkpt>
			<trkpt lat="48.36612" lon="15.61486">
				<ele>404.45</ele>
				<time>2025-07-29T03:18:49.614Z</time>
			</trkpt>
			<trkpt lat="48.36584" lon="15.61456">
				<ele>407.38</ele>
				<time>2025-07-29T03:18:52.050Z</time>
			</trkpt>
			<trkpt lat="48.36573" lon="15.61451">
				<ele>407.19</ele>
				<time>2025-07-29T03:18:52.898Z</time>
			</trkpt>
			<trkpt lat="48.36565" lon="15.61449">
				<ele>406.58</ele>
				<time>2025-07-29T03:18:53.506Z</time>
			</trkpt>
			<trkpt lat="48.36557" lon="15.61452">
				<ele>405.56</ele>
				<time>2025-07-29T03:18:54.134Z</time>
			</trkpt>
			<trkpt lat="48.36549" lon="15.61459">
				<ele>405.04</ele>
				<time>2025-07-29T03:18:54.850Z</time>
			</trkpt>
			<trkpt lat="48.36532" lon="15.61483">
				<ele>402.77</ele>
				<time>2025-07-29T03:18:56.708Z</time>
			</trkpt>
			<trkpt lat="48.36521" lon="15.61492">
				<ele>401.51</ele>
				<time>2025-07-29T03:18:57.738Z</time>
			</trkpt>
			<trkpt lat="48.36505" lon="15.61497">
				<ele>399.84</ele>
				<time>2025-07-29T03:18:59.120Z</time>
			</trkpt>
			<trkpt lat="48.364" lon="15.61517">
				<ele>392.06</ele>
				<time>2025-07-29T03:19:09.152Z</time>
			</trkpt>
			<trkpt lat="48.36324" lon="15.61574">
				<ele>386.77</ele>
				<time>2025-07-29T03:19:18.745Z</time>
			</trkpt>
			<trkpt lat="48.36292" lon="15.6159">
				<ele>384.91</ele>
				<time>2025-07-29T03:19:22.986Z</time>
			</trkpt>
			<trkpt lat="48.36255" lon="15.61604">
				<ele>384.37</ele>
				<time>2025-07-29T03:19:28.103Z</time>
			</trkpt>
			<trkpt lat="48.36234" lon="15.61614">
				<ele>384.19</ele>
				<time>2025-07-29T03:19:31.218Z</time>
			</trkpt>
			<trkpt lat="48.36198" lon="15.61638">
				<ele>384.18</ele>
				<time>2025-07-29T03:19:37.094Z</time>
			</trkpt>
			<trkpt lat="48.36165" lon="15.6167">
				<ele>381.95</ele>
				<time>2025-07-29T03:19:43.362Z</time>
			</trkpt>
			<trkpt lat="48.36132" lon="15.61717">
				<ele>377.08</ele>
				<time>2025-07-29T03:19:51.152Z</time>
			</trkpt>
			<trkpt lat="48.36076" lon="15.61849">
				<ele>362.5</ele>
				<time>2025-07-29T03:20:39.423Z</time>
			</trkpt>
			<trkpt lat="48.36061" lon="15.61892">
				<ele>355.21</ele>
				<time>2025-07-29T03:20:52.111Z</time>
			</trkpt>
			<trkpt lat="48.36047" lon="15.61936">
				<ele>350.87</ele>
				<time>2025-07-29T03:21:00.105Z</time>
			</trkpt>
			<trkpt lat="48.36014" lon="15.62059">
				<ele>337.3</ele>
				<time>2025-07-29T03:21:13.516Z</time>
			</trkpt>
			<trkpt lat="48.36014" lon="15.62077">
				<ele>333.08</ele>
				<time>2025-07-29T03:21:15.111Z</time>
			</trkpt>
			<trkpt lat="48.36018" lon="15.62089">
				<ele>329.2</ele>
				<time>2025-07-29T03:21:16.286Z</time>
			</trkpt>
			<trkpt lat="48.36024" lon="15.62098">
				<ele>325.82</ele>
				<time>2025-07-29T03:21:17.392Z</time>
			</trkpt>
			<trkpt lat="48.36031" lon="15.62103">
				<ele>323.52</ele>
				<time>2025-07-29T03:21:18.394Z</time>
			</trkpt>
			<trkpt lat="48.3604" lon="15.62106">
				<ele>321.82</ele>
				<time>2025-07-29T03:21:19.575Z</time>
			</trkpt>
			<trkpt lat="48.36049" lon="15.62104">
				<ele>320.79</ele>
				<time>2025-07-29T03:21:20.729Z</time>
			</trkpt>
			<trkpt lat="48.36107" lon="15.62061">
				<ele>313.84</ele>
				<time>2025-07-29T03:21:28.594Z</time>
			</trkpt>
			<trkpt lat="48.36115" lon="15.62058">
				<ele>311.78</ele>
				<time>2025-07-29T03:21:29.557Z</time>
			</trkpt>
			<trkpt lat="48.36127" lon="15.62058">
				<ele>308.61</ele>
				<time>2025-07-29T03:21:30.942Z</time>
			</trkpt>
			<trkpt lat="48.36144" lon="15.62064">
				<ele>305.43</ele>
				<time>2025-07-29T03:21:32.924Z</time>
			</trkpt>
			<trkpt lat="48.36153" lon="15.62072">
				<ele>304.52</ele>
				<time>2025-07-29T03:21:34.092Z</time>
			</trkpt>
			<trkpt lat="48.36171" lon="15.62102">
				<ele>302.87</ele>
				<time>2025-07-29T03:21:37.032Z</time>
			</trkpt>
			<trkpt lat="48.36181" lon="15.62127">
				<ele>302.72</ele>
				<time>2025-07-29T03:21:39.100Z</time>
			</trkpt>
			<trkpt lat="48.36193" lon="15.62164">
				<ele>302.08</ele>
				<time>2025-07-29T03:21:41.944Z</time>
			</trkpt>
			<trkpt lat="48.36194" lon="15.62173">
				<ele>301.72</ele>
				<time>2025-07-29T03:21:42.562Z</time>
			</trkpt>
			<trkpt lat="48.36193" lon="15.6218">
				<ele>301.54</ele>
				<time>2025-07-29T03:21:43.045Z</time>
			</trkpt>
			<trkpt lat="48.36202" lon="15.62217">
				<ele>301.49</ele>
				<time>2025-07-29T03:21:45.656Z</time>
			</trkpt>
			<trkpt lat="48.36283" lon="15.62174">
				<ele>300.14</ele>
				<time>2025-07-29T03:21:53.724Z</time>
			</trkpt>
			<trkpt lat="48.36326" lon="15.62156">
				<ele>297.33</ele>
				<time>2025-07-29T03:21:57.639Z</time>
			</trkpt>
			<trkpt lat="48.36361" lon="15.62145">
				<ele>296.49</ele>
				<time>2025-07-29T03:22:00.651Z</time>
			</trkpt>
			<trkpt lat="48.36411" lon="15.62133">
				<ele>292.34</ele>
				<time>2025-07-29T03:22:04.742Z</time>
			</trkpt>
			<trkpt lat="48.36503" lon="15.62118">
				<ele>285.93</ele>
				<time>2025-07-29T03:22:11.754Z</time>
			</trkpt>
			<trkpt lat="48.3658" lon="15.62114">
				<ele>282.98</ele>
				<time>2025-07-29T03:22:17.210Z</time>
			</trkpt>
			<trkpt lat="48.36696" lon="15.62119">
				<ele>274.65</ele>
				<time>2025-07-29T03:22:24.941Z</time>
			</trkpt>
			<trkpt lat="48.36912" lon="15.6215">
				<ele>266.86</ele>
				<time>2025-07-29T03:22:38.611Z</time>
			</trkpt>
			<trkpt lat="48.36963" lon="15.62155">
				<ele>265.1</ele>
				<time>2025-07-29T03:22:41.822Z</time>
			</trkpt>
			<trkpt lat="48.37026" lon="15.62153">
				<ele>266.48</ele>
				<time>2025-07-29T03:22:45.838Z</time>
			</trkpt>
			<trkpt lat="48.37057" lon="15.62149">
				<ele>269.02</ele>
				<time>2025-07-29T03:22:47.855Z</time>
			</trkpt>
			<trkpt lat="48.37122" lon="15.62132">
				<ele>269.94</ele>
				<time>2025-07-29T03:22:52.224Z</time>
			</trkpt>
			<trkpt lat="48.37475" lon="15.61985">
				<ele>263.22</ele>
				<time>2025-07-29T03:23:14.934Z</time>
			</trkpt>
			<trkpt lat="48.37546" lon="15.61962">
				<ele>265.62</ele>
				<time>2025-07-29T03:23:19.104Z</time>
			</trkpt>
			<trkpt lat="48.37574" lon="15.61957">
				<ele>266.4</ele>
				<time>2025-07-29T03:23:20.698Z</time>
			</trkpt>
			<trkpt lat="48.3762" lon="15.61952">
				<ele>263.42</ele>
				<time>2025-07-29T03:23:23.275Z</time>
			</trkpt>
			<trkpt lat="48.37665" lon="15.61952">
				<ele>256.81</ele>
				<time>2025-07-29T03:23:25.756Z</time>
			</trkpt>
			<trkpt lat="48.37718" lon="15.61959">
				<ele>253.78</ele>
				<time>2025-07-29T03:23:28.649Z</time>
			</trkpt>
			<trkpt lat="48.37737" lon="15.61963">
				<ele>252.64</ele>
				<time>2025-07-29T03:23:29.682Z</time>
			</trkpt>
			<trkpt lat="48.37771" lon="15.61973">
				<ele>248.18</ele>
				<time>2025-07-29T03:23:31.534Z</time>
			</trkpt>
			<trkpt lat="48.37798" lon="15.61984">
				<ele>245.99</ele>
				<time>2025-07-29T03:23:33.017Z</time>
			</trkpt>
			<trkpt lat="48.37854" lon="15.62011">
				<ele>245.12</ele>
				<time>2025-07-29T03:23:36.104Z</time>
			</trkpt>
			<trkpt lat="48.37918" lon="15.6205">
				<ele>238.63</ele>
				<time>2025-07-29T03:23:39.676Z</time>
			</trkpt>
			<trkpt lat="48.38025" lon="15.62118">
				<ele>226.67</ele>
				<time>2025-07-29T03:23:45.573Z</time>
			</trkpt>
			<trkpt lat="48.38096" lon="15.62156">
				<ele>224.5</ele>
				<time>2025-07-29T03:23:49.338Z</time>
			</trkpt>
			<trkpt lat="48.3814" lon="15.62174">
				<ele>220.85</ele>
				<time>2025-07-29T03:23:51.595Z</time>
			</trkpt>
			<trkpt lat="48.38181" lon="15.62189">
				<ele>217.73</ele>
				<time>2025-07-29T03:23:53.673Z</time>
			</trkpt>
			<trkpt lat="48.38232" lon="15.62202">
				<ele>215.93</ele>
				<time>2025-07-29T03:23:56.208Z</time>
			</trkpt>
			<trkpt lat="48.38293" lon="15.62213">
				<ele>213.53</ele>
				<time>2025-07-29T03:23:59.203Z</time>
			</trkpt>
			<trkpt lat="48.38329" lon="15.62216">
				<ele>211.25</ele>
				<time>2025-07-29T03:24:00.955Z</time>
			</trkpt>
			<trkpt lat="48.38466" lon="15.62215">
				<ele>204</ele>
				<time>2025-07-29T03:24:07.590Z</time>
			</trkpt>
			<trkpt lat="48.38482" lon="15.62218">
				<ele>203.59</ele>
				<time>2025-07-29T03:24:08.370Z</time>
			</trkpt>
			<trkpt lat="48.38523" lon="15.62218">
				<ele>200.45</ele>
				<time>2025-07-29T03:24:10.353Z</time>
			</trkpt>
			<trkpt lat="48.38533" lon="15.6222">
				<ele>199.61</ele>
				<time>2025-07-29T03:24:10.842Z</time>
			</trkpt>
			<trkpt lat="48.38537" lon="15.62228">
				<ele>199.27</ele>
				<time>2025-07-29T03:24:11.164Z</time>
			</trkpt>
			<trkpt lat="48.38544" lon="15.62231">
				<ele>198.82</ele>
				<time>2025-07-29T03:24:11.516Z</time>
			</trkpt>
			<trkpt lat="48.38549" lon="15.62231">
				<ele>198.46</ele>
				<time>2025-07-29T03:24:11.758Z</time>
			</trkpt>
			<trkpt lat="48.38554" lon="15.62228">
				<ele>198.08</ele>
				<time>2025-07-29T03:24:12.019Z</time>
			</trkpt>
			<trkpt lat="48.38558" lon="15.62222">
				<ele>198</ele>
				<time>2025-07-29T03:24:12.293Z</time>
			</trkpt>
			<trkpt lat="48.38566" lon="15.62218">
				<ele>198.14</ele>
				<time>2025-07-29T03:24:12.701Z</time>
			</trkpt>
			<trkpt lat="48.38638" lon="15.62212">
				<ele>197.33</ele>
				<time>2025-07-29T03:24:16.203Z</time>
			</trkpt>
			<trkpt lat="48.38736" lon="15.62221">
				<ele>196.98</ele>
				<time>2025-07-29T03:24:21.000Z</time>
			</trkpt>
			<trkpt lat="48.38798" lon="15.62233">
				<ele>194.38</ele>
				<time>2025-07-29T03:24:24.079Z</time>
			</trkpt>
			<trkpt lat="48.38852" lon="15.62246">
				<ele>192.9</ele>
				<time>2025-07-29T03:24:26.792Z</time>
			</trkpt>
			<trkpt lat="48.38915" lon="15.62265">
				<ele>188.72</ele>
				<time>2025-07-29T03:24:30.009Z</time>
			</trkpt>
			<trkpt lat="48.38976" lon="15.62289">
				<ele>189.08</ele>
				<time>2025-07-29T03:24:33.200Z</time>
			</trkpt>
			<trkpt lat="48.39023" lon="15.62311">
				<ele>190.47</ele>
				<time>2025-07-29T03:24:35.718Z</time>
			</trkpt>
			<trkpt lat="48.39076" lon="15.62339">
				<ele>193.15</ele>
				<time>2025-07-29T03:24:38.622Z</time>
			</trkpt>
			<trkpt lat="48.39093" lon="15.62353">
				<ele>193.5</ele>
				<time>2025-07-29T03:24:39.633Z</time>
			</trkpt>
			<trkpt lat="48.3915" lon="15.62392">
				<ele>196.28</ele>
				<time>2025-07-29T03:24:42.929Z</time>
			</trkpt>
			<trkpt lat="48.39194" lon="15.62428">
				<ele>198.81</ele>
				<time>2025-07-29T03:24:45.603Z</time>
			</trkpt>
			<trkpt lat="48.39234" lon="15.62465">
				<ele>194.76</ele>
				<time>2025-07-29T03:24:48.142Z</time>
			</trkpt>
			<trkpt lat="48.39263" lon="15.625">
				<ele>192.58</ele>
				<time>2025-07-29T03:24:50.176Z</time>
			</trkpt>
			<trkpt lat="48.39277" lon="15.62522">
				<ele>193.6</ele>
				<time>2025-07-29T03:24:51.292Z</time>
			</trkpt>
			<trkpt lat="48.3932" lon="15.62607">
				<ele>198.81</ele>
				<time>2025-07-29T03:24:55.259Z</time>
			</trkpt>
			<trkpt lat="48.3939" lon="15.62759">
				<ele>194.8</ele>
				<time>2025-07-29T03:25:02.300Z</time>
			</trkpt>
			<trkpt lat="48.39406" lon="15.62787">
				<ele>196.76</ele>
				<time>2025-07-29T03:25:03.718Z</time>
			</trkpt>
			<trkpt lat="48.39422" lon="15.62803">
				<ele>197.2</ele>
				<time>2025-07-29T03:25:04.830Z</time>
			</trkpt>
			<trkpt lat="48.39432" lon="15.62809">
				<ele>197.57</ele>
				<time>2025-07-29T03:25:05.455Z</time>
			</trkpt>
			<trkpt lat="48.3945" lon="15.62814">
				<ele>198.06</ele>
				<time>2025-07-29T03:25:06.517Z</time>
			</trkpt>
			<trkpt lat="48.39468" lon="15.62812">
				<ele>198.2</ele>
				<time>2025-07-29T03:25:07.567Z</time>
			</trkpt>
			<trkpt lat="48.39491" lon="15.62796">
				<ele>198.78</ele>
				<time>2025-07-29T03:25:09.043Z</time>
			</trkpt>
			<trkpt lat="48.39499" lon="15.62788">
				<ele>198.98</ele>
				<time>2025-07-29T03:25:09.603Z</time>
			</trkpt>
			<trkpt lat="48.39508" lon="15.62774">
				<ele>199</ele>
				<time>2025-07-29T03:25:10.359Z</time>
			</trkpt>
			<trkpt lat="48.39516" lon="15.62756">
				<ele>199</ele>
				<time>2025-07-29T03:25:11.199Z</time>
			</trkpt>
			<trkpt lat="48.39541" lon="15.62685">
				<ele>199.31</ele>
				<time>2025-07-29T03:25:14.328Z</time>
			</trkpt>
			<trkpt lat="48.39551" lon="15.62662">
				<ele>199.3</ele>
				<time>2025-07-29T03:25:15.401Z</time>
			</trkpt>
			<trkpt lat="48.39563" lon="15.62639">
				<ele>198.43</ele>
				<time>2025-07-29T03:25:16.544Z</time>
			</trkpt>
			<trkpt lat="48.39578" lon="15.62617">
				<ele>198</ele>
				<time>2025-07-29T03:25:17.779Z</time>
			</trkpt>
			<trkpt lat="48.39591" lon="15.62601">
				<ele>197.71</ele>
				<time>2025-07-29T03:25:18.770Z</time>
			</trkpt>
			<trkpt lat="48.39622" lon="15.62571">
				<ele>197.16</ele>
				<time>2025-07-29T03:25:20.951Z</time>
			</trkpt>
			<trkpt lat="48.39629" lon="15.62561">
				<ele>197.54</ele>
				<time>2025-07-29T03:25:21.523Z</time>
			</trkpt>
			<trkpt lat="48.39655" lon="15.62546">
				<ele>198.34</ele>
				<time>2025-07-29T03:25:23.176Z</time>
			</trkpt>
			<trkpt lat="48.39701" lon="15.62522">
				<ele>199.21</ele>
				<time>2025-07-29T03:25:26.074Z</time>
			</trkpt>
			<trkpt lat="48.39772" lon="15.62497">
				<ele>198.86</ele>
				<time>2025-07-29T03:25:30.435Z</time>
			</trkpt>
			<trkpt lat="48.39842" lon="15.62485">
				<ele>198.85</ele>
				<time>2025-07-29T03:25:34.670Z</time>
			</trkpt>
			<trkpt lat="48.39895" lon="15.62482">
				<ele>198.83</ele>
				<time>2025-07-29T03:25:37.872Z</time>
			</trkpt>
			<trkpt lat="48.40739" lon="15.62508">
				<ele>198.6</ele>
				<time>2025-07-29T03:26:30.258Z</time>
			</trkpt>
			<trkpt lat="48.4123" lon="15.62525">
				<ele>194.96</ele>
				<time>2025-07-29T03:27:01.750Z</time>
			</trkpt>
			<trkpt lat="48.41354" lon="15.62525">
				<ele>193.77</ele>
				<time>2025-07-29T03:27:09.793Z</time>
			</trkpt>
			<trkpt lat="48.41473" lon="15.62521">
				<ele>194.03</ele>
				<time>2025-07-29T03:27:17.543Z</time>
			</trkpt>
			<trkpt lat="48.4157" lon="15.62511">
				<ele>194.03</ele>
				<time>2025-07-29T03:27:23.893Z</time>
			</trkpt>
			<trkpt lat="48.4167" lon="15.62496">
				<ele>198.72</ele>
				<time>2025-07-29T03:27:30.475Z</time>
			</trkpt>
			<trkpt lat="48.41752" lon="15.62477">
				<ele>201.16</ele>
				<time>2025-07-29T03:27:35.920Z</time>
			</trkpt>
			<trkpt lat="48.41822" lon="15.6245">
				<ele>202.69</ele>
				<time>2025-07-29T03:27:40.671Z</time>
			</trkpt>
			<trkpt lat="48.41854" lon="15.62436">
				<ele>204.77</ele>
				<time>2025-07-29T03:27:42.865Z</time>
			</trkpt>
			<trkpt lat="48.41917" lon="15.62402">
				<ele>208.48</ele>
				<time>2025-07-29T03:27:47.274Z</time>
			</trkpt>
			<trkpt lat="48.41967" lon="15.62367">
				<ele>205.46</ele>
				<time>2025-07-29T03:27:50.912Z</time>
			</trkpt>
			<trkpt lat="48.42042" lon="15.62307">
				<ele>206.9</ele>
				<time>2025-07-29T03:27:56.520Z</time>
			</trkpt>
			<trkpt lat="48.42087" lon="15.62263">
				<ele>210.07</ele>
				<time>2025-07-29T03:28:00.068Z</time>
			</trkpt>
			<trkpt lat="48.42133" lon="15.62212">
				<ele>215.58</ele>
				<time>2025-07-29T03:28:03.847Z</time>
			</trkpt>
			<trkpt lat="48.42167" lon="15.62173">
				<ele>219.77</ele>
				<time>2025-07-29T03:28:06.677Z</time>
			</trkpt>
			<trkpt lat="48.42287" lon="15.62009">
				<ele>231.12</ele>
				<time>2025-07-29T03:28:17.418Z</time>
			</trkpt>
			<trkpt lat="48.42303" lon="15.6199">
				<ele>231.3</ele>
				<time>2025-07-29T03:28:18.770Z</time>
			</trkpt>
			<trkpt lat="48.42337" lon="15.61952">
				<ele>235.03</ele>
				<time>2025-07-29T03:28:21.580Z</time>
			</trkpt>
			<trkpt lat="48.42391" lon="15.61902">
				<ele>243.31</ele>
				<time>2025-07-29T03:28:25.789Z</time>
			</trkpt>
			<trkpt lat="48.42453" lon="15.61856">
				<ele>252.67</ele>
				<time>2025-07-29T03:28:30.381Z</time>
			</trkpt>
			<trkpt lat="48.42527" lon="15.61817">
				<ele>256.37</ele>
				<time>2025-07-29T03:28:35.591Z</time>
			</trkpt>
			<trkpt lat="48.42587" lon="15.61794">
				<ele>260.56</ele>
				<time>2025-07-29T03:28:39.707Z</time>
			</trkpt>
			<trkpt lat="48.42626" lon="15.61785">
				<ele>265.7</ele>
				<time>2025-07-29T03:28:42.330Z</time>
			</trkpt>
			<trkpt lat="48.42663" lon="15.61779">
				<ele>269.74</ele>
				<time>2025-07-29T03:28:44.804Z</time>
			</trkpt>
			<trkpt lat="48.42709" lon="15.61775">
				<ele>273.93</ele>
				<time>2025-07-29T03:28:47.867Z</time>
			</trkpt>
			<trkpt lat="48.42755" lon="15.61781">
				<ele>273.43</ele>
				<time>2025-07-29T03:28:50.937Z</time>
			</trkpt>
			<trkpt lat="48.42806" lon="15.61794">
				<ele>273.92</ele>
				<time>2025-07-29T03:28:54.376Z</time>
			</trkpt>
			<trkpt lat="48.42859" lon="15.61815">
				<ele>270.33</ele>
				<time>2025-07-29T03:28:58.018Z</time>
			</trkpt>
			<trkpt lat="48.43098" lon="15.61934">
				<ele>280.83</ele>
				<time>2025-07-29T03:29:14.735Z</time>
			</trkpt>
			<trkpt lat="48.43431" lon="15.62102">
				<ele>297.84</ele>
				<time>2025-07-29T03:29:37.987Z</time>
			</trkpt>
			<trkpt lat="48.43498" lon="15.62141">
				<ele>301.76</ele>
				<time>2025-07-29T03:29:42.728Z</time>
			</trkpt>
			<trkpt lat="48.43571" lon="15.62194">
				<ele>306.13</ele>
				<time>2025-07-29T03:29:48.069Z</time>
			</trkpt>
			<trkpt lat="48.43795" lon="15.62384">
				<ele>320.85</ele>
				<time>2025-07-29T03:30:04.950Z</time>
			</trkpt>
			<trkpt lat="48.43865" lon="15.62442">
				<ele>323.93</ele>
				<time>2025-07-29T03:30:10.174Z</time>
			</trkpt>
			<trkpt lat="48.4389" lon="15.6246">
				<ele>324.57</ele>
				<time>2025-07-29T03:30:11.983Z</time>
			</trkpt>
			<trkpt lat="48.43945" lon="15.62493">
				<ele>325.75</ele>
				<time>2025-07-29T03:30:15.844Z</time>
			</trkpt>
			<trkpt lat="48.43975" lon="15.62507">
				<ele>326.25</ele>
				<time>2025-07-29T03:30:17.890Z</time>
			</trkpt>
			<trkpt lat="48.44033" lon="15.62525">
				<ele>328</ele>
				<time>2025-07-29T03:30:21.742Z</time>
			</trkpt>
			<trkpt lat="48.44064" lon="15.62531">
				<ele>328.04</ele>
				<time>2025-07-29T03:30:23.772Z</time>
			</trkpt>
			<trkpt lat="48.44127" lon="15.62535">
				<ele>331.57</ele>
				<time>2025-07-29T03:30:27.862Z</time>
			</trkpt>
			<trkpt lat="48.44178" lon="15.62531">
				<ele>333.05</ele>
				<time>2025-07-29T03:30:31.168Z</time>
			</trkpt>
			<trkpt lat="48.44217" lon="15.62522">
				<ele>333.84</ele>
				<time>2025-07-29T03:30:33.718Z</time>
			</trkpt>
			<trkpt lat="48.44238" lon="15.62525">
				<ele>334.6</ele>
				<time>2025-07-29T03:30:35.079Z</time>
			</trkpt>
			<trkpt lat="48.44257" lon="15.6253">
				<ele>335.53</ele>
				<time>2025-07-29T03:30:36.324Z</time>
			</trkpt>
			<trkpt lat="48.44319" lon="15.62564">
				<ele>338</ele>
				<time>2025-07-29T03:30:40.573Z</time>
			</trkpt>
			<trkpt lat="48.44338" lon="15.62567">
				<ele>336.45</ele>
				<time>2025-07-29T03:30:41.802Z</time>
			</trkpt>
			<trkpt lat="48.44348" lon="15.62565">
				<ele>335.37</ele>
				<time>2025-07-29T03:30:42.450Z</time>
			</trkpt>
			<trkpt lat="48.4441" lon="15.62541">
				<ele>330.92</ele>
				<time>2025-07-29T03:30:46.558Z</time>
			</trkpt>
			<trkpt lat="48.44433" lon="15.62538">
				<ele>329.38</ele>
				<time>2025-07-29T03:30:48.037Z</time>
			</trkpt>
			<trkpt lat="48.44459" lon="15.62541">
				<ele>328.23</ele>
				<time>2025-07-29T03:30:49.706Z</time>
			</trkpt>
			<trkpt lat="48.44493" lon="15.62553">
				<ele>327.93</ele>
				<time>2025-07-29T03:30:51.938Z</time>
			</trkpt>
			<trkpt lat="48.44525" lon="15.62585">
				<ele>326.19</ele>
				<time>2025-07-29T03:30:54.388Z</time>
			</trkpt>
			<trkpt lat="48.44577" lon="15.62658">
				<ele>323.67</ele>
				<time>2025-07-29T03:30:58.912Z</time>
			</trkpt>
			<trkpt lat="48.44618" lon="15.62712">
				<ele>321.37</ele>
				<time>2025-07-29T03:31:02.368Z</time>
			</trkpt>
			<trkpt lat="48.44659" lon="15.62759">
				<ele>318.72</ele>
				<time>2025-07-29T03:31:05.630Z</time>
			</trkpt>
			<trkpt lat="48.4471" lon="15.62813">
				<ele>315.82</ele>
				<time>2025-07-29T03:31:09.566Z</time>
			</trkpt>
			<trkpt lat="48.44742" lon="15.62844">
				<ele>314.25</ele>
				<time>2025-07-29T03:31:11.962Z</time>
			</trkpt>
			<trkpt lat="48.44882" lon="15.62974">
				<ele>305.71</ele>
				<time>2025-07-29T03:31:22.267Z</time>
			</trkpt>
			<trkpt lat="48.44965" lon="15.63055">
				<ele>302.47</ele>
				<time>2025-07-29T03:31:28.420Z</time>
			</trkpt>
			<trkpt lat="48.45135" lon="15.63232">
				<ele>299.45</ele>
				<time>2025-07-29T03:31:41.068Z</time>
			</trkpt>
			<trkpt lat="48.4524" lon="15.63346">
				<ele>304.8</ele>
				<time>2025-07-29T03:31:48.745Z</time>
			</trkpt>
			<trkpt lat="48.45435" lon="15.63564">
				<ele>302.66</ele>
				<time>2025-07-29T03:32:02.667Z</time>
			</trkpt>
			<trkpt lat="48.45541" lon="15.6369">
				<ele>294.62</ele>
				<time>2025-07-29T03:32:10.163Z</time>
			</trkpt>
			<trkpt lat="48.45653" lon="15.63827">
				<ele>293.04</ele>
				<time>2025-07-29T03:32:17.998Z</time>
			</trkpt>
			<trkpt lat="48.45731" lon="15.6393">
				<ele>290</ele>
				<time>2025-07-29T03:32:23.530Z</time>
			</trkpt>
			<trkpt lat="48.458" lon="15.64028">
				<ele>286.18</ele>
				<time>2025-07-29T03:32:28.518Z</time>
			</trkpt>
			<trkpt lat="48.45865" lon="15.64129">
				<ele>287.04</ele>
				<time>2025-07-29T03:32:33.371Z</time>
			</trkpt>
			<trkpt lat="48.45952" lon="15.64277">
				<ele>289.3</ele>
				<time>2025-07-29T03:32:40.102Z</time>
			</trkpt>
			<trkpt lat="48.46025" lon="15.64407">
				<ele>289.65</ele>
				<time>2025-07-29T03:32:45.823Z</time>
			</trkpt>
			<trkpt lat="48.46119" lon="15.6458">
				<ele>287</ele>
				<time>2025-07-29T03:32:53.245Z</time>
			</trkpt>
			<trkpt lat="48.46242" lon="15.64814">
				<ele>283.39</ele>
				<time>2025-07-29T03:33:03.022Z</time>
			</trkpt>
			<trkpt lat="48.46305" lon="15.64939">
				<ele>282.16</ele>
				<time>2025-07-29T03:33:08.117Z</time>
			</trkpt>
			<trkpt lat="48.46428" lon="15.65192">
				<ele>274.64</ele>
				<time>2025-07-29T03:33:18.232Z</time>
			</trkpt>
			<trkpt lat="48.46466" lon="15.65273">
				<ele>271.13</ele>
				<time>2025-07-29T03:33:21.420Z</time>
			</trkpt>
			<trkpt lat="48.46522" lon="15.65402">
				<ele>270.08</ele>
				<time>2025-07-29T03:33:26.369Z</time>
			</trkpt>
			<trkpt lat="48.46572" lon="15.65528">
				<ele>270.6</ele>
				<time>2025-07-29T03:33:31.082Z</time>
			</trkpt>
			<trkpt lat="48.46613" lon="15.6565">
				<ele>271.76</ele>
				<time>2025-07-29T03:33:35.476Z</time>
			</trkpt>
			<trkpt lat="48.46656" lon="15.65799">
				<ele>275.78</ele>
				<time>2025-07-29T03:33:40.708Z</time>
			</trkpt>
			<trkpt lat="48.46684" lon="15.6591">
				<ele>277.3</ele>
				<time>2025-07-29T03:33:44.544Z</time>
			</trkpt>
			<trkpt lat="48.46698" lon="15.65972">
				<ele>278.17</ele>
				<time>2025-07-29T03:33:46.665Z</time>
			</trkpt>
			<trkpt lat="48.46715" lon="15.6605">
				<ele>280</ele>
				<time>2025-07-29T03:33:49.330Z</time>
			</trkpt>
			<trkpt lat="48.46731" lon="15.66135">
				<ele>279</ele>
				<time>2025-07-29T03:33:52.207Z</time>
			</trkpt>
			<trkpt lat="48.46746" lon="15.6623">
				<ele>280.73</ele>
				<time>2025-07-29T03:33:55.399Z</time>
			</trkpt>
			<trkpt lat="48.46757" lon="15.66319">
				<ele>278.35</ele>
				<time>2025-07-29T03:33:58.371Z</time>
			</trkpt>
			<trkpt lat="48.46767" lon="15.6641">
				<ele>277.42</ele>
				<time>2025-07-29T03:34:01.413Z</time>
			</trkpt>
			<trkpt lat="48.46773" lon="15.66501">
				<ele>276.28</ele>
				<time>2025-07-29T03:34:04.443Z</time>
			</trkpt>
			<trkpt lat="48.46776" lon="15.6659">
				<ele>273.81</ele>
				<time>2025-07-29T03:34:07.412Z</time>
			</trkpt>
			<trkpt lat="48.46774" lon="15.66691">
				<ele>273.23</ele>
				<time>2025-07-29T03:34:10.799Z</time>
			</trkpt>
			<trkpt lat="48.46768" lon="15.66789">
				<ele>271.77</ele>
				<time>2025-07-29T03:34:14.120Z</time>
			</trkpt>
			<trkpt lat="48.46749" lon="15.67031">
				<ele>267.15</ele>
				<time>2025-07-29T03:34:22.447Z</time>
			</trkpt>
			<trkpt lat="48.46739" lon="15.67187">
				<ele>268.74</ele>
				<time>2025-07-29T03:34:27.891Z</time>
			</trkpt>
			<trkpt lat="48.46735" lon="15.67293">
				<ele>267.01</ele>
				<time>2025-07-29T03:34:31.621Z</time>
			</trkpt>
			<trkpt lat="48.46734" lon="15.67363">
				<ele>267.07</ele>
				<time>2025-07-29T03:34:34.101Z</time>
			</trkpt>
			<trkpt lat="48.46735" lon="15.67459">
				<ele>264.73</ele>
				<time>2025-07-29T03:34:37.529Z</time>
			</trkpt>
			<trkpt lat="48.46738" lon="15.67556">
				<ele>260.59</ele>
				<time>2025-07-29T03:34:41.030Z</time>
			</trkpt>
			<trkpt lat="48.46744" lon="15.67652">
				<ele>257.85</ele>
				<time>2025-07-29T03:34:44.541Z</time>
			</trkpt>
			<trkpt lat="48.46761" lon="15.67847">
				<ele>252.36</ele>
				<time>2025-07-29T03:34:51.815Z</time>
			</trkpt>
			<trkpt lat="48.46782" lon="15.67999">
				<ele>247.52</ele>
				<time>2025-07-29T03:34:57.672Z</time>
			</trkpt>
			<trkpt lat="48.46795" lon="15.68077">
				<ele>246.12</ele>
				<time>2025-07-29T03:35:00.747Z</time>
			</trkpt>
			<trkpt lat="48.46816" lon="15.68184">
				<ele>240.23</ele>
				<time>2025-07-29T03:35:05.064Z</time>
			</trkpt>
			<trkpt lat="48.46835" lon="15.68275">
				<ele>238.75</ele>
				<time>2025-07-29T03:35:08.802Z</time>
			</trkpt>
			<trkpt lat="48.46855" lon="15.68355">
				<ele>234.87</ele>
				<time>2025-07-29T03:35:12.190Z</time>
			</trkpt>
			<trkpt lat="48.46878" lon="15.68442">
				<ele>230.04</ele>
				<time>2025-07-29T03:35:15.945Z</time>
			</trkpt>
			<trkpt lat="48.46914" lon="15.68562">
				<ele>218.47</ele>
				<time>2025-07-29T03:35:21.302Z</time>
			</trkpt>
			<trkpt lat="48.46959" lon="15.68689">
				<ele>213.74</ele>
				<time>2025-07-29T03:35:27.268Z</time>
			</trkpt>
			<trkpt lat="48.46981" lon="15.68742">
				<ele>212.16</ele>
				<time>2025-07-29T03:35:29.895Z</time>
			</trkpt>
			<trkpt lat="48.47016" lon="15.68814">
				<ele>210.86</ele>
				<time>2025-07-29T03:35:33.686Z</time>
			</trkpt>
			<trkpt lat="48.47037" lon="15.68854">
				<ele>211</ele>
				<time>2025-07-29T03:35:35.874Z</time>
			</trkpt>
			<trkpt lat="48.47076" lon="15.6892">
				<ele>211.73</ele>
				<time>2025-07-29T03:35:39.701Z</time>
			</trkpt>
			<trkpt lat="48.47122" lon="15.68986">
				<ele>211.16</ele>
				<time>2025-07-29T03:35:43.902Z</time>
			</trkpt>
			<trkpt lat="48.47154" lon="15.69027">
				<ele>211</ele>
				<time>2025-07-29T03:35:46.712Z</time>
			</trkpt>
			<trkpt lat="48.4719" lon="15.69068">
				<ele>210.31</ele>
				<time>2025-07-29T03:35:49.760Z</time>
			</trkpt>
			<trkpt lat="48.47218" lon="15.69101">
				<ele>210</ele>
				<time>2025-07-29T03:35:52.182Z</time>
			</trkpt>
			<trkpt lat="48.47329" lon="15.69219">
				<ele>209</ele>
				<time>2025-07-29T03:36:01.617Z</time>
			</trkpt>
			<trkpt lat="48.4735" lon="15.69244">
				<ele>208.08</ele>
				<time>2025-07-29T03:36:03.510Z</time>
			</trkpt>
			<trkpt lat="48.47388" lon="15.69288">
				<ele>207</ele>
				<time>2025-07-29T03:36:06.929Z</time>
			</trkpt>
			<trkpt lat="48.47404" lon="15.6931">
				<ele>206.83</ele>
				<time>2025-07-29T03:36:08.486Z</time>
			</trkpt>
			<trkpt lat="48.47453" lon="15.69383">
				<ele>206</ele>
				<time>2025-07-29T03:36:13.492Z</time>
			</trkpt>
			<trkpt lat="48.47472" lon="15.69418">
				<ele>205.99</ele>
				<time>2025-07-29T03:36:15.696Z</time>
			</trkpt>
			<trkpt lat="48.4748" lon="15.69437">
				<ele>205.78</ele>
				<time>2025-07-29T03:36:16.799Z</time>
			</trkpt>
			<trkpt lat="48.47509" lon="15.69498">
				<ele>204.04</ele>
				<time>2025-07-29T03:36:20.504Z</time>
			</trkpt>
			<trkpt lat="48.47511" lon="15.69504">
				<ele>204.1</ele>
				<time>2025-07-29T03:36:20.837Z</time>
			</trkpt>
			<trkpt lat="48.47513" lon="15.69514">
				<ele>204.27</ele>
				<time>2025-07-29T03:36:21.357Z</time>
			</trkpt>
			<trkpt lat="48.47518" lon="15.6952">
				<ele>204.24</ele>
				<time>2025-07-29T03:36:21.837Z</time>
			</trkpt>
			<trkpt lat="48.47525" lon="15.6952">
				<ele>204.05</ele>
				<time>2025-07-29T03:36:22.363Z</time>
			</trkpt>
			<trkpt lat="48.4753" lon="15.69513">
				<ele>204</ele>
				<time>2025-07-29T03:36:22.878Z</time>
			</trkpt>
			<trkpt lat="48.47532" lon="15.69503">
				<ele>204</ele>
				<time>2025-07-29T03:36:23.400Z</time>
			</trkpt>
			<trkpt lat="48.47548" lon="15.69481">
				<ele>204</ele>
				<time>2025-07-29T03:36:25.040Z</time>
			</trkpt>
			<trkpt lat="48.47558" lon="15.69472">
				<ele>204</ele>
				<time>2025-07-29T03:36:25.926Z</time>
			</trkpt>
			<trkpt lat="48.47589" lon="15.69454">
				<ele>204.62</ele>
				<time>2025-07-29T03:36:28.465Z</time>
			</trkpt>
			<trkpt lat="48.47683" lon="15.69408">
				<ele>204.11</ele>
				<time>2025-07-29T03:36:36.138Z</time>
			</trkpt>
			<trkpt lat="48.47941" lon="15.69281">
				<ele>205.88</ele>
				<time>2025-07-29T03:36:58.159Z</time>
			</trkpt>
			<trkpt lat="48.48076" lon="15.69206">
				<ele>205.32</ele>
				<time>2025-07-29T03:37:10.427Z</time>
			</trkpt>
			<trkpt lat="48.48166" lon="15.69151">
				<ele>208</ele>
				<time>2025-07-29T03:37:18.952Z</time>
			</trkpt>
			<trkpt lat="48.48355" lon="15.69023">
				<ele>208.96</ele>
				<time>2025-07-29T03:37:37.825Z</time>
			</trkpt>
			<trkpt lat="48.484" lon="15.69001">
				<ele>209</ele>
				<time>2025-07-29T03:37:43.143Z</time>
			</trkpt>
			<trkpt lat="48.48423" lon="15.68993">
				<ele>209</ele>
				<time>2025-07-29T03:37:45.616Z</time>
			</trkpt>
			<trkpt lat="48.48473" lon="15.68981">
				<ele>210</ele>
				<time>2025-07-29T03:37:50.901Z</time>
			</trkpt>
			<trkpt lat="48.48522" lon="15.68977">
				<ele>209.02</ele>
				<time>2025-07-29T03:37:55.998Z</time>
			</trkpt>
			<trkpt lat="48.48563" lon="15.6898">
				<ele>208.35</ele>
				<time>2025-07-29T03:38:00.242Z</time>
			</trkpt>
			<trkpt lat="48.486" lon="15.68988">
				<ele>210.09</ele>
				<time>2025-07-29T03:38:04.092Z</time>
			</trkpt>
			<trkpt lat="48.48607" lon="15.68994">
				<ele>210.13</ele>
				<time>2025-07-29T03:38:04.919Z</time>
			</trkpt>
			<trkpt lat="48.48665" lon="15.69014">
				<ele>209.56</ele>
				<time>2025-07-29T03:38:11.012Z</time>
			</trkpt>
			<trkpt lat="48.48699" lon="15.69032">
				<ele>211.17</ele>
				<time>2025-07-29T03:38:14.685Z</time>
			</trkpt>
			<trkpt lat="48.48753" lon="15.69056">
				<ele>212</ele>
				<time>2025-07-29T03:38:20.396Z</time>
			</trkpt>
			<trkpt lat="48.48779" lon="15.69065">
				<ele>212.06</ele>
				<time>2025-07-29T03:38:23.091Z</time>
			</trkpt>
			<trkpt lat="48.48837" lon="15.69081">
				<ele>213.86</ele>
				<time>2025-07-29T03:38:29.022Z</time>
			</trkpt>
			<trkpt lat="48.48873" lon="15.69087">
				<ele>213</ele>
				<time>2025-07-29T03:38:32.648Z</time>
			</trkpt>
			<trkpt lat="48.48887" lon="15.69093">
				<ele>213</ele>
				<time>2025-07-29T03:38:34.101Z</time>
			</trkpt>
			<trkpt lat="48.48903" lon="15.69102">
				<ele>212.45</ele>
				<time>2025-07-29T03:38:35.804Z</time>
			</trkpt>
			<trkpt lat="48.49001" lon="15.69169">
				<ele>210.99</ele>
				<time>2025-07-29T03:38:46.464Z</time>
			</trkpt>
			<trkpt lat="48.49063" lon="15.69202">
				<ele>210</ele>
				<time>2025-07-29T03:38:52.921Z</time>
			</trkpt>
			<trkpt lat="48.49093" lon="15.69216">
				<ele>210.07</ele>
				<time>2025-07-29T03:38:55.991Z</time>
			</trkpt>
			<trkpt lat="48.49119" lon="15.69223">
				<ele>209.95</ele>
				<time>2025-07-29T03:38:58.565Z</time>
			</trkpt>
			<trkpt lat="48.49144" lon="15.69226">
				<ele>210.25</ele>
				<time>2025-07-29T03:39:01.003Z</time>
			</trkpt>
			<trkpt lat="48.49183" lon="15.69223">
				<ele>211.95</ele>
				<time>2025-07-29T03:39:04.787Z</time>
			</trkpt>
			<trkpt lat="48.49286" lon="15.69197">
				<ele>214.94</ele>
				<time>2025-07-29T03:39:14.834Z</time>
			</trkpt>
			<trkpt lat="48.49311" lon="15.69194">
				<ele>216.23</ele>
				<time>2025-07-29T03:39:17.231Z</time>
			</trkpt>
			<trkpt lat="48.49371" lon="15.69192">
				<ele>217.13</ele>
				<time>2025-07-29T03:39:22.943Z</time>
			</trkpt>
			<trkpt lat="48.49394" lon="15.69193">
				<ele>216.33</ele>
				<time>2025-07-29T03:39:25.124Z</time>
			</trkpt>
			<trkpt lat="48.49465" lon="15.69178">
				<ele>221.38</ele>
				<time>2025-07-29T03:39:31.888Z</time>
			</trkpt>
			<trkpt lat="48.49535" lon="15.69162">
				<ele>225.01</ele>
				<time>2025-07-29T03:39:38.519Z</time>
			</trkpt>
			<trkpt lat="48.49564" lon="15.6916">
				<ele>223.89</ele>
				<time>2025-07-29T03:39:41.225Z</time>
			</trkpt>
			<trkpt lat="48.49632" lon="15.69161">
				<ele>219.93</ele>
				<time>2025-07-29T03:39:47.533Z</time>
			</trkpt>
			<trkpt lat="48.49664" lon="15.69164">
				<ele>220.47</ele>
				<time>2025-07-29T03:39:50.492Z</time>
			</trkpt>
			<trkpt lat="48.49703" lon="15.69169">
				<ele>220.42</ele>
				<time>2025-07-29T03:39:54.092Z</time>
			</trkpt>
			<trkpt lat="48.49732" lon="15.69178">
				<ele>220.71</ele>
				<time>2025-07-29T03:39:56.805Z</time>
			</trkpt>
			<trkpt lat="48.49797" lon="15.69204">
				<ele>221.17</ele>
				<time>2025-07-29T03:40:02.939Z</time>
			</trkpt>
			<trkpt lat="48.49829" lon="15.69213">
				<ele>220.02</ele>
				<time>2025-07-29T03:40:05.894Z</time>
			</trkpt>
			<trkpt lat="48.49872" lon="15.69215">
				<ele>220.3</ele>
				<time>2025-07-29T03:40:09.784Z</time>
			</trkpt>
			<trkpt lat="48.49889" lon="15.69214">
				<ele>219.77</ele>
				<time>2025-07-29T03:40:11.317Z</time>
			</trkpt>
			<trkpt lat="48.49983" lon="15.69189">
				<ele>224.45</ele>
				<time>2025-07-29T03:40:19.875Z</time>
			</trkpt>
			<trkpt lat="48.5002" lon="15.69183">
				<ele>223.53</ele>
				<time>2025-07-29T03:40:23.189Z</time>
			</trkpt>
			<trkpt lat="48.50096" lon="15.6918">
				<ele>224.32</ele>
				<time>2025-07-29T03:40:29.923Z</time>
			</trkpt>
			<trkpt lat="48.50179" lon="15.69181">
				<ele>228.69</ele>
				<time>2025-07-29T03:40:37.217Z</time>
			</trkpt>
			<trkpt lat="48.50257" lon="15.69184">
				<ele>228.98</ele>
				<time>2025-07-29T03:40:44.020Z</time>
			</trkpt>
			<trkpt lat="48.50323" lon="15.69183">
				<ele>228.77</ele>
				<time>2025-07-29T03:40:49.734Z</time>
			</trkpt>
			<trkpt lat="48.50365" lon="15.69175">
				<ele>227.52</ele>
				<time>2025-07-29T03:40:53.379Z</time>
			</trkpt>
			<trkpt lat="48.50427" lon="15.69161">
				<ele>226.26</ele>
				<time>2025-07-29T03:40:58.750Z</time>
			</trkpt>
			<trkpt lat="48.50541" lon="15.69121">
				<ele>233.04</ele>
				<time>2025-07-29T03:41:08.689Z</time>
			</trkpt>
			<trkpt lat="48.50564" lon="15.69114">
				<ele>230.92</ele>
				<time>2025-07-29T03:41:10.668Z</time>
			</trkpt>
			<trkpt lat="48.50585" lon="15.69114">
				<ele>229.99</ele>
				<time>2025-07-29T03:41:12.435Z</time>
			</trkpt>
			<trkpt lat="48.50623" lon="15.69122">
				<ele>227.9</ele>
				<time>2025-07-29T03:41:15.654Z</time>
			</trkpt>
			<trkpt lat="48.50651" lon="15.69135">
				<ele>223.07</ele>
				<time>2025-07-29T03:41:18.105Z</time>
			</trkpt>
			<trkpt lat="48.50705" lon="15.69185">
				<ele>220.09</ele>
				<time>2025-07-29T03:41:23.379Z</time>
			</trkpt>
			<trkpt lat="48.50767" lon="15.69264">
				<ele>219.09</ele>
				<time>2025-07-29T03:41:30.088Z</time>
			</trkpt>
			<trkpt lat="48.50797" lon="15.69293">
				<ele>217.33</ele>
				<time>2025-07-29T03:41:33.017Z</time>
			</trkpt>
			<trkpt lat="48.50827" lon="15.69314">
				<ele>217.88</ele>
				<time>2025-07-29T03:41:35.727Z</time>
			</trkpt>
			<trkpt lat="48.5085" lon="15.69326">
				<ele>219.01</ele>
				<time>2025-07-29T03:41:37.715Z</time>
			</trkpt>
			<trkpt lat="48.50879" lon="15.69334">
				<ele>221.48</ele>
				<time>2025-07-29T03:41:40.118Z</time>
			</trkpt>
			<trkpt lat="48.50903" lon="15.69337">
				<ele>219.96</ele>
				<time>2025-07-29T03:41:42.076Z</time>
			</trkpt>
			<trkpt lat="48.50963" lon="15.6934">
				<ele>216.75</ele>
				<time>2025-07-29T03:41:46.937Z</time>
			</trkpt>
			<trkpt lat="48.51026" lon="15.69346">
				<ele>216.52</ele>
				<time>2025-07-29T03:41:52.018Z</time>
			</trkpt>
			<trkpt lat="48.51095" lon="15.69367">
				<ele>216.08</ele>
				<time>2025-07-29T03:41:57.648Z</time>
			</trkpt>
			<trkpt lat="48.51119" lon="15.69377">
				<ele>216.83</ele>
				<time>2025-07-29T03:41:59.630Z</time>
			</trkpt>
			<trkpt lat="48.51153" lon="15.69386">
				<ele>217.68</ele>
				<time>2025-07-29T03:42:02.370Z</time>
			</trkpt>
			<trkpt lat="48.51181" lon="15.69388">
				<ele>218.02</ele>
				<time>2025-07-29T03:42:04.589Z</time>
			</trkpt>
			<trkpt lat="48.51205" lon="15.69387">
				<ele>217.25</ele>
				<time>2025-07-29T03:42:06.485Z</time>
			</trkpt>
			<trkpt lat="48.51263" lon="15.6938">
				<ele>217.45</ele>
				<time>2025-07-29T03:42:11.061Z</time>
			</trkpt>
			<trkpt lat="48.51292" lon="15.69382">
				<ele>218.77</ele>
				<time>2025-07-29T03:42:13.335Z</time>
			</trkpt>
			<trkpt lat="48.51306" lon="15.69385">
				<ele>219.15</ele>
				<time>2025-07-29T03:42:14.441Z</time>
			</trkpt>
			<trkpt lat="48.51327" lon="15.69394">
				<ele>219.62</ele>
				<time>2025-07-29T03:42:16.144Z</time>
			</trkpt>
			<trkpt lat="48.51358" lon="15.69414">
				<ele>218.18</ele>
				<time>2025-07-29T03:42:18.768Z</time>
			</trkpt>
			<trkpt lat="48.51385" lon="15.69443">
				<ele>217.88</ele>
				<time>2025-07-29T03:42:21.339Z</time>
			</trkpt>
			<trkpt lat="48.51402" lon="15.69466">
				<ele>218.07</ele>
				<time>2025-07-29T03:42:23.106Z</time>
			</trkpt>
			<trkpt lat="48.51439" lon="15.6953">
				<ele>218.91</ele>
				<time>2025-07-29T03:42:27.444Z</time>
			</trkpt>
			<trkpt lat="48.5146" lon="15.69558">
				<ele>218.51</ele>
				<time>2025-07-29T03:42:29.596Z</time>
			</trkpt>
			<trkpt lat="48.51489" lon="15.69585">
				<ele>217.91</ele>
				<time>2025-07-29T03:42:32.205Z</time>
			</trkpt>
			<trkpt lat="48.51531" lon="15.69609">
				<ele>217</ele>
				<time>2025-07-29T03:42:35.631Z</time>
			</trkpt>
			<trkpt lat="48.51571" lon="15.69617">
				<ele>217</ele>
				<time>2025-07-29T03:42:38.697Z</time>
			</trkpt>
			<trkpt lat="48.516" lon="15.69615">
				<ele>216.9</ele>
				<time>2025-07-29T03:42:40.896Z</time>
			</trkpt>
			<trkpt lat="48.51662" lon="15.696">
				<ele>215.65</ele>
				<time>2025-07-29T03:42:45.632Z</time>
			</trkpt>
			<trkpt lat="48.51708" lon="15.69579">
				<ele>214.57</ele>
				<time>2025-07-29T03:42:49.238Z</time>
			</trkpt>
			<trkpt lat="48.51747" lon="15.69555">
				<ele>216.8</ele>
				<time>2025-07-29T03:42:52.385Z</time>
			</trkpt>
			<trkpt lat="48.51784" lon="15.69522">
				<ele>217.36</ele>
				<time>2025-07-29T03:42:55.584Z</time>
			</trkpt>
			<trkpt lat="48.51807" lon="15.69497">
				<ele>219.29</ele>
				<time>2025-07-29T03:42:57.686Z</time>
			</trkpt>
			<trkpt lat="48.5183" lon="15.69469">
				<ele>220.4</ele>
				<time>2025-07-29T03:42:59.873Z</time>
			</trkpt>
			<trkpt lat="48.51851" lon="15.69438">
				<ele>220.25</ele>
				<time>2025-07-29T03:43:02.040Z</time>
			</trkpt>
			<trkpt lat="48.51883" lon="15.69384">
				<ele>220.51</ele>
				<time>2025-07-29T03:43:05.570Z</time>
			</trkpt>
			<trkpt lat="48.51911" lon="15.69328">
				<ele>223.89</ele>
				<time>2025-07-29T03:43:08.973Z</time>
			</trkpt>
			<trkpt lat="48.51946" lon="15.69253">
				<ele>226.83</ele>
				<time>2025-07-29T03:43:13.401Z</time>
			</trkpt>
			<trkpt lat="48.52063" lon="15.68976">
				<ele>229.27</ele>
				<time>2025-07-29T03:43:29.061Z</time>
			</trkpt>
			<trkpt lat="48.52097" lon="15.68904">
				<ele>230.94</ele>
				<time>2025-07-29T03:43:33.224Z</time>
			</trkpt>
			<trkpt lat="48.52133" lon="15.68834">
				<ele>230.64</ele>
				<time>2025-07-29T03:43:37.375Z</time>
			</trkpt>
			<trkpt lat="48.52151" lon="15.68806">
				<ele>232.33</ele>
				<time>2025-07-29T03:43:39.196Z</time>
			</trkpt>
			<trkpt lat="48.52187" lon="15.68759">
				<ele>231.16</ele>
				<time>2025-07-29T03:43:42.538Z</time>
			</trkpt>
			<trkpt lat="48.52209" lon="15.68735">
				<ele>230.32</ele>
				<time>2025-07-29T03:43:44.438Z</time>
			</trkpt>
			<trkpt lat="48.52286" lon="15.68672">
				<ele>218.25</ele>
				<time>2025-07-29T03:43:50.539Z</time>
			</trkpt>
			<trkpt lat="48.52443" lon="15.68552">
				<ele>217.02</ele>
				<time>2025-07-29T03:44:02.657Z</time>
			</trkpt>
			<trkpt lat="48.5247" lon="15.68528">
				<ele>219.8</ele>
				<time>2025-07-29T03:44:04.796Z</time>
			</trkpt>
			<trkpt lat="48.52499" lon="15.68496">
				<ele>222.65</ele>
				<time>2025-07-29T03:44:07.241Z</time>
			</trkpt>
			<trkpt lat="48.52521" lon="15.68464">
				<ele>221.67</ele>
				<time>2025-07-29T03:44:09.314Z</time>
			</trkpt>
			<trkpt lat="48.5258" lon="15.6837">
				<ele>221.71</ele>
				<time>2025-07-29T03:44:15.108Z</time>
			</trkpt>
			<trkpt lat="48.52597" lon="15.68348">
				<ele>221.6</ele>
				<time>2025-07-29T03:44:16.613Z</time>
			</trkpt>
			<trkpt lat="48.52613" lon="15.68333">
				<ele>221.96</ele>
				<time>2025-07-29T03:44:17.877Z</time>
			</trkpt>
			<trkpt lat="48.52631" lon="15.6832">
				<ele>220.62</ele>
				<time>2025-07-29T03:44:19.214Z</time>
			</trkpt>
			<trkpt lat="48.52667" lon="15.68307">
				<ele>220.09</ele>
				<time>2025-07-29T03:44:21.689Z</time>
			</trkpt>
			<trkpt lat="48.5269" lon="15.68306">
				<ele>219.24</ele>
				<time>2025-07-29T03:44:23.224Z</time>
			</trkpt>
			<trkpt lat="48.5271" lon="15.6831">
				<ele>218.22</ele>
				<time>2025-07-29T03:44:24.567Z</time>
			</trkpt>
			<trkpt lat="48.52727" lon="15.68315">
				<ele>218.07</ele>
				<time>2025-07-29T03:44:25.718Z</time>
			</trkpt>
			<trkpt lat="48.5275" lon="15.68328">
				<ele>220.68</ele>
				<time>2025-07-29T03:44:27.348Z</time>
			</trkpt>
			<trkpt lat="48.52763" lon="15.68338">
				<ele>221.58</ele>
				<time>2025-07-29T03:44:28.314Z</time>
			</trkpt>
			<trkpt lat="48.52789" lon="15.68366">
				<ele>221.91</ele>
				<time>2025-07-29T03:44:30.426Z</time>
			</trkpt>
			<trkpt lat="48.52802" lon="15.68385">
				<ele>221.21</ele>
				<time>2025-07-29T03:44:31.620Z</time>
			</trkpt>
			<trkpt lat="48.52813" lon="15.68408">
				<ele>221.23</ele>
				<time>2025-07-29T03:44:32.858Z</time>
			</trkpt>
			<trkpt lat="48.5283" lon="15.68459">
				<ele>220.69</ele>
				<time>2025-07-29T03:44:35.344Z</time>
			</trkpt>
			<trkpt lat="48.52836" lon="15.68489">
				<ele>221.28</ele>
				<time>2025-07-29T03:44:36.705Z</time>
			</trkpt>
			<trkpt lat="48.52839" lon="15.68519">
				<ele>222</ele>
				<time>2025-07-29T03:44:38.021Z</time>
			</trkpt>
			<trkpt lat="48.52852" lon="15.68721">
				<ele>231.88</ele>
				<time>2025-07-29T03:44:46.767Z</time>
			</trkpt>
			<trkpt lat="48.5286" lon="15.68767">
				<ele>232.32</ele>
				<time>2025-07-29T03:44:48.804Z</time>
			</trkpt>
			<trkpt lat="48.52868" lon="15.688">
				<ele>232.55</ele>
				<time>2025-07-29T03:44:50.305Z</time>
			</trkpt>
			<trkpt lat="48.52881" lon="15.68842">
				<ele>233.11</ele>
				<time>2025-07-29T03:44:52.281Z</time>
			</trkpt>
			<trkpt lat="48.52926" lon="15.68958">
				<ele>234.95</ele>
				<time>2025-07-29T03:44:57.986Z</time>
			</trkpt>
			<trkpt lat="48.52945" lon="15.68998">
				<ele>231.41</ele>
				<time>2025-07-29T03:45:00.065Z</time>
			</trkpt>
			<trkpt lat="48.52966" lon="15.69035">
				<ele>232.35</ele>
				<time>2025-07-29T03:45:02.118Z</time>
			</trkpt>
			<trkpt lat="48.52994" lon="15.69074">
				<ele>233.51</ele>
				<time>2025-07-29T03:45:04.535Z</time>
			</trkpt>
			<trkpt lat="48.5302" lon="15.69107">
				<ele>230.62</ele>
				<time>2025-07-29T03:45:06.684Z</time>
			</trkpt>
			<trkpt lat="48.53051" lon="15.69133">
				<ele>230.03</ele>
				<time>2025-07-29T03:45:08.922Z</time>
			</trkpt>
			<trkpt lat="48.53086" lon="15.69143">
				<ele>228.41</ele>
				<time>2025-07-29T03:45:11.164Z</time>
			</trkpt>
			<trkpt lat="48.53121" lon="15.69141">
				<ele>226.1</ele>
				<time>2025-07-29T03:45:13.362Z</time>
			</trkpt>
			<trkpt lat="48.5316" lon="15.69136">
				<ele>226.36</ele>
				<time>2025-07-29T03:45:15.813Z</time>
			</trkpt>
			<trkpt lat="48.53186" lon="15.69137">
				<ele>227.45</ele>
				<time>2025-07-29T03:45:17.437Z</time>
			</trkpt>
			<trkpt lat="48.53215" lon="15.69144">
				<ele>227.75</ele>
				<time>2025-07-29T03:45:19.267Z</time>
			</trkpt>
			<trkpt lat="48.53558" lon="15.69248">
				<ele>230.78</ele>
				<time>2025-07-29T03:45:40.775Z</time>
			</trkpt>
			<trkpt lat="48.53634" lon="15.69266">
				<ele>233.61</ele>
				<time>2025-07-29T03:45:45.434Z</time>
			</trkpt>
			<trkpt lat="48.5366" lon="15.69268">
				<ele>232.73</ele>
				<time>2025-07-29T03:45:47.005Z</time>
			</trkpt>
			<trkpt lat="48.53693" lon="15.69268">
				<ele>230.68</ele>
				<time>2025-07-29T03:45:48.992Z</time>
			</trkpt>
			<trkpt lat="48.53768" lon="15.69259">
				<ele>227.95</ele>
				<time>2025-07-29T03:45:53.507Z</time>
			</trkpt>
			<trkpt lat="48.53828" lon="15.69257">
				<ele>227.64</ele>
				<time>2025-07-29T03:45:57.093Z</time>
			</trkpt>
			<trkpt lat="48.53867" lon="15.69259">
				<ele>225.02</ele>
				<time>2025-07-29T03:45:59.416Z</time>
			</trkpt>
			<trkpt lat="48.53926" lon="15.69273">
				<ele>226.72</ele>
				<time>2025-07-29T03:46:02.961Z</time>
			</trkpt>
			<trkpt lat="48.53972" lon="15.6929">
				<ele>228.26</ele>
				<time>2025-07-29T03:46:05.763Z</time>
			</trkpt>
			<trkpt lat="48.54" lon="15.69303">
				<ele>228.56</ele>
				<time>2025-07-29T03:46:07.491Z</time>
			</trkpt>
			<trkpt lat="48.54028" lon="15.6932">
				<ele>230.66</ele>
				<time>2025-07-29T03:46:09.269Z</time>
			</trkpt>
			<trkpt lat="48.54113" lon="15.69381">
				<ele>228.43</ele>
				<time>2025-07-29T03:46:14.790Z</time>
			</trkpt>
			<trkpt lat="48.54136" lon="15.69394">
				<ele>225.65</ele>
				<time>2025-07-29T03:46:16.226Z</time>
			</trkpt>
			<trkpt lat="48.54167" lon="15.69407">
				<ele>223.7</ele>
				<time>2025-07-29T03:46:18.103Z</time>
			</trkpt>
			<trkpt lat="48.54194" lon="15.69415">
				<ele>223.89</ele>
				<time>2025-07-29T03:46:19.706Z</time>
			</trkpt>
			<trkpt lat="48.54221" lon="15.69415">
				<ele>222.97</ele>
				<time>2025-07-29T03:46:21.276Z</time>
			</trkpt>
			<trkpt lat="48.54258" lon="15.69407">
				<ele>226.05</ele>
				<time>2025-07-29T03:46:23.445Z</time>
			</trkpt>
			<trkpt lat="48.54274" lon="15.69486">
				<ele>235.33</ele>
				<time>2025-07-29T03:46:26.611Z</time>
			</trkpt>
			<trkpt lat="48.54273" lon="15.69525">
				<ele>237.27</ele>
				<time>2025-07-29T03:46:28.103Z</time>
			</trkpt>
			<trkpt lat="48.54283" lon="15.69559">
				<ele>241.55</ele>
				<time>2025-07-29T03:46:29.524Z</time>
			</trkpt>
			<trkpt lat="48.54322" lon="15.69616">
				<ele>249.69</ele>
				<time>2025-07-29T03:46:32.646Z</time>
			</trkpt>
			<trkpt lat="48.54366" lon="15.69688">
				<ele>253.38</ele>
				<time>2025-07-29T03:46:36.366Z</time>
			</trkpt>
			<trkpt lat="48.5437" lon="15.69705">
				<ele>253.99</ele>
				<time>2025-07-29T03:46:37.049Z</time>
			</trkpt>
			<trkpt lat="48.54372" lon="15.69733">
				<ele>253.64</ele>
				<time>2025-07-29T03:46:38.115Z</time>
			</trkpt>
			<trkpt lat="48.54378" lon="15.69756">
				<ele>255.57</ele>
				<time>2025-07-29T03:46:39.050Z</time>
			</trkpt>
			<trkpt lat="48.54388" lon="15.69775">
				<ele>257.93</ele>
				<time>2025-07-29T03:46:39.967Z</time>
			</trkpt>
			<trkpt lat="48.54443" lon="15.69797">
				<ele>269.52</ele>
				<time>2025-07-29T03:46:43.207Z</time>
			</trkpt>
			<trkpt lat="48.54451" lon="15.69806">
				<ele>271.62</ele>
				<time>2025-07-29T03:46:43.774Z</time>
			</trkpt>
			<trkpt lat="48.54455" lon="15.69817">
				<ele>273.05</ele>
				<time>2025-07-29T03:46:44.246Z</time>
			</trkpt>
			<trkpt lat="48.54451" lon="15.6983">
				<ele>273.06</ele>
				<time>2025-07-29T03:46:44.785Z</time>
			</trkpt>
			<trkpt lat="48.54425" lon="15.6985">
				<ele>268.44</ele>
				<time>2025-07-29T03:46:46.440Z</time>
			</trkpt>
			<trkpt lat="48.54419" lon="15.69859">
				<ele>267.62</ele>
				<time>2025-07-29T03:46:46.919Z</time>
			</trkpt>
			<trkpt lat="48.54418" lon="15.69872">
				<ele>267.69</ele>
				<time>2025-07-29T03:46:47.410Z</time>
			</trkpt>
			<trkpt lat="48.54426" lon="15.69901">
				<ele>269.9</ele>
				<time>2025-07-29T03:46:48.587Z</time>
			</trkpt>
			<trkpt lat="48.54434" lon="15.69913">
				<ele>271.3</ele>
				<time>2025-07-29T03:46:49.225Z</time>
			</trkpt>
			<trkpt lat="48.54454" lon="15.69925">
				<ele>275.17</ele>
				<time>2025-07-29T03:46:50.441Z</time>
			</trkpt>
			<trkpt lat="48.54529" lon="15.69951">
				<ele>282</ele>
				<time>2025-07-29T03:46:54.778Z</time>
			</trkpt>
			<trkpt lat="48.54554" lon="15.69965">
				<ele>285.12</ele>
				<time>2025-07-29T03:46:56.277Z</time>
			</trkpt>
			<trkpt lat="48.54569" lon="15.69981">
				<ele>286.94</ele>
				<time>2025-07-29T03:46:57.308Z</time>
			</trkpt>
			<trkpt lat="48.54598" lon="15.70034">
				<ele>293.08</ele>
				<time>2025-07-29T03:46:59.860Z</time>
			</trkpt>
			<trkpt lat="48.54661" lon="15.70177">
				<ele>303.79</ele>
				<time>2025-07-29T03:47:06.210Z</time>
			</trkpt>
			<trkpt lat="48.54676" lon="15.70197">
				<ele>306.53</ele>
				<time>2025-07-29T03:47:07.324Z</time>
			</trkpt>
			<trkpt lat="48.54706" lon="15.70213">
				<ele>309.7</ele>
				<time>2025-07-29T03:47:09.093Z</time>
			</trkpt>
			<trkpt lat="48.54792" lon="15.7024">
				<ele>317.57</ele>
				<time>2025-07-29T03:47:13.963Z</time>
			</trkpt>
			<trkpt lat="48.54854" lon="15.7027">
				<ele>320</ele>
				<time>2025-07-29T03:47:17.555Z</time>
			</trkpt>
			<trkpt lat="48.54882" lon="15.70289">
				<ele>320.44</ele>
				<time>2025-07-29T03:47:19.230Z</time>
			</trkpt>
			<trkpt lat="48.54956" lon="15.70349">
				<ele>318.12</ele>
				<time>2025-07-29T03:47:23.746Z</time>
			</trkpt>
			<trkpt lat="48.54999" lon="15.70379">
				<ele>318</ele>
				<time>2025-07-29T03:47:26.250Z</time>
			</trkpt>
			<trkpt lat="48.55085" lon="15.70432">
				<ele>315.67</ele>
				<time>2025-07-29T03:47:31.074Z</time>
			</trkpt>
			<trkpt lat="48.55189" lon="15.70486">
				<ele>310.8</ele>
				<time>2025-07-29T03:47:36.646Z</time>
			</trkpt>
			<trkpt lat="48.55243" lon="15.70517">
				<ele>309.73</ele>
				<time>2025-07-29T03:47:39.516Z</time>
			</trkpt>
			<trkpt lat="48.5534" lon="15.70566">
				<ele>306.84</ele>
				<time>2025-07-29T03:47:44.507Z</time>
			</trkpt>
			<trkpt lat="48.55357" lon="15.70584">
				<ele>307.04</ele>
				<time>2025-07-29T03:47:45.507Z</time>
			</trkpt>
			<trkpt lat="48.5537" lon="15.70609">
				<ele>308.88</ele>
				<time>2025-07-29T03:47:46.516Z</time>
			</trkpt>
			<trkpt lat="48.55418" lon="15.70723">
				<ele>318.17</ele>
				<time>2025-07-29T03:47:50.757Z</time>
			</trkpt>
			<trkpt lat="48.55433" lon="15.70752">
				<ele>320.17</ele>
				<time>2025-07-29T03:47:51.900Z</time>
			</trkpt>
			<trkpt lat="48.55447" lon="15.70771">
				<ele>321.07</ele>
				<time>2025-07-29T03:47:52.779Z</time>
			</trkpt>
			<trkpt lat="48.55459" lon="15.70783">
				<ele>321.74</ele>
				<time>2025-07-29T03:47:53.449Z</time>
			</trkpt>
			<trkpt lat="48.55473" lon="15.70794">
				<ele>322.6</ele>
				<time>2025-07-29T03:47:54.181Z</time>
			</trkpt>
			<trkpt lat="48.55521" lon="15.7082">
				<ele>321.97</ele>
				<time>2025-07-29T03:47:56.534Z</time>
			</trkpt>
			<trkpt lat="48.55535" lon="15.70836">
				<ele>321.17</ele>
				<time>2025-07-29T03:47:57.340Z</time>
			</trkpt>
			<trkpt lat="48.5558" lon="15.7091">
				<ele>316.03</ele>
				<time>2025-07-29T03:48:00.369Z</time>
			</trkpt>
			<trkpt lat="48.55629" lon="15.7101">
				<ele>315.14</ele>
				<time>2025-07-29T03:48:04.076Z</time>
			</trkpt>
			<trkpt lat="48.55655" lon="15.71069">
				<ele>314.62</ele>
				<time>2025-07-29T03:48:06.167Z</time>
			</trkpt>
			<trkpt lat="48.55675" lon="15.71108">
				<ele>313.25</ele>
				<time>2025-07-29T03:48:07.615Z</time>
			</trkpt>
			<trkpt lat="48.55695" lon="15.71134">
				<ele>310.69</ele>
				<time>2025-07-29T03:48:08.780Z</time>
			</trkpt>
			<trkpt lat="48.55709" lon="15.71156">
				<ele>310.92</ele>
				<time>2025-07-29T03:48:09.669Z</time>
			</trkpt>
			<trkpt lat="48.55733" lon="15.71218">
				<ele>309.8</ele>
				<time>2025-07-29T03:48:11.753Z</time>
			</trkpt>
			<trkpt lat="48.55738" lon="15.71258">
				<ele>308.65</ele>
				<time>2025-07-29T03:48:12.929Z</time>
			</trkpt>
			<trkpt lat="48.55743" lon="15.71327">
				<ele>310.04</ele>
				<time>2025-07-29T03:48:14.926Z</time>
			</trkpt>
			<trkpt lat="48.55743" lon="15.71408">
				<ele>310.6</ele>
				<time>2025-07-29T03:48:17.245Z</time>
			</trkpt>
			<trkpt lat="48.55749" lon="15.71463">
				<ele>307.17</ele>
				<time>2025-07-29T03:48:18.834Z</time>
			</trkpt>
			<trkpt lat="48.55756" lon="15.71493">
				<ele>306.86</ele>
				<time>2025-07-29T03:48:19.739Z</time>
			</trkpt>
			<trkpt lat="48.55765" lon="15.71511">
				<ele>305.75</ele>
				<time>2025-07-29T03:48:20.379Z</time>
			</trkpt>
			<trkpt lat="48.55777" lon="15.71527">
				<ele>303.02</ele>
				<time>2025-07-29T03:48:21.065Z</time>
			</trkpt>
			<trkpt lat="48.55794" lon="15.71538">
				<ele>301.72</ele>
				<time>2025-07-29T03:48:21.857Z</time>
			</trkpt>
			<trkpt lat="48.55805" lon="15.71541">
				<ele>300.49</ele>
				<time>2025-07-29T03:48:22.334Z</time>
			</trkpt>
			<trkpt lat="48.55817" lon="15.71539">
				<ele>301.7</ele>
				<time>2025-07-29T03:48:22.850Z</time>
			</trkpt>
			<trkpt lat="48.55828" lon="15.71536">
				<ele>302.76</ele>
				<time>2025-07-29T03:48:23.327Z</time>
			</trkpt>
			<trkpt lat="48.55838" lon="15.71528">
				<ele>303.59</ele>
				<time>2025-07-29T03:48:23.810Z</time>
			</trkpt>
			<trkpt lat="48.55857" lon="15.71496">
				<ele>304.64</ele>
				<time>2025-07-29T03:48:25.022Z</time>
			</trkpt>
			<trkpt lat="48.5596" lon="15.71284">
				<ele>315.13</ele>
				<time>2025-07-29T03:48:32.401Z</time>
			</trkpt>
			<trkpt lat="48.55978" lon="15.71261">
				<ele>316.69</ele>
				<time>2025-07-29T03:48:33.397Z</time>
			</trkpt>
			<trkpt lat="48.56003" lon="15.71246">
				<ele>317.45</ele>
				<time>2025-07-29T03:48:34.533Z</time>
			</trkpt>
			<trkpt lat="48.56031" lon="15.71237">
				<ele>320.32</ele>
				<time>2025-07-29T03:48:35.742Z</time>
			</trkpt>
			<trkpt lat="48.56068" lon="15.71236">
				<ele>323.7</ele>
				<time>2025-07-29T03:48:37.304Z</time>
			</trkpt>
			<trkpt lat="48.56135" lon="15.71238">
				<ele>328.77</ele>
				<time>2025-07-29T03:48:40.134Z</time>
			</trkpt>
			<trkpt lat="48.56201" lon="15.71251">
				<ele>329.93</ele>
				<time>2025-07-29T03:48:42.948Z</time>
			</trkpt>
			<trkpt lat="48.56294" lon="15.71263">
				<ele>329.91</ele>
				<time>2025-07-29T03:48:46.903Z</time>
			</trkpt>
			<trkpt lat="48.56358" lon="15.71287">
				<ele>331.67</ele>
				<time>2025-07-29T03:48:49.708Z</time>
			</trkpt>
			<trkpt lat="48.56511" lon="15.71363">
				<ele>323.6</ele>
				<time>2025-07-29T03:48:56.610Z</time>
			</trkpt>
			<trkpt lat="48.56522" lon="15.71371">
				<ele>323.19</ele>
				<time>2025-07-29T03:48:57.137Z</time>
			</trkpt>
			<trkpt lat="48.56586" lon="15.71439">
				<ele>320.9</ele>
				<time>2025-07-29T03:49:00.530Z</time>
			</trkpt>
			<trkpt lat="48.56488" lon="15.71565">
				<ele>324.6</ele>
				<time>2025-07-29T03:49:06.174Z</time>
			</trkpt>
			<trkpt lat="48.5637" lon="15.7181">
				<ele>335.84</ele>
				<time>2025-07-29T03:49:15.171Z</time>
			</trkpt>
			<trkpt lat="48.56342" lon="15.71888">
				<ele>339.32</ele>
				<time>2025-07-29T03:49:17.861Z</time>
			</trkpt>
			<trkpt lat="48.5633" lon="15.71932">
				<ele>343.35</ele>
				<time>2025-07-29T03:49:19.315Z</time>
			</trkpt>
			<trkpt lat="48.56296" lon="15.72017">
				<ele>348.7</ele>
				<time>2025-07-29T03:49:22.376Z</time>
			</trkpt>
			<trkpt lat="48.56282" lon="15.7206">
				<ele>351.84</ele>
				<time>2025-07-29T03:49:23.867Z</time>
			</trkpt>
			<trkpt lat="48.5626" lon="15.7215">
				<ele>358.5</ele>
				<time>2025-07-29T03:49:26.880Z</time>
			</trkpt>
			<trkpt lat="48.5625" lon="15.72197">
				<ele>365.36</ele>
				<time>2025-07-29T03:49:28.445Z</time>
			</trkpt>
			<trkpt lat="48.56246" lon="15.7224">
				<ele>370.84</ele>
				<time>2025-07-29T03:49:29.831Z</time>
			</trkpt>
			<trkpt lat="48.56247" lon="15.72258">
				<ele>371.83</ele>
				<time>2025-07-29T03:49:30.410Z</time>
			</trkpt>
			<trkpt lat="48.5625" lon="15.72279">
				<ele>372.02</ele>
				<time>2025-07-29T03:49:31.100Z</time>
			</trkpt>
			<trkpt lat="48.56312" lon="15.72364">
				<ele>375.1</ele>
				<time>2025-07-29T03:49:35.210Z</time>
			</trkpt>
			<trkpt lat="48.5637" lon="15.72409">
				<ele>378.82</ele>
				<time>2025-07-29T03:49:38.465Z</time>
			</trkpt>
			<trkpt lat="48.56381" lon="15.72424">
				<ele>380.08</ele>
				<time>2025-07-29T03:49:39.211Z</time>
			</trkpt>
			<trkpt lat="48.56393" lon="15.72442">
				<ele>381.31</ele>
				<time>2025-07-29T03:49:40.067Z</time>
			</trkpt>
			<trkpt lat="48.56434" lon="15.72555">
				<ele>392.78</ele>
				<time>2025-07-29T03:49:44.434Z</time>
			</trkpt>
			<trkpt lat="48.56451" lon="15.72584">
				<ele>395.59</ele>
				<time>2025-07-29T03:49:45.765Z</time>
			</trkpt>
			<trkpt lat="48.56655" lon="15.72764">
				<ele>395.7</ele>
				<time>2025-07-29T03:49:58.434Z</time>
			</trkpt>
			<trkpt lat="48.56705" lon="15.72828">
				<ele>397.51</ele>
				<time>2025-07-29T03:50:02.063Z</time>
			</trkpt>
			<trkpt lat="48.56771" lon="15.73002">
				<ele>393.46</ele>
				<time>2025-07-29T03:50:09.541Z</time>
			</trkpt>
			<trkpt lat="48.56781" lon="15.73043">
				<ele>394.05</ele>
				<time>2025-07-29T03:50:11.191Z</time>
			</trkpt>
			<trkpt lat="48.56767" lon="15.731">
				<ele>399.31</ele>
				<time>2025-07-29T03:50:13.497Z</time>
			</trkpt>
			<trkpt lat="48.56764" lon="15.7313">
				<ele>399.57</ele>
				<time>2025-07-29T03:50:14.652Z</time>
			</trkpt>
			<trkpt lat="48.56765" lon="15.73138">
				<ele>399.2</ele>
				<time>2025-07-29T03:50:14.963Z</time>
			</trkpt>
			<trkpt lat="48.56769" lon="15.73147">
				<ele>398.06</ele>
				<time>2025-07-29T03:50:15.377Z</time>
			</trkpt>
			<trkpt lat="48.56781" lon="15.73163">
				<ele>394.72</ele>
				<time>2025-07-29T03:50:16.301Z</time>
			</trkpt>
			<trkpt lat="48.56831" lon="15.73172">
				<ele>389.62</ele>
				<time>2025-07-29T03:50:19.220Z</time>
			</trkpt>
			<trkpt lat="48.56868" lon="15.73195">
				<ele>387.73</ele>
				<time>2025-07-29T03:50:21.550Z</time>
			</trkpt>
			<trkpt lat="48.5686" lon="15.73249">
				<ele>387.01</ele>
				<time>2025-07-29T03:50:23.690Z</time>
			</trkpt>
			<trkpt lat="48.56846" lon="15.73428">
				<ele>388.87</ele>
				<time>2025-07-29T03:50:30.704Z</time>
			</trkpt>
			<trkpt lat="48.56805" lon="15.73601">
				<ele>400.64</ele>
				<time>2025-07-29T03:50:37.904Z</time>
			</trkpt>
			<trkpt lat="48.5678" lon="15.73688">
				<ele>411.66</ele>
				<time>2025-07-29T03:50:41.631Z</time>
			</trkpt>
			<trkpt lat="48.56765" lon="15.73727">
				<ele>416.23</ele>
				<time>2025-07-29T03:50:43.406Z</time>
			</trkpt>
			<trkpt lat="48.56745" lon="15.73753">
				<ele>418.64</ele>
				<time>2025-07-29T03:50:44.974Z</time>
			</trkpt>
			<trkpt lat="48.56727" lon="15.73782">
				<ele>422.6</ele>
				<time>2025-07-29T03:50:46.539Z</time>
			</trkpt>
			<trkpt lat="48.56675" lon="15.73975">
				<ele>429.99</ele>
				<time>2025-07-29T03:50:54.730Z</time>
			</trkpt>
			<trkpt lat="48.56658" lon="15.7403">
				<ele>432.31</ele>
				<time>2025-07-29T03:50:57.110Z</time>
			</trkpt>
			<trkpt lat="48.56632" lon="15.74103">
				<ele>433.46</ele>
				<time>2025-07-29T03:51:00.354Z</time>
			</trkpt>
			<trkpt lat="48.56621" lon="15.7414">
				<ele>432.57</ele>
				<time>2025-07-29T03:51:01.938Z</time>
			</trkpt>
			<trkpt lat="48.56615" lon="15.74174">
				<ele>432</ele>
				<time>2025-07-29T03:51:03.310Z</time>
			</trkpt>
			<trkpt lat="48.566" lon="15.7433">
				<ele>433.16</ele>
				<time>2025-07-29T03:51:09.426Z</time>
			</trkpt>
			<trkpt lat="48.56594" lon="15.74365">
				<ele>433.25</ele>
				<time>2025-07-29T03:51:10.821Z</time>
			</trkpt>
			<trkpt lat="48.56585" lon="15.744">
				<ele>432.87</ele>
				<time>2025-07-29T03:51:12.267Z</time>
			</trkpt>
			<trkpt lat="48.56554" lon="15.74487">
				<ele>435.01</ele>
				<time>2025-07-29T03:51:16.052Z</time>
			</trkpt>
			<trkpt lat="48.56523" lon="15.74604">
				<ele>431.6</ele>
				<time>2025-07-29T03:51:20.831Z</time>
			</trkpt>
			<trkpt lat="48.56517" lon="15.74619">
				<ele>430.73</ele>
				<time>2025-07-29T03:51:21.490Z</time>
			</trkpt>
			<trkpt lat="48.56498" lon="15.74658">
				<ele>428.29</ele>
				<time>2025-07-29T03:51:23.305Z</time>
			</trkpt>
			<trkpt lat="48.56486" lon="15.7469">
				<ele>427.57</ele>
				<time>2025-07-29T03:51:24.677Z</time>
			</trkpt>
			<trkpt lat="48.56472" lon="15.74736">
				<ele>427</ele>
				<time>2025-07-29T03:51:26.559Z</time>
			</trkpt>
			<trkpt lat="48.56464" lon="15.74776">
				<ele>427</ele>
				<time>2025-07-29T03:51:28.105Z</time>
			</trkpt>
			<trkpt lat="48.56458" lon="15.74819">
				<ele>426.25</ele>
				<time>2025-07-29T03:51:29.725Z</time>
			</trkpt>
			<trkpt lat="48.56451" lon="15.74989">
				<ele>427.92</ele>
				<time>2025-07-29T03:51:35.954Z</time>
			</trkpt>
			<trkpt lat="48.56448" lon="15.75023">
				<ele>427.85</ele>
				<time>2025-07-29T03:51:37.200Z</time>
			</trkpt>
			<trkpt lat="48.56434" lon="15.75096">
				<ele>427</ele>
				<time>2025-07-29T03:51:39.954Z</time>
			</trkpt>
			<trkpt lat="48.56426" lon="15.75142">
				<ele>427.67</ele>
				<time>2025-07-29T03:51:41.673Z</time>
			</trkpt>
			<trkpt lat="48.56422" lon="15.75178">
				<ele>428</ele>
				<time>2025-07-29T03:51:42.990Z</time>
			</trkpt>
			<trkpt lat="48.56405" lon="15.75419">
				<ele>429</ele>
				<time>2025-07-29T03:51:51.712Z</time>
			</trkpt>
			<trkpt lat="48.564" lon="15.75462">
				<ele>429.26</ele>
				<time>2025-07-29T03:51:53.282Z</time>
			</trkpt>
			<trkpt lat="48.56385" lon="15.75534">
				<ele>429.9</ele>
				<time>2025-07-29T03:51:55.999Z</time>
			</trkpt>
			<trkpt lat="48.56369" lon="15.75581">
				<ele>430</ele>
				<time>2025-07-29T03:51:57.903Z</time>
			</trkpt>
			<trkpt lat="48.56295" lon="15.7573">
				<ele>432.1</ele>
				<time>2025-07-29T03:52:04.645Z</time>
			</trkpt>
			<trkpt lat="48.56315" lon="15.75755">
				<ele>432</ele>
				<time>2025-07-29T03:52:06.073Z</time>
			</trkpt>
			<trkpt lat="48.56346" lon="15.75801">
				<ele>432.86</ele>
				<time>2025-07-29T03:52:08.470Z</time>
			</trkpt>
			<trkpt lat="48.56382" lon="15.75873">
				<ele>434</ele>
				<time>2025-07-29T03:52:11.782Z</time>
			</trkpt>
			<trkpt lat="48.56405" lon="15.75906">
				<ele>435.21</ele>
				<time>2025-07-29T03:52:13.551Z</time>
			</trkpt>
			<trkpt lat="48.56424" lon="15.75929">
				<ele>437</ele>
				<time>2025-07-29T03:52:14.914Z</time>
			</trkpt>
			<trkpt lat="48.56463" lon="15.75964">
				<ele>439</ele>
				<time>2025-07-29T03:52:17.466Z</time>
			</trkpt>
			<trkpt lat="48.56488" lon="15.75992">
				<ele>439.13</ele>
				<time>2025-07-29T03:52:19.227Z</time>
			</trkpt>
			<trkpt lat="48.56517" lon="15.76012">
				<ele>438.23</ele>
				<time>2025-07-29T03:52:21.041Z</time>
			</trkpt>
			<trkpt lat="48.56676" lon="15.76099">
				<ele>439.72</ele>
				<time>2025-07-29T03:52:30.840Z</time>
			</trkpt>
			<trkpt lat="48.56725" lon="15.7613">
				<ele>439.26</ele>
				<time>2025-07-29T03:52:33.990Z</time>
			</trkpt>
			<trkpt lat="48.56771" lon="15.76166">
				<ele>437.24</ele>
				<time>2025-07-29T03:52:37.099Z</time>
			</trkpt>
			<trkpt lat="48.56853" lon="15.76256">
				<ele>435.2</ele>
				<time>2025-07-29T03:52:43.297Z</time>
			</trkpt>
			<trkpt lat="48.56952" lon="15.76349">
				<ele>433.11</ele>
				<time>2025-07-29T03:52:50.636Z</time>
			</trkpt>
			<trkpt lat="48.56977" lon="15.76379">
				<ele>433</ele>
				<time>2025-07-29T03:52:52.689Z</time>
			</trkpt>
			<trkpt lat="48.57" lon="15.76417">
				<ele>433</ele>
				<time>2025-07-29T03:52:54.901Z</time>
			</trkpt>
			<trkpt lat="48.5702" lon="15.76464">
				<ele>432.82</ele>
				<time>2025-07-29T03:52:57.328Z</time>
			</trkpt>
			<trkpt lat="48.57042" lon="15.7652">
				<ele>432.51</ele>
				<time>2025-07-29T03:53:00.191Z</time>
			</trkpt>
			<trkpt lat="48.57059" lon="15.76579">
				<ele>432.97</ele>
				<time>2025-07-29T03:53:03.069Z</time>
			</trkpt>
			<trkpt lat="48.57089" lon="15.76644">
				<ele>431.92</ele>
				<time>2025-07-29T03:53:06.719Z</time>
			</trkpt>
			<trkpt lat="48.57106" lon="15.76668">
				<ele>431.41</ele>
				<time>2025-07-29T03:53:08.374Z</time>
			</trkpt>
			<trkpt lat="48.57227" lon="15.76813">
				<ele>430.71</ele>
				<time>2025-07-29T03:53:19.859Z</time>
			</trkpt>
			<trkpt lat="48.57242" lon="15.76822">
				<ele>430.38</ele>
				<time>2025-07-29T03:53:21.104Z</time>
			</trkpt>
			<trkpt lat="48.5727" lon="15.76829">
				<ele>430.04</ele>
				<time>2025-07-29T03:53:23.309Z</time>
			</trkpt>
			<trkpt lat="48.5728" lon="15.7682">
				<ele>430.11</ele>
				<time>2025-07-29T03:53:24.220Z</time>
			</trkpt>
			<trkpt lat="48.57351" lon="15.76784">
				<ele>430</ele>
				<time>2025-07-29T03:53:30.157Z</time>
			</trkpt>
			<trkpt lat="48.57448" lon="15.76744">
				<ele>434.14</ele>
				<time>2025-07-29T03:53:38.303Z</time>
			</trkpt>
			<trkpt lat="48.57476" lon="15.76737">
				<ele>435</ele>
				<time>2025-07-29T03:53:40.630Z</time>
			</trkpt>
			<trkpt lat="48.5749" lon="15.76737">
				<ele>435</ele>
				<time>2025-07-29T03:53:41.782Z</time>
			</trkpt>
			<trkpt lat="48.57559" lon="15.7675">
				<ele>430.72</ele>
				<time>2025-07-29T03:53:47.532Z</time>
			</trkpt>
			<trkpt lat="48.57602" lon="15.76751">
				<ele>427.62</ele>
				<time>2025-07-29T03:53:51.105Z</time>
			</trkpt>
			<trkpt lat="48.57669" lon="15.76739">
				<ele>424.35</ele>
				<time>2025-07-29T03:53:56.724Z</time>
			</trkpt>
			<trkpt lat="48.5771" lon="15.76725">
				<ele>422.32</ele>
				<time>2025-07-29T03:54:00.224Z</time>
			</trkpt>
			<trkpt lat="48.57738" lon="15.7671">
				<ele>421.16</ele>
				<time>2025-07-29T03:54:02.694Z</time>
			</trkpt>
			<trkpt lat="48.57761" lon="15.76695">
				<ele>421.44</ele>
				<time>2025-07-29T03:54:04.774Z</time>
			</trkpt>
			<trkpt lat="48.57859" lon="15.76619">
				<ele>422.76</ele>
				<time>2025-07-29T03:54:13.853Z</time>
			</trkpt>
			<trkpt lat="48.57924" lon="15.76548">
				<ele>426.25</ele>
				<time>2025-07-29T03:54:20.361Z</time>
			</trkpt>
			<trkpt lat="48.57946" lon="15.7653">
				<ele>426.79</ele>
				<time>2025-07-29T03:54:22.367Z</time>
			</trkpt>
			<trkpt lat="48.58228" lon="15.76411">
				<ele>419.14</ele>
				<time>2025-07-29T03:54:44.697Z</time>
			</trkpt>
			<trkpt lat="48.58284" lon="15.76394">
				<ele>419.74</ele>
				<time>2025-07-29T03:54:48.911Z</time>
			</trkpt>
			<trkpt lat="48.58328" lon="15.76386">
				<ele>420.1</ele>
				<time>2025-07-29T03:54:52.182Z</time>
			</trkpt>
			<trkpt lat="48.58355" lon="15.76385">
				<ele>420.82</ele>
				<time>2025-07-29T03:54:54.175Z</time>
			</trkpt>
			<trkpt lat="48.58367" lon="15.76387">
				<ele>421</ele>
				<time>2025-07-29T03:54:55.065Z</time>
			</trkpt>
			<trkpt lat="48.58617" lon="15.76481">
				<ele>413.53</ele>
				<time>2025-07-29T03:55:14.028Z</time>
			</trkpt>
			<trkpt lat="48.5876" lon="15.76557">
				<ele>415.59</ele>
				<time>2025-07-29T03:55:25.102Z</time>
			</trkpt>
			<trkpt lat="48.58771" lon="15.76559">
				<ele>415.19</ele>
				<time>2025-07-29T03:55:25.908Z</time>
			</trkpt>
			<trkpt lat="48.58786" lon="15.76557">
				<ele>415.29</ele>
				<time>2025-07-29T03:55:27.002Z</time>
			</trkpt>
			<trkpt lat="48.58805" lon="15.76547">
				<ele>415.98</ele>
				<time>2025-07-29T03:55:28.462Z</time>
			</trkpt>
			<trkpt lat="48.58829" lon="15.76517">
				<ele>416.85</ele>
				<time>2025-07-29T03:55:30.718Z</time>
			</trkpt>
			<trkpt lat="48.58848" lon="15.76499">
				<ele>417</ele>
				<time>2025-07-29T03:55:32.339Z</time>
			</trkpt>
			<trkpt lat="48.58873" lon="15.7648">
				<ele>416.56</ele>
				<time>2025-07-29T03:55:34.358Z</time>
			</trkpt>
			<trkpt lat="48.5889" lon="15.76471">
				<ele>415.92</ele>
				<time>2025-07-29T03:55:35.655Z</time>
			</trkpt>
			<trkpt lat="48.58935" lon="15.76463">
				<ele>417.36</ele>
				<time>2025-07-29T03:55:38.910Z</time>
			</trkpt>
			<trkpt lat="48.59013" lon="15.76454">
				<ele>422.07</ele>
				<time>2025-07-29T03:55:44.497Z</time>
			</trkpt>
			<trkpt lat="48.59116" lon="15.76452">
				<ele>431.49</ele>
				<time>2025-07-29T03:55:51.785Z</time>
			</trkpt>
			<trkpt lat="48.59219" lon="15.76467">
				<ele>428.27</ele>
				<time>2025-07-29T03:55:59.018Z</time>
			</trkpt>
			<trkpt lat="48.59278" lon="15.76326">
				<ele>425.99</ele>
				<time>2025-07-29T03:56:06.621Z</time>
			</trkpt>
			<trkpt lat="48.59289" lon="15.76333">
				<ele>425.98</ele>
				<time>2025-07-29T03:56:07.435Z</time>
			</trkpt>
			<trkpt lat="48.59299" lon="15.76337">
				<ele>425.89</ele>
				<time>2025-07-29T03:56:08.140Z</time>
			</trkpt>
			<trkpt lat="48.59308" lon="15.76336">
				<ele>425.79</ele>
				<time>2025-07-29T03:56:08.754Z</time>
			</trkpt>
			<trkpt lat="48.59321" lon="15.7633">
				<ele>425.36</ele>
				<time>2025-07-29T03:56:09.678Z</time>
			</trkpt>
			<trkpt lat="48.59341" lon="15.76314">
				<ele>425</ele>
				<time>2025-07-29T03:56:11.210Z</time>
			</trkpt>
			<trkpt lat="48.59361" lon="15.7629">
				<ele>424.44</ele>
				<time>2025-07-29T03:56:12.933Z</time>
			</trkpt>
			<trkpt lat="48.59417" lon="15.76215">
				<ele>422</ele>
				<time>2025-07-29T03:56:17.937Z</time>
			</trkpt>
			<trkpt lat="48.59437" lon="15.7619">
				<ele>421.87</ele>
				<time>2025-07-29T03:56:19.657Z</time>
			</trkpt>
			<trkpt lat="48.59454" lon="15.76175">
				<ele>420.95</ele>
				<time>2025-07-29T03:56:20.956Z</time>
			</trkpt>
			<trkpt lat="48.59652" lon="15.76033">
				<ele>414.81</ele>
				<time>2025-07-29T03:56:35.071Z</time>
			</trkpt>
			<trkpt lat="48.59893" lon="15.75905">
				<ele>409.1</ele>
				<time>2025-07-29T03:56:50.621Z</time>
			</trkpt>
			<trkpt lat="48.59973" lon="15.75865">
				<ele>408.78</ele>
				<time>2025-07-29T03:56:55.510Z</time>
			</trkpt>
			<trkpt lat="48.6008" lon="15.75829">
				<ele>404.01</ele>
				<time>2025-07-29T03:57:01.520Z</time>
			</trkpt>
			<trkpt lat="48.60116" lon="15.75818">
				<ele>405</ele>
				<time>2025-07-29T03:57:03.338Z</time>
			</trkpt>
			<trkpt lat="48.60156" lon="15.75811">
				<ele>404.86</ele>
				<time>2025-07-29T03:57:05.431Z</time>
			</trkpt>
			<trkpt lat="48.60182" lon="15.75811">
				<ele>404.2</ele>
				<time>2025-07-29T03:57:06.801Z</time>
			</trkpt>
			<trkpt lat="48.60385" lon="15.75842">
				<ele>401.95</ele>
				<time>2025-07-29T03:57:17.119Z</time>
			</trkpt>
			<trkpt lat="48.60474" lon="15.75859">
				<ele>404</ele>
				<time>2025-07-29T03:57:21.467Z</time>
			</trkpt>
			<trkpt lat="48.60548" lon="15.75879">
				<ele>404.49</ele>
				<time>2025-07-29T03:57:25.052Z</time>
			</trkpt>
			<trkpt lat="48.6062" lon="15.75907">
				<ele>404</ele>
				<time>2025-07-29T03:57:28.563Z</time>
			</trkpt>
			<trkpt lat="48.60713" lon="15.75947">
				<ele>402.28</ele>
				<time>2025-07-29T03:57:33.105Z</time>
			</trkpt>
			<trkpt lat="48.60772" lon="15.75979">
				<ele>401.78</ele>
				<time>2025-07-29T03:57:36.052Z</time>
			</trkpt>
			<trkpt lat="48.60914" lon="15.76071">
				<ele>401.07</ele>
				<time>2025-07-29T03:57:43.388Z</time>
			</trkpt>
			<trkpt lat="48.61162" lon="15.76236">
				<ele>402.23</ele>
				<time>2025-07-29T03:57:56.891Z</time>
			</trkpt>
			<trkpt lat="48.61165" lon="15.76229">
				<ele>402.08</ele>
				<time>2025-07-29T03:57:57.179Z</time>
			</trkpt>
			<trkpt lat="48.61176" lon="15.76217">
				<ele>402.05</ele>
				<time>2025-07-29T03:57:57.889Z</time>
			</trkpt>
			<trkpt lat="48.61269" lon="15.76141">
				<ele>401</ele>
				<time>2025-07-29T03:58:03.565Z</time>
			</trkpt>
			<trkpt lat="48.61305" lon="15.76124">
				<ele>401</ele>
				<time>2025-07-29T03:58:05.656Z</time>
			</trkpt>
			<trkpt lat="48.61311" lon="15.76117">
				<ele>401.16</ele>
				<time>2025-07-29T03:58:06.081Z</time>
			</trkpt>
			<trkpt lat="48.61324" lon="15.76088">
				<ele>402.25</ele>
				<time>2025-07-29T03:58:07.389Z</time>
			</trkpt>
			<trkpt lat="48.61329" lon="15.76069">
				<ele>402.81</ele>
				<time>2025-07-29T03:58:08.160Z</time>
			</trkpt>
			<trkpt lat="48.61334" lon="15.76043">
				<ele>403.45</ele>
				<time>2025-07-29T03:58:09.188Z</time>
			</trkpt>
			<trkpt lat="48.6134" lon="15.7603">
				<ele>404.14</ele>
				<time>2025-07-29T03:58:09.795Z</time>
			</trkpt>
			<trkpt lat="48.61345" lon="15.76033">
				<ele>404.21</ele>
				<time>2025-07-29T03:58:10.107Z</time>
			</trkpt>
			<trkpt lat="48.61457" lon="15.76033">
				<ele>409.28</ele>
				<time>2025-07-29T03:58:16.821Z</time>
			</trkpt>
			<trkpt lat="48.61471" lon="15.76038">
				<ele>409.57</ele>
				<time>2025-07-29T03:58:17.714Z</time>
			</trkpt>
			<trkpt lat="48.6148" lon="15.76049">
				<ele>409.74</ele>
				<time>2025-07-29T03:58:18.437Z</time>
			</trkpt>
			<trkpt lat="48.61488" lon="15.76042">
				<ele>410.35</ele>
				<time>2025-07-29T03:58:19.018Z</time>
			</trkpt>
			<trkpt lat="48.61498" lon="15.76037">
				<ele>410.92</ele>
				<time>2025-07-29T03:58:19.684Z</time>
			</trkpt>
			<trkpt lat="48.61531" lon="15.76026">
				<ele>413.13</ele>
				<time>2025-07-29T03:58:21.848Z</time>
			</trkpt>
			<trkpt lat="48.61573" lon="15.76">
				<ele>416.88</ele>
				<time>2025-07-29T03:58:24.823Z</time>
			</trkpt>
			<trkpt lat="48.61589" lon="15.75986">
				<ele>418.8</ele>
				<time>2025-07-29T03:58:26.057Z</time>
			</trkpt>
			<trkpt lat="48.61597" lon="15.75973">
				<ele>419.48</ele>
				<time>2025-07-29T03:58:26.849Z</time>
			</trkpt>
			<trkpt lat="48.616" lon="15.75965">
				<ele>419.96</ele>
				<time>2025-07-29T03:58:27.261Z</time>
			</trkpt>
			<trkpt lat="48.61623" lon="15.75872">
				<ele>424.46</ele>
				<time>2025-07-29T03:58:31.808Z</time>
			</trkpt>
			<trkpt lat="48.61632" lon="15.75852">
				<ele>425.78</ele>
				<time>2025-07-29T03:58:32.945Z</time>
			</trkpt>
			<trkpt lat="48.6166" lon="15.75814">
				<ele>427</ele>
				<time>2025-07-29T03:58:35.662Z</time>
			</trkpt>
			<trkpt lat="48.61713" lon="15.75764">
				<ele>428.16</ele>
				<time>2025-07-29T03:58:40.318Z</time>
			</trkpt>
			<trkpt lat="48.61746" lon="15.75735">
				<ele>429.53</ele>
				<time>2025-07-29T03:58:43.255Z</time>
			</trkpt>
			<trkpt lat="48.61781" lon="15.75687">
				<ele>429.9</ele>
				<time>2025-07-29T03:58:46.992Z</time>
			</trkpt>
			<trkpt lat="48.61819" lon="15.75638">
				<ele>430.51</ele>
				<time>2025-07-29T03:58:51.067Z</time>
			</trkpt>
			<trkpt lat="48.61854" lon="15.75588">
				<ele>429.49</ele>
				<time>2025-07-29T03:58:55.124Z</time>
			</trkpt>
			<trkpt lat="48.6188" lon="15.75544">
				<ele>427.63</ele>
				<time>2025-07-29T03:58:58.505Z</time>
			</trkpt>
			<trkpt lat="48.61913" lon="15.75469">
				<ele>427.42</ele>
				<time>2025-07-29T03:59:04.130Z</time>
			</trkpt>
			<trkpt lat="48.61924" lon="15.75447">
				<ele>428.46</ele>
				<time>2025-07-29T03:59:06.215Z</time>
			</trkpt>
			<trkpt lat="48.61949" lon="15.75408">
				<ele>428.69</ele>
				<time>2025-07-29T03:59:10.773Z</time>
			</trkpt>
			<trkpt lat="48.61985" lon="15.7537">
				<ele>426.26</ele>
				<time>2025-07-29T03:59:16.896Z</time>
			</trkpt>
			<trkpt lat="48.6202" lon="15.75343">
				<ele>423.54</ele>
				<time>2025-07-29T03:59:22.596Z</time>
			</trkpt>
			<trkpt lat="48.62055" lon="15.75326">
				<ele>422.01</ele>
				<time>2025-07-29T03:59:27.864Z</time>
			</trkpt>
			<trkpt lat="48.62108" lon="15.75305">
				<ele>421.9</ele>
				<time>2025-07-29T03:59:35.349Z</time>
			</trkpt>
			<trkpt lat="48.62167" lon="15.75289">
				<ele>425</ele>
				<time>2025-07-29T03:59:43.912Z</time>
			</trkpt>
			<trkpt lat="48.6227" lon="15.75253">
				<ele>425.82</ele>
				<time>2025-07-29T03:59:55.133Z</time>
			</trkpt>
			<trkpt lat="48.62288" lon="15.75243">
				<ele>427.07</ele>
				<time>2025-07-29T03:59:56.845Z</time>
			</trkpt>
			<trkpt lat="48.62307" lon="15.75221">
				<ele>428.08</ele>
				<time>2025-07-29T03:59:58.959Z</time>
			</trkpt>
			<trkpt lat="48.62321" lon="15.75197">
				<ele>428.78</ele>
				<time>2025-07-29T04:00:00.808Z</time>
			</trkpt>
			<trkpt lat="48.62363" lon="15.75119">
				<ele>430.16</ele>
				<time>2025-07-29T04:00:06.496Z</time>
			</trkpt>
			<trkpt lat="48.62383" lon="15.75091">
				<ele>431.04</ele>
				<time>2025-07-29T04:00:08.775Z</time>
			</trkpt>
			<trkpt lat="48.62413" lon="15.7507">
				<ele>431</ele>
				<time>2025-07-29T04:00:11.500Z</time>
			</trkpt>
			<trkpt lat="48.62435" lon="15.75058">
				<ele>430.97</ele>
				<time>2025-07-29T04:00:13.401Z</time>
			</trkpt>
			<trkpt lat="48.62459" lon="15.7503">
				<ele>431.61</ele>
				<time>2025-07-29T04:00:15.834Z</time>
			</trkpt>
			<trkpt lat="48.62599" lon="15.74852">
				<ele>412.3</ele>
				<time>2025-07-29T04:00:29.792Z</time>
			</trkpt>
			<trkpt lat="48.62682" lon="15.74743">
				<ele>414.68</ele>
				<time>2025-07-29T04:00:37.625Z</time>
			</trkpt>
			<trkpt lat="48.62704" lon="15.7472">
				<ele>413.95</ele>
				<time>2025-07-29T04:00:39.473Z</time>
			</trkpt>
			<trkpt lat="48.62716" lon="15.74711">
				<ele>413.29</ele>
				<time>2025-07-29T04:00:40.390Z</time>
			</trkpt>
			<trkpt lat="48.62734" lon="15.74705">
				<ele>412.5</ele>
				<time>2025-07-29T04:00:41.642Z</time>
			</trkpt>
			<trkpt lat="48.62767" lon="15.74702">
				<ele>412.07</ele>
				<time>2025-07-29T04:00:43.864Z</time>
			</trkpt>
			<trkpt lat="48.62799" lon="15.74695">
				<ele>414.32</ele>
				<time>2025-07-29T04:00:46.005Z</time>
			</trkpt>
			<trkpt lat="48.62835" lon="15.74682">
				<ele>416.45</ele>
				<time>2025-07-29T04:00:48.420Z</time>
			</trkpt>
			<trkpt lat="48.6291" lon="15.74647">
				<ele>411.99</ele>
				<time>2025-07-29T04:00:53.416Z</time>
			</trkpt>
			<trkpt lat="48.62945" lon="15.7462">
				<ele>411</ele>
				<time>2025-07-29T04:00:55.855Z</time>
			</trkpt>
			<trkpt lat="48.62966" lon="15.74593">
				<ele>411</ele>
				<time>2025-07-29T04:00:57.543Z</time>
			</trkpt>
			<trkpt lat="48.62987" lon="15.74559">
				<ele>411.54</ele>
				<time>2025-07-29T04:00:59.405Z</time>
			</trkpt>
			<trkpt lat="48.63117" lon="15.74321">
				<ele>416.51</ele>
				<time>2025-07-29T04:01:11.218Z</time>
			</trkpt>
			<trkpt lat="48.63161" lon="15.74252">
				<ele>413.82</ele>
				<time>2025-07-29T04:01:14.715Z</time>
			</trkpt>
			<trkpt lat="48.632" lon="15.74206">
				<ele>416</ele>
				<time>2025-07-29T04:01:17.393Z</time>
			</trkpt>
			<trkpt lat="48.63354" lon="15.74099">
				<ele>424.2</ele>
				<time>2025-07-29T04:01:26.278Z</time>
			</trkpt>
			<trkpt lat="48.63393" lon="15.74066">
				<ele>425.23</ele>
				<time>2025-07-29T04:01:28.555Z</time>
			</trkpt>
			<trkpt lat="48.63422" lon="15.74037">
				<ele>426.57</ele>
				<time>2025-07-29T04:01:30.310Z</time>
			</trkpt>
			<trkpt lat="48.63438" lon="15.74025">
				<ele>426.17</ele>
				<time>2025-07-29T04:01:31.206Z</time>
			</trkpt>
			<trkpt lat="48.63459" lon="15.74016">
				<ele>426</ele>
				<time>2025-07-29T04:01:32.297Z</time>
			</trkpt>
			<trkpt lat="48.63498" lon="15.74007">
				<ele>423.46</ele>
				<time>2025-07-29T04:01:34.256Z</time>
			</trkpt>
			<trkpt lat="48.63646" lon="15.73984">
				<ele>430.75</ele>
				<time>2025-07-29T04:01:41.527Z</time>
			</trkpt>
			<trkpt lat="48.63686" lon="15.73986">
				<ele>431.23</ele>
				<time>2025-07-29T04:01:43.458Z</time>
			</trkpt>
			<trkpt lat="48.63707" lon="15.73995">
				<ele>432.77</ele>
				<time>2025-07-29T04:01:44.507Z</time>
			</trkpt>
			<trkpt lat="48.63746" lon="15.74018">
				<ele>434</ele>
				<time>2025-07-29T04:01:46.514Z</time>
			</trkpt>
			<trkpt lat="48.63793" lon="15.74035">
				<ele>431.14</ele>
				<time>2025-07-29T04:01:48.823Z</time>
			</trkpt>
			<trkpt lat="48.63831" lon="15.74045">
				<ele>430.01</ele>
				<time>2025-07-29T04:01:50.661Z</time>
			</trkpt>
			<trkpt lat="48.6389" lon="15.74047">
				<ele>430.98</ele>
				<time>2025-07-29T04:01:53.471Z</time>
			</trkpt>
			<trkpt lat="48.63901" lon="15.74061">
				<ele>430.9</ele>
				<time>2025-07-29T04:01:54.154Z</time>
			</trkpt>
			<trkpt lat="48.63904" lon="15.74065">
				<ele>430.81</ele>
				<time>2025-07-29T04:01:54.345Z</time>
			</trkpt>
			<trkpt lat="48.63918" lon="15.74073">
				<ele>430.34</ele>
				<time>2025-07-29T04:01:55.057Z</time>
			</trkpt>
			<trkpt lat="48.63949" lon="15.74038">
				<ele>430.24</ele>
				<time>2025-07-29T04:01:56.898Z</time>
			</trkpt>
			<trkpt lat="48.63972" lon="15.74019">
				<ele>430.99</ele>
				<time>2025-07-29T04:01:58.146Z</time>
			</trkpt>
			<trkpt lat="48.64111" lon="15.73918">
				<ele>427.06</ele>
				<time>2025-07-29T04:02:05.532Z</time>
			</trkpt>
			<trkpt lat="48.64148" lon="15.73886">
				<ele>427.09</ele>
				<time>2025-07-29T04:02:07.593Z</time>
			</trkpt>
			<trkpt lat="48.6418" lon="15.73849">
				<ele>427.49</ele>
				<time>2025-07-29T04:02:09.551Z</time>
			</trkpt>
			<trkpt lat="48.64382" lon="15.73598">
				<ele>416.45</ele>
				<time>2025-07-29T04:02:22.612Z</time>
			</trkpt>
			<trkpt lat="48.64438" lon="15.73541">
				<ele>408.05</ele>
				<time>2025-07-29T04:02:26.115Z</time>
			</trkpt>
			<trkpt lat="48.64505" lon="15.73482">
				<ele>405.92</ele>
				<time>2025-07-29T04:02:30.223Z</time>
			</trkpt>
			<trkpt lat="48.64629" lon="15.73385">
				<ele>403.92</ele>
				<time>2025-07-29T04:02:37.876Z</time>
			</trkpt>
			<trkpt lat="48.64659" lon="15.73359">
				<ele>402.94</ele>
				<time>2025-07-29T04:02:39.828Z</time>
			</trkpt>
			<trkpt lat="48.6471" lon="15.73304">
				<ele>402.03</ele>
				<time>2025-07-29T04:02:43.415Z</time>
			</trkpt>
			<trkpt lat="48.64787" lon="15.73201">
				<ele>403.27</ele>
				<time>2025-07-29T04:02:49.157Z</time>
			</trkpt>
			<trkpt lat="48.64844" lon="15.73113">
				<ele>403.95</ele>
				<time>2025-07-29T04:02:53.194Z</time>
			</trkpt>
			<trkpt lat="48.64915" lon="15.72991">
				<ele>406</ele>
				<time>2025-07-29T04:02:57.936Z</time>
			</trkpt>
			<trkpt lat="48.64935" lon="15.72951">
				<ele>406</ele>
				<time>2025-07-29T04:02:59.286Z</time>
			</trkpt>
			<trkpt lat="48.64946" lon="15.72925">
				<ele>406</ele>
				<time>2025-07-29T04:03:00.093Z</time>
			</trkpt>
			<trkpt lat="48.64959" lon="15.72883">
				<ele>406.63</ele>
				<time>2025-07-29T04:03:01.275Z</time>
			</trkpt>
			<trkpt lat="48.64978" lon="15.72795">
				<ele>407.91</ele>
				<time>2025-07-29T04:03:03.536Z</time>
			</trkpt>
			<trkpt lat="48.6499" lon="15.7271">
				<ele>407.94</ele>
				<time>2025-07-29T04:03:05.559Z</time>
			</trkpt>
			<trkpt lat="48.64998" lon="15.7264">
				<ele>408.05</ele>
				<time>2025-07-29T04:03:07.157Z</time>
			</trkpt>
			<trkpt lat="48.65005" lon="15.726">
				<ele>407.87</ele>
				<time>2025-07-29T04:03:08.070Z</time>
			</trkpt>
			<trkpt lat="48.65014" lon="15.72568">
				<ele>408.52</ele>
				<time>2025-07-29T04:03:08.830Z</time>
			</trkpt>
			<trkpt lat="48.65025" lon="15.72539">
				<ele>409</ele>
				<time>2025-07-29T04:03:09.554Z</time>
			</trkpt>
			<trkpt lat="48.65065" lon="15.72466">
				<ele>410</ele>
				<time>2025-07-29T04:03:11.591Z</time>
			</trkpt>
			<trkpt lat="48.65084" lon="15.72413">
				<ele>409.79</ele>
				<time>2025-07-29T04:03:12.882Z</time>
			</trkpt>
			<trkpt lat="48.65096" lon="15.72368">
				<ele>407.76</ele>
				<time>2025-07-29T04:03:13.925Z</time>
			</trkpt>
			<trkpt lat="48.65106" lon="15.72315">
				<ele>405.4</ele>
				<time>2025-07-29T04:03:15.119Z</time>
			</trkpt>
			<trkpt lat="48.6511" lon="15.72275">
				<ele>403.99</ele>
				<time>2025-07-29T04:03:16.005Z</time>
			</trkpt>
			<trkpt lat="48.65112" lon="15.72232">
				<ele>404.03</ele>
				<time>2025-07-29T04:03:16.960Z</time>
			</trkpt>
			<trkpt lat="48.65107" lon="15.71994">
				<ele>392.23</ele>
				<time>2025-07-29T04:03:22.574Z</time>
			</trkpt>
			<trkpt lat="48.65103" lon="15.71687">
				<ele>383.05</ele>
				<time>2025-07-29T04:03:31.207Z</time>
			</trkpt>
			<trkpt lat="48.65163" lon="15.71698">
				<ele>383.26</ele>
				<time>2025-07-29T04:03:34.213Z</time>
			</trkpt>
			<trkpt lat="48.65165" lon="15.71675">
				<ele>381.86</ele>
				<time>2025-07-29T04:03:35.013Z</time>
			</trkpt>
			<trkpt lat="48.65167" lon="15.71652">
				<ele>380.45</ele>
				<time>2025-07-29T04:03:35.829Z</time>
			</trkpt>
			<trkpt lat="48.65169" lon="15.71589">
				<ele>377.42</ele>
				<time>2025-07-29T04:03:38.134Z</time>
			</trkpt>
			<trkpt lat="48.65163" lon="15.71543">
				<ele>372.59</ele>
				<time>2025-07-29T04:03:39.932Z</time>
			</trkpt>
			<trkpt lat="48.65198" lon="15.71494">
				<ele>367.47</ele>
				<time>2025-07-29T04:03:42.849Z</time>
			</trkpt>
			<trkpt lat="48.65214" lon="15.71467">
				<ele>364.71</ele>
				<time>2025-07-29T04:03:44.386Z</time>
			</trkpt>
			<trkpt lat="48.65239" lon="15.71413">
				<ele>359.82</ele>
				<time>2025-07-29T04:03:47.312Z</time>
			</trkpt>
			<trkpt lat="48.65253" lon="15.7138">
				<ele>355.94</ele>
				<time>2025-07-29T04:03:49.135Z</time>
			</trkpt>
			<trkpt lat="48.65264" lon="15.71348">
				<ele>352.84</ele>
				<time>2025-07-29T04:03:50.868Z</time>
			</trkpt>
			<trkpt lat="48.65281" lon="15.71282">
				<ele>347.72</ele>
				<time>2025-07-29T04:03:54.436Z</time>
			</trkpt>
			<trkpt lat="48.65287" lon="15.71251">
				<ele>345.25</ele>
				<time>2025-07-29T04:03:56.138Z</time>
			</trkpt>
			<trkpt lat="48.65292" lon="15.71214">
				<ele>342.64</ele>
				<time>2025-07-29T04:03:58.189Z</time>
			</trkpt>
			<trkpt lat="48.65296" lon="15.71162">
				<ele>338.79</ele>
				<time>2025-07-29T04:04:01.145Z</time>
			</trkpt>
			<trkpt lat="48.65298" lon="15.71111">
				<ele>336.74</ele>
				<time>2025-07-29T04:04:04.161Z</time>
			</trkpt>
			<trkpt lat="48.65295" lon="15.71049">
				<ele>333.92</ele>
				<time>2025-07-29T04:04:08.010Z</time>
			</trkpt>
			<trkpt lat="48.65271" lon="15.70797">
				<ele>324.93</ele>
				<time>2025-07-29T04:04:26.013Z</time>
			</trkpt>
			<trkpt lat="48.65263" lon="15.70689">
				<ele>321.3</ele>
				<time>2025-07-29T04:04:34.886Z</time>
			</trkpt>
			<trkpt lat="48.65261" lon="15.70645">
				<ele>320.1</ele>
				<time>2025-07-29T04:04:38.706Z</time>
			</trkpt>
			<trkpt lat="48.65261" lon="15.70553">
				<ele>316.51</ele>
				<time>2025-07-29T04:04:47.095Z</time>
			</trkpt>
			<trkpt lat="48.65266" lon="15.70463">
				<ele>312.67</ele>
				<time>2025-07-29T04:04:55.908Z</time>
			</trkpt>
			<trkpt lat="48.65274" lon="15.70394">
				<ele>310.2</ele>
				<time>2025-07-29T04:05:08.022Z</time>
			</trkpt>
			<trkpt lat="48.6529" lon="15.70301">
				<ele>309</ele>
				<time>2025-07-29T04:05:45.237Z</time>
			</trkpt>
			<trkpt lat="48.65382" lon="15.69807">
				<ele>310.2</ele>
				<time>2025-07-29T04:06:23.698Z</time>
			</trkpt>
			<trkpt lat="48.65434" lon="15.69521">
				<ele>310.13</ele>
				<time>2025-07-29T04:06:38.784Z</time>
			</trkpt>
			<trkpt lat="48.65444" lon="15.69435">
				<ele>312.32</ele>
				<time>2025-07-29T04:06:42.856Z</time>
			</trkpt>
			<trkpt lat="48.65482" lon="15.6903">
				<ele>317.27</ele>
				<time>2025-07-29T04:06:59.953Z</time>
			</trkpt>
			<trkpt lat="48.65502" lon="15.6884">
				<ele>322.75</ele>
				<time>2025-07-29T04:07:06.992Z</time>
			</trkpt>
			<trkpt lat="48.65524" lon="15.68691">
				<ele>326.21</ele>
				<time>2025-07-29T04:07:12.185Z</time>
			</trkpt>
			<trkpt lat="48.65546" lon="15.6857">
				<ele>327.97</ele>
				<time>2025-07-29T04:07:16.220Z</time>
			</trkpt>
			<trkpt lat="48.65748" lon="15.67561">
				<ele>319.14</ele>
				<time>2025-07-29T04:07:44.398Z</time>
			</trkpt>
			<trkpt lat="48.65762" lon="15.67499">
				<ele>316.28</ele>
				<time>2025-07-29T04:07:45.957Z</time>
			</trkpt>
			<trkpt lat="48.6577" lon="15.67478">
				<ele>315.23</ele>
				<time>2025-07-29T04:07:46.532Z</time>
			</trkpt>
			<trkpt lat="48.65805" lon="15.67413">
				<ele>312.86</ele>
				<time>2025-07-29T04:07:48.516Z</time>
			</trkpt>
			<trkpt lat="48.65818" lon="15.67384">
				<ele>313.03</ele>
				<time>2025-07-29T04:07:49.345Z</time>
			</trkpt>
			<trkpt lat="48.65819" lon="15.67358">
				<ele>311.41</ele>
				<time>2025-07-29T04:07:49.960Z</time>
			</trkpt>
			<trkpt lat="48.65823" lon="15.67351">
				<ele>311.46</ele>
				<time>2025-07-29T04:07:50.178Z</time>
			</trkpt>
			<trkpt lat="48.65824" lon="15.67342">
				<ele>311.11</ele>
				<time>2025-07-29T04:07:50.394Z</time>
			</trkpt>
			<trkpt lat="48.65822" lon="15.67333">
				<ele>310.62</ele>
				<time>2025-07-29T04:07:50.618Z</time>
			</trkpt>
			<trkpt lat="48.6582" lon="15.67328">
				<ele>310.61</ele>
				<time>2025-07-29T04:07:50.757Z</time>
			</trkpt>
			<trkpt lat="48.65812" lon="15.67323">
				<ele>310.31</ele>
				<time>2025-07-29T04:07:51.066Z</time>
			</trkpt>
			<trkpt lat="48.65799" lon="15.67307">
				<ele>309.78</ele>
				<time>2025-07-29T04:07:51.666Z</time>
			</trkpt>
			<trkpt lat="48.65788" lon="15.67296">
				<ele>309.2</ele>
				<time>2025-07-29T04:07:52.138Z</time>
			</trkpt>
			<trkpt lat="48.65777" lon="15.67292">
				<ele>308.54</ele>
				<time>2025-07-29T04:07:52.544Z</time>
			</trkpt>
			<trkpt lat="48.65755" lon="15.67275">
				<ele>307.11</ele>
				<time>2025-07-29T04:07:53.431Z</time>
			</trkpt>
			<trkpt lat="48.65731" lon="15.6726">
				<ele>306.23</ele>
				<time>2025-07-29T04:07:54.366Z</time>
			</trkpt>
			<trkpt lat="48.65705" lon="15.67247">
				<ele>305.32</ele>
				<time>2025-07-29T04:07:55.354Z</time>
			</trkpt>
			<trkpt lat="48.65685" lon="15.6724">
				<ele>304.66</ele>
				<time>2025-07-29T04:07:56.098Z</time>
			</trkpt>
			<trkpt lat="48.65655" lon="15.67234">
				<ele>303.6</ele>
				<time>2025-07-29T04:07:57.200Z</time>
			</trkpt>
			<trkpt lat="48.6562" lon="15.67231">
				<ele>304.08</ele>
				<time>2025-07-29T04:07:58.483Z</time>
			</trkpt>
			<trkpt lat="48.65598" lon="15.67233">
				<ele>305.33</ele>
				<time>2025-07-29T04:07:59.295Z</time>
			</trkpt>
			<trkpt lat="48.65556" lon="15.67243">
				<ele>305.48</ele>
				<time>2025-07-29T04:08:00.874Z</time>
			</trkpt>
			<trkpt lat="48.65535" lon="15.6725">
				<ele>304.23</ele>
				<time>2025-07-29T04:08:01.680Z</time>
			</trkpt>
			<trkpt lat="48.65509" lon="15.67263">
				<ele>303.5</ele>
				<time>2025-07-29T04:08:02.713Z</time>
			</trkpt>
			<trkpt lat="48.65415" lon="15.67321">
				<ele>302.79</ele>
				<time>2025-07-29T04:08:06.626Z</time>
			</trkpt>
			<trkpt lat="48.65365" lon="15.67346">
				<ele>300.08</ele>
				<time>2025-07-29T04:08:08.715Z</time>
			</trkpt>
			<trkpt lat="48.65308" lon="15.6737">
				<ele>298.38</ele>
				<time>2025-07-29T04:08:11.118Z</time>
			</trkpt>
			<trkpt lat="48.65271" lon="15.67379">
				<ele>296.85</ele>
				<time>2025-07-29T04:08:12.675Z</time>
			</trkpt>
			<trkpt lat="48.6524" lon="15.67384">
				<ele>296.51</ele>
				<time>2025-07-29T04:08:13.991Z</time>
			</trkpt>
			<trkpt lat="48.65186" lon="15.67386">
				<ele>299.81</ele>
				<time>2025-07-29T04:08:16.320Z</time>
			</trkpt>
			<trkpt lat="48.65135" lon="15.67381">
				<ele>304.77</ele>
				<time>2025-07-29T04:08:18.586Z</time>
			</trkpt>
			<trkpt lat="48.64825" lon="15.67327">
				<ele>305.12</ele>
				<time>2025-07-29T04:08:33.727Z</time>
			</trkpt>
			<trkpt lat="48.64639" lon="15.67274">
				<ele>309.24</ele>
				<time>2025-07-29T04:08:42.621Z</time>
			</trkpt>
			<trkpt lat="48.64552" lon="15.67256">
				<ele>307.76</ele>
				<time>2025-07-29T04:08:46.561Z</time>
			</trkpt>
			<trkpt lat="48.64465" lon="15.67244">
				<ele>305.46</ele>
				<time>2025-07-29T04:08:50.408Z</time>
			</trkpt>
			<trkpt lat="48.64413" lon="15.67229">
				<ele>301.9</ele>
				<time>2025-07-29T04:08:52.717Z</time>
			</trkpt>
			<trkpt lat="48.64386" lon="15.67219">
				<ele>300.8</ele>
				<time>2025-07-29T04:08:53.925Z</time>
			</trkpt>
			<trkpt lat="48.64336" lon="15.67193">
				<ele>298.07</ele>
				<time>2025-07-29T04:08:56.221Z</time>
			</trkpt>
			<trkpt lat="48.64286" lon="15.67158">
				<ele>294.93</ele>
				<time>2025-07-29T04:08:58.615Z</time>
			</trkpt>
			<trkpt lat="48.6425" lon="15.67129">
				<ele>292.69</ele>
				<time>2025-07-29T04:09:00.394Z</time>
			</trkpt>
			<trkpt lat="48.64183" lon="15.67065">
				<ele>296.29</ele>
				<time>2025-07-29T04:09:03.877Z</time>
			</trkpt>
			<trkpt lat="48.64229" lon="15.66983">
				<ele>297.48</ele>
				<time>2025-07-29T04:09:07.050Z</time>
			</trkpt>
			<trkpt lat="48.64244" lon="15.66951">
				<ele>296.65</ele>
				<time>2025-07-29T04:09:08.222Z</time>
			</trkpt>
			<trkpt lat="48.64255" lon="15.66919">
				<ele>296.07</ele>
				<time>2025-07-29T04:09:09.307Z</time>
			</trkpt>
			<trkpt lat="48.6426" lon="15.66887">
				<ele>296.69</ele>
				<time>2025-07-29T04:09:10.303Z</time>
			</trkpt>
			<trkpt lat="48.64263" lon="15.66863">
				<ele>297.48</ele>
				<time>2025-07-29T04:09:11.048Z</time>
			</trkpt>
			<trkpt lat="48.64266" lon="15.66715">
				<ele>294.12</ele>
				<time>2025-07-29T04:09:15.663Z</time>
			</trkpt>
			<trkpt lat="48.64291" lon="15.66647">
				<ele>291.8</ele>
				<time>2025-07-29T04:09:18.166Z</time>
			</trkpt>
			<trkpt lat="48.64318" lon="15.66512">
				<ele>283.2</ele>
				<time>2025-07-29T04:09:22.866Z</time>
			</trkpt>
			<trkpt lat="48.64313" lon="15.66422">
				<ele>284.29</ele>
				<time>2025-07-29T04:09:25.999Z</time>
			</trkpt>
			<trkpt lat="48.6431" lon="15.66264">
				<ele>294.33</ele>
				<time>2025-07-29T04:09:31.751Z</time>
			</trkpt>
			<trkpt lat="48.64302" lon="15.6622">
				<ele>297.13</ele>
				<time>2025-07-29T04:09:33.481Z</time>
			</trkpt>
			<trkpt lat="48.64286" lon="15.66163">
				<ele>300.74</ele>
				<time>2025-07-29T04:09:35.883Z</time>
			</trkpt>
			<trkpt lat="48.64281" lon="15.66134">
				<ele>301.42</ele>
				<time>2025-07-29T04:09:37.069Z</time>
			</trkpt>
			<trkpt lat="48.64278" lon="15.66111">
				<ele>302.07</ele>
				<time>2025-07-29T04:09:38.007Z</time>
			</trkpt>
			<trkpt lat="48.64278" lon="15.66088">
				<ele>302.83</ele>
				<time>2025-07-29T04:09:38.937Z</time>
			</trkpt>
			<trkpt lat="48.64279" lon="15.66066">
				<ele>303.06</ele>
				<time>2025-07-29T04:09:39.837Z</time>
			</trkpt>
			<trkpt lat="48.64294" lon="15.65973">
				<ele>305.96</ele>
				<time>2025-07-29T04:09:43.851Z</time>
			</trkpt>
			<trkpt lat="48.64308" lon="15.6584">
				<ele>310.92</ele>
				<time>2025-07-29T04:09:49.805Z</time>
			</trkpt>
			<trkpt lat="48.6432" lon="15.6576">
				<ele>312.41</ele>
				<time>2025-07-29T04:09:53.619Z</time>
			</trkpt>
			<trkpt lat="48.64331" lon="15.6571">
				<ele>314.43</ele>
				<time>2025-07-29T04:09:56.149Z</time>
			</trkpt>
			<trkpt lat="48.6436" lon="15.65591">
				<ele>318</ele>
				<time>2025-07-29T04:10:02.824Z</time>
			</trkpt>
			<trkpt lat="48.64362" lon="15.65551">
				<ele>318.2</ele>
				<time>2025-07-29T04:10:05.194Z</time>
			</trkpt>
			<trkpt lat="48.64356" lon="15.65381">
				<ele>321.05</ele>
				<time>2025-07-29T04:10:16.530Z</time>
			</trkpt>
			<trkpt lat="48.64356" lon="15.6534">
				<ele>321.06</ele>
				<time>2025-07-29T04:10:19.546Z</time>
			</trkpt>
			<trkpt lat="48.6436" lon="15.65289">
				<ele>320.35</ele>
				<time>2025-07-29T04:10:23.468Z</time>
			</trkpt>
			<trkpt lat="48.64375" lon="15.65151">
				<ele>320.05</ele>
				<time>2025-07-29T04:10:34.895Z</time>
			</trkpt>
			<trkpt lat="48.64376" lon="15.65128">
				<ele>320.09</ele>
				<time>2025-07-29T04:10:36.874Z</time>
			</trkpt>
			<trkpt lat="48.64374" lon="15.65111">
				<ele>319.94</ele>
				<time>2025-07-29T04:10:38.374Z</time>
			</trkpt>
			<trkpt lat="48.64369" lon="15.65094">
				<ele>319.59</ele>
				<time>2025-07-29T04:10:40.005Z</time>
			</trkpt>
			<trkpt lat="48.64363" lon="15.65088">
				<ele>319.15</ele>
				<time>2025-07-29T04:10:40.966Z</time>
			</trkpt>
			<trkpt lat="48.64271" lon="15.65034">
				<ele>315.53</ele>
				<time>2025-07-29T04:10:54.655Z</time>
			</trkpt>
			<trkpt lat="48.64266" lon="15.65029">
				<ele>315.52</ele>
				<time>2025-07-29T04:10:55.514Z</time>
			</trkpt>
			<trkpt lat="48.64259" lon="15.65015">
				<ele>315.62</ele>
				<time>2025-07-29T04:10:57.184Z</time>
			</trkpt>
			<trkpt lat="48.6426" lon="15.65003">
				<ele>315.91</ele>
				<time>2025-07-29T04:10:58.341Z</time>
			</trkpt>
			<trkpt lat="48.64263" lon="15.64985">
				<ele>316.26</ele>
				<time>2025-07-29T04:11:00.125Z</time>
			</trkpt>
			<trkpt lat="48.64272" lon="15.64951">
				<ele>316.34</ele>
				<time>2025-07-29T04:11:03.677Z</time>
			</trkpt>
			<trkpt lat="48.6428" lon="15.64917">
				<ele>316.08</ele>
				<time>2025-07-29T04:11:07.216Z</time>
			</trkpt>
			<trkpt lat="48.64293" lon="15.64827">
				<ele>318.17</ele>
				<time>2025-07-29T04:11:16.399Z</time>
			</trkpt>
			<trkpt lat="48.64293" lon="15.64819">
				<ele>318.41</ele>
				<time>2025-07-29T04:11:17.206Z</time>
			</trkpt>
			<trkpt lat="48.64283" lon="15.64823">
				<ele>318.57</ele>
				<time>2025-07-29T04:11:18.788Z</time>
			</trkpt>
			<trkpt lat="48.64249" lon="15.64816">
				<ele>319.64</ele>
				<time>2025-07-29T04:11:24.070Z</time>
			</trkpt>
			<trkpt lat="48.64239" lon="15.64801">
				<ele>320.62</ele>
				<time>2025-07-29T04:11:26.250Z</time>
			</trkpt>
			<trkpt lat="48.64234" lon="15.64776">
				<ele>322.03</ele>
				<time>2025-07-29T04:11:28.932Z</time>
			</trkpt>
			<trkpt lat="48.64236" lon="15.64703">
				<ele>322.68</ele>
				<time>2025-07-29T04:11:36.479Z</time>
			</trkpt>
			<trkpt lat="48.64234" lon="15.64694">
				<ele>322.42</ele>
				<time>2025-07-29T04:11:37.464Z</time>
			</trkpt>
			<trkpt lat="48.64228" lon="15.64687">
				<ele>322.18</ele>
				<time>2025-07-29T04:11:38.654Z</time>
			</trkpt>
			<trkpt lat="48.64207" lon="15.64677">
				<ele>322.51</ele>
				<time>2025-07-29T04:11:42.117Z</time>
			</trkpt>
			<trkpt lat="48.64136" lon="15.64657">
				<ele>324.03</ele>
				<time>2025-07-29T04:11:53.508Z</time>
			</trkpt>
			<trkpt lat="48.64062" lon="15.6463">
				<ele>326.07</ele>
				<time>2025-07-29T04:12:05.491Z</time>
			</trkpt>
			<trkpt lat="48.64008" lon="15.64594">
				<ele>331.17</ele>
				<time>2025-07-29T04:12:14.706Z</time>
			</trkpt>
			<trkpt lat="48.63988" lon="15.64585">
				<ele>332.39</ele>
				<time>2025-07-29T04:12:17.939Z</time>
			</trkpt>
			<trkpt lat="48.63889" lon="15.64573">
				<ele>334.98</ele>
				<time>2025-07-29T04:12:33.070Z</time>
			</trkpt>
			<trkpt lat="48.6386" lon="15.64568">
				<ele>336.59</ele>
				<time>2025-07-29T04:12:37.415Z</time>
			</trkpt>
			<trkpt lat="48.63721" lon="15.64527">
				<ele>338</ele>
				<time>2025-07-29T04:12:57.605Z</time>
			</trkpt>
			<trkpt lat="48.63673" lon="15.64516">
				<ele>338.4</ele>
				<time>2025-07-29T04:13:04.112Z</time>
			</trkpt>
			<trkpt lat="48.63618" lon="15.6451">
				<ele>339.33</ele>
				<time>2025-07-29T04:13:11.196Z</time>
			</trkpt>
			<trkpt lat="48.63567" lon="15.64508">
				<ele>341.26</ele>
				<time>2025-07-29T04:13:17.428Z</time>
			</trkpt>
			<trkpt lat="48.63495" lon="15.64508">
				<ele>341.69</ele>
				<time>2025-07-29T04:13:25.640Z</time>
			</trkpt>
			<trkpt lat="48.63478" lon="15.6451">
				<ele>341.61</ele>
				<time>2025-07-29T04:13:27.477Z</time>
			</trkpt>
			<trkpt lat="48.63452" lon="15.64517">
				<ele>341.81</ele>
				<time>2025-07-29T04:13:30.236Z</time>
			</trkpt>
			<trkpt lat="48.63418" lon="15.64535">
				<ele>342.95</ele>
				<time>2025-07-29T04:13:33.826Z</time>
			</trkpt>
			<trkpt lat="48.63397" lon="15.6455">
				<ele>341.84</ele>
				<time>2025-07-29T04:13:36.075Z</time>
			</trkpt>
			<trkpt lat="48.63373" lon="15.64573">
				<ele>339.42</ele>
				<time>2025-07-29T04:13:38.786Z</time>
			</trkpt>
			<trkpt lat="48.63356" lon="15.64594">
				<ele>337.76</ele>
				<time>2025-07-29T04:13:40.851Z</time>
			</trkpt>
			<trkpt lat="48.6331" lon="15.6467">
				<ele>330.82</ele>
				<time>2025-07-29T04:13:47.102Z</time>
			</trkpt>
			<trkpt lat="48.63303" lon="15.64677">
				<ele>329.8</ele>
				<time>2025-07-29T04:13:47.856Z</time>
			</trkpt>
			<trkpt lat="48.63286" lon="15.64682">
				<ele>328.56</ele>
				<time>2025-07-29T04:13:49.403Z</time>
			</trkpt>
			<trkpt lat="48.63276" lon="15.64678">
				<ele>328.46</ele>
				<time>2025-07-29T04:13:50.319Z</time>
			</trkpt>
			<trkpt lat="48.63267" lon="15.6467">
				<ele>327.69</ele>
				<time>2025-07-29T04:13:51.239Z</time>
			</trkpt>
			<trkpt lat="48.6326" lon="15.64661">
				<ele>327.25</ele>
				<time>2025-07-29T04:13:52.045Z</time>
			</trkpt>
			<trkpt lat="48.63254" lon="15.64645">
				<ele>327.17</ele>
				<time>2025-07-29T04:13:53.105Z</time>
			</trkpt>
			<trkpt lat="48.63236" lon="15.64555">
				<ele>327.04</ele>
				<time>2025-07-29T04:13:58.424Z</time>
			</trkpt>
			<trkpt lat="48.63213" lon="15.64465">
				<ele>322.94</ele>
				<time>2025-07-29T04:14:03.715Z</time>
			</trkpt>
			<trkpt lat="48.63167" lon="15.64332">
				<ele>309.22</ele>
				<time>2025-07-29T04:14:11.645Z</time>
			</trkpt>
			<trkpt lat="48.6316" lon="15.64302">
				<ele>306.84</ele>
				<time>2025-07-29T04:14:13.283Z</time>
			</trkpt>
			<trkpt lat="48.63155" lon="15.64273">
				<ele>304.94</ele>
				<time>2025-07-29T04:14:14.812Z</time>
			</trkpt>
			<trkpt lat="48.63146" lon="15.64185">
				<ele>299.81</ele>
				<time>2025-07-29T04:14:19.288Z</time>
			</trkpt>
			<trkpt lat="48.63126" lon="15.64071">
				<ele>292.25</ele>
				<time>2025-07-29T04:14:25.073Z</time>
			</trkpt>
			<trkpt lat="48.63111" lon="15.63996">
				<ele>286.11</ele>
				<time>2025-07-29T04:14:28.835Z</time>
			</trkpt>
			<trkpt lat="48.63105" lon="15.63987">
				<ele>286.39</ele>
				<time>2025-07-29T04:14:29.444Z</time>
			</trkpt>
			<trkpt lat="48.63086" lon="15.63961">
				<ele>285.24</ele>
				<time>2025-07-29T04:14:31.280Z</time>
			</trkpt>
			<trkpt lat="48.6307" lon="15.63936">
				<ele>284.97</ele>
				<time>2025-07-29T04:14:32.918Z</time>
			</trkpt>
			<trkpt lat="48.63056" lon="15.63896">
				<ele>280.57</ele>
				<time>2025-07-29T04:14:35.035Z</time>
			</trkpt>
			<trkpt lat="48.63027" lon="15.63872">
				<ele>278.81</ele>
				<time>2025-07-29T04:14:37.358Z</time>
			</trkpt>
			<trkpt lat="48.63005" lon="15.63858">
				<ele>277.96</ele>
				<time>2025-07-29T04:14:39.025Z</time>
			</trkpt>
			<trkpt lat="48.62971" lon="15.63849">
				<ele>273.01</ele>
				<time>2025-07-29T04:14:41.424Z</time>
			</trkpt>
			<trkpt lat="48.62929" lon="15.63819">
				<ele>266.42</ele>
				<time>2025-07-29T04:14:44.631Z</time>
			</trkpt>
			<trkpt lat="48.62905" lon="15.63789">
				<ele>263.94</ele>
				<time>2025-07-29T04:14:46.770Z</time>
			</trkpt>
			<trkpt lat="48.6293" lon="15.63729">
				<ele>267.38</ele>
				<time>2025-07-29T04:14:49.978Z</time>
			</trkpt>
			<trkpt lat="48.62955" lon="15.63683">
				<ele>268</ele>
				<time>2025-07-29T04:14:52.665Z</time>
			</trkpt>
			<trkpt lat="48.6297" lon="15.63666">
				<ele>267.78</ele>
				<time>2025-07-29T04:14:53.943Z</time>
			</trkpt>
			<trkpt lat="48.63006" lon="15.63643">
				<ele>268.58</ele>
				<time>2025-07-29T04:14:56.606Z</time>
			</trkpt>
			<trkpt lat="48.63025" lon="15.63635">
				<ele>267.51</ele>
				<time>2025-07-29T04:14:57.950Z</time>
			</trkpt>
			<trkpt lat="48.63066" lon="15.63625">
				<ele>267.66</ele>
				<time>2025-07-29T04:15:00.783Z</time>
			</trkpt>
			<trkpt lat="48.63086" lon="15.63625">
				<ele>267.31</ele>
				<time>2025-07-29T04:15:02.150Z</time>
			</trkpt>
			<trkpt lat="48.63098" lon="15.63629">
				<ele>267.53</ele>
				<time>2025-07-29T04:15:02.991Z</time>
			</trkpt>
			<trkpt lat="48.63148" lon="15.6367">
				<ele>274.32</ele>
				<time>2025-07-29T04:15:06.894Z</time>
			</trkpt>
			<trkpt lat="48.63163" lon="15.63673">
				<ele>274.51</ele>
				<time>2025-07-29T04:15:07.937Z</time>
			</trkpt>
			<trkpt lat="48.63211" lon="15.6367">
				<ele>275.5</ele>
				<time>2025-07-29T04:15:11.264Z</time>
			</trkpt>
			<trkpt lat="48.63241" lon="15.63666">
				<ele>275.75</ele>
				<time>2025-07-29T04:15:13.364Z</time>
			</trkpt>
			<trkpt lat="48.63263" lon="15.63661">
				<ele>274.29</ele>
				<time>2025-07-29T04:15:14.922Z</time>
			</trkpt>
			<trkpt lat="48.63304" lon="15.63641">
				<ele>268.98</ele>
				<time>2025-07-29T04:15:17.962Z</time>
			</trkpt>
			<trkpt lat="48.63333" lon="15.63619">
				<ele>268.92</ele>
				<time>2025-07-29T04:15:20.272Z</time>
			</trkpt>
			<trkpt lat="48.63348" lon="15.63599">
				<ele>269.45</ele>
				<time>2025-07-29T04:15:21.706Z</time>
			</trkpt>
			<trkpt lat="48.63383" lon="15.63539">
				<ele>269.82</ele>
				<time>2025-07-29T04:15:25.538Z</time>
			</trkpt>
			<trkpt lat="48.63375" lon="15.63515">
				<ele>266.43</ele>
				<time>2025-07-29T04:15:26.839Z</time>
			</trkpt>
			<trkpt lat="48.63368" lon="15.63501">
				<ele>264.67</ele>
				<time>2025-07-29T04:15:27.692Z</time>
			</trkpt>
			<trkpt lat="48.6336" lon="15.63469">
				<ele>263</ele>
				<time>2025-07-29T04:15:29.366Z</time>
			</trkpt>
			<trkpt lat="48.63354" lon="15.63438">
				<ele>262.94</ele>
				<time>2025-07-29T04:15:30.957Z</time>
			</trkpt>
			<trkpt lat="48.63358" lon="15.63391">
				<ele>263.66</ele>
				<time>2025-07-29T04:15:33.315Z</time>
			</trkpt>
			<trkpt lat="48.63367" lon="15.63355">
				<ele>264.41</ele>
				<time>2025-07-29T04:15:35.250Z</time>
			</trkpt>
			<trkpt lat="48.63389" lon="15.63279">
				<ele>266.91</ele>
				<time>2025-07-29T04:15:39.488Z</time>
			</trkpt>
			<trkpt lat="48.63395" lon="15.63247">
				<ele>266.25</ele>
				<time>2025-07-29T04:15:41.214Z</time>
			</trkpt>
			<trkpt lat="48.63396" lon="15.63235">
				<ele>266.25</ele>
				<time>2025-07-29T04:15:41.845Z</time>
			</trkpt>
			<trkpt lat="48.63392" lon="15.63217">
				<ele>266.03</ele>
				<time>2025-07-29T04:15:42.841Z</time>
			</trkpt>
			<trkpt lat="48.63375" lon="15.63149">
				<ele>265.33</ele>
				<time>2025-07-29T04:15:46.707Z</time>
			</trkpt>
			<trkpt lat="48.63368" lon="15.63064">
				<ele>267.55</ele>
				<time>2025-07-29T04:15:51.373Z</time>
			</trkpt>
			<trkpt lat="48.63367" lon="15.62988">
				<ele>269.39</ele>
				<time>2025-07-29T04:15:55.621Z</time>
			</trkpt>
			<trkpt lat="48.63365" lon="15.62975">
				<ele>269.25</ele>
				<time>2025-07-29T04:15:56.379Z</time>
			</trkpt>
			<trkpt lat="48.63356" lon="15.62955">
				<ele>267.2</ele>
				<time>2025-07-29T04:15:57.760Z</time>
			</trkpt>
			<trkpt lat="48.63351" lon="15.62949">
				<ele>266.15</ele>
				<time>2025-07-29T04:15:58.318Z</time>
			</trkpt>
			<trkpt lat="48.63261" lon="15.62956">
				<ele>273.93</ele>
				<time>2025-07-29T04:16:06.607Z</time>
			</trkpt>
			<trkpt lat="48.63249" lon="15.62953">
				<ele>277.42</ele>
				<time>2025-07-29T04:16:07.775Z</time>
			</trkpt>
			<trkpt lat="48.63224" lon="15.62939">
				<ele>283.86</ele>
				<time>2025-07-29T04:16:10.369Z</time>
			</trkpt>
			<trkpt lat="48.63218" lon="15.62929">
				<ele>284.43</ele>
				<time>2025-07-29T04:16:11.246Z</time>
			</trkpt>
			<trkpt lat="48.63197" lon="15.62873">
				<ele>285.75</ele>
				<time>2025-07-29T04:16:15.473Z</time>
			</trkpt>
			<trkpt lat="48.63149" lon="15.62773">
				<ele>290.27</ele>
				<time>2025-07-29T04:16:23.710Z</time>
			</trkpt>
			<trkpt lat="48.63139" lon="15.62735">
				<ele>290.37</ele>
				<time>2025-07-29T04:16:26.439Z</time>
			</trkpt>
			<trkpt lat="48.63131" lon="15.62684">
				<ele>293.42</ele>
				<time>2025-07-29T04:16:29.915Z</time>
			</trkpt>
			<trkpt lat="48.6313" lon="15.62652">
				<ele>294.15</ele>
				<time>2025-07-29T04:16:32.021Z</time>
			</trkpt>
			<trkpt lat="48.63132" lon="15.62595">
				<ele>297.07</ele>
				<time>2025-07-29T04:16:35.724Z</time>
			</trkpt>
			<trkpt lat="48.63131" lon="15.62573">
				<ele>298.05</ele>
				<time>2025-07-29T04:16:37.134Z</time>
			</trkpt>
			<trkpt lat="48.63125" lon="15.62556">
				<ele>298.95</ele>
				<time>2025-07-29T04:16:38.355Z</time>
			</trkpt>
			<trkpt lat="48.63117" lon="15.62541">
				<ele>300.27</ele>
				<time>2025-07-29T04:16:39.564Z</time>
			</trkpt>
			<trkpt lat="48.63106" lon="15.62529">
				<ele>302.56</ele>
				<time>2025-07-29T04:16:40.838Z</time>
			</trkpt>
			<trkpt lat="48.63095" lon="15.62523">
				<ele>304.01</ele>
				<time>2025-07-29T04:16:41.924Z</time>
			</trkpt>
			<trkpt lat="48.63082" lon="15.62521">
				<ele>305.83</ele>
				<time>2025-07-29T04:16:43.124Z</time>
			</trkpt>
			<trkpt lat="48.6307" lon="15.62523">
				<ele>306.37</ele>
				<time>2025-07-29T04:16:44.218Z</time>
			</trkpt>
			<trkpt lat="48.63058" lon="15.62531">
				<ele>306.87</ele>
				<time>2025-07-29T04:16:45.391Z</time>
			</trkpt>
			<trkpt lat="48.63037" lon="15.62561">
				<ele>307.57</ele>
				<time>2025-07-29T04:16:47.909Z</time>
			</trkpt>
			<trkpt lat="48.63023" lon="15.62588">
				<ele>308.82</ele>
				<time>2025-07-29T04:16:49.818Z</time>
			</trkpt>
			<trkpt lat="48.63008" lon="15.62633">
				<ele>313.29</ele>
				<time>2025-07-29T04:16:52.535Z</time>
			</trkpt>
			<trkpt lat="48.63006" lon="15.62667">
				<ele>316.04</ele>
				<time>2025-07-29T04:16:54.366Z</time>
			</trkpt>
			<trkpt lat="48.63002" lon="15.6284">
				<ele>323.85</ele>
				<time>2025-07-29T04:17:03.580Z</time>
			</trkpt>
			<trkpt lat="48.63006" lon="15.62891">
				<ele>325.37</ele>
				<time>2025-07-29T04:17:06.292Z</time>
			</trkpt>
			<trkpt lat="48.63019" lon="15.62945">
				<ele>326.63</ele>
				<time>2025-07-29T04:17:09.316Z</time>
			</trkpt>
			<trkpt lat="48.63036" lon="15.6299">
				<ele>327.88</ele>
				<time>2025-07-29T04:17:12.033Z</time>
			</trkpt>
			<trkpt lat="48.63055" lon="15.63028">
				<ele>330.22</ele>
				<time>2025-07-29T04:17:14.522Z</time>
			</trkpt>
			<trkpt lat="48.63097" lon="15.63091">
				<ele>332.13</ele>
				<time>2025-07-29T04:17:19.175Z</time>
			</trkpt>
			<trkpt lat="48.63105" lon="15.63108">
				<ele>332.47</ele>
				<time>2025-07-29T04:17:20.256Z</time>
			</trkpt>
			<trkpt lat="48.63108" lon="15.63117">
				<ele>332.54</ele>
				<time>2025-07-29T04:17:20.778Z</time>
			</trkpt>
			<trkpt lat="48.63109" lon="15.63128">
				<ele>332.75</ele>
				<time>2025-07-29T04:17:21.352Z</time>
			</trkpt>
			<trkpt lat="48.63106" lon="15.63148">
				<ele>333.56</ele>
				<time>2025-07-29T04:17:22.411Z</time>
			</trkpt>
			<trkpt lat="48.63073" lon="15.63206">
				<ele>335.82</ele>
				<time>2025-07-29T04:17:26.350Z</time>
			</trkpt>
			<trkpt lat="48.63062" lon="15.6322">
				<ele>336.07</ele>
				<time>2025-07-29T04:17:27.466Z</time>
			</trkpt>
			<trkpt lat="48.63052" lon="15.63229">
				<ele>336.05</ele>
				<time>2025-07-29T04:17:28.368Z</time>
			</trkpt>
			<trkpt lat="48.63025" lon="15.63241">
				<ele>338.36</ele>
				<time>2025-07-29T04:17:30.545Z</time>
			</trkpt>
			<trkpt lat="48.63007" lon="15.63242">
				<ele>340.73</ele>
				<time>2025-07-29T04:17:31.935Z</time>
			</trkpt>
			<trkpt lat="48.62988" lon="15.63239">
				<ele>343.17</ele>
				<time>2025-07-29T04:17:33.407Z</time>
			</trkpt>
			<trkpt lat="48.62964" lon="15.6323">
				<ele>345.28</ele>
				<time>2025-07-29T04:17:35.307Z</time>
			</trkpt>
			<trkpt lat="48.62927" lon="15.63203">
				<ele>349.17</ele>
				<time>2025-07-29T04:17:38.454Z</time>
			</trkpt>
			<trkpt lat="48.62902" lon="15.63185">
				<ele>354.21</ele>
				<time>2025-07-29T04:17:40.567Z</time>
			</trkpt>
			<trkpt lat="48.6288" lon="15.63172">
				<ele>358.2</ele>
				<time>2025-07-29T04:17:42.365Z</time>
			</trkpt>
			<trkpt lat="48.6287" lon="15.6317">
				<ele>359.04</ele>
				<time>2025-07-29T04:17:43.132Z</time>
			</trkpt>
			<trkpt lat="48.6286" lon="15.63172">
				<ele>359.51</ele>
				<time>2025-07-29T04:17:43.898Z</time>
			</trkpt>
			<trkpt lat="48.62849" lon="15.63179">
				<ele>358.43</ele>
				<time>2025-07-29T04:17:44.803Z</time>
			</trkpt>
			<trkpt lat="48.62819" lon="15.63219">
				<ele>357.44</ele>
				<time>2025-07-29T04:17:47.827Z</time>
			</trkpt>
			<trkpt lat="48.62787" lon="15.63277">
				<ele>358.98</ele>
				<time>2025-07-29T04:17:51.586Z</time>
			</trkpt>
			<trkpt lat="48.62778" lon="15.63289">
				<ele>359.4</ele>
				<time>2025-07-29T04:17:52.487Z</time>
			</trkpt>
			<trkpt lat="48.62768" lon="15.63298">
				<ele>359.82</ele>
				<time>2025-07-29T04:17:53.359Z</time>
			</trkpt>
			<trkpt lat="48.62758" lon="15.63299">
				<ele>359.93</ele>
				<time>2025-07-29T04:17:54.109Z</time>
			</trkpt>
			<trkpt lat="48.62717" lon="15.63282">
				<ele>363.35</ele>
				<time>2025-07-29T04:17:57.284Z</time>
			</trkpt>
			<trkpt lat="48.62572" lon="15.63217">
				<ele>374.13</ele>
				<time>2025-07-29T04:18:08.468Z</time>
			</trkpt>
			<trkpt lat="48.62548" lon="15.63203">
				<ele>374.82</ele>
				<time>2025-07-29T04:18:10.354Z</time>
			</trkpt>
			<trkpt lat="48.62535" lon="15.63189">
				<ele>375.6</ele>
				<time>2025-07-29T04:18:11.521Z</time>
			</trkpt>
			<trkpt lat="48.62524" lon="15.63171">
				<ele>375.55</ele>
				<time>2025-07-29T04:18:12.704Z</time>
			</trkpt>
			<trkpt lat="48.62513" lon="15.63149">
				<ele>375.92</ele>
				<time>2025-07-29T04:18:14.034Z</time>
			</trkpt>
			<trkpt lat="48.62506" lon="15.63126">
				<ele>376.54</ele>
				<time>2025-07-29T04:18:15.252Z</time>
			</trkpt>
			<trkpt lat="48.62492" lon="15.63075">
				<ele>378.01</ele>
				<time>2025-07-29T04:18:17.901Z</time>
			</trkpt>
			<trkpt lat="48.62422" lon="15.62758">
				<ele>378.64</ele>
				<time>2025-07-29T04:18:33.735Z</time>
			</trkpt>
			<trkpt lat="48.62407" lon="15.62698">
				<ele>380.61</ele>
				<time>2025-07-29T04:18:36.735Z</time>
			</trkpt>
			<trkpt lat="48.62391" lon="15.62643">
				<ele>387.24</ele>
				<time>2025-07-29T04:18:39.534Z</time>
			</trkpt>
			<trkpt lat="48.62376" lon="15.626">
				<ele>390.08</ele>
				<time>2025-07-29T04:18:41.791Z</time>
			</trkpt>
			<trkpt lat="48.62354" lon="15.62543">
				<ele>388.05</ele>
				<time>2025-07-29T04:18:44.843Z</time>
			</trkpt>
			<trkpt lat="48.62326" lon="15.62491">
				<ele>388.67</ele>
				<time>2025-07-29T04:18:47.932Z</time>
			</trkpt>
			<trkpt lat="48.62252" lon="15.62382">
				<ele>390.52</ele>
				<time>2025-07-29T04:18:55.078Z</time>
			</trkpt>
			<trkpt lat="48.62207" lon="15.6233">
				<ele>394.27</ele>
				<time>2025-07-29T04:18:58.966Z</time>
			</trkpt>
			<trkpt lat="48.62181" lon="15.62316">
				<ele>395.54</ele>
				<time>2025-07-29T04:19:00.853Z</time>
			</trkpt>
			<trkpt lat="48.62132" lon="15.62298">
				<ele>396.22</ele>
				<time>2025-07-29T04:19:04.289Z</time>
			</trkpt>
			<trkpt lat="48.61894" lon="15.62193">
				<ele>399.97</ele>
				<time>2025-07-29T04:19:20.948Z</time>
			</trkpt>
			<trkpt lat="48.61828" lon="15.62169">
				<ele>401.01</ele>
				<time>2025-07-29T04:19:25.444Z</time>
			</trkpt>
			<trkpt lat="48.61791" lon="15.6216">
				<ele>401.51</ele>
				<time>2025-07-29T04:19:27.914Z</time>
			</trkpt>
			<trkpt lat="48.61769" lon="15.62157">
				<ele>402.28</ele>
				<time>2025-07-29T04:19:29.366Z</time>
			</trkpt>
			<trkpt lat="48.61713" lon="15.62161">
				<ele>401.43</ele>
				<time>2025-07-29T04:19:33.039Z</time>
			</trkpt>
			<trkpt lat="48.61667" lon="15.62158">
				<ele>399.31</ele>
				<time>2025-07-29T04:19:36.041Z</time>
			</trkpt>
			<trkpt lat="48.61585" lon="15.62135">
				<ele>403.78</ele>
				<time>2025-07-29T04:19:41.448Z</time>
			</trkpt>
			<trkpt lat="48.61503" lon="15.62094">
				<ele>409.32</ele>
				<time>2025-07-29T04:19:47.006Z</time>
			</trkpt>
			<trkpt lat="48.61321" lon="15.61994">
				<ele>421</ele>
				<time>2025-07-29T04:19:59.318Z</time>
			</trkpt>
			<trkpt lat="48.61242" lon="15.61936">
				<ele>421</ele>
				<time>2025-07-29T04:20:04.835Z</time>
			</trkpt>
			<trkpt lat="48.61095" lon="15.61857">
				<ele>424.05</ele>
				<time>2025-07-29T04:20:14.537Z</time>
			</trkpt>
			<trkpt lat="48.61039" lon="15.6183">
				<ele>422.81</ele>
				<time>2025-07-29T04:20:18.160Z</time>
			</trkpt>
			<trkpt lat="48.60776" lon="15.61713">
				<ele>409.25</ele>
				<time>2025-07-29T04:20:34.838Z</time>
			</trkpt>
			<trkpt lat="48.60709" lon="15.61686">
				<ele>409</ele>
				<time>2025-07-29T04:20:39.001Z</time>
			</trkpt>
			<trkpt lat="48.60683" lon="15.61683">
				<ele>408.61</ele>
				<time>2025-07-29T04:20:40.560Z</time>
			</trkpt>
			<trkpt lat="48.60603" lon="15.61681">
				<ele>404.21</ele>
				<time>2025-07-29T04:20:45.327Z</time>
			</trkpt>
			<trkpt lat="48.60586" lon="15.61675">
				<ele>403.79</ele>
				<time>2025-07-29T04:20:46.363Z</time>
			</trkpt>
			<trkpt lat="48.60564" lon="15.61663">
				<ele>404.1</ele>
				<time>2025-07-29T04:20:47.749Z</time>
			</trkpt>
			<trkpt lat="48.60538" lon="15.61645">
				<ele>404.74</ele>
				<time>2025-07-29T04:20:49.441Z</time>
			</trkpt>
			<trkpt lat="48.60515" lon="15.61633">
				<ele>405.54</ele>
				<time>2025-07-29T04:20:50.878Z</time>
			</trkpt>
			<trkpt lat="48.60507" lon="15.61626">
				<ele>405.84</ele>
				<time>2025-07-29T04:20:51.423Z</time>
			</trkpt>
			<trkpt lat="48.60482" lon="15.61599">
				<ele>407.03</ele>
				<time>2025-07-29T04:20:53.232Z</time>
			</trkpt>
			<trkpt lat="48.60449" lon="15.61622">
				<ele>407.81</ele>
				<time>2025-07-29T04:20:55.366Z</time>
			</trkpt>
			<trkpt lat="48.60437" lon="15.61643">
				<ele>408.25</ele>
				<time>2025-07-29T04:20:56.442Z</time>
			</trkpt>
			<trkpt lat="48.60429" lon="15.61666">
				<ele>408.54</ele>
				<time>2025-07-29T04:20:57.449Z</time>
			</trkpt>
			<trkpt lat="48.60395" lon="15.61785">
				<ele>412.52</ele>
				<time>2025-07-29T04:21:02.450Z</time>
			</trkpt>
			<trkpt lat="48.60387" lon="15.61803">
				<ele>413.06</ele>
				<time>2025-07-29T04:21:03.284Z</time>
			</trkpt>
			<trkpt lat="48.60381" lon="15.61811">
				<ele>413.1</ele>
				<time>2025-07-29T04:21:03.748Z</time>
			</trkpt>
			<trkpt lat="48.6037" lon="15.61819">
				<ele>413.47</ele>
				<time>2025-07-29T04:21:04.457Z</time>
			</trkpt>
			<trkpt lat="48.60341" lon="15.61823">
				<ele>413.73</ele>
				<time>2025-07-29T04:21:06.145Z</time>
			</trkpt>
			<trkpt lat="48.60317" lon="15.61822">
				<ele>413.04</ele>
				<time>2025-07-29T04:21:07.535Z</time>
			</trkpt>
			<trkpt lat="48.6008" lon="15.61793">
				<ele>424.91</ele>
				<time>2025-07-29T04:21:21.174Z</time>
			</trkpt>
			<trkpt lat="48.60018" lon="15.61774">
				<ele>426.11</ele>
				<time>2025-07-29T04:21:24.768Z</time>
			</trkpt>
			<trkpt lat="48.59983" lon="15.61512">
				<ele>434.38</ele>
				<time>2025-07-29T04:21:34.735Z</time>
			</trkpt>
			<trkpt lat="48.59967" lon="15.61301">
				<ele>436.06</ele>
				<time>2025-07-29T04:21:42.579Z</time>
			</trkpt>
			<trkpt lat="48.5996" lon="15.61239">
				<ele>436.34</ele>
				<time>2025-07-29T04:21:44.890Z</time>
			</trkpt>
			<trkpt lat="48.59891" lon="15.60916">
				<ele>430</ele>
				<time>2025-07-29T04:21:57.271Z</time>
			</trkpt>
			<trkpt lat="48.59875" lon="15.60862">
				<ele>431.88</ele>
				<time>2025-07-29T04:21:59.415Z</time>
			</trkpt>
			<trkpt lat="48.59869" lon="15.60847">
				<ele>433.71</ele>
				<time>2025-07-29T04:22:00.049Z</time>
			</trkpt>
			<trkpt lat="48.59853" lon="15.60826">
				<ele>437.1</ele>
				<time>2025-07-29T04:22:01.207Z</time>
			</trkpt>
			<trkpt lat="48.59804" lon="15.60786">
				<ele>443.82</ele>
				<time>2025-07-29T04:22:04.244Z</time>
			</trkpt>
			<trkpt lat="48.59735" lon="15.60721">
				<ele>456.07</ele>
				<time>2025-07-29T04:22:08.664Z</time>
			</trkpt>
			<trkpt lat="48.59716" lon="15.60706">
				<ele>459.34</ele>
				<time>2025-07-29T04:22:09.827Z</time>
			</trkpt>
			<trkpt lat="48.59672" lon="15.60676">
				<ele>467.04</ele>
				<time>2025-07-29T04:22:12.440Z</time>
			</trkpt>
			<trkpt lat="48.59587" lon="15.60626">
				<ele>468.86</ele>
				<time>2025-07-29T04:22:17.362Z</time>
			</trkpt>
			<trkpt lat="48.59547" lon="15.60597">
				<ele>470.98</ele>
				<time>2025-07-29T04:22:19.748Z</time>
			</trkpt>
			<trkpt lat="48.59529" lon="15.60573">
				<ele>473.28</ele>
				<time>2025-07-29T04:22:21.033Z</time>
			</trkpt>
			<trkpt lat="48.59451" lon="15.60439">
				<ele>484</ele>
				<time>2025-07-29T04:22:27.305Z</time>
			</trkpt>
			<trkpt lat="48.59444" lon="15.60424">
				<ele>484</ele>
				<time>2025-07-29T04:22:27.945Z</time>
			</trkpt>
			<trkpt lat="48.59439" lon="15.60405">
				<ele>483.42</ele>
				<time>2025-07-29T04:22:28.656Z</time>
			</trkpt>
			<trkpt lat="48.59434" lon="15.60385">
				<ele>482.53</ele>
				<time>2025-07-29T04:22:29.400Z</time>
			</trkpt>
			<trkpt lat="48.59432" lon="15.60362">
				<ele>481.63</ele>
				<time>2025-07-29T04:22:30.204Z</time>
			</trkpt>
			<trkpt lat="48.59436" lon="15.60191">
				<ele>485.02</ele>
				<time>2025-07-29T04:22:36.098Z</time>
			</trkpt>
			<trkpt lat="48.59441" lon="15.60108">
				<ele>486.21</ele>
				<time>2025-07-29T04:22:38.942Z</time>
			</trkpt>
			<trkpt lat="48.59444" lon="15.60086">
				<ele>486.92</ele>
				<time>2025-07-29T04:22:39.705Z</time>
			</trkpt>
			<trkpt lat="48.59449" lon="15.60066">
				<ele>487.86</ele>
				<time>2025-07-29T04:22:40.431Z</time>
			</trkpt>
			<trkpt lat="48.59465" lon="15.60032">
				<ele>489.76</ele>
				<time>2025-07-29T04:22:41.843Z</time>
			</trkpt>
			<trkpt lat="48.59514" lon="15.59964">
				<ele>490.57</ele>
				<time>2025-07-29T04:22:45.231Z</time>
			</trkpt>
			<trkpt lat="48.59522" lon="15.5995">
				<ele>490.05</ele>
				<time>2025-07-29T04:22:45.851Z</time>
			</trkpt>
			<trkpt lat="48.59527" lon="15.59935">
				<ele>489.68</ele>
				<time>2025-07-29T04:22:46.414Z</time>
			</trkpt>
			<trkpt lat="48.59533" lon="15.59912">
				<ele>488.87</ele>
				<time>2025-07-29T04:22:47.241Z</time>
			</trkpt>
			<trkpt lat="48.59534" lon="15.59891">
				<ele>488.3</ele>
				<time>2025-07-29T04:22:47.944Z</time>
			</trkpt>
			<trkpt lat="48.59532" lon="15.59706">
				<ele>487.51</ele>
				<time>2025-07-29T04:22:54.079Z</time>
			</trkpt>
			<trkpt lat="48.59529" lon="15.59589">
				<ele>491.32</ele>
				<time>2025-07-29T04:22:57.922Z</time>
			</trkpt>
			<trkpt lat="48.59527" lon="15.59541">
				<ele>489.46</ele>
				<time>2025-07-29T04:22:59.492Z</time>
			</trkpt>
			<trkpt lat="48.59522" lon="15.59504">
				<ele>489.48</ele>
				<time>2025-07-29T04:23:00.721Z</time>
			</trkpt>
			<trkpt lat="48.59503" lon="15.59412">
				<ele>495.62</ele>
				<time>2025-07-29T04:23:03.845Z</time>
			</trkpt>
			<trkpt lat="48.59489" lon="15.59357">
				<ele>497.02</ele>
				<time>2025-07-29T04:23:05.745Z</time>
			</trkpt>
			<trkpt lat="48.59475" lon="15.59315">
				<ele>498.57</ele>
				<time>2025-07-29T04:23:07.257Z</time>
			</trkpt>
			<trkpt lat="48.59465" lon="15.59291">
				<ele>500.62</ele>
				<time>2025-07-29T04:23:08.167Z</time>
			</trkpt>
			<trkpt lat="48.59453" lon="15.59274">
				<ele>501.92</ele>
				<time>2025-07-29T04:23:08.963Z</time>
			</trkpt>
			<trkpt lat="48.59438" lon="15.59258">
				<ele>502.07</ele>
				<time>2025-07-29T04:23:09.850Z</time>
			</trkpt>
			<trkpt lat="48.59383" lon="15.59211">
				<ele>501.64</ele>
				<time>2025-07-29T04:23:12.892Z</time>
			</trkpt>
			<trkpt lat="48.59367" lon="15.59191">
				<ele>500.46</ele>
				<time>2025-07-29T04:23:13.888Z</time>
			</trkpt>
			<trkpt lat="48.59355" lon="15.5917">
				<ele>499.19</ele>
				<time>2025-07-29T04:23:14.767Z</time>
			</trkpt>
			<trkpt lat="48.59334" lon="15.59113">
				<ele>497.94</ele>
				<time>2025-07-29T04:23:16.828Z</time>
			</trkpt>
			<trkpt lat="48.59302" lon="15.59009">
				<ele>497.58</ele>
				<time>2025-07-29T04:23:20.432Z</time>
			</trkpt>
			<trkpt lat="48.59288" lon="15.58959">
				<ele>498.38</ele>
				<time>2025-07-29T04:23:22.130Z</time>
			</trkpt>
			<trkpt lat="48.59278" lon="15.58908">
				<ele>499</ele>
				<time>2025-07-29T04:23:23.789Z</time>
			</trkpt>
			<trkpt lat="48.59264" lon="15.58815">
				<ele>499.45</ele>
				<time>2025-07-29T04:23:26.751Z</time>
			</trkpt>
			<trkpt lat="48.59259" lon="15.58773">
				<ele>501.93</ele>
				<time>2025-07-29T04:23:28.072Z</time>
			</trkpt>
			<trkpt lat="48.59258" lon="15.58737">
				<ele>504</ele>
				<time>2025-07-29T04:23:29.185Z</time>
			</trkpt>
			<trkpt lat="48.5926" lon="15.58705">
				<ele>505.78</ele>
				<time>2025-07-29T04:23:30.176Z</time>
			</trkpt>
			<trkpt lat="48.59275" lon="15.58623">
				<ele>507.78</ele>
				<time>2025-07-29T04:23:32.791Z</time>
			</trkpt>
			<trkpt lat="48.59276" lon="15.58593">
				<ele>507.88</ele>
				<time>2025-07-29T04:23:33.712Z</time>
			</trkpt>
			<trkpt lat="48.5927" lon="15.58506">
				<ele>506.66</ele>
				<time>2025-07-29T04:23:36.385Z</time>
			</trkpt>
			<trkpt lat="48.59255" lon="15.58362">
				<ele>512.96</ele>
				<time>2025-07-29T04:23:40.817Z</time>
			</trkpt>
			<trkpt lat="48.59251" lon="15.58086">
				<ele>513</ele>
				<time>2025-07-29T04:23:49.131Z</time>
			</trkpt>
			<trkpt lat="48.59245" lon="15.58002">
				<ele>514.64</ele>
				<time>2025-07-29T04:23:51.657Z</time>
			</trkpt>
			<trkpt lat="48.59199" lon="15.5764">
				<ele>517.15</ele>
				<time>2025-07-29T04:24:02.586Z</time>
			</trkpt>
			<trkpt lat="48.59195" lon="15.5758">
				<ele>519.05</ele>
				<time>2025-07-29T04:24:04.361Z</time>
			</trkpt>
			<trkpt lat="48.59198" lon="15.57435">
				<ele>521.43</ele>
				<time>2025-07-29T04:24:08.619Z</time>
			</trkpt>
			<trkpt lat="48.59202" lon="15.57382">
				<ele>522.51</ele>
				<time>2025-07-29T04:24:10.180Z</time>
			</trkpt>
			<trkpt lat="48.59218" lon="15.57231">
				<ele>529.28</ele>
				<time>2025-07-29T04:24:14.643Z</time>
			</trkpt>
			<trkpt lat="48.59222" lon="15.5712">
				<ele>529.14</ele>
				<time>2025-07-29T04:24:17.878Z</time>
			</trkpt>
			<trkpt lat="48.59227" lon="15.57074">
				<ele>529.4</ele>
				<time>2025-07-29T04:24:19.231Z</time>
			</trkpt>
			<trkpt lat="48.59237" lon="15.57028">
				<ele>529.08</ele>
				<time>2025-07-29T04:24:20.636Z</time>
			</trkpt>
			<trkpt lat="48.5925" lon="15.5698">
				<ele>529.3</ele>
				<time>2025-07-29T04:24:22.140Z</time>
			</trkpt>
			<trkpt lat="48.59278" lon="15.56905">
				<ele>529.64</ele>
				<time>2025-07-29T04:24:24.633Z</time>
			</trkpt>
			<trkpt lat="48.59408" lon="15.56566">
				<ele>534.3</ele>
				<time>2025-07-29T04:24:35.938Z</time>
			</trkpt>
			<trkpt lat="48.59424" lon="15.56534">
				<ele>535</ele>
				<time>2025-07-29T04:24:37.092Z</time>
			</trkpt>
			<trkpt lat="48.59475" lon="15.56458">
				<ele>535.11</ele>
				<time>2025-07-29T04:24:40.206Z</time>
			</trkpt>
			<trkpt lat="48.59483" lon="15.56442">
				<ele>535.4</ele>
				<time>2025-07-29T04:24:40.782Z</time>
			</trkpt>
			<trkpt lat="48.59495" lon="15.56411">
				<ele>535.83</ele>
				<time>2025-07-29T04:24:41.815Z</time>
			</trkpt>
			<trkpt lat="48.595" lon="15.56392">
				<ele>536.01</ele>
				<time>2025-07-29T04:24:42.403Z</time>
			</trkpt>
			<trkpt lat="48.59507" lon="15.5635">
				<ele>536.17</ele>
				<time>2025-07-29T04:24:43.647Z</time>
			</trkpt>
			<trkpt lat="48.5953" lon="15.56176">
				<ele>539.56</ele>
				<time>2025-07-29T04:24:48.745Z</time>
			</trkpt>
			<trkpt lat="48.59538" lon="15.56127">
				<ele>539.25</ele>
				<time>2025-07-29T04:24:50.194Z</time>
			</trkpt>
			<trkpt lat="48.59561" lon="15.5601">
				<ele>537.16</ele>
				<time>2025-07-29T04:24:53.701Z</time>
			</trkpt>
			<trkpt lat="48.59564" lon="15.55984">
				<ele>536.29</ele>
				<time>2025-07-29T04:24:54.459Z</time>
			</trkpt>
			<trkpt lat="48.59568" lon="15.55943">
				<ele>536.03</ele>
				<time>2025-07-29T04:24:55.650Z</time>
			</trkpt>
			<trkpt lat="48.59569" lon="15.55902">
				<ele>537.74</ele>
				<time>2025-07-29T04:24:56.830Z</time>
			</trkpt>
			<trkpt lat="48.59563" lon="15.55839">
				<ele>538.59</ele>
				<time>2025-07-29T04:24:58.660Z</time>
			</trkpt>
			<trkpt lat="48.59543" lon="15.55712">
				<ele>541.15</ele>
				<time>2025-07-29T04:25:02.416Z</time>
			</trkpt>
			<trkpt lat="48.59514" lon="15.5557">
				<ele>543.21</ele>
				<time>2025-07-29T04:25:06.699Z</time>
			</trkpt>
			<trkpt lat="48.59509" lon="15.55533">
				<ele>544.1</ele>
				<time>2025-07-29T04:25:07.788Z</time>
			</trkpt>
			<trkpt lat="48.59508" lon="15.55514">
				<ele>544.56</ele>
				<time>2025-07-29T04:25:08.338Z</time>
			</trkpt>
			<trkpt lat="48.59508" lon="15.55479">
				<ele>544.92</ele>
				<time>2025-07-29T04:25:09.349Z</time>
			</trkpt>
			<trkpt lat="48.59509" lon="15.5546">
				<ele>544.58</ele>
				<time>2025-07-29T04:25:09.899Z</time>
			</trkpt>
			<trkpt lat="48.59513" lon="15.55442">
				<ele>543.96</ele>
				<time>2025-07-29T04:25:10.448Z</time>
			</trkpt>
			<trkpt lat="48.59526" lon="15.5541">
				<ele>543.7</ele>
				<time>2025-07-29T04:25:11.533Z</time>
			</trkpt>
			<trkpt lat="48.59561" lon="15.55347">
				<ele>540.23</ele>
				<time>2025-07-29T04:25:13.913Z</time>
			</trkpt>
			<trkpt lat="48.59568" lon="15.5533">
				<ele>539.25</ele>
				<time>2025-07-29T04:25:14.493Z</time>
			</trkpt>
			<trkpt lat="48.59571" lon="15.55313">
				<ele>539.05</ele>
				<time>2025-07-29T04:25:15.003Z</time>
			</trkpt>
			<trkpt lat="48.59575" lon="15.55279">
				<ele>539.5</ele>
				<time>2025-07-29T04:25:16.003Z</time>
			</trkpt>
			<trkpt lat="48.59487" lon="15.55219">
				<ele>540.1</ele>
				<time>2025-07-29T04:25:20.241Z</time>
			</trkpt>
			<trkpt lat="48.59467" lon="15.55208">
				<ele>540.71</ele>
				<time>2025-07-29T04:25:21.177Z</time>
			</trkpt>
			<trkpt lat="48.59446" lon="15.55203">
				<ele>542.2</ele>
				<time>2025-07-29T04:25:22.112Z</time>
			</trkpt>
			<trkpt lat="48.59417" lon="15.55202">
				<ele>542.43</ele>
				<time>2025-07-29T04:25:23.390Z</time>
			</trkpt>
			<trkpt lat="48.59394" lon="15.55204">
				<ele>543.06</ele>
				<time>2025-07-29T04:25:24.406Z</time>
			</trkpt>
			<trkpt lat="48.5938" lon="15.55208">
				<ele>543.15</ele>
				<time>2025-07-29T04:25:25.035Z</time>
			</trkpt>
			<trkpt lat="48.59342" lon="15.55225">
				<ele>543.08</ele>
				<time>2025-07-29T04:25:26.785Z</time>
			</trkpt>
			<trkpt lat="48.59308" lon="15.55233">
				<ele>543.39</ele>
				<time>2025-07-29T04:25:28.307Z</time>
			</trkpt>
			<trkpt lat="48.59267" lon="15.55223">
				<ele>543.44</ele>
				<time>2025-07-29T04:25:30.147Z</time>
			</trkpt>
			<trkpt lat="48.59198" lon="15.55172">
				<ele>548.59</ele>
				<time>2025-07-29T04:25:33.558Z</time>
			</trkpt>
			<trkpt lat="48.59122" lon="15.55126">
				<ele>552.27</ele>
				<time>2025-07-29T04:25:37.208Z</time>
			</trkpt>
			<trkpt lat="48.5901" lon="15.55064">
				<ele>557.61</ele>
				<time>2025-07-29T04:25:42.553Z</time>
			</trkpt>
			<trkpt lat="48.58974" lon="15.5505">
				<ele>558.93</ele>
				<time>2025-07-29T04:25:44.225Z</time>
			</trkpt>
			<trkpt lat="48.58956" lon="15.55047">
				<ele>559.57</ele>
				<time>2025-07-29T04:25:45.042Z</time>
			</trkpt>
			<trkpt lat="48.58933" lon="15.55047">
				<ele>560.48</ele>
				<time>2025-07-29T04:25:46.079Z</time>
			</trkpt>
			<trkpt lat="48.58835" lon="15.55066">
				<ele>564</ele>
				<time>2025-07-29T04:25:50.554Z</time>
			</trkpt>
			<trkpt lat="48.58823" lon="15.55062">
				<ele>565.19</ele>
				<time>2025-07-29T04:25:51.112Z</time>
			</trkpt>
			<trkpt lat="48.58801" lon="15.55051">
				<ele>567.42</ele>
				<time>2025-07-29T04:25:52.167Z</time>
			</trkpt>
			<trkpt lat="48.58782" lon="15.55034">
				<ele>568.67</ele>
				<time>2025-07-29T04:25:53.172Z</time>
			</trkpt>
			<trkpt lat="48.58761" lon="15.55006">
				<ele>571.12</ele>
				<time>2025-07-29T04:25:54.450Z</time>
			</trkpt>
			<trkpt lat="48.58743" lon="15.54973">
				<ele>573.37</ele>
				<time>2025-07-29T04:25:55.744Z</time>
			</trkpt>
			<trkpt lat="48.58722" lon="15.54944">
				<ele>577</ele>
				<time>2025-07-29T04:25:57.046Z</time>
			</trkpt>
			<trkpt lat="48.58708" lon="15.54929">
				<ele>577.25</ele>
				<time>2025-07-29T04:25:57.834Z</time>
			</trkpt>
			<trkpt lat="48.5868" lon="15.54905">
				<ele>579.22</ele>
				<time>2025-07-29T04:25:59.313Z</time>
			</trkpt>
			<trkpt lat="48.58643" lon="15.54882">
				<ele>580.87</ele>
				<time>2025-07-29T04:26:01.152Z</time>
			</trkpt>
			<trkpt lat="48.58588" lon="15.54859">
				<ele>580.92</ele>
				<time>2025-07-29T04:26:03.764Z</time>
			</trkpt>
			<trkpt lat="48.58551" lon="15.54849">
				<ele>579.18</ele>
				<time>2025-07-29T04:26:05.477Z</time>
			</trkpt>
			<trkpt lat="48.5852" lon="15.54835">
				<ele>576.77</ele>
				<time>2025-07-29T04:26:06.948Z</time>
			</trkpt>
			<trkpt lat="48.58478" lon="15.54811">
				<ele>575.82</ele>
				<time>2025-07-29T04:26:08.983Z</time>
			</trkpt>
			<trkpt lat="48.58436" lon="15.5478">
				<ele>575.97</ele>
				<time>2025-07-29T04:26:11.095Z</time>
			</trkpt>
			<trkpt lat="48.58419" lon="15.54763">
				<ele>575.94</ele>
				<time>2025-07-29T04:26:12.014Z</time>
			</trkpt>
			<trkpt lat="48.58372" lon="15.54707">
				<ele>576.39</ele>
				<time>2025-07-29T04:26:14.705Z</time>
			</trkpt>
			<trkpt lat="48.58327" lon="15.54658">
				<ele>576</ele>
				<time>2025-07-29T04:26:17.192Z</time>
			</trkpt>
			<trkpt lat="48.58305" lon="15.54623">
				<ele>576.55</ele>
				<time>2025-07-29T04:26:18.621Z</time>
			</trkpt>
			<trkpt lat="48.58274" lon="15.54556">
				<ele>577.95</ele>
				<time>2025-07-29T04:26:21.037Z</time>
			</trkpt>
			<trkpt lat="48.58242" lon="15.54496">
				<ele>579.04</ele>
				<time>2025-07-29T04:26:23.311Z</time>
			</trkpt>
			<trkpt lat="48.58232" lon="15.54486">
				<ele>577.92</ele>
				<time>2025-07-29T04:26:23.845Z</time>
			</trkpt>
			<trkpt lat="48.58221" lon="15.54478">
				<ele>576.86</ele>
				<time>2025-07-29T04:26:24.388Z</time>
			</trkpt>
			<trkpt lat="48.58207" lon="15.54473">
				<ele>574.88</ele>
				<time>2025-07-29T04:26:25.029Z</time>
			</trkpt>
			<trkpt lat="48.5819" lon="15.54473">
				<ele>572.87</ele>
				<time>2025-07-29T04:26:25.785Z</time>
			</trkpt>
			<trkpt lat="48.58171" lon="15.54477">
				<ele>572.07</ele>
				<time>2025-07-29T04:26:26.639Z</time>
			</trkpt>
			<trkpt lat="48.58121" lon="15.54494">
				<ele>569.55</ele>
				<time>2025-07-29T04:26:28.917Z</time>
			</trkpt>
			<trkpt lat="48.5804" lon="15.54531">
				<ele>564.4</ele>
				<time>2025-07-29T04:26:32.677Z</time>
			</trkpt>
			<trkpt lat="48.57795" lon="15.54671">
				<ele>543.31</ele>
				<time>2025-07-29T04:26:44.334Z</time>
			</trkpt>
			<trkpt lat="48.5777" lon="15.54689">
				<ele>541.38</ele>
				<time>2025-07-29T04:26:45.570Z</time>
			</trkpt>
			<trkpt lat="48.57697" lon="15.54759">
				<ele>540.4</ele>
				<time>2025-07-29T04:26:49.442Z</time>
			</trkpt>
			<trkpt lat="48.57668" lon="15.54784">
				<ele>539.74</ele>
				<time>2025-07-29T04:26:50.941Z</time>
			</trkpt>
			<trkpt lat="48.57631" lon="15.54806">
				<ele>539.22</ele>
				<time>2025-07-29T04:26:52.730Z</time>
			</trkpt>
			<trkpt lat="48.57607" lon="15.54815">
				<ele>539.53</ele>
				<time>2025-07-29T04:26:53.845Z</time>
			</trkpt>
			<trkpt lat="48.57559" lon="15.54668">
				<ele>540.43</ele>
				<time>2025-07-29T04:26:58.757Z</time>
			</trkpt>
			<trkpt lat="48.57545" lon="15.54607">
				<ele>540.35</ele>
				<time>2025-07-29T04:27:00.703Z</time>
			</trkpt>
			<trkpt lat="48.5753" lon="15.5453">
				<ele>542.06</ele>
				<time>2025-07-29T04:27:03.132Z</time>
			</trkpt>
			<trkpt lat="48.57523" lon="15.54484">
				<ele>542</ele>
				<time>2025-07-29T04:27:04.565Z</time>
			</trkpt>
			<trkpt lat="48.57525" lon="15.54389">
				<ele>541.03</ele>
				<time>2025-07-29T04:27:07.465Z</time>
			</trkpt>
			<trkpt lat="48.5754" lon="15.54163">
				<ele>532</ele>
				<time>2025-07-29T04:27:14.473Z</time>
			</trkpt>
			<trkpt lat="48.57545" lon="15.54124">
				<ele>530.92</ele>
				<time>2025-07-29T04:27:15.711Z</time>
			</trkpt>
			<trkpt lat="48.57561" lon="15.54024">
				<ele>527.79</ele>
				<time>2025-07-29T04:27:18.935Z</time>
			</trkpt>
			<trkpt lat="48.57585" lon="15.53889">
				<ele>526.78</ele>
				<time>2025-07-29T04:27:23.363Z</time>
			</trkpt>
			<trkpt lat="48.57601" lon="15.53819">
				<ele>527.01</ele>
				<time>2025-07-29T04:27:25.732Z</time>
			</trkpt>
			<trkpt lat="48.57696" lon="15.53551">
				<ele>537.73</ele>
				<time>2025-07-29T04:27:35.641Z</time>
			</trkpt>
			<trkpt lat="48.57732" lon="15.534">
				<ele>538.95</ele>
				<time>2025-07-29T04:27:41.003Z</time>
			</trkpt>
			<trkpt lat="48.57736" lon="15.53331">
				<ele>538.29</ele>
				<time>2025-07-29T04:27:43.347Z</time>
			</trkpt>
			<trkpt lat="48.57731" lon="15.53284">
				<ele>536.6</ele>
				<time>2025-07-29T04:27:44.968Z</time>
			</trkpt>
			<trkpt lat="48.57722" lon="15.53255">
				<ele>535.36</ele>
				<time>2025-07-29T04:27:46.064Z</time>
			</trkpt>
			<trkpt lat="48.57708" lon="15.53234">
				<ele>533.07</ele>
				<time>2025-07-29T04:27:47.086Z</time>
			</trkpt>
			<trkpt lat="48.57673" lon="15.53223">
				<ele>532.24</ele>
				<time>2025-07-29T04:27:48.948Z</time>
			</trkpt>
			<trkpt lat="48.5764" lon="15.53221">
				<ele>530.85</ele>
				<time>2025-07-29T04:27:50.678Z</time>
			</trkpt>
			<trkpt lat="48.57608" lon="15.53222">
				<ele>530.22</ele>
				<time>2025-07-29T04:27:52.362Z</time>
			</trkpt>
			<trkpt lat="48.57581" lon="15.53229">
				<ele>532.23</ele>
				<time>2025-07-29T04:27:53.810Z</time>
			</trkpt>
			<trkpt lat="48.5755" lon="15.53249">
				<ele>532.69</ele>
				<time>2025-07-29T04:27:55.599Z</time>
			</trkpt>
			<trkpt lat="48.57511" lon="15.53278">
				<ele>530.19</ele>
				<time>2025-07-29T04:27:57.918Z</time>
			</trkpt>
			<trkpt lat="48.57498" lon="15.53284">
				<ele>529.1</ele>
				<time>2025-07-29T04:27:58.646Z</time>
			</trkpt>
			<trkpt lat="48.5748" lon="15.5328">
				<ele>527.11</ele>
				<time>2025-07-29T04:27:59.623Z</time>
			</trkpt>
			<trkpt lat="48.57416" lon="15.53264">
				<ele>527.64</ele>
				<time>2025-07-29T04:28:03.125Z</time>
			</trkpt>
			<trkpt lat="48.57359" lon="15.53267">
				<ele>529.57</ele>
				<time>2025-07-29T04:28:06.227Z</time>
			</trkpt>
			<trkpt lat="48.57296" lon="15.53253">
				<ele>522.9</ele>
				<time>2025-07-29T04:28:09.717Z</time>
			</trkpt>
			<trkpt lat="48.57267" lon="15.53259">
				<ele>526.34</ele>
				<time>2025-07-29T04:28:11.329Z</time>
			</trkpt>
			<trkpt lat="48.57228" lon="15.53275">
				<ele>528.11</ele>
				<time>2025-07-29T04:28:13.565Z</time>
			</trkpt>
			<trkpt lat="48.57173" lon="15.53311">
				<ele>527.97</ele>
				<time>2025-07-29T04:28:16.898Z</time>
			</trkpt>
			<trkpt lat="48.57088" lon="15.53381">
				<ele>527.51</ele>
				<time>2025-07-29T04:28:22.325Z</time>
			</trkpt>
			<trkpt lat="48.57061" lon="15.53398">
				<ele>526.36</ele>
				<time>2025-07-29T04:28:23.975Z</time>
			</trkpt>
			<trkpt lat="48.57032" lon="15.53401">
				<ele>524.7</ele>
				<time>2025-07-29T04:28:25.619Z</time>
			</trkpt>
			<trkpt lat="48.57024" lon="15.534">
				<ele>524.6</ele>
				<time>2025-07-29T04:28:26.074Z</time>
			</trkpt>
			<trkpt lat="48.57016" lon="15.53389">
				<ele>524.82</ele>
				<time>2025-07-29T04:28:26.687Z</time>
			</trkpt>
			<trkpt lat="48.56993" lon="15.5334">
				<ele>527.47</ele>
				<time>2025-07-29T04:28:28.947Z</time>
			</trkpt>
			<trkpt lat="48.56962" lon="15.53262">
				<ele>533.32</ele>
				<time>2025-07-29T04:28:32.383Z</time>
			</trkpt>
			<trkpt lat="48.56939" lon="15.53211">
				<ele>533.05</ele>
				<time>2025-07-29T04:28:34.724Z</time>
			</trkpt>
			<trkpt lat="48.56901" lon="15.53184">
				<ele>537.17</ele>
				<time>2025-07-29T04:28:37.139Z</time>
			</trkpt>
			<trkpt lat="48.56787" lon="15.53163">
				<ele>546.71</ele>
				<time>2025-07-29T04:28:43.780Z</time>
			</trkpt>
			<trkpt lat="48.56695" lon="15.53084">
				<ele>542.12</ele>
				<time>2025-07-29T04:28:49.944Z</time>
			</trkpt>
			<trkpt lat="48.56671" lon="15.53082">
				<ele>550.09</ele>
				<time>2025-07-29T04:28:51.350Z</time>
			</trkpt>
			<trkpt lat="48.56642" lon="15.5309">
				<ele>557.07</ele>
				<time>2025-07-29T04:28:53.076Z</time>
			</trkpt>
			<trkpt lat="48.56614" lon="15.53073">
				<ele>557.8</ele>
				<time>2025-07-29T04:28:54.846Z</time>
			</trkpt>
			<trkpt lat="48.56566" lon="15.53009">
				<ele>556.54</ele>
				<time>2025-07-29T04:28:58.610Z</time>
			</trkpt>
			<trkpt lat="48.56528" lon="15.5298">
				<ele>553.88</ele>
				<time>2025-07-29T04:29:01.119Z</time>
			</trkpt>
			<trkpt lat="48.56517" lon="15.52979">
				<ele>553.01</ele>
				<time>2025-07-29T04:29:01.770Z</time>
			</trkpt>
			<trkpt lat="48.56476" lon="15.52994">
				<ele>551.01</ele>
				<time>2025-07-29T04:29:04.262Z</time>
			</trkpt>
			<trkpt lat="48.56427" lon="15.53022">
				<ele>552.52</ele>
				<time>2025-07-29T04:29:07.363Z</time>
			</trkpt>
			<trkpt lat="48.56348" lon="15.53062">
				<ele>550.27</ele>
				<time>2025-07-29T04:29:12.306Z</time>
			</trkpt>
			<trkpt lat="48.56327" lon="15.53069">
				<ele>549.39</ele>
				<time>2025-07-29T04:29:13.584Z</time>
			</trkpt>
			<trkpt lat="48.56261" lon="15.5308">
				<ele>552.27</ele>
				<time>2025-07-29T04:29:17.535Z</time>
			</trkpt>
			<trkpt lat="48.56045" lon="15.53151">
				<ele>558.52</ele>
				<time>2025-07-29T04:29:30.725Z</time>
			</trkpt>
			<trkpt lat="48.56029" lon="15.53152">
				<ele>560.32</ele>
				<time>2025-07-29T04:29:31.682Z</time>
			</trkpt>
			<trkpt lat="48.56007" lon="15.53151">
				<ele>560.59</ele>
				<time>2025-07-29T04:29:32.997Z</time>
			</trkpt>
			<trkpt lat="48.55961" lon="15.53142">
				<ele>560.1</ele>
				<time>2025-07-29T04:29:35.770Z</time>
			</trkpt>
			<trkpt lat="48.55889" lon="15.53139">
				<ele>560.15</ele>
				<time>2025-07-29T04:29:40.075Z</time>
			</trkpt>
			<trkpt lat="48.55894" lon="15.52967">
				<ele>555.3</ele>
				<time>2025-07-29T04:29:46.884Z</time>
			</trkpt>
			<trkpt lat="48.55899" lon="15.52876">
				<ele>558.54</ele>
				<time>2025-07-29T04:29:50.492Z</time>
			</trkpt>
			<trkpt lat="48.55908" lon="15.52844">
				<ele>560.93</ele>
				<time>2025-07-29T04:29:51.865Z</time>
			</trkpt>
			<trkpt lat="48.55924" lon="15.52828">
				<ele>562.91</ele>
				<time>2025-07-29T04:29:53.009Z</time>
			</trkpt>
			<trkpt lat="48.55935" lon="15.52826">
				<ele>563.8</ele>
				<time>2025-07-29T04:29:53.670Z</time>
			</trkpt>
			<trkpt lat="48.5595" lon="15.52828">
				<ele>564.94</ele>
				<time>2025-07-29T04:29:54.567Z</time>
			</trkpt>
			<trkpt lat="48.55996" lon="15.52865">
				<ele>564.47</ele>
				<time>2025-07-29T04:29:57.671Z</time>
			</trkpt>
			<trkpt lat="48.56016" lon="15.52863">
				<ele>564.77</ele>
				<time>2025-07-29T04:29:58.864Z</time>
			</trkpt>
			<trkpt lat="48.5603" lon="15.52852">
				<ele>565.94</ele>
				<time>2025-07-29T04:29:59.803Z</time>
			</trkpt>
			<trkpt lat="48.56041" lon="15.52833">
				<ele>567.96</ele>
				<time>2025-07-29T04:30:00.796Z</time>
			</trkpt>
			<trkpt lat="48.5609" lon="15.52643">
				<ele>575.97</ele>
				<time>2025-07-29T04:30:08.803Z</time>
			</trkpt>
			<trkpt lat="48.56106" lon="15.52562">
				<ele>574.96</ele>
				<time>2025-07-29T04:30:12.110Z</time>
			</trkpt>
			<trkpt lat="48.56127" lon="15.52485">
				<ele>578.35</ele>
				<time>2025-07-29T04:30:15.361Z</time>
			</trkpt>
			<trkpt lat="48.56158" lon="15.52384">
				<ele>577.37</ele>
				<time>2025-07-29T04:30:19.694Z</time>
			</trkpt>
			<trkpt lat="48.56172" lon="15.52343">
				<ele>577.25</ele>
				<time>2025-07-29T04:30:21.485Z</time>
			</trkpt>
			<trkpt lat="48.56237" lon="15.52199">
				<ele>575.54</ele>
				<time>2025-07-29T04:30:28.223Z</time>
			</trkpt>
			<trkpt lat="48.56257" lon="15.52144">
				<ele>573.75</ele>
				<time>2025-07-29T04:30:30.638Z</time>
			</trkpt>
			<trkpt lat="48.56286" lon="15.52057">
				<ele>569.34</ele>
				<time>2025-07-29T04:30:34.373Z</time>
			</trkpt>
			<trkpt lat="48.56303" lon="15.52017">
				<ele>566.96</ele>
				<time>2025-07-29T04:30:36.189Z</time>
			</trkpt>
			<trkpt lat="48.56314" lon="15.51995">
				<ele>564.82</ele>
				<time>2025-07-29T04:30:37.241Z</time>
			</trkpt>
			<trkpt lat="48.56414" lon="15.51856">
				<ele>559.53</ele>
				<time>2025-07-29T04:30:45.075Z</time>
			</trkpt>
			<trkpt lat="48.56447" lon="15.51817">
				<ele>559.11</ele>
				<time>2025-07-29T04:30:47.498Z</time>
			</trkpt>
			<trkpt lat="48.56462" lon="15.51799">
				<ele>558.73</ele>
				<time>2025-07-29T04:30:48.607Z</time>
			</trkpt>
			<trkpt lat="48.56518" lon="15.51749">
				<ele>556.55</ele>
				<time>2025-07-29T04:30:52.378Z</time>
			</trkpt>
			<trkpt lat="48.56548" lon="15.51727">
				<ele>555.1</ele>
				<time>2025-07-29T04:30:54.314Z</time>
			</trkpt>
			<trkpt lat="48.56561" lon="15.51712">
				<ele>555.17</ele>
				<time>2025-07-29T04:30:55.265Z</time>
			</trkpt>
			<trkpt lat="48.5657" lon="15.51686">
				<ele>555.02</ele>
				<time>2025-07-29T04:30:56.393Z</time>
			</trkpt>
			<trkpt lat="48.56603" lon="15.5154">
				<ele>558.85</ele>
				<time>2025-07-29T04:31:02.339Z</time>
			</trkpt>
			<trkpt lat="48.56652" lon="15.51358">
				<ele>553.32</ele>
				<time>2025-07-29T04:31:09.933Z</time>
			</trkpt>
			<trkpt lat="48.56667" lon="15.51308">
				<ele>552.26</ele>
				<time>2025-07-29T04:31:12.058Z</time>
			</trkpt>
			<trkpt lat="48.56674" lon="15.51272">
				<ele>550.4</ele>
				<time>2025-07-29T04:31:13.512Z</time>
			</trkpt>
			<trkpt lat="48.56676" lon="15.51222">
				<ele>547.39</ele>
				<time>2025-07-29T04:31:15.454Z</time>
			</trkpt>
			<trkpt lat="48.56674" lon="15.51159">
				<ele>544.5</ele>
				<time>2025-07-29T04:31:17.900Z</time>
			</trkpt>
			<trkpt lat="48.56674" lon="15.51089">
				<ele>540.5</ele>
				<time>2025-07-29T04:31:20.618Z</time>
			</trkpt>
			<trkpt lat="48.56684" lon="15.50993">
				<ele>532.53</ele>
				<time>2025-07-29T04:31:24.394Z</time>
			</trkpt>
			<trkpt lat="48.56687" lon="15.50942">
				<ele>528.55</ele>
				<time>2025-07-29T04:31:26.384Z</time>
			</trkpt>
			<trkpt lat="48.56699" lon="15.50817">
				<ele>521.05</ele>
				<time>2025-07-29T04:31:31.299Z</time>
			</trkpt>
			<trkpt lat="48.56721" lon="15.50709">
				<ele>516.53</ele>
				<time>2025-07-29T04:31:35.699Z</time>
			</trkpt>
			<trkpt lat="48.56733" lon="15.50678">
				<ele>515</ele>
				<time>2025-07-29T04:31:37.098Z</time>
			</trkpt>
			<trkpt lat="48.56746" lon="15.50659">
				<ele>513.33</ele>
				<time>2025-07-29T04:31:38.163Z</time>
			</trkpt>
			<trkpt lat="48.56759" lon="15.50642">
				<ele>511.77</ele>
				<time>2025-07-29T04:31:39.175Z</time>
			</trkpt>
			<trkpt lat="48.56779" lon="15.50612">
				<ele>508.04</ele>
				<time>2025-07-29T04:31:40.835Z</time>
			</trkpt>
			<trkpt lat="48.568" lon="15.50567">
				<ele>509</ele>
				<time>2025-07-29T04:31:42.981Z</time>
			</trkpt>
			<trkpt lat="48.56807" lon="15.50548">
				<ele>509.15</ele>
				<time>2025-07-29T04:31:43.829Z</time>
			</trkpt>
			<trkpt lat="48.56815" lon="15.50519">
				<ele>508.17</ele>
				<time>2025-07-29T04:31:45.053Z</time>
			</trkpt>
			<trkpt lat="48.56821" lon="15.50486">
				<ele>503.56</ele>
				<time>2025-07-29T04:31:46.388Z</time>
			</trkpt>
			<trkpt lat="48.56834" lon="15.50385">
				<ele>488.01</ele>
				<time>2025-07-29T04:31:50.399Z</time>
			</trkpt>
			<trkpt lat="48.56852" lon="15.50314">
				<ele>485.67</ele>
				<time>2025-07-29T04:31:53.364Z</time>
			</trkpt>
			<trkpt lat="48.56873" lon="15.5027">
				<ele>492.52</ele>
				<time>2025-07-29T04:31:55.479Z</time>
			</trkpt>
			<trkpt lat="48.56908" lon="15.50214">
				<ele>503.69</ele>
				<time>2025-07-29T04:31:58.482Z</time>
			</trkpt>
			<trkpt lat="48.56938" lon="15.50173">
				<ele>505.27</ele>
				<time>2025-07-29T04:32:00.864Z</time>
			</trkpt>
			<trkpt lat="48.56952" lon="15.50147">
				<ele>505.33</ele>
				<time>2025-07-29T04:32:02.171Z</time>
			</trkpt>
			<trkpt lat="48.56976" lon="15.50078">
				<ele>505.48</ele>
				<time>2025-07-29T04:32:05.208Z</time>
			</trkpt>
			<trkpt lat="48.56981" lon="15.50039">
				<ele>507.1</ele>
				<time>2025-07-29T04:32:06.755Z</time>
			</trkpt>
			<trkpt lat="48.56988" lon="15.49763">
				<ele>512.5</ele>
				<time>2025-07-29T04:32:17.503Z</time>
			</trkpt>
			<trkpt lat="48.56976" lon="15.49672">
				<ele>522.86</ele>
				<time>2025-07-29T04:32:21.108Z</time>
			</trkpt>
			<trkpt lat="48.56965" lon="15.496">
				<ele>527.62</ele>
				<time>2025-07-29T04:32:23.977Z</time>
			</trkpt>
			<trkpt lat="48.56951" lon="15.49488">
				<ele>533.45</ele>
				<time>2025-07-29T04:32:28.397Z</time>
			</trkpt>
			<trkpt lat="48.56946" lon="15.49427">
				<ele>531.3</ele>
				<time>2025-07-29T04:32:30.778Z</time>
			</trkpt>
			<trkpt lat="48.56935" lon="15.49352">
				<ele>534.32</ele>
				<time>2025-07-29T04:32:33.751Z</time>
			</trkpt>
			<trkpt lat="48.56917" lon="15.49294">
				<ele>538.19</ele>
				<time>2025-07-29T04:32:36.228Z</time>
			</trkpt>
			<trkpt lat="48.5689" lon="15.49234">
				<ele>543.71</ele>
				<time>2025-07-29T04:32:39.030Z</time>
			</trkpt>
			<trkpt lat="48.56878" lon="15.49195">
				<ele>546.25</ele>
				<time>2025-07-29T04:32:40.689Z</time>
			</trkpt>
			<trkpt lat="48.5687" lon="15.49165">
				<ele>546.89</ele>
				<time>2025-07-29T04:32:41.937Z</time>
			</trkpt>
			<trkpt lat="48.56857" lon="15.49093">
				<ele>548.42</ele>
				<time>2025-07-29T04:32:44.812Z</time>
			</trkpt>
			<trkpt lat="48.56825" lon="15.48991">
				<ele>546.5</ele>
				<time>2025-07-29T04:32:49.153Z</time>
			</trkpt>
			<trkpt lat="48.56817" lon="15.48974">
				<ele>546.84</ele>
				<time>2025-07-29T04:32:49.954Z</time>
			</trkpt>
			<trkpt lat="48.56797" lon="15.48953">
				<ele>546.63</ele>
				<time>2025-07-29T04:32:51.366Z</time>
			</trkpt>
			<trkpt lat="48.56751" lon="15.48924">
				<ele>545.28</ele>
				<time>2025-07-29T04:32:54.254Z</time>
			</trkpt>
			<trkpt lat="48.56738" lon="15.489">
				<ele>543.65</ele>
				<time>2025-07-29T04:32:55.442Z</time>
			</trkpt>
			<trkpt lat="48.56731" lon="15.48876">
				<ele>542.68</ele>
				<time>2025-07-29T04:32:56.445Z</time>
			</trkpt>
			<trkpt lat="48.56724" lon="15.48813">
				<ele>542.06</ele>
				<time>2025-07-29T04:32:58.888Z</time>
			</trkpt>
			<trkpt lat="48.56722" lon="15.4849">
				<ele>541</ele>
				<time>2025-07-29T04:33:11.177Z</time>
			</trkpt>
			<trkpt lat="48.56723" lon="15.48286">
				<ele>541.06</ele>
				<time>2025-07-29T04:33:18.883Z</time>
			</trkpt>
			<trkpt lat="48.56664" lon="15.48282">
				<ele>540.24</ele>
				<time>2025-07-29T04:33:22.239Z</time>
			</trkpt>
			<trkpt lat="48.56624" lon="15.48271">
				<ele>540.88</ele>
				<time>2025-07-29T04:33:24.543Z</time>
			</trkpt>
			<trkpt lat="48.56595" lon="15.48259">
				<ele>541.56</ele>
				<time>2025-07-29T04:33:26.245Z</time>
			</trkpt>
			<trkpt lat="48.56558" lon="15.48236">
				<ele>543.4</ele>
				<time>2025-07-29T04:33:28.504Z</time>
			</trkpt>
			<trkpt lat="48.56503" lon="15.48182">
				<ele>545</ele>
				<time>2025-07-29T04:33:32.198Z</time>
			</trkpt>
			<trkpt lat="48.56481" lon="15.48152">
				<ele>544.15</ele>
				<time>2025-07-29T04:33:33.863Z</time>
			</trkpt>
			<trkpt lat="48.56411" lon="15.48041">
				<ele>544.35</ele>
				<time>2025-07-29T04:33:39.542Z</time>
			</trkpt>
			<trkpt lat="48.56389" lon="15.48009">
				<ele>545.94</ele>
				<time>2025-07-29T04:33:41.244Z</time>
			</trkpt>
			<trkpt lat="48.56351" lon="15.47966">
				<ele>548.27</ele>
				<time>2025-07-29T04:33:43.885Z</time>
			</trkpt>
			<trkpt lat="48.56328" lon="15.47946">
				<ele>548.26</ele>
				<time>2025-07-29T04:33:45.357Z</time>
			</trkpt>
			<trkpt lat="48.56304" lon="15.47932">
				<ele>549.03</ele>
				<time>2025-07-29T04:33:46.783Z</time>
			</trkpt>
			<trkpt lat="48.56286" lon="15.47922">
				<ele>549.69</ele>
				<time>2025-07-29T04:33:47.843Z</time>
			</trkpt>
			<trkpt lat="48.56252" lon="15.4791">
				<ele>551.86</ele>
				<time>2025-07-29T04:33:49.771Z</time>
			</trkpt>
			<trkpt lat="48.56253" lon="15.4789">
				<ele>551.88</ele>
				<time>2025-07-29T04:33:50.503Z</time>
			</trkpt>
			<trkpt lat="48.56261" lon="15.47852">
				<ele>552.4</ele>
				<time>2025-07-29T04:33:51.956Z</time>
			</trkpt>
			<trkpt lat="48.56284" lon="15.47798">
				<ele>553.23</ele>
				<time>2025-07-29T04:33:54.291Z</time>
			</trkpt>
			<trkpt lat="48.5633" lon="15.47746">
				<ele>554.1</ele>
				<time>2025-07-29T04:33:57.435Z</time>
			</trkpt>
			<trkpt lat="48.56393" lon="15.47682">
				<ele>557.74</ele>
				<time>2025-07-29T04:34:01.571Z</time>
			</trkpt>
			<trkpt lat="48.56467" lon="15.47637">
				<ele>560.27</ele>
				<time>2025-07-29T04:34:05.892Z</time>
			</trkpt>
			<trkpt lat="48.56506" lon="15.47596">
				<ele>558.72</ele>
				<time>2025-07-29T04:34:08.452Z</time>
			</trkpt>
			<trkpt lat="48.56529" lon="15.47567">
				<ele>554.65</ele>
				<time>2025-07-29T04:34:10.062Z</time>
			</trkpt>
			<trkpt lat="48.56557" lon="15.47513">
				<ele>546.72</ele>
				<time>2025-07-29T04:34:12.494Z</time>
			</trkpt>
			<trkpt lat="48.56563" lon="15.47492">
				<ele>544.55</ele>
				<time>2025-07-29T04:34:13.303Z</time>
			</trkpt>
			<trkpt lat="48.56571" lon="15.47458">
				<ele>542.5</ele>
				<time>2025-07-29T04:34:14.574Z</time>
			</trkpt>
			<trkpt lat="48.56577" lon="15.4741">
				<ele>541.17</ele>
				<time>2025-07-29T04:34:16.273Z</time>
			</trkpt>
			<trkpt lat="48.56586" lon="15.47366">
				<ele>541.17</ele>
				<time>2025-07-29T04:34:17.853Z</time>
			</trkpt>
			<trkpt lat="48.56604" lon="15.47325">
				<ele>540</ele>
				<time>2025-07-29T04:34:19.523Z</time>
			</trkpt>
			<trkpt lat="48.56651" lon="15.47248">
				<ele>538.08</ele>
				<time>2025-07-29T04:34:23.028Z</time>
			</trkpt>
			<trkpt lat="48.56672" lon="15.47219">
				<ele>536.81</ele>
				<time>2025-07-29T04:34:24.452Z</time>
			</trkpt>
			<trkpt lat="48.56704" lon="15.47188">
				<ele>537.19</ele>
				<time>2025-07-29T04:34:26.350Z</time>
			</trkpt>
			<trkpt lat="48.56789" lon="15.47141">
				<ele>538.05</ele>
				<time>2025-07-29T04:34:30.869Z</time>
			</trkpt>
			<trkpt lat="48.56918" lon="15.47053">
				<ele>533.01</ele>
				<time>2025-07-29T04:34:38.089Z</time>
			</trkpt>
			<trkpt lat="48.56958" lon="15.47021">
				<ele>532.59</ele>
				<time>2025-07-29T04:34:40.477Z</time>
			</trkpt>
			<trkpt lat="48.5701" lon="15.46966">
				<ele>531.34</ele>
				<time>2025-07-29T04:34:43.902Z</time>
			</trkpt>
			<trkpt lat="48.57028" lon="15.4695">
				<ele>530.78</ele>
				<time>2025-07-29T04:34:45.036Z</time>
			</trkpt>
			<trkpt lat="48.57046" lon="15.46937">
				<ele>530.33</ele>
				<time>2025-07-29T04:34:46.122Z</time>
			</trkpt>
			<trkpt lat="48.57094" lon="15.46918">
				<ele>528.46</ele>
				<time>2025-07-29T04:34:48.829Z</time>
			</trkpt>
			<trkpt lat="48.57169" lon="15.46895">
				<ele>523.88</ele>
				<time>2025-07-29T04:34:53.030Z</time>
			</trkpt>
			<trkpt lat="48.57192" lon="15.46882">
				<ele>523.05</ele>
				<time>2025-07-29T04:34:54.384Z</time>
			</trkpt>
			<trkpt lat="48.57211" lon="15.46865">
				<ele>521.96</ele>
				<time>2025-07-29T04:34:55.604Z</time>
			</trkpt>
			<trkpt lat="48.57228" lon="15.46841">
				<ele>520.91</ele>
				<time>2025-07-29T04:34:56.892Z</time>
			</trkpt>
			<trkpt lat="48.57276" lon="15.46759">
				<ele>519.05</ele>
				<time>2025-07-29T04:35:00.919Z</time>
			</trkpt>
			<trkpt lat="48.57324" lon="15.46696">
				<ele>516.64</ele>
				<time>2025-07-29T04:35:04.475Z</time>
			</trkpt>
			<trkpt lat="48.57356" lon="15.46662">
				<ele>517.02</ele>
				<time>2025-07-29T04:35:06.673Z</time>
			</trkpt>
			<trkpt lat="48.57369" lon="15.46653">
				<ele>516.83</ele>
				<time>2025-07-29T04:35:07.479Z</time>
			</trkpt>
			<trkpt lat="48.57391" lon="15.46642">
				<ele>516.76</ele>
				<time>2025-07-29T04:35:08.786Z</time>
			</trkpt>
			<trkpt lat="48.57426" lon="15.46635">
				<ele>515.62</ele>
				<time>2025-07-29T04:35:10.782Z</time>
			</trkpt>
			<trkpt lat="48.57511" lon="15.46629">
				<ele>513.57</ele>
				<time>2025-07-29T04:35:15.620Z</time>
			</trkpt>
			<trkpt lat="48.57528" lon="15.46631">
				<ele>512.99</ele>
				<time>2025-07-29T04:35:16.593Z</time>
			</trkpt>
			<trkpt lat="48.57678" lon="15.46628">
				<ele>505.31</ele>
				<time>2025-07-29T04:35:25.220Z</time>
			</trkpt>
			<trkpt lat="48.57736" lon="15.4663">
				<ele>501.92</ele>
				<time>2025-07-29T04:35:28.586Z</time>
			</trkpt>
			<trkpt lat="48.57872" lon="15.46649">
				<ele>495.7</ele>
				<time>2025-07-29T04:35:36.574Z</time>
			</trkpt>
			<trkpt lat="48.57906" lon="15.46652">
				<ele>491.66</ele>
				<time>2025-07-29T04:35:38.580Z</time>
			</trkpt>
			<trkpt lat="48.57938" lon="15.46636">
				<ele>488.66</ele>
				<time>2025-07-29T04:35:40.571Z</time>
			</trkpt>
			<trkpt lat="48.57939" lon="15.4662">
				<ele>488.64</ele>
				<time>2025-07-29T04:35:41.200Z</time>
			</trkpt>
			<trkpt lat="48.57943" lon="15.46604">
				<ele>488.55</ele>
				<time>2025-07-29T04:35:41.871Z</time>
			</trkpt>
			<trkpt lat="48.57951" lon="15.46593">
				<ele>488.35</ele>
				<time>2025-07-29T04:35:42.512Z</time>
			</trkpt>
			<trkpt lat="48.57985" lon="15.46573">
				<ele>485.37</ele>
				<time>2025-07-29T04:35:44.679Z</time>
			</trkpt>
			<trkpt lat="48.57997" lon="15.46554">
				<ele>485.21</ele>
				<time>2025-07-29T04:35:45.713Z</time>
			</trkpt>
			<trkpt lat="48.58021" lon="15.46504">
				<ele>486.06</ele>
				<time>2025-07-29T04:35:48.152Z</time>
			</trkpt>
			<trkpt lat="48.58034" lon="15.4649">
				<ele>486.31</ele>
				<time>2025-07-29T04:35:49.106Z</time>
			</trkpt>
			<trkpt lat="48.58058" lon="15.46477">
				<ele>487.92</ele>
				<time>2025-07-29T04:35:50.634Z</time>
			</trkpt>
			<trkpt lat="48.58071" lon="15.46441">
				<ele>489.72</ele>
				<time>2025-07-29T04:35:52.262Z</time>
			</trkpt>
			<trkpt lat="48.58129" lon="15.46235">
				<ele>500.52</ele>
				<time>2025-07-29T04:36:01.216Z</time>
			</trkpt>
			<trkpt lat="48.58145" lon="15.46171">
				<ele>506.03</ele>
				<time>2025-07-29T04:36:03.973Z</time>
			</trkpt>
			<trkpt lat="48.58157" lon="15.46132">
				<ele>507.65</ele>
				<time>2025-07-29T04:36:05.712Z</time>
			</trkpt>
			<trkpt lat="48.58187" lon="15.46077">
				<ele>508.8</ele>
				<time>2025-07-29T04:36:08.602Z</time>
			</trkpt>
			<trkpt lat="48.58228" lon="15.46035">
				<ele>509.07</ele>
				<time>2025-07-29T04:36:11.648Z</time>
			</trkpt>
			<trkpt lat="48.58254" lon="15.45994">
				<ele>508.68</ele>
				<time>2025-07-29T04:36:13.967Z</time>
			</trkpt>
			<trkpt lat="48.58283" lon="15.4594">
				<ele>506.95</ele>
				<time>2025-07-29T04:36:16.816Z</time>
			</trkpt>
			<trkpt lat="48.58289" lon="15.4592">
				<ele>507.42</ele>
				<time>2025-07-29T04:36:17.717Z</time>
			</trkpt>
			<trkpt lat="48.58292" lon="15.45906">
				<ele>507.65</ele>
				<time>2025-07-29T04:36:18.322Z</time>
			</trkpt>
			<trkpt lat="48.58293" lon="15.45889">
				<ele>507.87</ele>
				<time>2025-07-29T04:36:19.024Z</time>
			</trkpt>
			<trkpt lat="48.58296" lon="15.45793">
				<ele>505.03</ele>
				<time>2025-07-29T04:36:22.988Z</time>
			</trkpt>
			<trkpt lat="48.58301" lon="15.45767">
				<ele>503.94</ele>
				<time>2025-07-29T04:36:24.108Z</time>
			</trkpt>
			<trkpt lat="48.58329" lon="15.45672">
				<ele>501.4</ele>
				<time>2025-07-29T04:36:28.425Z</time>
			</trkpt>
			<trkpt lat="48.58332" lon="15.45643">
				<ele>502.73</ele>
				<time>2025-07-29T04:36:29.648Z</time>
			</trkpt>
			<trkpt lat="48.58332" lon="15.45629">
				<ele>503.02</ele>
				<time>2025-07-29T04:36:30.232Z</time>
			</trkpt>
			<trkpt lat="48.58322" lon="15.45561">
				<ele>500.76</ele>
				<time>2025-07-29T04:36:33.142Z</time>
			</trkpt>
			<trkpt lat="48.5832" lon="15.45542">
				<ele>499.18</ele>
				<time>2025-07-29T04:36:33.948Z</time>
			</trkpt>
			<trkpt lat="48.58323" lon="15.45494">
				<ele>496.7</ele>
				<time>2025-07-29T04:36:35.970Z</time>
			</trkpt>
			<trkpt lat="48.58346" lon="15.4539">
				<ele>492.91</ele>
				<time>2025-07-29T04:36:40.587Z</time>
			</trkpt>
			<trkpt lat="48.58347" lon="15.45378">
				<ele>492.73</ele>
				<time>2025-07-29T04:36:41.098Z</time>
			</trkpt>
			<trkpt lat="48.58343" lon="15.45348">
				<ele>490.91</ele>
				<time>2025-07-29T04:36:42.391Z</time>
			</trkpt>
			<trkpt lat="48.58316" lon="15.45273">
				<ele>483.29</ele>
				<time>2025-07-29T04:36:45.968Z</time>
			</trkpt>
			<trkpt lat="48.58304" lon="15.45227">
				<ele>477.83</ele>
				<time>2025-07-29T04:36:48.018Z</time>
			</trkpt>
			<trkpt lat="48.583" lon="15.45205">
				<ele>476.23</ele>
				<time>2025-07-29T04:36:48.960Z</time>
			</trkpt>
			<trkpt lat="48.58301" lon="15.45183">
				<ele>475.8</ele>
				<time>2025-07-29T04:36:49.867Z</time>
			</trkpt>
			<trkpt lat="48.58309" lon="15.45171">
				<ele>476.59</ele>
				<time>2025-07-29T04:36:50.566Z</time>
			</trkpt>
			<trkpt lat="48.58319" lon="15.45164">
				<ele>477.26</ele>
				<time>2025-07-29T04:36:51.248Z</time>
			</trkpt>
			<trkpt lat="48.58342" lon="15.45156">
				<ele>479.99</ele>
				<time>2025-07-29T04:36:52.703Z</time>
			</trkpt>
			<trkpt lat="48.58348" lon="15.45149">
				<ele>480.78</ele>
				<time>2025-07-29T04:36:53.170Z</time>
			</trkpt>
			<trkpt lat="48.5835" lon="15.45139">
				<ele>480.71</ele>
				<time>2025-07-29T04:36:53.594Z</time>
			</trkpt>
			<trkpt lat="48.5835" lon="15.45129">
				<ele>480.45</ele>
				<time>2025-07-29T04:36:54.000Z</time>
			</trkpt>
			<trkpt lat="48.58345" lon="15.45104">
				<ele>478.14</ele>
				<time>2025-07-29T04:36:55.058Z</time>
			</trkpt>
			<trkpt lat="48.58326" lon="15.45045">
				<ele>468.17</ele>
				<time>2025-07-29T04:36:57.703Z</time>
			</trkpt>
			<trkpt lat="48.58314" lon="15.45014">
				<ele>461.45</ele>
				<time>2025-07-29T04:36:59.144Z</time>
			</trkpt>
			<trkpt lat="48.58312" lon="15.44998">
				<ele>458.94</ele>
				<time>2025-07-29T04:36:59.796Z</time>
			</trkpt>
			<trkpt lat="48.58317" lon="15.44982">
				<ele>455.98</ele>
				<time>2025-07-29T04:37:00.503Z</time>
			</trkpt>
			<trkpt lat="48.58328" lon="15.44977">
				<ele>456.48</ele>
				<time>2025-07-29T04:37:01.195Z</time>
			</trkpt>
			<trkpt lat="48.58354" lon="15.44971">
				<ele>458.57</ele>
				<time>2025-07-29T04:37:02.778Z</time>
			</trkpt>
			<trkpt lat="48.58377" lon="15.44968">
				<ele>460.53</ele>
				<time>2025-07-29T04:37:04.164Z</time>
			</trkpt>
			<trkpt lat="48.58392" lon="15.44962">
				<ele>460.51</ele>
				<time>2025-07-29T04:37:05.093Z</time>
			</trkpt>
			<trkpt lat="48.58395" lon="15.44954">
				<ele>458.75</ele>
				<time>2025-07-29T04:37:05.458Z</time>
			</trkpt>
			<trkpt lat="48.58393" lon="15.44945">
				<ele>455.32</ele>
				<time>2025-07-29T04:37:05.833Z</time>
			</trkpt>
			<trkpt lat="48.58384" lon="15.4494">
				<ele>452.08</ele>
				<time>2025-07-29T04:37:06.406Z</time>
			</trkpt>
			<trkpt lat="48.58344" lon="15.44942">
				<ele>448.37</ele>
				<time>2025-07-29T04:37:08.794Z</time>
			</trkpt>
			<trkpt lat="48.58312" lon="15.44939">
				<ele>446.97</ele>
				<time>2025-07-29T04:37:10.702Z</time>
			</trkpt>
			<trkpt lat="48.58267" lon="15.44938">
				<ele>441.88</ele>
				<time>2025-07-29T04:37:13.376Z</time>
			</trkpt>
			<trkpt lat="48.58249" lon="15.44942">
				<ele>438.57</ele>
				<time>2025-07-29T04:37:14.456Z</time>
			</trkpt>
			<trkpt lat="48.5823" lon="15.44956">
				<ele>435.76</ele>
				<time>2025-07-29T04:37:15.711Z</time>
			</trkpt>
			<trkpt lat="48.58221" lon="15.44955">
				<ele>433.47</ele>
				<time>2025-07-29T04:37:16.246Z</time>
			</trkpt>
			<trkpt lat="48.58217" lon="15.44949">
				<ele>431.61</ele>
				<time>2025-07-29T04:37:16.580Z</time>
			</trkpt>
			<trkpt lat="48.58219" lon="15.44938">
				<ele>429.98</ele>
				<time>2025-07-29T04:37:17.028Z</time>
			</trkpt>
			<trkpt lat="48.58225" lon="15.44927">
				<ele>429.26</ele>
				<time>2025-07-29T04:37:17.587Z</time>
			</trkpt>
			<trkpt lat="48.58246" lon="15.44907">
				<ele>430.97</ele>
				<time>2025-07-29T04:37:19.060Z</time>
			</trkpt>
			<trkpt lat="48.5827" lon="15.44895">
				<ele>434.6</ele>
				<time>2025-07-29T04:37:20.560Z</time>
			</trkpt>
			<trkpt lat="48.58333" lon="15.44878">
				<ele>431.97</ele>
				<time>2025-07-29T04:37:24.365Z</time>
			</trkpt>
			<trkpt lat="48.5838" lon="15.44871">
				<ele>432.29</ele>
				<time>2025-07-29T04:37:27.181Z</time>
			</trkpt>
			<trkpt lat="48.58414" lon="15.44857">
				<ele>430.37</ele>
				<time>2025-07-29T04:37:29.289Z</time>
			</trkpt>
			<trkpt lat="48.58443" lon="15.44843">
				<ele>423.6</ele>
				<time>2025-07-29T04:37:31.116Z</time>
			</trkpt>
			<trkpt lat="48.5847" lon="15.44834">
				<ele>416.85</ele>
				<time>2025-07-29T04:37:32.780Z</time>
			</trkpt>
			<trkpt lat="48.58489" lon="15.44833">
				<ele>415.55</ele>
				<time>2025-07-29T04:37:33.928Z</time>
			</trkpt>
			<trkpt lat="48.58514" lon="15.44836">
				<ele>415.41</ele>
				<time>2025-07-29T04:37:35.446Z</time>
			</trkpt>
			<trkpt lat="48.58592" lon="15.4488">
				<ele>415.97</ele>
				<time>2025-07-29T04:37:40.527Z</time>
			</trkpt>
			<trkpt lat="48.58664" lon="15.44912">
				<ele>411.95</ele>
				<time>2025-07-29T04:37:45.171Z</time>
			</trkpt>
			<trkpt lat="48.58691" lon="15.44929">
				<ele>406.98</ele>
				<time>2025-07-29T04:37:47.000Z</time>
			</trkpt>
			<trkpt lat="48.58708" lon="15.44935">
				<ele>404.1</ele>
				<time>2025-07-29T04:37:48.097Z</time>
			</trkpt>
			<trkpt lat="48.58755" lon="15.44978">
				<ele>398.71</ele>
				<time>2025-07-29T04:37:51.578Z</time>
			</trkpt>
			<trkpt lat="48.58795" lon="15.45008">
				<ele>389.93</ele>
				<time>2025-07-29T04:37:54.442Z</time>
			</trkpt>
			<trkpt lat="48.5881" lon="15.45024">
				<ele>389.29</ele>
				<time>2025-07-29T04:37:55.629Z</time>
			</trkpt>
			<trkpt lat="48.58857" lon="15.45097">
				<ele>399.84</ele>
				<time>2025-07-29T04:38:00.038Z</time>
			</trkpt>
			<trkpt lat="48.58864" lon="15.45103">
				<ele>397.16</ele>
				<time>2025-07-29T04:38:00.571Z</time>
			</trkpt>
			<trkpt lat="48.58869" lon="15.45102">
				<ele>394.05</ele>
				<time>2025-07-29T04:38:00.905Z</time>
			</trkpt>
			<trkpt lat="48.58873" lon="15.45095">
				<ele>388.75</ele>
				<time>2025-07-29T04:38:01.311Z</time>
			</trkpt>
			<trkpt lat="48.58873" lon="15.45085">
				<ele>385.26</ele>
				<time>2025-07-29T04:38:01.751Z</time>
			</trkpt>
			<trkpt lat="48.58866" lon="15.45048">
				<ele>377.45</ele>
				<time>2025-07-29T04:38:03.452Z</time>
			</trkpt>
			<trkpt lat="48.58864" lon="15.45025">
				<ele>374.34</ele>
				<time>2025-07-29T04:38:04.484Z</time>
			</trkpt>
			<trkpt lat="48.58862" lon="15.44977">
				<ele>372.83</ele>
				<time>2025-07-29T04:38:06.639Z</time>
			</trkpt>
			<trkpt lat="48.58863" lon="15.44964">
				<ele>372.47</ele>
				<time>2025-07-29T04:38:07.229Z</time>
			</trkpt>
			<trkpt lat="48.58866" lon="15.44953">
				<ele>371.83</ele>
				<time>2025-07-29T04:38:07.767Z</time>
			</trkpt>
			<trkpt lat="48.58882" lon="15.44925">
				<ele>370.3</ele>
				<time>2025-07-29T04:38:09.449Z</time>
			</trkpt>
			<trkpt lat="48.58894" lon="15.44907">
				<ele>369.59</ele>
				<time>2025-07-29T04:38:10.619Z</time>
			</trkpt>
			<trkpt lat="48.58901" lon="15.44903">
				<ele>369.08</ele>
				<time>2025-07-29T04:38:11.139Z</time>
			</trkpt>
			<trkpt lat="48.58883" lon="15.44877">
				<ele>370</ele>
				<time>2025-07-29T04:38:12.879Z</time>
			</trkpt>
			<trkpt lat="48.58877" lon="15.44865">
				<ele>370</ele>
				<time>2025-07-29T04:38:13.578Z</time>
			</trkpt>
			<trkpt lat="48.58876" lon="15.44844">
				<ele>370.26</ele>
				<time>2025-07-29T04:38:14.562Z</time>
			</trkpt>
			<trkpt lat="48.58881" lon="15.44803">
				<ele>373.26</ele>
				<time>2025-07-29T04:38:16.523Z</time>
			</trkpt>
			<trkpt lat="48.58888" lon="15.44767">
				<ele>377.1</ele>
				<time>2025-07-29T04:38:18.305Z</time>
			</trkpt>
			<trkpt lat="48.58922" lon="15.4469">
				<ele>383.32</ele>
				<time>2025-07-29T04:38:22.772Z</time>
			</trkpt>
			<trkpt lat="48.58932" lon="15.44665">
				<ele>383.42</ele>
				<time>2025-07-29T04:38:24.204Z</time>
			</trkpt>
			<trkpt lat="48.58943" lon="15.4462">
				<ele>386.14</ele>
				<time>2025-07-29T04:38:26.578Z</time>
			</trkpt>
			<trkpt lat="48.58947" lon="15.44596">
				<ele>387.16</ele>
				<time>2025-07-29T04:38:27.814Z</time>
			</trkpt>
			<trkpt lat="48.58947" lon="15.44575">
				<ele>388.05</ele>
				<time>2025-07-29T04:38:28.869Z</time>
			</trkpt>
			<trkpt lat="48.58936" lon="15.44527">
				<ele>390.06</ele>
				<time>2025-07-29T04:38:31.446Z</time>
			</trkpt>
			<trkpt lat="48.58927" lon="15.44486">
				<ele>392.28</ele>
				<time>2025-07-29T04:38:33.666Z</time>
			</trkpt>
			<trkpt lat="48.58916" lon="15.44411">
				<ele>395.45</ele>
				<time>2025-07-29T04:38:37.678Z</time>
			</trkpt>
			<trkpt lat="48.5891" lon="15.44289">
				<ele>404.31</ele>
				<time>2025-07-29T04:38:44.247Z</time>
			</trkpt>
			<trkpt lat="48.5891" lon="15.4424">
				<ele>402.27</ele>
				<time>2025-07-29T04:38:46.943Z</time>
			</trkpt>
			<trkpt lat="48.58915" lon="15.44172">
				<ele>400.76</ele>
				<time>2025-07-29T04:38:50.772Z</time>
			</trkpt>
			<trkpt lat="48.58931" lon="15.44064">
				<ele>394.58</ele>
				<time>2025-07-29T04:38:57.132Z</time>
			</trkpt>
			<trkpt lat="48.58938" lon="15.44042">
				<ele>389.02</ele>
				<time>2025-07-29T04:38:58.563Z</time>
			</trkpt>
			<trkpt lat="48.58963" lon="15.43978">
				<ele>387.39</ele>
				<time>2025-07-29T04:39:02.986Z</time>
			</trkpt>
			<trkpt lat="48.58986" lon="15.43929">
				<ele>393.7</ele>
				<time>2025-07-29T04:39:06.634Z</time>
			</trkpt>
			<trkpt lat="48.59003" lon="15.43904">
				<ele>394.32</ele>
				<time>2025-07-29T04:39:08.844Z</time>
			</trkpt>
			<trkpt lat="48.59038" lon="15.43865">
				<ele>392.73</ele>
				<time>2025-07-29T04:39:12.958Z</time>
			</trkpt>
			<trkpt lat="48.59098" lon="15.43805">
				<ele>387.05</ele>
				<time>2025-07-29T04:39:19.951Z</time>
			</trkpt>
			<trkpt lat="48.59148" lon="15.43747">
				<ele>379.98</ele>
				<time>2025-07-29T04:39:26.806Z</time>
			</trkpt>
			<trkpt lat="48.59162" lon="15.43725">
				<ele>382.75</ele>
				<time>2025-07-29T04:39:29.591Z</time>
			</trkpt>
			<trkpt lat="48.5917" lon="15.43697">
				<ele>386.2</ele>
				<time>2025-07-29T04:39:32.523Z</time>
			</trkpt>
			<trkpt lat="48.59185" lon="15.43616">
				<ele>387.27</ele>
				<time>2025-07-29T04:39:40.246Z</time>
			</trkpt>
			<trkpt lat="48.5919" lon="15.43536">
				<ele>385.45</ele>
				<time>2025-07-29T04:39:45.813Z</time>
			</trkpt>
			<trkpt lat="48.59188" lon="15.43503">
				<ele>386.52</ele>
				<time>2025-07-29T04:39:47.969Z</time>
			</trkpt>
			<trkpt lat="48.59181" lon="15.4347">
				<ele>388.99</ele>
				<time>2025-07-29T04:39:50.188Z</time>
			</trkpt>
			<trkpt lat="48.59176" lon="15.43454">
				<ele>391.04</ele>
				<time>2025-07-29T04:39:51.306Z</time>
			</trkpt>
			<trkpt lat="48.59087" lon="15.4323">
				<ele>384.58</ele>
				<time>2025-07-29T04:40:06.785Z</time>
			</trkpt>
			<trkpt lat="48.59078" lon="15.43201">
				<ele>383.91</ele>
				<time>2025-07-29T04:40:08.559Z</time>
			</trkpt>
			<trkpt lat="48.59071" lon="15.43171">
				<ele>385.52</ele>
				<time>2025-07-29T04:40:10.296Z</time>
			</trkpt>
			<trkpt lat="48.59023" lon="15.4317">
				<ele>393.89</ele>
				<time>2025-07-29T04:40:14.173Z</time>
			</trkpt>
			<trkpt lat="48.59011" lon="15.43168">
				<ele>395.05</ele>
				<time>2025-07-29T04:40:15.130Z</time>
			</trkpt>
			<trkpt lat="48.58988" lon="15.43157">
				<ele>398.31</ele>
				<time>2025-07-29T04:40:17.020Z</time>
			</trkpt>
			<trkpt lat="48.5895" lon="15.43134">
				<ele>401</ele>
				<time>2025-07-29T04:40:20.166Z</time>
			</trkpt>
			<trkpt lat="48.58919" lon="15.43124">
				<ele>397.12</ele>
				<time>2025-07-29T04:40:22.551Z</time>
			</trkpt>
			<trkpt lat="48.58866" lon="15.43114">
				<ele>392.62</ele>
				<time>2025-07-29T04:40:26.476Z</time>
			</trkpt>
			<trkpt lat="48.58839" lon="15.43104">
				<ele>393.8</ele>
				<time>2025-07-29T04:40:28.476Z</time>
			</trkpt>
			<trkpt lat="48.58773" lon="15.43062">
				<ele>405.19</ele>
				<time>2025-07-29T04:40:33.503Z</time>
			</trkpt>
			<trkpt lat="48.58722" lon="15.43051">
				<ele>404.92</ele>
				<time>2025-07-29T04:40:37.022Z</time>
			</trkpt>
			<trkpt lat="48.58658" lon="15.43043">
				<ele>401.5</ele>
				<time>2025-07-29T04:40:41.311Z</time>
			</trkpt>
			<trkpt lat="48.58607" lon="15.4303">
				<ele>405.08</ele>
				<time>2025-07-29T04:40:44.699Z</time>
			</trkpt>
			<trkpt lat="48.58519" lon="15.43005">
				<ele>409.28</ele>
				<time>2025-07-29T04:40:50.455Z</time>
			</trkpt>
			<trkpt lat="48.58469" lon="15.42997">
				<ele>414.54</ele>
				<time>2025-07-29T04:40:53.644Z</time>
			</trkpt>
			<trkpt lat="48.584" lon="15.42983">
				<ele>411.57</ele>
				<time>2025-07-29T04:40:58.028Z</time>
			</trkpt>
			<trkpt lat="48.58358" lon="15.42968">
				<ele>407.23</ele>
				<time>2025-07-29T04:41:00.738Z</time>
			</trkpt>
			<trkpt lat="48.5832" lon="15.4295">
				<ele>410.79</ele>
				<time>2025-07-29T04:41:03.239Z</time>
			</trkpt>
			<trkpt lat="48.58238" lon="15.42916">
				<ele>417.17</ele>
				<time>2025-07-29T04:41:08.603Z</time>
			</trkpt>
			<trkpt lat="48.58183" lon="15.42897">
				<ele>415.83</ele>
				<time>2025-07-29T04:41:12.199Z</time>
			</trkpt>
			<trkpt lat="48.58045" lon="15.42858">
				<ele>424.79</ele>
				<time>2025-07-29T04:41:21.347Z</time>
			</trkpt>
			<trkpt lat="48.57962" lon="15.42817">
				<ele>419.23</ele>
				<time>2025-07-29T04:41:27.058Z</time>
			</trkpt>
			<trkpt lat="48.57925" lon="15.42792">
				<ele>421.68</ele>
				<time>2025-07-29T04:41:29.692Z</time>
			</trkpt>
			<trkpt lat="48.57886" lon="15.42758">
				<ele>427.05</ele>
				<time>2025-07-29T04:41:32.606Z</time>
			</trkpt>
			<trkpt lat="48.57849" lon="15.42716">
				<ele>425.6</ele>
				<time>2025-07-29T04:41:35.587Z</time>
			</trkpt>
			<trkpt lat="48.57807" lon="15.42636">
				<ele>434.37</ele>
				<time>2025-07-29T04:41:39.918Z</time>
			</trkpt>
			<trkpt lat="48.57796" lon="15.42619">
				<ele>438.46</ele>
				<time>2025-07-29T04:41:40.922Z</time>
			</trkpt>
			<trkpt lat="48.57764" lon="15.4258">
				<ele>445.81</ele>
				<time>2025-07-29T04:41:43.539Z</time>
			</trkpt>
			<trkpt lat="48.57731" lon="15.42547">
				<ele>458.42</ele>
				<time>2025-07-29T04:41:46.049Z</time>
			</trkpt>
			<trkpt lat="48.57719" lon="15.4254">
				<ele>460.61</ele>
				<time>2025-07-29T04:41:46.862Z</time>
			</trkpt>
			<trkpt lat="48.57671" lon="15.42518">
				<ele>461.46</ele>
				<time>2025-07-29T04:41:50.027Z</time>
			</trkpt>
			<trkpt lat="48.57619" lon="15.42486">
				<ele>469.36</ele>
				<time>2025-07-29T04:41:53.552Z</time>
			</trkpt>
			<trkpt lat="48.57531" lon="15.42446">
				<ele>476.47</ele>
				<time>2025-07-29T04:41:59.284Z</time>
			</trkpt>
			<trkpt lat="48.57492" lon="15.42434">
				<ele>477.28</ele>
				<time>2025-07-29T04:42:01.752Z</time>
			</trkpt>
			<trkpt lat="48.57439" lon="15.42423">
				<ele>476.23</ele>
				<time>2025-07-29T04:42:05.057Z</time>
			</trkpt>
			<trkpt lat="48.5743" lon="15.42415">
				<ele>476.02</ele>
				<time>2025-07-29T04:42:05.700Z</time>
			</trkpt>
			<trkpt lat="48.57423" lon="15.42405">
				<ele>476.45</ele>
				<time>2025-07-29T04:42:06.293Z</time>
			</trkpt>
			<trkpt lat="48.5742" lon="15.42393">
				<ele>477.35</ele>
				<time>2025-07-29T04:42:06.815Z</time>
			</trkpt>
			<trkpt lat="48.57419" lon="15.42373">
				<ele>479.75</ele>
				<time>2025-07-29T04:42:07.630Z</time>
			</trkpt>
			<trkpt lat="48.57429" lon="15.4231">
				<ele>487.78</ele>
				<time>2025-07-29T04:42:10.258Z</time>
			</trkpt>
			<trkpt lat="48.57436" lon="15.42245">
				<ele>493.81</ele>
				<time>2025-07-29T04:42:12.919Z</time>
			</trkpt>
			<trkpt lat="48.57446" lon="15.42174">
				<ele>500.03</ele>
				<time>2025-07-29T04:42:15.842Z</time>
			</trkpt>
			<trkpt lat="48.57446" lon="15.42159">
				<ele>501.61</ele>
				<time>2025-07-29T04:42:16.445Z</time>
			</trkpt>
			<trkpt lat="48.57439" lon="15.42104">
				<ele>502.01</ele>
				<time>2025-07-29T04:42:18.690Z</time>
			</trkpt>
			<trkpt lat="48.57438" lon="15.42076">
				<ele>502.58</ele>
				<time>2025-07-29T04:42:19.812Z</time>
			</trkpt>
			<trkpt lat="48.57439" lon="15.42057">
				<ele>503.17</ele>
				<time>2025-07-29T04:42:20.574Z</time>
			</trkpt>
			<trkpt lat="48.57446" lon="15.42025">
				<ele>505.91</ele>
				<time>2025-07-29T04:42:21.918Z</time>
			</trkpt>
			<trkpt lat="48.57448" lon="15.42007">
				<ele>508.81</ele>
				<time>2025-07-29T04:42:22.646Z</time>
			</trkpt>
			<trkpt lat="48.5744" lon="15.4195">
				<ele>515.38</ele>
				<time>2025-07-29T04:42:24.963Z</time>
			</trkpt>
			<trkpt lat="48.57439" lon="15.41926">
				<ele>517.07</ele>
				<time>2025-07-29T04:42:25.918Z</time>
			</trkpt>
			<trkpt lat="48.57444" lon="15.41703">
				<ele>530.34</ele>
				<time>2025-07-29T04:42:34.719Z</time>
			</trkpt>
			<trkpt lat="48.57443" lon="15.41681">
				<ele>531.25</ele>
				<time>2025-07-29T04:42:35.584Z</time>
			</trkpt>
			<trkpt lat="48.57439" lon="15.41647">
				<ele>534.31</ele>
				<time>2025-07-29T04:42:36.937Z</time>
			</trkpt>
			<trkpt lat="48.57431" lon="15.41619">
				<ele>537.78</ele>
				<time>2025-07-29T04:42:38.129Z</time>
			</trkpt>
			<trkpt lat="48.57422" lon="15.41601">
				<ele>539.11</ele>
				<time>2025-07-29T04:42:39.010Z</time>
			</trkpt>
			<trkpt lat="48.57409" lon="15.41583">
				<ele>539.49</ele>
				<time>2025-07-29T04:42:40.050Z</time>
			</trkpt>
			<trkpt lat="48.57406" lon="15.41577">
				<ele>540.3</ele>
				<time>2025-07-29T04:42:40.343Z</time>
			</trkpt>
			<trkpt lat="48.57405" lon="15.4157">
				<ele>541.97</ele>
				<time>2025-07-29T04:42:40.622Z</time>
			</trkpt>
			<trkpt lat="48.57407" lon="15.41564">
				<ele>544.24</ele>
				<time>2025-07-29T04:42:40.884Z</time>
			</trkpt>
			<trkpt lat="48.57411" lon="15.41561">
				<ele>546.61</ele>
				<time>2025-07-29T04:42:41.147Z</time>
			</trkpt>
			<trkpt lat="48.57416" lon="15.4156">
				<ele>548.47</ele>
				<time>2025-07-29T04:42:41.443Z</time>
			</trkpt>
			<trkpt lat="48.57423" lon="15.41565">
				<ele>549.17</ele>
				<time>2025-07-29T04:42:41.899Z</time>
			</trkpt>
			<trkpt lat="48.57436" lon="15.4158">
				<ele>548.73</ele>
				<time>2025-07-29T04:42:42.860Z</time>
			</trkpt>
			<trkpt lat="48.57459" lon="15.41608">
				<ele>549</ele>
				<time>2025-07-29T04:42:44.593Z</time>
			</trkpt>
			<trkpt lat="48.57503" lon="15.41678">
				<ele>549.26</ele>
				<time>2025-07-29T04:42:48.329Z</time>
			</trkpt>
			<trkpt lat="48.57512" lon="15.41702">
				<ele>549.32</ele>
				<time>2025-07-29T04:42:49.394Z</time>
			</trkpt>
			<trkpt lat="48.57515" lon="15.41723">
				<ele>550.15</ele>
				<time>2025-07-29T04:42:50.222Z</time>
			</trkpt>
			<trkpt lat="48.57519" lon="15.41783">
				<ele>551.32</ele>
				<time>2025-07-29T04:42:52.543Z</time>
			</trkpt>
			<trkpt lat="48.57521" lon="15.4179">
				<ele>551.8</ele>
				<time>2025-07-29T04:42:52.836Z</time>
			</trkpt>
			<trkpt lat="48.57523" lon="15.41793">
				<ele>552.75</ele>
				<time>2025-07-29T04:42:53.000Z</time>
			</trkpt>
			<trkpt lat="48.57529" lon="15.41794">
				<ele>554.66</ele>
				<time>2025-07-29T04:42:53.350Z</time>
			</trkpt>
			<trkpt lat="48.57533" lon="15.4179">
				<ele>556</ele>
				<time>2025-07-29T04:42:53.629Z</time>
			</trkpt>
			<trkpt lat="48.57539" lon="15.41744">
				<ele>557.02</ele>
				<time>2025-07-29T04:42:55.427Z</time>
			</trkpt>
			<trkpt lat="48.57559" lon="15.41679">
				<ele>567.9</ele>
				<time>2025-07-29T04:42:58.170Z</time>
			</trkpt>
			<trkpt lat="48.57563" lon="15.41656">
				<ele>569.93</ele>
				<time>2025-07-29T04:42:59.078Z</time>
			</trkpt>
			<trkpt lat="48.57564" lon="15.41635">
				<ele>571.13</ele>
				<time>2025-07-29T04:42:59.882Z</time>
			</trkpt>
			<trkpt lat="48.57563" lon="15.41609">
				<ele>573.99</ele>
				<time>2025-07-29T04:43:00.875Z</time>
			</trkpt>
			<trkpt lat="48.57556" lon="15.41547">
				<ele>576.72</ele>
				<time>2025-07-29T04:43:03.269Z</time>
			</trkpt>
			<trkpt lat="48.57552" lon="15.41522">
				<ele>576.04</ele>
				<time>2025-07-29T04:43:04.246Z</time>
			</trkpt>
			<trkpt lat="48.57535" lon="15.41461">
				<ele>577.28</ele>
				<time>2025-07-29T04:43:06.757Z</time>
			</trkpt>
			<trkpt lat="48.57501" lon="15.41402">
				<ele>592.35</ele>
				<time>2025-07-29T04:43:09.717Z</time>
			</trkpt>
			<trkpt lat="48.57486" lon="15.41381">
				<ele>594.94</ele>
				<time>2025-07-29T04:43:10.883Z</time>
			</trkpt>
			<trkpt lat="48.57414" lon="15.41301">
				<ele>595.22</ele>
				<time>2025-07-29T04:43:15.968Z</time>
			</trkpt>
			<trkpt lat="48.57306" lon="15.41215">
				<ele>583.86</ele>
				<time>2025-07-29T04:43:22.878Z</time>
			</trkpt>
			<trkpt lat="48.57134" lon="15.41132">
				<ele>601.38</ele>
				<time>2025-07-29T04:43:33.029Z</time>
			</trkpt>
			<trkpt lat="48.57105" lon="15.41129">
				<ele>607.65</ele>
				<time>2025-07-29T04:43:34.656Z</time>
			</trkpt>
			<trkpt lat="48.57077" lon="15.41141">
				<ele>610.12</ele>
				<time>2025-07-29T04:43:36.283Z</time>
			</trkpt>
			<trkpt lat="48.57025" lon="15.41197">
				<ele>608.89</ele>
				<time>2025-07-29T04:43:39.847Z</time>
			</trkpt>
			<trkpt lat="48.56992" lon="15.41228">
				<ele>607.3</ele>
				<time>2025-07-29T04:43:42.012Z</time>
			</trkpt>
			<trkpt lat="48.56966" lon="15.4124">
				<ele>605</ele>
				<time>2025-07-29T04:43:43.524Z</time>
			</trkpt>
			<trkpt lat="48.56934" lon="15.41238">
				<ele>603.06</ele>
				<time>2025-07-29T04:43:45.305Z</time>
			</trkpt>
			<trkpt lat="48.56911" lon="15.41225">
				<ele>602.36</ele>
				<time>2025-07-29T04:43:46.668Z</time>
			</trkpt>
			<trkpt lat="48.56897" lon="15.41214">
				<ele>602.21</ele>
				<time>2025-07-29T04:43:47.544Z</time>
			</trkpt>
			<trkpt lat="48.56875" lon="15.41175">
				<ele>604.45</ele>
				<time>2025-07-29T04:43:49.425Z</time>
			</trkpt>
			<trkpt lat="48.56828" lon="15.41068">
				<ele>607.5</ele>
				<time>2025-07-29T04:43:54.130Z</time>
			</trkpt>
			<trkpt lat="48.56809" lon="15.41037">
				<ele>611.04</ele>
				<time>2025-07-29T04:43:55.676Z</time>
			</trkpt>
			<trkpt lat="48.56763" lon="15.4098">
				<ele>612.74</ele>
				<time>2025-07-29T04:43:58.960Z</time>
			</trkpt>
			<trkpt lat="48.56729" lon="15.40961">
				<ele>614.05</ele>
				<time>2025-07-29T04:44:00.960Z</time>
			</trkpt>
			<trkpt lat="48.56703" lon="15.40956">
				<ele>613.83</ele>
				<time>2025-07-29T04:44:02.404Z</time>
			</trkpt>
			<trkpt lat="48.56659" lon="15.40963">
				<ele>614.67</ele>
				<time>2025-07-29T04:44:04.841Z</time>
			</trkpt>
			<trkpt lat="48.56637" lon="15.40961">
				<ele>615.02</ele>
				<time>2025-07-29T04:44:06.054Z</time>
			</trkpt>
			<trkpt lat="48.56594" lon="15.40932">
				<ele>616.57</ele>
				<time>2025-07-29T04:44:08.644Z</time>
			</trkpt>
			<trkpt lat="48.56579" lon="15.40912">
				<ele>618.04</ele>
				<time>2025-07-29T04:44:09.743Z</time>
			</trkpt>
			<trkpt lat="48.56555" lon="15.40867">
				<ele>620.55</ele>
				<time>2025-07-29T04:44:11.845Z</time>
			</trkpt>
			<trkpt lat="48.56511" lon="15.4077">
				<ele>625.84</ele>
				<time>2025-07-29T04:44:16.117Z</time>
			</trkpt>
			<trkpt lat="48.56493" lon="15.40736">
				<ele>625</ele>
				<time>2025-07-29T04:44:17.697Z</time>
			</trkpt>
			<trkpt lat="48.56481" lon="15.40714">
				<ele>625.08</ele>
				<time>2025-07-29T04:44:18.732Z</time>
			</trkpt>
			<trkpt lat="48.56466" lon="15.40695">
				<ele>625.2</ele>
				<time>2025-07-29T04:44:19.805Z</time>
			</trkpt>
			<trkpt lat="48.56439" lon="15.40683">
				<ele>626.35</ele>
				<time>2025-07-29T04:44:21.348Z</time>
			</trkpt>
			<trkpt lat="48.56402" lon="15.40674">
				<ele>629.57</ele>
				<time>2025-07-29T04:44:23.401Z</time>
			</trkpt>
			<trkpt lat="48.56334" lon="15.40664">
				<ele>628.83</ele>
				<time>2025-07-29T04:44:27.144Z</time>
			</trkpt>
			<trkpt lat="48.56281" lon="15.4065">
				<ele>621.12</ele>
				<time>2025-07-29T04:44:30.090Z</time>
			</trkpt>
			<trkpt lat="48.56187" lon="15.40637">
				<ele>627.77</ele>
				<time>2025-07-29T04:44:35.257Z</time>
			</trkpt>
			<trkpt lat="48.56148" lon="15.40629">
				<ele>630.07</ele>
				<time>2025-07-29T04:44:37.412Z</time>
			</trkpt>
			<trkpt lat="48.56119" lon="15.40613">
				<ele>629.84</ele>
				<time>2025-07-29T04:44:39.102Z</time>
			</trkpt>
			<trkpt lat="48.56075" lon="15.40576">
				<ele>631.64</ele>
				<time>2025-07-29T04:44:41.859Z</time>
			</trkpt>
			<trkpt lat="48.55998" lon="15.40496">
				<ele>625.48</ele>
				<time>2025-07-29T04:44:46.978Z</time>
			</trkpt>
			<trkpt lat="48.55983" lon="15.40444">
				<ele>616.59</ele>
				<time>2025-07-29T04:44:49.035Z</time>
			</trkpt>
			<trkpt lat="48.55899" lon="15.40009">
				<ele>603.16</ele>
				<time>2025-07-29T04:45:05.503Z</time>
			</trkpt>
			<trkpt lat="48.55888" lon="15.39939">
				<ele>604.11</ele>
				<time>2025-07-29T04:45:08.126Z</time>
			</trkpt>
			<trkpt lat="48.55875" lon="15.3988">
				<ele>605.68</ele>
				<time>2025-07-29T04:45:10.394Z</time>
			</trkpt>
			<trkpt lat="48.5591" lon="15.39853">
				<ele>607.57</ele>
				<time>2025-07-29T04:45:12.563Z</time>
			</trkpt>
			<trkpt lat="48.55931" lon="15.39811">
				<ele>606.22</ele>
				<time>2025-07-29T04:45:14.487Z</time>
			</trkpt>
			<trkpt lat="48.55951" lon="15.39762">
				<ele>604.58</ele>
				<time>2025-07-29T04:45:16.593Z</time>
			</trkpt>
			<trkpt lat="48.55987" lon="15.39651">
				<ele>604.19</ele>
				<time>2025-07-29T04:45:21.123Z</time>
			</trkpt>
			<trkpt lat="48.56035" lon="15.39537">
				<ele>600.81</ele>
				<time>2025-07-29T04:45:26.087Z</time>
			</trkpt>
			<trkpt lat="48.56045" lon="15.39501">
				<ele>600.01</ele>
				<time>2025-07-29T04:45:27.524Z</time>
			</trkpt>
			<trkpt lat="48.56061" lon="15.394">
				<ele>597.21</ele>
				<time>2025-07-29T04:45:31.353Z</time>
			</trkpt>
			<trkpt lat="48.56081" lon="15.39288">
				<ele>595.35</ele>
				<time>2025-07-29T04:45:35.641Z</time>
			</trkpt>
			<trkpt lat="48.56091" lon="15.39222">
				<ele>595.99</ele>
				<time>2025-07-29T04:45:38.150Z</time>
			</trkpt>
			<trkpt lat="48.56094" lon="15.39193">
				<ele>595.97</ele>
				<time>2025-07-29T04:45:39.239Z</time>
			</trkpt>
			<trkpt lat="48.56095" lon="15.39158">
				<ele>595.31</ele>
				<time>2025-07-29T04:45:40.540Z</time>
			</trkpt>
			<trkpt lat="48.56094" lon="15.39122">
				<ele>594.03</ele>
				<time>2025-07-29T04:45:41.879Z</time>
			</trkpt>
			<trkpt lat="48.56086" lon="15.39056">
				<ele>592.11</ele>
				<time>2025-07-29T04:45:44.377Z</time>
			</trkpt>
			<trkpt lat="48.56069" lon="15.38967">
				<ele>590</ele>
				<time>2025-07-29T04:45:47.833Z</time>
			</trkpt>
			<trkpt lat="48.56036" lon="15.38808">
				<ele>585.13</ele>
				<time>2025-07-29T04:45:54.075Z</time>
			</trkpt>
			<trkpt lat="48.56031" lon="15.38771">
				<ele>583.92</ele>
				<time>2025-07-29T04:45:55.495Z</time>
			</trkpt>
			<trkpt lat="48.56027" lon="15.38713">
				<ele>582.35</ele>
				<time>2025-07-29T04:45:57.690Z</time>
			</trkpt>
			<trkpt lat="48.56029" lon="15.3867">
				<ele>580.14</ele>
				<time>2025-07-29T04:45:59.315Z</time>
			</trkpt>
			<trkpt lat="48.56031" lon="15.38647">
				<ele>579.32</ele>
				<time>2025-07-29T04:46:00.191Z</time>
			</trkpt>
			<trkpt lat="48.56048" lon="15.38558">
				<ele>574.56</ele>
				<time>2025-07-29T04:46:03.696Z</time>
			</trkpt>
			<trkpt lat="48.56057" lon="15.385">
				<ele>570.87</ele>
				<time>2025-07-29T04:46:05.956Z</time>
			</trkpt>
			<trkpt lat="48.56061" lon="15.38443">
				<ele>569.26</ele>
				<time>2025-07-29T04:46:08.135Z</time>
			</trkpt>
			<trkpt lat="48.56064" lon="15.38363">
				<ele>564.79</ele>
				<time>2025-07-29T04:46:11.182Z</time>
			</trkpt>
			<trkpt lat="48.56071" lon="15.38284">
				<ele>560.61</ele>
				<time>2025-07-29T04:46:14.200Z</time>
			</trkpt>
			<trkpt lat="48.56096" lon="15.38052">
				<ele>553.84</ele>
				<time>2025-07-29T04:46:23.029Z</time>
			</trkpt>
			<trkpt lat="48.56102" lon="15.37951">
				<ele>552.71</ele>
				<time>2025-07-29T04:46:26.807Z</time>
			</trkpt>
			<trkpt lat="48.56102" lon="15.37905">
				<ele>550.02</ele>
				<time>2025-07-29T04:46:28.515Z</time>
			</trkpt>
			<trkpt lat="48.561" lon="15.37829">
				<ele>544.13</ele>
				<time>2025-07-29T04:46:31.332Z</time>
			</trkpt>
			<trkpt lat="48.56104" lon="15.37722">
				<ele>541.75</ele>
				<time>2025-07-29T04:46:35.287Z</time>
			</trkpt>
			<trkpt lat="48.56113" lon="15.3766">
				<ele>541.84</ele>
				<time>2025-07-29T04:46:37.621Z</time>
			</trkpt>
			<trkpt lat="48.56117" lon="15.37648">
				<ele>541.57</ele>
				<time>2025-07-29T04:46:38.114Z</time>
			</trkpt>
			<trkpt lat="48.56149" lon="15.37595">
				<ele>542.58</ele>
				<time>2025-07-29T04:46:40.744Z</time>
			</trkpt>
			<trkpt lat="48.5617" lon="15.37578">
				<ele>544.14</ele>
				<time>2025-07-29T04:46:42.061Z</time>
			</trkpt>
			<trkpt lat="48.56209" lon="15.37561">
				<ele>543.28</ele>
				<time>2025-07-29T04:46:44.301Z</time>
			</trkpt>
			<trkpt lat="48.56273" lon="15.37541">
				<ele>541.17</ele>
				<time>2025-07-29T04:46:47.898Z</time>
			</trkpt>
			<trkpt lat="48.56311" lon="15.3752">
				<ele>543.06</ele>
				<time>2025-07-29T04:46:50.119Z</time>
			</trkpt>
			<trkpt lat="48.56337" lon="15.37497">
				<ele>545.64</ele>
				<time>2025-07-29T04:46:51.770Z</time>
			</trkpt>
			<trkpt lat="48.56366" lon="15.37447">
				<ele>545.56</ele>
				<time>2025-07-29T04:46:54.177Z</time>
			</trkpt>
			<trkpt lat="48.56433" lon="15.37271">
				<ele>540.21</ele>
				<time>2025-07-29T04:47:01.503Z</time>
			</trkpt>
			<trkpt lat="48.56536" lon="15.37094">
				<ele>537.76</ele>
				<time>2025-07-29T04:47:09.964Z</time>
			</trkpt>
			<trkpt lat="48.56637" lon="15.36969">
				<ele>536.85</ele>
				<time>2025-07-29T04:47:17.019Z</time>
			</trkpt>
			<trkpt lat="48.56713" lon="15.36869">
				<ele>543.36</ele>
				<time>2025-07-29T04:47:22.452Z</time>
			</trkpt>
			<trkpt lat="48.56728" lon="15.36855">
				<ele>546.78</ele>
				<time>2025-07-29T04:47:23.401Z</time>
			</trkpt>
			<trkpt lat="48.56754" lon="15.36843">
				<ele>550.4</ele>
				<time>2025-07-29T04:47:24.866Z</time>
			</trkpt>
			<trkpt lat="48.56764" lon="15.36842">
				<ele>550.96</ele>
				<time>2025-07-29T04:47:25.405Z</time>
			</trkpt>
			<trkpt lat="48.56778" lon="15.36844">
				<ele>550.16</ele>
				<time>2025-07-29T04:47:26.162Z</time>
			</trkpt>
			<trkpt lat="48.56792" lon="15.36849">
				<ele>546.54</ele>
				<time>2025-07-29T04:47:26.936Z</time>
			</trkpt>
			<trkpt lat="48.56806" lon="15.36858">
				<ele>541.76</ele>
				<time>2025-07-29T04:47:27.755Z</time>
			</trkpt>
			<trkpt lat="48.56819" lon="15.36874">
				<ele>536.15</ele>
				<time>2025-07-29T04:47:28.658Z</time>
			</trkpt>
			<trkpt lat="48.56844" lon="15.36913">
				<ele>530.09</ele>
				<time>2025-07-29T04:47:30.591Z</time>
			</trkpt>
			<trkpt lat="48.56852" lon="15.36922">
				<ele>530.21</ele>
				<time>2025-07-29T04:47:31.127Z</time>
			</trkpt>
			<trkpt lat="48.56861" lon="15.36928">
				<ele>530.59</ele>
				<time>2025-07-29T04:47:31.656Z</time>
			</trkpt>
			<trkpt lat="48.56869" lon="15.36929">
				<ele>531.3</ele>
				<time>2025-07-29T04:47:32.088Z</time>
			</trkpt>
			<trkpt lat="48.56882" lon="15.36925">
				<ele>532.45</ele>
				<time>2025-07-29T04:47:32.802Z</time>
			</trkpt>
			<trkpt lat="48.56899" lon="15.36912">
				<ele>534.73</ele>
				<time>2025-07-29T04:47:33.827Z</time>
			</trkpt>
			<trkpt lat="48.5693" lon="15.36875">
				<ele>542.88</ele>
				<time>2025-07-29T04:47:35.951Z</time>
			</trkpt>
			<trkpt lat="48.56949" lon="15.36841">
				<ele>546.4</ele>
				<time>2025-07-29T04:47:37.535Z</time>
			</trkpt>
			<trkpt lat="48.56966" lon="15.3678">
				<ele>549.63</ele>
				<time>2025-07-29T04:47:39.891Z</time>
			</trkpt>
			<trkpt lat="48.56987" lon="15.36711">
				<ele>553.04</ele>
				<time>2025-07-29T04:47:42.595Z</time>
			</trkpt>
			<trkpt lat="48.56994" lon="15.36696">
				<ele>555.17</ele>
				<time>2025-07-29T04:47:43.249Z</time>
			</trkpt>
			<trkpt lat="48.5705" lon="15.3659">
				<ele>558.28</ele>
				<time>2025-07-29T04:47:48.081Z</time>
			</trkpt>
			<trkpt lat="48.57056" lon="15.36574">
				<ele>556.93</ele>
				<time>2025-07-29T04:47:48.737Z</time>
			</trkpt>
			<trkpt lat="48.57065" lon="15.36538">
				<ele>557.27</ele>
				<time>2025-07-29T04:47:50.109Z</time>
			</trkpt>
			<trkpt lat="48.57068" lon="15.36517">
				<ele>560.47</ele>
				<time>2025-07-29T04:47:50.875Z</time>
			</trkpt>
			<trkpt lat="48.57066" lon="15.36483">
				<ele>566.44</ele>
				<time>2025-07-29T04:47:52.093Z</time>
			</trkpt>
			<trkpt lat="48.57068" lon="15.36462">
				<ele>568.26</ele>
				<time>2025-07-29T04:47:52.850Z</time>
			</trkpt>
			<trkpt lat="48.57072" lon="15.36452">
				<ele>568.67</ele>
				<time>2025-07-29T04:47:53.267Z</time>
			</trkpt>
			<trkpt lat="48.5708" lon="15.36441">
				<ele>568.69</ele>
				<time>2025-07-29T04:47:53.851Z</time>
			</trkpt>
			<trkpt lat="48.57086" lon="15.36437">
				<ele>568.71</ele>
				<time>2025-07-29T04:47:54.205Z</time>
			</trkpt>
			<trkpt lat="48.57093" lon="15.36435">
				<ele>568.82</ele>
				<time>2025-07-29T04:47:54.589Z</time>
			</trkpt>
			<trkpt lat="48.57131" lon="15.36436">
				<ele>568.41</ele>
				<time>2025-07-29T04:47:56.642Z</time>
			</trkpt>
			<trkpt lat="48.5714" lon="15.36434">
				<ele>568.83</ele>
				<time>2025-07-29T04:47:57.133Z</time>
			</trkpt>
			<trkpt lat="48.57154" lon="15.36422">
				<ele>571.24</ele>
				<time>2025-07-29T04:47:58.003Z</time>
			</trkpt>
			<trkpt lat="48.57166" lon="15.36399">
				<ele>574.25</ele>
				<time>2025-07-29T04:47:59.051Z</time>
			</trkpt>
			<trkpt lat="48.57173" lon="15.36378">
				<ele>575.91</ele>
				<time>2025-07-29T04:47:59.892Z</time>
			</trkpt>
			<trkpt lat="48.57183" lon="15.36336">
				<ele>578.17</ele>
				<time>2025-07-29T04:48:01.491Z</time>
			</trkpt>
			<trkpt lat="48.57193" lon="15.36281">
				<ele>580.8</ele>
				<time>2025-07-29T04:48:03.535Z</time>
			</trkpt>
			<trkpt lat="48.57195" lon="15.36247">
				<ele>580.88</ele>
				<time>2025-07-29T04:48:04.759Z</time>
			</trkpt>
			<trkpt lat="48.57193" lon="15.36214">
				<ele>580.88</ele>
				<time>2025-07-29T04:48:05.949Z</time>
			</trkpt>
			<trkpt lat="48.57182" lon="15.36123">
				<ele>574.79</ele>
				<time>2025-07-29T04:48:09.274Z</time>
			</trkpt>
			<trkpt lat="48.57173" lon="15.36078">
				<ele>570.5</ele>
				<time>2025-07-29T04:48:10.966Z</time>
			</trkpt>
			<trkpt lat="48.57161" lon="15.36039">
				<ele>570.28</ele>
				<time>2025-07-29T04:48:12.517Z</time>
			</trkpt>
			<trkpt lat="48.57145" lon="15.36005">
				<ele>570.31</ele>
				<time>2025-07-29T04:48:14.022Z</time>
			</trkpt>
			<trkpt lat="48.57083" lon="15.35821">
				<ele>558.77</ele>
				<time>2025-07-29T04:48:21.497Z</time>
			</trkpt>
			<trkpt lat="48.57072" lon="15.35772">
				<ele>554.79</ele>
				<time>2025-07-29T04:48:23.377Z</time>
			</trkpt>
			<trkpt lat="48.57078" lon="15.3565">
				<ele>550.23</ele>
				<time>2025-07-29T04:48:27.836Z</time>
			</trkpt>
			<trkpt lat="48.57071" lon="15.35486">
				<ele>560.66</ele>
				<time>2025-07-29T04:48:33.856Z</time>
			</trkpt>
			<trkpt lat="48.57072" lon="15.35403">
				<ele>563.27</ele>
				<time>2025-07-29T04:48:36.911Z</time>
			</trkpt>
			<trkpt lat="48.57074" lon="15.35358">
				<ele>565.07</ele>
				<time>2025-07-29T04:48:38.575Z</time>
			</trkpt>
			<trkpt lat="48.57089" lon="15.35264">
				<ele>565.35</ele>
				<time>2025-07-29T04:48:42.154Z</time>
			</trkpt>
			<trkpt lat="48.57106" lon="15.35187">
				<ele>564.41</ele>
				<time>2025-07-29T04:48:45.169Z</time>
			</trkpt>
			<trkpt lat="48.57136" lon="15.35082">
				<ele>571.24</ele>
				<time>2025-07-29T04:48:49.437Z</time>
			</trkpt>
			<trkpt lat="48.57144" lon="15.35039">
				<ele>574.28</ele>
				<time>2025-07-29T04:48:51.110Z</time>
			</trkpt>
			<trkpt lat="48.57147" lon="15.34997">
				<ele>577.46</ele>
				<time>2025-07-29T04:48:52.696Z</time>
			</trkpt>
			<trkpt lat="48.57146" lon="15.34963">
				<ele>579.02</ele>
				<time>2025-07-29T04:48:53.976Z</time>
			</trkpt>
			<trkpt lat="48.57096" lon="15.34637">
				<ele>593.51</ele>
				<time>2025-07-29T04:49:06.683Z</time>
			</trkpt>
			<trkpt lat="48.57089" lon="15.34585">
				<ele>594.04</ele>
				<time>2025-07-29T04:49:08.720Z</time>
			</trkpt>
			<trkpt lat="48.57086" lon="15.34535">
				<ele>596.41</ele>
				<time>2025-07-29T04:49:10.652Z</time>
			</trkpt>
			<trkpt lat="48.5708" lon="15.3436">
				<ele>594.28</ele>
				<time>2025-07-29T04:49:17.444Z</time>
			</trkpt>
			<trkpt lat="48.57083" lon="15.34295">
				<ele>592.99</ele>
				<time>2025-07-29T04:49:19.988Z</time>
			</trkpt>
			<trkpt lat="48.57089" lon="15.34218">
				<ele>590.76</ele>
				<time>2025-07-29T04:49:23.029Z</time>
			</trkpt>
			<trkpt lat="48.57088" lon="15.34189">
				<ele>590.67</ele>
				<time>2025-07-29T04:49:24.172Z</time>
			</trkpt>
			<trkpt lat="48.57067" lon="15.34073">
				<ele>589.73</ele>
				<time>2025-07-29T04:49:28.928Z</time>
			</trkpt>
			<trkpt lat="48.57053" lon="15.33963">
				<ele>589.34</ele>
				<time>2025-07-29T04:49:33.394Z</time>
			</trkpt>
			<trkpt lat="48.57015" lon="15.33979">
				<ele>588.93</ele>
				<time>2025-07-29T04:49:35.785Z</time>
			</trkpt>
			<trkpt lat="48.57" lon="15.33983">
				<ele>588.8</ele>
				<time>2025-07-29T04:49:36.710Z</time>
			</trkpt>
			<trkpt lat="48.56992" lon="15.33982">
				<ele>588.76</ele>
				<time>2025-07-29T04:49:37.199Z</time>
			</trkpt>
			<trkpt lat="48.56982" lon="15.33978">
				<ele>588.44</ele>
				<time>2025-07-29T04:49:37.829Z</time>
			</trkpt>
			<trkpt lat="48.56972" lon="15.33966">
				<ele>587.58</ele>
				<time>2025-07-29T04:49:38.608Z</time>
			</trkpt>
			<trkpt lat="48.56965" lon="15.33943">
				<ele>586.19</ele>
				<time>2025-07-29T04:49:39.631Z</time>
			</trkpt>
			<trkpt lat="48.56961" lon="15.33895">
				<ele>584.22</ele>
				<time>2025-07-29T04:49:41.592Z</time>
			</trkpt>
			<trkpt lat="48.56956" lon="15.33868">
				<ele>582.52</ele>
				<time>2025-07-29T04:49:42.732Z</time>
			</trkpt>
			<trkpt lat="48.56957" lon="15.33856">
				<ele>581.76</ele>
				<time>2025-07-29T04:49:43.224Z</time>
			</trkpt>
			<trkpt lat="48.56963" lon="15.33838">
				<ele>580.93</ele>
				<time>2025-07-29T04:49:44.045Z</time>
			</trkpt>
			<trkpt lat="48.56956" lon="15.3383">
				<ele>580.3</ele>
				<time>2025-07-29T04:49:44.586Z</time>
			</trkpt>
			<trkpt lat="48.56951" lon="15.33829">
				<ele>579.97</ele>
				<time>2025-07-29T04:49:44.898Z</time>
			</trkpt>
			<trkpt lat="48.56944" lon="15.3383">
				<ele>579.78</ele>
				<time>2025-07-29T04:49:45.332Z</time>
			</trkpt>
			<trkpt lat="48.56913" lon="15.3386">
				<ele>581.96</ele>
				<time>2025-07-29T04:49:47.611Z</time>
			</trkpt>
			<trkpt lat="48.56901" lon="15.33868">
				<ele>582.64</ele>
				<time>2025-07-29T04:49:48.425Z</time>
			</trkpt>
			<trkpt lat="48.56823" lon="15.33879">
				<ele>587.19</ele>
				<time>2025-07-29T04:49:53.314Z</time>
			</trkpt>
			<trkpt lat="48.5676" lon="15.33879">
				<ele>588.29</ele>
				<time>2025-07-29T04:49:57.278Z</time>
			</trkpt>
			<trkpt lat="48.56701" lon="15.33882">
				<ele>590.87</ele>
				<time>2025-07-29T04:50:01.020Z</time>
			</trkpt>
			<trkpt lat="48.56662" lon="15.33878">
				<ele>594.99</ele>
				<time>2025-07-29T04:50:03.512Z</time>
			</trkpt>
			<trkpt lat="48.56624" lon="15.33871">
				<ele>597.92</ele>
				<time>2025-07-29T04:50:05.965Z</time>
			</trkpt>
			<trkpt lat="48.5658" lon="15.33839">
				<ele>599.57</ele>
				<time>2025-07-29T04:50:09.110Z</time>
			</trkpt>
			<trkpt lat="48.56559" lon="15.33829">
				<ele>599.59</ele>
				<time>2025-07-29T04:50:10.534Z</time>
			</trkpt>
			<trkpt lat="48.5652" lon="15.33815">
				<ele>598.82</ele>
				<time>2025-07-29T04:50:13.138Z</time>
			</trkpt>
			<trkpt lat="48.56502" lon="15.33804">
				<ele>597.92</ele>
				<time>2025-07-29T04:50:14.403Z</time>
			</trkpt>
			<trkpt lat="48.56459" lon="15.33767">
				<ele>600.29</ele>
				<time>2025-07-29T04:50:17.643Z</time>
			</trkpt>
			<trkpt lat="48.56359" lon="15.33654">
				<ele>595.96</ele>
				<time>2025-07-29T04:50:25.913Z</time>
			</trkpt>
			<trkpt lat="48.56286" lon="15.3356">
				<ele>594.5</ele>
				<time>2025-07-29T04:50:32.358Z</time>
			</trkpt>
			<trkpt lat="48.56272" lon="15.33537">
				<ele>594.08</ele>
				<time>2025-07-29T04:50:33.759Z</time>
			</trkpt>
			<trkpt lat="48.56223" lon="15.33445">
				<ele>592.89</ele>
				<time>2025-07-29T04:50:39.088Z</time>
			</trkpt>
			<trkpt lat="48.56199" lon="15.33412">
				<ele>594.29</ele>
				<time>2025-07-29T04:50:41.315Z</time>
			</trkpt>
			<trkpt lat="48.56168" lon="15.33374">
				<ele>596.78</ele>
				<time>2025-07-29T04:50:44.026Z</time>
			</trkpt>
			<trkpt lat="48.56146" lon="15.33352">
				<ele>597.18</ele>
				<time>2025-07-29T04:50:45.857Z</time>
			</trkpt>
			<trkpt lat="48.56131" lon="15.33342">
				<ele>597.86</ele>
				<time>2025-07-29T04:50:47.038Z</time>
			</trkpt>
			<trkpt lat="48.56058" lon="15.33307">
				<ele>600.92</ele>
				<time>2025-07-29T04:50:53.414Z</time>
			</trkpt>
			<trkpt lat="48.56031" lon="15.33281">
				<ele>602.85</ele>
				<time>2025-07-29T04:50:56.795Z</time>
			</trkpt>
			<trkpt lat="48.56024" lon="15.3327">
				<ele>602.85</ele>
				<time>2025-07-29T04:50:58.012Z</time>
			</trkpt>
			<trkpt lat="48.56022" lon="15.33261">
				<ele>602.42</ele>
				<time>2025-07-29T04:50:58.803Z</time>
			</trkpt>
			<trkpt lat="48.56018" lon="15.33234">
				<ele>600.73</ele>
				<time>2025-07-29T04:51:01.248Z</time>
			</trkpt>
			<trkpt lat="48.56018" lon="15.33207">
				<ele>599.47</ele>
				<time>2025-07-29T04:51:03.816Z</time>
			</trkpt>
			<trkpt lat="48.56021" lon="15.331">
				<ele>593.34</ele>
				<time>2025-07-29T04:51:15.333Z</time>
			</trkpt>
			<trkpt lat="48.56031" lon="15.33028">
				<ele>588.66</ele>
				<time>2025-07-29T04:51:23.956Z</time>
			</trkpt>
			<trkpt lat="48.56032" lon="15.32988">
				<ele>587.17</ele>
				<time>2025-07-29T04:51:28.703Z</time>
			</trkpt>
			<trkpt lat="48.5603" lon="15.32965">
				<ele>586.18</ele>
				<time>2025-07-29T04:51:31.433Z</time>
			</trkpt>
			<trkpt lat="48.56024" lon="15.32945">
				<ele>584.25</ele>
				<time>2025-07-29T04:51:33.988Z</time>
			</trkpt>
			<trkpt lat="48.56014" lon="15.32931">
				<ele>583.55</ele>
				<time>2025-07-29T04:51:36.348Z</time>
			</trkpt>
			<trkpt lat="48.56007" lon="15.32926">
				<ele>583.11</ele>
				<time>2025-07-29T04:51:37.668Z</time>
			</trkpt>
			<trkpt lat="48.55995" lon="15.3292">
				<ele>582.23</ele>
				<time>2025-07-29T04:51:39.787Z</time>
			</trkpt>
			<trkpt lat="48.55987" lon="15.32919">
				<ele>581.82</ele>
				<time>2025-07-29T04:51:41.106Z</time>
			</trkpt>
			<trkpt lat="48.55966" lon="15.32926">
				<ele>581.03</ele>
				<time>2025-07-29T04:51:44.520Z</time>
			</trkpt>
			<trkpt lat="48.55947" lon="15.32939">
				<ele>579.26</ele>
				<time>2025-07-29T04:51:47.636Z</time>
			</trkpt>
			<trkpt lat="48.5593" lon="15.32955">
				<ele>578.14</ele>
				<time>2025-07-29T04:51:50.429Z</time>
			</trkpt>
			<trkpt lat="48.55923" lon="15.32966">
				<ele>578.81</ele>
				<time>2025-07-29T04:51:51.811Z</time>
			</trkpt>
			<trkpt lat="48.55908" lon="15.33001">
				<ele>580.9</ele>
				<time>2025-07-29T04:51:55.578Z</time>
			</trkpt>
			<trkpt lat="48.55902" lon="15.33011">
				<ele>581.68</ele>
				<time>2025-07-29T04:51:56.793Z</time>
			</trkpt>
			<trkpt lat="48.55898" lon="15.33013">
				<ele>581.76</ele>
				<time>2025-07-29T04:51:57.365Z</time>
			</trkpt>
			<trkpt lat="48.5589" lon="15.3301">
				<ele>581.12</ele>
				<time>2025-07-29T04:51:58.484Z</time>
			</trkpt>
			<trkpt lat="48.55886" lon="15.33005">
				<ele>580.76</ele>
				<time>2025-07-29T04:51:59.188Z</time>
			</trkpt>
			<trkpt lat="48.55868" lon="15.32956">
				<ele>572.65</ele>
				<time>2025-07-29T04:52:04.195Z</time>
			</trkpt>
			<trkpt lat="48.55851" lon="15.32925">
				<ele>567.02</ele>
				<time>2025-07-29T04:52:07.770Z</time>
			</trkpt>
			<trkpt lat="48.55845" lon="15.32919">
				<ele>566.14</ele>
				<time>2025-07-29T04:52:08.732Z</time>
			</trkpt>
			<trkpt lat="48.55832" lon="15.32914">
				<ele>565.67</ele>
				<time>2025-07-29T04:52:10.522Z</time>
			</trkpt>
			<trkpt lat="48.55826" lon="15.32908">
				<ele>565.64</ele>
				<time>2025-07-29T04:52:11.479Z</time>
			</trkpt>
			<trkpt lat="48.55808" lon="15.3288">
				<ele>565.49</ele>
				<time>2025-07-29T04:52:14.907Z</time>
			</trkpt>
			<trkpt lat="48.55841" lon="15.32845">
				<ele>562.19</ele>
				<time>2025-07-29T04:52:20.217Z</time>
			</trkpt>
			<trkpt lat="48.55863" lon="15.32817">
				<ele>563.08</ele>
				<time>2025-07-29T04:52:23.976Z</time>
			</trkpt>
			<trkpt lat="48.5589" lon="15.32764">
				<ele>565.55</ele>
				<time>2025-07-29T04:52:29.710Z</time>
			</trkpt>
			<trkpt lat="48.55905" lon="15.3274">
				<ele>566.18</ele>
				<time>2025-07-29T04:52:32.517Z</time>
			</trkpt>
			<trkpt lat="48.55936" lon="15.32697">
				<ele>561.49</ele>
				<time>2025-07-29T04:52:37.879Z</time>
			</trkpt>
			<trkpt lat="48.5595" lon="15.32665">
				<ele>559.38</ele>
				<time>2025-07-29T04:52:41.085Z</time>
			</trkpt>
			<trkpt lat="48.55969" lon="15.32607">
				<ele>556.67</ele>
				<time>2025-07-29T04:52:46.441Z</time>
			</trkpt>
			<trkpt lat="48.55973" lon="15.32591">
				<ele>556.44</ele>
				<time>2025-07-29T04:52:47.846Z</time>
			</trkpt>
			<trkpt lat="48.55982" lon="15.32545">
				<ele>556.42</ele>
				<time>2025-07-29T04:52:51.760Z</time>
			</trkpt>
			<trkpt lat="48.55987" lon="15.32501">
				<ele>553.47</ele>
				<time>2025-07-29T04:52:55.369Z</time>
			</trkpt>
			<trkpt lat="48.55991" lon="15.32414">
				<ele>552.16</ele>
				<time>2025-07-29T04:53:02.320Z</time>
			</trkpt>
			<trkpt lat="48.55989" lon="15.32387">
				<ele>550.92</ele>
				<time>2025-07-29T04:53:04.459Z</time>
			</trkpt>
			<trkpt lat="48.55982" lon="15.32348">
				<ele>546.36</ele>
				<time>2025-07-29T04:53:07.615Z</time>
			</trkpt>
			<trkpt lat="48.55953" lon="15.32268">
				<ele>538.27</ele>
				<time>2025-07-29T04:53:14.629Z</time>
			</trkpt>
			<trkpt lat="48.55937" lon="15.3223">
				<ele>539.78</ele>
				<time>2025-07-29T04:53:18.034Z</time>
			</trkpt>
			<trkpt lat="48.55921" lon="15.32203">
				<ele>537.86</ele>
				<time>2025-07-29T04:53:20.745Z</time>
			</trkpt>
			<trkpt lat="48.55896" lon="15.32172">
				<ele>531.13</ele>
				<time>2025-07-29T04:53:24.360Z</time>
			</trkpt>
			<trkpt lat="48.55876" lon="15.3215">
				<ele>529.39</ele>
				<time>2025-07-29T04:53:27.092Z</time>
			</trkpt>
			<trkpt lat="48.55823" lon="15.32089">
				<ele>534.88</ele>
				<time>2025-07-29T04:53:34.307Z</time>
			</trkpt>
			<trkpt lat="48.55812" lon="15.32072">
				<ele>539.51</ele>
				<time>2025-07-29T04:53:35.979Z</time>
			</trkpt>
			<trkpt lat="48.55802" lon="15.32052">
				<ele>543.73</ele>
				<time>2025-07-29T04:53:37.730Z</time>
			</trkpt>
			<trkpt lat="48.55793" lon="15.32028">
				<ele>546.43</ele>
				<time>2025-07-29T04:53:39.640Z</time>
			</trkpt>
			<trkpt lat="48.55779" lon="15.31971">
				<ele>546.69</ele>
				<time>2025-07-29T04:53:43.790Z</time>
			</trkpt>
			<trkpt lat="48.55771" lon="15.31904">
				<ele>546.86</ele>
				<time>2025-07-29T04:53:48.338Z</time>
			</trkpt>
			<trkpt lat="48.55769" lon="15.31878">
				<ele>547.66</ele>
				<time>2025-07-29T04:53:50.058Z</time>
			</trkpt>
			<trkpt lat="48.5577" lon="15.31832">
				<ele>549.5</ele>
				<time>2025-07-29T04:53:53.043Z</time>
			</trkpt>
			<trkpt lat="48.55773" lon="15.31807">
				<ele>551.37</ele>
				<time>2025-07-29T04:53:54.669Z</time>
			</trkpt>
			<trkpt lat="48.55784" lon="15.31751">
				<ele>556.16</ele>
				<time>2025-07-29T04:53:58.349Z</time>
			</trkpt>
			<trkpt lat="48.55807" lon="15.31678">
				<ele>561.7</ele>
				<time>2025-07-29T04:54:03.302Z</time>
			</trkpt>
			<trkpt lat="48.55857" lon="15.31544">
				<ele>567.05</ele>
				<time>2025-07-29T04:54:12.266Z</time>
			</trkpt>
			<trkpt lat="48.55865" lon="15.31509">
				<ele>567.48</ele>
				<time>2025-07-29T04:54:14.341Z</time>
			</trkpt>
			<trkpt lat="48.5587" lon="15.31482">
				<ele>568.51</ele>
				<time>2025-07-29T04:54:15.899Z</time>
			</trkpt>
			<trkpt lat="48.55881" lon="15.31383">
				<ele>568.99</ele>
				<time>2025-07-29T04:54:21.388Z</time>
			</trkpt>
			<trkpt lat="48.55888" lon="15.31283">
				<ele>569.02</ele>
				<time>2025-07-29T04:54:26.748Z</time>
			</trkpt>
			<trkpt lat="48.55891" lon="15.3121">
				<ele>569.72</ele>
				<time>2025-07-29T04:54:30.560Z</time>
			</trkpt>
			<trkpt lat="48.55891" lon="15.31166">
				<ele>570.81</ele>
				<time>2025-07-29T04:54:32.819Z</time>
			</trkpt>
			<trkpt lat="48.55887" lon="15.31094">
				<ele>572.89</ele>
				<time>2025-07-29T04:54:36.474Z</time>
			</trkpt>
			<trkpt lat="48.55865" lon="15.30882">
				<ele>569.52</ele>
				<time>2025-07-29T04:54:46.929Z</time>
			</trkpt>
			<trkpt lat="48.55852" lon="15.30714">
				<ele>564.91</ele>
				<time>2025-07-29T04:54:54.763Z</time>
			</trkpt>
			<trkpt lat="48.55859" lon="15.30458">
				<ele>563.34</ele>
				<time>2025-07-29T04:55:05.974Z</time>
			</trkpt>
			<trkpt lat="48.55864" lon="15.30314">
				<ele>552.97</ele>
				<time>2025-07-29T04:55:11.951Z</time>
			</trkpt>
			<trkpt lat="48.55889" lon="15.30065">
				<ele>538.63</ele>
				<time>2025-07-29T04:55:21.840Z</time>
			</trkpt>
			<trkpt lat="48.55933" lon="15.29653">
				<ele>560.36</ele>
				<time>2025-07-29T04:55:36.783Z</time>
			</trkpt>
			<trkpt lat="48.55936" lon="15.2958">
				<ele>564.02</ele>
				<time>2025-07-29T04:55:39.228Z</time>
			</trkpt>
			<trkpt lat="48.55946" lon="15.29095">
				<ele>578.47</ele>
				<time>2025-07-29T04:55:54.237Z</time>
			</trkpt>
			<trkpt lat="48.55951" lon="15.29023">
				<ele>584.6</ele>
				<time>2025-07-29T04:55:56.307Z</time>
			</trkpt>
			<trkpt lat="48.55955" lon="15.2899">
				<ele>586.14</ele>
				<time>2025-07-29T04:55:57.252Z</time>
			</trkpt>
			<trkpt lat="48.55968" lon="15.28908">
				<ele>583.21</ele>
				<time>2025-07-29T04:55:59.589Z</time>
			</trkpt>
			<trkpt lat="48.56009" lon="15.28699">
				<ele>582.34</ele>
				<time>2025-07-29T04:56:05.384Z</time>
			</trkpt>
			<trkpt lat="48.56017" lon="15.28665">
				<ele>582.64</ele>
				<time>2025-07-29T04:56:06.311Z</time>
			</trkpt>
			<trkpt lat="48.5603" lon="15.28625">
				<ele>583</ele>
				<time>2025-07-29T04:56:07.442Z</time>
			</trkpt>
			<trkpt lat="48.56095" lon="15.28441">
				<ele>585.21</ele>
				<time>2025-07-29T04:56:12.560Z</time>
			</trkpt>
			<trkpt lat="48.56108" lon="15.28388">
				<ele>588.34</ele>
				<time>2025-07-29T04:56:13.899Z</time>
			</trkpt>
			<trkpt lat="48.56123" lon="15.28287">
				<ele>584.9</ele>
				<time>2025-07-29T04:56:16.300Z</time>
			</trkpt>
			<trkpt lat="48.56135" lon="15.28233">
				<ele>580.44</ele>
				<time>2025-07-29T04:56:17.594Z</time>
			</trkpt>
			<trkpt lat="48.56157" lon="15.28179">
				<ele>580.19</ele>
				<time>2025-07-29T04:56:19.012Z</time>
			</trkpt>
			<trkpt lat="48.56335" lon="15.27885">
				<ele>594.41</ele>
				<time>2025-07-29T04:56:27.431Z</time>
			</trkpt>
			<trkpt lat="48.56349" lon="15.27859">
				<ele>596.86</ele>
				<time>2025-07-29T04:56:28.103Z</time>
			</trkpt>
			<trkpt lat="48.56382" lon="15.27784">
				<ele>600.94</ele>
				<time>2025-07-29T04:56:29.885Z</time>
			</trkpt>
			<trkpt lat="48.56393" lon="15.27753">
				<ele>602.02</ele>
				<time>2025-07-29T04:56:30.571Z</time>
			</trkpt>
			<trkpt lat="48.56401" lon="15.27723">
				<ele>603.82</ele>
				<time>2025-07-29T04:56:31.197Z</time>
			</trkpt>
			<trkpt lat="48.56409" lon="15.27677">
				<ele>606.35</ele>
				<time>2025-07-29T04:56:32.110Z</time>
			</trkpt>
			<trkpt lat="48.56438" lon="15.27467">
				<ele>615.44</ele>
				<time>2025-07-29T04:56:36.117Z</time>
			</trkpt>
			<trkpt lat="48.5645" lon="15.27373">
				<ele>628.8</ele>
				<time>2025-07-29T04:56:37.852Z</time>
			</trkpt>
			<trkpt lat="48.56452" lon="15.27323">
				<ele>634.72</ele>
				<time>2025-07-29T04:56:38.748Z</time>
			</trkpt>
			<trkpt lat="48.56439" lon="15.27185">
				<ele>634.89</ele>
				<time>2025-07-29T04:56:41.199Z</time>
			</trkpt>
			<trkpt lat="48.56438" lon="15.27148">
				<ele>635.98</ele>
				<time>2025-07-29T04:56:41.840Z</time>
			</trkpt>
			<trkpt lat="48.56441" lon="15.27026">
				<ele>636.82</ele>
				<time>2025-07-29T04:56:43.930Z</time>
			</trkpt>
			<trkpt lat="48.5644" lon="15.26954">
				<ele>635.86</ele>
				<time>2025-07-29T04:56:45.146Z</time>
			</trkpt>
			<trkpt lat="48.56435" lon="15.26882">
				<ele>636.36</ele>
				<time>2025-07-29T04:56:46.356Z</time>
			</trkpt>
			<trkpt lat="48.56411" lon="15.26665">
				<ele>640.65</ele>
				<time>2025-07-29T04:56:49.971Z</time>
			</trkpt>
			<trkpt lat="48.56385" lon="15.26387">
				<ele>639.5</ele>
				<time>2025-07-29T04:56:54.481Z</time>
			</trkpt>
			<trkpt lat="48.56387" lon="15.26336">
				<ele>636.77</ele>
				<time>2025-07-29T04:56:55.293Z</time>
			</trkpt>
			<trkpt lat="48.5639" lon="15.26304">
				<ele>635.77</ele>
				<time>2025-07-29T04:56:55.806Z</time>
			</trkpt>
			<trkpt lat="48.56402" lon="15.26227">
				<ele>632.39</ele>
				<time>2025-07-29T04:56:57.058Z</time>
			</trkpt>
			<trkpt lat="48.56405" lon="15.26186">
				<ele>630.06</ele>
				<time>2025-07-29T04:56:57.710Z</time>
			</trkpt>
			<trkpt lat="48.56404" lon="15.26127">
				<ele>628.91</ele>
				<time>2025-07-29T04:56:58.642Z</time>
			</trkpt>
			<trkpt lat="48.56399" lon="15.2602">
				<ele>623.17</ele>
				<time>2025-07-29T04:57:00.335Z</time>
			</trkpt>
			<trkpt lat="48.56393" lon="15.25958">
				<ele>621.33</ele>
				<time>2025-07-29T04:57:01.323Z</time>
			</trkpt>
			<trkpt lat="48.56388" lon="15.25922">
				<ele>621</ele>
				<time>2025-07-29T04:57:01.904Z</time>
			</trkpt>
			<trkpt lat="48.56356" lon="15.25745">
				<ele>625.63</ele>
				<time>2025-07-29T04:57:04.812Z</time>
			</trkpt>
			<trkpt lat="48.56349" lon="15.25695">
				<ele>625.18</ele>
				<time>2025-07-29T04:57:05.626Z</time>
			</trkpt>
			<trkpt lat="48.56348" lon="15.25631">
				<ele>624.11</ele>
				<time>2025-07-29T04:57:06.649Z</time>
			</trkpt>
			<trkpt lat="48.5635" lon="15.25587">
				<ele>624.2</ele>
				<time>2025-07-29T04:57:07.356Z</time>
			</trkpt>
			<trkpt lat="48.56353" lon="15.25534">
				<ele>624.27</ele>
				<time>2025-07-29T04:57:08.212Z</time>
			</trkpt>
			<trkpt lat="48.56365" lon="15.25414">
				<ele>626.71</ele>
				<time>2025-07-29T04:57:10.180Z</time>
			</trkpt>
			<trkpt lat="48.56383" lon="15.2526">
				<ele>632.54</ele>
				<time>2025-07-29T04:57:12.751Z</time>
			</trkpt>
			<trkpt lat="48.56411" lon="15.25067">
				<ele>633.07</ele>
				<time>2025-07-29T04:57:16.071Z</time>
			</trkpt>
			<trkpt lat="48.56424" lon="15.24998">
				<ele>631.22</ele>
				<time>2025-07-29T04:57:17.300Z</time>
			</trkpt>
			<trkpt lat="48.56434" lon="15.24962">
				<ele>630.28</ele>
				<time>2025-07-29T04:57:17.974Z</time>
			</trkpt>
			<trkpt lat="48.56462" lon="15.24887">
				<ele>628.32</ele>
				<time>2025-07-29T04:57:19.477Z</time>
			</trkpt>
			<trkpt lat="48.56471" lon="15.24869">
				<ele>628</ele>
				<time>2025-07-29T04:57:19.874Z</time>
			</trkpt>
			<trkpt lat="48.56489" lon="15.2484">
				<ele>625.86</ele>
				<time>2025-07-29T04:57:20.578Z</time>
			</trkpt>
			<trkpt lat="48.56517" lon="15.24801">
				<ele>623.84</ele>
				<time>2025-07-29T04:57:21.605Z</time>
			</trkpt>
			<trkpt lat="48.56562" lon="15.24747">
				<ele>621.64</ele>
				<time>2025-07-29T04:57:23.176Z</time>
			</trkpt>
			<trkpt lat="48.56695" lon="15.24572">
				<ele>624.99</ele>
				<time>2025-07-29T04:57:28.170Z</time>
			</trkpt>
			<trkpt lat="48.56718" lon="15.24537">
				<ele>626.42</ele>
				<time>2025-07-29T04:57:29.125Z</time>
			</trkpt>
			<trkpt lat="48.56725" lon="15.24523">
				<ele>627.79</ele>
				<time>2025-07-29T04:57:29.467Z</time>
			</trkpt>
			<trkpt lat="48.56752" lon="15.24461">
				<ele>629.89</ele>
				<time>2025-07-29T04:57:30.930Z</time>
			</trkpt>
			<trkpt lat="48.56806" lon="15.24319">
				<ele>631.55</ele>
				<time>2025-07-29T04:57:34.246Z</time>
			</trkpt>
			<trkpt lat="48.56828" lon="15.24266">
				<ele>630.49</ele>
				<time>2025-07-29T04:57:35.547Z</time>
			</trkpt>
			<trkpt lat="48.56847" lon="15.2423">
				<ele>628.95</ele>
				<time>2025-07-29T04:57:36.518Z</time>
			</trkpt>
			<trkpt lat="48.5689" lon="15.24174">
				<ele>625.34</ele>
				<time>2025-07-29T04:57:38.355Z</time>
			</trkpt>
			<trkpt lat="48.57207" lon="15.23798">
				<ele>613.16</ele>
				<time>2025-07-29T04:57:52.627Z</time>
			</trkpt>
			<trkpt lat="48.57248" lon="15.23752">
				<ele>612.04</ele>
				<time>2025-07-29T04:57:54.607Z</time>
			</trkpt>
			<trkpt lat="48.5728" lon="15.23721">
				<ele>612.01</ele>
				<time>2025-07-29T04:57:56.107Z</time>
			</trkpt>
			<trkpt lat="48.5744" lon="15.23596">
				<ele>604.3</ele>
				<time>2025-07-29T04:58:03.552Z</time>
			</trkpt>
			<trkpt lat="48.57598" lon="15.2347">
				<ele>602</ele>
				<time>2025-07-29T04:58:11.514Z</time>
			</trkpt>
			<trkpt lat="48.57633" lon="15.23443">
				<ele>602</ele>
				<time>2025-07-29T04:58:13.347Z</time>
			</trkpt>
			<trkpt lat="48.58153" lon="15.2307">
				<ele>582</ele>
				<time>2025-07-29T04:58:43.998Z</time>
			</trkpt>
			<trkpt lat="48.58226" lon="15.23017">
				<ele>583.37</ele>
				<time>2025-07-29T04:58:48.933Z</time>
			</trkpt>
			<trkpt lat="48.58243" lon="15.23003">
				<ele>583.85</ele>
				<time>2025-07-29T04:58:50.137Z</time>
			</trkpt>
			<trkpt lat="48.58266" lon="15.22981">
				<ele>584.87</ele>
				<time>2025-07-29T04:58:51.847Z</time>
			</trkpt>
			<trkpt lat="48.58284" lon="15.22959">
				<ele>585.85</ele>
				<time>2025-07-29T04:58:53.316Z</time>
			</trkpt>
			<trkpt lat="48.58301" lon="15.22933">
				<ele>586.77</ele>
				<time>2025-07-29T04:58:54.866Z</time>
			</trkpt>
			<trkpt lat="48.58328" lon="15.22876">
				<ele>588.38</ele>
				<time>2025-07-29T04:58:57.881Z</time>
			</trkpt>
			<trkpt lat="48.58387" lon="15.22739">
				<ele>593.37</ele>
				<time>2025-07-29T04:59:05.136Z</time>
			</trkpt>
			<trkpt lat="48.58412" lon="15.22684">
				<ele>592.24</ele>
				<time>2025-07-29T04:59:08.190Z</time>
			</trkpt>
			<trkpt lat="48.58425" lon="15.22655">
				<ele>593.08</ele>
				<time>2025-07-29T04:59:09.816Z</time>
			</trkpt>
			<trkpt lat="48.58449" lon="15.2261">
				<ele>594.41</ele>
				<time>2025-07-29T04:59:12.530Z</time>
			</trkpt>
			<trkpt lat="48.58487" lon="15.22557">
				<ele>589.52</ele>
				<time>2025-07-29T04:59:16.267Z</time>
			</trkpt>
			<trkpt lat="48.58507" lon="15.22535">
				<ele>587.52</ele>
				<time>2025-07-29T04:59:18.082Z</time>
			</trkpt>
			<trkpt lat="48.58634" lon="15.22406">
				<ele>580.93</ele>
				<time>2025-07-29T04:59:29.713Z</time>
			</trkpt>
			<trkpt lat="48.5866" lon="15.22378">
				<ele>584.89</ele>
				<time>2025-07-29T04:59:32.228Z</time>
			</trkpt>
			<trkpt lat="48.58674" lon="15.22359">
				<ele>586.51</ele>
				<time>2025-07-29T04:59:33.725Z</time>
			</trkpt>
			<trkpt lat="48.58686" lon="15.22341">
				<ele>586.7</ele>
				<time>2025-07-29T04:59:35.080Z</time>
			</trkpt>
			<trkpt lat="48.58702" lon="15.2231">
				<ele>587.13</ele>
				<time>2025-07-29T04:59:37.182Z</time>
			</trkpt>
			<trkpt lat="48.58804" lon="15.22099">
				<ele>587.03</ele>
				<time>2025-07-29T04:59:51.695Z</time>
			</trkpt>
			<trkpt lat="48.58866" lon="15.2198">
				<ele>588.43</ele>
				<time>2025-07-29T05:00:00.553Z</time>
			</trkpt>
			<trkpt lat="48.58884" lon="15.21952">
				<ele>585.59</ele>
				<time>2025-07-29T05:00:02.891Z</time>
			</trkpt>
			<trkpt lat="48.58911" lon="15.2192">
				<ele>583.3</ele>
				<time>2025-07-29T05:00:06.031Z</time>
			</trkpt>
			<trkpt lat="48.58984" lon="15.21845">
				<ele>577.98</ele>
				<time>2025-07-29T05:00:14.295Z</time>
			</trkpt>
			<trkpt lat="48.59089" lon="15.21731">
				<ele>579.97</ele>
				<time>2025-07-29T05:00:26.892Z</time>
			</trkpt>
			<trkpt lat="48.59211" lon="15.21591">
				<ele>580.51</ele>
				<time>2025-07-29T05:00:42.597Z</time>
			</trkpt>
			<trkpt lat="48.59279" lon="15.21506">
				<ele>581.29</ele>
				<time>2025-07-29T05:00:52.040Z</time>
			</trkpt>
			<trkpt lat="48.59369" lon="15.21382">
				<ele>581.71</ele>
				<time>2025-07-29T05:01:05.559Z</time>
			</trkpt>
			<trkpt lat="48.59363" lon="15.21369">
				<ele>581.92</ele>
				<time>2025-07-29T05:01:06.750Z</time>
			</trkpt>
			<trkpt lat="48.59362" lon="15.21361">
				<ele>581.96</ele>
				<time>2025-07-29T05:01:07.364Z</time>
			</trkpt>
			<trkpt lat="48.59367" lon="15.21352">
				<ele>581.84</ele>
				<time>2025-07-29T05:01:08.251Z</time>
			</trkpt>
			<trkpt lat="48.59383" lon="15.21341">
				<ele>581.76</ele>
				<time>2025-07-29T05:01:10.266Z</time>
			</trkpt>
			<trkpt lat="48.59395" lon="15.2132">
				<ele>581.14</ele>
				<time>2025-07-29T05:01:12.384Z</time>
			</trkpt>
			<trkpt lat="48.59421" lon="15.21282">
				<ele>579.67</ele>
				<time>2025-07-29T05:01:16.595Z</time>
			</trkpt>
			<trkpt lat="48.59436" lon="15.21267">
				<ele>578.58</ele>
				<time>2025-07-29T05:01:18.709Z</time>
			</trkpt>
			<trkpt lat="48.59462" lon="15.21248">
				<ele>577.39</ele>
				<time>2025-07-29T05:01:22.130Z</time>
			</trkpt>
			<trkpt lat="48.59469" lon="15.21238">
				<ele>577.46</ele>
				<time>2025-07-29T05:01:23.279Z</time>
			</trkpt>
			<trkpt lat="48.59471" lon="15.2123">
				<ele>577.69</ele>
				<time>2025-07-29T05:01:23.955Z</time>
			</trkpt>
			<trkpt lat="48.59474" lon="15.212">
				<ele>578</ele>
				<time>2025-07-29T05:01:26.365Z</time>
			</trkpt>
			<trkpt lat="48.59477" lon="15.2118">
				<ele>578.5</ele>
				<time>2025-07-29T05:01:28.003Z</time>
			</trkpt>
			<trkpt lat="48.59499" lon="15.21123">
				<ele>579</ele>
				<time>2025-07-29T05:01:33.325Z</time>
			</trkpt>
			<trkpt lat="48.59507" lon="15.21089">
				<ele>579</ele>
				<time>2025-07-29T05:01:36.268Z</time>
			</trkpt>
			<trkpt lat="48.5951" lon="15.21068">
				<ele>579</ele>
				<time>2025-07-29T05:01:38.032Z</time>
			</trkpt>
			<trkpt lat="48.5952" lon="15.20941">
				<ele>576.91</ele>
				<time>2025-07-29T05:01:48.704Z</time>
			</trkpt>
			<trkpt lat="48.59541" lon="15.20827">
				<ele>575.89</ele>
				<time>2025-07-29T05:01:58.847Z</time>
			</trkpt>
			<trkpt lat="48.59567" lon="15.20697">
				<ele>576.88</ele>
				<time>2025-07-29T05:02:10.811Z</time>
			</trkpt>
			<trkpt lat="48.59587" lon="15.20607">
				<ele>577.69</ele>
				<time>2025-07-29T05:02:19.384Z</time>
			</trkpt>
			<trkpt lat="48.59661" lon="15.20322">
				<ele>577.44</ele>
				<time>2025-07-29T05:02:48.226Z</time>
			</trkpt>
			<trkpt lat="48.59684" lon="15.20251">
				<ele>577.69</ele>
				<time>2025-07-29T05:02:55.976Z</time>
			</trkpt>
			<trkpt lat="48.59701" lon="15.20202">
				<ele>578.44</ele>
				<time>2025-07-29T05:03:01.475Z</time>
			</trkpt>
			<trkpt lat="48.59729" lon="15.20099">
				<ele>577.57</ele>
				<time>2025-07-29T05:03:12.733Z</time>
			</trkpt>
			<trkpt lat="48.5974" lon="15.20068">
				<ele>577.33</ele>
				<time>2025-07-29T05:03:16.342Z</time>
			</trkpt>
			<trkpt lat="48.59768" lon="15.20091">
				<ele>574.88</ele>
				<time>2025-07-29T05:03:21.328Z</time>
			</trkpt>
			<trkpt lat="48.59777" lon="15.20104">
				<ele>573.99</ele>
				<time>2025-07-29T05:03:23.288Z</time>
			</trkpt>
			<trkpt lat="48.59781" lon="15.20113">
				<ele>573.68</ele>
				<time>2025-07-29T05:03:24.421Z</time>
			</trkpt>
			<trkpt lat="48.59799" lon="15.20168">
				<ele>571.66</ele>
				<time>2025-07-29T05:03:35.023Z</time>
			</trkpt>
			<trkpt lat="48.59806" lon="15.20162">
				<ele>570.9</ele>
				<time>2025-07-29T05:03:45.768Z</time>
			</trkpt>
			<trkpt lat="48.59808" lon="15.20152">
				<ele>570.71</ele>
				<time>2025-07-29T05:03:48.190Z</time>
			</trkpt>
			<trkpt lat="48.59799" lon="15.20132">
				<ele>571.84</ele>
				<time>2025-07-29T05:03:52.573Z</time>
			</trkpt>
			<trkpt lat="48.59791" lon="15.20101">
				<ele>573</ele>
				<time>2025-07-29T05:03:58.363Z</time>
			</trkpt>
			<trkpt lat="48.59781" lon="15.20076">
				<ele>573.72</ele>
				<time>2025-07-29T05:04:03.226Z</time>
			</trkpt>
			<trkpt lat="48.59781" lon="15.2006">
				<ele>573.72</ele>
				<time>2025-07-29T05:04:05.803Z</time>
			</trkpt>
			<trkpt lat="48.59859" lon="15.19867">
				<ele>574</ele>
				<time>2025-07-29T05:04:36.286Z</time>
			</trkpt>
			<trkpt lat="48.59887" lon="15.19793">
				<ele>573.59</ele>
				<time>2025-07-29T05:04:45.205Z</time>
			</trkpt>
			<trkpt lat="48.59903" lon="15.19761">
				<ele>572.45</ele>
				<time>2025-07-29T05:04:48.978Z</time>
			</trkpt>
			<trkpt lat="48.59955" lon="15.19677">
				<ele>571.61</ele>
				<time>2025-07-29T05:04:58.454Z</time>
			</trkpt>
			<trkpt lat="48.59972" lon="15.19661">
				<ele>572.18</ele>
				<time>2025-07-29T05:05:00.646Z</time>
			</trkpt>
			<trkpt lat="48.59986" lon="15.19642">
				<ele>572.85</ele>
				<time>2025-07-29T05:05:02.600Z</time>
			</trkpt>
			<trkpt lat="48.60009" lon="15.19618">
				<ele>572.65</ele>
				<time>2025-07-29T05:05:05.326Z</time>
			</trkpt>
			<trkpt lat="48.60018" lon="15.19612">
				<ele>572.34</ele>
				<time>2025-07-29T05:05:06.239Z</time>
			</trkpt>
			<trkpt lat="48.60039" lon="15.19601">
				<ele>571.56</ele>
				<time>2025-07-29T05:05:08.215Z</time>
			</trkpt>
			<trkpt lat="48.60062" lon="15.19596">
				<ele>570.64</ele>
				<time>2025-07-29T05:05:10.162Z</time>
			</trkpt>
			<trkpt lat="48.60079" lon="15.19598">
				<ele>569.67</ele>
				<time>2025-07-29T05:05:11.518Z</time>
			</trkpt>
			<trkpt lat="48.60149" lon="15.19622">
				<ele>566.8</ele>
				<time>2025-07-29T05:05:16.644Z</time>
			</trkpt>
			<trkpt lat="48.60158" lon="15.19627">
				<ele>565.99</ele>
				<time>2025-07-29T05:05:17.267Z</time>
			</trkpt>
			<trkpt lat="48.60161" lon="15.19632">
				<ele>565.6</ele>
				<time>2025-07-29T05:05:17.553Z</time>
			</trkpt>
			<trkpt lat="48.60163" lon="15.19641">
				<ele>565.17</ele>
				<time>2025-07-29T05:05:17.950Z</time>
			</trkpt>
			<trkpt lat="48.60165" lon="15.19666">
				<ele>564.14</ele>
				<time>2025-07-29T05:05:18.981Z</time>
			</trkpt>
			<trkpt lat="48.60164" lon="15.19678">
				<ele>563.38</ele>
				<time>2025-07-29T05:05:19.464Z</time>
			</trkpt>
			<trkpt lat="48.6016" lon="15.19695">
				<ele>562.83</ele>
				<time>2025-07-29T05:05:20.173Z</time>
			</trkpt>
			<trkpt lat="48.6016" lon="15.19704">
				<ele>562.47</ele>
				<time>2025-07-29T05:05:20.521Z</time>
			</trkpt>
			<trkpt lat="48.60163" lon="15.1971">
				<ele>561.83</ele>
				<time>2025-07-29T05:05:20.809Z</time>
			</trkpt>
			<trkpt lat="48.60167" lon="15.19712">
				<ele>561.3</ele>
				<time>2025-07-29T05:05:21.051Z</time>
			</trkpt>
			<trkpt lat="48.60178" lon="15.19712">
				<ele>560.35</ele>
				<time>2025-07-29T05:05:21.676Z</time>
			</trkpt>
			<trkpt lat="48.60188" lon="15.19891">
				<ele>556.68</ele>
				<time>2025-07-29T05:05:28.017Z</time>
			</trkpt>
			<trkpt lat="48.60198" lon="15.19953">
				<ele>553.14</ele>
				<time>2025-07-29T05:05:30.233Z</time>
			</trkpt>
			<trkpt lat="48.60209" lon="15.2">
				<ele>550.37</ele>
				<time>2025-07-29T05:05:32.011Z</time>
			</trkpt>
			<trkpt lat="48.60242" lon="15.20135">
				<ele>552.81</ele>
				<time>2025-07-29T05:05:37.628Z</time>
			</trkpt>
			<trkpt lat="48.60295" lon="15.20374">
				<ele>547.75</ele>
				<time>2025-07-29T05:05:47.957Z</time>
			</trkpt>
			<trkpt lat="48.60314" lon="15.20455">
				<ele>548.17</ele>
				<time>2025-07-29T05:05:53.148Z</time>
			</trkpt>
			<trkpt lat="48.60362" lon="15.20461">
				<ele>547.13</ele>
				<time>2025-07-29T05:05:58.070Z</time>
			</trkpt>
			<trkpt lat="48.60443" lon="15.20475">
				<ele>545.11</ele>
				<time>2025-07-29T05:06:07.297Z</time>
			</trkpt>
			<trkpt lat="48.60508" lon="15.20489">
				<ele>551.05</ele>
				<time>2025-07-29T05:06:15.352Z</time>
			</trkpt>
			<trkpt lat="48.60549" lon="15.20495">
				<ele>554.61</ele>
				<time>2025-07-29T05:06:20.606Z</time>
			</trkpt>
			<trkpt lat="48.60595" lon="15.20497">
				<ele>555.84</ele>
				<time>2025-07-29T05:06:26.595Z</time>
			</trkpt>
			<trkpt lat="48.60631" lon="15.20489">
				<ele>555.22</ele>
				<time>2025-07-29T05:06:31.383Z</time>
			</trkpt>
			<trkpt lat="48.60683" lon="15.20456">
				<ele>552.24</ele>
				<time>2025-07-29T05:06:38.821Z</time>
			</trkpt>
			<trkpt lat="48.60876" lon="15.20318">
				<ele>543.66</ele>
				<time>2025-07-29T05:07:05.483Z</time>
			</trkpt>
			<trkpt lat="48.61059" lon="15.20194">
				<ele>536.85</ele>
				<time>2025-07-29T05:07:29.665Z</time>
			</trkpt>
			<trkpt lat="48.61189" lon="15.20115">
				<ele>533</ele>
				<time>2025-07-29T05:07:46.681Z</time>
			</trkpt>
			<trkpt lat="48.6123" lon="15.20085">
				<ele>530.71</ele>
				<time>2025-07-29T05:07:52.174Z</time>
			</trkpt>
			<trkpt lat="48.61262" lon="15.20058">
				<ele>528.61</ele>
				<time>2025-07-29T05:07:56.567Z</time>
			</trkpt>
			<trkpt lat="48.61282" lon="15.20037">
				<ele>527.71</ele>
				<time>2025-07-29T05:07:59.470Z</time>
			</trkpt>
			<trkpt lat="48.613" lon="15.20014">
				<ele>525.83</ele>
				<time>2025-07-29T05:08:02.266Z</time>
			</trkpt>
			<trkpt lat="48.61343" lon="15.1995">
				<ele>520.59</ele>
				<time>2025-07-29T05:08:09.162Z</time>
			</trkpt>
			<trkpt lat="48.6136" lon="15.19927">
				<ele>519.06</ele>
				<time>2025-07-29T05:08:11.629Z</time>
			</trkpt>
			<trkpt lat="48.61379" lon="15.1991">
				<ele>516.97</ele>
				<time>2025-07-29T05:08:13.949Z</time>
			</trkpt>
			<trkpt lat="48.61398" lon="15.19903">
				<ele>514.64</ele>
				<time>2025-07-29T05:08:15.952Z</time>
			</trkpt>
			<trkpt lat="48.61407" lon="15.19902">
				<ele>513.32</ele>
				<time>2025-07-29T05:08:16.860Z</time>
			</trkpt>
			<trkpt lat="48.61425" lon="15.19907">
				<ele>511.57</ele>
				<time>2025-07-29T05:08:18.673Z</time>
			</trkpt>
			<trkpt lat="48.61449" lon="15.19926">
				<ele>510.89</ele>
				<time>2025-07-29T05:08:21.286Z</time>
			</trkpt>
			<trkpt lat="48.61463" lon="15.19943">
				<ele>509.91</ele>
				<time>2025-07-29T05:08:22.976Z</time>
			</trkpt>
			<trkpt lat="48.61478" lon="15.19969">
				<ele>508.31</ele>
				<time>2025-07-29T05:08:25.077Z</time>
			</trkpt>
			<trkpt lat="48.61489" lon="15.19997">
				<ele>507.44</ele>
				<time>2025-07-29T05:08:27.018Z</time>
			</trkpt>
			<trkpt lat="48.61496" lon="15.20008">
				<ele>506.24</ele>
				<time>2025-07-29T05:08:27.914Z</time>
			</trkpt>
			<trkpt lat="48.61504" lon="15.20012">
				<ele>505.07</ele>
				<time>2025-07-29T05:08:28.656Z</time>
			</trkpt>
			<trkpt lat="48.61508" lon="15.20012">
				<ele>504.6</ele>
				<time>2025-07-29T05:08:29.006Z</time>
			</trkpt>
			<trkpt lat="48.61515" lon="15.20007">
				<ele>504.02</ele>
				<time>2025-07-29T05:08:29.681Z</time>
			</trkpt>
			<trkpt lat="48.6154" lon="15.19986">
				<ele>502.26</ele>
				<time>2025-07-29T05:08:32.136Z</time>
			</trkpt>
			<trkpt lat="48.61571" lon="15.1994">
				<ele>502.72</ele>
				<time>2025-07-29T05:08:35.768Z</time>
			</trkpt>
			<trkpt lat="48.61612" lon="15.20036">
				<ele>501.83</ele>
				<time>2025-07-29T05:08:41.887Z</time>
			</trkpt>
			<trkpt lat="48.61628" lon="15.20081">
				<ele>500.75</ele>
				<time>2025-07-29T05:08:44.572Z</time>
			</trkpt>
			<trkpt lat="48.61636" lon="15.20096">
				<ele>500.89</ele>
				<time>2025-07-29T05:08:45.580Z</time>
			</trkpt>
			<trkpt lat="48.61628" lon="15.20081">
				<ele>500.75</ele>
				<time>2025-07-29T05:08:46.588Z</time>
			</trkpt>
			<trkpt lat="48.61612" lon="15.20036">
				<ele>501.83</ele>
				<time>2025-07-29T05:08:49.259Z</time>
			</trkpt>
			<trkpt lat="48.61571" lon="15.1994">
				<ele>502.72</ele>
				<time>2025-07-29T05:08:55.289Z</time>
			</trkpt>
			<trkpt lat="48.61584" lon="15.19922">
				<ele>504.01</ele>
				<time>2025-07-29T05:08:56.718Z</time>
			</trkpt>
			<trkpt lat="48.61586" lon="15.1992">
				<ele>504.26</ele>
				<time>2025-07-29T05:08:56.914Z</time>
			</trkpt>
			<trkpt lat="48.61593" lon="15.19918">
				<ele>505.39</ele>
				<time>2025-07-29T05:08:57.496Z</time>
			</trkpt>
			<trkpt lat="48.616" lon="15.19921">
				<ele>506.01</ele>
				<time>2025-07-29T05:08:58.092Z</time>
			</trkpt>
			<trkpt lat="48.61618" lon="15.19956">
				<ele>506.8</ele>
				<time>2025-07-29T05:09:00.522Z</time>
			</trkpt>
			<trkpt lat="48.61645" lon="15.1999">
				<ele>510.05</ele>
				<time>2025-07-29T05:09:03.499Z</time>
			</trkpt>
			<trkpt lat="48.61664" lon="15.2002">
				<ele>511.35</ele>
				<time>2025-07-29T05:09:05.883Z</time>
			</trkpt>
			<trkpt lat="48.61673" lon="15.20029">
				<ele>512.7</ele>
				<time>2025-07-29T05:09:06.835Z</time>
			</trkpt>
			<trkpt lat="48.61684" lon="15.20029">
				<ele>515.38</ele>
				<time>2025-07-29T05:09:07.816Z</time>
			</trkpt>
			<trkpt lat="48.61706" lon="15.2002">
				<ele>519.54</ele>
				<time>2025-07-29T05:09:09.880Z</time>
			</trkpt>
			<trkpt lat="48.61713" lon="15.20014">
				<ele>520.51</ele>
				<time>2025-07-29T05:09:10.620Z</time>
			</trkpt>
			<trkpt lat="48.61717" lon="15.20006">
				<ele>521.33</ele>
				<time>2025-07-29T05:09:11.235Z</time>
			</trkpt>
			<trkpt lat="48.61731" lon="15.19946">
				<ele>523.23</ele>
				<time>2025-07-29T05:09:15.237Z</time>
			</trkpt>
			<trkpt lat="48.61739" lon="15.19915">
				<ele>523.89</ele>
				<time>2025-07-29T05:09:17.407Z</time>
			</trkpt>
			<trkpt lat="48.61746" lon="15.19865">
				<ele>528.53</ele>
				<time>2025-07-29T05:09:20.854Z</time>
			</trkpt>
			<trkpt lat="48.61752" lon="15.19801">
				<ele>533.83</ele>
				<time>2025-07-29T05:09:25.427Z</time>
			</trkpt>
			<trkpt lat="48.61757" lon="15.19702">
				<ele>534.43</ele>
				<time>2025-07-29T05:09:32.977Z</time>
			</trkpt>
			<trkpt lat="48.61762" lon="15.19606">
				<ele>538.5</ele>
				<time>2025-07-29T05:09:40.986Z</time>
			</trkpt>
			<trkpt lat="48.61767" lon="15.19407">
				<ele>551.31</ele>
				<time>2025-07-29T05:10:00.073Z</time>
			</trkpt>
			<trkpt lat="48.61769" lon="15.19169">
				<ele>557.92</ele>
				<time>2025-07-29T05:10:28.256Z</time>
			</trkpt>
			<trkpt lat="48.61766" lon="15.19137">
				<ele>559.66</ele>
				<time>2025-07-29T05:10:32.601Z</time>
			</trkpt>
			<trkpt lat="48.61756" lon="15.19074">
				<ele>561.22</ele>
				<time>2025-07-29T05:10:41.718Z</time>
			</trkpt>
			<trkpt lat="48.61742" lon="15.19031">
				<ele>561.6</ele>
				<time>2025-07-29T05:10:50.289Z</time>
			</trkpt>
			<trkpt lat="48.61642" lon="15.18794">
				<ele>556.32</ele>
				<time>2025-07-29T05:12:03.781Z</time>
			</trkpt>
			<trkpt lat="48.6162" lon="15.18747">
				<ele>558.21</ele>
				<time>2025-07-29T05:12:10.645Z</time>
			</trkpt>
			<trkpt lat="48.61612" lon="15.18733">
				<ele>558.82</ele>
				<time>2025-07-29T05:12:12.527Z</time>
			</trkpt>
			<trkpt lat="48.6159" lon="15.18706">
				<ele>556.98</ele>
				<time>2025-07-29T05:12:16.814Z</time>
			</trkpt>
			<trkpt lat="48.61569" lon="15.18688">
				<ele>555.82</ele>
				<time>2025-07-29T05:12:20.399Z</time>
			</trkpt>
			<trkpt lat="48.61535" lon="15.18667">
				<ele>553.79</ele>
				<time>2025-07-29T05:12:25.736Z</time>
			</trkpt>
			<trkpt lat="48.61518" lon="15.1865">
				<ele>554.04</ele>
				<time>2025-07-29T05:12:28.639Z</time>
			</trkpt>
			<trkpt lat="48.61511" lon="15.18638">
				<ele>554.26</ele>
				<time>2025-07-29T05:12:30.129Z</time>
			</trkpt>
			<trkpt lat="48.61506" lon="15.18623">
				<ele>553</ele>
				<time>2025-07-29T05:12:31.681Z</time>
			</trkpt>
			<trkpt lat="48.61503" lon="15.18606">
				<ele>550.96</ele>
				<time>2025-07-29T05:12:33.294Z</time>
			</trkpt>
			<trkpt lat="48.61503" lon="15.18573">
				<ele>547.03</ele>
				<time>2025-07-29T05:12:36.284Z</time>
			</trkpt>
			<trkpt lat="48.61511" lon="15.18541">
				<ele>545.91</ele>
				<time>2025-07-29T05:12:39.334Z</time>
			</trkpt>
			<trkpt lat="48.61561" lon="15.18386">
				<ele>534.57</ele>
				<time>2025-07-29T05:12:53.993Z</time>
			</trkpt>
			<trkpt lat="48.61563" lon="15.18374">
				<ele>534.85</ele>
				<time>2025-07-29T05:12:55.001Z</time>
			</trkpt>
			<trkpt lat="48.61561" lon="15.18349">
				<ele>533.52</ele>
				<time>2025-07-29T05:12:57.033Z</time>
			</trkpt>
			<trkpt lat="48.61535" lon="15.18257">
				<ele>535.7</ele>
				<time>2025-07-29T05:13:04.881Z</time>
			</trkpt>
			<trkpt lat="48.61528" lon="15.18221">
				<ele>537.33</ele>
				<time>2025-07-29T05:13:07.733Z</time>
			</trkpt>
			<trkpt lat="48.61519" lon="15.18194">
				<ele>535.44</ele>
				<time>2025-07-29T05:13:09.997Z</time>
			</trkpt>
			<trkpt lat="48.61507" lon="15.1817">
				<ele>531.2</ele>
				<time>2025-07-29T05:13:12.220Z</time>
			</trkpt>
			<trkpt lat="48.61462" lon="15.18108">
				<ele>512.68</ele>
				<time>2025-07-29T05:13:18.839Z</time>
			</trkpt>
			<trkpt lat="48.61442" lon="15.18091">
				<ele>512.7</ele>
				<time>2025-07-29T05:13:21.266Z</time>
			</trkpt>
			<trkpt lat="48.61273" lon="15.17976">
				<ele>511.8</ele>
				<time>2025-07-29T05:13:39.627Z</time>
			</trkpt>
			<trkpt lat="48.61247" lon="15.17949">
				<ele>510.8</ele>
				<time>2025-07-29T05:13:42.552Z</time>
			</trkpt>
			<trkpt lat="48.61229" lon="15.1792">
				<ele>512.9</ele>
				<time>2025-07-29T05:13:44.951Z</time>
			</trkpt>
			<trkpt lat="48.6122" lon="15.17903">
				<ele>513.95</ele>
				<time>2025-07-29T05:13:46.250Z</time>
			</trkpt>
			<trkpt lat="48.61211" lon="15.17878">
				<ele>515.19</ele>
				<time>2025-07-29T05:13:47.932Z</time>
			</trkpt>
			<trkpt lat="48.61199" lon="15.17837">
				<ele>515.39</ele>
				<time>2025-07-29T05:13:50.548Z</time>
			</trkpt>
			<trkpt lat="48.61196" lon="15.1782">
				<ele>515.14</ele>
				<time>2025-07-29T05:13:51.563Z</time>
			</trkpt>
			<trkpt lat="48.61192" lon="15.17772">
				<ele>513.87</ele>
				<time>2025-07-29T05:13:54.325Z</time>
			</trkpt>
			<trkpt lat="48.61192" lon="15.17723">
				<ele>514.81</ele>
				<time>2025-07-29T05:13:57.077Z</time>
			</trkpt>
			<trkpt lat="48.61192" lon="15.17655">
				<ele>514.76</ele>
				<time>2025-07-29T05:14:00.827Z</time>
			</trkpt>
			<trkpt lat="48.61177" lon="15.17529">
				<ele>513.32</ele>
				<time>2025-07-29T05:14:07.693Z</time>
			</trkpt>
			<trkpt lat="48.61174" lon="15.17489">
				<ele>515.78</ele>
				<time>2025-07-29T05:14:09.805Z</time>
			</trkpt>
			<trkpt lat="48.6117" lon="15.1738">
				<ele>524.94</ele>
				<time>2025-07-29T05:14:15.436Z</time>
			</trkpt>
			<trkpt lat="48.61167" lon="15.17353">
				<ele>525.65</ele>
				<time>2025-07-29T05:14:16.828Z</time>
			</trkpt>
			<trkpt lat="48.61163" lon="15.17329">
				<ele>526.6</ele>
				<time>2025-07-29T05:14:18.080Z</time>
			</trkpt>
			<trkpt lat="48.61159" lon="15.17315">
				<ele>527.07</ele>
				<time>2025-07-29T05:14:18.849Z</time>
			</trkpt>
			<trkpt lat="48.61148" lon="15.17294">
				<ele>525.86</ele>
				<time>2025-07-29T05:14:20.195Z</time>
			</trkpt>
			<trkpt lat="48.61115" lon="15.17249">
				<ele>517.48</ele>
				<time>2025-07-29T05:14:23.547Z</time>
			</trkpt>
			<trkpt lat="48.61032" lon="15.17154">
				<ele>512.31</ele>
				<time>2025-07-29T05:14:31.296Z</time>
			</trkpt>
			<trkpt lat="48.60997" lon="15.17109">
				<ele>511.08</ele>
				<time>2025-07-29T05:14:34.685Z</time>
			</trkpt>
			<trkpt lat="48.6096" lon="15.1707">
				<ele>512.94</ele>
				<time>2025-07-29T05:14:38.004Z</time>
			</trkpt>
			<trkpt lat="48.60963" lon="15.17056">
				<ele>513.92</ele>
				<time>2025-07-29T05:14:38.720Z</time>
			</trkpt>
			<trkpt lat="48.60959" lon="15.17044">
				<ele>514</ele>
				<time>2025-07-29T05:14:39.374Z</time>
			</trkpt>
			<trkpt lat="48.60951" lon="15.17039">
				<ele>514</ele>
				<time>2025-07-29T05:14:40.011Z</time>
			</trkpt>
			<trkpt lat="48.60943" lon="15.17042">
				<ele>514.13</ele>
				<time>2025-07-29T05:14:40.617Z</time>
			</trkpt>
			<trkpt lat="48.60938" lon="15.17049">
				<ele>514.47</ele>
				<time>2025-07-29T05:14:41.119Z</time>
			</trkpt>
			<trkpt lat="48.60937" lon="15.17059">
				<ele>514.25</ele>
				<time>2025-07-29T05:14:41.611Z</time>
			</trkpt>
			<trkpt lat="48.6094" lon="15.1707">
				<ele>513.25</ele>
				<time>2025-07-29T05:14:42.191Z</time>
			</trkpt>
			<trkpt lat="48.60943" lon="15.17075">
				<ele>512.65</ele>
				<time>2025-07-29T05:14:42.520Z</time>
			</trkpt>
			<trkpt lat="48.60903" lon="15.1716">
				<ele>514.52</ele>
				<time>2025-07-29T05:14:47.616Z</time>
			</trkpt>
			<trkpt lat="48.60898" lon="15.17156">
				<ele>515.55</ele>
				<time>2025-07-29T05:14:48.035Z</time>
			</trkpt>
			<trkpt lat="48.60891" lon="15.17156">
				<ele>516.78</ele>
				<time>2025-07-29T05:14:48.555Z</time>
			</trkpt>
			<trkpt lat="48.60888" lon="15.1716">
				<ele>517.3</ele>
				<time>2025-07-29T05:14:48.852Z</time>
			</trkpt>
			<trkpt lat="48.60885" lon="15.17169">
				<ele>517.58</ele>
				<time>2025-07-29T05:14:49.347Z</time>
			</trkpt>
			<trkpt lat="48.60887" lon="15.17179">
				<ele>517.68</ele>
				<time>2025-07-29T05:14:49.861Z</time>
			</trkpt>
			<trkpt lat="48.60893" lon="15.17186">
				<ele>516.94</ele>
				<time>2025-07-29T05:14:50.426Z</time>
			</trkpt>
			<trkpt lat="48.6089" lon="15.17207">
				<ele>518.7</ele>
				<time>2025-07-29T05:14:51.486Z</time>
			</trkpt>
			<trkpt lat="48.60884" lon="15.17232">
				<ele>520.79</ele>
				<time>2025-07-29T05:14:52.801Z</time>
			</trkpt>
			<trkpt lat="48.60872" lon="15.17272">
				<ele>521.38</ele>
				<time>2025-07-29T05:14:54.985Z</time>
			</trkpt>
			<trkpt lat="48.6086" lon="15.17303">
				<ele>521.12</ele>
				<time>2025-07-29T05:14:56.780Z</time>
			</trkpt>
			<trkpt lat="48.60844" lon="15.17341">
				<ele>522.27</ele>
				<time>2025-07-29T05:14:59.047Z</time>
			</trkpt>
			<trkpt lat="48.60825" lon="15.17375">
				<ele>523.58</ele>
				<time>2025-07-29T05:15:01.305Z</time>
			</trkpt>
			<trkpt lat="48.60806" lon="15.17401">
				<ele>524.9</ele>
				<time>2025-07-29T05:15:03.286Z</time>
			</trkpt>
			<trkpt lat="48.60752" lon="15.1747">
				<ele>527.92</ele>
				<time>2025-07-29T05:15:08.840Z</time>
			</trkpt>
			<trkpt lat="48.60713" lon="15.17523">
				<ele>529.36</ele>
				<time>2025-07-29T05:15:13.054Z</time>
			</trkpt>
			<trkpt lat="48.60691" lon="15.17564">
				<ele>531.61</ele>
				<time>2025-07-29T05:15:15.911Z</time>
			</trkpt>
			<trkpt lat="48.60661" lon="15.17634">
				<ele>536.5</ele>
				<time>2025-07-29T05:15:20.516Z</time>
			</trkpt>
			<trkpt lat="48.60635" lon="15.1771">
				<ele>542.16</ele>
				<time>2025-07-29T05:15:25.368Z</time>
			</trkpt>
			<trkpt lat="48.60623" lon="15.17739">
				<ele>543.12</ele>
				<time>2025-07-29T05:15:27.347Z</time>
			</trkpt>
			<trkpt lat="48.60604" lon="15.17774">
				<ele>545.58</ele>
				<time>2025-07-29T05:15:30.003Z</time>
			</trkpt>
			<trkpt lat="48.60556" lon="15.17831">
				<ele>550.96</ele>
				<time>2025-07-29T05:15:35.554Z</time>
			</trkpt>
			<trkpt lat="48.60522" lon="15.17866">
				<ele>552.33</ele>
				<time>2025-07-29T05:15:39.405Z</time>
			</trkpt>
			<trkpt lat="48.60518" lon="15.17861">
				<ele>552.65</ele>
				<time>2025-07-29T05:15:39.898Z</time>
			</trkpt>
			<trkpt lat="48.60511" lon="15.17859">
				<ele>553.2</ele>
				<time>2025-07-29T05:15:40.576Z</time>
			</trkpt>
			<trkpt lat="48.60505" lon="15.17862">
				<ele>553.6</ele>
				<time>2025-07-29T05:15:41.181Z</time>
			</trkpt>
			<trkpt lat="48.60501" lon="15.17866">
				<ele>553.71</ele>
				<time>2025-07-29T05:15:41.641Z</time>
			</trkpt>
			<trkpt lat="48.6049" lon="15.17864">
				<ele>553.91</ele>
				<time>2025-07-29T05:15:42.709Z</time>
			</trkpt>
			<trkpt lat="48.60479" lon="15.17857">
				<ele>554</ele>
				<time>2025-07-29T05:15:43.868Z</time>
			</trkpt>
			<trkpt lat="48.60467" lon="15.17859">
				<ele>553.84</ele>
				<time>2025-07-29T05:15:45.049Z</time>
			</trkpt>
			<trkpt lat="48.60463" lon="15.17865">
				<ele>553.71</ele>
				<time>2025-07-29T05:15:45.604Z</time>
			</trkpt>
			<trkpt lat="48.60148" lon="15.18035">
				<ele>564.34</ele>
				<time>2025-07-29T05:16:23.318Z</time>
			</trkpt>
			<trkpt lat="48.60113" lon="15.1805">
				<ele>565.89</ele>
				<time>2025-07-29T05:16:28.247Z</time>
			</trkpt>
			<trkpt lat="48.60063" lon="15.18067">
				<ele>571.13</ele>
				<time>2025-07-29T05:16:35.092Z</time>
			</trkpt>
			<trkpt lat="48.59947" lon="15.1811">
				<ele>576.89</ele>
				<time>2025-07-29T05:16:51.804Z</time>
			</trkpt>
			<trkpt lat="48.59914" lon="15.18123">
				<ele>577.53</ele>
				<time>2025-07-29T05:16:56.681Z</time>
			</trkpt>
			<trkpt lat="48.59899" lon="15.18134">
				<ele>576.65</ele>
				<time>2025-07-29T05:16:59.070Z</time>
			</trkpt>
			<trkpt lat="48.59893" lon="15.18141">
				<ele>576.07</ele>
				<time>2025-07-29T05:17:00.156Z</time>
			</trkpt>
			<trkpt lat="48.59868" lon="15.18185">
				<ele>574.49</ele>
				<time>2025-07-29T05:17:05.644Z</time>
			</trkpt>
			<trkpt lat="48.59844" lon="15.18221">
				<ele>573.42</ele>
				<time>2025-07-29T05:17:10.450Z</time>
			</trkpt>
			<trkpt lat="48.59762" lon="15.18329">
				<ele>569.84</ele>
				<time>2025-07-29T05:17:25.466Z</time>
			</trkpt>
			<trkpt lat="48.59742" lon="15.18364">
				<ele>571.48</ele>
				<time>2025-07-29T05:17:29.504Z</time>
			</trkpt>
			<trkpt lat="48.59706" lon="15.18445">
				<ele>567.88</ele>
				<time>2025-07-29T05:17:37.643Z</time>
			</trkpt>
			<trkpt lat="48.59651" lon="15.18551">
				<ele>564.77</ele>
				<time>2025-07-29T05:17:47.810Z</time>
			</trkpt>
			<trkpt lat="48.59606" lon="15.18646">
				<ele>563.34</ele>
				<time>2025-07-29T05:17:55.461Z</time>
			</trkpt>
			<trkpt lat="48.59584" lon="15.18685">
				<ele>561.09</ele>
				<time>2025-07-29T05:17:58.686Z</time>
			</trkpt>
			<trkpt lat="48.59565" lon="15.18713">
				<ele>560.17</ele>
				<time>2025-07-29T05:18:01.192Z</time>
			</trkpt>
			<trkpt lat="48.59546" lon="15.18739">
				<ele>560.21</ele>
				<time>2025-07-29T05:18:03.600Z</time>
			</trkpt>
			<trkpt lat="48.59475" lon="15.1881">
				<ele>558.13</ele>
				<time>2025-07-29T05:18:11.500Z</time>
			</trkpt>
			<trkpt lat="48.59466" lon="15.18827">
				<ele>557.95</ele>
				<time>2025-07-29T05:18:12.823Z</time>
			</trkpt>
			<trkpt lat="48.59452" lon="15.18855">
				<ele>558.8</ele>
				<time>2025-07-29T05:18:14.945Z</time>
			</trkpt>
			<trkpt lat="48.59405" lon="15.18992">
				<ele>559.31</ele>
				<time>2025-07-29T05:18:24.152Z</time>
			</trkpt>
			<trkpt lat="48.59394" lon="15.19027">
				<ele>560.2</ele>
				<time>2025-07-29T05:18:26.432Z</time>
			</trkpt>
			<trkpt lat="48.59358" lon="15.19166">
				<ele>561</ele>
				<time>2025-07-29T05:18:35.098Z</time>
			</trkpt>
			<trkpt lat="48.59339" lon="15.19216">
				<ele>562.79</ele>
				<time>2025-07-29T05:18:38.397Z</time>
			</trkpt>
			<trkpt lat="48.59291" lon="15.19325">
				<ele>564.04</ele>
				<time>2025-07-29T05:18:45.789Z</time>
			</trkpt>
			<trkpt lat="48.59274" lon="15.19366">
				<ele>565.3</ele>
				<time>2025-07-29T05:18:48.487Z</time>
			</trkpt>
			<trkpt lat="48.59256" lon="15.19428">
				<ele>566.02</ele>
				<time>2025-07-29T05:18:52.231Z</time>
			</trkpt>
			<trkpt lat="48.59249" lon="15.19461">
				<ele>564.37</ele>
				<time>2025-07-29T05:18:54.133Z</time>
			</trkpt>
			<trkpt lat="48.59238" lon="15.19536">
				<ele>564.73</ele>
				<time>2025-07-29T05:18:58.319Z</time>
			</trkpt>
			<trkpt lat="48.59232" lon="15.19562">
				<ele>564.98</ele>
				<time>2025-07-29T05:18:59.808Z</time>
			</trkpt>
			<trkpt lat="48.59221" lon="15.19596">
				<ele>565</ele>
				<time>2025-07-29T05:19:01.846Z</time>
			</trkpt>
			<trkpt lat="48.59202" lon="15.19634">
				<ele>565.25</ele>
				<time>2025-07-29T05:19:04.396Z</time>
			</trkpt>
			<trkpt lat="48.59188" lon="15.19652">
				<ele>565.22</ele>
				<time>2025-07-29T05:19:05.876Z</time>
			</trkpt>
			<trkpt lat="48.59172" lon="15.19665">
				<ele>565.8</ele>
				<time>2025-07-29T05:19:07.333Z</time>
			</trkpt>
			<trkpt lat="48.59151" lon="15.19674">
				<ele>566.82</ele>
				<time>2025-07-29T05:19:09.076Z</time>
			</trkpt>
			<trkpt lat="48.59136" lon="15.19675">
				<ele>567.4</ele>
				<time>2025-07-29T05:19:10.271Z</time>
			</trkpt>
			<trkpt lat="48.59083" lon="15.19665">
				<ele>568.95</ele>
				<time>2025-07-29T05:19:14.492Z</time>
			</trkpt>
			<trkpt lat="48.59067" lon="15.19664">
				<ele>568.92</ele>
				<time>2025-07-29T05:19:15.749Z</time>
			</trkpt>
			<trkpt lat="48.59047" lon="15.19668">
				<ele>568.74</ele>
				<time>2025-07-29T05:19:17.326Z</time>
			</trkpt>
			<trkpt lat="48.59035" lon="15.19673">
				<ele>568.49</ele>
				<time>2025-07-29T05:19:18.296Z</time>
			</trkpt>
			<trkpt lat="48.59013" lon="15.19689">
				<ele>569</ele>
				<time>2025-07-29T05:19:20.191Z</time>
			</trkpt>
			<trkpt lat="48.58976" lon="15.19729">
				<ele>570.72</ele>
				<time>2025-07-29T05:19:23.698Z</time>
			</trkpt>
			<trkpt lat="48.58944" lon="15.19757">
				<ele>573.46</ele>
				<time>2025-07-29T05:19:26.525Z</time>
			</trkpt>
			<trkpt lat="48.58914" lon="15.19778">
				<ele>573.11</ele>
				<time>2025-07-29T05:19:29.035Z</time>
			</trkpt>
			<trkpt lat="48.58881" lon="15.19795">
				<ele>574.7</ele>
				<time>2025-07-29T05:19:31.665Z</time>
			</trkpt>
			<trkpt lat="48.58852" lon="15.19804">
				<ele>575.72</ele>
				<time>2025-07-29T05:19:33.883Z</time>
			</trkpt>
			<trkpt lat="48.58792" lon="15.19807">
				<ele>579.87</ele>
				<time>2025-07-29T05:19:38.344Z</time>
			</trkpt>
			<trkpt lat="48.58764" lon="15.19816">
				<ele>581.75</ele>
				<time>2025-07-29T05:19:40.452Z</time>
			</trkpt>
			<trkpt lat="48.58744" lon="15.19827">
				<ele>582.6</ele>
				<time>2025-07-29T05:19:42.012Z</time>
			</trkpt>
			<trkpt lat="48.58729" lon="15.19839">
				<ele>583.06</ele>
				<time>2025-07-29T05:19:43.252Z</time>
			</trkpt>
			<trkpt lat="48.58681" lon="15.19881">
				<ele>583.45</ele>
				<time>2025-07-29T05:19:47.275Z</time>
			</trkpt>
			<trkpt lat="48.58655" lon="15.19912">
				<ele>583.56</ele>
				<time>2025-07-29T05:19:49.657Z</time>
			</trkpt>
			<trkpt lat="48.58599" lon="15.19988">
				<ele>586.42</ele>
				<time>2025-07-29T05:19:55.016Z</time>
			</trkpt>
			<trkpt lat="48.58584" lon="15.19999">
				<ele>586.95</ele>
				<time>2025-07-29T05:19:56.193Z</time>
			</trkpt>
			<trkpt lat="48.58568" lon="15.19997">
				<ele>587.46</ele>
				<time>2025-07-29T05:19:57.323Z</time>
			</trkpt>
			<trkpt lat="48.58556" lon="15.1999">
				<ele>587.62</ele>
				<time>2025-07-29T05:19:58.227Z</time>
			</trkpt>
			<trkpt lat="48.58549" lon="15.19983">
				<ele>587.62</ele>
				<time>2025-07-29T05:19:58.815Z</time>
			</trkpt>
			<trkpt lat="48.58538" lon="15.19968">
				<ele>587.42</ele>
				<time>2025-07-29T05:19:59.851Z</time>
			</trkpt>
			<trkpt lat="48.58514" lon="15.19917">
				<ele>584.57</ele>
				<time>2025-07-29T05:20:02.731Z</time>
			</trkpt>
			<trkpt lat="48.58476" lon="15.19848">
				<ele>584.39</ele>
				<time>2025-07-29T05:20:06.827Z</time>
			</trkpt>
			<trkpt lat="48.58447" lon="15.19779">
				<ele>586.92</ele>
				<time>2025-07-29T05:20:10.519Z</time>
			</trkpt>
			<trkpt lat="48.58418" lon="15.19703">
				<ele>587.05</ele>
				<time>2025-07-29T05:20:14.443Z</time>
			</trkpt>
			<trkpt lat="48.58408" lon="15.19659">
				<ele>586.94</ele>
				<time>2025-07-29T05:20:16.508Z</time>
			</trkpt>
			<trkpt lat="48.58406" lon="15.19629">
				<ele>587.97</ele>
				<time>2025-07-29T05:20:17.841Z</time>
			</trkpt>
			<trkpt lat="48.58422" lon="15.19401">
				<ele>593.06</ele>
				<time>2025-07-29T05:20:27.832Z</time>
			</trkpt>
			<trkpt lat="48.58422" lon="15.19382">
				<ele>593.82</ele>
				<time>2025-07-29T05:20:28.649Z</time>
			</trkpt>
			<trkpt lat="48.58419" lon="15.19362">
				<ele>594.21</ele>
				<time>2025-07-29T05:20:29.529Z</time>
			</trkpt>
			<trkpt lat="48.58413" lon="15.19352">
				<ele>594.05</ele>
				<time>2025-07-29T05:20:30.108Z</time>
			</trkpt>
			<trkpt lat="48.58408" lon="15.19346">
				<ele>593.76</ele>
				<time>2025-07-29T05:20:30.521Z</time>
			</trkpt>
			<trkpt lat="48.58391" lon="15.19339">
				<ele>592.72</ele>
				<time>2025-07-29T05:20:31.658Z</time>
			</trkpt>
			<trkpt lat="48.58373" lon="15.19341">
				<ele>592.8</ele>
				<time>2025-07-29T05:20:32.820Z</time>
			</trkpt>
			<trkpt lat="48.58355" lon="15.19349">
				<ele>593.57</ele>
				<time>2025-07-29T05:20:34.025Z</time>
			</trkpt>
			<trkpt lat="48.5826" lon="15.19407">
				<ele>603.56</ele>
				<time>2025-07-29T05:20:40.542Z</time>
			</trkpt>
			<trkpt lat="48.58193" lon="15.19435">
				<ele>617.48</ele>
				<time>2025-07-29T05:20:44.909Z</time>
			</trkpt>
			<trkpt lat="48.58114" lon="15.19479">
				<ele>632.06</ele>
				<time>2025-07-29T05:20:50.140Z</time>
			</trkpt>
			<trkpt lat="48.58067" lon="15.19502">
				<ele>638.7</ele>
				<time>2025-07-29T05:20:53.182Z</time>
			</trkpt>
			<trkpt lat="48.57981" lon="15.19532">
				<ele>640.95</ele>
				<time>2025-07-29T05:20:58.567Z</time>
			</trkpt>
			<trkpt lat="48.57945" lon="15.19542">
				<ele>644.14</ele>
				<time>2025-07-29T05:21:00.783Z</time>
			</trkpt>
			<trkpt lat="48.57918" lon="15.19546">
				<ele>649.52</ele>
				<time>2025-07-29T05:21:02.418Z</time>
			</trkpt>
			<trkpt lat="48.57885" lon="15.19546">
				<ele>652.9</ele>
				<time>2025-07-29T05:21:04.401Z</time>
			</trkpt>
			<trkpt lat="48.57863" lon="15.19543">
				<ele>654.65</ele>
				<time>2025-07-29T05:21:05.724Z</time>
			</trkpt>
			<trkpt lat="48.57841" lon="15.19537">
				<ele>655.32</ele>
				<time>2025-07-29T05:21:07.059Z</time>
			</trkpt>
			<trkpt lat="48.57789" lon="15.19514">
				<ele>658.3</ele>
				<time>2025-07-29T05:21:10.281Z</time>
			</trkpt>
			<trkpt lat="48.57688" lon="15.19456">
				<ele>653.46</ele>
				<time>2025-07-29T05:21:16.649Z</time>
			</trkpt>
			<trkpt lat="48.57639" lon="15.19435">
				<ele>656.66</ele>
				<time>2025-07-29T05:21:19.626Z</time>
			</trkpt>
			<trkpt lat="48.57612" lon="15.19429">
				<ele>658.59</ele>
				<time>2025-07-29T05:21:21.216Z</time>
			</trkpt>
			<trkpt lat="48.57414" lon="15.19412">
				<ele>669.13</ele>
				<time>2025-07-29T05:21:32.648Z</time>
			</trkpt>
			<trkpt lat="48.57359" lon="15.19409">
				<ele>668.14</ele>
				<time>2025-07-29T05:21:35.787Z</time>
			</trkpt>
			<trkpt lat="48.57313" lon="15.19412">
				<ele>666.14</ele>
				<time>2025-07-29T05:21:38.404Z</time>
			</trkpt>
			<trkpt lat="48.57293" lon="15.19419">
				<ele>667.75</ele>
				<time>2025-07-29T05:21:39.568Z</time>
			</trkpt>
			<trkpt lat="48.57284" lon="15.19424">
				<ele>668.83</ele>
				<time>2025-07-29T05:21:40.111Z</time>
			</trkpt>
			<trkpt lat="48.57219" lon="15.19486">
				<ele>672.14</ele>
				<time>2025-07-29T05:21:44.454Z</time>
			</trkpt>
			<trkpt lat="48.5718" lon="15.19515">
				<ele>676.59</ele>
				<time>2025-07-29T05:21:46.900Z</time>
			</trkpt>
			<trkpt lat="48.57096" lon="15.19556">
				<ele>683.08</ele>
				<time>2025-07-29T05:21:51.852Z</time>
			</trkpt>
			<trkpt lat="48.57062" lon="15.19567">
				<ele>686.92</ele>
				<time>2025-07-29T05:21:53.797Z</time>
			</trkpt>
			<trkpt lat="48.57048" lon="15.1957">
				<ele>689.29</ele>
				<time>2025-07-29T05:21:54.587Z</time>
			</trkpt>
			<trkpt lat="48.5695" lon="15.19579">
				<ele>696.21</ele>
				<time>2025-07-29T05:22:00.060Z</time>
			</trkpt>
			<trkpt lat="48.56912" lon="15.19586">
				<ele>695.79</ele>
				<time>2025-07-29T05:22:02.189Z</time>
			</trkpt>
			<trkpt lat="48.56868" lon="15.196">
				<ele>695.5</ele>
				<time>2025-07-29T05:22:04.687Z</time>
			</trkpt>
			<trkpt lat="48.56837" lon="15.19616">
				<ele>695.48</ele>
				<time>2025-07-29T05:22:06.506Z</time>
			</trkpt>
			<trkpt lat="48.56808" lon="15.19636">
				<ele>695</ele>
				<time>2025-07-29T05:22:08.274Z</time>
			</trkpt>
			<trkpt lat="48.56742" lon="15.19693">
				<ele>695.03</ele>
				<time>2025-07-29T05:22:12.487Z</time>
			</trkpt>
			<trkpt lat="48.56708" lon="15.1972">
				<ele>695.97</ele>
				<time>2025-07-29T05:22:14.614Z</time>
			</trkpt>
			<trkpt lat="48.56551" lon="15.19805">
				<ele>709.56</ele>
				<time>2025-07-29T05:22:23.850Z</time>
			</trkpt>
			<trkpt lat="48.56529" lon="15.1982">
				<ele>709.78</ele>
				<time>2025-07-29T05:22:25.187Z</time>
			</trkpt>
			<trkpt lat="48.56501" lon="15.19844">
				<ele>712.95</ele>
				<time>2025-07-29T05:22:26.971Z</time>
			</trkpt>
			<trkpt lat="48.56307" lon="15.20059">
				<ele>697.69</ele>
				<time>2025-07-29T05:22:40.349Z</time>
			</trkpt>
			<trkpt lat="48.5622" lon="15.20161">
				<ele>690.86</ele>
				<time>2025-07-29T05:22:46.510Z</time>
			</trkpt>
			<trkpt lat="48.56191" lon="15.20189">
				<ele>688.73</ele>
				<time>2025-07-29T05:22:48.442Z</time>
			</trkpt>
			<trkpt lat="48.56043" lon="15.20296">
				<ele>685</ele>
				<time>2025-07-29T05:22:57.707Z</time>
			</trkpt>
			<trkpt lat="48.55985" lon="15.20336">
				<ele>686.58</ele>
				<time>2025-07-29T05:23:01.335Z</time>
			</trkpt>
			<trkpt lat="48.55966" lon="15.20343">
				<ele>687.51</ele>
				<time>2025-07-29T05:23:02.451Z</time>
			</trkpt>
			<trkpt lat="48.55956" lon="15.20345">
				<ele>687.75</ele>
				<time>2025-07-29T05:23:03.027Z</time>
			</trkpt>
			<trkpt lat="48.55928" lon="15.20341">
				<ele>688.59</ele>
				<time>2025-07-29T05:23:04.637Z</time>
			</trkpt>
			<trkpt lat="48.55906" lon="15.20332">
				<ele>689.35</ele>
				<time>2025-07-29T05:23:05.943Z</time>
			</trkpt>
			<trkpt lat="48.55897" lon="15.20326">
				<ele>689.61</ele>
				<time>2025-07-29T05:23:06.508Z</time>
			</trkpt>
			<trkpt lat="48.55883" lon="15.20311">
				<ele>690.17</ele>
				<time>2025-07-29T05:23:07.495Z</time>
			</trkpt>
			<trkpt lat="48.55878" lon="15.2032">
				<ele>690.36</ele>
				<time>2025-07-29T05:23:07.942Z</time>
			</trkpt>
			<trkpt lat="48.55876" lon="15.20328">
				<ele>690.44</ele>
				<time>2025-07-29T05:23:08.268Z</time>
			</trkpt>
			<trkpt lat="48.55863" lon="15.20434">
				<ele>691.97</ele>
				<time>2025-07-29T05:23:12.390Z</time>
			</trkpt>
			<trkpt lat="48.55847" lon="15.20516">
				<ele>693.78</ele>
				<time>2025-07-29T05:23:15.677Z</time>
			</trkpt>
			<trkpt lat="48.55838" lon="15.20537">
				<ele>694.43</ele>
				<time>2025-07-29T05:23:16.643Z</time>
			</trkpt>
			<trkpt lat="48.55809" lon="15.20576">
				<ele>695.96</ele>
				<time>2025-07-29T05:23:18.913Z</time>
			</trkpt>
			<trkpt lat="48.55729" lon="15.20769">
				<ele>703.03</ele>
				<time>2025-07-29T05:23:27.813Z</time>
			</trkpt>
			<trkpt lat="48.5572" lon="15.20786">
				<ele>704.37</ele>
				<time>2025-07-29T05:23:28.672Z</time>
			</trkpt>
			<trkpt lat="48.55702" lon="15.2081">
				<ele>705.75</ele>
				<time>2025-07-29T05:23:30.106Z</time>
			</trkpt>
			<trkpt lat="48.55652" lon="15.20848">
				<ele>708.03</ele>
				<time>2025-07-29T05:23:33.464Z</time>
			</trkpt>
			<trkpt lat="48.5564" lon="15.20866">
				<ele>709.13</ele>
				<time>2025-07-29T05:23:34.483Z</time>
			</trkpt>
			<trkpt lat="48.5563" lon="15.20886">
				<ele>709.92</ele>
				<time>2025-07-29T05:23:35.485Z</time>
			</trkpt>
			<trkpt lat="48.55616" lon="15.20927">
				<ele>711.72</ele>
				<time>2025-07-29T05:23:37.335Z</time>
			</trkpt>
			<trkpt lat="48.55611" lon="15.20958">
				<ele>712.48</ele>
				<time>2025-07-29T05:23:38.618Z</time>
			</trkpt>
			<trkpt lat="48.55606" lon="15.21023">
				<ele>711.27</ele>
				<time>2025-07-29T05:23:41.261Z</time>
			</trkpt>
			<trkpt lat="48.55602" lon="15.21063">
				<ele>710.32</ele>
				<time>2025-07-29T05:23:42.902Z</time>
			</trkpt>
			<trkpt lat="48.55588" lon="15.21115">
				<ele>712</ele>
				<time>2025-07-29T05:23:45.190Z</time>
			</trkpt>
			<trkpt lat="48.5557" lon="15.21173">
				<ele>717.15</ele>
				<time>2025-07-29T05:23:47.814Z</time>
			</trkpt>
			<trkpt lat="48.55528" lon="15.21276">
				<ele>733.78</ele>
				<time>2025-07-29T05:23:52.812Z</time>
			</trkpt>
			<trkpt lat="48.5551" lon="15.21329">
				<ele>735.22</ele>
				<time>2025-07-29T05:23:55.294Z</time>
			</trkpt>
			<trkpt lat="48.55473" lon="15.21451">
				<ele>740.65</ele>
				<time>2025-07-29T05:24:00.939Z</time>
			</trkpt>
			<trkpt lat="48.55461" lon="15.21482">
				<ele>736.97</ele>
				<time>2025-07-29T05:24:02.463Z</time>
			</trkpt>
			<trkpt lat="48.55421" lon="15.21557">
				<ele>726.49</ele>
				<time>2025-07-29T05:24:06.577Z</time>
			</trkpt>
			<trkpt lat="48.55396" lon="15.2161">
				<ele>726.46</ele>
				<time>2025-07-29T05:24:09.380Z</time>
			</trkpt>
			<trkpt lat="48.55309" lon="15.21804">
				<ele>737.14</ele>
				<time>2025-07-29T05:24:19.577Z</time>
			</trkpt>
			<trkpt lat="48.55279" lon="15.21903">
				<ele>742.8</ele>
				<time>2025-07-29T05:24:24.293Z</time>
			</trkpt>
			<trkpt lat="48.55263" lon="15.21975">
				<ele>745.15</ele>
				<time>2025-07-29T05:24:27.570Z</time>
			</trkpt>
			<trkpt lat="48.55251" lon="15.22008">
				<ele>744.61</ele>
				<time>2025-07-29T05:24:29.190Z</time>
			</trkpt>
			<trkpt lat="48.55241" lon="15.22027">
				<ele>743.74</ele>
				<time>2025-07-29T05:24:30.234Z</time>
			</trkpt>
			<trkpt lat="48.55222" lon="15.22055">
				<ele>742.99</ele>
				<time>2025-07-29T05:24:31.957Z</time>
			</trkpt>
			<trkpt lat="48.55129" lon="15.22151">
				<ele>744.27</ele>
				<time>2025-07-29T05:24:39.242Z</time>
			</trkpt>
			<trkpt lat="48.55119" lon="15.22166">
				<ele>743.25</ele>
				<time>2025-07-29T05:24:40.152Z</time>
			</trkpt>
			<trkpt lat="48.5511" lon="15.22187">
				<ele>741.96</ele>
				<time>2025-07-29T05:24:41.219Z</time>
			</trkpt>
			<trkpt lat="48.55078" lon="15.22261">
				<ele>738.92</ele>
				<time>2025-07-29T05:24:44.988Z</time>
			</trkpt>
			<trkpt lat="48.55057" lon="15.22291">
				<ele>738.04</ele>
				<time>2025-07-29T05:24:46.847Z</time>
			</trkpt>
			<trkpt lat="48.54998" lon="15.22356">
				<ele>736.95</ele>
				<time>2025-07-29T05:24:51.540Z</time>
			</trkpt>
			<trkpt lat="48.54884" lon="15.22472">
				<ele>734</ele>
				<time>2025-07-29T05:25:00.361Z</time>
			</trkpt>
			<trkpt lat="48.54857" lon="15.22492">
				<ele>733.91</ele>
				<time>2025-07-29T05:25:02.291Z</time>
			</trkpt>
			<trkpt lat="48.54694" lon="15.22589">
				<ele>728.78</ele>
				<time>2025-07-29T05:25:13.544Z</time>
			</trkpt>
			<trkpt lat="48.54483" lon="15.22689">
				<ele>721</ele>
				<time>2025-07-29T05:25:27.826Z</time>
			</trkpt>
			<trkpt lat="48.54476" lon="15.22688">
				<ele>721</ele>
				<time>2025-07-29T05:25:28.282Z</time>
			</trkpt>
			<trkpt lat="48.54469" lon="15.22708">
				<ele>720.61</ele>
				<time>2025-07-29T05:25:29.255Z</time>
			</trkpt>
			<trkpt lat="48.54462" lon="15.2272">
				<ele>720.4</ele>
				<time>2025-07-29T05:25:29.943Z</time>
			</trkpt>
			<trkpt lat="48.54441" lon="15.22744">
				<ele>720.14</ele>
				<time>2025-07-29T05:25:31.656Z</time>
			</trkpt>
			<trkpt lat="48.54398" lon="15.22778">
				<ele>717.29</ele>
				<time>2025-07-29T05:25:34.819Z</time>
			</trkpt>
			<trkpt lat="48.54355" lon="15.22814">
				<ele>716.79</ele>
				<time>2025-07-29T05:25:38.034Z</time>
			</trkpt>
			<trkpt lat="48.54317" lon="15.22865">
				<ele>717.48</ele>
				<time>2025-07-29T05:25:41.369Z</time>
			</trkpt>
			<trkpt lat="48.54293" lon="15.22892">
				<ele>717.31</ele>
				<time>2025-07-29T05:25:43.338Z</time>
			</trkpt>
			<trkpt lat="48.54267" lon="15.22914">
				<ele>716.69</ele>
				<time>2025-07-29T05:25:45.304Z</time>
			</trkpt>
			<trkpt lat="48.54204" lon="15.22955">
				<ele>715.37</ele>
				<time>2025-07-29T05:25:49.847Z</time>
			</trkpt>
			<trkpt lat="48.54186" lon="15.22972">
				<ele>715.28</ele>
				<time>2025-07-29T05:25:51.258Z</time>
			</trkpt>
			<trkpt lat="48.54179" lon="15.22983">
				<ele>715.33</ele>
				<time>2025-07-29T05:25:51.930Z</time>
			</trkpt>
			<trkpt lat="48.54171" lon="15.22998">
				<ele>715.03</ele>
				<time>2025-07-29T05:25:52.780Z</time>
			</trkpt>
			<trkpt lat="48.54169" lon="15.23007">
				<ele>714.45</ele>
				<time>2025-07-29T05:25:53.199Z</time>
			</trkpt>
			<trkpt lat="48.5417" lon="15.23028">
				<ele>713.1</ele>
				<time>2025-07-29T05:25:54.130Z</time>
			</trkpt>
			<trkpt lat="48.54174" lon="15.23043">
				<ele>712.89</ele>
				<time>2025-07-29T05:25:54.846Z</time>
			</trkpt>
			<trkpt lat="48.54198" lon="15.23092">
				<ele>714.2</ele>
				<time>2025-07-29T05:25:57.549Z</time>
			</trkpt>
			<trkpt lat="48.54217" lon="15.23147">
				<ele>715.67</ele>
				<time>2025-07-29T05:26:00.313Z</time>
			</trkpt>
			<trkpt lat="48.54225" lon="15.23188">
				<ele>715.21</ele>
				<time>2025-07-29T05:26:02.223Z</time>
			</trkpt>
			<trkpt lat="48.54234" lon="15.2329">
				<ele>711.45</ele>
				<time>2025-07-29T05:26:06.847Z</time>
			</trkpt>
			<trkpt lat="48.54243" lon="15.23317">
				<ele>711.53</ele>
				<time>2025-07-29T05:26:08.212Z</time>
			</trkpt>
			<trkpt lat="48.54259" lon="15.23344">
				<ele>710.54</ele>
				<time>2025-07-29T05:26:09.852Z</time>
			</trkpt>
			<trkpt lat="48.54275" lon="15.23366">
				<ele>709.34</ele>
				<time>2025-07-29T05:26:11.335Z</time>
			</trkpt>
			<trkpt lat="48.54294" lon="15.23385">
				<ele>708.76</ele>
				<time>2025-07-29T05:26:12.902Z</time>
			</trkpt>
			<trkpt lat="48.54319" lon="15.23403">
				<ele>707.73</ele>
				<time>2025-07-29T05:26:14.811Z</time>
			</trkpt>
			<trkpt lat="48.54395" lon="15.23435">
				<ele>705.59</ele>
				<time>2025-07-29T05:26:20.288Z</time>
			</trkpt>
			<trkpt lat="48.54426" lon="15.2345">
				<ele>703.73</ele>
				<time>2025-07-29T05:26:22.564Z</time>
			</trkpt>
			<trkpt lat="48.54443" lon="15.23466">
				<ele>703.79</ele>
				<time>2025-07-29T05:26:23.969Z</time>
			</trkpt>
			<trkpt lat="48.54613" lon="15.23705">
				<ele>704.29</ele>
				<time>2025-07-29T05:26:40.560Z</time>
			</trkpt>
			<trkpt lat="48.54641" lon="15.23745">
				<ele>703.17</ele>
				<time>2025-07-29T05:26:43.370Z</time>
			</trkpt>
			<trkpt lat="48.54658" lon="15.2378">
				<ele>700.79</ele>
				<time>2025-07-29T05:26:45.482Z</time>
			</trkpt>
			<trkpt lat="48.54665" lon="15.23797">
				<ele>699.38</ele>
				<time>2025-07-29T05:26:46.460Z</time>
			</trkpt>
			<trkpt lat="48.54673" lon="15.23827">
				<ele>697.89</ele>
				<time>2025-07-29T05:26:48.048Z</time>
			</trkpt>
			<trkpt lat="48.54682" lon="15.23876">
				<ele>695.13</ele>
				<time>2025-07-29T05:26:50.561Z</time>
			</trkpt>
			<trkpt lat="48.54702" lon="15.23995">
				<ele>693.03</ele>
				<time>2025-07-29T05:26:56.705Z</time>
			</trkpt>
			<trkpt lat="48.54712" lon="15.24098">
				<ele>688.7</ele>
				<time>2025-07-29T05:27:01.996Z</time>
			</trkpt>
			<trkpt lat="48.54715" lon="15.24163">
				<ele>687.13</ele>
				<time>2025-07-29T05:27:05.344Z</time>
			</trkpt>
			<trkpt lat="48.54717" lon="15.24297">
				<ele>685.37</ele>
				<time>2025-07-29T05:27:12.310Z</time>
			</trkpt>
			<trkpt lat="48.54716" lon="15.24479">
				<ele>684.39</ele>
				<time>2025-07-29T05:27:21.926Z</time>
			</trkpt>
			<trkpt lat="48.54718" lon="15.24508">
				<ele>683.11</ele>
				<time>2025-07-29T05:27:23.482Z</time>
			</trkpt>
			<trkpt lat="48.54725" lon="15.24551">
				<ele>680.88</ele>
				<time>2025-07-29T05:27:25.852Z</time>
			</trkpt>
			<trkpt lat="48.54745" lon="15.24639">
				<ele>679.47</ele>
				<time>2025-07-29T05:27:30.859Z</time>
			</trkpt>
			<trkpt lat="48.54753" lon="15.24661">
				<ele>679.8</ele>
				<time>2025-07-29T05:27:32.216Z</time>
			</trkpt>
			<trkpt lat="48.54761" lon="15.24679">
				<ele>680.46</ele>
				<time>2025-07-29T05:27:33.389Z</time>
			</trkpt>
			<trkpt lat="48.54788" lon="15.24722">
				<ele>683.5</ele>
				<time>2025-07-29T05:27:36.607Z</time>
			</trkpt>
			<trkpt lat="48.54822" lon="15.24768">
				<ele>685.17</ele>
				<time>2025-07-29T05:27:40.366Z</time>
			</trkpt>
			<trkpt lat="48.54853" lon="15.24816">
				<ele>685.05</ele>
				<time>2025-07-29T05:27:44.036Z</time>
			</trkpt>
			<trkpt lat="48.54905" lon="15.24908">
				<ele>690.43</ele>
				<time>2025-07-29T05:27:50.688Z</time>
			</trkpt>
			<trkpt lat="48.54959" lon="15.24995">
				<ele>689.75</ele>
				<time>2025-07-29T05:27:57.280Z</time>
			</trkpt>
			<trkpt lat="48.54997" lon="15.25059">
				<ele>680.92</ele>
				<time>2025-07-29T05:28:02.048Z</time>
			</trkpt>
			<trkpt lat="48.55034" lon="15.25135">
				<ele>670.95</ele>
				<time>2025-07-29T05:28:07.292Z</time>
			</trkpt>
			<trkpt lat="48.55043" lon="15.25157">
				<ele>671.36</ele>
				<time>2025-07-29T05:28:08.731Z</time>
			</trkpt>
			<trkpt lat="48.55045" lon="15.25181">
				<ele>671.03</ele>
				<time>2025-07-29T05:28:10.077Z</time>
			</trkpt>
			<trkpt lat="48.55044" lon="15.25202">
				<ele>670.25</ele>
				<time>2025-07-29T05:28:11.250Z</time>
			</trkpt>
			<trkpt lat="48.54948" lon="15.25167">
				<ele>675.49</ele>
				<time>2025-07-29T05:28:19.564Z</time>
			</trkpt>
			<trkpt lat="48.54707" lon="15.25102">
				<ele>686.15</ele>
				<time>2025-07-29T05:28:40.141Z</time>
			</trkpt>
			<trkpt lat="48.54649" lon="15.25081">
				<ele>686.43</ele>
				<time>2025-07-29T05:28:45.128Z</time>
			</trkpt>
			<trkpt lat="48.54603" lon="15.25056">
				<ele>687.91</ele>
				<time>2025-07-29T05:28:49.203Z</time>
			</trkpt>
			<trkpt lat="48.54554" lon="15.25021">
				<ele>689.07</ele>
				<time>2025-07-29T05:28:53.707Z</time>
			</trkpt>
			<trkpt lat="48.5453" lon="15.24999">
				<ele>689.88</ele>
				<time>2025-07-29T05:28:56.032Z</time>
			</trkpt>
			<trkpt lat="48.54481" lon="15.24944">
				<ele>692</ele>
				<time>2025-07-29T05:29:01.070Z</time>
			</trkpt>
			<trkpt lat="48.54424" lon="15.24872">
				<ele>693.46</ele>
				<time>2025-07-29T05:29:07.162Z</time>
			</trkpt>
			<trkpt lat="48.54382" lon="15.24823">
				<ele>695.34</ele>
				<time>2025-07-29T05:29:11.484Z</time>
			</trkpt>
			<trkpt lat="48.5434" lon="15.24781">
				<ele>695.38</ele>
				<time>2025-07-29T05:29:15.561Z</time>
			</trkpt>
			<trkpt lat="48.54286" lon="15.24735">
				<ele>696.57</ele>
				<time>2025-07-29T05:29:20.542Z</time>
			</trkpt>
			<trkpt lat="48.54238" lon="15.24701">
				<ele>697.54</ele>
				<time>2025-07-29T05:29:24.768Z</time>
			</trkpt>
			<trkpt lat="48.54199" lon="15.24677">
				<ele>697.99</ele>
				<time>2025-07-29T05:29:28.099Z</time>
			</trkpt>
			<trkpt lat="48.54144" lon="15.2465">
				<ele>696.32</ele>
				<time>2025-07-29T05:29:32.638Z</time>
			</trkpt>
			<trkpt lat="48.54108" lon="15.24637">
				<ele>698.11</ele>
				<time>2025-07-29T05:29:35.518Z</time>
			</trkpt>
			<trkpt lat="48.53997" lon="15.24607">
				<ele>698.95</ele>
				<time>2025-07-29T05:29:44.173Z</time>
			</trkpt>
			<trkpt lat="48.53941" lon="15.24589">
				<ele>698.56</ele>
				<time>2025-07-29T05:29:48.506Z</time>
			</trkpt>
			<trkpt lat="48.53904" lon="15.24569">
				<ele>699.35</ele>
				<time>2025-07-29T05:29:51.457Z</time>
			</trkpt>
			<trkpt lat="48.53867" lon="15.24541">
				<ele>699.46</ele>
				<time>2025-07-29T05:29:54.547Z</time>
			</trkpt>
			<trkpt lat="48.53822" lon="15.24499">
				<ele>701</ele>
				<time>2025-07-29T05:29:58.470Z</time>
			</trkpt>
			<trkpt lat="48.53789" lon="15.24466">
				<ele>701.67</ele>
				<time>2025-07-29T05:30:01.386Z</time>
			</trkpt>
			<trkpt lat="48.5377" lon="15.2446">
				<ele>702.1</ele>
				<time>2025-07-29T05:30:02.810Z</time>
			</trkpt>
			<trkpt lat="48.53719" lon="15.2445">
				<ele>701.7</ele>
				<time>2025-07-29T05:30:06.567Z</time>
			</trkpt>
			<trkpt lat="48.53697" lon="15.24451">
				<ele>700.85</ele>
				<time>2025-07-29T05:30:08.167Z</time>
			</trkpt>
			<trkpt lat="48.5368" lon="15.24458">
				<ele>699.5</ele>
				<time>2025-07-29T05:30:09.445Z</time>
			</trkpt>
			<trkpt lat="48.53665" lon="15.24472">
				<ele>697.93</ele>
				<time>2025-07-29T05:30:10.721Z</time>
			</trkpt>
			<trkpt lat="48.53569" lon="15.24616">
				<ele>694.39</ele>
				<time>2025-07-29T05:30:20.428Z</time>
			</trkpt>
			<trkpt lat="48.53559" lon="15.24636">
				<ele>694.07</ele>
				<time>2025-07-29T05:30:21.608Z</time>
			</trkpt>
			<trkpt lat="48.53543" lon="15.24673">
				<ele>693.85</ele>
				<time>2025-07-29T05:30:23.685Z</time>
			</trkpt>
			<trkpt lat="48.53535" lon="15.24695">
				<ele>693.69</ele>
				<time>2025-07-29T05:30:24.862Z</time>
			</trkpt>
			<trkpt lat="48.53526" lon="15.24738">
				<ele>694.04</ele>
				<time>2025-07-29T05:30:26.973Z</time>
			</trkpt>
			<trkpt lat="48.53516" lon="15.24819">
				<ele>694.63</ele>
				<time>2025-07-29T05:30:30.813Z</time>
			</trkpt>
			<trkpt lat="48.53506" lon="15.24851">
				<ele>695.28</ele>
				<time>2025-07-29T05:30:32.457Z</time>
			</trkpt>
			<trkpt lat="48.53491" lon="15.24876">
				<ele>696</ele>
				<time>2025-07-29T05:30:34.022Z</time>
			</trkpt>
			<trkpt lat="48.53476" lon="15.24894">
				<ele>696</ele>
				<time>2025-07-29T05:30:35.361Z</time>
			</trkpt>
			<trkpt lat="48.53456" lon="15.24907">
				<ele>695.61</ele>
				<time>2025-07-29T05:30:36.881Z</time>
			</trkpt>
			<trkpt lat="48.53439" lon="15.24912">
				<ele>695.12</ele>
				<time>2025-07-29T05:30:38.088Z</time>
			</trkpt>
			<trkpt lat="48.53417" lon="15.24912">
				<ele>695</ele>
				<time>2025-07-29T05:30:39.620Z</time>
			</trkpt>
			<trkpt lat="48.53288" lon="15.24874">
				<ele>697.5</ele>
				<time>2025-07-29T05:30:48.723Z</time>
			</trkpt>
			<trkpt lat="48.53259" lon="15.24871">
				<ele>696.96</ele>
				<time>2025-07-29T05:30:50.728Z</time>
			</trkpt>
			<trkpt lat="48.53228" lon="15.24871">
				<ele>695.83</ele>
				<time>2025-07-29T05:30:52.863Z</time>
			</trkpt>
			<trkpt lat="48.53196" lon="15.24877">
				<ele>695.42</ele>
				<time>2025-07-29T05:30:55.080Z</time>
			</trkpt>
			<trkpt lat="48.53176" lon="15.24883">
				<ele>695.07</ele>
				<time>2025-07-29T05:30:56.481Z</time>
			</trkpt>
			<trkpt lat="48.53098" lon="15.24915">
				<ele>695.02</ele>
				<time>2025-07-29T05:31:02.024Z</time>
			</trkpt>
			<trkpt lat="48.53075" lon="15.24925">
				<ele>695.18</ele>
				<time>2025-07-29T05:31:03.663Z</time>
			</trkpt>
			<trkpt lat="48.52999" lon="15.24949">
				<ele>694</ele>
				<time>2025-07-29T05:31:08.976Z</time>
			</trkpt>
			<trkpt lat="48.52941" lon="15.24962">
				<ele>695.05</ele>
				<time>2025-07-29T05:31:12.985Z</time>
			</trkpt>
			<trkpt lat="48.52882" lon="15.24971">
				<ele>695.75</ele>
				<time>2025-07-29T05:31:17.039Z</time>
			</trkpt>
			<trkpt lat="48.52816" lon="15.24975">
				<ele>694</ele>
				<time>2025-07-29T05:31:21.556Z</time>
			</trkpt>
			<trkpt lat="48.52729" lon="15.24971">
				<ele>697.03</ele>
				<time>2025-07-29T05:31:27.516Z</time>
			</trkpt>
			<trkpt lat="48.52661" lon="15.2496">
				<ele>695.83</ele>
				<time>2025-07-29T05:31:32.208Z</time>
			</trkpt>
			<trkpt lat="48.52607" lon="15.24947">
				<ele>696.76</ele>
				<time>2025-07-29T05:31:35.968Z</time>
			</trkpt>
			<trkpt lat="48.52543" lon="15.24927">
				<ele>695</ele>
				<time>2025-07-29T05:31:40.475Z</time>
			</trkpt>
			<trkpt lat="48.52431" lon="15.2488">
				<ele>694</ele>
				<time>2025-07-29T05:31:48.530Z</time>
			</trkpt>
			<trkpt lat="48.52386" lon="15.24858">
				<ele>692.91</ele>
				<time>2025-07-29T05:31:51.826Z</time>
			</trkpt>
			<trkpt lat="48.52309" lon="15.24822">
				<ele>691.59</ele>
				<time>2025-07-29T05:31:57.469Z</time>
			</trkpt>
			<trkpt lat="48.52282" lon="15.24991">
				<ele>702.09</ele>
				<time>2025-07-29T05:32:05.599Z</time>
			</trkpt>
			<trkpt lat="48.52261" lon="15.2507">
				<ele>706.8</ele>
				<time>2025-07-29T05:32:09.614Z</time>
			</trkpt>
			<trkpt lat="48.52251" lon="15.25144">
				<ele>702.95</ele>
				<time>2025-07-29T05:32:13.196Z</time>
			</trkpt>
			<trkpt lat="48.52226" lon="15.25394">
				<ele>695.15</ele>
				<time>2025-07-29T05:32:25.341Z</time>
			</trkpt>
			<trkpt lat="48.52224" lon="15.2546">
				<ele>694.48</ele>
				<time>2025-07-29T05:32:28.558Z</time>
			</trkpt>
			<trkpt lat="48.52241" lon="15.25709">
				<ele>693.22</ele>
				<time>2025-07-29T05:32:40.928Z</time>
			</trkpt>
			<trkpt lat="48.52246" lon="15.25773">
				<ele>693.75</ele>
				<time>2025-07-29T05:32:44.163Z</time>
			</trkpt>
			<trkpt lat="48.52247" lon="15.25807">
				<ele>691.68</ele>
				<time>2025-07-29T05:32:45.880Z</time>
			</trkpt>
			<trkpt lat="48.52245" lon="15.25827">
				<ele>690.06</ele>
				<time>2025-07-29T05:32:46.904Z</time>
			</trkpt>
			<trkpt lat="48.52241" lon="15.25851">
				<ele>687.82</ele>
				<time>2025-07-29T05:32:48.159Z</time>
			</trkpt>
			<trkpt lat="48.52234" lon="15.2587">
				<ele>686.64</ele>
				<time>2025-07-29T05:32:49.265Z</time>
			</trkpt>
			<trkpt lat="48.52214" lon="15.25904">
				<ele>685.88</ele>
				<time>2025-07-29T05:32:51.586Z</time>
			</trkpt>
			<trkpt lat="48.52207" lon="15.25918">
				<ele>686.05</ele>
				<time>2025-07-29T05:32:52.484Z</time>
			</trkpt>
			<trkpt lat="48.52199" lon="15.25945">
				<ele>686.59</ele>
				<time>2025-07-29T05:32:54.003Z</time>
			</trkpt>
			<trkpt lat="48.52192" lon="15.25985">
				<ele>685.54</ele>
				<time>2025-07-29T05:32:56.137Z</time>
			</trkpt>
			<trkpt lat="48.5218" lon="15.26086">
				<ele>682.93</ele>
				<time>2025-07-29T05:33:01.473Z</time>
			</trkpt>
			<trkpt lat="48.52176" lon="15.26125">
				<ele>681.21</ele>
				<time>2025-07-29T05:33:03.542Z</time>
			</trkpt>
			<trkpt lat="48.52173" lon="15.26266">
				<ele>674.8</ele>
				<time>2025-07-29T05:33:11.022Z</time>
			</trkpt>
			<trkpt lat="48.52117" lon="15.26281">
				<ele>677.25</ele>
				<time>2025-07-29T05:33:15.640Z</time>
			</trkpt>
			<trkpt lat="48.521" lon="15.26293">
				<ele>677.02</ele>
				<time>2025-07-29T05:33:17.175Z</time>
			</trkpt>
			<trkpt lat="48.52075" lon="15.2632">
				<ele>672.89</ele>
				<time>2025-07-29T05:33:19.701Z</time>
			</trkpt>
			<trkpt lat="48.52065" lon="15.26329">
				<ele>671.04</ele>
				<time>2025-07-29T05:33:20.665Z</time>
			</trkpt>
			<trkpt lat="48.5205" lon="15.26335">
				<ele>669.41</ele>
				<time>2025-07-29T05:33:21.960Z</time>
			</trkpt>
			<trkpt lat="48.52022" lon="15.2634">
				<ele>667.13</ele>
				<time>2025-07-29T05:33:24.345Z</time>
			</trkpt>
			<trkpt lat="48.52006" lon="15.26348">
				<ele>665.81</ele>
				<time>2025-07-29T05:33:25.789Z</time>
			</trkpt>
			<trkpt lat="48.51995" lon="15.2636">
				<ele>664.67</ele>
				<time>2025-07-29T05:33:26.962Z</time>
			</trkpt>
			<trkpt lat="48.51988" lon="15.2637">
				<ele>663.86</ele>
				<time>2025-07-29T05:33:27.800Z</time>
			</trkpt>
			<trkpt lat="48.51978" lon="15.26395">
				<ele>662.27</ele>
				<time>2025-07-29T05:33:29.494Z</time>
			</trkpt>
			<trkpt lat="48.5197" lon="15.26424">
				<ele>661.4</ele>
				<time>2025-07-29T05:33:31.333Z</time>
			</trkpt>
			<trkpt lat="48.51931" lon="15.26542">
				<ele>660.44</ele>
				<time>2025-07-29T05:33:39.234Z</time>
			</trkpt>
			<trkpt lat="48.51926" lon="15.26569">
				<ele>660.62</ele>
				<time>2025-07-29T05:33:40.946Z</time>
			</trkpt>
			<trkpt lat="48.51925" lon="15.26588">
				<ele>660.92</ele>
				<time>2025-07-29T05:33:42.116Z</time>
			</trkpt>
			<trkpt lat="48.51924" lon="15.26675">
				<ele>668.14</ele>
				<time>2025-07-29T05:33:47.506Z</time>
			</trkpt>
			<trkpt lat="48.51921" lon="15.26696">
				<ele>671.16</ele>
				<time>2025-07-29T05:33:48.848Z</time>
			</trkpt>
			<trkpt lat="48.51916" lon="15.26716">
				<ele>674.21</ele>
				<time>2025-07-29T05:33:50.188Z</time>
			</trkpt>
			<trkpt lat="48.5188" lon="15.26805">
				<ele>684.8</ele>
				<time>2025-07-29T05:33:56.766Z</time>
			</trkpt>
			<trkpt lat="48.51819" lon="15.26987">
				<ele>699.08</ele>
				<time>2025-07-29T05:34:09.738Z</time>
			</trkpt>
			<trkpt lat="48.518" lon="15.2708">
				<ele>697.71</ele>
				<time>2025-07-29T05:34:15.913Z</time>
			</trkpt>
			<trkpt lat="48.5179" lon="15.27109">
				<ele>696.49</ele>
				<time>2025-07-29T05:34:17.978Z</time>
			</trkpt>
			<trkpt lat="48.51777" lon="15.2713">
				<ele>696.01</ele>
				<time>2025-07-29T05:34:19.787Z</time>
			</trkpt>
			<trkpt lat="48.51709" lon="15.27206">
				<ele>704.45</ele>
				<time>2025-07-29T05:34:27.747Z</time>
			</trkpt>
			<trkpt lat="48.51685" lon="15.2724">
				<ele>709.79</ele>
				<time>2025-07-29T05:34:30.797Z</time>
			</trkpt>
			<trkpt lat="48.51679" lon="15.27261">
				<ele>713.79</ele>
				<time>2025-07-29T05:34:32.190Z</time>
			</trkpt>
			<trkpt lat="48.51656" lon="15.2738">
				<ele>722.34</ele>
				<time>2025-07-29T05:34:39.610Z</time>
			</trkpt>
			<trkpt lat="48.51647" lon="15.27463">
				<ele>725.15</ele>
				<time>2025-07-29T05:34:44.495Z</time>
			</trkpt>
			<trkpt lat="48.51641" lon="15.2751">
				<ele>726.6</ele>
				<time>2025-07-29T05:34:47.213Z</time>
			</trkpt>
			<trkpt lat="48.51637" lon="15.27553">
				<ele>731.13</ele>
				<time>2025-07-29T05:34:49.635Z</time>
			</trkpt>
			<trkpt lat="48.51633" lon="15.27643">
				<ele>733.31</ele>
				<time>2025-07-29T05:34:54.596Z</time>
			</trkpt>
			<trkpt lat="48.51623" lon="15.27735">
				<ele>738.67</ele>
				<time>2025-07-29T05:34:59.703Z</time>
			</trkpt>
			<trkpt lat="48.51622" lon="15.278">
				<ele>743.65</ele>
				<time>2025-07-29T05:35:03.253Z</time>
			</trkpt>
			<trkpt lat="48.51619" lon="15.27824">
				<ele>743.59</ele>
				<time>2025-07-29T05:35:04.583Z</time>
			</trkpt>
			<trkpt lat="48.51593" lon="15.27932">
				<ele>734.15</ele>
				<time>2025-07-29T05:35:10.825Z</time>
			</trkpt>
			<trkpt lat="48.51585" lon="15.27955">
				<ele>731.28</ele>
				<time>2025-07-29T05:35:12.232Z</time>
			</trkpt>
			<trkpt lat="48.51576" lon="15.27976">
				<ele>730.53</ele>
				<time>2025-07-29T05:35:13.585Z</time>
			</trkpt>
			<trkpt lat="48.51565" lon="15.28007">
				<ele>727.7</ele>
				<time>2025-07-29T05:35:15.485Z</time>
			</trkpt>
			<trkpt lat="48.51535" lon="15.28143">
				<ele>718.69</ele>
				<time>2025-07-29T05:35:23.200Z</time>
			</trkpt>
			<trkpt lat="48.51512" lon="15.28219">
				<ele>717.09</ele>
				<time>2025-07-29T05:35:27.675Z</time>
			</trkpt>
			<trkpt lat="48.51499" lon="15.28248">
				<ele>716.97</ele>
				<time>2025-07-29T05:35:29.545Z</time>
			</trkpt>
			<trkpt lat="48.51485" lon="15.28262">
				<ele>716.04</ele>
				<time>2025-07-29T05:35:30.898Z</time>
			</trkpt>
			<trkpt lat="48.51478" lon="15.28264">
				<ele>715.71</ele>
				<time>2025-07-29T05:35:31.471Z</time>
			</trkpt>
			<trkpt lat="48.51446" lon="15.28257">
				<ele>715.22</ele>
				<time>2025-07-29T05:35:34.070Z</time>
			</trkpt>
			<trkpt lat="48.51433" lon="15.2826">
				<ele>714.88</ele>
				<time>2025-07-29T05:35:35.125Z</time>
			</trkpt>
			<trkpt lat="48.51427" lon="15.28264">
				<ele>714.43</ele>
				<time>2025-07-29T05:35:35.651Z</time>
			</trkpt>
			<trkpt lat="48.51414" lon="15.2828">
				<ele>713.04</ele>
				<time>2025-07-29T05:35:36.995Z</time>
			</trkpt>
			<trkpt lat="48.51397" lon="15.28304">
				<ele>712.44</ele>
				<time>2025-07-29T05:35:38.858Z</time>
			</trkpt>
			<trkpt lat="48.5135" lon="15.28381">
				<ele>704.19</ele>
				<time>2025-07-29T05:35:44.392Z</time>
			</trkpt>
			<trkpt lat="48.5133" lon="15.28401">
				<ele>700.38</ele>
				<time>2025-07-29T05:35:46.300Z</time>
			</trkpt>
			<trkpt lat="48.5132" lon="15.28406">
				<ele>698.96</ele>
				<time>2025-07-29T05:35:47.137Z</time>
			</trkpt>
			<trkpt lat="48.513" lon="15.28408">
				<ele>697.4</ele>
				<time>2025-07-29T05:35:48.728Z</time>
			</trkpt>
			<trkpt lat="48.51292" lon="15.28404">
				<ele>697.19</ele>
				<time>2025-07-29T05:35:49.396Z</time>
			</trkpt>
			<trkpt lat="48.51285" lon="15.28398">
				<ele>697.1</ele>
				<time>2025-07-29T05:35:50.034Z</time>
			</trkpt>
			<trkpt lat="48.51275" lon="15.28385">
				<ele>697.07</ele>
				<time>2025-07-29T05:35:51.079Z</time>
			</trkpt>
			<trkpt lat="48.51246" lon="15.28344">
				<ele>697.23</ele>
				<time>2025-07-29T05:35:54.221Z</time>
			</trkpt>
			<trkpt lat="48.5123" lon="15.28333">
				<ele>697.65</ele>
				<time>2025-07-29T05:35:55.608Z</time>
			</trkpt>
			<trkpt lat="48.51212" lon="15.28331">
				<ele>696.81</ele>
				<time>2025-07-29T05:35:57.031Z</time>
			</trkpt>
			<trkpt lat="48.51205" lon="15.28333">
				<ele>696.37</ele>
				<time>2025-07-29T05:35:57.592Z</time>
			</trkpt>
			<trkpt lat="48.51198" lon="15.2834">
				<ele>695.59</ele>
				<time>2025-07-29T05:35:58.253Z</time>
			</trkpt>
			<trkpt lat="48.51189" lon="15.28361">
				<ele>693.64</ele>
				<time>2025-07-29T05:35:59.556Z</time>
			</trkpt>
			<trkpt lat="48.51186" lon="15.28375">
				<ele>692.38</ele>
				<time>2025-07-29T05:36:00.322Z</time>
			</trkpt>
			<trkpt lat="48.51184" lon="15.28398">
				<ele>690.92</ele>
				<time>2025-07-29T05:36:01.528Z</time>
			</trkpt>
			<trkpt lat="48.51186" lon="15.28427">
				<ele>690.05</ele>
				<time>2025-07-29T05:36:03.043Z</time>
			</trkpt>
			<trkpt lat="48.51244" lon="15.28784">
				<ele>680.98</ele>
				<time>2025-07-29T05:36:21.976Z</time>
			</trkpt>
			<trkpt lat="48.51249" lon="15.28826">
				<ele>677.73</ele>
				<time>2025-07-29T05:36:24.155Z</time>
			</trkpt>
			<trkpt lat="48.51247" lon="15.2884">
				<ele>676.37</ele>
				<time>2025-07-29T05:36:24.885Z</time>
			</trkpt>
			<trkpt lat="48.51242" lon="15.2885">
				<ele>675.63</ele>
				<time>2025-07-29T05:36:25.523Z</time>
			</trkpt>
			<trkpt lat="48.51197" lon="15.28882">
				<ele>676.2</ele>
				<time>2025-07-29T05:36:29.342Z</time>
			</trkpt>
			<trkpt lat="48.51186" lon="15.28893">
				<ele>675.36</ele>
				<time>2025-07-29T05:36:30.353Z</time>
			</trkpt>
			<trkpt lat="48.51175" lon="15.28909">
				<ele>672.53</ele>
				<time>2025-07-29T05:36:31.522Z</time>
			</trkpt>
			<trkpt lat="48.51164" lon="15.2895">
				<ele>667.54</ele>
				<time>2025-07-29T05:36:33.761Z</time>
			</trkpt>
			<trkpt lat="48.51162" lon="15.28968">
				<ele>665.97</ele>
				<time>2025-07-29T05:36:34.684Z</time>
			</trkpt>
			<trkpt lat="48.51162" lon="15.28982">
				<ele>666.1</ele>
				<time>2025-07-29T05:36:35.391Z</time>
			</trkpt>
			<trkpt lat="48.51164" lon="15.28996">
				<ele>666.8</ele>
				<time>2025-07-29T05:36:36.114Z</time>
			</trkpt>
			<trkpt lat="48.51168" lon="15.29006">
				<ele>667.63</ele>
				<time>2025-07-29T05:36:36.704Z</time>
			</trkpt>
			<trkpt lat="48.51172" lon="15.29013">
				<ele>668.57</ele>
				<time>2025-07-29T05:36:37.170Z</time>
			</trkpt>
			<trkpt lat="48.51178" lon="15.29016">
				<ele>669.45</ele>
				<time>2025-07-29T05:36:37.651Z</time>
			</trkpt>
			<trkpt lat="48.51191" lon="15.29017">
				<ele>670.91</ele>
				<time>2025-07-29T05:36:38.641Z</time>
			</trkpt>
			<trkpt lat="48.51217" lon="15.29005">
				<ele>672.21</ele>
				<time>2025-07-29T05:36:40.706Z</time>
			</trkpt>
			<trkpt lat="48.51219" lon="15.29006">
				<ele>672.56</ele>
				<time>2025-07-29T05:36:40.866Z</time>
			</trkpt>
			<trkpt lat="48.51222" lon="15.29011">
				<ele>673.26</ele>
				<time>2025-07-29T05:36:41.205Z</time>
			</trkpt>
			<trkpt lat="48.51222" lon="15.29021">
				<ele>674.34</ele>
				<time>2025-07-29T05:36:41.708Z</time>
			</trkpt>
			<trkpt lat="48.5122" lon="15.29025">
				<ele>674.63</ele>
				<time>2025-07-29T05:36:41.959Z</time>
			</trkpt>
			<trkpt lat="48.51101" lon="15.29152">
				<ele>684.65</ele>
				<time>2025-07-29T05:36:52.954Z</time>
			</trkpt>
			<trkpt lat="48.51083" lon="15.29179">
				<ele>684</ele>
				<time>2025-07-29T05:36:54.857Z</time>
			</trkpt>
			<trkpt lat="48.51071" lon="15.29203">
				<ele>684.55</ele>
				<time>2025-07-29T05:36:56.349Z</time>
			</trkpt>
			<trkpt lat="48.51043" lon="15.29295">
				<ele>688.32</ele>
				<time>2025-07-29T05:37:01.359Z</time>
			</trkpt>
			<trkpt lat="48.51028" lon="15.29334">
				<ele>690.98</ele>
				<time>2025-07-29T05:37:03.583Z</time>
			</trkpt>
			<trkpt lat="48.50931" lon="15.29494">
				<ele>691.3</ele>
				<time>2025-07-29T05:37:14.217Z</time>
			</trkpt>
			<trkpt lat="48.50915" lon="15.29528">
				<ele>691.07</ele>
				<time>2025-07-29T05:37:16.251Z</time>
			</trkpt>
			<trkpt lat="48.50901" lon="15.29567">
				<ele>692.72</ele>
				<time>2025-07-29T05:37:18.409Z</time>
			</trkpt>
			<trkpt lat="48.50886" lon="15.29624">
				<ele>694.53</ele>
				<time>2025-07-29T05:37:21.387Z</time>
			</trkpt>
			<trkpt lat="48.5087" lon="15.29704">
				<ele>698.66</ele>
				<time>2025-07-29T05:37:25.431Z</time>
			</trkpt>
			<trkpt lat="48.50845" lon="15.29861">
				<ele>699.55</ele>
				<time>2025-07-29T05:37:33.203Z</time>
			</trkpt>
			<trkpt lat="48.50829" lon="15.29943">
				<ele>695.19</ele>
				<time>2025-07-29T05:37:37.295Z</time>
			</trkpt>
			<trkpt lat="48.508" lon="15.30062">
				<ele>692.95</ele>
				<time>2025-07-29T05:37:43.337Z</time>
			</trkpt>
			<trkpt lat="48.50778" lon="15.30135">
				<ele>690.27</ele>
				<time>2025-07-29T05:37:47.141Z</time>
			</trkpt>
			<trkpt lat="48.50767" lon="15.30155">
				<ele>689.4</ele>
				<time>2025-07-29T05:37:48.371Z</time>
			</trkpt>
			<trkpt lat="48.50758" lon="15.30165">
				<ele>689.02</ele>
				<time>2025-07-29T05:37:49.168Z</time>
			</trkpt>
			<trkpt lat="48.50612" lon="15.30308">
				<ele>680.78</ele>
				<time>2025-07-29T05:38:01.510Z</time>
			</trkpt>
			<trkpt lat="48.50591" lon="15.30333">
				<ele>680.41</ele>
				<time>2025-07-29T05:38:03.394Z</time>
			</trkpt>
			<trkpt lat="48.50481" lon="15.30518">
				<ele>671.54</ele>
				<time>2025-07-29T05:38:14.920Z</time>
			</trkpt>
			<trkpt lat="48.50455" lon="15.30568">
				<ele>670.7</ele>
				<time>2025-07-29T05:38:17.847Z</time>
			</trkpt>
			<trkpt lat="48.50445" lon="15.30595">
				<ele>670.44</ele>
				<time>2025-07-29T05:38:19.268Z</time>
			</trkpt>
			<trkpt lat="48.50438" lon="15.30605">
				<ele>670.45</ele>
				<time>2025-07-29T05:38:19.936Z</time>
			</trkpt>
			<trkpt lat="48.50429" lon="15.30609">
				<ele>670.6</ele>
				<time>2025-07-29T05:38:20.586Z</time>
			</trkpt>
			<trkpt lat="48.5041" lon="15.30612">
				<ele>671.15</ele>
				<time>2025-07-29T05:38:21.907Z</time>
			</trkpt>
			<trkpt lat="48.50378" lon="15.30612">
				<ele>672.34</ele>
				<time>2025-07-29T05:38:24.117Z</time>
			</trkpt>
			<trkpt lat="48.50282" lon="15.30597">
				<ele>675.82</ele>
				<time>2025-07-29T05:38:30.753Z</time>
			</trkpt>
			<trkpt lat="48.50237" lon="15.30597">
				<ele>677.51</ele>
				<time>2025-07-29T05:38:33.833Z</time>
			</trkpt>
			<trkpt lat="48.50237" lon="15.30626">
				<ele>678.25</ele>
				<time>2025-07-29T05:38:35.145Z</time>
			</trkpt>
			<trkpt lat="48.50238" lon="15.30647">
				<ele>678.89</ele>
				<time>2025-07-29T05:38:36.096Z</time>
			</trkpt>
			<trkpt lat="48.50243" lon="15.30665">
				<ele>679.93</ele>
				<time>2025-07-29T05:38:36.977Z</time>
			</trkpt>
			<trkpt lat="48.5025" lon="15.30676">
				<ele>680.96</ele>
				<time>2025-07-29T05:38:37.665Z</time>
			</trkpt>
			<trkpt lat="48.50282" lon="15.30696">
				<ele>680.93</ele>
				<time>2025-07-29T05:38:40.020Z</time>
			</trkpt>
			<trkpt lat="48.50321" lon="15.30715">
				<ele>681.53</ele>
				<time>2025-07-29T05:38:42.800Z</time>
			</trkpt>
			<trkpt lat="48.50342" lon="15.30724">
				<ele>681.27</ele>
				<time>2025-07-29T05:38:44.277Z</time>
			</trkpt>
			<trkpt lat="48.5036" lon="15.30736">
				<ele>681.09</ele>
				<time>2025-07-29T05:38:45.607Z</time>
			</trkpt>
			<trkpt lat="48.50367" lon="15.30744">
				<ele>681.27</ele>
				<time>2025-07-29T05:38:46.199Z</time>
			</trkpt>
			<trkpt lat="48.50377" lon="15.30764">
				<ele>681.73</ele>
				<time>2025-07-29T05:38:47.319Z</time>
			</trkpt>
			<trkpt lat="48.5038" lon="15.30777">
				<ele>682.22</ele>
				<time>2025-07-29T05:38:47.934Z</time>
			</trkpt>
			<trkpt lat="48.50381" lon="15.30806">
				<ele>683.8</ele>
				<time>2025-07-29T05:38:49.230Z</time>
			</trkpt>
			<trkpt lat="48.50377" lon="15.3088">
				<ele>685.25</ele>
				<time>2025-07-29T05:38:52.534Z</time>
			</trkpt>
			<trkpt lat="48.50381" lon="15.30966">
				<ele>687.65</ele>
				<time>2025-07-29T05:38:56.358Z</time>
			</trkpt>
			<trkpt lat="48.50378" lon="15.31005">
				<ele>691.23</ele>
				<time>2025-07-29T05:38:58.094Z</time>
			</trkpt>
			<trkpt lat="48.50375" lon="15.31028">
				<ele>693.53</ele>
				<time>2025-07-29T05:38:59.130Z</time>
			</trkpt>
			<trkpt lat="48.50363" lon="15.31083">
				<ele>697.1</ele>
				<time>2025-07-29T05:39:01.682Z</time>
			</trkpt>
			<trkpt lat="48.50349" lon="15.31136">
				<ele>699.84</ele>
				<time>2025-07-29T05:39:04.191Z</time>
			</trkpt>
			<trkpt lat="48.50337" lon="15.31164">
				<ele>701.05</ele>
				<time>2025-07-29T05:39:05.654Z</time>
			</trkpt>
			<trkpt lat="48.50299" lon="15.31212">
				<ele>702.06</ele>
				<time>2025-07-29T05:39:08.928Z</time>
			</trkpt>
			<trkpt lat="48.5029" lon="15.31232">
				<ele>703.02</ele>
				<time>2025-07-29T05:39:09.984Z</time>
			</trkpt>
			<trkpt lat="48.50282" lon="15.31264">
				<ele>704.53</ele>
				<time>2025-07-29T05:39:11.476Z</time>
			</trkpt>
			<trkpt lat="48.50276" lon="15.3131">
				<ele>706.26</ele>
				<time>2025-07-29T05:39:13.518Z</time>
			</trkpt>
			<trkpt lat="48.50255" lon="15.3159">
				<ele>705.73</ele>
				<time>2025-07-29T05:39:25.698Z</time>
			</trkpt>
			<trkpt lat="48.50226" lon="15.31865">
				<ele>703.27</ele>
				<time>2025-07-29T05:39:37.584Z</time>
			</trkpt>
			<trkpt lat="48.50212" lon="15.3202">
				<ele>702.44</ele>
				<time>2025-07-29T05:39:44.197Z</time>
			</trkpt>
			<trkpt lat="48.50208" lon="15.32087">
				<ele>701.46</ele>
				<time>2025-07-29T05:39:47.026Z</time>
			</trkpt>
			<trkpt lat="48.50206" lon="15.32215">
				<ele>709.28</ele>
				<time>2025-07-29T05:39:52.340Z</time>
			</trkpt>
			<trkpt lat="48.50203" lon="15.32252">
				<ele>707.1</ele>
				<time>2025-07-29T05:39:53.867Z</time>
			</trkpt>
			<trkpt lat="48.50195" lon="15.32283">
				<ele>703.93</ele>
				<time>2025-07-29T05:39:55.223Z</time>
			</trkpt>
			<trkpt lat="48.50175" lon="15.32337">
				<ele>703.36</ele>
				<time>2025-07-29T05:39:57.728Z</time>
			</trkpt>
			<trkpt lat="48.50169" lon="15.32361">
				<ele>705.96</ele>
				<time>2025-07-29T05:39:58.760Z</time>
			</trkpt>
			<trkpt lat="48.50168" lon="15.32374">
				<ele>707.81</ele>
				<time>2025-07-29T05:39:59.285Z</time>
			</trkpt>
			<trkpt lat="48.50173" lon="15.32455">
				<ele>712.52</ele>
				<time>2025-07-29T05:40:02.528Z</time>
			</trkpt>
			<trkpt lat="48.50171" lon="15.32602">
				<ele>719.57</ele>
				<time>2025-07-29T05:40:08.304Z</time>
			</trkpt>
			<trkpt lat="48.50169" lon="15.32639">
				<ele>720.01</ele>
				<time>2025-07-29T05:40:09.747Z</time>
			</trkpt>
			<trkpt lat="48.50162" lon="15.32671">
				<ele>721</ele>
				<time>2025-07-29T05:40:11.051Z</time>
			</trkpt>
			<trkpt lat="48.50146" lon="15.32727">
				<ele>720.58</ele>
				<time>2025-07-29T05:40:13.399Z</time>
			</trkpt>
			<trkpt lat="48.50119" lon="15.32831">
				<ele>718.33</ele>
				<time>2025-07-29T05:40:17.663Z</time>
			</trkpt>
			<trkpt lat="48.5011" lon="15.32885">
				<ele>718.1</ele>
				<time>2025-07-29T05:40:19.772Z</time>
			</trkpt>
			<trkpt lat="48.50097" lon="15.33015">
				<ele>715.78</ele>
				<time>2025-07-29T05:40:24.713Z</time>
			</trkpt>
			<trkpt lat="48.50087" lon="15.33087">
				<ele>715.61</ele>
				<time>2025-07-29T05:40:27.457Z</time>
			</trkpt>
			<trkpt lat="48.50062" lon="15.33203">
				<ele>716</ele>
				<time>2025-07-29T05:40:31.980Z</time>
			</trkpt>
			<trkpt lat="48.50055" lon="15.33228">
				<ele>715.76</ele>
				<time>2025-07-29T05:40:32.982Z</time>
			</trkpt>
			<trkpt lat="48.50049" lon="15.33236">
				<ele>715.47</ele>
				<time>2025-07-29T05:40:33.428Z</time>
			</trkpt>
			<trkpt lat="48.50084" lon="15.3338">
				<ele>716.02</ele>
				<time>2025-07-29T05:40:39.070Z</time>
			</trkpt>
			<trkpt lat="48.50125" lon="15.33519">
				<ele>715.38</ele>
				<time>2025-07-29T05:40:44.644Z</time>
			</trkpt>
			<trkpt lat="48.50154" lon="15.33602">
				<ele>715.18</ele>
				<time>2025-07-29T05:40:48.077Z</time>
			</trkpt>
			<trkpt lat="48.50185" lon="15.33658">
				<ele>713.76</ele>
				<time>2025-07-29T05:40:50.748Z</time>
			</trkpt>
			<trkpt lat="48.50208" lon="15.33694">
				<ele>715.5</ele>
				<time>2025-07-29T05:40:52.579Z</time>
			</trkpt>
			<trkpt lat="48.50289" lon="15.33789">
				<ele>713.98</ele>
				<time>2025-07-29T05:40:58.260Z</time>
			</trkpt>
			<trkpt lat="48.5031" lon="15.33817">
				<ele>714.16</ele>
				<time>2025-07-29T05:40:59.817Z</time>
			</trkpt>
			<trkpt lat="48.50326" lon="15.33842">
				<ele>714.5</ele>
				<time>2025-07-29T05:41:01.098Z</time>
			</trkpt>
			<trkpt lat="48.5034" lon="15.33868">
				<ele>714.25</ele>
				<time>2025-07-29T05:41:02.335Z</time>
			</trkpt>
			<trkpt lat="48.50362" lon="15.33922">
				<ele>715.8</ele>
				<time>2025-07-29T05:41:04.681Z</time>
			</trkpt>
			<trkpt lat="48.50371" lon="15.33952">
				<ele>715.36</ele>
				<time>2025-07-29T05:41:05.904Z</time>
			</trkpt>
			<trkpt lat="48.50382" lon="15.34015">
				<ele>715.34</ele>
				<time>2025-07-29T05:41:08.328Z</time>
			</trkpt>
			<trkpt lat="48.50384" lon="15.34046">
				<ele>715</ele>
				<time>2025-07-29T05:41:09.491Z</time>
			</trkpt>
			<trkpt lat="48.50385" lon="15.34079">
				<ele>715</ele>
				<time>2025-07-29T05:41:10.727Z</time>
			</trkpt>
			<trkpt lat="48.50383" lon="15.34109">
				<ele>714.82</ele>
				<time>2025-07-29T05:41:11.858Z</time>
			</trkpt>
			<trkpt lat="48.50375" lon="15.34168">
				<ele>714.52</ele>
				<time>2025-07-29T05:41:14.125Z</time>
			</trkpt>
			<trkpt lat="48.50359" lon="15.34227">
				<ele>714</ele>
				<time>2025-07-29T05:41:16.537Z</time>
			</trkpt>
			<trkpt lat="48.50353" lon="15.34245">
				<ele>714</ele>
				<time>2025-07-29T05:41:17.302Z</time>
			</trkpt>
			<trkpt lat="48.5033" lon="15.34291">
				<ele>712.55</ele>
				<time>2025-07-29T05:41:19.499Z</time>
			</trkpt>
			<trkpt lat="48.503" lon="15.34335">
				<ele>712</ele>
				<time>2025-07-29T05:41:21.920Z</time>
			</trkpt>
			<trkpt lat="48.50281" lon="15.34357">
				<ele>712</ele>
				<time>2025-07-29T05:41:23.313Z</time>
			</trkpt>
			<trkpt lat="48.50168" lon="15.34471">
				<ele>711.01</ele>
				<time>2025-07-29T05:41:31.330Z</time>
			</trkpt>
			<trkpt lat="48.50053" lon="15.34593">
				<ele>711.94</ele>
				<time>2025-07-29T05:41:39.832Z</time>
			</trkpt>
			<trkpt lat="48.50017" lon="15.34637">
				<ele>712</ele>
				<time>2025-07-29T05:41:42.662Z</time>
			</trkpt>
			<trkpt lat="48.49995" lon="15.34671">
				<ele>711.65</ele>
				<time>2025-07-29T05:41:44.592Z</time>
			</trkpt>
			<trkpt lat="48.49966" lon="15.34728">
				<ele>708.79</ele>
				<time>2025-07-29T05:41:47.518Z</time>
			</trkpt>
			<trkpt lat="48.49944" lon="15.3479">
				<ele>708.46</ele>
				<time>2025-07-29T05:41:50.392Z</time>
			</trkpt>
			<trkpt lat="48.49935" lon="15.3483">
				<ele>708.36</ele>
				<time>2025-07-29T05:41:52.123Z</time>
			</trkpt>
			<trkpt lat="48.4992" lon="15.34916">
				<ele>708.14</ele>
				<time>2025-07-29T05:41:55.777Z</time>
			</trkpt>
			<trkpt lat="48.49908" lon="15.35037">
				<ele>707.46</ele>
				<time>2025-07-29T05:42:00.830Z</time>
			</trkpt>
			<trkpt lat="48.49902" lon="15.35136">
				<ele>707</ele>
				<time>2025-07-29T05:42:04.955Z</time>
			</trkpt>
			<trkpt lat="48.49901" lon="15.35188">
				<ele>706.57</ele>
				<time>2025-07-29T05:42:07.120Z</time>
			</trkpt>
			<trkpt lat="48.49904" lon="15.35233">
				<ele>707</ele>
				<time>2025-07-29T05:42:09.006Z</time>
			</trkpt>
			<trkpt lat="48.49911" lon="15.35271">
				<ele>707</ele>
				<time>2025-07-29T05:42:10.654Z</time>
			</trkpt>
			<trkpt lat="48.49946" lon="15.35386">
				<ele>709.83</ele>
				<time>2025-07-29T05:42:15.959Z</time>
			</trkpt>
			<trkpt lat="48.49956" lon="15.35426">
				<ele>709.7</ele>
				<time>2025-07-29T05:42:17.757Z</time>
			</trkpt>
			<trkpt lat="48.49961" lon="15.35451">
				<ele>710</ele>
				<time>2025-07-29T05:42:18.857Z</time>
			</trkpt>
			<trkpt lat="48.49967" lon="15.35502">
				<ele>710.84</ele>
				<time>2025-07-29T05:42:21.041Z</time>
			</trkpt>
			<trkpt lat="48.49993" lon="15.35834">
				<ele>708.75</ele>
				<time>2025-07-29T05:42:35.235Z</time>
			</trkpt>
			<trkpt lat="48.49996" lon="15.35899">
				<ele>708</ele>
				<time>2025-07-29T05:42:38.020Z</time>
			</trkpt>
			<trkpt lat="48.49996" lon="15.35953">
				<ele>707</ele>
				<time>2025-07-29T05:42:40.332Z</time>
			</trkpt>
			<trkpt lat="48.4999" lon="15.36005">
				<ele>705.86</ele>
				<time>2025-07-29T05:42:42.596Z</time>
			</trkpt>
			<trkpt lat="48.49975" lon="15.36085">
				<ele>703.98</ele>
				<time>2025-07-29T05:42:46.169Z</time>
			</trkpt>
			<trkpt lat="48.49951" lon="15.36193">
				<ele>702.27</ele>
				<time>2025-07-29T05:42:51.078Z</time>
			</trkpt>
			<trkpt lat="48.4992" lon="15.3632">
				<ele>697.59</ele>
				<time>2025-07-29T05:42:56.930Z</time>
			</trkpt>
			<trkpt lat="48.49907" lon="15.3638">
				<ele>695.96</ele>
				<time>2025-07-29T05:42:59.667Z</time>
			</trkpt>
			<trkpt lat="48.49902" lon="15.36413">
				<ele>695.48</ele>
				<time>2025-07-29T05:43:01.136Z</time>
			</trkpt>
			<trkpt lat="48.49895" lon="15.36479">
				<ele>694.74</ele>
				<time>2025-07-29T05:43:04.040Z</time>
			</trkpt>
			<trkpt lat="48.49892" lon="15.3655">
				<ele>692.05</ele>
				<time>2025-07-29T05:43:07.137Z</time>
			</trkpt>
			<trkpt lat="48.49898" lon="15.36612">
				<ele>689.98</ele>
				<time>2025-07-29T05:43:09.868Z</time>
			</trkpt>
			<trkpt lat="48.49916" lon="15.36728">
				<ele>689.98</ele>
				<time>2025-07-29T05:43:15.071Z</time>
			</trkpt>
			<trkpt lat="48.49929" lon="15.36826">
				<ele>691.27</ele>
				<time>2025-07-29T05:43:19.445Z</time>
			</trkpt>
			<trkpt lat="48.49983" lon="15.37359">
				<ele>694.95</ele>
				<time>2025-07-29T05:43:43.170Z</time>
			</trkpt>
			<trkpt lat="48.49998" lon="15.37474">
				<ele>696.25</ele>
				<time>2025-07-29T05:43:48.351Z</time>
			</trkpt>
			<trkpt lat="48.50023" lon="15.37645">
				<ele>700.14</ele>
				<time>2025-07-29T05:43:56.102Z</time>
			</trkpt>
			<trkpt lat="48.50037" lon="15.37759">
				<ele>700.56</ele>
				<time>2025-07-29T05:44:01.241Z</time>
			</trkpt>
			<trkpt lat="48.50043" lon="15.37856">
				<ele>700.15</ele>
				<time>2025-07-29T05:44:05.562Z</time>
			</trkpt>
			<trkpt lat="48.50049" lon="15.38111">
				<ele>690.41</ele>
				<time>2025-07-29T05:44:16.890Z</time>
			</trkpt>
			<trkpt lat="48.50056" lon="15.38194">
				<ele>684</ele>
				<time>2025-07-29T05:44:20.606Z</time>
			</trkpt>
			<trkpt lat="48.5007" lon="15.38276">
				<ele>678.18</ele>
				<time>2025-07-29T05:44:24.368Z</time>
			</trkpt>
			<trkpt lat="48.50083" lon="15.38326">
				<ele>675.46</ele>
				<time>2025-07-29T05:44:26.755Z</time>
			</trkpt>
			<trkpt lat="48.50098" lon="15.38371">
				<ele>672.24</ele>
				<time>2025-07-29T05:44:28.993Z</time>
			</trkpt>
			<trkpt lat="48.50121" lon="15.38419">
				<ele>669.93</ele>
				<time>2025-07-29T05:44:31.624Z</time>
			</trkpt>
			<trkpt lat="48.50156" lon="15.38471">
				<ele>668.03</ele>
				<time>2025-07-29T05:44:34.917Z</time>
			</trkpt>
			<trkpt lat="48.50173" lon="15.38507">
				<ele>665.53</ele>
				<time>2025-07-29T05:44:36.881Z</time>
			</trkpt>
			<trkpt lat="48.50182" lon="15.38535">
				<ele>665</ele>
				<time>2025-07-29T05:44:38.263Z</time>
			</trkpt>
			<trkpt lat="48.50188" lon="15.38568">
				<ele>664.53</ele>
				<time>2025-07-29T05:44:39.782Z</time>
			</trkpt>
			<trkpt lat="48.50189" lon="15.38605">
				<ele>662.54</ele>
				<time>2025-07-29T05:44:41.427Z</time>
			</trkpt>
			<trkpt lat="48.50184" lon="15.38647">
				<ele>660.83</ele>
				<time>2025-07-29T05:44:43.321Z</time>
			</trkpt>
			<trkpt lat="48.50179" lon="15.3867">
				<ele>659.84</ele>
				<time>2025-07-29T05:44:44.396Z</time>
			</trkpt>
			<trkpt lat="48.50166" lon="15.38707">
				<ele>658.52</ele>
				<time>2025-07-29T05:44:46.254Z</time>
			</trkpt>
			<trkpt lat="48.50123" lon="15.38788">
				<ele>654.87</ele>
				<time>2025-07-29T05:44:50.859Z</time>
			</trkpt>
			<trkpt lat="48.50078" lon="15.38888">
				<ele>653.61</ele>
				<time>2025-07-29T05:44:56.218Z</time>
			</trkpt>
			<trkpt lat="48.50032" lon="15.38979">
				<ele>650.15</ele>
				<time>2025-07-29T05:45:01.287Z</time>
			</trkpt>
			<trkpt lat="48.50004" lon="15.39026">
				<ele>648.31</ele>
				<time>2025-07-29T05:45:04.084Z</time>
			</trkpt>
			<trkpt lat="48.49963" lon="15.39084">
				<ele>648.02</ele>
				<time>2025-07-29T05:45:07.835Z</time>
			</trkpt>
			<trkpt lat="48.49877" lon="15.39188">
				<ele>645.49</ele>
				<time>2025-07-29T05:45:15.179Z</time>
			</trkpt>
			<trkpt lat="48.49946" lon="15.39302">
				<ele>650.88</ele>
				<time>2025-07-29T05:45:21.983Z</time>
			</trkpt>
			<trkpt lat="48.49995" lon="15.39375">
				<ele>653.52</ele>
				<time>2025-07-29T05:45:26.553Z</time>
			</trkpt>
			<trkpt lat="48.50012" lon="15.39394">
				<ele>653.55</ele>
				<time>2025-07-29T05:45:27.956Z</time>
			</trkpt>
			<trkpt lat="48.50034" lon="15.39405">
				<ele>652.64</ele>
				<time>2025-07-29T05:45:29.492Z</time>
			</trkpt>
			<trkpt lat="48.50056" lon="15.39409">
				<ele>651.72</ele>
				<time>2025-07-29T05:45:30.959Z</time>
			</trkpt>
			<trkpt lat="48.5011" lon="15.39403">
				<ele>651.53</ele>
				<time>2025-07-29T05:45:34.541Z</time>
			</trkpt>
			<trkpt lat="48.50186" lon="15.39409">
				<ele>647.26</ele>
				<time>2025-07-29T05:45:39.567Z</time>
			</trkpt>
			<trkpt lat="48.50239" lon="15.39405">
				<ele>645</ele>
				<time>2025-07-29T05:45:43.064Z</time>
			</trkpt>
			<trkpt lat="48.50272" lon="15.39394">
				<ele>645</ele>
				<time>2025-07-29T05:45:45.289Z</time>
			</trkpt>
			<trkpt lat="48.50323" lon="15.39364">
				<ele>642.39</ele>
				<time>2025-07-29T05:45:48.886Z</time>
			</trkpt>
			<trkpt lat="48.5034" lon="15.39359">
				<ele>642.01</ele>
				<time>2025-07-29T05:45:50.023Z</time>
			</trkpt>
			<trkpt lat="48.50354" lon="15.39363">
				<ele>641.94</ele>
				<time>2025-07-29T05:45:50.957Z</time>
			</trkpt>
			<trkpt lat="48.50373" lon="15.39385">
				<ele>641.59</ele>
				<time>2025-07-29T05:45:52.527Z</time>
			</trkpt>
			<trkpt lat="48.50382" lon="15.39407">
				<ele>640.57</ele>
				<time>2025-07-29T05:45:53.650Z</time>
			</trkpt>
			<trkpt lat="48.50415" lon="15.39605">
				<ele>639.3</ele>
				<time>2025-07-29T05:46:02.486Z</time>
			</trkpt>
			<trkpt lat="48.50421" lon="15.39627">
				<ele>638.05</ele>
				<time>2025-07-29T05:46:03.513Z</time>
			</trkpt>
			<trkpt lat="48.50435" lon="15.39659">
				<ele>636.13</ele>
				<time>2025-07-29T05:46:05.166Z</time>
			</trkpt>
			<trkpt lat="48.50477" lon="15.39728">
				<ele>633.81</ele>
				<time>2025-07-29T05:46:09.199Z</time>
			</trkpt>
			<trkpt lat="48.50418" lon="15.3982">
				<ele>637.82</ele>
				<time>2025-07-29T05:46:14.691Z</time>
			</trkpt>
			<trkpt lat="48.50376" lon="15.39892">
				<ele>637.32</ele>
				<time>2025-07-29T05:46:18.792Z</time>
			</trkpt>
			<trkpt lat="48.50362" lon="15.39928">
				<ele>636.53</ele>
				<time>2025-07-29T05:46:20.573Z</time>
			</trkpt>
			<trkpt lat="48.50324" lon="15.40052">
				<ele>638.03</ele>
				<time>2025-07-29T05:46:26.384Z</time>
			</trkpt>
			<trkpt lat="48.50303" lon="15.40094">
				<ele>637.55</ele>
				<time>2025-07-29T05:46:28.614Z</time>
			</trkpt>
			<trkpt lat="48.50167" lon="15.40301">
				<ele>638.12</ele>
				<time>2025-07-29T05:46:40.781Z</time>
			</trkpt>
			<trkpt lat="48.50139" lon="15.40332">
				<ele>638.02</ele>
				<time>2025-07-29T05:46:42.945Z</time>
			</trkpt>
			<trkpt lat="48.50085" lon="15.40374">
				<ele>637</ele>
				<time>2025-07-29T05:46:46.722Z</time>
			</trkpt>
			<trkpt lat="48.50071" lon="15.40388">
				<ele>637</ele>
				<time>2025-07-29T05:46:47.765Z</time>
			</trkpt>
			<trkpt lat="48.50063" lon="15.40397">
				<ele>637</ele>
				<time>2025-07-29T05:46:48.385Z</time>
			</trkpt>
			<trkpt lat="48.50045" lon="15.40428">
				<ele>636.58</ele>
				<time>2025-07-29T05:46:50.081Z</time>
			</trkpt>
			<trkpt lat="48.50033" lon="15.40461">
				<ele>634.93</ele>
				<time>2025-07-29T05:46:51.630Z</time>
			</trkpt>
			<trkpt lat="48.50017" lon="15.4053">
				<ele>629.95</ele>
				<time>2025-07-29T05:46:54.643Z</time>
			</trkpt>
			<trkpt lat="48.50098" lon="15.40583">
				<ele>635.09</ele>
				<time>2025-07-29T05:47:00.154Z</time>
			</trkpt>
			<trkpt lat="48.50117" lon="15.40598">
				<ele>635.58</ele>
				<time>2025-07-29T05:47:01.499Z</time>
			</trkpt>
			<trkpt lat="48.50123" lon="15.40617">
				<ele>635.44</ele>
				<time>2025-07-29T05:47:02.376Z</time>
			</trkpt>
			<trkpt lat="48.50123" lon="15.4067">
				<ele>635.85</ele>
				<time>2025-07-29T05:47:04.589Z</time>
			</trkpt>
			<trkpt lat="48.50123" lon="15.40781">
				<ele>636.18</ele>
				<time>2025-07-29T05:47:09.260Z</time>
			</trkpt>
			<trkpt lat="48.5013" lon="15.40873">
				<ele>640.43</ele>
				<time>2025-07-29T05:47:13.201Z</time>
			</trkpt>
			<trkpt lat="48.50155" lon="15.4099">
				<ele>639.78</ele>
				<time>2025-07-29T05:47:18.509Z</time>
			</trkpt>
			<trkpt lat="48.50189" lon="15.41065">
				<ele>638.16</ele>
				<time>2025-07-29T05:47:22.436Z</time>
			</trkpt>
			<trkpt lat="48.50408" lon="15.41351">
				<ele>626</ele>
				<time>2025-07-29T05:47:40.329Z</time>
			</trkpt>
			<trkpt lat="48.50414" lon="15.41369">
				<ele>625.74</ele>
				<time>2025-07-29T05:47:41.172Z</time>
			</trkpt>
			<trkpt lat="48.50413" lon="15.41381">
				<ele>625.4</ele>
				<time>2025-07-29T05:47:41.681Z</time>
			</trkpt>
			<trkpt lat="48.50463" lon="15.414">
				<ele>622.07</ele>
				<time>2025-07-29T05:47:45.018Z</time>
			</trkpt>
			<trkpt lat="48.50494" lon="15.41417">
				<ele>620.19</ele>
				<time>2025-07-29T05:47:47.219Z</time>
			</trkpt>
			<trkpt lat="48.50522" lon="15.41435">
				<ele>619.87</ele>
				<time>2025-07-29T05:47:49.304Z</time>
			</trkpt>
			<trkpt lat="48.50555" lon="15.41464">
				<ele>620.26</ele>
				<time>2025-07-29T05:47:52.007Z</time>
			</trkpt>
			<trkpt lat="48.50598" lon="15.41519">
				<ele>619.84</ele>
				<time>2025-07-29T05:47:56.196Z</time>
			</trkpt>
			<trkpt lat="48.50614" lon="15.41547">
				<ele>619.39</ele>
				<time>2025-07-29T05:47:58.102Z</time>
			</trkpt>
			<trkpt lat="48.50629" lon="15.41583">
				<ele>618.32</ele>
				<time>2025-07-29T05:48:00.362Z</time>
			</trkpt>
			<trkpt lat="48.5064" lon="15.41619">
				<ele>617.75</ele>
				<time>2025-07-29T05:48:02.541Z</time>
			</trkpt>
			<trkpt lat="48.50652" lon="15.41687">
				<ele>616.48</ele>
				<time>2025-07-29T05:48:06.594Z</time>
			</trkpt>
			<trkpt lat="48.50657" lon="15.41732">
				<ele>616.53</ele>
				<time>2025-07-29T05:48:09.358Z</time>
			</trkpt>
			<trkpt lat="48.5068" lon="15.41902">
				<ele>615.48</ele>
				<time>2025-07-29T05:48:22.590Z</time>
			</trkpt>
			<trkpt lat="48.50744" lon="15.42197">
				<ele>606.62</ele>
				<time>2025-07-29T05:48:54.453Z</time>
			</trkpt>
			<trkpt lat="48.5075" lon="15.42228">
				<ele>607.01</ele>
				<time>2025-07-29T05:48:58.062Z</time>
			</trkpt>
			<trkpt lat="48.50768" lon="15.42396">
				<ele>607.93</ele>
				<time>2025-07-29T05:49:17.030Z</time>
			</trkpt>
			<trkpt lat="48.50777" lon="15.42528">
				<ele>610.97</ele>
				<time>2025-07-29T05:49:31.034Z</time>
			</trkpt>
			<trkpt lat="48.50813" lon="15.4286">
				<ele>607.99</ele>
				<time>2025-07-29T05:49:58.063Z</time>
			</trkpt>
			<trkpt lat="48.5084" lon="15.43153">
				<ele>608.34</ele>
				<time>2025-07-29T05:50:14.875Z</time>
			</trkpt>
			<trkpt lat="48.50853" lon="15.43226">
				<ele>609.04</ele>
				<time>2025-07-29T05:50:18.987Z</time>
			</trkpt>
			<trkpt lat="48.50874" lon="15.43309">
				<ele>610.5</ele>
				<time>2025-07-29T05:50:23.728Z</time>
			</trkpt>
			<trkpt lat="48.50888" lon="15.43344">
				<ele>610.4</ele>
				<time>2025-07-29T05:50:25.877Z</time>
			</trkpt>
			<trkpt lat="48.50902" lon="15.43374">
				<ele>610.74</ele>
				<time>2025-07-29T05:50:27.789Z</time>
			</trkpt>
			<trkpt lat="48.50938" lon="15.43439">
				<ele>610.2</ele>
				<time>2025-07-29T05:50:32.140Z</time>
			</trkpt>
			<trkpt lat="48.50988" lon="15.43498">
				<ele>610.54</ele>
				<time>2025-07-29T05:50:36.958Z</time>
			</trkpt>
			<trkpt lat="48.51024" lon="15.43551">
				<ele>611.88</ele>
				<time>2025-07-29T05:50:40.700Z</time>
			</trkpt>
			<trkpt lat="48.51055" lon="15.43618">
				<ele>614</ele>
				<time>2025-07-29T05:50:44.657Z</time>
			</trkpt>
			<trkpt lat="48.51129" lon="15.43828">
				<ele>614.05</ele>
				<time>2025-07-29T05:50:55.765Z</time>
			</trkpt>
			<trkpt lat="48.51142" lon="15.43895">
				<ele>614</ele>
				<time>2025-07-29T05:50:58.913Z</time>
			</trkpt>
			<trkpt lat="48.51148" lon="15.43994">
				<ele>612.4</ele>
				<time>2025-07-29T05:51:03.314Z</time>
			</trkpt>
			<trkpt lat="48.51161" lon="15.44086">
				<ele>613</ele>
				<time>2025-07-29T05:51:07.389Z</time>
			</trkpt>
			<trkpt lat="48.51183" lon="15.44177">
				<ele>611.01</ele>
				<time>2025-07-29T05:51:11.501Z</time>
			</trkpt>
			<trkpt lat="48.51219" lon="15.44256">
				<ele>607.75</ele>
				<time>2025-07-29T05:51:15.487Z</time>
			</trkpt>
			<trkpt lat="48.51306" lon="15.44433">
				<ele>601.91</ele>
				<time>2025-07-29T05:51:24.350Z</time>
			</trkpt>
			<trkpt lat="48.51321" lon="15.44452">
				<ele>600.42</ele>
				<time>2025-07-29T05:51:25.509Z</time>
			</trkpt>
			<trkpt lat="48.51383" lon="15.44512">
				<ele>597.1</ele>
				<time>2025-07-29T05:51:29.805Z</time>
			</trkpt>
			<trkpt lat="48.51397" lon="15.4453">
				<ele>596.63</ele>
				<time>2025-07-29T05:51:30.864Z</time>
			</trkpt>
			<trkpt lat="48.51405" lon="15.44544">
				<ele>596.16</ele>
				<time>2025-07-29T05:51:31.565Z</time>
			</trkpt>
			<trkpt lat="48.51414" lon="15.44566">
				<ele>595.61</ele>
				<time>2025-07-29T05:51:32.542Z</time>
			</trkpt>
			<trkpt lat="48.51421" lon="15.44593">
				<ele>595.35</ele>
				<time>2025-07-29T05:51:33.632Z</time>
			</trkpt>
			<trkpt lat="48.51474" lon="15.44805">
				<ele>594</ele>
				<time>2025-07-29T05:51:41.946Z</time>
			</trkpt>
			<trkpt lat="48.51497" lon="15.44876">
				<ele>593.91</ele>
				<time>2025-07-29T05:51:44.766Z</time>
			</trkpt>
			<trkpt lat="48.51564" lon="15.45029">
				<ele>593.75</ele>
				<time>2025-07-29T05:51:51.165Z</time>
			</trkpt>
			<trkpt lat="48.51601" lon="15.45109">
				<ele>595.61</ele>
				<time>2025-07-29T05:51:54.491Z</time>
			</trkpt>
			<trkpt lat="48.51652" lon="15.45204">
				<ele>598.85</ele>
				<time>2025-07-29T05:51:58.589Z</time>
			</trkpt>
			<trkpt lat="48.51695" lon="15.45281">
				<ele>599</ele>
				<time>2025-07-29T05:52:01.909Z</time>
			</trkpt>
			<trkpt lat="48.51725" lon="15.45321">
				<ele>599</ele>
				<time>2025-07-29T05:52:03.879Z</time>
			</trkpt>
			<trkpt lat="48.51779" lon="15.45381">
				<ele>599.07</ele>
				<time>2025-07-29T05:52:07.144Z</time>
			</trkpt>
			<trkpt lat="48.51801" lon="15.45402">
				<ele>599.44</ele>
				<time>2025-07-29T05:52:08.400Z</time>
			</trkpt>
			<trkpt lat="48.51844" lon="15.45438">
				<ele>598.6</ele>
				<time>2025-07-29T05:52:10.757Z</time>
			</trkpt>
			<trkpt lat="48.51919" lon="15.45494">
				<ele>597.89</ele>
				<time>2025-07-29T05:52:14.721Z</time>
			</trkpt>
			<trkpt lat="48.52009" lon="15.45544">
				<ele>596.24</ele>
				<time>2025-07-29T05:52:19.203Z</time>
			</trkpt>
			<trkpt lat="48.52159" lon="15.4562">
				<ele>594.25</ele>
				<time>2025-07-29T05:52:26.476Z</time>
			</trkpt>
			<trkpt lat="48.52187" lon="15.45639">
				<ele>595.76</ele>
				<time>2025-07-29T05:52:27.872Z</time>
			</trkpt>
			<trkpt lat="48.522" lon="15.45651">
				<ele>596.58</ele>
				<time>2025-07-29T05:52:28.564Z</time>
			</trkpt>
			<trkpt lat="48.52221" lon="15.45675">
				<ele>597</ele>
				<time>2025-07-29T05:52:29.757Z</time>
			</trkpt>
			<trkpt lat="48.52257" lon="15.45727">
				<ele>599.03</ele>
				<time>2025-07-29T05:52:32.008Z</time>
			</trkpt>
			<trkpt lat="48.52288" lon="15.45782">
				<ele>602.2</ele>
				<time>2025-07-29T05:52:34.162Z</time>
			</trkpt>
			<trkpt lat="48.52363" lon="15.45931">
				<ele>602.52</ele>
				<time>2025-07-29T05:52:39.719Z</time>
			</trkpt>
			<trkpt lat="48.52384" lon="15.45965">
				<ele>602.2</ele>
				<time>2025-07-29T05:52:41.096Z</time>
			</trkpt>
			<trkpt lat="48.52403" lon="15.45987">
				<ele>602</ele>
				<time>2025-07-29T05:52:42.166Z</time>
			</trkpt>
			<trkpt lat="48.52424" lon="15.46002">
				<ele>602.28</ele>
				<time>2025-07-29T05:52:43.204Z</time>
			</trkpt>
			<trkpt lat="48.52464" lon="15.4602">
				<ele>603</ele>
				<time>2025-07-29T05:52:45.068Z</time>
			</trkpt>
			<trkpt lat="48.52516" lon="15.46036">
				<ele>602.81</ele>
				<time>2025-07-29T05:52:47.439Z</time>
			</trkpt>
			<trkpt lat="48.52532" lon="15.46039">
				<ele>602.74</ele>
				<time>2025-07-29T05:52:48.160Z</time>
			</trkpt>
			<trkpt lat="48.52546" lon="15.46059">
				<ele>602.81</ele>
				<time>2025-07-29T05:52:49.022Z</time>
			</trkpt>
			<trkpt lat="48.5255" lon="15.4607">
				<ele>603.38</ele>
				<time>2025-07-29T05:52:49.393Z</time>
			</trkpt>
			<trkpt lat="48.52553" lon="15.46084">
				<ele>603.92</ele>
				<time>2025-07-29T05:52:49.830Z</time>
			</trkpt>
			<trkpt lat="48.52558" lon="15.46148">
				<ele>604.03</ele>
				<time>2025-07-29T05:52:51.741Z</time>
			</trkpt>
			<trkpt lat="48.5254" lon="15.47507">
				<ele>605.93</ele>
				<time>2025-07-29T05:53:34.199Z</time>
			</trkpt>
			<trkpt lat="48.52537" lon="15.47647">
				<ele>603.4</ele>
				<time>2025-07-29T05:53:38.986Z</time>
			</trkpt>
			<trkpt lat="48.52529" lon="15.47935">
				<ele>599.14</ele>
				<time>2025-07-29T05:53:48.868Z</time>
			</trkpt>
			<trkpt lat="48.52519" lon="15.48158">
				<ele>603.6</ele>
				<time>2025-07-29T05:53:56.597Z</time>
			</trkpt>
			<trkpt lat="48.52509" lon="15.48304">
				<ele>603.65</ele>
				<time>2025-07-29T05:54:01.686Z</time>
			</trkpt>
			<trkpt lat="48.52492" lon="15.48476">
				<ele>600.96</ele>
				<time>2025-07-29T05:54:07.728Z</time>
			</trkpt>
			<trkpt lat="48.52459" lon="15.48729">
				<ele>595.27</ele>
				<time>2025-07-29T05:54:16.711Z</time>
			</trkpt>
			<trkpt lat="48.52425" lon="15.4893">
				<ele>596.49</ele>
				<time>2025-07-29T05:54:23.960Z</time>
			</trkpt>
			<trkpt lat="48.52395" lon="15.49096">
				<ele>593.36</ele>
				<time>2025-07-29T05:54:29.986Z</time>
			</trkpt>
			<trkpt lat="48.52328" lon="15.49436">
				<ele>596.7</ele>
				<time>2025-07-29T05:54:42.446Z</time>
			</trkpt>
			<trkpt lat="48.52291" lon="15.49601">
				<ele>599.18</ele>
				<time>2025-07-29T05:54:48.582Z</time>
			</trkpt>
			<trkpt lat="48.52252" lon="15.49739">
				<ele>599.65</ele>
				<time>2025-07-29T05:54:53.877Z</time>
			</trkpt>
			<trkpt lat="48.5223" lon="15.49809">
				<ele>598.52</ele>
				<time>2025-07-29T05:54:56.615Z</time>
			</trkpt>
			<trkpt lat="48.52196" lon="15.49902">
				<ele>597.08</ele>
				<time>2025-07-29T05:55:00.371Z</time>
			</trkpt>
			<trkpt lat="48.52154" lon="15.50006">
				<ele>594.78</ele>
				<time>2025-07-29T05:55:04.684Z</time>
			</trkpt>
			<trkpt lat="48.52128" lon="15.50064">
				<ele>595.41</ele>
				<time>2025-07-29T05:55:07.166Z</time>
			</trkpt>
			<trkpt lat="48.52082" lon="15.50156">
				<ele>591.97</ele>
				<time>2025-07-29T05:55:11.254Z</time>
			</trkpt>
			<trkpt lat="48.52" lon="15.50309">
				<ele>588.01</ele>
				<time>2025-07-29T05:55:18.245Z</time>
			</trkpt>
			<trkpt lat="48.5195" lon="15.50397">
				<ele>586.48</ele>
				<time>2025-07-29T05:55:22.370Z</time>
			</trkpt>
			<trkpt lat="48.5185" lon="15.50563">
				<ele>586.43</ele>
				<time>2025-07-29T05:55:30.363Z</time>
			</trkpt>
			<trkpt lat="48.5179" lon="15.50653">
				<ele>586.72</ele>
				<time>2025-07-29T05:55:34.919Z</time>
			</trkpt>
			<trkpt lat="48.51743" lon="15.50719">
				<ele>585</ele>
				<time>2025-07-29T05:55:38.380Z</time>
			</trkpt>
			<trkpt lat="48.51672" lon="15.50803">
				<ele>583.19</ele>
				<time>2025-07-29T05:55:43.247Z</time>
			</trkpt>
			<trkpt lat="48.51649" lon="15.50826">
				<ele>582.66</ele>
				<time>2025-07-29T05:55:44.737Z</time>
			</trkpt>
			<trkpt lat="48.51608" lon="15.50863">
				<ele>580.66</ele>
				<time>2025-07-29T05:55:47.318Z</time>
			</trkpt>
			<trkpt lat="48.51566" lon="15.50899">
				<ele>575.9</ele>
				<time>2025-07-29T05:55:49.928Z</time>
			</trkpt>
			<trkpt lat="48.51538" lon="15.50918">
				<ele>573.76</ele>
				<time>2025-07-29T05:55:51.588Z</time>
			</trkpt>
			<trkpt lat="48.51449" lon="15.50972">
				<ele>573.19</ele>
				<time>2025-07-29T05:55:56.779Z</time>
			</trkpt>
			<trkpt lat="48.51258" lon="15.51064">
				<ele>564.62</ele>
				<time>2025-07-29T05:56:07.644Z</time>
			</trkpt>
			<trkpt lat="48.51115" lon="15.51141">
				<ele>559.3</ele>
				<time>2025-07-29T05:56:15.887Z</time>
			</trkpt>
			<trkpt lat="48.51017" lon="15.51207">
				<ele>556.61</ele>
				<time>2025-07-29T05:56:21.720Z</time>
			</trkpt>
			<trkpt lat="48.5095" lon="15.51257">
				<ele>558.05</ele>
				<time>2025-07-29T05:56:25.785Z</time>
			</trkpt>
			<trkpt lat="48.50871" lon="15.51325">
				<ele>562.23</ele>
				<time>2025-07-29T05:56:30.736Z</time>
			</trkpt>
			<trkpt lat="48.50842" lon="15.51353">
				<ele>562.96</ele>
				<time>2025-07-29T05:56:32.611Z</time>
			</trkpt>
			<trkpt lat="48.50776" lon="15.51421">
				<ele>568.38</ele>
				<time>2025-07-29T05:56:36.965Z</time>
			</trkpt>
			<trkpt lat="48.50657" lon="15.51561">
				<ele>575.66</ele>
				<time>2025-07-29T05:56:45.192Z</time>
			</trkpt>
			<trkpt lat="48.50636" lon="15.51587">
				<ele>576.98</ele>
				<time>2025-07-29T05:56:46.674Z</time>
			</trkpt>
			<trkpt lat="48.50615" lon="15.51619">
				<ele>578.58</ele>
				<time>2025-07-29T05:56:48.303Z</time>
			</trkpt>
			<trkpt lat="48.50586" lon="15.51671">
				<ele>581.81</ele>
				<time>2025-07-29T05:56:50.761Z</time>
			</trkpt>
			<trkpt lat="48.50557" lon="15.51736">
				<ele>582.95</ele>
				<time>2025-07-29T05:56:53.596Z</time>
			</trkpt>
			<trkpt lat="48.50541" lon="15.51785">
				<ele>584.95</ele>
				<time>2025-07-29T05:56:55.573Z</time>
			</trkpt>
			<trkpt lat="48.50531" lon="15.51819">
				<ele>586.5</ele>
				<time>2025-07-29T05:56:56.920Z</time>
			</trkpt>
			<trkpt lat="48.5052" lon="15.51864">
				<ele>587.73</ele>
				<time>2025-07-29T05:56:58.656Z</time>
			</trkpt>
			<trkpt lat="48.50496" lon="15.51978">
				<ele>588.84</ele>
				<time>2025-07-29T05:57:02.988Z</time>
			</trkpt>
			<trkpt lat="48.5043" lon="15.52303">
				<ele>589.47</ele>
				<time>2025-07-29T05:57:15.308Z</time>
			</trkpt>
			<trkpt lat="48.5044" lon="15.52313">
				<ele>591.14</ele>
				<time>2025-07-29T05:57:15.965Z</time>
			</trkpt>
			<trkpt lat="48.50448" lon="15.52316">
				<ele>592.12</ele>
				<time>2025-07-29T05:57:16.416Z</time>
			</trkpt>
			<trkpt lat="48.50466" lon="15.52316">
				<ele>593.51</ele>
				<time>2025-07-29T05:57:17.402Z</time>
			</trkpt>
			<trkpt lat="48.50551" lon="15.52342">
				<ele>594.9</ele>
				<time>2025-07-29T05:57:22.150Z</time>
			</trkpt>
			<trkpt lat="48.50582" lon="15.52354">
				<ele>595.73</ele>
				<time>2025-07-29T05:57:23.903Z</time>
			</trkpt>
			<trkpt lat="48.50596" lon="15.52368">
				<ele>596.9</ele>
				<time>2025-07-29T05:57:24.823Z</time>
			</trkpt>
			<trkpt lat="48.50611" lon="15.52389">
				<ele>598</ele>
				<time>2025-07-29T05:57:25.944Z</time>
			</trkpt>
			<trkpt lat="48.50643" lon="15.52455">
				<ele>603.29</ele>
				<time>2025-07-29T05:57:28.912Z</time>
			</trkpt>
			<trkpt lat="48.5066" lon="15.52493">
				<ele>606.02</ele>
				<time>2025-07-29T05:57:30.577Z</time>
			</trkpt>
			<trkpt lat="48.50682" lon="15.52568">
				<ele>608.21</ele>
				<time>2025-07-29T05:57:33.555Z</time>
			</trkpt>
			<trkpt lat="48.50747" lon="15.52824">
				<ele>615.69</ele>
				<time>2025-07-29T05:57:43.512Z</time>
			</trkpt>
			<trkpt lat="48.50783" lon="15.52912">
				<ele>614.74</ele>
				<time>2025-07-29T05:57:47.270Z</time>
			</trkpt>
			<trkpt lat="48.50862" lon="15.53086">
				<ele>616.14</ele>
				<time>2025-07-29T05:57:54.935Z</time>
			</trkpt>
			<trkpt lat="48.50873" lon="15.53104">
				<ele>616.97</ele>
				<time>2025-07-29T05:57:55.825Z</time>
			</trkpt>
			<trkpt lat="48.50979" lon="15.53259">
				<ele>620.68</ele>
				<time>2025-07-29T05:58:03.922Z</time>
			</trkpt>
			<trkpt lat="48.51016" lon="15.53372">
				<ele>619.35</ele>
				<time>2025-07-29T05:58:08.505Z</time>
			</trkpt>
			<trkpt lat="48.51033" lon="15.53526">
				<ele>615.04</ele>
				<time>2025-07-29T05:58:14.180Z</time>
			</trkpt>
			<trkpt lat="48.51024" lon="15.53639">
				<ele>610.87</ele>
				<time>2025-07-29T05:58:18.294Z</time>
			</trkpt>
			<trkpt lat="48.50986" lon="15.53709">
				<ele>606.97</ele>
				<time>2025-07-29T05:58:21.446Z</time>
			</trkpt>
			<trkpt lat="48.50897" lon="15.53928">
				<ele>595.44</ele>
				<time>2025-07-29T05:58:29.837Z</time>
			</trkpt>
			<trkpt lat="48.50842" lon="15.5408">
				<ele>589.34</ele>
				<time>2025-07-29T05:58:35.146Z</time>
			</trkpt>
			<trkpt lat="48.50782" lon="15.543">
				<ele>585.03</ele>
				<time>2025-07-29T05:58:42.179Z</time>
			</trkpt>
			<trkpt lat="48.50729" lon="15.54441">
				<ele>580.24</ele>
				<time>2025-07-29T05:58:46.913Z</time>
			</trkpt>
			<trkpt lat="48.50721" lon="15.54475">
				<ele>578.86</ele>
				<time>2025-07-29T05:58:47.970Z</time>
			</trkpt>
			<trkpt lat="48.50719" lon="15.54503">
				<ele>577.42</ele>
				<time>2025-07-29T05:58:48.796Z</time>
			</trkpt>
			<trkpt lat="48.50682" lon="15.54484">
				<ele>583.37</ele>
				<time>2025-07-29T05:58:50.536Z</time>
			</trkpt>
			<trkpt lat="48.50661" lon="15.54446">
				<ele>587.1</ele>
				<time>2025-07-29T05:58:52.005Z</time>
			</trkpt>
			<trkpt lat="48.50622" lon="15.54346">
				<ele>589.46</ele>
				<time>2025-07-29T05:58:55.499Z</time>
			</trkpt>
			<trkpt lat="48.5061" lon="15.54269">
				<ele>593.1</ele>
				<time>2025-07-29T05:58:57.932Z</time>
			</trkpt>
			<trkpt lat="48.506" lon="15.54115">
				<ele>587.85</ele>
				<time>2025-07-29T05:59:02.850Z</time>
			</trkpt>
			<trkpt lat="48.5059" lon="15.54061">
				<ele>585.77</ele>
				<time>2025-07-29T05:59:04.695Z</time>
			</trkpt>
			<trkpt lat="48.50595" lon="15.54034">
				<ele>583.08</ele>
				<time>2025-07-29T05:59:05.631Z</time>
			</trkpt>
			<trkpt lat="48.5061" lon="15.54003">
				<ele>579.36</ele>
				<time>2025-07-29T05:59:06.929Z</time>
			</trkpt>
			<trkpt lat="48.50613" lon="15.53972">
				<ele>576.07</ele>
				<time>2025-07-29T05:59:08.003Z</time>
			</trkpt>
			<trkpt lat="48.50607" lon="15.53966">
				<ele>574.89</ele>
				<time>2025-07-29T05:59:08.378Z</time>
			</trkpt>
			<trkpt lat="48.50548" lon="15.5399">
				<ele>574.47</ele>
				<time>2025-07-29T05:59:11.636Z</time>
			</trkpt>
			<trkpt lat="48.50484" lon="15.54023">
				<ele>568.07</ele>
				<time>2025-07-29T05:59:15.399Z</time>
			</trkpt>
			<trkpt lat="48.50423" lon="15.54068">
				<ele>567</ele>
				<time>2025-07-29T05:59:19.361Z</time>
			</trkpt>
			<trkpt lat="48.50335" lon="15.54179">
				<ele>555.5</ele>
				<time>2025-07-29T05:59:26.529Z</time>
			</trkpt>
			<trkpt lat="48.50324" lon="15.54143">
				<ele>554.05</ele>
				<time>2025-07-29T05:59:28.263Z</time>
			</trkpt>
			<trkpt lat="48.50315" lon="15.54123">
				<ele>556.28</ele>
				<time>2025-07-29T05:59:29.338Z</time>
			</trkpt>
			<trkpt lat="48.50302" lon="15.54101">
				<ele>559.15</ele>
				<time>2025-07-29T05:59:30.668Z</time>
			</trkpt>
			<trkpt lat="48.50285" lon="15.54088">
				<ele>559.76</ele>
				<time>2025-07-29T05:59:31.987Z</time>
			</trkpt>
			<trkpt lat="48.50244" lon="15.5408">
				<ele>552.39</ele>
				<time>2025-07-29T05:59:34.917Z</time>
			</trkpt>
			<trkpt lat="48.50242" lon="15.5411">
				<ele>549.64</ele>
				<time>2025-07-29T05:59:36.370Z</time>
			</trkpt>
			<trkpt lat="48.50233" lon="15.54167">
				<ele>544.31</ele>
				<time>2025-07-29T05:59:39.262Z</time>
			</trkpt>
			<trkpt lat="48.50226" lon="15.54196">
				<ele>541.35</ele>
				<time>2025-07-29T05:59:40.823Z</time>
			</trkpt>
			<trkpt lat="48.50194" lon="15.543">
				<ele>540.96</ele>
				<time>2025-07-29T05:59:46.862Z</time>
			</trkpt>
			<trkpt lat="48.50187" lon="15.54329">
				<ele>539.51</ele>
				<time>2025-07-29T05:59:48.555Z</time>
			</trkpt>
			<trkpt lat="48.50181" lon="15.54354">
				<ele>538.71</ele>
				<time>2025-07-29T05:59:50.036Z</time>
			</trkpt>
			<trkpt lat="48.50175" lon="15.54409">
				<ele>536.53</ele>
				<time>2025-07-29T05:59:53.215Z</time>
			</trkpt>
			<trkpt lat="48.50174" lon="15.54461">
				<ele>534.19</ele>
				<time>2025-07-29T05:59:56.271Z</time>
			</trkpt>
			<trkpt lat="48.50176" lon="15.54491">
				<ele>533.48</ele>
				<time>2025-07-29T05:59:58.172Z</time>
			</trkpt>
			<trkpt lat="48.50179" lon="15.54517">
				<ele>533.17</ele>
				<time>2025-07-29T06:00:00.051Z</time>
			</trkpt>
			<trkpt lat="48.50194" lon="15.54603">
				<ele>529.35</ele>
				<time>2025-07-29T06:00:07.659Z</time>
			</trkpt>
			<trkpt lat="48.50204" lon="15.54672">
				<ele>527.63</ele>
				<time>2025-07-29T06:00:14.798Z</time>
			</trkpt>
			<trkpt lat="48.50209" lon="15.54734">
				<ele>522.81</ele>
				<time>2025-07-29T06:00:21.650Z</time>
			</trkpt>
			<trkpt lat="48.50208" lon="15.54779">
				<ele>521.67</ele>
				<time>2025-07-29T06:00:26.777Z</time>
			</trkpt>
			<trkpt lat="48.50196" lon="15.54959">
				<ele>518.45</ele>
				<time>2025-07-29T06:00:47.238Z</time>
			</trkpt>
			<trkpt lat="48.50201" lon="15.55103">
				<ele>515.9</ele>
				<time>2025-07-29T06:01:00.919Z</time>
			</trkpt>
			<trkpt lat="48.50201" lon="15.55135">
				<ele>514.52</ele>
				<time>2025-07-29T06:01:03.568Z</time>
			</trkpt>
			<trkpt lat="48.50199" lon="15.55188">
				<ele>513.45</ele>
				<time>2025-07-29T06:01:07.815Z</time>
			</trkpt>
			<trkpt lat="48.50191" lon="15.55249">
				<ele>511.23</ele>
				<time>2025-07-29T06:01:12.600Z</time>
			</trkpt>
			<trkpt lat="48.5018" lon="15.55306">
				<ele>507.33</ele>
				<time>2025-07-29T06:01:17.032Z</time>
			</trkpt>
			<trkpt lat="48.50173" lon="15.55331">
				<ele>504.87</ele>
				<time>2025-07-29T06:01:19.029Z</time>
			</trkpt>
			<trkpt lat="48.50156" lon="15.55373">
				<ele>499.22</ele>
				<time>2025-07-29T06:01:22.625Z</time>
			</trkpt>
			<trkpt lat="48.50137" lon="15.55407">
				<ele>497.53</ele>
				<time>2025-07-29T06:01:25.870Z</time>
			</trkpt>
			<trkpt lat="48.50109" lon="15.55442">
				<ele>498.6</ele>
				<time>2025-07-29T06:01:29.901Z</time>
			</trkpt>
			<trkpt lat="48.50074" lon="15.55482">
				<ele>497.52</ele>
				<time>2025-07-29T06:01:34.868Z</time>
			</trkpt>
			<trkpt lat="48.50047" lon="15.55521">
				<ele>494.31</ele>
				<time>2025-07-29T06:01:39.387Z</time>
			</trkpt>
			<trkpt lat="48.5003" lon="15.55552">
				<ele>491.83</ele>
				<time>2025-07-29T06:01:42.708Z</time>
			</trkpt>
			<trkpt lat="48.49989" lon="15.55651">
				<ele>493</ele>
				<time>2025-07-29T06:01:50.649Z</time>
			</trkpt>
			<trkpt lat="48.49958" lon="15.55723">
				<ele>486.06</ele>
				<time>2025-07-29T06:01:55.442Z</time>
			</trkpt>
			<trkpt lat="48.49906" lon="15.55829">
				<ele>476.42</ele>
				<time>2025-07-29T06:02:02.747Z</time>
			</trkpt>
			<trkpt lat="48.49869" lon="15.55901">
				<ele>474.51</ele>
				<time>2025-07-29T06:02:07.753Z</time>
			</trkpt>
			<trkpt lat="48.49841" lon="15.55948">
				<ele>474.59</ele>
				<time>2025-07-29T06:02:11.206Z</time>
			</trkpt>
			<trkpt lat="48.49769" lon="15.56047">
				<ele>465.53</ele>
				<time>2025-07-29T06:02:19.177Z</time>
			</trkpt>
			<trkpt lat="48.4975" lon="15.56082">
				<ele>463.94</ele>
				<time>2025-07-29T06:02:21.614Z</time>
			</trkpt>
			<trkpt lat="48.49729" lon="15.56138">
				<ele>461.53</ele>
				<time>2025-07-29T06:02:25.066Z</time>
			</trkpt>
			<trkpt lat="48.49719" lon="15.56176">
				<ele>462.3</ele>
				<time>2025-07-29T06:02:27.251Z</time>
			</trkpt>
			<trkpt lat="48.49711" lon="15.56225">
				<ele>462.91</ele>
				<time>2025-07-29T06:02:29.940Z</time>
			</trkpt>
			<trkpt lat="48.49699" lon="15.56318">
				<ele>459.87</ele>
				<time>2025-07-29T06:02:34.961Z</time>
			</trkpt>
			<trkpt lat="48.49686" lon="15.56389">
				<ele>456.7</ele>
				<time>2025-07-29T06:02:38.841Z</time>
			</trkpt>
			<trkpt lat="48.49678" lon="15.56425">
				<ele>453.98</ele>
				<time>2025-07-29T06:02:40.834Z</time>
			</trkpt>
			<trkpt lat="48.49654" lon="15.56507">
				<ele>453</ele>
				<time>2025-07-29T06:02:45.516Z</time>
			</trkpt>
			<trkpt lat="48.49637" lon="15.5655">
				<ele>447.83</ele>
				<time>2025-07-29T06:02:48.118Z</time>
			</trkpt>
			<trkpt lat="48.49616" lon="15.56596">
				<ele>440.89</ele>
				<time>2025-07-29T06:02:51.010Z</time>
			</trkpt>
			<trkpt lat="48.4954" lon="15.56748">
				<ele>444.72</ele>
				<time>2025-07-29T06:03:00.783Z</time>
			</trkpt>
			<trkpt lat="48.49512" lon="15.56808">
				<ele>442.88</ele>
				<time>2025-07-29T06:03:04.515Z</time>
			</trkpt>
			<trkpt lat="48.49485" lon="15.56869">
				<ele>440.78</ele>
				<time>2025-07-29T06:03:08.226Z</time>
			</trkpt>
			<trkpt lat="48.49115" lon="15.5776">
				<ele>423.19</ele>
				<time>2025-07-29T06:03:59.367Z</time>
			</trkpt>
			<trkpt lat="48.49083" lon="15.57829">
				<ele>423.35</ele>
				<time>2025-07-29T06:04:03.304Z</time>
			</trkpt>
			<trkpt lat="48.49051" lon="15.57889">
				<ele>424</ele>
				<time>2025-07-29T06:04:06.884Z</time>
			</trkpt>
			<trkpt lat="48.49036" lon="15.57913">
				<ele>424.52</ele>
				<time>2025-07-29T06:04:08.412Z</time>
			</trkpt>
			<trkpt lat="48.49005" lon="15.57956">
				<ele>425.34</ele>
				<time>2025-07-29T06:04:11.344Z</time>
			</trkpt>
			<trkpt lat="48.48968" lon="15.58">
				<ele>425.43</ele>
				<time>2025-07-29T06:04:14.610Z</time>
			</trkpt>
			<trkpt lat="48.48946" lon="15.5802">
				<ele>425.59</ele>
				<time>2025-07-29T06:04:16.384Z</time>
			</trkpt>
			<trkpt lat="48.48928" lon="15.58036">
				<ele>425.48</ele>
				<time>2025-07-29T06:04:17.823Z</time>
			</trkpt>
			<trkpt lat="48.48894" lon="15.5806">
				<ele>423.49</ele>
				<time>2025-07-29T06:04:20.402Z</time>
			</trkpt>
			<trkpt lat="48.48841" lon="15.58089">
				<ele>419.7</ele>
				<time>2025-07-29T06:04:24.256Z</time>
			</trkpt>
			<trkpt lat="48.48802" lon="15.58104">
				<ele>417.54</ele>
				<time>2025-07-29T06:04:26.994Z</time>
			</trkpt>
			<trkpt lat="48.48738" lon="15.58115">
				<ele>416.26</ele>
				<time>2025-07-29T06:04:31.352Z</time>
			</trkpt>
			<trkpt lat="48.48691" lon="15.58116">
				<ele>415.59</ele>
				<time>2025-07-29T06:04:34.514Z</time>
			</trkpt>
			<trkpt lat="48.48639" lon="15.58111">
				<ele>412.05</ele>
				<time>2025-07-29T06:04:38.002Z</time>
			</trkpt>
			<trkpt lat="48.4752" lon="15.57947">
				<ele>371.25</ele>
				<time>2025-07-29T06:05:49.043Z</time>
			</trkpt>
			<trkpt lat="48.47467" lon="15.57942">
				<ele>368.91</ele>
				<time>2025-07-29T06:05:52.213Z</time>
			</trkpt>
			<trkpt lat="48.47415" lon="15.5794">
				<ele>365.42</ele>
				<time>2025-07-29T06:05:55.303Z</time>
			</trkpt>
			<trkpt lat="48.47335" lon="15.57945">
				<ele>359.11</ele>
				<time>2025-07-29T06:06:00.031Z</time>
			</trkpt>
			<trkpt lat="48.47255" lon="15.57961">
				<ele>348.56</ele>
				<time>2025-07-29T06:06:04.762Z</time>
			</trkpt>
			<trkpt lat="48.47208" lon="15.57976">
				<ele>337.45</ele>
				<time>2025-07-29T06:06:07.562Z</time>
			</trkpt>
			<trkpt lat="48.47162" lon="15.57994">
				<ele>335.82</ele>
				<time>2025-07-29T06:06:10.319Z</time>
			</trkpt>
			<trkpt lat="48.471" lon="15.58025">
				<ele>333.51</ele>
				<time>2025-07-29T06:06:14.091Z</time>
			</trkpt>
			<trkpt lat="48.47049" lon="15.58056">
				<ele>338.47</ele>
				<time>2025-07-29T06:06:17.249Z</time>
			</trkpt>
			<trkpt lat="48.47018" lon="15.58078">
				<ele>340.27</ele>
				<time>2025-07-29T06:06:19.209Z</time>
			</trkpt>
			<trkpt lat="48.46983" lon="15.58098">
				<ele>339</ele>
				<time>2025-07-29T06:06:21.343Z</time>
			</trkpt>
			<trkpt lat="48.46945" lon="15.58129">
				<ele>339.27</ele>
				<time>2025-07-29T06:06:23.799Z</time>
			</trkpt>
			<trkpt lat="48.46913" lon="15.5816">
				<ele>340</ele>
				<time>2025-07-29T06:06:25.953Z</time>
			</trkpt>
			<trkpt lat="48.46861" lon="15.58216">
				<ele>338.19</ele>
				<time>2025-07-29T06:06:29.555Z</time>
			</trkpt>
			<trkpt lat="48.46761" lon="15.58348">
				<ele>340.33</ele>
				<time>2025-07-29T06:06:36.986Z</time>
			</trkpt>
			<trkpt lat="48.46201" lon="15.59113">
				<ele>369.74</ele>
				<time>2025-07-29T06:07:17.750Z</time>
			</trkpt>
			<trkpt lat="48.45877" lon="15.59553">
				<ele>372.91</ele>
				<time>2025-07-29T06:07:40.249Z</time>
			</trkpt>
			<trkpt lat="48.45839" lon="15.59607">
				<ele>373.97</ele>
				<time>2025-07-29T06:07:42.899Z</time>
			</trkpt>
			<trkpt lat="48.45754" lon="15.59735">
				<ele>370.82</ele>
				<time>2025-07-29T06:07:48.961Z</time>
			</trkpt>
			<trkpt lat="48.45701" lon="15.59826">
				<ele>371.19</ele>
				<time>2025-07-29T06:07:52.989Z</time>
			</trkpt>
			<trkpt lat="48.45641" lon="15.59942">
				<ele>369.07</ele>
				<time>2025-07-29T06:07:57.854Z</time>
			</trkpt>
			<trkpt lat="48.45343" lon="15.60533">
				<ele>354.36</ele>
				<time>2025-07-29T06:08:21.997Z</time>
			</trkpt>
			<trkpt lat="48.45248" lon="15.6073">
				<ele>347.93</ele>
				<time>2025-07-29T06:08:29.783Z</time>
			</trkpt>
			<trkpt lat="48.4512" lon="15.60979">
				<ele>341.25</ele>
				<time>2025-07-29T06:08:39.766Z</time>
			</trkpt>
			<trkpt lat="48.44998" lon="15.61233">
				<ele>335.43</ele>
				<time>2025-07-29T06:08:49.615Z</time>
			</trkpt>
			<trkpt lat="48.44562" lon="15.62173">
				<ele>330.76</ele>
				<time>2025-07-29T06:09:25.043Z</time>
			</trkpt>
			<trkpt lat="48.44528" lon="15.62236">
				<ele>330.48</ele>
				<time>2025-07-29T06:09:27.524Z</time>
			</trkpt>
			<trkpt lat="48.44488" lon="15.62302">
				<ele>330.47</ele>
				<time>2025-07-29T06:09:30.252Z</time>
			</trkpt>
			<trkpt lat="48.44453" lon="15.62348">
				<ele>329.45</ele>
				<time>2025-07-29T06:09:32.386Z</time>
			</trkpt>
			<trkpt lat="48.44417" lon="15.62389">
				<ele>328.99</ele>
				<time>2025-07-29T06:09:34.458Z</time>
			</trkpt>
			<trkpt lat="48.44393" lon="15.62412">
				<ele>331.52</ele>
				<time>2025-07-29T06:09:35.763Z</time>
			</trkpt>
			<trkpt lat="48.44362" lon="15.62438">
				<ele>333.72</ele>
				<time>2025-07-29T06:09:37.390Z</time>
			</trkpt>
			<trkpt lat="48.44319" lon="15.62466">
				<ele>336.79</ele>
				<time>2025-07-29T06:09:39.537Z</time>
			</trkpt>
			<trkpt lat="48.44278" lon="15.6249">
				<ele>337.03</ele>
				<time>2025-07-29T06:09:41.552Z</time>
			</trkpt>
			<trkpt lat="48.44237" lon="15.62507">
				<ele>334.54</ele>
				<time>2025-07-29T06:09:43.499Z</time>
			</trkpt>
			<trkpt lat="48.44199" lon="15.62518">
				<ele>333.17</ele>
				<time>2025-07-29T06:09:45.269Z</time>
			</trkpt>
			<trkpt lat="48.44151" lon="15.62525">
				<ele>332.39</ele>
				<time>2025-07-29T06:09:47.475Z</time>
			</trkpt>
			<trkpt lat="48.44107" lon="15.62526">
				<ele>329.68</ele>
				<time>2025-07-29T06:09:49.486Z</time>
			</trkpt>
			<trkpt lat="48.44061" lon="15.62522">
				<ele>327.95</ele>
				<time>2025-07-29T06:09:51.592Z</time>
			</trkpt>
			<trkpt lat="48.44011" lon="15.6251">
				<ele>327.04</ele>
				<time>2025-07-29T06:09:53.904Z</time>
			</trkpt>
			<trkpt lat="48.43959" lon="15.6249">
				<ele>325.67</ele>
				<time>2025-07-29T06:09:56.355Z</time>
			</trkpt>
			<trkpt lat="48.43923" lon="15.62471">
				<ele>324.97</ele>
				<time>2025-07-29T06:09:58.096Z</time>
			</trkpt>
			<trkpt lat="48.43873" lon="15.62437">
				<ele>323.86</ele>
				<time>2025-07-29T06:10:00.599Z</time>
			</trkpt>
			<trkpt lat="48.43838" lon="15.6241">
				<ele>321.95</ele>
				<time>2025-07-29T06:10:02.393Z</time>
			</trkpt>
			<trkpt lat="48.43578" lon="15.6219">
				<ele>306.79</ele>
				<time>2025-07-29T06:10:15.998Z</time>
			</trkpt>
			<trkpt lat="48.4352" lon="15.62146">
				<ele>303.19</ele>
				<time>2025-07-29T06:10:18.962Z</time>
			</trkpt>
			<trkpt lat="48.43492" lon="15.62127">
				<ele>301.52</ele>
				<time>2025-07-29T06:10:20.364Z</time>
			</trkpt>
			<trkpt lat="48.43403" lon="15.62078">
				<ele>296.53</ele>
				<time>2025-07-29T06:10:24.692Z</time>
			</trkpt>
			<trkpt lat="48.42896" lon="15.61824">
				<ele>271.56</ele>
				<time>2025-07-29T06:10:49.196Z</time>
			</trkpt>
			<trkpt lat="48.42827" lon="15.61792">
				<ele>272.76</ele>
				<time>2025-07-29T06:10:52.525Z</time>
			</trkpt>
			<trkpt lat="48.42789" lon="15.61777">
				<ele>273.99</ele>
				<time>2025-07-29T06:10:54.338Z</time>
			</trkpt>
			<trkpt lat="48.42756" lon="15.6177">
				<ele>272.89</ele>
				<time>2025-07-29T06:10:55.878Z</time>
			</trkpt>
			<trkpt lat="48.42707" lon="15.61765">
				<ele>273.56</ele>
				<time>2025-07-29T06:10:58.150Z</time>
			</trkpt>
			<trkpt lat="48.42654" lon="15.61771">
				<ele>268.63</ele>
				<time>2025-07-29T06:11:00.612Z</time>
			</trkpt>
			<trkpt lat="48.42586" lon="15.61786">
				<ele>259.54</ele>
				<time>2025-07-29T06:11:03.801Z</time>
			</trkpt>
			<trkpt lat="48.42525" lon="15.61808">
				<ele>255.94</ele>
				<time>2025-07-29T06:11:06.717Z</time>
			</trkpt>
			<trkpt lat="48.42487" lon="15.61827">
				<ele>253.91</ele>
				<time>2025-07-29T06:11:08.581Z</time>
			</trkpt>
			<trkpt lat="48.42438" lon="15.61857">
				<ele>251.16</ele>
				<time>2025-07-29T06:11:11.047Z</time>
			</trkpt>
			<trkpt lat="48.42391" lon="15.61892">
				<ele>243.36</ele>
				<time>2025-07-29T06:11:13.495Z</time>
			</trkpt>
			<trkpt lat="48.42346" lon="15.61933">
				<ele>237.42</ele>
				<time>2025-07-29T06:11:15.955Z</time>
			</trkpt>
			<trkpt lat="48.42299" lon="15.61983">
				<ele>231.46</ele>
				<time>2025-07-29T06:11:18.652Z</time>
			</trkpt>
			<trkpt lat="48.42154" lon="15.62178">
				<ele>219.13</ele>
				<time>2025-07-29T06:11:27.804Z</time>
			</trkpt>
			<trkpt lat="48.42086" lon="15.62255">
				<ele>210.08</ele>
				<time>2025-07-29T06:11:31.832Z</time>
			</trkpt>
			<trkpt lat="48.42046" lon="15.62293">
				<ele>207.67</ele>
				<time>2025-07-29T06:11:34.077Z</time>
			</trkpt>
			<trkpt lat="48.41986" lon="15.62343">
				<ele>203.03</ele>
				<time>2025-07-29T06:11:37.341Z</time>
			</trkpt>
			<trkpt lat="48.41928" lon="15.62381">
				<ele>207.57</ele>
				<time>2025-07-29T06:11:40.360Z</time>
			</trkpt>
			<trkpt lat="48.4189" lon="15.62404">
				<ele>208.02</ele>
				<time>2025-07-29T06:11:42.320Z</time>
			</trkpt>
			<trkpt lat="48.41828" lon="15.62434">
				<ele>202.74</ele>
				<time>2025-07-29T06:11:45.443Z</time>
			</trkpt>
			<trkpt lat="48.41795" lon="15.62447">
				<ele>202.41</ele>
				<time>2025-07-29T06:11:47.083Z</time>
			</trkpt>
			<trkpt lat="48.41747" lon="15.62462">
				<ele>201.03</ele>
				<time>2025-07-29T06:11:49.445Z</time>
			</trkpt>
			<trkpt lat="48.41618" lon="15.62491">
				<ele>197.42</ele>
				<time>2025-07-29T06:11:55.757Z</time>
			</trkpt>
			<trkpt lat="48.4157" lon="15.62498">
				<ele>194.49</ele>
				<time>2025-07-29T06:11:58.101Z</time>
			</trkpt>
			<trkpt lat="48.41446" lon="15.6251">
				<ele>194</ele>
				<time>2025-07-29T06:12:04.170Z</time>
			</trkpt>
			<trkpt lat="48.41353" lon="15.62513">
				<ele>194.01</ele>
				<time>2025-07-29T06:12:08.740Z</time>
			</trkpt>
			<trkpt lat="48.41229" lon="15.62512">
				<ele>194.74</ele>
				<time>2025-07-29T06:12:14.871Z</time>
			</trkpt>
			<trkpt lat="48.40739" lon="15.62496">
				<ele>198.52</ele>
				<time>2025-07-29T06:12:39.564Z</time>
			</trkpt>
			<trkpt lat="48.39992" lon="15.62472">
				<ele>198.02</ele>
				<time>2025-07-29T06:13:18.856Z</time>
			</trkpt>
			<trkpt lat="48.39865" lon="15.6247">
				<ele>198.02</ele>
				<time>2025-07-29T06:13:25.760Z</time>
			</trkpt>
			<trkpt lat="48.39809" lon="15.62477">
				<ele>198.02</ele>
				<time>2025-07-29T06:13:28.837Z</time>
			</trkpt>
			<trkpt lat="48.39772" lon="15.62485">
				<ele>198.01</ele>
				<time>2025-07-29T06:13:30.892Z</time>
			</trkpt>
			<trkpt lat="48.39732" lon="15.62497">
				<ele>198.9</ele>
				<time>2025-07-29T06:13:33.141Z</time>
			</trkpt>
			<trkpt lat="48.39687" lon="15.62515">
				<ele>199.1</ele>
				<time>2025-07-29T06:13:35.718Z</time>
			</trkpt>
			<trkpt lat="48.39581" lon="15.62546">
				<ele>197.66</ele>
				<time>2025-07-29T06:13:41.733Z</time>
			</trkpt>
			<trkpt lat="48.39526" lon="15.62551">
				<ele>198.85</ele>
				<time>2025-07-29T06:13:44.824Z</time>
			</trkpt>
			<trkpt lat="48.39501" lon="15.6255">
				<ele>198.8</ele>
				<time>2025-07-29T06:13:46.231Z</time>
			</trkpt>
			<trkpt lat="48.39453" lon="15.62541">
				<ele>197</ele>
				<time>2025-07-29T06:13:48.962Z</time>
			</trkpt>
			<trkpt lat="48.39432" lon="15.62534">
				<ele>197.33</ele>
				<time>2025-07-29T06:13:50.180Z</time>
			</trkpt>
			<trkpt lat="48.39378" lon="15.6251">
				<ele>198.36</ele>
				<time>2025-07-29T06:13:53.379Z</time>
			</trkpt>
			<trkpt lat="48.39128" lon="15.62365">
				<ele>194.33</ele>
				<time>2025-07-29T06:14:08.819Z</time>
			</trkpt>
			<trkpt lat="48.39076" lon="15.62339">
				<ele>193.15</ele>
				<time>2025-07-29T06:14:12.023Z</time>
			</trkpt>
			<trkpt lat="48.39023" lon="15.62311">
				<ele>190.47</ele>
				<time>2025-07-29T06:14:15.323Z</time>
			</trkpt>
			<trkpt lat="48.38976" lon="15.62289">
				<ele>189.08</ele>
				<time>2025-07-29T06:14:18.229Z</time>
			</trkpt>
			<trkpt lat="48.38915" lon="15.62265">
				<ele>188.72</ele>
				<time>2025-07-29T06:14:21.971Z</time>
			</trkpt>
			<trkpt lat="48.38852" lon="15.62246">
				<ele>192.9</ele>
				<time>2025-07-29T06:14:25.806Z</time>
			</trkpt>
			<trkpt lat="48.38798" lon="15.62233">
				<ele>194.38</ele>
				<time>2025-07-29T06:14:29.089Z</time>
			</trkpt>
			<trkpt lat="48.38736" lon="15.62221">
				<ele>196.98</ele>
				<time>2025-07-29T06:14:32.862Z</time>
			</trkpt>
			<trkpt lat="48.38638" lon="15.62212">
				<ele>197.33</ele>
				<time>2025-07-29T06:14:38.833Z</time>
			</trkpt>
			<trkpt lat="48.38572" lon="15.62204">
				<ele>198.63</ele>
				<time>2025-07-29T06:14:42.895Z</time>
			</trkpt>
			<trkpt lat="48.38559" lon="15.622">
				<ele>198.77</ele>
				<time>2025-07-29T06:14:43.719Z</time>
			</trkpt>
			<trkpt lat="48.38553" lon="15.6219">
				<ele>198.93</ele>
				<time>2025-07-29T06:14:44.278Z</time>
			</trkpt>
			<trkpt lat="48.38542" lon="15.62188">
				<ele>199.25</ele>
				<time>2025-07-29T06:14:44.972Z</time>
			</trkpt>
			<trkpt lat="48.38535" lon="15.62194">
				<ele>199.71</ele>
				<time>2025-07-29T06:14:45.478Z</time>
			</trkpt>
			<trkpt lat="48.38532" lon="15.62201">
				<ele>199.77</ele>
				<time>2025-07-29T06:14:45.827Z</time>
			</trkpt>
			<trkpt lat="48.38466" lon="15.62215">
				<ele>204</ele>
				<time>2025-07-29T06:14:50.088Z</time>
			</trkpt>
			<trkpt lat="48.38329" lon="15.62216">
				<ele>211.25</ele>
				<time>2025-07-29T06:14:59.120Z</time>
			</trkpt>
			<trkpt lat="48.38293" lon="15.62213">
				<ele>213.53</ele>
				<time>2025-07-29T06:15:01.544Z</time>
			</trkpt>
			<trkpt lat="48.38232" lon="15.62202">
				<ele>215.93</ele>
				<time>2025-07-29T06:15:05.707Z</time>
			</trkpt>
			<trkpt lat="48.38233" lon="15.62183">
				<ele>215.21</ele>
				<time>2025-07-29T06:15:06.569Z</time>
			</trkpt>
			<trkpt lat="48.38235" lon="15.62181">
				<ele>215.05</ele>
				<time>2025-07-29T06:15:06.732Z</time>
			</trkpt>
			<trkpt lat="48.38249" lon="15.62176">
				<ele>214.36</ele>
				<time>2025-07-29T06:15:07.713Z</time>
			</trkpt>
			<trkpt lat="48.38258" lon="15.62164">
				<ele>213.54</ele>
				<time>2025-07-29T06:15:08.534Z</time>
			</trkpt>
			<trkpt lat="48.38271" lon="15.62131">
				<ele>211.72</ele>
				<time>2025-07-29T06:15:10.276Z</time>
			</trkpt>
			<trkpt lat="48.38276" lon="15.62105">
				<ele>210.79</ele>
				<time>2025-07-29T06:15:11.506Z</time>
			</trkpt>
			<trkpt lat="48.38275" lon="15.62077">
				<ele>210.07</ele>
				<time>2025-07-29T06:15:12.782Z</time>
			</trkpt>
			<trkpt lat="48.38272" lon="15.6204">
				<ele>209.67</ele>
				<time>2025-07-29T06:15:14.479Z</time>
			</trkpt>
			<trkpt lat="48.38261" lon="15.61952">
				<ele>206.59</ele>
				<time>2025-07-29T06:15:18.553Z</time>
			</trkpt>
			<trkpt lat="48.38232" lon="15.61759">
				<ele>207.49</ele>
				<time>2025-07-29T06:15:27.503Z</time>
			</trkpt>
			<trkpt lat="48.38214" lon="15.61778">
				<ele>209.26</ele>
				<time>2025-07-29T06:15:28.986Z</time>
			</trkpt>
			<trkpt lat="48.38157" lon="15.61878">
				<ele>210.33</ele>
				<time>2025-07-29T06:15:34.828Z</time>
			</trkpt>
			<trkpt lat="48.38137" lon="15.61909">
				<ele>211.1</ele>
				<time>2025-07-29T06:15:36.717Z</time>
			</trkpt>
			<trkpt lat="48.38101" lon="15.61949">
				<ele>214.55</ele>
				<time>2025-07-29T06:15:39.632Z</time>
			</trkpt>
			<trkpt lat="48.38043" lon="15.62053">
				<ele>218.63</ele>
				<time>2025-07-29T06:15:45.375Z</time>
			</trkpt>
			<trkpt lat="48.38023" lon="15.62095">
				<ele>225.87</ele>
				<time>2025-07-29T06:15:47.508Z</time>
			</trkpt>
			<trkpt lat="48.38012" lon="15.62127">
				<ele>229.95</ele>
				<time>2025-07-29T06:15:48.975Z</time>
			</trkpt>
			<trkpt lat="48.37996" lon="15.62182">
				<ele>234.78</ele>
				<time>2025-07-29T06:15:51.382Z</time>
			</trkpt>
			<trkpt lat="48.37985" lon="15.62254">
				<ele>242.02</ele>
				<time>2025-07-29T06:15:54.275Z</time>
			</trkpt>
			<trkpt lat="48.37977" lon="15.6226">
				<ele>244.3</ele>
				<time>2025-07-29T06:15:54.793Z</time>
			</trkpt>
			<trkpt lat="48.37972" lon="15.6226">
				<ele>245.6</ele>
				<time>2025-07-29T06:15:55.082Z</time>
			</trkpt>
			<trkpt lat="48.37968" lon="15.62257">
				<ele>246.5</ele>
				<time>2025-07-29T06:15:55.339Z</time>
			</trkpt>
			<trkpt lat="48.37965" lon="15.62249">
				<ele>246.86</ele>
				<time>2025-07-29T06:15:55.689Z</time>
			</trkpt>
			<trkpt lat="48.37966" lon="15.62218">
				<ele>244.12</ele>
				<time>2025-07-29T06:15:56.862Z</time>
			</trkpt>
			<trkpt lat="48.37966" lon="15.62203">
				<ele>243.42</ele>
				<time>2025-07-29T06:15:57.423Z</time>
			</trkpt>
			<trkpt lat="48.37962" lon="15.62188">
				<ele>242.78</ele>
				<time>2025-07-29T06:15:58.005Z</time>
			</trkpt>
			<trkpt lat="48.37956" lon="15.62175">
				<ele>242.18</ele>
				<time>2025-07-29T06:15:58.514Z</time>
			</trkpt>
			<trkpt lat="48.37949" lon="15.62165">
				<ele>242.09</ele>
				<time>2025-07-29T06:15:58.931Z</time>
			</trkpt>
			<trkpt lat="48.37943" lon="15.62159">
				<ele>242.55</ele>
				<time>2025-07-29T06:15:59.214Z</time>
			</trkpt>
			<trkpt lat="48.37936" lon="15.62158">
				<ele>243.99</ele>
				<time>2025-07-29T06:15:59.470Z</time>
			</trkpt>
			<trkpt lat="48.37929" lon="15.62166">
				<ele>246.62</ele>
				<time>2025-07-29T06:15:59.763Z</time>
			</trkpt>
			<trkpt lat="48.37928" lon="15.62172">
				<ele>247.92</ele>
				<time>2025-07-29T06:15:59.891Z</time>
			</trkpt>
			<trkpt lat="48.37933" lon="15.62209">
				<ele>251.82</ele>
				<time>2025-07-29T06:16:00.567Z</time>
			</trkpt>
			<trkpt lat="48.37936" lon="15.62237">
				<ele>254.47</ele>
				<time>2025-07-29T06:16:00.992Z</time>
			</trkpt>
			<trkpt lat="48.37938" lon="15.62284">
				<ele>257.26</ele>
				<time>2025-07-29T06:16:01.642Z</time>
			</trkpt>
			<trkpt lat="48.37934" lon="15.62375">
				<ele>265.27</ele>
				<time>2025-07-29T06:16:03.226Z</time>
			</trkpt>
			<trkpt lat="48.37939" lon="15.6245">
				<ele>266.34</ele>
				<time>2025-07-29T06:16:05.533Z</time>
			</trkpt>
			<trkpt lat="48.37937" lon="15.62509">
				<ele>269.79</ele>
				<time>2025-07-29T06:16:08.420Z</time>
			</trkpt>
			<trkpt lat="48.37947" lon="15.62595">
				<ele>271.66</ele>
				<time>2025-07-29T06:16:18.723Z</time>
			</trkpt>
			<trkpt lat="48.37954" lon="15.62679">
				<ele>270.53</ele>
				<time>2025-07-29T06:17:10.230Z</time>
			</trkpt>
			<trkpt lat="48.37958" lon="15.62757">
				<ele>271.9</ele>
				<time>2025-07-29T06:17:27.858Z</time>
			</trkpt>
			<trkpt lat="48.37959" lon="15.62812">
				<ele>270.98</ele>
				<time>2025-07-29T06:17:36.465Z</time>
			</trkpt>
			<trkpt lat="48.37959" lon="15.62881">
				<ele>271.05</ele>
				<time>2025-07-29T06:17:44.102Z</time>
			</trkpt>
			<trkpt lat="48.37956" lon="15.62946">
				<ele>270.43</ele>
				<time>2025-07-29T06:17:49.302Z</time>
			</trkpt>
			<trkpt lat="48.37949" lon="15.63032">
				<ele>272.67</ele>
				<time>2025-07-29T06:17:55.320Z</time>
			</trkpt>
			<trkpt lat="48.37943" lon="15.63077">
				<ele>274.74</ele>
				<time>2025-07-29T06:17:58.963Z</time>
			</trkpt>
			<trkpt lat="48.37936" lon="15.63105">
				<ele>276.08</ele>
				<time>2025-07-29T06:18:01.475Z</time>
			</trkpt>
			<trkpt lat="48.37928" lon="15.63123">
				<ele>276.58</ele>
				<time>2025-07-29T06:18:03.274Z</time>
			</trkpt>
			<trkpt lat="48.37908" lon="15.63154">
				<ele>278.27</ele>
				<time>2025-07-29T06:18:06.818Z</time>
			</trkpt>
			<trkpt lat="48.37877" lon="15.63187">
				<ele>280.17</ele>
				<time>2025-07-29T06:18:11.410Z</time>
			</trkpt>
			<trkpt lat="48.3784" lon="15.63222">
				<ele>280.99</ele>
				<time>2025-07-29T06:18:16.564Z</time>
			</trkpt>
			<trkpt lat="48.37832" lon="15.63228">
				<ele>281.24</ele>
				<time>2025-07-29T06:18:17.601Z</time>
			</trkpt>
			<trkpt lat="48.37821" lon="15.6323">
				<ele>281.4</ele>
				<time>2025-07-29T06:18:18.879Z</time>
			</trkpt>
			<trkpt lat="48.37761" lon="15.63223">
				<ele>283.83</ele>
				<time>2025-07-29T06:18:25.670Z</time>
			</trkpt>
			<trkpt lat="48.37744" lon="15.63224">
				<ele>285.85</ele>
				<time>2025-07-29T06:18:27.544Z</time>
			</trkpt>
			<trkpt lat="48.37641" lon="15.63264">
				<ele>295.68</ele>
				<time>2025-07-29T06:18:38.825Z</time>
			</trkpt>
			<trkpt lat="48.37559" lon="15.63258">
				<ele>302.57</ele>
				<time>2025-07-29T06:18:47.036Z</time>
			</trkpt>
			<trkpt lat="48.37492" lon="15.63255">
				<ele>307.12</ele>
				<time>2025-07-29T06:18:53.438Z</time>
			</trkpt>
			<trkpt lat="48.37441" lon="15.63249">
				<ele>310.09</ele>
				<time>2025-07-29T06:18:58.148Z</time>
			</trkpt>
			<trkpt lat="48.37426" lon="15.6325">
				<ele>310.65</ele>
				<time>2025-07-29T06:18:59.503Z</time>
			</trkpt>
			<trkpt lat="48.37414" lon="15.63254">
				<ele>311.16</ele>
				<time>2025-07-29T06:19:00.602Z</time>
			</trkpt>
			<trkpt lat="48.374" lon="15.63264">
				<ele>311.87</ele>
				<time>2025-07-29T06:19:01.977Z</time>
			</trkpt>
			<trkpt lat="48.37366" lon="15.63292">
				<ele>312.98</ele>
				<time>2025-07-29T06:19:05.358Z</time>
			</trkpt>
			<trkpt lat="48.37349" lon="15.63302">
				<ele>313.46</ele>
				<time>2025-07-29T06:19:06.923Z</time>
			</trkpt>
			<trkpt lat="48.37268" lon="15.6334">
				<ele>314.43</ele>
				<time>2025-07-29T06:19:13.976Z</time>
			</trkpt>
			<trkpt lat="48.37225" lon="15.63367">
				<ele>316</ele>
				<time>2025-07-29T06:19:17.699Z</time>
			</trkpt>
			<trkpt lat="48.37173" lon="15.63388">
				<ele>314.23</ele>
				<time>2025-07-29T06:19:21.876Z</time>
			</trkpt>
			<trkpt lat="48.37114" lon="15.63405">
				<ele>314.58</ele>
				<time>2025-07-29T06:19:26.385Z</time>
			</trkpt>
			<trkpt lat="48.37054" lon="15.63413">
				<ele>314</ele>
				<time>2025-07-29T06:19:30.754Z</time>
			</trkpt>
			<trkpt lat="48.36995" lon="15.63431">
				<ele>312.84</ele>
				<time>2025-07-29T06:19:34.976Z</time>
			</trkpt>
			<trkpt lat="48.36962" lon="15.63448">
				<ele>311.03</ele>
				<time>2025-07-29T06:19:37.361Z</time>
			</trkpt>
			<trkpt lat="48.36922" lon="15.63481">
				<ele>310.14</ele>
				<time>2025-07-29T06:19:40.413Z</time>
			</trkpt>
			<trkpt lat="48.36907" lon="15.6349">
				<ele>309.44</ele>
				<time>2025-07-29T06:19:41.477Z</time>
			</trkpt>
			<trkpt lat="48.36842" lon="15.63524">
				<ele>308.59</ele>
				<time>2025-07-29T06:19:45.914Z</time>
			</trkpt>
			<trkpt lat="48.36804" lon="15.63531">
				<ele>309.87</ele>
				<time>2025-07-29T06:19:48.318Z</time>
			</trkpt>
			<trkpt lat="48.36764" lon="15.63556">
				<ele>309.55</ele>
				<time>2025-07-29T06:19:50.987Z</time>
			</trkpt>
			<trkpt lat="48.36742" lon="15.63579">
				<ele>307.65</ele>
				<time>2025-07-29T06:19:52.612Z</time>
			</trkpt>
			<trkpt lat="48.36716" lon="15.63622">
				<ele>308.75</ele>
				<time>2025-07-29T06:19:54.922Z</time>
			</trkpt>
			<trkpt lat="48.36708" lon="15.63646">
				<ele>310.42</ele>
				<time>2025-07-29T06:19:55.976Z</time>
			</trkpt>
			<trkpt lat="48.36696" lon="15.6369">
				<ele>311.65</ele>
				<time>2025-07-29T06:19:57.824Z</time>
			</trkpt>
			<trkpt lat="48.36675" lon="15.63752">
				<ele>312.24</ele>
				<time>2025-07-29T06:20:00.488Z</time>
			</trkpt>
			<trkpt lat="48.36645" lon="15.63815">
				<ele>315.63</ele>
				<time>2025-07-29T06:20:03.403Z</time>
			</trkpt>
			<trkpt lat="48.36614" lon="15.63865">
				<ele>320.32</ele>
				<time>2025-07-29T06:20:05.932Z</time>
			</trkpt>
			<trkpt lat="48.36597" lon="15.63887">
				<ele>321.57</ele>
				<time>2025-07-29T06:20:07.167Z</time>
			</trkpt>
			<trkpt lat="48.36578" lon="15.6391">
				<ele>322.34</ele>
				<time>2025-07-29T06:20:08.501Z</time>
			</trkpt>
			<trkpt lat="48.36556" lon="15.6393">
				<ele>322.42</ele>
				<time>2025-07-29T06:20:09.897Z</time>
			</trkpt>
			<trkpt lat="48.36531" lon="15.63941">
				<ele>321.38</ele>
				<time>2025-07-29T06:20:11.302Z</time>
			</trkpt>
			<trkpt lat="48.36488" lon="15.63949">
				<ele>317.79</ele>
				<time>2025-07-29T06:20:13.620Z</time>
			</trkpt>
			<trkpt lat="48.36459" lon="15.63957">
				<ele>316.29</ele>
				<time>2025-07-29T06:20:15.184Z</time>
			</trkpt>
			<trkpt lat="48.36433" lon="15.63961">
				<ele>316.38</ele>
				<time>2025-07-29T06:20:16.564Z</time>
			</trkpt>
			<trkpt lat="48.36374" lon="15.63961">
				<ele>317.1</ele>
				<time>2025-07-29T06:20:19.655Z</time>
			</trkpt>
			<trkpt lat="48.36363" lon="15.63964">
				<ele>317.2</ele>
				<time>2025-07-29T06:20:20.238Z</time>
			</trkpt>
			<trkpt lat="48.36326" lon="15.63988">
				<ele>317.04</ele>
				<time>2025-07-29T06:20:22.332Z</time>
			</trkpt>
			<trkpt lat="48.36301" lon="15.63998">
				<ele>315.69</ele>
				<time>2025-07-29T06:20:23.672Z</time>
			</trkpt>
			<trkpt lat="48.36284" lon="15.64001">
				<ele>314.42</ele>
				<time>2025-07-29T06:20:24.558Z</time>
			</trkpt>
			<trkpt lat="48.3625" lon="15.64002">
				<ele>312.94</ele>
				<time>2025-07-29T06:20:26.314Z</time>
			</trkpt>
			<trkpt lat="48.36228" lon="15.64005">
				<ele>311.84</ele>
				<time>2025-07-29T06:20:27.453Z</time>
			</trkpt>
			<trkpt lat="48.36156" lon="15.64024">
				<ele>307.97</ele>
				<time>2025-07-29T06:20:31.223Z</time>
			</trkpt>
			<trkpt lat="48.36124" lon="15.64024">
				<ele>307.19</ele>
				<time>2025-07-29T06:20:32.876Z</time>
			</trkpt>
			<trkpt lat="48.36095" lon="15.64018">
				<ele>305.64</ele>
				<time>2025-07-29T06:20:34.390Z</time>
			</trkpt>
			<trkpt lat="48.36045" lon="15.63982">
				<ele>300.23</ele>
				<time>2025-07-29T06:20:37.269Z</time>
			</trkpt>
			<trkpt lat="48.36036" lon="15.63978">
				<ele>298.61</ele>
				<time>2025-07-29T06:20:37.758Z</time>
			</trkpt>
			<trkpt lat="48.36017" lon="15.63982">
				<ele>295.86</ele>
				<time>2025-07-29T06:20:38.760Z</time>
			</trkpt>
			<trkpt lat="48.36007" lon="15.63932">
				<ele>295.38</ele>
				<time>2025-07-29T06:20:40.579Z</time>
			</trkpt>
			<trkpt lat="48.35997" lon="15.63866">
				<ele>296.7</ele>
				<time>2025-07-29T06:20:42.955Z</time>
			</trkpt>
			<trkpt lat="48.35992" lon="15.63849">
				<ele>297.03</ele>
				<time>2025-07-29T06:20:43.611Z</time>
			</trkpt>
			<trkpt lat="48.35977" lon="15.63809">
				<ele>297.23</ele>
				<time>2025-07-29T06:20:45.239Z</time>
			</trkpt>
			<trkpt lat="48.35971" lon="15.63798">
				<ele>296.88</ele>
				<time>2025-07-29T06:20:45.746Z</time>
			</trkpt>
			<trkpt lat="48.35955" lon="15.63786">
				<ele>295.14</ele>
				<time>2025-07-29T06:20:46.707Z</time>
			</trkpt>
			<trkpt lat="48.3592" lon="15.63772">
				<ele>290.37</ele>
				<time>2025-07-29T06:20:48.668Z</time>
			</trkpt>
			<trkpt lat="48.35907" lon="15.63764">
				<ele>289.36</ele>
				<time>2025-07-29T06:20:49.434Z</time>
			</trkpt>
			<trkpt lat="48.35883" lon="15.63743">
				<ele>289</ele>
				<time>2025-07-29T06:20:50.957Z</time>
			</trkpt>
			<trkpt lat="48.35853" lon="15.63704">
				<ele>288.7</ele>
				<time>2025-07-29T06:20:53.154Z</time>
			</trkpt>
			<trkpt lat="48.35813" lon="15.63635">
				<ele>286.81</ele>
				<time>2025-07-29T06:20:56.583Z</time>
			</trkpt>
			<trkpt lat="48.35801" lon="15.63616">
				<ele>284.92</ele>
				<time>2025-07-29T06:20:57.578Z</time>
			</trkpt>
			<trkpt lat="48.35777" lon="15.63583">
				<ele>281.95</ele>
				<time>2025-07-29T06:20:59.454Z</time>
			</trkpt>
			<trkpt lat="48.35761" lon="15.63564">
				<ele>280.79</ele>
				<time>2025-07-29T06:21:00.641Z</time>
			</trkpt>
			<trkpt lat="48.35742" lon="15.63546">
				<ele>279.2</ele>
				<time>2025-07-29T06:21:01.961Z</time>
			</trkpt>
			<trkpt lat="48.35712" lon="15.63523">
				<ele>278</ele>
				<time>2025-07-29T06:21:03.963Z</time>
			</trkpt>
			<trkpt lat="48.35698" lon="15.63513">
				<ele>278</ele>
				<time>2025-07-29T06:21:04.895Z</time>
			</trkpt>
			<trkpt lat="48.35688" lon="15.63502">
				<ele>277.54</ele>
				<time>2025-07-29T06:21:05.644Z</time>
			</trkpt>
			<trkpt lat="48.35681" lon="15.63488">
				<ele>277.06</ele>
				<time>2025-07-29T06:21:06.352Z</time>
			</trkpt>
			<trkpt lat="48.3567" lon="15.63452">
				<ele>276.19</ele>
				<time>2025-07-29T06:21:07.966Z</time>
			</trkpt>
			<trkpt lat="48.35662" lon="15.63398">
				<ele>275.72</ele>
				<time>2025-07-29T06:21:10.253Z</time>
			</trkpt>
			<trkpt lat="48.35648" lon="15.63417">
				<ele>274.68</ele>
				<time>2025-07-29T06:21:11.441Z</time>
			</trkpt>
			<trkpt lat="48.35641" lon="15.63431">
				<ele>274.17</ele>
				<time>2025-07-29T06:21:12.180Z</time>
			</trkpt>
			<trkpt lat="48.35637" lon="15.63445">
				<ele>273.7</ele>
				<time>2025-07-29T06:21:12.827Z</time>
			</trkpt>
			<trkpt lat="48.35632" lon="15.63473">
				<ele>272.06</ele>
				<time>2025-07-29T06:21:14.066Z</time>
			</trkpt>
			<trkpt lat="48.35628" lon="15.6354">
				<ele>270.84</ele>
				<time>2025-07-29T06:21:16.986Z</time>
			</trkpt>
			<trkpt lat="48.35617" lon="15.63598">
				<ele>267.65</ele>
				<time>2025-07-29T06:21:19.662Z</time>
			</trkpt>
			<trkpt lat="48.35602" lon="15.63659">
				<ele>268.06</ele>
				<time>2025-07-29T06:21:22.613Z</time>
			</trkpt>
			<trkpt lat="48.35595" lon="15.63676">
				<ele>268.07</ele>
				<time>2025-07-29T06:21:23.534Z</time>
			</trkpt>
			<trkpt lat="48.3557" lon="15.63718">
				<ele>267.47</ele>
				<time>2025-07-29T06:21:26.166Z</time>
			</trkpt>
			<trkpt lat="48.35564" lon="15.63731">
				<ele>267.54</ele>
				<time>2025-07-29T06:21:26.915Z</time>
			</trkpt>
			<trkpt lat="48.3549" lon="15.63732">
				<ele>267.24</ele>
				<time>2025-07-29T06:21:32.311Z</time>
			</trkpt>
			<trkpt lat="48.35466" lon="15.63749">
				<ele>266.59</ele>
				<time>2025-07-29T06:21:34.301Z</time>
			</trkpt>
			<trkpt lat="48.35008" lon="15.63805">
				<ele>293.73</ele>
				<time>2025-07-29T06:22:14.288Z</time>
			</trkpt>
			<trkpt lat="48.34816" lon="15.63799">
				<ele>309.88</ele>
				<time>2025-07-29T06:22:34.031Z</time>
			</trkpt>
			<trkpt lat="48.34801" lon="15.63809">
				<ele>311.91</ele>
				<time>2025-07-29T06:22:35.780Z</time>
			</trkpt>
			<trkpt lat="48.34744" lon="15.63877">
				<ele>319.91</ele>
				<time>2025-07-29T06:22:43.630Z</time>
			</trkpt>
			<trkpt lat="48.34694" lon="15.6392">
				<ele>323.85</ele>
				<time>2025-07-29T06:22:49.947Z</time>
			</trkpt>
			<trkpt lat="48.34627" lon="15.63752">
				<ele>323.4</ele>
				<time>2025-07-29T06:23:05.127Z</time>
			</trkpt>
			<trkpt lat="48.34611" lon="15.63718">
				<ele>322.76</ele>
				<time>2025-07-29T06:23:08.496Z</time>
			</trkpt>
			<trkpt lat="48.34593" lon="15.63686">
				<ele>322.93</ele>
				<time>2025-07-29T06:23:11.916Z</time>
			</trkpt>
			<trkpt lat="48.34576" lon="15.63649">
				<ele>324.08</ele>
				<time>2025-07-29T06:23:15.608Z</time>
			</trkpt>
			<trkpt lat="48.34517" lon="15.63503">
				<ele>326.08</ele>
				<time>2025-07-29T06:23:30.176Z</time>
			</trkpt>
			<trkpt lat="48.34452" lon="15.63359">
				<ele>325.72</ele>
				<time>2025-07-29T06:23:46.342Z</time>
			</trkpt>
			<trkpt lat="48.34417" lon="15.63296">
				<ele>322.17</ele>
				<time>2025-07-29T06:23:54.270Z</time>
			</trkpt>
			<trkpt lat="48.34399" lon="15.63272">
				<ele>320.24</ele>
				<time>2025-07-29T06:23:57.801Z</time>
			</trkpt>
			<trkpt lat="48.34382" lon="15.63258">
				<ele>317.78</ele>
				<time>2025-07-29T06:24:00.656Z</time>
			</trkpt>
			<trkpt lat="48.34365" lon="15.63247">
				<ele>314.65</ele>
				<time>2025-07-29T06:24:03.389Z</time>
			</trkpt>
			<trkpt lat="48.34328" lon="15.63229">
				<ele>309.98</ele>
				<time>2025-07-29T06:24:09.138Z</time>
			</trkpt>
			<trkpt lat="48.34274" lon="15.63207">
				<ele>304.23</ele>
				<time>2025-07-29T06:24:17.386Z</time>
			</trkpt>
			<trkpt lat="48.34237" lon="15.63196">
				<ele>301.6</ele>
				<time>2025-07-29T06:24:22.899Z</time>
			</trkpt>
			<trkpt lat="48.34218" lon="15.63195">
				<ele>300.75</ele>
				<time>2025-07-29T06:24:25.656Z</time>
			</trkpt>
			<trkpt lat="48.34199" lon="15.63198">
				<ele>299.37</ele>
				<time>2025-07-29T06:24:28.406Z</time>
			</trkpt>
			<trkpt lat="48.34136" lon="15.63218">
				<ele>293</ele>
				<time>2025-07-29T06:24:37.499Z</time>
			</trkpt>
			<trkpt lat="48.34061" lon="15.63254">
				<ele>288.62</ele>
				<time>2025-07-29T06:24:48.118Z</time>
			</trkpt>
			<trkpt lat="48.34025" lon="15.63265">
				<ele>286.83</ele>
				<time>2025-07-29T06:24:52.834Z</time>
			</trkpt>
			<trkpt lat="48.34011" lon="15.63266">
				<ele>285.84</ele>
				<time>2025-07-29T06:24:54.587Z</time>
			</trkpt>
			<trkpt lat="48.33937" lon="15.63262">
				<ele>280.2</ele>
				<time>2025-07-29T06:25:03.368Z</time>
			</trkpt>
			<trkpt lat="48.33885" lon="15.63257">
				<ele>278.06</ele>
				<time>2025-07-29T06:25:09.001Z</time>
			</trkpt>
			<trkpt lat="48.33841" lon="15.63251">
				<ele>275.32</ele>
				<time>2025-07-29T06:25:13.374Z</time>
			</trkpt>
			<trkpt lat="48.3382" lon="15.63244">
				<ele>275.37</ele>
				<time>2025-07-29T06:25:15.358Z</time>
			</trkpt>
			<trkpt lat="48.33802" lon="15.63232">
				<ele>275.33</ele>
				<time>2025-07-29T06:25:17.086Z</time>
			</trkpt>
			<trkpt lat="48.33684" lon="15.63101">
				<ele>268.62</ele>
				<time>2025-07-29T06:25:28.943Z</time>
			</trkpt>
			<trkpt lat="48.33676" lon="15.63087">
				<ele>268.36</ele>
				<time>2025-07-29T06:25:29.887Z</time>
			</trkpt>
			<trkpt lat="48.3367" lon="15.63068">
				<ele>267.69</ele>
				<time>2025-07-29T06:25:30.952Z</time>
			</trkpt>
			<trkpt lat="48.3365" lon="15.62959">
				<ele>267.77</ele>
				<time>2025-07-29T06:25:36.528Z</time>
			</trkpt>
			<trkpt lat="48.33643" lon="15.62934">
				<ele>268.36</ele>
				<time>2025-07-29T06:25:37.827Z</time>
			</trkpt>
			<trkpt lat="48.33634" lon="15.62914">
				<ele>268.57</ele>
				<time>2025-07-29T06:25:38.973Z</time>
			</trkpt>
			<trkpt lat="48.33574" lon="15.62859">
				<ele>263.24</ele>
				<time>2025-07-29T06:25:43.858Z</time>
			</trkpt>
			<trkpt lat="48.33561" lon="15.62845">
				<ele>262.8</ele>
				<time>2025-07-29T06:25:44.942Z</time>
			</trkpt>
			<trkpt lat="48.33508" lon="15.62776">
				<ele>262.94</ele>
				<time>2025-07-29T06:25:49.576Z</time>
			</trkpt>
			<trkpt lat="48.33499" lon="15.6277">
				<ele>262.69</ele>
				<time>2025-07-29T06:25:50.213Z</time>
			</trkpt>
			<trkpt lat="48.33487" lon="15.62765">
				<ele>261.66</ele>
				<time>2025-07-29T06:25:51.013Z</time>
			</trkpt>
			<trkpt lat="48.33431" lon="15.62748">
				<ele>261.85</ele>
				<time>2025-07-29T06:25:54.613Z</time>
			</trkpt>
			<trkpt lat="48.33372" lon="15.62718">
				<ele>263.78</ele>
				<time>2025-07-29T06:25:58.416Z</time>
			</trkpt>
			<trkpt lat="48.33348" lon="15.62702">
				<ele>264.09</ele>
				<time>2025-07-29T06:25:59.982Z</time>
			</trkpt>
			<trkpt lat="48.33303" lon="15.62647">
				<ele>261.61</ele>
				<time>2025-07-29T06:26:03.371Z</time>
			</trkpt>
			<trkpt lat="48.33288" lon="15.62632">
				<ele>260.69</ele>
				<time>2025-07-29T06:26:04.405Z</time>
			</trkpt>
			<trkpt lat="48.33265" lon="15.62616">
				<ele>262.29</ele>
				<time>2025-07-29T06:26:05.845Z</time>
			</trkpt>
			<trkpt lat="48.33253" lon="15.62605">
				<ele>262.98</ele>
				<time>2025-07-29T06:26:06.637Z</time>
			</trkpt>
			<trkpt lat="48.33241" lon="15.62584">
				<ele>261.71</ele>
				<time>2025-07-29T06:26:07.666Z</time>
			</trkpt>
			<trkpt lat="48.33228" lon="15.62544">
				<ele>260.13</ele>
				<time>2025-07-29T06:26:09.305Z</time>
			</trkpt>
			<trkpt lat="48.33222" lon="15.62534">
				<ele>260</ele>
				<time>2025-07-29T06:26:09.796Z</time>
			</trkpt>
			<trkpt lat="48.33215" lon="15.62528">
				<ele>260</ele>
				<time>2025-07-29T06:26:10.237Z</time>
			</trkpt>
			<trkpt lat="48.33207" lon="15.62527">
				<ele>260</ele>
				<time>2025-07-29T06:26:10.675Z</time>
			</trkpt>
			<trkpt lat="48.33165" lon="15.62538">
				<ele>259.44</ele>
				<time>2025-07-29T06:26:12.976Z</time>
			</trkpt>
			<trkpt lat="48.33159" lon="15.62531">
				<ele>259.63</ele>
				<time>2025-07-29T06:26:13.382Z</time>
			</trkpt>
			<trkpt lat="48.3315" lon="15.62511">
				<ele>261.07</ele>
				<time>2025-07-29T06:26:14.237Z</time>
			</trkpt>
			<trkpt lat="48.33136" lon="15.62461">
				<ele>266.93</ele>
				<time>2025-07-29T06:26:16.140Z</time>
			</trkpt>
			<trkpt lat="48.33135" lon="15.62449">
				<ele>267.92</ele>
				<time>2025-07-29T06:26:16.561Z</time>
			</trkpt>
			<trkpt lat="48.33086" lon="15.62491">
				<ele>267.56</ele>
				<time>2025-07-29T06:26:19.483Z</time>
			</trkpt>
			<trkpt lat="48.33062" lon="15.62509">
				<ele>267.42</ele>
				<time>2025-07-29T06:26:20.855Z</time>
			</trkpt>
			<trkpt lat="48.33021" lon="15.62537">
				<ele>267.28</ele>
				<time>2025-07-29T06:26:23.136Z</time>
			</trkpt>
			<trkpt lat="48.3299" lon="15.62557">
				<ele>266.52</ele>
				<time>2025-07-29T06:26:24.829Z</time>
			</trkpt>
			<trkpt lat="48.32964" lon="15.6257">
				<ele>266.49</ele>
				<time>2025-07-29T06:26:26.195Z</time>
			</trkpt>
			<trkpt lat="48.32915" lon="15.62588">
				<ele>268.52</ele>
				<time>2025-07-29T06:26:28.691Z</time>
			</trkpt>
			<trkpt lat="48.32885" lon="15.62595">
				<ele>269.72</ele>
				<time>2025-07-29T06:26:30.184Z</time>
			</trkpt>
			<trkpt lat="48.32819" lon="15.62603">
				<ele>270.89</ele>
				<time>2025-07-29T06:26:33.421Z</time>
			</trkpt>
			<trkpt lat="48.32789" lon="15.62609">
				<ele>269.14</ele>
				<time>2025-07-29T06:26:34.894Z</time>
			</trkpt>
			<trkpt lat="48.32767" lon="15.62619">
				<ele>266.87</ele>
				<time>2025-07-29T06:26:36.011Z</time>
			</trkpt>
			<trkpt lat="48.32747" lon="15.6263">
				<ele>265.73</ele>
				<time>2025-07-29T06:26:37.046Z</time>
			</trkpt>
			<trkpt lat="48.32724" lon="15.62649">
				<ele>265.2</ele>
				<time>2025-07-29T06:26:38.320Z</time>
			</trkpt>
			<trkpt lat="48.32681" lon="15.62694">
				<ele>264.47</ele>
				<time>2025-07-29T06:26:40.866Z</time>
			</trkpt>
			<trkpt lat="48.32639" lon="15.62742">
				<ele>269.96</ele>
				<time>2025-07-29T06:26:43.436Z</time>
			</trkpt>
			<trkpt lat="48.32557" lon="15.62838">
				<ele>271.04</ele>
				<time>2025-07-29T06:26:48.543Z</time>
			</trkpt>
			<trkpt lat="48.32494" lon="15.62914">
				<ele>270.35</ele>
				<time>2025-07-29T06:26:52.576Z</time>
			</trkpt>
			<trkpt lat="48.32478" lon="15.62939">
				<ele>270.24</ele>
				<time>2025-07-29T06:26:53.742Z</time>
			</trkpt>
			<trkpt lat="48.32463" lon="15.62965">
				<ele>271.51</ele>
				<time>2025-07-29T06:26:54.905Z</time>
			</trkpt>
			<trkpt lat="48.32429" lon="15.63043">
				<ele>273.26</ele>
				<time>2025-07-29T06:26:58.096Z</time>
			</trkpt>
			<trkpt lat="48.32412" lon="15.63086">
				<ele>272.01</ele>
				<time>2025-07-29T06:26:59.833Z</time>
			</trkpt>
			<trkpt lat="48.32381" lon="15.63188">
				<ele>266.78</ele>
				<time>2025-07-29T06:27:03.801Z</time>
			</trkpt>
			<trkpt lat="48.3236" lon="15.63247">
				<ele>269.71</ele>
				<time>2025-07-29T06:27:06.223Z</time>
			</trkpt>
			<trkpt lat="48.3234" lon="15.6329">
				<ele>266.03</ele>
				<time>2025-07-29T06:27:08.154Z</time>
			</trkpt>
			<trkpt lat="48.32323" lon="15.6332">
				<ele>264.52</ele>
				<time>2025-07-29T06:27:09.623Z</time>
			</trkpt>
			<trkpt lat="48.32294" lon="15.63355">
				<ele>266.27</ele>
				<time>2025-07-29T06:27:11.738Z</time>
			</trkpt>
			<trkpt lat="48.32236" lon="15.63401">
				<ele>267</ele>
				<time>2025-07-29T06:27:15.558Z</time>
			</trkpt>
			<trkpt lat="48.3221" lon="15.63419">
				<ele>266.49</ele>
				<time>2025-07-29T06:27:17.246Z</time>
			</trkpt>
			<trkpt lat="48.32187" lon="15.6343">
				<ele>265.38</ele>
				<time>2025-07-29T06:27:18.669Z</time>
			</trkpt>
			<trkpt lat="48.32124" lon="15.63449">
				<ele>266.5</ele>
				<time>2025-07-29T06:27:22.452Z</time>
			</trkpt>
			<trkpt lat="48.3209" lon="15.63466">
				<ele>267</ele>
				<time>2025-07-29T06:27:24.559Z</time>
			</trkpt>
			<trkpt lat="48.32069" lon="15.63484">
				<ele>265.78</ele>
				<time>2025-07-29T06:27:25.980Z</time>
			</trkpt>
			<trkpt lat="48.32046" lon="15.6351">
				<ele>265.26</ele>
				<time>2025-07-29T06:27:27.670Z</time>
			</trkpt>
			<trkpt lat="48.32028" lon="15.63537">
				<ele>265.36</ele>
				<time>2025-07-29T06:27:29.164Z</time>
			</trkpt>
			<trkpt lat="48.31975" lon="15.63635">
				<ele>265.23</ele>
				<time>2025-07-29T06:27:34.097Z</time>
			</trkpt>
			<trkpt lat="48.31952" lon="15.6367">
				<ele>265.09</ele>
				<time>2025-07-29T06:27:36.019Z</time>
			</trkpt>
			<trkpt lat="48.31933" lon="15.63689">
				<ele>266.21</ele>
				<time>2025-07-29T06:27:37.359Z</time>
			</trkpt>
			<trkpt lat="48.31908" lon="15.63709">
				<ele>267.81</ele>
				<time>2025-07-29T06:27:39.024Z</time>
			</trkpt>
			<trkpt lat="48.31889" lon="15.6372">
				<ele>268.89</ele>
				<time>2025-07-29T06:27:40.221Z</time>
			</trkpt>
			<trkpt lat="48.31895" lon="15.63748">
				<ele>269.72</ele>
				<time>2025-07-29T06:27:41.371Z</time>
			</trkpt>
			<trkpt lat="48.31897" lon="15.63765">
				<ele>269.87</ele>
				<time>2025-07-29T06:27:42.046Z</time>
			</trkpt>
			<trkpt lat="48.31896" lon="15.63778">
				<ele>270.03</ele>
				<time>2025-07-29T06:27:42.559Z</time>
			</trkpt>
			<trkpt lat="48.31893" lon="15.6379">
				<ele>270.45</ele>
				<time>2025-07-29T06:27:43.060Z</time>
			</trkpt>
			<trkpt lat="48.31881" lon="15.63819">
				<ele>270.59</ele>
				<time>2025-07-29T06:27:44.398Z</time>
			</trkpt>
			<trkpt lat="48.31836" lon="15.63907">
				<ele>275.23</ele>
				<time>2025-07-29T06:27:48.750Z</time>
			</trkpt>
			<trkpt lat="48.31806" lon="15.63972">
				<ele>278.02</ele>
				<time>2025-07-29T06:27:51.860Z</time>
			</trkpt>
			<trkpt lat="48.31784" lon="15.64024">
				<ele>279.89</ele>
				<time>2025-07-29T06:27:54.287Z</time>
			</trkpt>
			<trkpt lat="48.31769" lon="15.64069">
				<ele>283.51</ele>
				<time>2025-07-29T06:27:56.273Z</time>
			</trkpt>
			<trkpt lat="48.31745" lon="15.64148">
				<ele>285.75</ele>
				<time>2025-07-29T06:27:59.708Z</time>
			</trkpt>
			<trkpt lat="48.31521" lon="15.64901">
				<ele>295.57</ele>
				<time>2025-07-29T06:28:33.151Z</time>
			</trkpt>
			<trkpt lat="48.31404" lon="15.65302">
				<ele>298.51</ele>
				<time>2025-07-29T06:28:51.783Z</time>
			</trkpt>
			<trkpt lat="48.31289" lon="15.65735">
				<ele>307.53</ele>
				<time>2025-07-29T06:29:11.986Z</time>
			</trkpt>
			<trkpt lat="48.3128" lon="15.65773">
				<ele>308.6</ele>
				<time>2025-07-29T06:29:13.736Z</time>
			</trkpt>
			<trkpt lat="48.31273" lon="15.65822">
				<ele>306.34</ele>
				<time>2025-07-29T06:29:15.910Z</time>
			</trkpt>
			<trkpt lat="48.31268" lon="15.65868">
				<ele>303.32</ele>
				<time>2025-07-29T06:29:17.933Z</time>
			</trkpt>
			<trkpt lat="48.31266" lon="15.65898">
				<ele>302.31</ele>
				<time>2025-07-29T06:29:19.242Z</time>
			</trkpt>
			<trkpt lat="48.31268" lon="15.65923">
				<ele>302.12</ele>
				<time>2025-07-29T06:29:20.335Z</time>
			</trkpt>
			<trkpt lat="48.31343" lon="15.66435">
				<ele>286.13</ele>
				<time>2025-07-29T06:29:43.149Z</time>
			</trkpt>
			<trkpt lat="48.31345" lon="15.66468">
				<ele>286.52</ele>
				<time>2025-07-29T06:29:44.595Z</time>
			</trkpt>
			<trkpt lat="48.31343" lon="15.66502">
				<ele>286.66</ele>
				<time>2025-07-29T06:29:46.085Z</time>
			</trkpt>
			<trkpt lat="48.31322" lon="15.66686">
				<ele>286.82</ele>
				<time>2025-07-29T06:29:54.246Z</time>
			</trkpt>
			<trkpt lat="48.31319" lon="15.66723">
				<ele>288.4</ele>
				<time>2025-07-29T06:29:55.878Z</time>
			</trkpt>
			<trkpt lat="48.3132" lon="15.66788">
				<ele>284.7</ele>
				<time>2025-07-29T06:29:58.727Z</time>
			</trkpt>
			<trkpt lat="48.31328" lon="15.66904">
				<ele>275.44</ele>
				<time>2025-07-29T06:30:03.843Z</time>
			</trkpt>
			<trkpt lat="48.31333" lon="15.66927">
				<ele>274.44</ele>
				<time>2025-07-29T06:30:04.906Z</time>
			</trkpt>
			<trkpt lat="48.31339" lon="15.66948">
				<ele>273.43</ele>
				<time>2025-07-29T06:30:05.910Z</time>
			</trkpt>
			<trkpt lat="48.31383" lon="15.67039">
				<ele>267.04</ele>
				<time>2025-07-29T06:30:10.859Z</time>
			</trkpt>
			<trkpt lat="48.31419" lon="15.67145">
				<ele>260.42</ele>
				<time>2025-07-29T06:30:16.105Z</time>
			</trkpt>
			<trkpt lat="48.31425" lon="15.67168">
				<ele>258.91</ele>
				<time>2025-07-29T06:30:17.195Z</time>
			</trkpt>
			<trkpt lat="48.31433" lon="15.67204">
				<ele>256.19</ele>
				<time>2025-07-29T06:30:18.871Z</time>
			</trkpt>
			<trkpt lat="48.31453" lon="15.67381">
				<ele>258.35</ele>
				<time>2025-07-29T06:30:26.816Z</time>
			</trkpt>
			<trkpt lat="48.31454" lon="15.67401">
				<ele>258.01</ele>
				<time>2025-07-29T06:30:27.705Z</time>
			</trkpt>
			<trkpt lat="48.31451" lon="15.67534">
				<ele>254.93</ele>
				<time>2025-07-29T06:30:33.614Z</time>
			</trkpt>
			<trkpt lat="48.31452" lon="15.67563">
				<ele>254.5</ele>
				<time>2025-07-29T06:30:34.906Z</time>
			</trkpt>
			<trkpt lat="48.31457" lon="15.67612">
				<ele>253.96</ele>
				<time>2025-07-29T06:30:37.113Z</time>
			</trkpt>
			<trkpt lat="48.3148" lon="15.67753">
				<ele>252.85</ele>
				<time>2025-07-29T06:30:43.591Z</time>
			</trkpt>
			<trkpt lat="48.31482" lon="15.67779">
				<ele>251.89</ele>
				<time>2025-07-29T06:30:44.761Z</time>
			</trkpt>
			<trkpt lat="48.3148" lon="15.67873">
				<ele>245.55</ele>
				<time>2025-07-29T06:30:48.972Z</time>
			</trkpt>
			<trkpt lat="48.31477" lon="15.67904">
				<ele>243.61</ele>
				<time>2025-07-29T06:30:50.377Z</time>
			</trkpt>
			<trkpt lat="48.31468" lon="15.67958">
				<ele>242.49</ele>
				<time>2025-07-29T06:30:52.876Z</time>
			</trkpt>
			<trkpt lat="48.31452" lon="15.68017">
				<ele>241</ele>
				<time>2025-07-29T06:30:55.740Z</time>
			</trkpt>
			<trkpt lat="48.3143" lon="15.68076">
				<ele>240.62</ele>
				<time>2025-07-29T06:30:58.786Z</time>
			</trkpt>
			<trkpt lat="48.3141" lon="15.68115">
				<ele>239.69</ele>
				<time>2025-07-29T06:31:01.008Z</time>
			</trkpt>
			<trkpt lat="48.31387" lon="15.68152">
				<ele>238.41</ele>
				<time>2025-07-29T06:31:03.295Z</time>
			</trkpt>
			<trkpt lat="48.31373" lon="15.68169">
				<ele>237.35</ele>
				<time>2025-07-29T06:31:04.518Z</time>
			</trkpt>
			<trkpt lat="48.31341" lon="15.68201">
				<ele>236.64</ele>
				<time>2025-07-29T06:31:07.134Z</time>
			</trkpt>
			<trkpt lat="48.313" lon="15.68235">
				<ele>235.69</ele>
				<time>2025-07-29T06:31:10.326Z</time>
			</trkpt>
			<trkpt lat="48.31281" lon="15.68248">
				<ele>235.94</ele>
				<time>2025-07-29T06:31:11.752Z</time>
			</trkpt>
			<trkpt lat="48.31242" lon="15.68265">
				<ele>234.92</ele>
				<time>2025-07-29T06:31:14.528Z</time>
			</trkpt>
			<trkpt lat="48.31215" lon="15.68272">
				<ele>233.17</ele>
				<time>2025-07-29T06:31:16.404Z</time>
			</trkpt>
			<trkpt lat="48.3116" lon="15.68278">
				<ele>234.21</ele>
				<time>2025-07-29T06:31:20.187Z</time>
			</trkpt>
			<trkpt lat="48.31079" lon="15.6828">
				<ele>233.91</ele>
				<time>2025-07-29T06:31:25.761Z</time>
			</trkpt>
			<trkpt lat="48.31001" lon="15.68279">
				<ele>233.94</ele>
				<time>2025-07-29T06:31:31.149Z</time>
			</trkpt>
			<trkpt lat="48.30978" lon="15.68281">
				<ele>233.97</ele>
				<time>2025-07-29T06:31:32.744Z</time>
			</trkpt>
			<trkpt lat="48.30946" lon="15.6829">
				<ele>234</ele>
				<time>2025-07-29T06:31:35.000Z</time>
			</trkpt>
			<trkpt lat="48.3093" lon="15.68297">
				<ele>233.48</ele>
				<time>2025-07-29T06:31:36.157Z</time>
			</trkpt>
			<trkpt lat="48.30891" lon="15.68318">
				<ele>232.52</ele>
				<time>2025-07-29T06:31:39.036Z</time>
			</trkpt>
			<trkpt lat="48.30861" lon="15.6834">
				<ele>232.97</ele>
				<time>2025-07-29T06:31:41.361Z</time>
			</trkpt>
			<trkpt lat="48.30838" lon="15.68364">
				<ele>232.04</ele>
				<time>2025-07-29T06:31:43.314Z</time>
			</trkpt>
			<trkpt lat="48.30763" lon="15.6846">
				<ele>229.41</ele>
				<time>2025-07-29T06:31:50.206Z</time>
			</trkpt>
			<trkpt lat="48.30739" lon="15.68488">
				<ele>229.75</ele>
				<time>2025-07-29T06:31:52.339Z</time>
			</trkpt>
			<trkpt lat="48.30687" lon="15.68541">
				<ele>230.61</ele>
				<time>2025-07-29T06:31:56.760Z</time>
			</trkpt>
			<trkpt lat="48.30621" lon="15.68599">
				<ele>230.57</ele>
				<time>2025-07-29T06:32:02.161Z</time>
			</trkpt>
			<trkpt lat="48.30556" lon="15.68645">
				<ele>230.99</ele>
				<time>2025-07-29T06:32:07.258Z</time>
			</trkpt>
			<trkpt lat="48.305" lon="15.68679">
				<ele>231.52</ele>
				<time>2025-07-29T06:32:11.558Z</time>
			</trkpt>
			<trkpt lat="48.30454" lon="15.68703">
				<ele>229.23</ele>
				<time>2025-07-29T06:32:15.036Z</time>
			</trkpt>
			<trkpt lat="48.3042" lon="15.68718">
				<ele>229.85</ele>
				<time>2025-07-29T06:32:17.573Z</time>
			</trkpt>
			<trkpt lat="48.3035" lon="15.68743">
				<ele>231.14</ele>
				<time>2025-07-29T06:32:22.741Z</time>
			</trkpt>
			<trkpt lat="48.30312" lon="15.68752">
				<ele>231.71</ele>
				<time>2025-07-29T06:32:25.514Z</time>
			</trkpt>
			<trkpt lat="48.30271" lon="15.68758">
				<ele>233</ele>
				<time>2025-07-29T06:32:28.490Z</time>
			</trkpt>
			<trkpt lat="48.30151" lon="15.68761">
				<ele>236.06</ele>
				<time>2025-07-29T06:32:37.203Z</time>
			</trkpt>
			<trkpt lat="48.30115" lon="15.68767">
				<ele>235.25</ele>
				<time>2025-07-29T06:32:39.845Z</time>
			</trkpt>
			<trkpt lat="48.30084" lon="15.68777">
				<ele>235</ele>
				<time>2025-07-29T06:32:42.163Z</time>
			</trkpt>
			<trkpt lat="48.30039" lon="15.68795">
				<ele>234.27</ele>
				<time>2025-07-29T06:32:45.576Z</time>
			</trkpt>
			<trkpt lat="48.29971" lon="15.68819">
				<ele>232.47</ele>
				<time>2025-07-29T06:32:50.715Z</time>
			</trkpt>
			<trkpt lat="48.29834" lon="15.6889">
				<ele>226</ele>
				<time>2025-07-29T06:33:01.452Z</time>
			</trkpt>
			<trkpt lat="48.29775" lon="15.68915">
				<ele>225.05</ele>
				<time>2025-07-29T06:33:06.026Z</time>
			</trkpt>
			<trkpt lat="48.2973" lon="15.68929">
				<ele>225.24</ele>
				<time>2025-07-29T06:33:09.467Z</time>
			</trkpt>
			<trkpt lat="48.29681" lon="15.68935">
				<ele>225.46</ele>
				<time>2025-07-29T06:33:13.160Z</time>
			</trkpt>
			<trkpt lat="48.29639" lon="15.68933">
				<ele>225.38</ele>
				<time>2025-07-29T06:33:16.327Z</time>
			</trkpt>
			<trkpt lat="48.29471" lon="15.68902">
				<ele>228.97</ele>
				<time>2025-07-29T06:33:29.179Z</time>
			</trkpt>
			<trkpt lat="48.29412" lon="15.68899">
				<ele>228.21</ele>
				<time>2025-07-29T06:33:33.699Z</time>
			</trkpt>
			<trkpt lat="48.29369" lon="15.68899">
				<ele>228.48</ele>
				<time>2025-07-29T06:33:37.003Z</time>
			</trkpt>
			<trkpt lat="48.29323" lon="15.68892">
				<ele>227.05</ele>
				<time>2025-07-29T06:33:40.567Z</time>
			</trkpt>
			<trkpt lat="48.29285" lon="15.68879">
				<ele>226.75</ele>
				<time>2025-07-29T06:33:43.581Z</time>
			</trkpt>
			<trkpt lat="48.29227" lon="15.68849">
				<ele>227.64</ele>
				<time>2025-07-29T06:33:48.343Z</time>
			</trkpt>
			<trkpt lat="48.29207" lon="15.68844">
				<ele>228.13</ele>
				<time>2025-07-29T06:33:49.922Z</time>
			</trkpt>
			<trkpt lat="48.29192" lon="15.68845">
				<ele>227.58</ele>
				<time>2025-07-29T06:33:51.092Z</time>
			</trkpt>
			<trkpt lat="48.29177" lon="15.68852">
				<ele>226.31</ele>
				<time>2025-07-29T06:33:52.318Z</time>
			</trkpt>
			<trkpt lat="48.2914" lon="15.68887">
				<ele>223.11</ele>
				<time>2025-07-29T06:33:55.739Z</time>
			</trkpt>
			<trkpt lat="48.29095" lon="15.68937">
				<ele>224.14</ele>
				<time>2025-07-29T06:34:00.134Z</time>
			</trkpt>
			<trkpt lat="48.29048" lon="15.68998">
				<ele>223.27</ele>
				<time>2025-07-29T06:34:05.033Z</time>
			</trkpt>
			<trkpt lat="48.28964" lon="15.69111">
				<ele>225.97</ele>
				<time>2025-07-29T06:34:13.988Z</time>
			</trkpt>
			<trkpt lat="48.28949" lon="15.6913">
				<ele>225.31</ele>
				<time>2025-07-29T06:34:15.554Z</time>
			</trkpt>
			<trkpt lat="48.28865" lon="15.69216">
				<ele>227.84</ele>
				<time>2025-07-29T06:34:23.709Z</time>
			</trkpt>
			<trkpt lat="48.2884" lon="15.6925">
				<ele>228.72</ele>
				<time>2025-07-29T06:34:26.429Z</time>
			</trkpt>
			<trkpt lat="48.2881" lon="15.69324">
				<ele>227.33</ele>
				<time>2025-07-29T06:34:31.097Z</time>
			</trkpt>
			<trkpt lat="48.28802" lon="15.69338">
				<ele>226.81</ele>
				<time>2025-07-29T06:34:32.094Z</time>
			</trkpt>
			<trkpt lat="48.28777" lon="15.69373">
				<ele>226</ele>
				<time>2025-07-29T06:34:34.873Z</time>
			</trkpt>
			<trkpt lat="48.28772" lon="15.69381">
				<ele>226.14</ele>
				<time>2025-07-29T06:34:35.468Z</time>
			</trkpt>
			<trkpt lat="48.28767" lon="15.69377">
				<ele>226.22</ele>
				<time>2025-07-29T06:34:35.930Z</time>
			</trkpt>
			<trkpt lat="48.28761" lon="15.69377">
				<ele>226.33</ele>
				<time>2025-07-29T06:34:36.420Z</time>
			</trkpt>
			<trkpt lat="48.28755" lon="15.69381">
				<ele>226.57</ele>
				<time>2025-07-29T06:34:36.955Z</time>
			</trkpt>
			<trkpt lat="48.28751" lon="15.69388">
				<ele>226.93</ele>
				<time>2025-07-29T06:34:37.457Z</time>
			</trkpt>
			<trkpt lat="48.28725" lon="15.69394">
				<ele>227.88</ele>
				<time>2025-07-29T06:34:39.607Z</time>
			</trkpt>
			<trkpt lat="48.28714" lon="15.69393">
				<ele>228.47</ele>
				<time>2025-07-29T06:34:40.510Z</time>
			</trkpt>
			<trkpt lat="48.28676" lon="15.69379">
				<ele>229.35</ele>
				<time>2025-07-29T06:34:43.720Z</time>
			</trkpt>
			<trkpt lat="48.28661" lon="15.69376">
				<ele>228.89</ele>
				<time>2025-07-29T06:34:44.965Z</time>
			</trkpt>
			<trkpt lat="48.28654" lon="15.69379">
				<ele>228.69</ele>
				<time>2025-07-29T06:34:45.564Z</time>
			</trkpt>
			<trkpt lat="48.28643" lon="15.6939">
				<ele>228.18</ele>
				<time>2025-07-29T06:34:46.652Z</time>
			</trkpt>
			<trkpt lat="48.28636" lon="15.69406">
				<ele>228</ele>
				<time>2025-07-29T06:34:47.703Z</time>
			</trkpt>
			<trkpt lat="48.28633" lon="15.6941">
				<ele>228</ele>
				<time>2025-07-29T06:34:48.034Z</time>
			</trkpt>
			<trkpt lat="48.28587" lon="15.69416">
				<ele>228</ele>
				<time>2025-07-29T06:34:51.853Z</time>
			</trkpt>
			<trkpt lat="48.28559" lon="15.69428">
				<ele>228.49</ele>
				<time>2025-07-29T06:34:54.269Z</time>
			</trkpt>
			<trkpt lat="48.28513" lon="15.69458">
				<ele>227.23</ele>
				<time>2025-07-29T06:34:58.443Z</time>
			</trkpt>
			<trkpt lat="48.28473" lon="15.69502">
				<ele>225.87</ele>
				<time>2025-07-29T06:35:02.587Z</time>
			</trkpt>
			<trkpt lat="48.28466" lon="15.69505">
				<ele>225.82</ele>
				<time>2025-07-29T06:35:03.197Z</time>
			</trkpt>
			<trkpt lat="48.28437" lon="15.69512">
				<ele>226.13</ele>
				<time>2025-07-29T06:35:05.662Z</time>
			</trkpt>
			<trkpt lat="48.28378" lon="15.69533">
				<ele>227.2</ele>
				<time>2025-07-29T06:35:10.770Z</time>
			</trkpt>
			<trkpt lat="48.28353" lon="15.69545">
				<ele>227.37</ele>
				<time>2025-07-29T06:35:12.989Z</time>
			</trkpt>
			<trkpt lat="48.28314" lon="15.69573">
				<ele>227.68</ele>
				<time>2025-07-29T06:35:16.655Z</time>
			</trkpt>
			<trkpt lat="48.28258" lon="15.69604">
				<ele>227.07</ele>
				<time>2025-07-29T06:35:21.739Z</time>
			</trkpt>
			<trkpt lat="48.28221" lon="15.69621">
				<ele>227.97</ele>
				<time>2025-07-29T06:35:25.049Z</time>
			</trkpt>
			<trkpt lat="48.28202" lon="15.69622">
				<ele>227.28</ele>
				<time>2025-07-29T06:35:26.680Z</time>
			</trkpt>
			<trkpt lat="48.28199" lon="15.69613">
				<ele>227.17</ele>
				<time>2025-07-29T06:35:27.255Z</time>
			</trkpt>
			<trkpt lat="48.28195" lon="15.6961">
				<ele>227.04</ele>
				<time>2025-07-29T06:35:27.639Z</time>
			</trkpt>
			<trkpt lat="48.28191" lon="15.6961">
				<ele>227</ele>
				<time>2025-07-29T06:35:27.983Z</time>
			</trkpt>
			<trkpt lat="48.28186" lon="15.69617">
				<ele>227</ele>
				<time>2025-07-29T06:35:28.570Z</time>
			</trkpt>
			<trkpt lat="48.28185" lon="15.69626">
				<ele>227</ele>
				<time>2025-07-29T06:35:29.093Z</time>
			</trkpt>
			<trkpt lat="48.28188" lon="15.69632">
				<ele>227</ele>
				<time>2025-07-29T06:35:29.523Z</time>
			</trkpt>
			<trkpt lat="48.28193" lon="15.69635">
				<ele>227</ele>
				<time>2025-07-29T06:35:29.986Z</time>
			</trkpt>
			<trkpt lat="48.28199" lon="15.69662">
				<ele>227.18</ele>
				<time>2025-07-29T06:35:31.619Z</time>
			</trkpt>
			<trkpt lat="48.28202" lon="15.69729">
				<ele>227.02</ele>
				<time>2025-07-29T06:35:35.482Z</time>
			</trkpt>
			<trkpt lat="48.28205" lon="15.69805">
				<ele>225.01</ele>
				<time>2025-07-29T06:35:39.880Z</time>
			</trkpt>
			<trkpt lat="48.28206" lon="15.69818">
				<ele>224.73</ele>
				<time>2025-07-29T06:35:40.638Z</time>
			</trkpt>
			<trkpt lat="48.28207" lon="15.69855">
				<ele>224.47</ele>
				<time>2025-07-29T06:35:42.786Z</time>
			</trkpt>
			<trkpt lat="48.28213" lon="15.69885">
				<ele>224.69</ele>
				<time>2025-07-29T06:35:44.607Z</time>
			</trkpt>
			<trkpt lat="48.28222" lon="15.69901">
				<ele>224.58</ele>
				<time>2025-07-29T06:35:45.826Z</time>
			</trkpt>
			<trkpt lat="48.28229" lon="15.6991">
				<ele>225.04</ele>
				<time>2025-07-29T06:35:46.633Z</time>
			</trkpt>
			<trkpt lat="48.28251" lon="15.69926">
				<ele>226.68</ele>
				<time>2025-07-29T06:35:48.776Z</time>
			</trkpt>
			<trkpt lat="48.28259" lon="15.69937">
				<ele>226.59</ele>
				<time>2025-07-29T06:35:49.729Z</time>
			</trkpt>
			<trkpt lat="48.28264" lon="15.6995">
				<ele>226.33</ele>
				<time>2025-07-29T06:35:50.607Z</time>
			</trkpt>
			<trkpt lat="48.28267" lon="15.69964">
				<ele>225.91</ele>
				<time>2025-07-29T06:35:51.468Z</time>
			</trkpt>
			<trkpt lat="48.28266" lon="15.70005">
				<ele>224.59</ele>
				<time>2025-07-29T06:35:53.875Z</time>
			</trkpt>
			<trkpt lat="48.28268" lon="15.70022">
				<ele>224.65</ele>
				<time>2025-07-29T06:35:54.889Z</time>
			</trkpt>
			<trkpt lat="48.28271" lon="15.70037">
				<ele>224.77</ele>
				<time>2025-07-29T06:35:55.810Z</time>
			</trkpt>
			<trkpt lat="48.28277" lon="15.70052">
				<ele>224.99</ele>
				<time>2025-07-29T06:35:56.841Z</time>
			</trkpt>
			<trkpt lat="48.28294" lon="15.70077">
				<ele>224.87</ele>
				<time>2025-07-29T06:35:58.948Z</time>
			</trkpt>
			<trkpt lat="48.28297" lon="15.70085">
				<ele>225.06</ele>
				<time>2025-07-29T06:35:59.490Z</time>
			</trkpt>
			<trkpt lat="48.28303" lon="15.70108">
				<ele>225.85</ele>
				<time>2025-07-29T06:36:00.950Z</time>
			</trkpt>
			<trkpt lat="48.28304" lon="15.70126">
				<ele>225.96</ele>
				<time>2025-07-29T06:36:02.019Z</time>
			</trkpt>
			<trkpt lat="48.28303" lon="15.70165">
				<ele>225.04</ele>
				<time>2025-07-29T06:36:04.333Z</time>
			</trkpt>
			<trkpt lat="48.28298" lon="15.70178">
				<ele>224.25</ele>
				<time>2025-07-29T06:36:05.225Z</time>
			</trkpt>
			<trkpt lat="48.28293" lon="15.70183">
				<ele>224.02</ele>
				<time>2025-07-29T06:36:05.761Z</time>
			</trkpt>
			<trkpt lat="48.28291" lon="15.70193">
				<ele>223.57</ele>
				<time>2025-07-29T06:36:06.382Z</time>
			</trkpt>
			<trkpt lat="48.28292" lon="15.70201">
				<ele>223.2</ele>
				<time>2025-07-29T06:36:06.866Z</time>
			</trkpt>
			<trkpt lat="48.28297" lon="15.70206">
				<ele>222.85</ele>
				<time>2025-07-29T06:36:07.403Z</time>
			</trkpt>
			<trkpt lat="48.283" lon="15.70223">
				<ele>222.16</ele>
				<time>2025-07-29T06:36:08.451Z</time>
			</trkpt>
			<trkpt lat="48.28289" lon="15.70471">
				<ele>225.44</ele>
				<time>2025-07-29T06:36:23.283Z</time>
			</trkpt>
			<trkpt lat="48.28285" lon="15.70597">
				<ele>225.66</ele>
				<time>2025-07-29T06:36:30.886Z</time>
			</trkpt>
			<trkpt lat="48.28242" lon="15.70591">
				<ele>226.18</ele>
				<time>2025-07-29T06:36:34.892Z</time>
			</trkpt>
			<trkpt lat="48.28229" lon="15.70584">
				<ele>226.71</ele>
				<time>2025-07-29T06:36:36.193Z</time>
			</trkpt>
			<trkpt lat="48.2822" lon="15.70575">
				<ele>226.94</ele>
				<time>2025-07-29T06:36:37.218Z</time>
			</trkpt>
			<trkpt lat="48.28208" lon="15.7055">
				<ele>227</ele>
				<time>2025-07-29T06:36:39.183Z</time>
			</trkpt>
			<trkpt lat="48.2819" lon="15.70492">
				<ele>227</ele>
				<time>2025-07-29T06:36:43.355Z</time>
			</trkpt>
			<trkpt lat="48.28178" lon="15.70478">
				<ele>227</ele>
				<time>2025-07-29T06:36:44.876Z</time>
			</trkpt>
			<trkpt lat="48.28128" lon="15.7047">
				<ele>227.04</ele>
				<time>2025-07-29T06:36:50.057Z</time>
			</trkpt>
			<trkpt lat="48.28092" lon="15.7047">
				<ele>226.36</ele>
				<time>2025-07-29T06:36:53.918Z</time>
			</trkpt>
			<trkpt lat="48.28055" lon="15.70474">
				<ele>225.99</ele>
				<time>2025-07-29T06:36:58.047Z</time>
			</trkpt>
			<trkpt lat="48.2804" lon="15.70477">
				<ele>225.88</ele>
				<time>2025-07-29T06:36:59.779Z</time>
			</trkpt>
			<trkpt lat="48.27911" lon="15.70521">
				<ele>228.43</ele>
				<time>2025-07-29T06:37:16.274Z</time>
			</trkpt>
			<trkpt lat="48.27788" lon="15.70565">
				<ele>226</ele>
				<time>2025-07-29T06:37:37.524Z</time>
			</trkpt>
			<trkpt lat="48.27729" lon="15.7059">
				<ele>226.54</ele>
				<time>2025-07-29T06:37:50.101Z</time>
			</trkpt>
			<trkpt lat="48.27711" lon="15.7061">
				<ele>226.01</ele>
				<time>2025-07-29T06:37:54.865Z</time>
			</trkpt>
			<trkpt lat="48.27693" lon="15.70647">
				<ele>226.02</ele>
				<time>2025-07-29T06:38:01.411Z</time>
			</trkpt>
			<trkpt lat="48.27682" lon="15.70701">
				<ele>226</ele>
				<time>2025-07-29T06:38:09.446Z</time>
			</trkpt>
			<trkpt lat="48.27682" lon="15.70757">
				<ele>225.42</ele>
				<time>2025-07-29T06:38:17.229Z</time>
			</trkpt>
			<trkpt lat="48.27681" lon="15.70797">
				<ele>225.84</ele>
				<time>2025-07-29T06:38:22.593Z</time>
			</trkpt>
			<trkpt lat="48.27681" lon="15.70803">
				<ele>225.95</ele>
				<time>2025-07-29T06:38:23.379Z</time>
			</trkpt>
			<trkpt lat="48.2768" lon="15.70831">
				<ele>226</ele>
				<time>2025-07-29T06:38:26.974Z</time>
			</trkpt>
			<trkpt lat="48.27676" lon="15.70841">
				<ele>225.9</ele>
				<time>2025-07-29T06:38:28.431Z</time>
			</trkpt>
			<trkpt lat="48.27642" lon="15.70888">
				<ele>224.16</ele>
				<time>2025-07-29T06:38:36.527Z</time>
			</trkpt>
			<trkpt lat="48.27567" lon="15.70942">
				<ele>228.08</ele>
				<time>2025-07-29T06:38:48.528Z</time>
			</trkpt>
			<trkpt lat="48.27554" lon="15.70958">
				<ele>229.02</ele>
				<time>2025-07-29T06:38:50.716Z</time>
			</trkpt>
			<trkpt lat="48.27545" lon="15.70986">
				<ele>228.84</ele>
				<time>2025-07-29T06:38:53.332Z</time>
			</trkpt>
			<trkpt lat="48.27526" lon="15.71084">
				<ele>228</ele>
				<time>2025-07-29T06:39:01.451Z</time>
			</trkpt>
			<trkpt lat="48.27512" lon="15.71118">
				<ele>227.87</ele>
				<time>2025-07-29T06:39:04.497Z</time>
			</trkpt>
			<trkpt lat="48.27485" lon="15.71169">
				<ele>227.41</ele>
				<time>2025-07-29T06:39:09.385Z</time>
			</trkpt>
			<trkpt lat="48.27451" lon="15.71254">
				<ele>226.77</ele>
				<time>2025-07-29T06:39:16.849Z</time>
			</trkpt>
			<trkpt lat="48.27436" lon="15.71302">
				<ele>227.28</ele>
				<time>2025-07-29T06:39:20.869Z</time>
			</trkpt>
			<trkpt lat="48.2742" lon="15.71341">
				<ele>227</ele>
				<time>2025-07-29T06:39:24.331Z</time>
			</trkpt>
			<trkpt lat="48.27394" lon="15.71373">
				<ele>228.22</ele>
				<time>2025-07-29T06:39:28.136Z</time>
			</trkpt>
			<trkpt lat="48.27379" lon="15.71388">
				<ele>229.33</ele>
				<time>2025-07-29T06:39:30.171Z</time>
			</trkpt>
			<trkpt lat="48.27329" lon="15.71425">
				<ele>231.41</ele>
				<time>2025-07-29T06:39:36.443Z</time>
			</trkpt>
			<trkpt lat="48.27324" lon="15.71431">
				<ele>231.68</ele>
				<time>2025-07-29T06:39:37.161Z</time>
			</trkpt>
			<trkpt lat="48.273" lon="15.71462">
				<ele>231.83</ele>
				<time>2025-07-29T06:39:40.704Z</time>
			</trkpt>
			<trkpt lat="48.27268" lon="15.71496">
				<ele>232.18</ele>
				<time>2025-07-29T06:39:45.075Z</time>
			</trkpt>
			<trkpt lat="48.27252" lon="15.71451">
				<ele>230.31</ele>
				<time>2025-07-29T06:39:48.847Z</time>
			</trkpt>
			<trkpt lat="48.27193" lon="15.71334">
				<ele>227.06</ele>
				<time>2025-07-29T06:39:59.619Z</time>
			</trkpt>
			<trkpt lat="48.2715" lon="15.71255">
				<ele>227.79</ele>
				<time>2025-07-29T06:40:07.034Z</time>
			</trkpt>
			<trkpt lat="48.27138" lon="15.71236">
				<ele>227.99</ele>
				<time>2025-07-29T06:40:08.927Z</time>
			</trkpt>
			<trkpt lat="48.27123" lon="15.71218">
				<ele>227.86</ele>
				<time>2025-07-29T06:40:11.007Z</time>
			</trkpt>
			<trkpt lat="48.27107" lon="15.71204">
				<ele>227.3</ele>
				<time>2025-07-29T06:40:13.007Z</time>
			</trkpt>
			<trkpt lat="48.27053" lon="15.71173">
				<ele>226.07</ele>
				<time>2025-07-29T06:40:19.222Z</time>
			</trkpt>
			<trkpt lat="48.27022" lon="15.71159">
				<ele>227.4</ele>
				<time>2025-07-29T06:40:22.680Z</time>
			</trkpt>
			<trkpt lat="48.27005" lon="15.71153">
				<ele>227.9</ele>
				<time>2025-07-29T06:40:24.539Z</time>
			</trkpt>
			<trkpt lat="48.26877" lon="15.71107">
				<ele>227</ele>
				<time>2025-07-29T06:40:38.396Z</time>
			</trkpt>
			<trkpt lat="48.2686" lon="15.71094">
				<ele>227</ele>
				<time>2025-07-29T06:40:40.381Z</time>
			</trkpt>
			<trkpt lat="48.26846" lon="15.71076">
				<ele>227</ele>
				<time>2025-07-29T06:40:42.294Z</time>
			</trkpt>
			<trkpt lat="48.26826" lon="15.71041">
				<ele>227</ele>
				<time>2025-07-29T06:40:45.467Z</time>
			</trkpt>
			<trkpt lat="48.26761" lon="15.70909">
				<ele>227.72</ele>
				<time>2025-07-29T06:40:56.631Z</time>
			</trkpt>
			<trkpt lat="48.26752" lon="15.70894">
				<ele>228.64</ele>
				<time>2025-07-29T06:40:57.989Z</time>
			</trkpt>
			<trkpt lat="48.26734" lon="15.70874">
				<ele>229.28</ele>
				<time>2025-07-29T06:41:00.244Z</time>
			</trkpt>
			<trkpt lat="48.2667" lon="15.70826">
				<ele>233.75</ele>
				<time>2025-07-29T06:41:07.388Z</time>
			</trkpt>
			<trkpt lat="48.26565" lon="15.70756">
				<ele>233.73</ele>
				<time>2025-07-29T06:41:18.656Z</time>
			</trkpt>
			<trkpt lat="48.26437" lon="15.7068">
				<ele>236.86</ele>
				<time>2025-07-29T06:41:31.809Z</time>
			</trkpt>
			<trkpt lat="48.26365" lon="15.70624">
				<ele>236.4</ele>
				<time>2025-07-29T06:41:39.372Z</time>
			</trkpt>
			<trkpt lat="48.2634" lon="15.70613">
				<ele>236.81</ele>
				<time>2025-07-29T06:41:41.771Z</time>
			</trkpt>
			<trkpt lat="48.26325" lon="15.70611">
				<ele>237.28</ele>
				<time>2025-07-29T06:41:43.152Z</time>
			</trkpt>
			<trkpt lat="48.26183" lon="15.70618">
				<ele>241.38</ele>
				<time>2025-07-29T06:41:56.075Z</time>
			</trkpt>
			<trkpt lat="48.26091" lon="15.7062">
				<ele>238.61</ele>
				<time>2025-07-29T06:42:04.357Z</time>
			</trkpt>
			<trkpt lat="48.26046" lon="15.70616">
				<ele>238.19</ele>
				<time>2025-07-29T06:42:08.389Z</time>
			</trkpt>
			<trkpt lat="48.2589" lon="15.70595">
				<ele>240.48</ele>
				<time>2025-07-29T06:42:22.263Z</time>
			</trkpt>
			<trkpt lat="48.25868" lon="15.70588">
				<ele>240.18</ele>
				<time>2025-07-29T06:42:24.238Z</time>
			</trkpt>
			<trkpt lat="48.25848" lon="15.70579">
				<ele>240.74</ele>
				<time>2025-07-29T06:42:26.068Z</time>
			</trkpt>
			<trkpt lat="48.25736" lon="15.70511">
				<ele>236.82</ele>
				<time>2025-07-29T06:42:36.578Z</time>
			</trkpt>
			<trkpt lat="48.25709" lon="15.70504">
				<ele>237.19</ele>
				<time>2025-07-29T06:42:38.944Z</time>
			</trkpt>
			<trkpt lat="48.25655" lon="15.70506">
				<ele>238.98</ele>
				<time>2025-07-29T06:42:43.588Z</time>
			</trkpt>
			<trkpt lat="48.25612" lon="15.705">
				<ele>240.01</ele>
				<time>2025-07-29T06:42:47.281Z</time>
			</trkpt>
			<trkpt lat="48.2559" lon="15.70491">
				<ele>241.14</ele>
				<time>2025-07-29T06:42:49.225Z</time>
			</trkpt>
			<trkpt lat="48.2554" lon="15.70466">
				<ele>243.8</ele>
				<time>2025-07-29T06:42:53.698Z</time>
			</trkpt>
			<trkpt lat="48.25517" lon="15.7046">
				<ele>243.57</ele>
				<time>2025-07-29T06:42:55.671Z</time>
			</trkpt>
			<trkpt lat="48.255" lon="15.70459">
				<ele>243.53</ele>
				<time>2025-07-29T06:42:57.106Z</time>
			</trkpt>
			<trkpt lat="48.25457" lon="15.70465">
				<ele>240.36</ele>
				<time>2025-07-29T06:43:00.736Z</time>
			</trkpt>
			<trkpt lat="48.25389" lon="15.70492">
				<ele>234.04</ele>
				<time>2025-07-29T06:43:06.611Z</time>
			</trkpt>
			<trkpt lat="48.25359" lon="15.70494">
				<ele>234.25</ele>
				<time>2025-07-29T06:43:09.104Z</time>
			</trkpt>
			<trkpt lat="48.25327" lon="15.70492">
				<ele>235.27</ele>
				<time>2025-07-29T06:43:11.754Z</time>
			</trkpt>
			<trkpt lat="48.25304" lon="15.70481">
				<ele>235.61</ele>
				<time>2025-07-29T06:43:13.745Z</time>
			</trkpt>
			<trkpt lat="48.25284" lon="15.70465">
				<ele>235.24</ele>
				<time>2025-07-29T06:43:15.609Z</time>
			</trkpt>
			<trkpt lat="48.25226" lon="15.70399">
				<ele>236</ele>
				<time>2025-07-29T06:43:21.560Z</time>
			</trkpt>
			<trkpt lat="48.25201" lon="15.70378">
				<ele>234.88</ele>
				<time>2025-07-29T06:43:23.888Z</time>
			</trkpt>
			<trkpt lat="48.25174" lon="15.7036">
				<ele>234.71</ele>
				<time>2025-07-29T06:43:26.280Z</time>
			</trkpt>
			<trkpt lat="48.25149" lon="15.70348">
				<ele>235.62</ele>
				<time>2025-07-29T06:43:28.399Z</time>
			</trkpt>
			<trkpt lat="48.2512" lon="15.70339">
				<ele>236</ele>
				<time>2025-07-29T06:43:30.780Z</time>
			</trkpt>
			<trkpt lat="48.25095" lon="15.70337">
				<ele>235.44</ele>
				<time>2025-07-29T06:43:32.787Z</time>
			</trkpt>
			<trkpt lat="48.2508" lon="15.7034">
				<ele>235.22</ele>
				<time>2025-07-29T06:43:33.997Z</time>
			</trkpt>
			<trkpt lat="48.25015" lon="15.70372">
				<ele>238.85</ele>
				<time>2025-07-29T06:43:39.437Z</time>
			</trkpt>
			<trkpt lat="48.25024" lon="15.70432">
				<ele>236.54</ele>
				<time>2025-07-29T06:43:42.671Z</time>
			</trkpt>
			<trkpt lat="48.25044" lon="15.70545">
				<ele>238.77</ele>
				<time>2025-07-29T06:43:48.771Z</time>
			</trkpt>
			<trkpt lat="48.25051" lon="15.70557">
				<ele>239</ele>
				<time>2025-07-29T06:43:49.598Z</time>
			</trkpt>
			<trkpt lat="48.25059" lon="15.70564">
				<ele>238.74</ele>
				<time>2025-07-29T06:43:50.318Z</time>
			</trkpt>
			<trkpt lat="48.25069" lon="15.70609">
				<ele>238.96</ele>
				<time>2025-07-29T06:43:52.769Z</time>
			</trkpt>
			<trkpt lat="48.25095" lon="15.70698">
				<ele>243.21</ele>
				<time>2025-07-29T06:43:57.756Z</time>
			</trkpt>
			<trkpt lat="48.25095" lon="15.7072">
				<ele>244.77</ele>
				<time>2025-07-29T06:43:58.878Z</time>
			</trkpt>
			<trkpt lat="48.25091" lon="15.7074">
				<ele>247</ele>
				<time>2025-07-29T06:43:59.942Z</time>
			</trkpt>
			<trkpt lat="48.25078" lon="15.70754">
				<ele>247.7</ele>
				<time>2025-07-29T06:44:01.163Z</time>
			</trkpt>
			<trkpt lat="48.25064" lon="15.70758">
				<ele>247.92</ele>
				<time>2025-07-29T06:44:02.248Z</time>
			</trkpt>
			<trkpt lat="48.25022" lon="15.70758">
				<ele>250.37</ele>
				<time>2025-07-29T06:44:05.434Z</time>
			</trkpt>
			<trkpt lat="48.24997" lon="15.70765">
				<ele>251.42</ele>
				<time>2025-07-29T06:44:07.354Z</time>
			</trkpt>
			<trkpt lat="48.2498" lon="15.7078">
				<ele>252.04</ele>
				<time>2025-07-29T06:44:08.838Z</time>
			</trkpt>
			<trkpt lat="48.24953" lon="15.70825">
				<ele>257.77</ele>
				<time>2025-07-29T06:44:11.860Z</time>
			</trkpt>
			<trkpt lat="48.24934" lon="15.70846">
				<ele>259.88</ele>
				<time>2025-07-29T06:44:13.619Z</time>
			</trkpt>
			<trkpt lat="48.24911" lon="15.70854">
				<ele>257.69</ele>
				<time>2025-07-29T06:44:15.373Z</time>
			</trkpt>
			<trkpt lat="48.24855" lon="15.70859">
				<ele>253.6</ele>
				<time>2025-07-29T06:44:19.517Z</time>
			</trkpt>
			<trkpt lat="48.24811" lon="15.70875">
				<ele>255.7</ele>
				<time>2025-07-29T06:44:22.835Z</time>
			</trkpt>
			<trkpt lat="48.24743" lon="15.70905">
				<ele>255.64</ele>
				<time>2025-07-29T06:44:27.984Z</time>
			</trkpt>
			<trkpt lat="48.2471" lon="15.70928">
				<ele>254.58</ele>
				<time>2025-07-29T06:44:30.605Z</time>
			</trkpt>
			<trkpt lat="48.24686" lon="15.70982">
				<ele>259.19</ele>
				<time>2025-07-29T06:44:33.699Z</time>
			</trkpt>
			<trkpt lat="48.24676" lon="15.71014">
				<ele>261.32</ele>
				<time>2025-07-29T06:44:35.375Z</time>
			</trkpt>
			<trkpt lat="48.2467" lon="15.71054">
				<ele>261.58</ele>
				<time>2025-07-29T06:44:37.311Z</time>
			</trkpt>
			<trkpt lat="48.24667" lon="15.71126">
				<ele>261.01</ele>
				<time>2025-07-29T06:44:40.697Z</time>
			</trkpt>
			<trkpt lat="48.24663" lon="15.7133">
				<ele>263.62</ele>
				<time>2025-07-29T06:44:50.127Z</time>
			</trkpt>
			<trkpt lat="48.24663" lon="15.7149">
				<ele>266.31</ele>
				<time>2025-07-29T06:44:57.366Z</time>
			</trkpt>
			<trkpt lat="48.24659" lon="15.7156">
				<ele>269.96</ele>
				<time>2025-07-29T06:45:00.502Z</time>
			</trkpt>
			<trkpt lat="48.24647" lon="15.71707">
				<ele>271.09</ele>
				<time>2025-07-29T06:45:07.016Z</time>
			</trkpt>
			<trkpt lat="48.24647" lon="15.71727">
				<ele>271.58</ele>
				<time>2025-07-29T06:45:07.884Z</time>
			</trkpt>
			<trkpt lat="48.24648" lon="15.71762">
				<ele>271.68</ele>
				<time>2025-07-29T06:45:09.396Z</time>
			</trkpt>
			<trkpt lat="48.24696" lon="15.72067">
				<ele>281.67</ele>
				<time>2025-07-29T06:45:22.548Z</time>
			</trkpt>
			<trkpt lat="48.24707" lon="15.72114">
				<ele>283.37</ele>
				<time>2025-07-29T06:45:24.580Z</time>
			</trkpt>
			<trkpt lat="48.2475" lon="15.72279">
				<ele>288.19</ele>
				<time>2025-07-29T06:45:31.694Z</time>
			</trkpt>
			<trkpt lat="48.24762" lon="15.72314">
				<ele>291.19</ele>
				<time>2025-07-29T06:45:33.251Z</time>
			</trkpt>
			<trkpt lat="48.24795" lon="15.72396">
				<ele>290.15</ele>
				<time>2025-07-29T06:45:37.010Z</time>
			</trkpt>
			<trkpt lat="48.24804" lon="15.72425">
				<ele>289.64</ele>
				<time>2025-07-29T06:45:38.256Z</time>
			</trkpt>
			<trkpt lat="48.24797" lon="15.72439">
				<ele>288.91</ele>
				<time>2025-07-29T06:45:38.935Z</time>
			</trkpt>
			<trkpt lat="48.24857" lon="15.72655">
				<ele>284.08</ele>
				<time>2025-07-29T06:45:47.897Z</time>
			</trkpt>
			<trkpt lat="48.24949" lon="15.72986">
				<ele>268.09</ele>
				<time>2025-07-29T06:46:01.273Z</time>
			</trkpt>
			<trkpt lat="48.25115" lon="15.73453">
				<ele>254.51</ele>
				<time>2025-07-29T06:46:20.567Z</time>
			</trkpt>
			<trkpt lat="48.25201" lon="15.73703">
				<ele>247.66</ele>
				<time>2025-07-29T06:46:30.781Z</time>
			</trkpt>
			<trkpt lat="48.25223" lon="15.73778">
				<ele>245</ele>
				<time>2025-07-29T06:46:33.768Z</time>
			</trkpt>
			<trkpt lat="48.25271" lon="15.73967">
				<ele>245.13</ele>
				<time>2025-07-29T06:46:41.185Z</time>
			</trkpt>
			<trkpt lat="48.24815" lon="15.74128">
				<ele>245.01</ele>
				<time>2025-07-29T06:47:05.261Z</time>
			</trkpt>
			<trkpt lat="48.24799" lon="15.74136">
				<ele>245.08</ele>
				<time>2025-07-29T06:47:06.090Z</time>
			</trkpt>
			<trkpt lat="48.24777" lon="15.74165">
				<ele>244.99</ele>
				<time>2025-07-29T06:47:07.530Z</time>
			</trkpt>
			<trkpt lat="48.24698" lon="15.7428">
				<ele>243.92</ele>
				<time>2025-07-29T06:47:12.999Z</time>
			</trkpt>
			<trkpt lat="48.24683" lon="15.74294">
				<ele>243.01</ele>
				<time>2025-07-29T06:47:13.890Z</time>
			</trkpt>
			<trkpt lat="48.24666" lon="15.74301">
				<ele>242.14</ele>
				<time>2025-07-29T06:47:14.783Z</time>
			</trkpt>
			<trkpt lat="48.24645" lon="15.74299">
				<ele>241.28</ele>
				<time>2025-07-29T06:47:15.856Z</time>
			</trkpt>
			<trkpt lat="48.2461" lon="15.74286">
				<ele>237.85</ele>
				<time>2025-07-29T06:47:17.714Z</time>
			</trkpt>
			<trkpt lat="48.24589" lon="15.74281">
				<ele>233.55</ele>
				<time>2025-07-29T06:47:18.821Z</time>
			</trkpt>
			<trkpt lat="48.24571" lon="15.74281">
				<ele>232.28</ele>
				<time>2025-07-29T06:47:19.766Z</time>
			</trkpt>
			<trkpt lat="48.24513" lon="15.74292">
				<ele>232.49</ele>
				<time>2025-07-29T06:47:22.891Z</time>
			</trkpt>
			<trkpt lat="48.24495" lon="15.7429">
				<ele>233.33</ele>
				<time>2025-07-29T06:47:23.875Z</time>
			</trkpt>
			<trkpt lat="48.24473" lon="15.74282">
				<ele>234.93</ele>
				<time>2025-07-29T06:47:25.121Z</time>
			</trkpt>
			<trkpt lat="48.24481" lon="15.74312">
				<ele>234.39</ele>
				<time>2025-07-29T06:47:26.321Z</time>
			</trkpt>
			<trkpt lat="48.24482" lon="15.74329">
				<ele>234.5</ele>
				<time>2025-07-29T06:47:26.961Z</time>
			</trkpt>
			<trkpt lat="48.24471" lon="15.74443">
				<ele>237.05</ele>
				<time>2025-07-29T06:47:31.396Z</time>
			</trkpt>
			<trkpt lat="48.24459" lon="15.74443">
				<ele>240.28</ele>
				<time>2025-07-29T06:47:32.110Z</time>
			</trkpt>
			<trkpt lat="48.24455" lon="15.74437">
				<ele>241.32</ele>
				<time>2025-07-29T06:47:32.448Z</time>
			</trkpt>
			<trkpt lat="48.24449" lon="15.74415">
				<ele>242.77</ele>
				<time>2025-07-29T06:47:33.402Z</time>
			</trkpt>
			<trkpt lat="48.24436" lon="15.74384">
				<ele>244.47</ele>
				<time>2025-07-29T06:47:34.893Z</time>
			</trkpt>
			<trkpt lat="48.24431" lon="15.74369">
				<ele>244.53</ele>
				<time>2025-07-29T06:47:35.585Z</time>
			</trkpt>
			<trkpt lat="48.24423" lon="15.74334">
				<ele>244.3</ele>
				<time>2025-07-29T06:47:37.129Z</time>
			</trkpt>
			<trkpt lat="48.2439" lon="15.74267">
				<ele>245.68</ele>
				<time>2025-07-29T06:47:40.711Z</time>
			</trkpt>
			<trkpt lat="48.24368" lon="15.74239">
				<ele>246.47</ele>
				<time>2025-07-29T06:47:42.633Z</time>
			</trkpt>
			<trkpt lat="48.24361" lon="15.7424">
				<ele>247.32</ele>
				<time>2025-07-29T06:47:43.108Z</time>
			</trkpt>
			<trkpt lat="48.24344" lon="15.74253">
				<ele>248.27</ele>
				<time>2025-07-29T06:47:44.394Z</time>
			</trkpt>
			<trkpt lat="48.24282" lon="15.74321">
				<ele>249.56</ele>
				<time>2025-07-29T06:47:49.154Z</time>
			</trkpt>
			<trkpt lat="48.24268" lon="15.74332">
				<ele>249.97</ele>
				<time>2025-07-29T06:47:50.067Z</time>
			</trkpt>
			<trkpt lat="48.24212" lon="15.74387">
				<ele>249.75</ele>
				<time>2025-07-29T06:47:53.779Z</time>
			</trkpt>
			<trkpt lat="48.241" lon="15.74455">
				<ele>249.41</ele>
				<time>2025-07-29T06:48:00.348Z</time>
			</trkpt>
			<trkpt lat="48.24067" lon="15.74482">
				<ele>249.27</ele>
				<time>2025-07-29T06:48:02.503Z</time>
			</trkpt>
			<trkpt lat="48.23946" lon="15.74599">
				<ele>241.6</ele>
				<time>2025-07-29T06:48:12.110Z</time>
			</trkpt>
			<trkpt lat="48.23811" lon="15.74728">
				<ele>232.93</ele>
				<time>2025-07-29T06:48:27.127Z</time>
			</trkpt>
			<trkpt lat="48.23813" lon="15.74759">
				<ele>231.74</ele>
				<time>2025-07-29T06:48:29.541Z</time>
			</trkpt>
			<trkpt lat="48.23804" lon="15.74994">
				<ele>228</ele>
				<time>2025-07-29T06:48:52.280Z</time>
			</trkpt>
			<trkpt lat="48.23808" lon="15.75029">
				<ele>227.95</ele>
				<time>2025-07-29T06:48:56.493Z</time>
			</trkpt>
			<trkpt lat="48.23866" lon="15.75344">
				<ele>219.82</ele>
				<time>2025-07-29T06:50:21.677Z</time>
			</trkpt>
			<trkpt lat="48.23867" lon="15.75371">
				<ele>219.38</ele>
				<time>2025-07-29T06:50:24.384Z</time>
			</trkpt>
			<trkpt lat="48.23866" lon="15.75477">
				<ele>215.84</ele>
				<time>2025-07-29T06:50:36.735Z</time>
			</trkpt>
			<trkpt lat="48.23882" lon="15.75579">
				<ele>214.75</ele>
				<time>2025-07-29T06:50:51.045Z</time>
			</trkpt>
			<trkpt lat="48.23882" lon="15.75592">
				<ele>214.75</ele>
				<time>2025-07-29T06:50:52.624Z</time>
			</trkpt>
			<trkpt lat="48.23851" lon="15.75678">
				<ele>215.51</ele>
				<time>2025-07-29T06:51:01.045Z</time>
			</trkpt>
			<trkpt lat="48.23818" lon="15.75631">
				<ele>214.88</ele>
				<time>2025-07-29T06:51:05.034Z</time>
			</trkpt>
			<trkpt lat="48.23728" lon="15.75475">
				<ele>216.33</ele>
				<time>2025-07-29T06:51:13.839Z</time>
			</trkpt>
			<trkpt lat="48.23707" lon="15.75444">
				<ele>217.51</ele>
				<time>2025-07-29T06:51:15.324Z</time>
			</trkpt>
			<trkpt lat="48.23685" lon="15.7542">
				<ele>219.25</ele>
				<time>2025-07-29T06:51:16.637Z</time>
			</trkpt>
			<trkpt lat="48.23662" lon="15.75404">
				<ele>220</ele>
				<time>2025-07-29T06:51:17.835Z</time>
			</trkpt>
			<trkpt lat="48.23638" lon="15.75395">
				<ele>218.76</ele>
				<time>2025-07-29T06:51:19.000Z</time>
			</trkpt>
			<trkpt lat="48.23611" lon="15.75391">
				<ele>216.81</ele>
				<time>2025-07-29T06:51:20.300Z</time>
			</trkpt>
			<trkpt lat="48.2356" lon="15.75401">
				<ele>213.71</ele>
				<time>2025-07-29T06:51:22.918Z</time>
			</trkpt>
			<trkpt lat="48.2352" lon="15.75406">
				<ele>213.37</ele>
				<time>2025-07-29T06:51:25.200Z</time>
			</trkpt>
			<trkpt lat="48.23503" lon="15.754">
				<ele>213.59</ele>
				<time>2025-07-29T06:51:26.283Z</time>
			</trkpt>
			<trkpt lat="48.23511" lon="15.75473">
				<ele>213.6</ele>
				<time>2025-07-29T06:51:29.711Z</time>
			</trkpt>
			<trkpt lat="48.23511" lon="15.75507">
				<ele>213.88</ele>
				<time>2025-07-29T06:51:31.504Z</time>
			</trkpt>
			<trkpt lat="48.23492" lon="15.76271">
				<ele>218.88</ele>
				<time>2025-07-29T06:52:41.096Z</time>
			</trkpt>
			<trkpt lat="48.23438" lon="15.76262">
				<ele>219.31</ele>
				<time>2025-07-29T06:52:49.120Z</time>
			</trkpt>
			<trkpt lat="48.23413" lon="15.76261">
				<ele>218.9</ele>
				<time>2025-07-29T06:52:52.671Z</time>
			</trkpt>
			<trkpt lat="48.2333" lon="15.76283">
				<ele>221.16</ele>
				<time>2025-07-29T06:53:03.752Z</time>
			</trkpt>
			<trkpt lat="48.23263" lon="15.76306">
				<ele>221.02</ele>
				<time>2025-07-29T06:53:12.064Z</time>
			</trkpt>
			<trkpt lat="48.23217" lon="15.76328">
				<ele>223.65</ele>
				<time>2025-07-29T06:53:17.713Z</time>
			</trkpt>
			<trkpt lat="48.23127" lon="15.76398">
				<ele>222.52</ele>
				<time>2025-07-29T06:53:29.240Z</time>
			</trkpt>
			<trkpt lat="48.23081" lon="15.76432">
				<ele>221.92</ele>
				<time>2025-07-29T06:53:34.984Z</time>
			</trkpt>
			<trkpt lat="48.2305" lon="15.76465">
				<ele>220.01</ele>
				<time>2025-07-29T06:53:39.237Z</time>
			</trkpt>
			<trkpt lat="48.23019" lon="15.76507">
				<ele>220.28</ele>
				<time>2025-07-29T06:53:43.931Z</time>
			</trkpt>
			<trkpt lat="48.23037" lon="15.76581">
				<ele>221.97</ele>
				<time>2025-07-29T06:53:49.893Z</time>
			</trkpt>
			<trkpt lat="48.23057" lon="15.76624">
				<ele>223.47</ele>
				<time>2025-07-29T06:53:53.934Z</time>
			</trkpt>
			<trkpt lat="48.23079" lon="15.7669">
				<ele>224</ele>
				<time>2025-07-29T06:53:59.781Z</time>
			</trkpt>
			<trkpt lat="48.23086" lon="15.76722">
				<ele>224</ele>
				<time>2025-07-29T06:54:02.500Z</time>
			</trkpt>
			<trkpt lat="48.2309" lon="15.7677">
				<ele>224</ele>
				<time>2025-07-29T06:54:06.446Z</time>
			</trkpt>
			<trkpt lat="48.23067" lon="15.76924">
				<ele>221.4</ele>
				<time>2025-07-29T06:54:19.468Z</time>
			</trkpt>
			<trkpt lat="48.23004" lon="15.76907">
				<ele>225.97</ele>
				<time>2025-07-29T06:54:27.333Z</time>
			</trkpt>
			<trkpt lat="48.22979" lon="15.76966">
				<ele>224.92</ele>
				<time>2025-07-29T06:54:32.936Z</time>
			</trkpt>
			<trkpt lat="48.22964" lon="15.76991">
				<ele>224.65</ele>
				<time>2025-07-29T06:54:35.579Z</time>
			</trkpt>
			<trkpt lat="48.22906" lon="15.77054">
				<ele>223.03</ele>
				<time>2025-07-29T06:54:43.718Z</time>
			</trkpt>
			<trkpt lat="48.22897" lon="15.77068">
				<ele>223</ele>
				<time>2025-07-29T06:54:45.133Z</time>
			</trkpt>
			<trkpt lat="48.22825" lon="15.77251">
				<ele>225.27</ele>
				<time>2025-07-29T06:54:59.011Z</time>
			</trkpt>
			<trkpt lat="48.22781" lon="15.77358">
				<ele>223.09</ele>
				<time>2025-07-29T06:55:05.992Z</time>
			</trkpt>
			<trkpt lat="48.22749" lon="15.77406">
				<ele>224.64</ele>
				<time>2025-07-29T06:55:09.530Z</time>
			</trkpt>
			<trkpt lat="48.22721" lon="15.77437">
				<ele>224.24</ele>
				<time>2025-07-29T06:55:12.155Z</time>
			</trkpt>
			<trkpt lat="48.22646" lon="15.77504">
				<ele>224.5</ele>
				<time>2025-07-29T06:55:18.421Z</time>
			</trkpt>
			<trkpt lat="48.22633" lon="15.77531">
				<ele>225.33</ele>
				<time>2025-07-29T06:55:19.952Z</time>
			</trkpt>
			<trkpt lat="48.22601" lon="15.77746">
				<ele>228.95</ele>
				<time>2025-07-29T06:55:29.631Z</time>
			</trkpt>
			<trkpt lat="48.22585" lon="15.77794">
				<ele>229</ele>
				<time>2025-07-29T06:55:31.911Z</time>
			</trkpt>
			<trkpt lat="48.22542" lon="15.77844">
				<ele>230</ele>
				<time>2025-07-29T06:55:35.343Z</time>
			</trkpt>
			<trkpt lat="48.22491" lon="15.77922">
				<ele>230.38</ele>
				<time>2025-07-29T06:55:38.813Z</time>
			</trkpt>
			<trkpt lat="48.2246" lon="15.77972">
				<ele>231.81</ele>
				<time>2025-07-29T06:55:40.548Z</time>
			</trkpt>
			<trkpt lat="48.22443" lon="15.7801">
				<ele>231.67</ele>
				<time>2025-07-29T06:55:41.778Z</time>
			</trkpt>
			<trkpt lat="48.2243" lon="15.7805">
				<ele>232.12</ele>
				<time>2025-07-29T06:55:43.166Z</time>
			</trkpt>
			<trkpt lat="48.22407" lon="15.78141">
				<ele>235.4</ele>
				<time>2025-07-29T06:55:47.424Z</time>
			</trkpt>
			<trkpt lat="48.2237" lon="15.78214">
				<ele>237.65</ele>
				<time>2025-07-29T06:55:55.928Z</time>
			</trkpt>
			<trkpt lat="48.22348" lon="15.7828">
				<ele>237.45</ele>
				<time>2025-07-29T06:56:14.390Z</time>
			</trkpt>
			<trkpt lat="48.22287" lon="15.78411">
				<ele>232.06</ele>
				<time>2025-07-29T06:56:26.880Z</time>
			</trkpt>
			<trkpt lat="48.2225" lon="15.78478">
				<ele>233.17</ele>
				<time>2025-07-29T06:56:32.906Z</time>
			</trkpt>
			<trkpt lat="48.22223" lon="15.78507">
				<ele>233.73</ele>
				<time>2025-07-29T06:56:36.128Z</time>
			</trkpt>
			<trkpt lat="48.22148" lon="15.78582">
				<ele>236.69</ele>
				<time>2025-07-29T06:56:44.091Z</time>
			</trkpt>
			<trkpt lat="48.22135" lon="15.78601">
				<ele>236.46</ele>
				<time>2025-07-29T06:56:45.564Z</time>
			</trkpt>
			<trkpt lat="48.22116" lon="15.78653">
				<ele>235.89</ele>
				<time>2025-07-29T06:56:48.630Z</time>
			</trkpt>
			<trkpt lat="48.22092" lon="15.78707">
				<ele>237.5</ele>
				<time>2025-07-29T06:56:51.775Z</time>
			</trkpt>
			<trkpt lat="48.22106" lon="15.78716">
				<ele>236.97</ele>
				<time>2025-07-29T06:56:52.832Z</time>
			</trkpt>
			<trkpt lat="48.22127" lon="15.78742">
				<ele>236.4</ele>
				<time>2025-07-29T06:56:54.659Z</time>
			</trkpt>
			<trkpt lat="48.22235" lon="15.78898">
				<ele>233.88</ele>
				<time>2025-07-29T06:57:03.438Z</time>
			</trkpt>
			<trkpt lat="48.22371" lon="15.79129">
				<ele>235.67</ele>
				<time>2025-07-29T06:57:12.745Z</time>
			</trkpt>
			<trkpt lat="48.22473" lon="15.79295">
				<ele>235.74</ele>
				<time>2025-07-29T06:57:18.343Z</time>
			</trkpt>
			<trkpt lat="48.22493" lon="15.79333">
				<ele>238.5</ele>
				<time>2025-07-29T06:57:19.476Z</time>
			</trkpt>
			<trkpt lat="48.22514" lon="15.79381">
				<ele>237.41</ele>
				<time>2025-07-29T06:57:20.804Z</time>
			</trkpt>
			<trkpt lat="48.22575" lon="15.79549">
				<ele>241.2</ele>
				<time>2025-07-29T06:57:25.240Z</time>
			</trkpt>
			<trkpt lat="48.22589" lon="15.79592">
				<ele>242.21</ele>
				<time>2025-07-29T06:57:26.381Z</time>
			</trkpt>
			<trkpt lat="48.22651" lon="15.79804">
				<ele>245.35</ele>
				<time>2025-07-29T06:57:32.335Z</time>
			</trkpt>
			<trkpt lat="48.22662" lon="15.79845">
				<ele>246.58</ele>
				<time>2025-07-29T06:57:33.587Z</time>
			</trkpt>
			<trkpt lat="48.22684" lon="15.79948">
				<ele>248.14</ele>
				<time>2025-07-29T06:57:36.861Z</time>
			</trkpt>
			<trkpt lat="48.22695" lon="15.79976">
				<ele>249.2</ele>
				<time>2025-07-29T06:57:37.911Z</time>
			</trkpt>
			<trkpt lat="48.2271" lon="15.80009">
				<ele>250.57</ele>
				<time>2025-07-29T06:57:39.247Z</time>
			</trkpt>
			<trkpt lat="48.22726" lon="15.80052">
				<ele>251.14</ele>
				<time>2025-07-29T06:57:40.968Z</time>
			</trkpt>
			<trkpt lat="48.22752" lon="15.8013">
				<ele>249.59</ele>
				<time>2025-07-29T06:57:44.226Z</time>
			</trkpt>
			<trkpt lat="48.2277" lon="15.80201">
				<ele>253.07</ele>
				<time>2025-07-29T06:57:47.138Z</time>
			</trkpt>
			<trkpt lat="48.22825" lon="15.80319">
				<ele>257.08</ele>
				<time>2025-07-29T06:57:52.658Z</time>
			</trkpt>
			<trkpt lat="48.22855" lon="15.8037">
				<ele>258.03</ele>
				<time>2025-07-29T06:57:55.265Z</time>
			</trkpt>
			<trkpt lat="48.22892" lon="15.80419">
				<ele>260.37</ele>
				<time>2025-07-29T06:57:58.104Z</time>
			</trkpt>
			<trkpt lat="48.22928" lon="15.80451">
				<ele>262.05</ele>
				<time>2025-07-29T06:58:00.511Z</time>
			</trkpt>
			<trkpt lat="48.22999" lon="15.80505">
				<ele>268.84</ele>
				<time>2025-07-29T06:58:05.091Z</time>
			</trkpt>
			<trkpt lat="48.23062" lon="15.80575">
				<ele>278.18</ele>
				<time>2025-07-29T06:58:09.601Z</time>
			</trkpt>
			<trkpt lat="48.23091" lon="15.80612">
				<ele>281.04</ele>
				<time>2025-07-29T06:58:11.790Z</time>
			</trkpt>
			<trkpt lat="48.23103" lon="15.80637">
				<ele>281.26</ele>
				<time>2025-07-29T06:58:12.971Z</time>
			</trkpt>
			<trkpt lat="48.23115" lon="15.80667">
				<ele>280.75</ele>
				<time>2025-07-29T06:58:14.312Z</time>
			</trkpt>
			<trkpt lat="48.23101" lon="15.80698">
				<ele>284.14</ele>
				<time>2025-07-29T06:58:15.748Z</time>
			</trkpt>
			<trkpt lat="48.23071" lon="15.80785">
				<ele>287.26</ele>
				<time>2025-07-29T06:58:19.503Z</time>
			</trkpt>
			<trkpt lat="48.23068" lon="15.80805">
				<ele>287.45</ele>
				<time>2025-07-29T06:58:20.288Z</time>
			</trkpt>
			<trkpt lat="48.23063" lon="15.80866">
				<ele>289</ele>
				<time>2025-07-29T06:58:22.644Z</time>
			</trkpt>
			<trkpt lat="48.23044" lon="15.80928">
				<ele>289.33</ele>
				<time>2025-07-29T06:58:25.260Z</time>
			</trkpt>
			<trkpt lat="48.23034" lon="15.8095">
				<ele>291.07</ele>
				<time>2025-07-29T06:58:26.280Z</time>
			</trkpt>
			<trkpt lat="48.23021" lon="15.80968">
				<ele>294.6</ele>
				<time>2025-07-29T06:58:27.298Z</time>
			</trkpt>
			<trkpt lat="48.23011" lon="15.80975">
				<ele>297.7</ele>
				<time>2025-07-29T06:58:27.933Z</time>
			</trkpt>
			<trkpt lat="48.23001" lon="15.80979">
				<ele>300.66</ele>
				<time>2025-07-29T06:58:28.528Z</time>
			</trkpt>
			<trkpt lat="48.22962" lon="15.80982">
				<ele>308.54</ele>
				<time>2025-07-29T06:58:30.775Z</time>
			</trkpt>
			<trkpt lat="48.22923" lon="15.80976">
				<ele>308.42</ele>
				<time>2025-07-29T06:58:33.031Z</time>
			</trkpt>
			<trkpt lat="48.22886" lon="15.80982">
				<ele>312.54</ele>
				<time>2025-07-29T06:58:35.172Z</time>
			</trkpt>
			<trkpt lat="48.2285" lon="15.80995">
				<ele>317.19</ele>
				<time>2025-07-29T06:58:37.302Z</time>
			</trkpt>
			<trkpt lat="48.22831" lon="15.81004">
				<ele>317.73</ele>
				<time>2025-07-29T06:58:38.448Z</time>
			</trkpt>
			<trkpt lat="48.22797" lon="15.81047">
				<ele>326.34</ele>
				<time>2025-07-29T06:58:41.006Z</time>
			</trkpt>
			<trkpt lat="48.22754" lon="15.81117">
				<ele>339.66</ele>
				<time>2025-07-29T06:58:44.656Z</time>
			</trkpt>
			<trkpt lat="48.22695" lon="15.8124">
				<ele>348.4</ele>
				<time>2025-07-29T06:58:50.465Z</time>
			</trkpt>
			<trkpt lat="48.22669" lon="15.81323">
				<ele>354.17</ele>
				<time>2025-07-29T06:58:53.981Z</time>
			</trkpt>
			<trkpt lat="48.22638" lon="15.81375">
				<ele>356.53</ele>
				<time>2025-07-29T06:58:56.655Z</time>
			</trkpt>
			<trkpt lat="48.22591" lon="15.8145">
				<ele>359.7</ele>
				<time>2025-07-29T06:59:00.602Z</time>
			</trkpt>
			<trkpt lat="48.22577" lon="15.81485">
				<ele>359.9</ele>
				<time>2025-07-29T06:59:02.167Z</time>
			</trkpt>
			<trkpt lat="48.22572" lon="15.81504">
				<ele>359.3</ele>
				<time>2025-07-29T06:59:02.950Z</time>
			</trkpt>
			<trkpt lat="48.22588" lon="15.8154">
				<ele>356.26</ele>
				<time>2025-07-29T06:59:04.609Z</time>
			</trkpt>
			<trkpt lat="48.22615" lon="15.81584">
				<ele>356.56</ele>
				<time>2025-07-29T06:59:06.902Z</time>
			</trkpt>
			<trkpt lat="48.22644" lon="15.81647">
				<ele>356.83</ele>
				<time>2025-07-29T06:59:09.837Z</time>
			</trkpt>
			<trkpt lat="48.22653" lon="15.81661">
				<ele>356.27</ele>
				<time>2025-07-29T06:59:10.583Z</time>
			</trkpt>
			<trkpt lat="48.22667" lon="15.81673">
				<ele>356.55</ele>
				<time>2025-07-29T06:59:11.510Z</time>
			</trkpt>
			<trkpt lat="48.2269" lon="15.81691">
				<ele>360.39</ele>
				<time>2025-07-29T06:59:13.003Z</time>
			</trkpt>
			<trkpt lat="48.227" lon="15.81704">
				<ele>361.56</ele>
				<time>2025-07-29T06:59:13.764Z</time>
			</trkpt>
			<trkpt lat="48.22707" lon="15.81719">
				<ele>362.42</ele>
				<time>2025-07-29T06:59:14.466Z</time>
			</trkpt>
			<trkpt lat="48.22741" lon="15.81868">
				<ele>364.02</ele>
				<time>2025-07-29T06:59:20.503Z</time>
			</trkpt>
			<trkpt lat="48.22749" lon="15.81908">
				<ele>364.17</ele>
				<time>2025-07-29T06:59:22.103Z</time>
			</trkpt>
			<trkpt lat="48.22756" lon="15.81979">
				<ele>367.42</ele>
				<time>2025-07-29T06:59:24.851Z</time>
			</trkpt>
			<trkpt lat="48.22758" lon="15.8204">
				<ele>371.12</ele>
				<time>2025-07-29T06:59:27.186Z</time>
			</trkpt>
			<trkpt lat="48.22757" lon="15.82051">
				<ele>371.59</ele>
				<time>2025-07-29T06:59:27.610Z</time>
			</trkpt>
			<trkpt lat="48.22754" lon="15.8206">
				<ele>371.84</ele>
				<time>2025-07-29T06:59:27.995Z</time>
			</trkpt>
			<trkpt lat="48.22749" lon="15.82066">
				<ele>371.73</ele>
				<time>2025-07-29T06:59:28.362Z</time>
			</trkpt>
			<trkpt lat="48.22742" lon="15.82069">
				<ele>371.31</ele>
				<time>2025-07-29T06:59:28.779Z</time>
			</trkpt>
			<trkpt lat="48.22709" lon="15.82074">
				<ele>369.45</ele>
				<time>2025-07-29T06:59:30.680Z</time>
			</trkpt>
			<trkpt lat="48.22699" lon="15.82078">
				<ele>369.87</ele>
				<time>2025-07-29T06:59:31.273Z</time>
			</trkpt>
			<trkpt lat="48.22616" lon="15.82125">
				<ele>373.34</ele>
				<time>2025-07-29T06:59:36.348Z</time>
			</trkpt>
			<trkpt lat="48.2257" lon="15.82143">
				<ele>377.78</ele>
				<time>2025-07-29T06:59:39.064Z</time>
			</trkpt>
			<trkpt lat="48.22552" lon="15.82154">
				<ele>379.09</ele>
				<time>2025-07-29T06:59:40.173Z</time>
			</trkpt>
			<trkpt lat="48.22535" lon="15.82169">
				<ele>379.25</ele>
				<time>2025-07-29T06:59:41.299Z</time>
			</trkpt>
			<trkpt lat="48.2251" lon="15.82201">
				<ele>375.81</ele>
				<time>2025-07-29T06:59:43.173Z</time>
			</trkpt>
			<trkpt lat="48.22499" lon="15.8222">
				<ele>375.79</ele>
				<time>2025-07-29T06:59:44.129Z</time>
			</trkpt>
			<trkpt lat="48.22466" lon="15.82289">
				<ele>377.59</ele>
				<time>2025-07-29T06:59:47.353Z</time>
			</trkpt>
			<trkpt lat="48.22456" lon="15.82304">
				<ele>376.83</ele>
				<time>2025-07-29T06:59:48.158Z</time>
			</trkpt>
			<trkpt lat="48.22442" lon="15.82313">
				<ele>376.16</ele>
				<time>2025-07-29T06:59:49.025Z</time>
			</trkpt>
			<trkpt lat="48.22417" lon="15.82316">
				<ele>375.04</ele>
				<time>2025-07-29T06:59:50.453Z</time>
			</trkpt>
			<trkpt lat="48.22332" lon="15.82319">
				<ele>378.55</ele>
				<time>2025-07-29T06:59:55.288Z</time>
			</trkpt>
			<trkpt lat="48.22237" lon="15.82326">
				<ele>371.15</ele>
				<time>2025-07-29T07:00:00.692Z</time>
			</trkpt>
			<trkpt lat="48.22093" lon="15.82346">
				<ele>353.64</ele>
				<time>2025-07-29T07:00:08.901Z</time>
			</trkpt>
			<trkpt lat="48.22071" lon="15.82343">
				<ele>351.49</ele>
				<time>2025-07-29T07:00:10.154Z</time>
			</trkpt>
			<trkpt lat="48.22054" lon="15.82335">
				<ele>350.69</ele>
				<time>2025-07-29T07:00:11.164Z</time>
			</trkpt>
			<trkpt lat="48.22002" lon="15.82299">
				<ele>348.21</ele>
				<time>2025-07-29T07:00:14.413Z</time>
			</trkpt>
			<trkpt lat="48.21982" lon="15.82289">
				<ele>346.54</ele>
				<time>2025-07-29T07:00:15.608Z</time>
			</trkpt>
			<trkpt lat="48.21957" lon="15.82288">
				<ele>347.95</ele>
				<time>2025-07-29T07:00:17.026Z</time>
			</trkpt>
			<trkpt lat="48.21944" lon="15.8229">
				<ele>349.88</ele>
				<time>2025-07-29T07:00:17.768Z</time>
			</trkpt>
			<trkpt lat="48.2193" lon="15.82296">
				<ele>351.79</ele>
				<time>2025-07-29T07:00:18.593Z</time>
			</trkpt>
			<trkpt lat="48.2192" lon="15.82302">
				<ele>353.38</ele>
				<time>2025-07-29T07:00:19.204Z</time>
			</trkpt>
			<trkpt lat="48.21891" lon="15.82323">
				<ele>357.7</ele>
				<time>2025-07-29T07:00:21.030Z</time>
			</trkpt>
			<trkpt lat="48.21876" lon="15.8233">
				<ele>358.45</ele>
				<time>2025-07-29T07:00:21.921Z</time>
			</trkpt>
			<trkpt lat="48.21817" lon="15.82343">
				<ele>360.34</ele>
				<time>2025-07-29T07:00:25.304Z</time>
			</trkpt>
			<trkpt lat="48.2177" lon="15.82363">
				<ele>365.4</ele>
				<time>2025-07-29T07:00:28.075Z</time>
			</trkpt>
			<trkpt lat="48.21723" lon="15.82387">
				<ele>370.96</ele>
				<time>2025-07-29T07:00:30.892Z</time>
			</trkpt>
			<trkpt lat="48.21708" lon="15.82398">
				<ele>370.76</ele>
				<time>2025-07-29T07:00:31.840Z</time>
			</trkpt>
			<trkpt lat="48.21658" lon="15.82451">
				<ele>369.27</ele>
				<time>2025-07-29T07:00:35.316Z</time>
			</trkpt>
			<trkpt lat="48.21646" lon="15.82462">
				<ele>368.46</ele>
				<time>2025-07-29T07:00:36.114Z</time>
			</trkpt>
			<trkpt lat="48.21631" lon="15.82468">
				<ele>367.31</ele>
				<time>2025-07-29T07:00:36.996Z</time>
			</trkpt>
			<trkpt lat="48.21602" lon="15.82477">
				<ele>363.57</ele>
				<time>2025-07-29T07:00:38.678Z</time>
			</trkpt>
			<trkpt lat="48.21593" lon="15.82482">
				<ele>362.14</ele>
				<time>2025-07-29T07:00:39.224Z</time>
			</trkpt>
			<trkpt lat="48.2158" lon="15.82496">
				<ele>360.47</ele>
				<time>2025-07-29T07:00:40.133Z</time>
			</trkpt>
			<trkpt lat="48.21572" lon="15.82515">
				<ele>360.62</ele>
				<time>2025-07-29T07:00:40.984Z</time>
			</trkpt>
			<trkpt lat="48.21557" lon="15.82567">
				<ele>359.82</ele>
				<time>2025-07-29T07:00:43.131Z</time>
			</trkpt>
			<trkpt lat="48.21546" lon="15.82597">
				<ele>357.12</ele>
				<time>2025-07-29T07:00:44.429Z</time>
			</trkpt>
			<trkpt lat="48.21537" lon="15.82605">
				<ele>354.62</ele>
				<time>2025-07-29T07:00:45.024Z</time>
			</trkpt>
			<trkpt lat="48.21451" lon="15.82611">
				<ele>338.28</ele>
				<time>2025-07-29T07:00:49.926Z</time>
			</trkpt>
			<trkpt lat="48.21335" lon="15.82605">
				<ele>322.42</ele>
				<time>2025-07-29T07:00:56.546Z</time>
			</trkpt>
			<trkpt lat="48.21298" lon="15.82589">
				<ele>318.75</ele>
				<time>2025-07-29T07:00:58.745Z</time>
			</trkpt>
			<trkpt lat="48.21272" lon="15.82566">
				<ele>316.6</ele>
				<time>2025-07-29T07:01:00.470Z</time>
			</trkpt>
			<trkpt lat="48.2126" lon="15.82531">
				<ele>315.74</ele>
				<time>2025-07-29T07:01:01.970Z</time>
			</trkpt>
			<trkpt lat="48.21254" lon="15.82518">
				<ele>315.58</ele>
				<time>2025-07-29T07:01:02.573Z</time>
			</trkpt>
			<trkpt lat="48.21223" lon="15.82479">
				<ele>315.75</ele>
				<time>2025-07-29T07:01:04.889Z</time>
			</trkpt>
			<trkpt lat="48.21217" lon="15.82486">
				<ele>315.48</ele>
				<time>2025-07-29T07:01:05.325Z</time>
			</trkpt>
			<trkpt lat="48.21211" lon="15.82505">
				<ele>314.79</ele>
				<time>2025-07-29T07:01:06.127Z</time>
			</trkpt>
			<trkpt lat="48.21207" lon="15.82537">
				<ele>313.83</ele>
				<time>2025-07-29T07:01:07.371Z</time>
			</trkpt>
			<trkpt lat="48.21201" lon="15.82554">
				<ele>313.75</ele>
				<time>2025-07-29T07:01:08.106Z</time>
			</trkpt>
			<trkpt lat="48.21195" lon="15.8256">
				<ele>313.96</ele>
				<time>2025-07-29T07:01:08.520Z</time>
			</trkpt>
			<trkpt lat="48.21185" lon="15.82565">
				<ele>314</ele>
				<time>2025-07-29T07:01:09.124Z</time>
			</trkpt>
			<trkpt lat="48.21163" lon="15.8257">
				<ele>314</ele>
				<time>2025-07-29T07:01:10.402Z</time>
			</trkpt>
			<trkpt lat="48.21125" lon="15.82568">
				<ele>313.77</ele>
				<time>2025-07-29T07:01:12.586Z</time>
			</trkpt>
			<trkpt lat="48.21056" lon="15.82551">
				<ele>309.96</ele>
				<time>2025-07-29T07:01:16.608Z</time>
			</trkpt>
			<trkpt lat="48.20979" lon="15.82532">
				<ele>304.15</ele>
				<time>2025-07-29T07:01:21.108Z</time>
			</trkpt>
			<trkpt lat="48.20952" lon="15.82532">
				<ele>303.57</ele>
				<time>2025-07-29T07:01:22.667Z</time>
			</trkpt>
			<trkpt lat="48.20938" lon="15.82535">
				<ele>303.24</ele>
				<time>2025-07-29T07:01:23.484Z</time>
			</trkpt>
			<trkpt lat="48.20884" lon="15.82564">
				<ele>299.87</ele>
				<time>2025-07-29T07:01:26.803Z</time>
			</trkpt>
			<trkpt lat="48.20872" lon="15.82573">
				<ele>297.89</ele>
				<time>2025-07-29T07:01:27.580Z</time>
			</trkpt>
			<trkpt lat="48.20852" lon="15.82601">
				<ele>294.81</ele>
				<time>2025-07-29T07:01:29.165Z</time>
			</trkpt>
			<trkpt lat="48.20789" lon="15.82711">
				<ele>288.78</ele>
				<time>2025-07-29T07:01:34.781Z</time>
			</trkpt>
			<trkpt lat="48.2076" lon="15.82749">
				<ele>285.27</ele>
				<time>2025-07-29T07:01:37.024Z</time>
			</trkpt>
			<trkpt lat="48.2074" lon="15.82781">
				<ele>283.04</ele>
				<time>2025-07-29T07:01:38.729Z</time>
			</trkpt>
			<trkpt lat="48.20708" lon="15.82841">
				<ele>279.77</ele>
				<time>2025-07-29T07:01:41.721Z</time>
			</trkpt>
			<trkpt lat="48.207" lon="15.8286">
				<ele>279.61</ele>
				<time>2025-07-29T07:01:42.597Z</time>
			</trkpt>
			<trkpt lat="48.2068" lon="15.82917">
				<ele>279.06</ele>
				<time>2025-07-29T07:01:45.111Z</time>
			</trkpt>
			<trkpt lat="48.2068" lon="15.82937">
				<ele>279.7</ele>
				<time>2025-07-29T07:01:45.893Z</time>
			</trkpt>
			<trkpt lat="48.20671" lon="15.83001">
				<ele>280.52</ele>
				<time>2025-07-29T07:01:48.452Z</time>
			</trkpt>
			<trkpt lat="48.20659" lon="15.83068">
				<ele>277.65</ele>
				<time>2025-07-29T07:01:51.172Z</time>
			</trkpt>
			<trkpt lat="48.20643" lon="15.83113">
				<ele>276.41</ele>
				<time>2025-07-29T07:01:53.175Z</time>
			</trkpt>
			<trkpt lat="48.20595" lon="15.83159">
				<ele>273.62</ele>
				<time>2025-07-29T07:01:56.539Z</time>
			</trkpt>
			<trkpt lat="48.20501" lon="15.8326">
				<ele>271.09</ele>
				<time>2025-07-29T07:02:03.396Z</time>
			</trkpt>
			<trkpt lat="48.20489" lon="15.833">
				<ele>270.6</ele>
				<time>2025-07-29T07:02:05.136Z</time>
			</trkpt>
			<trkpt lat="48.20467" lon="15.83388">
				<ele>271.47</ele>
				<time>2025-07-29T07:02:08.874Z</time>
			</trkpt>
			<trkpt lat="48.20465" lon="15.83406">
				<ele>271.23</ele>
				<time>2025-07-29T07:02:09.601Z</time>
			</trkpt>
			<trkpt lat="48.20466" lon="15.83428">
				<ele>271.42</ele>
				<time>2025-07-29T07:02:10.480Z</time>
			</trkpt>
			<trkpt lat="48.20466" lon="15.83477">
				<ele>270.27</ele>
				<time>2025-07-29T07:02:12.436Z</time>
			</trkpt>
			<trkpt lat="48.20463" lon="15.83521">
				<ele>268.95</ele>
				<time>2025-07-29T07:02:14.206Z</time>
			</trkpt>
			<trkpt lat="48.20457" lon="15.83569">
				<ele>268.92</ele>
				<time>2025-07-29T07:02:16.166Z</time>
			</trkpt>
			<trkpt lat="48.2044" lon="15.83616">
				<ele>268.83</ele>
				<time>2025-07-29T07:02:18.322Z</time>
			</trkpt>
			<trkpt lat="48.20372" lon="15.83761">
				<ele>267.85</ele>
				<time>2025-07-29T07:02:25.535Z</time>
			</trkpt>
			<trkpt lat="48.20362" lon="15.83791">
				<ele>266.58</ele>
				<time>2025-07-29T07:02:26.910Z</time>
			</trkpt>
			<trkpt lat="48.20355" lon="15.83843">
				<ele>263.72</ele>
				<time>2025-07-29T07:02:29.090Z</time>
			</trkpt>
			<trkpt lat="48.20351" lon="15.83896">
				<ele>261.54</ele>
				<time>2025-07-29T07:02:31.289Z</time>
			</trkpt>
			<trkpt lat="48.20348" lon="15.83953">
				<ele>261.26</ele>
				<time>2025-07-29T07:02:33.654Z</time>
			</trkpt>
			<trkpt lat="48.20351" lon="15.84013">
				<ele>261.68</ele>
				<time>2025-07-29T07:02:36.151Z</time>
			</trkpt>
			<trkpt lat="48.20362" lon="15.8406">
				<ele>260.95</ele>
				<time>2025-07-29T07:02:38.224Z</time>
			</trkpt>
			<trkpt lat="48.20404" lon="15.84211">
				<ele>259.67</ele>
				<time>2025-07-29T07:02:45.066Z</time>
			</trkpt>
			<trkpt lat="48.20453" lon="15.84436">
				<ele>259.53</ele>
				<time>2025-07-29T07:02:55.033Z</time>
			</trkpt>
			<trkpt lat="48.20457" lon="15.84481">
				<ele>259</ele>
				<time>2025-07-29T07:02:56.952Z</time>
			</trkpt>
			<trkpt lat="48.20457" lon="15.84512">
				<ele>259.23</ele>
				<time>2025-07-29T07:02:58.263Z</time>
			</trkpt>
			<trkpt lat="48.20453" lon="15.84534">
				<ele>259.67</ele>
				<time>2025-07-29T07:02:59.228Z</time>
			</trkpt>
			<trkpt lat="48.20422" lon="15.84557">
				<ele>260.92</ele>
				<time>2025-07-29T07:03:01.426Z</time>
			</trkpt>
			<trkpt lat="48.20389" lon="15.84578">
				<ele>262.01</ele>
				<time>2025-07-29T07:03:03.704Z</time>
			</trkpt>
			<trkpt lat="48.20344" lon="15.84631">
				<ele>267.2</ele>
				<time>2025-07-29T07:03:07.344Z</time>
			</trkpt>
			<trkpt lat="48.20325" lon="15.84641">
				<ele>267.7</ele>
				<time>2025-07-29T07:03:08.625Z</time>
			</trkpt>
			<trkpt lat="48.20227" lon="15.84668">
				<ele>265.45</ele>
				<time>2025-07-29T07:03:14.966Z</time>
			</trkpt>
			<trkpt lat="48.20173" lon="15.84676">
				<ele>265</ele>
				<time>2025-07-29T07:03:18.417Z</time>
			</trkpt>
			<trkpt lat="48.20133" lon="15.84685">
				<ele>265.32</ele>
				<time>2025-07-29T07:03:20.987Z</time>
			</trkpt>
			<trkpt lat="48.20068" lon="15.84708">
				<ele>262.71</ele>
				<time>2025-07-29T07:03:25.226Z</time>
			</trkpt>
			<trkpt lat="48.20032" lon="15.84743">
				<ele>261.86</ele>
				<time>2025-07-29T07:03:27.945Z</time>
			</trkpt>
			<trkpt lat="48.20028" lon="15.84794">
				<ele>261.95</ele>
				<time>2025-07-29T07:03:30.110Z</time>
			</trkpt>
			<trkpt lat="48.20025" lon="15.84898">
				<ele>259.68</ele>
				<time>2025-07-29T07:03:34.491Z</time>
			</trkpt>
			<trkpt lat="48.2002" lon="15.84928">
				<ele>258.85</ele>
				<time>2025-07-29T07:03:35.789Z</time>
			</trkpt>
			<trkpt lat="48.20012" lon="15.84959">
				<ele>257.48</ele>
				<time>2025-07-29T07:03:37.183Z</time>
			</trkpt>
			<trkpt lat="48.19986" lon="15.85018">
				<ele>254.79</ele>
				<time>2025-07-29T07:03:40.143Z</time>
			</trkpt>
			<trkpt lat="48.19957" lon="15.85098">
				<ele>252.93</ele>
				<time>2025-07-29T07:03:43.940Z</time>
			</trkpt>
			<trkpt lat="48.19923" lon="15.85173">
				<ele>248.96</ele>
				<time>2025-07-29T07:03:47.706Z</time>
			</trkpt>
			<trkpt lat="48.1991" lon="15.85217">
				<ele>246.88</ele>
				<time>2025-07-29T07:03:49.697Z</time>
			</trkpt>
			<trkpt lat="48.19905" lon="15.85244">
				<ele>246.6</ele>
				<time>2025-07-29T07:03:50.853Z</time>
			</trkpt>
			<trkpt lat="48.19914" lon="15.85368">
				<ele>246.92</ele>
				<time>2025-07-29T07:03:55.977Z</time>
			</trkpt>
			<trkpt lat="48.19923" lon="15.85447">
				<ele>245.21</ele>
				<time>2025-07-29T07:03:59.247Z</time>
			</trkpt>
			<trkpt lat="48.19926" lon="15.85487">
				<ele>245</ele>
				<time>2025-07-29T07:04:00.882Z</time>
			</trkpt>
			<trkpt lat="48.19927" lon="15.8553">
				<ele>244.93</ele>
				<time>2025-07-29T07:04:02.624Z</time>
			</trkpt>
			<trkpt lat="48.19925" lon="15.85609">
				<ele>244.3</ele>
				<time>2025-07-29T07:04:05.809Z</time>
			</trkpt>
			<trkpt lat="48.19929" lon="15.85649">
				<ele>244.77</ele>
				<time>2025-07-29T07:04:07.430Z</time>
			</trkpt>
			<trkpt lat="48.19935" lon="15.85672">
				<ele>244.59</ele>
				<time>2025-07-29T07:04:08.418Z</time>
			</trkpt>
			<trkpt lat="48.19976" lon="15.85783">
				<ele>244.14</ele>
				<time>2025-07-29T07:04:13.454Z</time>
			</trkpt>
			<trkpt lat="48.19983" lon="15.85805">
				<ele>244.39</ele>
				<time>2025-07-29T07:04:14.409Z</time>
			</trkpt>
			<trkpt lat="48.19994" lon="15.85875">
				<ele>242.78</ele>
				<time>2025-07-29T07:04:17.201Z</time>
			</trkpt>
			<trkpt lat="48.20008" lon="15.85944">
				<ele>241.3</ele>
				<time>2025-07-29T07:04:19.968Z</time>
			</trkpt>
			<trkpt lat="48.20023" lon="15.85989">
				<ele>240.89</ele>
				<time>2025-07-29T07:04:21.883Z</time>
			</trkpt>
			<trkpt lat="48.20048" lon="15.86059">
				<ele>241.38</ele>
				<time>2025-07-29T07:04:24.892Z</time>
			</trkpt>
			<trkpt lat="48.20059" lon="15.86079">
				<ele>241.41</ele>
				<time>2025-07-29T07:04:25.873Z</time>
			</trkpt>
			<trkpt lat="48.2011" lon="15.86143">
				<ele>244.82</ele>
				<time>2025-07-29T07:04:29.649Z</time>
			</trkpt>
			<trkpt lat="48.2013" lon="15.86183">
				<ele>245.42</ele>
				<time>2025-07-29T07:04:31.550Z</time>
			</trkpt>
			<trkpt lat="48.20147" lon="15.86229">
				<ele>246.93</ele>
				<time>2025-07-29T07:04:33.560Z</time>
			</trkpt>
			<trkpt lat="48.2016" lon="15.86276">
				<ele>248.51</ele>
				<time>2025-07-29T07:04:35.520Z</time>
			</trkpt>
			<trkpt lat="48.20175" lon="15.86341">
				<ele>248.52</ele>
				<time>2025-07-29T07:04:38.198Z</time>
			</trkpt>
			<trkpt lat="48.20185" lon="15.86404">
				<ele>245.81</ele>
				<time>2025-07-29T07:04:40.726Z</time>
			</trkpt>
			<trkpt lat="48.20197" lon="15.86544">
				<ele>244.03</ele>
				<time>2025-07-29T07:04:46.119Z</time>
			</trkpt>
			<trkpt lat="48.20212" lon="15.86627">
				<ele>243.78</ele>
				<time>2025-07-29T07:04:49.339Z</time>
			</trkpt>
			<trkpt lat="48.20248" lon="15.86795">
				<ele>240.7</ele>
				<time>2025-07-29T07:04:55.826Z</time>
			</trkpt>
			<trkpt lat="48.20272" lon="15.86859">
				<ele>237.26</ele>
				<time>2025-07-29T07:04:58.492Z</time>
			</trkpt>
			<trkpt lat="48.20288" lon="15.86916">
				<ele>235.02</ele>
				<time>2025-07-29T07:05:00.727Z</time>
			</trkpt>
			<trkpt lat="48.20299" lon="15.8702">
				<ele>233.79</ele>
				<time>2025-07-29T07:05:04.519Z</time>
			</trkpt>
			<trkpt lat="48.20267" lon="15.87087">
				<ele>233.46</ele>
				<time>2025-07-29T07:05:07.484Z</time>
			</trkpt>
			<trkpt lat="48.2024" lon="15.87175">
				<ele>233.64</ele>
				<time>2025-07-29T07:05:10.976Z</time>
			</trkpt>
			<trkpt lat="48.20231" lon="15.87199">
				<ele>233.32</ele>
				<time>2025-07-29T07:05:11.971Z</time>
			</trkpt>
			<trkpt lat="48.20215" lon="15.87229">
				<ele>232.29</ele>
				<time>2025-07-29T07:05:13.363Z</time>
			</trkpt>
			<trkpt lat="48.20221" lon="15.87245">
				<ele>232.15</ele>
				<time>2025-07-29T07:05:14.030Z</time>
			</trkpt>
			<trkpt lat="48.20265" lon="15.87245">
				<ele>233.06</ele>
				<time>2025-07-29T07:05:16.435Z</time>
			</trkpt>
			<trkpt lat="48.20277" lon="15.87253">
				<ele>233</ele>
				<time>2025-07-29T07:05:17.155Z</time>
			</trkpt>
			<trkpt lat="48.20316" lon="15.87307">
				<ele>233.4</ele>
				<time>2025-07-29T07:05:20.086Z</time>
			</trkpt>
			<trkpt lat="48.20329" lon="15.87316">
				<ele>233.86</ele>
				<time>2025-07-29T07:05:20.881Z</time>
			</trkpt>
			<trkpt lat="48.20365" lon="15.87329">
				<ele>233.13</ele>
				<time>2025-07-29T07:05:22.951Z</time>
			</trkpt>
			<trkpt lat="48.20423" lon="15.87345">
				<ele>233.93</ele>
				<time>2025-07-29T07:05:26.286Z</time>
			</trkpt>
			<trkpt lat="48.20455" lon="15.87352">
				<ele>234.49</ele>
				<time>2025-07-29T07:05:28.138Z</time>
			</trkpt>
			<trkpt lat="48.20513" lon="15.87369">
				<ele>234</ele>
				<time>2025-07-29T07:05:31.570Z</time>
			</trkpt>
			<trkpt lat="48.20574" lon="15.87405">
				<ele>233.32</ele>
				<time>2025-07-29T07:05:35.458Z</time>
			</trkpt>
			<trkpt lat="48.20626" lon="15.87453">
				<ele>231.45</ele>
				<time>2025-07-29T07:05:39.166Z</time>
			</trkpt>
			<trkpt lat="48.20658" lon="15.87492">
				<ele>231</ele>
				<time>2025-07-29T07:05:41.723Z</time>
			</trkpt>
			<trkpt lat="48.20719" lon="15.8758">
				<ele>230.8</ele>
				<time>2025-07-29T07:05:47.117Z</time>
			</trkpt>
			<trkpt lat="48.20823" lon="15.87711">
				<ele>228.24</ele>
				<time>2025-07-29T07:05:56.239Z</time>
			</trkpt>
			<trkpt lat="48.20892" lon="15.87806">
				<ele>233.13</ele>
				<time>2025-07-29T07:06:02.912Z</time>
			</trkpt>
			<trkpt lat="48.20915" lon="15.87833">
				<ele>233.95</ele>
				<time>2025-07-29T07:06:05.063Z</time>
			</trkpt>
			<trkpt lat="48.20896" lon="15.87883">
				<ele>232.44</ele>
				<time>2025-07-29T07:06:07.942Z</time>
			</trkpt>
			<trkpt lat="48.20873" lon="15.87962">
				<ele>231.44</ele>
				<time>2025-07-29T07:06:12.374Z</time>
			</trkpt>
			<trkpt lat="48.2082" lon="15.88219">
				<ele>224.59</ele>
				<time>2025-07-29T07:06:24.741Z</time>
			</trkpt>
			<trkpt lat="48.20806" lon="15.88321">
				<ele>223.45</ele>
				<time>2025-07-29T07:06:48.649Z</time>
			</trkpt>
			<trkpt lat="48.20786" lon="15.8843">
				<ele>224.67</ele>
				<time>2025-07-29T07:07:27.585Z</time>
			</trkpt>
			<trkpt lat="48.20786" lon="15.88471">
				<ele>224</ele>
				<time>2025-07-29T07:07:34.451Z</time>
			</trkpt>
			<trkpt lat="48.2079" lon="15.88517">
				<ele>223.09</ele>
				<time>2025-07-29T07:07:41.552Z</time>
			</trkpt>
			<trkpt lat="48.20831" lon="15.88809">
				<ele>223.8</ele>
				<time>2025-07-29T07:08:13.077Z</time>
			</trkpt>
			<trkpt lat="48.20835" lon="15.88852">
				<ele>222.9</ele>
				<time>2025-07-29T07:08:16.027Z</time>
			</trkpt>
			<trkpt lat="48.20838" lon="15.88885">
				<ele>222.09</ele>
				<time>2025-07-29T07:08:18.076Z</time>
			</trkpt>
			<trkpt lat="48.20837" lon="15.88912">
				<ele>221.25</ele>
				<time>2025-07-29T07:08:19.615Z</time>
			</trkpt>
			<trkpt lat="48.20835" lon="15.88938">
				<ele>220.27</ele>
				<time>2025-07-29T07:08:21.006Z</time>
			</trkpt>
			<trkpt lat="48.20824" lon="15.8901">
				<ele>218.8</ele>
				<time>2025-07-29T07:08:24.477Z</time>
			</trkpt>
			<trkpt lat="48.20808" lon="15.89108">
				<ele>219.08</ele>
				<time>2025-07-29T07:08:28.382Z</time>
			</trkpt>
			<trkpt lat="48.20792" lon="15.89189">
				<ele>221.29</ele>
				<time>2025-07-29T07:08:31.193Z</time>
			</trkpt>
			<trkpt lat="48.20699" lon="15.89543">
				<ele>222.81</ele>
				<time>2025-07-29T07:08:45.680Z</time>
			</trkpt>
			<trkpt lat="48.20701" lon="15.89555">
				<ele>222.49</ele>
				<time>2025-07-29T07:08:46.300Z</time>
			</trkpt>
			<trkpt lat="48.20693" lon="15.89561">
				<ele>221.77</ele>
				<time>2025-07-29T07:08:46.964Z</time>
			</trkpt>
			<trkpt lat="48.20603" lon="15.89667">
				<ele>222.71</ele>
				<time>2025-07-29T07:08:54.798Z</time>
			</trkpt>
			<trkpt lat="48.20577" lon="15.8971">
				<ele>222.78</ele>
				<time>2025-07-29T07:08:57.196Z</time>
			</trkpt>
			<trkpt lat="48.20561" lon="15.89747">
				<ele>223.77</ele>
				<time>2025-07-29T07:08:58.944Z</time>
			</trkpt>
			<trkpt lat="48.20519" lon="15.89873">
				<ele>226.31</ele>
				<time>2025-07-29T07:09:04.152Z</time>
			</trkpt>
			<trkpt lat="48.20499" lon="15.8992">
				<ele>228.13</ele>
				<time>2025-07-29T07:09:06.078Z</time>
			</trkpt>
			<trkpt lat="48.20474" lon="15.89966">
				<ele>229.79</ele>
				<time>2025-07-29T07:09:08.061Z</time>
			</trkpt>
			<trkpt lat="48.20463" lon="15.89992">
				<ele>230.49</ele>
				<time>2025-07-29T07:09:09.065Z</time>
			</trkpt>
			<trkpt lat="48.20455" lon="15.90021">
				<ele>230.08</ele>
				<time>2025-07-29T07:09:10.073Z</time>
			</trkpt>
			<trkpt lat="48.20451" lon="15.90045">
				<ele>229.34</ele>
				<time>2025-07-29T07:09:10.859Z</time>
			</trkpt>
			<trkpt lat="48.2045" lon="15.90069">
				<ele>228.5</ele>
				<time>2025-07-29T07:09:11.614Z</time>
			</trkpt>
			<trkpt lat="48.20446" lon="15.90097">
				<ele>228</ele>
				<time>2025-07-29T07:09:12.506Z</time>
			</trkpt>
			<trkpt lat="48.20442" lon="15.9011">
				<ele>228</ele>
				<time>2025-07-29T07:09:12.949Z</time>
			</trkpt>
			<trkpt lat="48.20433" lon="15.90132">
				<ele>227.37</ele>
				<time>2025-07-29T07:09:13.743Z</time>
			</trkpt>
			<trkpt lat="48.20379" lon="15.90213">
				<ele>219.32</ele>
				<time>2025-07-29T07:09:17.216Z</time>
			</trkpt>
			<trkpt lat="48.20226" lon="15.89993">
				<ele>220.13</ele>
				<time>2025-07-29T07:09:26.982Z</time>
			</trkpt>
			<trkpt lat="48.20195" lon="15.89962">
				<ele>220.95</ele>
				<time>2025-07-29T07:09:28.807Z</time>
			</trkpt>
			<trkpt lat="48.20162" lon="15.89944">
				<ele>221</ele>
				<time>2025-07-29T07:09:30.577Z</time>
			</trkpt>
			<trkpt lat="48.20159" lon="15.89936">
				<ele>221</ele>
				<time>2025-07-29T07:09:30.891Z</time>
			</trkpt>
			<trkpt lat="48.20152" lon="15.89932">
				<ele>221</ele>
				<time>2025-07-29T07:09:31.278Z</time>
			</trkpt>
			<trkpt lat="48.20148" lon="15.89932">
				<ele>221</ele>
				<time>2025-07-29T07:09:31.486Z</time>
			</trkpt>
			<trkpt lat="48.20142" lon="15.89937">
				<ele>221</ele>
				<time>2025-07-29T07:09:31.844Z</time>
			</trkpt>
			<trkpt lat="48.20139" lon="15.89946">
				<ele>221</ele>
				<time>2025-07-29T07:09:32.197Z</time>
			</trkpt>
			<trkpt lat="48.20122" lon="15.89962">
				<ele>220.6</ele>
				<time>2025-07-29T07:09:33.266Z</time>
			</trkpt>
			<trkpt lat="48.20105" lon="15.89974">
				<ele>220.17</ele>
				<time>2025-07-29T07:09:34.287Z</time>
			</trkpt>
			<trkpt lat="48.20042" lon="15.90027">
				<ele>220</ele>
				<time>2025-07-29T07:09:38.414Z</time>
			</trkpt>
			<trkpt lat="48.2001" lon="15.90052">
				<ele>220.95</ele>
				<time>2025-07-29T07:09:40.611Z</time>
			</trkpt>
			<trkpt lat="48.19974" lon="15.90077">
				<ele>221.97</ele>
				<time>2025-07-29T07:09:43.143Z</time>
			</trkpt>
			<trkpt lat="48.19936" lon="15.90098">
				<ele>223</ele>
				<time>2025-07-29T07:09:45.866Z</time>
			</trkpt>
			<trkpt lat="48.19924" lon="15.90101">
				<ele>223</ele>
				<time>2025-07-29T07:09:46.713Z</time>
			</trkpt>
			<trkpt lat="48.19831" lon="15.90101">
				<ele>222.36</ele>
				<time>2025-07-29T07:09:53.704Z</time>
			</trkpt>
			<trkpt lat="48.19791" lon="15.90099">
				<ele>223.47</ele>
				<time>2025-07-29T07:09:57.106Z</time>
			</trkpt>
			<trkpt lat="48.19787" lon="15.90114">
				<ele>223.18</ele>
				<time>2025-07-29T07:09:58.064Z</time>
			</trkpt>
			<trkpt lat="48.19776" lon="15.90167">
				<ele>223.08</ele>
				<time>2025-07-29T07:10:01.484Z</time>
			</trkpt>
			<trkpt lat="48.1973" lon="15.90345">
				<ele>231.19</ele>
				<time>2025-07-29T07:10:14.542Z</time>
			</trkpt>
			<trkpt lat="48.19676" lon="15.9052">
				<ele>237.73</ele>
				<time>2025-07-29T07:10:29.193Z</time>
			</trkpt>
			<trkpt lat="48.1967" lon="15.90545">
				<ele>239.37</ele>
				<time>2025-07-29T07:10:31.285Z</time>
			</trkpt>
			<trkpt lat="48.19573" lon="15.90954">
				<ele>254.42</ele>
				<time>2025-07-29T07:11:06.924Z</time>
			</trkpt>
			<trkpt lat="48.19561" lon="15.91016">
				<ele>254.19</ele>
				<time>2025-07-29T07:11:12.717Z</time>
			</trkpt>
			<trkpt lat="48.19557" lon="15.91051">
				<ele>254.07</ele>
				<time>2025-07-29T07:11:15.923Z</time>
			</trkpt>
			<trkpt lat="48.19557" lon="15.91077">
				<ele>254.05</ele>
				<time>2025-07-29T07:11:18.271Z</time>
			</trkpt>
			<trkpt lat="48.19569" lon="15.91248">
				<ele>251.96</ele>
				<time>2025-07-29T07:11:33.517Z</time>
			</trkpt>
			<trkpt lat="48.19573" lon="15.91278">
				<ele>251.65</ele>
				<time>2025-07-29T07:11:36.195Z</time>
			</trkpt>
			<trkpt lat="48.19584" lon="15.91336">
				<ele>247.58</ele>
				<time>2025-07-29T07:11:41.469Z</time>
			</trkpt>
			<trkpt lat="48.19585" lon="15.9135">
				<ele>245.96</ele>
				<time>2025-07-29T07:11:42.700Z</time>
			</trkpt>
			<trkpt lat="48.19585" lon="15.91366">
				<ele>244.52</ele>
				<time>2025-07-29T07:11:44.099Z</time>
			</trkpt>
			<trkpt lat="48.19581" lon="15.91388">
				<ele>243.24</ele>
				<time>2025-07-29T07:11:46.093Z</time>
			</trkpt>
			<trkpt lat="48.19577" lon="15.91396">
				<ele>243.31</ele>
				<time>2025-07-29T07:11:46.967Z</time>
			</trkpt>
			<trkpt lat="48.19524" lon="15.91461">
				<ele>246.67</ele>
				<time>2025-07-29T07:11:55.948Z</time>
			</trkpt>
			<trkpt lat="48.19456" lon="15.91559">
				<ele>248.91</ele>
				<time>2025-07-29T07:12:08.342Z</time>
			</trkpt>
			<trkpt lat="48.19386" lon="15.91665">
				<ele>247.19</ele>
				<time>2025-07-29T07:12:21.476Z</time>
			</trkpt>
			<trkpt lat="48.19294" lon="15.91795">
				<ele>248.59</ele>
				<time>2025-07-29T07:12:38.228Z</time>
			</trkpt>
			<trkpt lat="48.19276" lon="15.91834">
				<ele>247.13</ele>
				<time>2025-07-29T07:12:42.422Z</time>
			</trkpt>
			<trkpt lat="48.1927" lon="15.9185">
				<ele>247.12</ele>
				<time>2025-07-29T07:12:44.045Z</time>
			</trkpt>
			<trkpt lat="48.19264" lon="15.9189">
				<ele>246.31</ele>
				<time>2025-07-29T07:12:47.671Z</time>
			</trkpt>
			<trkpt lat="48.1926" lon="15.91941">
				<ele>243.13</ele>
				<time>2025-07-29T07:12:52.214Z</time>
			</trkpt>
			<trkpt lat="48.19252" lon="15.91975">
				<ele>241.3</ele>
				<time>2025-07-29T07:12:55.404Z</time>
			</trkpt>
			<trkpt lat="48.19216" lon="15.92076">
				<ele>239.92</ele>
				<time>2025-07-29T07:13:05.543Z</time>
			</trkpt>
			<trkpt lat="48.19185" lon="15.92143">
				<ele>239.59</ele>
				<time>2025-07-29T07:13:12.767Z</time>
			</trkpt>
			<trkpt lat="48.19178" lon="15.9216">
				<ele>238.69</ele>
				<time>2025-07-29T07:13:14.537Z</time>
			</trkpt>
			<trkpt lat="48.1917" lon="15.92192">
				<ele>237.78</ele>
				<time>2025-07-29T07:13:17.565Z</time>
			</trkpt>
			<trkpt lat="48.19165" lon="15.92225">
				<ele>237.97</ele>
				<time>2025-07-29T07:13:20.565Z</time>
			</trkpt>
			<trkpt lat="48.19162" lon="15.92269">
				<ele>237.35</ele>
				<time>2025-07-29T07:13:24.486Z</time>
			</trkpt>
			<trkpt lat="48.19156" lon="15.92389">
				<ele>233.35</ele>
				<time>2025-07-29T07:13:35.161Z</time>
			</trkpt>
			<trkpt lat="48.1915" lon="15.92419">
				<ele>232.48</ele>
				<time>2025-07-29T07:13:37.940Z</time>
			</trkpt>
			<trkpt lat="48.19094" lon="15.92624">
				<ele>236.28</ele>
				<time>2025-07-29T07:13:57.619Z</time>
			</trkpt>
			<trkpt lat="48.19088" lon="15.92649">
				<ele>236.41</ele>
				<time>2025-07-29T07:13:59.982Z</time>
			</trkpt>
			<trkpt lat="48.19085" lon="15.9267">
				<ele>235.91</ele>
				<time>2025-07-29T07:14:01.892Z</time>
			</trkpt>
			<trkpt lat="48.19058" lon="15.92949">
				<ele>242.87</ele>
				<time>2025-07-29T07:14:26.990Z</time>
			</trkpt>
			<trkpt lat="48.19049" lon="15.93011">
				<ele>245.57</ele>
				<time>2025-07-29T07:14:32.646Z</time>
			</trkpt>
			<trkpt lat="48.19034" lon="15.93068">
				<ele>244.52</ele>
				<time>2025-07-29T07:14:38.112Z</time>
			</trkpt>
			<trkpt lat="48.19019" lon="15.93087">
				<ele>245.07</ele>
				<time>2025-07-29T07:14:40.740Z</time>
			</trkpt>
		</trkseg>
	</trk>
</gpx>